<?xml version='1.0' encoding='UTF-8'?><gpx version="1.1" creator="JPX - https://github.com/jenetics/jpx" xmlns="http://www.topografix.com/GPX/1/1"><trk><trkseg><trkpt lat="42.1498577" lon="14.5851246"><ele>197.0</ele><time>2026-04-26T06:31:31.013Z</time></trkpt><trkpt lat="42.1498127" lon="14.5851891"><ele>197.0</ele><time>2026-04-26T06:31:39.299Z</time></trkpt><trkpt lat="42.1499036" lon="14.5852107"><ele>197.0</ele><time>2026-04-26T06:31:45.299Z</time></trkpt><trkpt lat="42.1500449" lon="14.5852317"><ele>197.0</ele><time>2026-04-26T06:32:23.886Z</time></trkpt><trkpt lat="42.1500405" lon="14.5853295"><ele>197.0</ele><time>2026-04-26T06:34:31.889Z</time></trkpt><trkpt lat="42.1499261" lon="14.5852804"><ele>197.00000000000003</ele><time>2026-04-26T06:34:36.89Z</time></trkpt><trkpt lat="42.1498317" lon="14.5852923"><ele>197.0</ele><time>2026-04-26T06:35:22.89Z</time></trkpt><trkpt lat="42.1497576" lon="14.5852658"><ele>197.0</ele><time>2026-04-26T06:35:26.89Z</time></trkpt><trkpt lat="42.1496917" lon="14.5852084"><ele>197.0</ele><time>2026-04-26T06:35:27.89Z</time></trkpt><trkpt lat="42.1496011" lon="14.5851603"><ele>197.00000000000003</ele><time>2026-04-26T06:35:29.89Z</time></trkpt><trkpt lat="42.1495097" lon="14.5851222"><ele>197.0</ele><time>2026-04-26T06:35:31.89Z</time></trkpt><trkpt lat="42.1494231" lon="14.5851192"><ele>197.00000000000003</ele><time>2026-04-26T06:35:33.889Z</time></trkpt><trkpt lat="42.1493336" lon="14.5851332"><ele>197.0</ele><time>2026-04-26T06:35:35.889Z</time></trkpt><trkpt lat="42.1492526" lon="14.585186"><ele>197.0</ele><time>2026-04-26T06:35:37.889Z</time></trkpt><trkpt lat="42.1492202" lon="14.5852819"><ele>197.0</ele><time>2026-04-26T06:35:40.889Z</time></trkpt><trkpt lat="42.149251" lon="14.5853726"><ele>197.00000000000003</ele><time>2026-04-26T06:35:42.89Z</time></trkpt><trkpt lat="42.1493002" lon="14.5854687"><ele>197.0</ele><time>2026-04-26T06:35:44.89Z</time></trkpt><trkpt lat="42.1493614" lon="14.5855626"><ele>196.33333333333334</ele><time>2026-04-26T06:35:46.889Z</time></trkpt><trkpt lat="42.1494293" lon="14.5856695"><ele>195.66666666666669</ele><time>2026-04-26T06:35:48.89Z</time></trkpt><trkpt lat="42.1495198" lon="14.5857851"><ele>195.0</ele><time>2026-04-26T06:35:50.889Z</time></trkpt><trkpt lat="42.1495764" lon="14.5858337"><ele>194.33333333333331</ele><time>2026-04-26T06:35:51.889Z</time></trkpt><trkpt lat="42.1496396" lon="14.5858774"><ele>193.66666666666666</ele><time>2026-04-26T06:35:52.89Z</time></trkpt><trkpt lat="42.1497051" lon="14.5859075"><ele>193.0</ele><time>2026-04-26T06:35:53.89Z</time></trkpt><trkpt lat="42.1497738" lon="14.5859365"><ele>192.99999999999997</ele><time>2026-04-26T06:35:54.889Z</time></trkpt><trkpt lat="42.1498408" lon="14.5859798"><ele>193.0</ele><time>2026-04-26T06:35:55.89Z</time></trkpt><trkpt lat="42.1499104" lon="14.5860218"><ele>193.0</ele><time>2026-04-26T06:35:56.89Z</time></trkpt><trkpt lat="42.1499821" lon="14.586055"><ele>193.0</ele><time>2026-04-26T06:35:57.89Z</time></trkpt><trkpt lat="42.1500578" lon="14.5860893"><ele>192.99999999999997</ele><time>2026-04-26T06:35:58.89Z</time></trkpt><trkpt lat="42.1501347" lon="14.5861176"><ele>193.0</ele><time>2026-04-26T06:35:59.889Z</time></trkpt><trkpt lat="42.1502155" lon="14.5861418"><ele>193.33333333333331</ele><time>2026-04-26T06:36:00.89Z</time></trkpt><trkpt lat="42.150295" lon="14.5861689"><ele>193.66666666666666</ele><time>2026-04-26T06:36:01.89Z</time></trkpt><trkpt lat="42.1503764" lon="14.5862047"><ele>194.0</ele><time>2026-04-26T06:36:02.89Z</time></trkpt><trkpt lat="42.1504569" lon="14.5862623"><ele>194.33333333333331</ele><time>2026-04-26T06:36:03.889Z</time></trkpt><trkpt lat="42.150533" lon="14.5863285"><ele>194.66666666666666</ele><time>2026-04-26T06:36:04.889Z</time></trkpt><trkpt lat="42.1506039" lon="14.5864068"><ele>195.0</ele><time>2026-04-26T06:36:05.889Z</time></trkpt><trkpt lat="42.1506611" lon="14.5865048"><ele>192.8</ele><time>2026-04-26T06:36:06.889Z</time></trkpt><trkpt lat="42.150716" lon="14.5866102"><ele>190.6</ele><time>2026-04-26T06:36:07.89Z</time></trkpt><trkpt lat="42.150764" lon="14.5867237"><ele>188.39999999999998</ele><time>2026-04-26T06:36:08.89Z</time></trkpt><trkpt lat="42.150801" lon="14.586846"><ele>186.2</ele><time>2026-04-26T06:36:09.889Z</time></trkpt><trkpt lat="42.1508368" lon="14.5869666"><ele>184.0</ele><time>2026-04-26T06:36:10.889Z</time></trkpt><trkpt lat="42.1508714" lon="14.5870942"><ele>183.39999999999998</ele><time>2026-04-26T06:36:11.89Z</time></trkpt><trkpt lat="42.1509085" lon="14.5872207"><ele>182.8</ele><time>2026-04-26T06:36:12.89Z</time></trkpt><trkpt lat="42.1509474" lon="14.5873466"><ele>182.2</ele><time>2026-04-26T06:36:13.889Z</time></trkpt><trkpt lat="42.1509859" lon="14.5874759"><ele>181.60000000000002</ele><time>2026-04-26T06:36:14.889Z</time></trkpt><trkpt lat="42.1510293" lon="14.587617"><ele>181.0</ele><time>2026-04-26T06:36:15.889Z</time></trkpt><trkpt lat="42.151068" lon="14.5877531"><ele>180.20000000000002</ele><time>2026-04-26T06:36:16.89Z</time></trkpt><trkpt lat="42.1511066" lon="14.587885"><ele>179.4</ele><time>2026-04-26T06:36:17.89Z</time></trkpt><trkpt lat="42.1511436" lon="14.5880192"><ele>178.6</ele><time>2026-04-26T06:36:18.89Z</time></trkpt><trkpt lat="42.1511814" lon="14.5881542"><ele>177.8</ele><time>2026-04-26T06:36:19.89Z</time></trkpt><trkpt lat="42.1512184" lon="14.5882879"><ele>177.0</ele><time>2026-04-26T06:36:20.89Z</time></trkpt><trkpt lat="42.1512566" lon="14.5884227"><ele>177.0</ele><time>2026-04-26T06:36:21.89Z</time></trkpt><trkpt lat="42.1512963" lon="14.5885591"><ele>177.0</ele><time>2026-04-26T06:36:22.89Z</time></trkpt><trkpt lat="42.1513363" lon="14.5886945"><ele>177.0</ele><time>2026-04-26T06:36:23.89Z</time></trkpt><trkpt lat="42.1513738" lon="14.5888281"><ele>177.0</ele><time>2026-04-26T06:36:24.889Z</time></trkpt><trkpt lat="42.1514134" lon="14.5889613"><ele>177.0</ele><time>2026-04-26T06:36:25.89Z</time></trkpt><trkpt lat="42.1514545" lon="14.5890931"><ele>176.2</ele><time>2026-04-26T06:36:26.89Z</time></trkpt><trkpt lat="42.1514971" lon="14.5892218"><ele>175.39999999999998</ele><time>2026-04-26T06:36:27.89Z</time></trkpt><trkpt lat="42.1515369" lon="14.58935"><ele>174.60000000000002</ele><time>2026-04-26T06:36:28.89Z</time></trkpt><trkpt lat="42.1515767" lon="14.5894772"><ele>173.8</ele><time>2026-04-26T06:36:29.889Z</time></trkpt><trkpt lat="42.151616" lon="14.5896051"><ele>173.0</ele><time>2026-04-26T06:36:30.889Z</time></trkpt><trkpt lat="42.1516505" lon="14.5897318"><ele>172.4</ele><time>2026-04-26T06:36:31.89Z</time></trkpt><trkpt lat="42.1516877" lon="14.5898556"><ele>171.8</ele><time>2026-04-26T06:36:32.889Z</time></trkpt><trkpt lat="42.1517231" lon="14.5899787"><ele>171.2</ele><time>2026-04-26T06:36:33.889Z</time></trkpt><trkpt lat="42.1517598" lon="14.5900992"><ele>170.6</ele><time>2026-04-26T06:36:34.89Z</time></trkpt><trkpt lat="42.1517953" lon="14.5902164"><ele>170.0</ele><time>2026-04-26T06:36:35.89Z</time></trkpt><trkpt lat="42.1518313" lon="14.5903349"><ele>169.4</ele><time>2026-04-26T06:36:36.889Z</time></trkpt><trkpt lat="42.1518664" lon="14.5904543"><ele>168.8</ele><time>2026-04-26T06:36:37.89Z</time></trkpt><trkpt lat="42.1519004" lon="14.5905693"><ele>168.2</ele><time>2026-04-26T06:36:38.89Z</time></trkpt><trkpt lat="42.1519349" lon="14.5906827"><ele>167.6</ele><time>2026-04-26T06:36:39.89Z</time></trkpt><trkpt lat="42.1519619" lon="14.5907909"><ele>167.0</ele><time>2026-04-26T06:36:40.89Z</time></trkpt><trkpt lat="42.1519931" lon="14.5909088"><ele>167.0</ele><time>2026-04-26T06:36:41.89Z</time></trkpt><trkpt lat="42.1520199" lon="14.5910275"><ele>167.0</ele><time>2026-04-26T06:36:42.89Z</time></trkpt><trkpt lat="42.1520261" lon="14.5911464"><ele>167.0</ele><time>2026-04-26T06:36:43.89Z</time></trkpt><trkpt lat="42.1520308" lon="14.5912599"><ele>167.0</ele><time>2026-04-26T06:36:44.889Z</time></trkpt><trkpt lat="42.15205" lon="14.5913683"><ele>167.0</ele><time>2026-04-26T06:36:45.889Z</time></trkpt><trkpt lat="42.1520867" lon="14.59147"><ele>167.0</ele><time>2026-04-26T06:36:46.889Z</time></trkpt><trkpt lat="42.1521283" lon="14.5915667"><ele>166.5</ele><time>2026-04-26T06:36:47.89Z</time></trkpt><trkpt lat="42.1521683" lon="14.591665"><ele>166.0</ele><time>2026-04-26T06:36:48.89Z</time></trkpt><trkpt lat="42.1522017" lon="14.5917633"><ele>165.5</ele><time>2026-04-26T06:36:49.89Z</time></trkpt><trkpt lat="42.152235" lon="14.5918717"><ele>165.0</ele><time>2026-04-26T06:36:50.889Z</time></trkpt><trkpt lat="42.1522633" lon="14.5919767"><ele>164.5</ele><time>2026-04-26T06:36:51.89Z</time></trkpt><trkpt lat="42.15229" lon="14.5920833"><ele>164.0</ele><time>2026-04-26T06:36:52.89Z</time></trkpt><trkpt lat="42.1523133" lon="14.59219"><ele>164.16666666666666</ele><time>2026-04-26T06:36:53.889Z</time></trkpt><trkpt lat="42.1523333" lon="14.592295"><ele>164.33333333333331</ele><time>2026-04-26T06:36:54.89Z</time></trkpt><trkpt lat="42.1523517" lon="14.5924017"><ele>164.5</ele><time>2026-04-26T06:36:55.89Z</time></trkpt><trkpt lat="42.15237" lon="14.59251"><ele>164.66666666666666</ele><time>2026-04-26T06:36:56.889Z</time></trkpt><trkpt lat="42.15239" lon="14.592615"><ele>164.83333333333334</ele><time>2026-04-26T06:36:57.889Z</time></trkpt><trkpt lat="42.1524117" lon="14.5927133"><ele>165.0</ele><time>2026-04-26T06:36:58.89Z</time></trkpt><trkpt lat="42.1524333" lon="14.5928167"><ele>164.5</ele><time>2026-04-26T06:36:59.89Z</time></trkpt><trkpt lat="42.1524583" lon="14.592925"><ele>164.0</ele><time>2026-04-26T06:37:00.889Z</time></trkpt><trkpt lat="42.1524833" lon="14.59303"><ele>163.5</ele><time>2026-04-26T06:37:01.889Z</time></trkpt><trkpt lat="42.1525117" lon="14.5931367"><ele>163.0</ele><time>2026-04-26T06:37:02.89Z</time></trkpt><trkpt lat="42.1525383" lon="14.593245"><ele>162.5</ele><time>2026-04-26T06:37:03.89Z</time></trkpt><trkpt lat="42.1525633" lon="14.5933517"><ele>162.0</ele><time>2026-04-26T06:37:04.89Z</time></trkpt><trkpt lat="42.152585" lon="14.59346"><ele>162.0</ele><time>2026-04-26T06:37:05.89Z</time></trkpt><trkpt lat="42.15261" lon="14.5935617"><ele>162.0</ele><time>2026-04-26T06:37:06.889Z</time></trkpt><trkpt lat="42.1526333" lon="14.5936633"><ele>162.0</ele><time>2026-04-26T06:37:07.89Z</time></trkpt><trkpt lat="42.152655" lon="14.59377"><ele>162.0</ele><time>2026-04-26T06:37:08.889Z</time></trkpt><trkpt lat="42.1526767" lon="14.593875"><ele>162.0</ele><time>2026-04-26T06:37:09.89Z</time></trkpt><trkpt lat="42.1527" lon="14.5939817"><ele>162.0</ele><time>2026-04-26T06:37:10.89Z</time></trkpt><trkpt lat="42.1527217" lon="14.594085"><ele>161.33333333333334</ele><time>2026-04-26T06:37:11.89Z</time></trkpt><trkpt lat="42.152745" lon="14.59419"><ele>160.66666666666666</ele><time>2026-04-26T06:37:12.89Z</time></trkpt><trkpt lat="42.1527683" lon="14.594295"><ele>160.0</ele><time>2026-04-26T06:37:13.889Z</time></trkpt><trkpt lat="42.1527917" lon="14.5943983"><ele>159.33333333333331</ele><time>2026-04-26T06:37:14.89Z</time></trkpt><trkpt lat="42.152815" lon="14.5944983"><ele>158.66666666666666</ele><time>2026-04-26T06:37:15.889Z</time></trkpt><trkpt lat="42.1528333" lon="14.5946017"><ele>158.0</ele><time>2026-04-26T06:37:16.89Z</time></trkpt><trkpt lat="42.1528533" lon="14.5947083"><ele>157.83333333333331</ele><time>2026-04-26T06:37:17.89Z</time></trkpt><trkpt lat="42.1528767" lon="14.5948133"><ele>157.66666666666666</ele><time>2026-04-26T06:37:18.89Z</time></trkpt><trkpt lat="42.1528983" lon="14.59492"><ele>157.5</ele><time>2026-04-26T06:37:19.889Z</time></trkpt><trkpt lat="42.15292" lon="14.595025"><ele>157.33333333333334</ele><time>2026-04-26T06:37:20.89Z</time></trkpt><trkpt lat="42.1529383" lon="14.5951317"><ele>157.16666666666669</ele><time>2026-04-26T06:37:21.889Z</time></trkpt><trkpt lat="42.1529617" lon="14.595235"><ele>157.0</ele><time>2026-04-26T06:37:22.89Z</time></trkpt><trkpt lat="42.1529817" lon="14.59534"><ele>156.66666666666669</ele><time>2026-04-26T06:37:23.89Z</time></trkpt><trkpt lat="42.1530067" lon="14.5954433"><ele>156.33333333333334</ele><time>2026-04-26T06:37:24.89Z</time></trkpt><trkpt lat="42.1530317" lon="14.5955433"><ele>156.0</ele><time>2026-04-26T06:37:25.89Z</time></trkpt><trkpt lat="42.1530533" lon="14.595645"><ele>155.66666666666666</ele><time>2026-04-26T06:37:26.89Z</time></trkpt><trkpt lat="42.1530733" lon="14.5957433"><ele>155.33333333333331</ele><time>2026-04-26T06:37:27.889Z</time></trkpt><trkpt lat="42.153095" lon="14.5958433"><ele>155.0</ele><time>2026-04-26T06:37:28.89Z</time></trkpt><trkpt lat="42.153115" lon="14.5959383"><ele>155.0</ele><time>2026-04-26T06:37:29.89Z</time></trkpt><trkpt lat="42.1531367" lon="14.59603"><ele>155.0</ele><time>2026-04-26T06:37:30.89Z</time></trkpt><trkpt lat="42.153155" lon="14.5961167"><ele>155.0</ele><time>2026-04-26T06:37:31.89Z</time></trkpt><trkpt lat="42.1531733" lon="14.5962017"><ele>155.0</ele><time>2026-04-26T06:37:32.89Z</time></trkpt><trkpt lat="42.1531933" lon="14.5962883"><ele>155.0</ele><time>2026-04-26T06:37:33.89Z</time></trkpt><trkpt lat="42.153215" lon="14.596375"><ele>155.0</ele><time>2026-04-26T06:37:34.89Z</time></trkpt><trkpt lat="42.15325" lon="14.596525"><ele>154.75</ele><time>2026-04-26T06:37:36.89Z</time></trkpt><trkpt lat="42.1532883" lon="14.5966633"><ele>154.5</ele><time>2026-04-26T06:37:38.89Z</time></trkpt><trkpt lat="42.1533217" lon="14.5968233"><ele>154.25</ele><time>2026-04-26T06:37:40.89Z</time></trkpt><trkpt lat="42.153355" lon="14.596975"><ele>154.0</ele><time>2026-04-26T06:37:42.89Z</time></trkpt><trkpt lat="42.1533883" lon="14.5971333"><ele>154.0</ele><time>2026-04-26T06:37:44.889Z</time></trkpt><trkpt lat="42.1534283" lon="14.597295"><ele>154.0</ele><time>2026-04-26T06:37:46.89Z</time></trkpt><trkpt lat="42.1534583" lon="14.59745"><ele>154.0</ele><time>2026-04-26T06:37:48.89Z</time></trkpt><trkpt lat="42.15349" lon="14.5976083"><ele>154.0</ele><time>2026-04-26T06:37:50.889Z</time></trkpt><trkpt lat="42.153525" lon="14.5977617"><ele>154.0</ele><time>2026-04-26T06:37:52.89Z</time></trkpt><trkpt lat="42.15356" lon="14.5979133"><ele>154.0</ele><time>2026-04-26T06:37:54.89Z</time></trkpt><trkpt lat="42.1535917" lon="14.5980617"><ele>154.0</ele><time>2026-04-26T06:37:56.889Z</time></trkpt><trkpt lat="42.15362" lon="14.598215"><ele>154.0</ele><time>2026-04-26T06:37:58.89Z</time></trkpt><trkpt lat="42.1536517" lon="14.5983667"><ele>154.0</ele><time>2026-04-26T06:38:00.89Z</time></trkpt><trkpt lat="42.1536833" lon="14.5985133"><ele>154.0</ele><time>2026-04-26T06:38:02.89Z</time></trkpt><trkpt lat="42.1537133" lon="14.5986667"><ele>154.0</ele><time>2026-04-26T06:38:04.889Z</time></trkpt><trkpt lat="42.1537333" lon="14.5987517"><ele>154.0</ele><time>2026-04-26T06:38:05.889Z</time></trkpt><trkpt lat="42.15377" lon="14.59891"><ele>154.0</ele><time>2026-04-26T06:38:07.889Z</time></trkpt><trkpt lat="42.1538067" lon="14.5990733"><ele>153.71428571428572</ele><time>2026-04-26T06:38:09.89Z</time></trkpt><trkpt lat="42.1538233" lon="14.5991583"><ele>153.42857142857144</ele><time>2026-04-26T06:38:10.889Z</time></trkpt><trkpt lat="42.1538433" lon="14.5992417"><ele>153.14285714285714</ele><time>2026-04-26T06:38:11.89Z</time></trkpt><trkpt lat="42.1538617" lon="14.5993283"><ele>152.85714285714286</ele><time>2026-04-26T06:38:12.889Z</time></trkpt><trkpt lat="42.1538817" lon="14.5994183"><ele>152.57142857142858</ele><time>2026-04-26T06:38:13.89Z</time></trkpt><trkpt lat="42.1539" lon="14.5995017"><ele>152.28571428571428</ele><time>2026-04-26T06:38:14.89Z</time></trkpt><trkpt lat="42.1539217" lon="14.5995867"><ele>152.0</ele><time>2026-04-26T06:38:15.89Z</time></trkpt><trkpt lat="42.1539383" lon="14.5996717"><ele>151.7142857142857</ele><time>2026-04-26T06:38:16.89Z</time></trkpt><trkpt lat="42.1539567" lon="14.59976"><ele>151.42857142857144</ele><time>2026-04-26T06:38:17.889Z</time></trkpt><trkpt lat="42.1539767" lon="14.5998467"><ele>151.14285714285714</ele><time>2026-04-26T06:38:18.89Z</time></trkpt><trkpt lat="42.153995" lon="14.5999333"><ele>150.85714285714283</ele><time>2026-04-26T06:38:19.889Z</time></trkpt><trkpt lat="42.154015" lon="14.6000233"><ele>150.57142857142856</ele><time>2026-04-26T06:38:20.89Z</time></trkpt><trkpt lat="42.1540367" lon="14.600115"><ele>150.28571428571428</ele><time>2026-04-26T06:38:21.89Z</time></trkpt><trkpt lat="42.1540567" lon="14.6002067"><ele>150.0</ele><time>2026-04-26T06:38:22.89Z</time></trkpt><trkpt lat="42.1540767" lon="14.6002983"><ele>149.7142857142857</ele><time>2026-04-26T06:38:23.89Z</time></trkpt><trkpt lat="42.154095" lon="14.6003867"><ele>149.42857142857142</ele><time>2026-04-26T06:38:24.889Z</time></trkpt><trkpt lat="42.1541183" lon="14.600475"><ele>149.14285714285714</ele><time>2026-04-26T06:38:25.889Z</time></trkpt><trkpt lat="42.15414" lon="14.6005633"><ele>148.85714285714283</ele><time>2026-04-26T06:38:26.889Z</time></trkpt><trkpt lat="42.1541583" lon="14.6006517"><ele>148.57142857142856</ele><time>2026-04-26T06:38:27.89Z</time></trkpt><trkpt lat="42.1541783" lon="14.6007367"><ele>148.28571428571428</ele><time>2026-04-26T06:38:28.89Z</time></trkpt><trkpt lat="42.1541983" lon="14.6008233"><ele>148.0</ele><time>2026-04-26T06:38:29.89Z</time></trkpt><trkpt lat="42.1542183" lon="14.600905"><ele>148.0</ele><time>2026-04-26T06:38:30.89Z</time></trkpt><trkpt lat="42.1542383" lon="14.6009917"><ele>148.0</ele><time>2026-04-26T06:38:31.89Z</time></trkpt><trkpt lat="42.1542583" lon="14.601075"><ele>148.0</ele><time>2026-04-26T06:38:32.89Z</time></trkpt><trkpt lat="42.154275" lon="14.6011583"><ele>148.0</ele><time>2026-04-26T06:38:33.89Z</time></trkpt><trkpt lat="42.1542933" lon="14.6012417"><ele>148.0</ele><time>2026-04-26T06:38:34.89Z</time></trkpt><trkpt lat="42.1543117" lon="14.601325"><ele>148.0</ele><time>2026-04-26T06:38:35.89Z</time></trkpt><trkpt lat="42.1543433" lon="14.6014717"><ele>148.0</ele><time>2026-04-26T06:38:37.889Z</time></trkpt><trkpt lat="42.1543783" lon="14.6016283"><ele>147.83333333333334</ele><time>2026-04-26T06:38:39.89Z</time></trkpt><trkpt lat="42.1544133" lon="14.6017833"><ele>147.66666666666669</ele><time>2026-04-26T06:38:41.89Z</time></trkpt><trkpt lat="42.1544467" lon="14.6019483"><ele>147.5</ele><time>2026-04-26T06:38:43.889Z</time></trkpt><trkpt lat="42.154465" lon="14.60203"><ele>147.33333333333334</ele><time>2026-04-26T06:38:44.889Z</time></trkpt><trkpt lat="42.1544833" lon="14.6021167"><ele>147.16666666666666</ele><time>2026-04-26T06:38:45.889Z</time></trkpt><trkpt lat="42.154505" lon="14.6022033"><ele>147.0</ele><time>2026-04-26T06:38:46.89Z</time></trkpt><trkpt lat="42.154525" lon="14.6022883"><ele>146.83333333333334</ele><time>2026-04-26T06:38:47.89Z</time></trkpt><trkpt lat="42.154545" lon="14.6023733"><ele>146.66666666666666</ele><time>2026-04-26T06:38:48.89Z</time></trkpt><trkpt lat="42.1545667" lon="14.60246"><ele>146.5</ele><time>2026-04-26T06:38:49.889Z</time></trkpt><trkpt lat="42.1545867" lon="14.6025483"><ele>146.33333333333331</ele><time>2026-04-26T06:38:50.889Z</time></trkpt><trkpt lat="42.1546067" lon="14.6026317"><ele>146.16666666666666</ele><time>2026-04-26T06:38:51.889Z</time></trkpt><trkpt lat="42.154625" lon="14.6027133"><ele>146.0</ele><time>2026-04-26T06:38:52.889Z</time></trkpt><trkpt lat="42.15466" lon="14.6028683"><ele>146.0</ele><time>2026-04-26T06:38:54.89Z</time></trkpt><trkpt lat="42.1546917" lon="14.6030367"><ele>146.0</ele><time>2026-04-26T06:38:56.89Z</time></trkpt><trkpt lat="42.15471" lon="14.6031233"><ele>146.0</ele><time>2026-04-26T06:38:57.889Z</time></trkpt><trkpt lat="42.1547317" lon="14.603205"><ele>146.0</ele><time>2026-04-26T06:38:58.89Z</time></trkpt><trkpt lat="42.15475" lon="14.60329"><ele>146.0</ele><time>2026-04-26T06:38:59.89Z</time></trkpt><trkpt lat="42.15477" lon="14.603375"><ele>146.0</ele><time>2026-04-26T06:39:00.89Z</time></trkpt><trkpt lat="42.1547883" lon="14.6034583"><ele>146.0</ele><time>2026-04-26T06:39:01.889Z</time></trkpt><trkpt lat="42.1548083" lon="14.603545"><ele>146.0</ele><time>2026-04-26T06:39:02.889Z</time></trkpt><trkpt lat="42.1548267" lon="14.6036283"><ele>146.0</ele><time>2026-04-26T06:39:03.89Z</time></trkpt><trkpt lat="42.1548467" lon="14.6037133"><ele>146.0</ele><time>2026-04-26T06:39:04.889Z</time></trkpt><trkpt lat="42.154875" lon="14.60387"><ele>146.0</ele><time>2026-04-26T06:39:06.89Z</time></trkpt><trkpt lat="42.1548933" lon="14.6039517"><ele>146.0</ele><time>2026-04-26T06:39:07.89Z</time></trkpt><trkpt lat="42.1549283" lon="14.6041117"><ele>145.42857142857142</ele><time>2026-04-26T06:39:09.89Z</time></trkpt><trkpt lat="42.1549483" lon="14.6041983"><ele>144.85714285714286</ele><time>2026-04-26T06:39:10.89Z</time></trkpt><trkpt lat="42.1549683" lon="14.604285"><ele>144.28571428571428</ele><time>2026-04-26T06:39:11.89Z</time></trkpt><trkpt lat="42.1549883" lon="14.6043733"><ele>143.71428571428572</ele><time>2026-04-26T06:39:12.89Z</time></trkpt><trkpt lat="42.1550067" lon="14.6044567"><ele>143.14285714285714</ele><time>2026-04-26T06:39:13.89Z</time></trkpt><trkpt lat="42.1550283" lon="14.6045417"><ele>142.57142857142856</ele><time>2026-04-26T06:39:14.89Z</time></trkpt><trkpt lat="42.1550483" lon="14.6046267"><ele>142.0</ele><time>2026-04-26T06:39:15.889Z</time></trkpt><trkpt lat="42.1550667" lon="14.604715"><ele>141.83333333333334</ele><time>2026-04-26T06:39:16.89Z</time></trkpt><trkpt lat="42.1550833" lon="14.6048"><ele>141.66666666666669</ele><time>2026-04-26T06:39:17.89Z</time></trkpt><trkpt lat="42.1551033" lon="14.6048917"><ele>141.5</ele><time>2026-04-26T06:39:18.889Z</time></trkpt><trkpt lat="42.1551217" lon="14.6049767"><ele>141.33333333333334</ele><time>2026-04-26T06:39:19.889Z</time></trkpt><trkpt lat="42.1551417" lon="14.6050617"><ele>141.16666666666666</ele><time>2026-04-26T06:39:20.889Z</time></trkpt><trkpt lat="42.1551783" lon="14.6052267"><ele>141.0</ele><time>2026-04-26T06:39:22.89Z</time></trkpt><trkpt lat="42.1552" lon="14.6053117"><ele>140.83333333333334</ele><time>2026-04-26T06:39:23.889Z</time></trkpt><trkpt lat="42.15522" lon="14.6053967"><ele>140.66666666666666</ele><time>2026-04-26T06:39:24.89Z</time></trkpt><trkpt lat="42.15524" lon="14.6054833"><ele>140.5</ele><time>2026-04-26T06:39:25.889Z</time></trkpt><trkpt lat="42.1552583" lon="14.60557"><ele>140.33333333333331</ele><time>2026-04-26T06:39:26.89Z</time></trkpt><trkpt lat="42.15528" lon="14.605655"><ele>140.16666666666666</ele><time>2026-04-26T06:39:27.89Z</time></trkpt><trkpt lat="42.1553" lon="14.6057433"><ele>140.0</ele><time>2026-04-26T06:39:28.89Z</time></trkpt><trkpt lat="42.15534" lon="14.6059017"><ele>140.0</ele><time>2026-04-26T06:39:30.89Z</time></trkpt><trkpt lat="42.1553783" lon="14.6060667"><ele>140.0</ele><time>2026-04-26T06:39:32.889Z</time></trkpt><trkpt lat="42.1554017" lon="14.6061533"><ele>140.0</ele><time>2026-04-26T06:39:33.89Z</time></trkpt><trkpt lat="42.15542" lon="14.6062383"><ele>140.0</ele><time>2026-04-26T06:39:34.891Z</time></trkpt><trkpt lat="42.1554383" lon="14.606325"><ele>140.0</ele><time>2026-04-26T06:39:35.891Z</time></trkpt><trkpt lat="42.1554533" lon="14.60641"><ele>140.0</ele><time>2026-04-26T06:39:36.891Z</time></trkpt><trkpt lat="42.1554733" lon="14.6064917"><ele>139.8</ele><time>2026-04-26T06:39:37.891Z</time></trkpt><trkpt lat="42.1555083" lon="14.6066517"><ele>139.6</ele><time>2026-04-26T06:39:39.891Z</time></trkpt><trkpt lat="42.1555267" lon="14.606735"><ele>139.4</ele><time>2026-04-26T06:39:40.89Z</time></trkpt><trkpt lat="42.1555583" lon="14.6068933"><ele>139.2</ele><time>2026-04-26T06:39:42.89Z</time></trkpt><trkpt lat="42.1555883" lon="14.6070567"><ele>139.0</ele><time>2026-04-26T06:39:44.891Z</time></trkpt><trkpt lat="42.1556033" lon="14.60714"><ele>138.75</ele><time>2026-04-26T06:39:45.891Z</time></trkpt><trkpt lat="42.155635" lon="14.6073017"><ele>138.5</ele><time>2026-04-26T06:39:47.891Z</time></trkpt><trkpt lat="42.15567" lon="14.6074633"><ele>138.25</ele><time>2026-04-26T06:39:49.89Z</time></trkpt><trkpt lat="42.1557067" lon="14.6076217"><ele>138.0</ele><time>2026-04-26T06:39:51.89Z</time></trkpt><trkpt lat="42.1557417" lon="14.60778"><ele>137.75</ele><time>2026-04-26T06:39:53.891Z</time></trkpt><trkpt lat="42.1557783" lon="14.607935"><ele>137.5</ele><time>2026-04-26T06:39:55.891Z</time></trkpt><trkpt lat="42.1558083" lon="14.6080817"><ele>137.25</ele><time>2026-04-26T06:39:57.89Z</time></trkpt><trkpt lat="42.1558383" lon="14.608225"><ele>137.0</ele><time>2026-04-26T06:39:59.89Z</time></trkpt><trkpt lat="42.1558683" lon="14.6083683"><ele>137.0</ele><time>2026-04-26T06:40:01.89Z</time></trkpt><trkpt lat="42.1559033" lon="14.6085267"><ele>137.0</ele><time>2026-04-26T06:40:03.891Z</time></trkpt><trkpt lat="42.155935" lon="14.6086783"><ele>137.0</ele><time>2026-04-26T06:40:05.89Z</time></trkpt><trkpt lat="42.1559667" lon="14.6088317"><ele>137.0</ele><time>2026-04-26T06:40:07.891Z</time></trkpt><trkpt lat="42.1560017" lon="14.608995"><ele>137.0</ele><time>2026-04-26T06:40:09.891Z</time></trkpt><trkpt lat="42.15604" lon="14.6091483"><ele>137.0</ele><time>2026-04-26T06:40:11.89Z</time></trkpt><trkpt lat="42.15608" lon="14.6093033"><ele>137.0</ele><time>2026-04-26T06:40:13.891Z</time></trkpt><trkpt lat="42.1561167" lon="14.6094583"><ele>137.0</ele><time>2026-04-26T06:40:15.891Z</time></trkpt><trkpt lat="42.156145" lon="14.6096183"><ele>136.6</ele><time>2026-04-26T06:40:17.891Z</time></trkpt><trkpt lat="42.1561633" lon="14.6097"><ele>136.2</ele><time>2026-04-26T06:40:18.89Z</time></trkpt><trkpt lat="42.1562017" lon="14.6098583"><ele>135.8</ele><time>2026-04-26T06:40:20.891Z</time></trkpt><trkpt lat="42.156235" lon="14.6100083"><ele>135.4</ele><time>2026-04-26T06:40:22.891Z</time></trkpt><trkpt lat="42.1562667" lon="14.6101517"><ele>135.0</ele><time>2026-04-26T06:40:24.891Z</time></trkpt><trkpt lat="42.1563" lon="14.6103033"><ele>134.75</ele><time>2026-04-26T06:40:26.89Z</time></trkpt><trkpt lat="42.1563283" lon="14.6104567"><ele>134.5</ele><time>2026-04-26T06:40:28.89Z</time></trkpt><trkpt lat="42.1563617" lon="14.61061"><ele>134.25</ele><time>2026-04-26T06:40:30.891Z</time></trkpt><trkpt lat="42.1563967" lon="14.6107617"><ele>134.0</ele><time>2026-04-26T06:40:32.891Z</time></trkpt><trkpt lat="42.1564367" lon="14.61092"><ele>134.0</ele><time>2026-04-26T06:40:34.89Z</time></trkpt><trkpt lat="42.1564717" lon="14.61107"><ele>134.0</ele><time>2026-04-26T06:40:36.891Z</time></trkpt><trkpt lat="42.1564983" lon="14.6112033"><ele>134.0</ele><time>2026-04-26T06:40:38.89Z</time></trkpt><trkpt lat="42.1565367" lon="14.6113567"><ele>134.0</ele><time>2026-04-26T06:40:40.89Z</time></trkpt><trkpt lat="42.1565567" lon="14.61144"><ele>134.0</ele><time>2026-04-26T06:40:41.891Z</time></trkpt><trkpt lat="42.1565817" lon="14.6115183"><ele>134.2</ele><time>2026-04-26T06:40:42.891Z</time></trkpt><trkpt lat="42.15662" lon="14.6116633"><ele>134.4</ele><time>2026-04-26T06:40:44.89Z</time></trkpt><trkpt lat="42.1566483" lon="14.6118183"><ele>134.6</ele><time>2026-04-26T06:40:46.891Z</time></trkpt><trkpt lat="42.1566783" lon="14.6119617"><ele>134.8</ele><time>2026-04-26T06:40:48.89Z</time></trkpt><trkpt lat="42.1567067" lon="14.6120933"><ele>135.0</ele><time>2026-04-26T06:40:50.89Z</time></trkpt><trkpt lat="42.15674" lon="14.6122433"><ele>134.75</ele><time>2026-04-26T06:40:52.891Z</time></trkpt><trkpt lat="42.15677" lon="14.6123883"><ele>134.5</ele><time>2026-04-26T06:40:54.891Z</time></trkpt><trkpt lat="42.1568" lon="14.6125333"><ele>134.25</ele><time>2026-04-26T06:40:56.89Z</time></trkpt><trkpt lat="42.156835" lon="14.6126817"><ele>134.0</ele><time>2026-04-26T06:40:58.891Z</time></trkpt><trkpt lat="42.156875" lon="14.6128233"><ele>134.0</ele><time>2026-04-26T06:41:00.891Z</time></trkpt><trkpt lat="42.1569183" lon="14.61297"><ele>134.0</ele><time>2026-04-26T06:41:02.891Z</time></trkpt><trkpt lat="42.1569667" lon="14.6131167"><ele>134.0</ele><time>2026-04-26T06:41:04.891Z</time></trkpt><trkpt lat="42.1570267" lon="14.6132567"><ele>134.0</ele><time>2026-04-26T06:41:06.891Z</time></trkpt><trkpt lat="42.15709" lon="14.6133867"><ele>134.0</ele><time>2026-04-26T06:41:08.891Z</time></trkpt><trkpt lat="42.157155" lon="14.6135133"><ele>134.0</ele><time>2026-04-26T06:41:10.891Z</time></trkpt><trkpt lat="42.1572133" lon="14.6136383"><ele>134.0</ele><time>2026-04-26T06:41:12.89Z</time></trkpt><trkpt lat="42.1572767" lon="14.6137767"><ele>134.0</ele><time>2026-04-26T06:41:14.891Z</time></trkpt><trkpt lat="42.157345" lon="14.6139117"><ele>134.0</ele><time>2026-04-26T06:41:16.891Z</time></trkpt><trkpt lat="42.15741" lon="14.6140483"><ele>134.0</ele><time>2026-04-26T06:41:18.891Z</time></trkpt><trkpt lat="42.157475" lon="14.61418"><ele>134.0</ele><time>2026-04-26T06:41:20.89Z</time></trkpt><trkpt lat="42.1575467" lon="14.614315"><ele>134.0</ele><time>2026-04-26T06:41:22.891Z</time></trkpt><trkpt lat="42.1576117" lon="14.6144483"><ele>134.0</ele><time>2026-04-26T06:41:24.891Z</time></trkpt><trkpt lat="42.1576733" lon="14.6145833"><ele>134.0</ele><time>2026-04-26T06:41:26.89Z</time></trkpt><trkpt lat="42.157735" lon="14.614715"><ele>134.0</ele><time>2026-04-26T06:41:28.89Z</time></trkpt><trkpt lat="42.157805" lon="14.61484"><ele>134.0</ele><time>2026-04-26T06:41:30.89Z</time></trkpt><trkpt lat="42.1578833" lon="14.6149483"><ele>134.0</ele><time>2026-04-26T06:41:32.891Z</time></trkpt><trkpt lat="42.1579517" lon="14.6150733"><ele>134.0</ele><time>2026-04-26T06:41:34.89Z</time></trkpt><trkpt lat="42.1580067" lon="14.6152183"><ele>134.0</ele><time>2026-04-26T06:41:36.89Z</time></trkpt><trkpt lat="42.1580683" lon="14.6153617"><ele>134.0</ele><time>2026-04-26T06:41:38.89Z</time></trkpt><trkpt lat="42.158135" lon="14.6154933"><ele>133.6</ele><time>2026-04-26T06:41:40.89Z</time></trkpt><trkpt lat="42.1581717" lon="14.6155667"><ele>133.2</ele><time>2026-04-26T06:41:41.891Z</time></trkpt><trkpt lat="42.15824" lon="14.6157017"><ele>132.79999999999998</ele><time>2026-04-26T06:41:43.891Z</time></trkpt><trkpt lat="42.1583033" lon="14.61584"><ele>132.4</ele><time>2026-04-26T06:41:45.891Z</time></trkpt><trkpt lat="42.1583683" lon="14.61598"><ele>132.0</ele><time>2026-04-26T06:41:47.891Z</time></trkpt><trkpt lat="42.158405" lon="14.6160517"><ele>132.0</ele><time>2026-04-26T06:41:48.89Z</time></trkpt><trkpt lat="42.1584433" lon="14.6161283"><ele>132.0</ele><time>2026-04-26T06:41:49.891Z</time></trkpt><trkpt lat="42.1584817" lon="14.6162067"><ele>132.0</ele><time>2026-04-26T06:41:50.89Z</time></trkpt><trkpt lat="42.15852" lon="14.6162833"><ele>132.0</ele><time>2026-04-26T06:41:51.891Z</time></trkpt><trkpt lat="42.1585567" lon="14.61636"><ele>132.0</ele><time>2026-04-26T06:41:52.891Z</time></trkpt><trkpt lat="42.158595" lon="14.6164383"><ele>132.0</ele><time>2026-04-26T06:41:53.89Z</time></trkpt><trkpt lat="42.1586317" lon="14.6165167"><ele>132.0</ele><time>2026-04-26T06:41:54.89Z</time></trkpt><trkpt lat="42.1586717" lon="14.6165967"><ele>131.85714285714286</ele><time>2026-04-26T06:41:55.891Z</time></trkpt><trkpt lat="42.15871" lon="14.6166767"><ele>131.71428571428572</ele><time>2026-04-26T06:41:56.891Z</time></trkpt><trkpt lat="42.1587483" lon="14.6167567"><ele>131.57142857142858</ele><time>2026-04-26T06:41:57.89Z</time></trkpt><trkpt lat="42.1587883" lon="14.616835"><ele>131.42857142857144</ele><time>2026-04-26T06:41:58.89Z</time></trkpt><trkpt lat="42.1588317" lon="14.6169183"><ele>131.2857142857143</ele><time>2026-04-26T06:41:59.891Z</time></trkpt><trkpt lat="42.1588717" lon="14.6169983"><ele>131.14285714285714</ele><time>2026-04-26T06:42:00.891Z</time></trkpt><trkpt lat="42.1589117" lon="14.61708"><ele>131.0</ele><time>2026-04-26T06:42:01.891Z</time></trkpt><trkpt lat="42.1589533" lon="14.6171617"><ele>130.66666666666666</ele><time>2026-04-26T06:42:02.89Z</time></trkpt><trkpt lat="42.1589983" lon="14.6172433"><ele>130.33333333333331</ele><time>2026-04-26T06:42:03.89Z</time></trkpt><trkpt lat="42.15904" lon="14.6173267"><ele>130.0</ele><time>2026-04-26T06:42:04.89Z</time></trkpt><trkpt lat="42.159085" lon="14.61741"><ele>129.66666666666666</ele><time>2026-04-26T06:42:05.891Z</time></trkpt><trkpt lat="42.1591283" lon="14.617495"><ele>129.33333333333334</ele><time>2026-04-26T06:42:06.891Z</time></trkpt><trkpt lat="42.1591717" lon="14.6175833"><ele>129.0</ele><time>2026-04-26T06:42:07.89Z</time></trkpt><trkpt lat="42.1592167" lon="14.61767"><ele>128.66666666666666</ele><time>2026-04-26T06:42:08.89Z</time></trkpt><trkpt lat="42.159255" lon="14.6177567"><ele>128.33333333333334</ele><time>2026-04-26T06:42:09.891Z</time></trkpt><trkpt lat="42.1592967" lon="14.6178467"><ele>128.0</ele><time>2026-04-26T06:42:10.89Z</time></trkpt><trkpt lat="42.1593383" lon="14.6179367"><ele>127.66666666666667</ele><time>2026-04-26T06:42:11.89Z</time></trkpt><trkpt lat="42.159385" lon="14.618025"><ele>127.33333333333334</ele><time>2026-04-26T06:42:12.89Z</time></trkpt><trkpt lat="42.15943" lon="14.618115"><ele>127.0</ele><time>2026-04-26T06:42:13.89Z</time></trkpt><trkpt lat="42.1594733" lon="14.6182017"><ele>126.66666666666667</ele><time>2026-04-26T06:42:14.891Z</time></trkpt><trkpt lat="42.1595183" lon="14.6182917"><ele>126.33333333333334</ele><time>2026-04-26T06:42:15.89Z</time></trkpt><trkpt lat="42.1595617" lon="14.6183783"><ele>126.0</ele><time>2026-04-26T06:42:16.89Z</time></trkpt><trkpt lat="42.1596067" lon="14.61847"><ele>125.66666666666666</ele><time>2026-04-26T06:42:17.89Z</time></trkpt><trkpt lat="42.1596517" lon="14.6185633"><ele>125.33333333333333</ele><time>2026-04-26T06:42:18.891Z</time></trkpt><trkpt lat="42.1596983" lon="14.61866"><ele>125.0</ele><time>2026-04-26T06:42:19.891Z</time></trkpt><trkpt lat="42.159745" lon="14.61875"><ele>124.49999999999999</ele><time>2026-04-26T06:42:20.89Z</time></trkpt><trkpt lat="42.1598017" lon="14.6188383"><ele>124.0</ele><time>2026-04-26T06:42:21.89Z</time></trkpt><trkpt lat="42.15985" lon="14.6189317"><ele>123.5</ele><time>2026-04-26T06:42:22.89Z</time></trkpt><trkpt lat="42.1598933" lon="14.6190183"><ele>123.0</ele><time>2026-04-26T06:42:23.89Z</time></trkpt><trkpt lat="42.159935" lon="14.6191117"><ele>122.49999999999999</ele><time>2026-04-26T06:42:24.891Z</time></trkpt><trkpt lat="42.1599767" lon="14.6192033"><ele>122.0</ele><time>2026-04-26T06:42:25.891Z</time></trkpt><trkpt lat="42.16002" lon="14.6192967"><ele>121.99999999999999</ele><time>2026-04-26T06:42:26.891Z</time></trkpt><trkpt lat="42.160065" lon="14.6193867"><ele>122.0</ele><time>2026-04-26T06:42:27.891Z</time></trkpt><trkpt lat="42.1601133" lon="14.61947"><ele>122.0</ele><time>2026-04-26T06:42:28.891Z</time></trkpt><trkpt lat="42.1601617" lon="14.6195633"><ele>122.0</ele><time>2026-04-26T06:42:29.891Z</time></trkpt><trkpt lat="42.1602033" lon="14.6196567"><ele>121.99999999999999</ele><time>2026-04-26T06:42:30.891Z</time></trkpt><trkpt lat="42.1602483" lon="14.6197467"><ele>122.0</ele><time>2026-04-26T06:42:31.891Z</time></trkpt><trkpt lat="42.1602917" lon="14.6198233"><ele>121.66666666666666</ele><time>2026-04-26T06:42:32.891Z</time></trkpt><trkpt lat="42.1603333" lon="14.6199117"><ele>121.33333333333333</ele><time>2026-04-26T06:42:33.89Z</time></trkpt><trkpt lat="42.160375" lon="14.6200033"><ele>121.0</ele><time>2026-04-26T06:42:34.891Z</time></trkpt><trkpt lat="42.1604117" lon="14.6200933"><ele>120.66666666666666</ele><time>2026-04-26T06:42:35.89Z</time></trkpt><trkpt lat="42.1604517" lon="14.6201833"><ele>120.33333333333333</ele><time>2026-04-26T06:42:36.891Z</time></trkpt><trkpt lat="42.1604933" lon="14.62027"><ele>120.0</ele><time>2026-04-26T06:42:37.891Z</time></trkpt><trkpt lat="42.1605417" lon="14.6203583"><ele>119.66666666666667</ele><time>2026-04-26T06:42:38.891Z</time></trkpt><trkpt lat="42.1605883" lon="14.6204467"><ele>119.33333333333334</ele><time>2026-04-26T06:42:39.891Z</time></trkpt><trkpt lat="42.1606333" lon="14.6205317"><ele>119.0</ele><time>2026-04-26T06:42:40.891Z</time></trkpt><trkpt lat="42.1606783" lon="14.62062"><ele>118.66666666666667</ele><time>2026-04-26T06:42:41.891Z</time></trkpt><trkpt lat="42.16072" lon="14.620705"><ele>118.33333333333334</ele><time>2026-04-26T06:42:42.891Z</time></trkpt><trkpt lat="42.1607617" lon="14.6207867"><ele>118.0</ele><time>2026-04-26T06:42:43.891Z</time></trkpt><trkpt lat="42.160805" lon="14.62087"><ele>118.00000000000001</ele><time>2026-04-26T06:42:44.891Z</time></trkpt><trkpt lat="42.16085" lon="14.6209567"><ele>118.0</ele><time>2026-04-26T06:42:45.891Z</time></trkpt><trkpt lat="42.1608933" lon="14.621045"><ele>118.0</ele><time>2026-04-26T06:42:46.891Z</time></trkpt><trkpt lat="42.1609367" lon="14.6211317"><ele>118.0</ele><time>2026-04-26T06:42:47.89Z</time></trkpt><trkpt lat="42.1609817" lon="14.6212217"><ele>118.00000000000001</ele><time>2026-04-26T06:42:48.891Z</time></trkpt><trkpt lat="42.16103" lon="14.6213117"><ele>118.0</ele><time>2026-04-26T06:42:49.891Z</time></trkpt><trkpt lat="42.1610717" lon="14.6213917"><ele>117.33333333333334</ele><time>2026-04-26T06:42:50.891Z</time></trkpt><trkpt lat="42.16111" lon="14.6214767"><ele>116.66666666666667</ele><time>2026-04-26T06:42:51.891Z</time></trkpt><trkpt lat="42.1611517" lon="14.6215667"><ele>116.0</ele><time>2026-04-26T06:42:52.89Z</time></trkpt><trkpt lat="42.1611933" lon="14.6216517"><ele>115.33333333333334</ele><time>2026-04-26T06:42:53.89Z</time></trkpt><trkpt lat="42.1612317" lon="14.6217383"><ele>114.66666666666667</ele><time>2026-04-26T06:42:54.891Z</time></trkpt><trkpt lat="42.1612733" lon="14.621825"><ele>114.0</ele><time>2026-04-26T06:42:55.89Z</time></trkpt><trkpt lat="42.161315" lon="14.62191"><ele>113.71428571428571</ele><time>2026-04-26T06:42:56.89Z</time></trkpt><trkpt lat="42.1613583" lon="14.621995"><ele>113.42857142857142</ele><time>2026-04-26T06:42:57.891Z</time></trkpt><trkpt lat="42.1614" lon="14.6220717"><ele>113.14285714285714</ele><time>2026-04-26T06:42:58.89Z</time></trkpt><trkpt lat="42.161445" lon="14.6221517"><ele>112.85714285714286</ele><time>2026-04-26T06:42:59.891Z</time></trkpt><trkpt lat="42.1614883" lon="14.62223"><ele>112.57142857142857</ele><time>2026-04-26T06:43:00.891Z</time></trkpt><trkpt lat="42.1615317" lon="14.622315"><ele>112.28571428571428</ele><time>2026-04-26T06:43:01.891Z</time></trkpt><trkpt lat="42.161575" lon="14.622395"><ele>112.0</ele><time>2026-04-26T06:43:02.891Z</time></trkpt><trkpt lat="42.161615" lon="14.6224817"><ele>112.00000000000001</ele><time>2026-04-26T06:43:03.891Z</time></trkpt><trkpt lat="42.1616567" lon="14.6225733"><ele>112.0</ele><time>2026-04-26T06:43:04.891Z</time></trkpt><trkpt lat="42.1616967" lon="14.622665"><ele>112.0</ele><time>2026-04-26T06:43:05.89Z</time></trkpt><trkpt lat="42.1617333" lon="14.6227533"><ele>112.0</ele><time>2026-04-26T06:43:06.89Z</time></trkpt><trkpt lat="42.1617733" lon="14.62284"><ele>112.00000000000001</ele><time>2026-04-26T06:43:07.89Z</time></trkpt><trkpt lat="42.1618183" lon="14.622925"><ele>112.0</ele><time>2026-04-26T06:43:08.891Z</time></trkpt><trkpt lat="42.1618633" lon="14.6230167"><ele>111.66666666666667</ele><time>2026-04-26T06:43:09.891Z</time></trkpt><trkpt lat="42.1619117" lon="14.623105"><ele>111.33333333333334</ele><time>2026-04-26T06:43:10.891Z</time></trkpt><trkpt lat="42.1619533" lon="14.6231917"><ele>111.0</ele><time>2026-04-26T06:43:11.891Z</time></trkpt><trkpt lat="42.1619917" lon="14.6232883"><ele>110.66666666666666</ele><time>2026-04-26T06:43:12.891Z</time></trkpt><trkpt lat="42.1620283" lon="14.6233883"><ele>110.33333333333333</ele><time>2026-04-26T06:43:13.891Z</time></trkpt><trkpt lat="42.1620567" lon="14.62349"><ele>110.0</ele><time>2026-04-26T06:43:14.89Z</time></trkpt><trkpt lat="42.162075" lon="14.6235933"><ele>109.2</ele><time>2026-04-26T06:43:15.89Z</time></trkpt><trkpt lat="42.1620917" lon="14.6237117"><ele>108.4</ele><time>2026-04-26T06:43:16.89Z</time></trkpt><trkpt lat="42.1620817" lon="14.6238267"><ele>107.6</ele><time>2026-04-26T06:43:17.891Z</time></trkpt><trkpt lat="42.162065" lon="14.62395"><ele>106.8</ele><time>2026-04-26T06:43:18.89Z</time></trkpt><trkpt lat="42.1620367" lon="14.6240733"><ele>106.0</ele><time>2026-04-26T06:43:19.891Z</time></trkpt><trkpt lat="42.162005" lon="14.624195"><ele>106.0</ele><time>2026-04-26T06:43:20.89Z</time></trkpt><trkpt lat="42.1619667" lon="14.624315"><ele>106.0</ele><time>2026-04-26T06:43:21.891Z</time></trkpt><trkpt lat="42.1619333" lon="14.6244317"><ele>106.0</ele><time>2026-04-26T06:43:22.891Z</time></trkpt><trkpt lat="42.1618983" lon="14.624555"><ele>106.0</ele><time>2026-04-26T06:43:23.891Z</time></trkpt><trkpt lat="42.1618733" lon="14.62467"><ele>106.0</ele><time>2026-04-26T06:43:24.891Z</time></trkpt><trkpt lat="42.16184" lon="14.6247983"><ele>105.0</ele><time>2026-04-26T06:43:25.891Z</time></trkpt><trkpt lat="42.1618017" lon="14.6249183"><ele>104.0</ele><time>2026-04-26T06:43:26.891Z</time></trkpt><trkpt lat="42.161755" lon="14.6250283"><ele>103.0</ele><time>2026-04-26T06:43:27.89Z</time></trkpt><trkpt lat="42.1616983" lon="14.6251317"><ele>102.0</ele><time>2026-04-26T06:43:28.89Z</time></trkpt><trkpt lat="42.1616317" lon="14.62523"><ele>101.0</ele><time>2026-04-26T06:43:29.891Z</time></trkpt><trkpt lat="42.1615617" lon="14.6253283"><ele>99.8</ele><time>2026-04-26T06:43:30.89Z</time></trkpt><trkpt lat="42.1614833" lon="14.6254083"><ele>98.6</ele><time>2026-04-26T06:43:31.89Z</time></trkpt><trkpt lat="42.1614083" lon="14.6254867"><ele>97.4</ele><time>2026-04-26T06:43:32.89Z</time></trkpt><trkpt lat="42.1613283" lon="14.625565"><ele>96.2</ele><time>2026-04-26T06:43:33.89Z</time></trkpt><trkpt lat="42.1612417" lon="14.6256417"><ele>95.0</ele><time>2026-04-26T06:43:34.89Z</time></trkpt><trkpt lat="42.161155" lon="14.6257183"><ele>95.0</ele><time>2026-04-26T06:43:35.891Z</time></trkpt><trkpt lat="42.16107" lon="14.6257983"><ele>95.0</ele><time>2026-04-26T06:43:36.891Z</time></trkpt><trkpt lat="42.1609917" lon="14.6258883"><ele>95.0</ele><time>2026-04-26T06:43:37.89Z</time></trkpt><trkpt lat="42.1608983" lon="14.6259883"><ele>95.0</ele><time>2026-04-26T06:43:38.89Z</time></trkpt><trkpt lat="42.16082" lon="14.6260983"><ele>95.0</ele><time>2026-04-26T06:43:39.891Z</time></trkpt><trkpt lat="42.160755" lon="14.6262217"><ele>93.6</ele><time>2026-04-26T06:43:40.891Z</time></trkpt><trkpt lat="42.1606933" lon="14.6263483"><ele>92.2</ele><time>2026-04-26T06:43:41.891Z</time></trkpt><trkpt lat="42.1606467" lon="14.6264717"><ele>90.80000000000001</ele><time>2026-04-26T06:43:42.89Z</time></trkpt><trkpt lat="42.1606167" lon="14.626605"><ele>89.4</ele><time>2026-04-26T06:43:43.891Z</time></trkpt><trkpt lat="42.1606033" lon="14.6267517"><ele>88.0</ele><time>2026-04-26T06:43:44.891Z</time></trkpt><trkpt lat="42.1605917" lon="14.6269"><ele>87.80000000000001</ele><time>2026-04-26T06:43:45.891Z</time></trkpt><trkpt lat="42.1605783" lon="14.6270383"><ele>87.6</ele><time>2026-04-26T06:43:46.89Z</time></trkpt><trkpt lat="42.1605533" lon="14.627175"><ele>87.4</ele><time>2026-04-26T06:43:47.891Z</time></trkpt><trkpt lat="42.16053" lon="14.6273083"><ele>87.19999999999999</ele><time>2026-04-26T06:43:48.891Z</time></trkpt><trkpt lat="42.16051" lon="14.62744"><ele>87.0</ele><time>2026-04-26T06:43:49.891Z</time></trkpt><trkpt lat="42.1604917" lon="14.62757"><ele>87.0</ele><time>2026-04-26T06:43:50.89Z</time></trkpt><trkpt lat="42.16047" lon="14.6276967"><ele>87.0</ele><time>2026-04-26T06:43:51.89Z</time></trkpt><trkpt lat="42.1604467" lon="14.627825"><ele>87.0</ele><time>2026-04-26T06:43:52.891Z</time></trkpt><trkpt lat="42.1604233" lon="14.62795"><ele>87.0</ele><time>2026-04-26T06:43:53.89Z</time></trkpt><trkpt lat="42.1604033" lon="14.628075"><ele>87.0</ele><time>2026-04-26T06:43:54.89Z</time></trkpt><trkpt lat="42.1603867" lon="14.6282017"><ele>86.39999999999999</ele><time>2026-04-26T06:43:55.891Z</time></trkpt><trkpt lat="42.1603633" lon="14.6283283"><ele>85.8</ele><time>2026-04-26T06:43:56.89Z</time></trkpt><trkpt lat="42.160345" lon="14.628445"><ele>85.2</ele><time>2026-04-26T06:43:57.891Z</time></trkpt><trkpt lat="42.1603267" lon="14.62856"><ele>84.6</ele><time>2026-04-26T06:43:58.891Z</time></trkpt><trkpt lat="42.1603067" lon="14.628685"><ele>84.0</ele><time>2026-04-26T06:43:59.89Z</time></trkpt><trkpt lat="42.1602917" lon="14.6288067"><ele>83.83333333333333</ele><time>2026-04-26T06:44:00.89Z</time></trkpt><trkpt lat="42.1602767" lon="14.628925"><ele>83.66666666666667</ele><time>2026-04-26T06:44:01.891Z</time></trkpt><trkpt lat="42.1602633" lon="14.6290467"><ele>83.5</ele><time>2026-04-26T06:44:02.891Z</time></trkpt><trkpt lat="42.160245" lon="14.6291583"><ele>83.33333333333334</ele><time>2026-04-26T06:44:03.89Z</time></trkpt><trkpt lat="42.16023" lon="14.6292733"><ele>83.16666666666667</ele><time>2026-04-26T06:44:04.89Z</time></trkpt><trkpt lat="42.1602167" lon="14.6293817"><ele>83.0</ele><time>2026-04-26T06:44:05.89Z</time></trkpt><trkpt lat="42.1602033" lon="14.629495"><ele>82.66666666666667</ele><time>2026-04-26T06:44:06.89Z</time></trkpt><trkpt lat="42.160185" lon="14.6296017"><ele>82.33333333333334</ele><time>2026-04-26T06:44:07.891Z</time></trkpt><trkpt lat="42.1601717" lon="14.6297117"><ele>82.0</ele><time>2026-04-26T06:44:08.891Z</time></trkpt><trkpt lat="42.1601617" lon="14.62982"><ele>81.66666666666667</ele><time>2026-04-26T06:44:09.89Z</time></trkpt><trkpt lat="42.1601517" lon="14.629945"><ele>81.33333333333333</ele><time>2026-04-26T06:44:10.89Z</time></trkpt><trkpt lat="42.1601417" lon="14.6300667"><ele>81.0</ele><time>2026-04-26T06:44:11.891Z</time></trkpt><trkpt lat="42.1601383" lon="14.630185"><ele>81.0</ele><time>2026-04-26T06:44:12.89Z</time></trkpt><trkpt lat="42.1601367" lon="14.630305"><ele>81.0</ele><time>2026-04-26T06:44:13.89Z</time></trkpt><trkpt lat="42.160135" lon="14.63042"><ele>81.0</ele><time>2026-04-26T06:44:14.891Z</time></trkpt><trkpt lat="42.1601317" lon="14.6305317"><ele>81.0</ele><time>2026-04-26T06:44:15.891Z</time></trkpt><trkpt lat="42.1601283" lon="14.6306483"><ele>81.0</ele><time>2026-04-26T06:44:16.89Z</time></trkpt><trkpt lat="42.1601317" lon="14.630765"><ele>81.0</ele><time>2026-04-26T06:44:17.891Z</time></trkpt><trkpt lat="42.1601383" lon="14.6308783"><ele>80.16666666666667</ele><time>2026-04-26T06:44:18.891Z</time></trkpt><trkpt lat="42.1601483" lon="14.6309933"><ele>79.33333333333333</ele><time>2026-04-26T06:44:19.891Z</time></trkpt><trkpt lat="42.1601667" lon="14.63111"><ele>78.5</ele><time>2026-04-26T06:44:20.89Z</time></trkpt><trkpt lat="42.1601833" lon="14.6312283"><ele>77.66666666666666</ele><time>2026-04-26T06:44:21.891Z</time></trkpt><trkpt lat="42.1602067" lon="14.6313417"><ele>76.83333333333333</ele><time>2026-04-26T06:44:22.891Z</time></trkpt><trkpt lat="42.1602367" lon="14.631455"><ele>76.0</ele><time>2026-04-26T06:44:23.89Z</time></trkpt><trkpt lat="42.160265" lon="14.6315717"><ele>75.0</ele><time>2026-04-26T06:44:24.891Z</time></trkpt><trkpt lat="42.1602917" lon="14.6316883"><ele>74.0</ele><time>2026-04-26T06:44:25.891Z</time></trkpt><trkpt lat="42.1603117" lon="14.6318033"><ele>73.0</ele><time>2026-04-26T06:44:26.89Z</time></trkpt><trkpt lat="42.1603317" lon="14.6319167"><ele>72.0</ele><time>2026-04-26T06:44:27.891Z</time></trkpt><trkpt lat="42.160345" lon="14.6320333"><ele>71.0</ele><time>2026-04-26T06:44:28.891Z</time></trkpt><trkpt lat="42.16036" lon="14.6321567"><ele>70.0</ele><time>2026-04-26T06:44:29.891Z</time></trkpt><trkpt lat="42.1603767" lon="14.6322833"><ele>68.4</ele><time>2026-04-26T06:44:30.89Z</time></trkpt><trkpt lat="42.1603917" lon="14.63241"><ele>66.8</ele><time>2026-04-26T06:44:31.89Z</time></trkpt><trkpt lat="42.1604133" lon="14.6325367"><ele>65.2</ele><time>2026-04-26T06:44:32.891Z</time></trkpt><trkpt lat="42.160445" lon="14.6326583"><ele>63.6</ele><time>2026-04-26T06:44:33.891Z</time></trkpt><trkpt lat="42.1604883" lon="14.6327717"><ele>62.0</ele><time>2026-04-26T06:44:34.891Z</time></trkpt><trkpt lat="42.16055" lon="14.632875"><ele>62.0</ele><time>2026-04-26T06:44:35.89Z</time></trkpt><trkpt lat="42.160625" lon="14.63295"><ele>62.0</ele><time>2026-04-26T06:44:36.89Z</time></trkpt><trkpt lat="42.1607167" lon="14.632995"><ele>62.0</ele><time>2026-04-26T06:44:37.891Z</time></trkpt><trkpt lat="42.1608233" lon="14.633"><ele>62.0</ele><time>2026-04-26T06:44:38.891Z</time></trkpt><trkpt lat="42.16093" lon="14.6329617"><ele>62.0</ele><time>2026-04-26T06:44:39.891Z</time></trkpt><trkpt lat="42.1610333" lon="14.6329033"><ele>62.0</ele><time>2026-04-26T06:44:40.89Z</time></trkpt><trkpt lat="42.1611283" lon="14.6328417"><ele>62.0</ele><time>2026-04-26T06:44:41.891Z</time></trkpt><trkpt lat="42.1612233" lon="14.6327783"><ele>62.0</ele><time>2026-04-26T06:44:42.89Z</time></trkpt><trkpt lat="42.16132" lon="14.6327167"><ele>62.0</ele><time>2026-04-26T06:44:43.89Z</time></trkpt><trkpt lat="42.1614183" lon="14.6326517"><ele>62.0</ele><time>2026-04-26T06:44:44.891Z</time></trkpt><trkpt lat="42.1615117" lon="14.6325883"><ele>62.8</ele><time>2026-04-26T06:44:45.891Z</time></trkpt><trkpt lat="42.161605" lon="14.6325183"><ele>63.6</ele><time>2026-04-26T06:44:46.891Z</time></trkpt><trkpt lat="42.1616967" lon="14.632445"><ele>64.39999999999999</ele><time>2026-04-26T06:44:47.89Z</time></trkpt><trkpt lat="42.16179" lon="14.6323783"><ele>65.2</ele><time>2026-04-26T06:44:48.891Z</time></trkpt><trkpt lat="42.1618833" lon="14.6322983"><ele>66.0</ele><time>2026-04-26T06:44:49.891Z</time></trkpt><trkpt lat="42.1619767" lon="14.632225"><ele>66.0</ele><time>2026-04-26T06:44:50.891Z</time></trkpt><trkpt lat="42.16207" lon="14.632155"><ele>66.0</ele><time>2026-04-26T06:44:51.89Z</time></trkpt><trkpt lat="42.1621617" lon="14.6320833"><ele>66.0</ele><time>2026-04-26T06:44:52.891Z</time></trkpt><trkpt lat="42.1622583" lon="14.6320067"><ele>66.0</ele><time>2026-04-26T06:44:53.89Z</time></trkpt><trkpt lat="42.1623567" lon="14.6319267"><ele>66.0</ele><time>2026-04-26T06:44:54.891Z</time></trkpt><trkpt lat="42.1624467" lon="14.63185"><ele>65.6</ele><time>2026-04-26T06:44:55.89Z</time></trkpt><trkpt lat="42.1625367" lon="14.6317833"><ele>65.19999999999999</ele><time>2026-04-26T06:44:56.891Z</time></trkpt><trkpt lat="42.162625" lon="14.6317367"><ele>64.80000000000001</ele><time>2026-04-26T06:44:57.891Z</time></trkpt><trkpt lat="42.1627117" lon="14.631725"><ele>64.4</ele><time>2026-04-26T06:44:58.89Z</time></trkpt><trkpt lat="42.1627933" lon="14.6317633"><ele>64.0</ele><time>2026-04-26T06:44:59.891Z</time></trkpt><trkpt lat="42.1628567" lon="14.6318367"><ele>63.99999999999999</ele><time>2026-04-26T06:45:00.891Z</time></trkpt><trkpt lat="42.1629" lon="14.6319283"><ele>64.0</ele><time>2026-04-26T06:45:01.89Z</time></trkpt><trkpt lat="42.162895" lon="14.6320467"><ele>64.0</ele><time>2026-04-26T06:45:02.89Z</time></trkpt><trkpt lat="42.1628667" lon="14.6321483"><ele>64.0</ele><time>2026-04-26T06:45:03.89Z</time></trkpt><trkpt lat="42.1628167" lon="14.6322467"><ele>63.99999999999999</ele><time>2026-04-26T06:45:04.891Z</time></trkpt><trkpt lat="42.1627367" lon="14.6323167"><ele>64.0</ele><time>2026-04-26T06:45:05.891Z</time></trkpt><trkpt lat="42.1626583" lon="14.6323883"><ele>62.6</ele><time>2026-04-26T06:45:06.891Z</time></trkpt><trkpt lat="42.1625817" lon="14.63246"><ele>61.2</ele><time>2026-04-26T06:45:07.89Z</time></trkpt><trkpt lat="42.1625133" lon="14.6325517"><ele>59.800000000000004</ele><time>2026-04-26T06:45:08.89Z</time></trkpt><trkpt lat="42.1624483" lon="14.632635"><ele>58.400000000000006</ele><time>2026-04-26T06:45:09.891Z</time></trkpt><trkpt lat="42.1623883" lon="14.6327267"><ele>57.0</ele><time>2026-04-26T06:45:10.891Z</time></trkpt><trkpt lat="42.1623267" lon="14.6328133"><ele>57.0</ele><time>2026-04-26T06:45:11.89Z</time></trkpt><trkpt lat="42.162265" lon="14.6329033"><ele>57.0</ele><time>2026-04-26T06:45:12.891Z</time></trkpt><trkpt lat="42.162205" lon="14.6329883"><ele>57.0</ele><time>2026-04-26T06:45:13.89Z</time></trkpt><trkpt lat="42.1621467" lon="14.6330733"><ele>57.0</ele><time>2026-04-26T06:45:14.891Z</time></trkpt><trkpt lat="42.1620917" lon="14.63317"><ele>57.0</ele><time>2026-04-26T06:45:15.89Z</time></trkpt><trkpt lat="42.16203" lon="14.63326"><ele>57.0</ele><time>2026-04-26T06:45:16.891Z</time></trkpt><trkpt lat="42.1619833" lon="14.6333583"><ele>57.0</ele><time>2026-04-26T06:45:17.891Z</time></trkpt><trkpt lat="42.1619267" lon="14.6334467"><ele>57.0</ele><time>2026-04-26T06:45:18.891Z</time></trkpt><trkpt lat="42.1618667" lon="14.633545"><ele>57.0</ele><time>2026-04-26T06:45:19.89Z</time></trkpt><trkpt lat="42.16181" lon="14.633645"><ele>57.0</ele><time>2026-04-26T06:45:20.891Z</time></trkpt><trkpt lat="42.1617467" lon="14.6337417"><ele>57.0</ele><time>2026-04-26T06:45:21.891Z</time></trkpt><trkpt lat="42.1616933" lon="14.6338333"><ele>56.166666666666664</ele><time>2026-04-26T06:45:22.891Z</time></trkpt><trkpt lat="42.1616517" lon="14.633935"><ele>55.33333333333333</ele><time>2026-04-26T06:45:23.891Z</time></trkpt><trkpt lat="42.1616017" lon="14.6340283"><ele>54.5</ele><time>2026-04-26T06:45:24.89Z</time></trkpt><trkpt lat="42.16157" lon="14.6341167"><ele>53.666666666666664</ele><time>2026-04-26T06:45:25.89Z</time></trkpt><trkpt lat="42.1615383" lon="14.6342217"><ele>52.83333333333333</ele><time>2026-04-26T06:45:26.89Z</time></trkpt><trkpt lat="42.1615183" lon="14.6343333"><ele>52.0</ele><time>2026-04-26T06:45:27.891Z</time></trkpt><trkpt lat="42.1615283" lon="14.63444"><ele>51.0</ele><time>2026-04-26T06:45:28.89Z</time></trkpt><trkpt lat="42.161565" lon="14.634545"><ele>50.0</ele><time>2026-04-26T06:45:29.891Z</time></trkpt><trkpt lat="42.161625" lon="14.634645"><ele>49.0</ele><time>2026-04-26T06:45:30.891Z</time></trkpt><trkpt lat="42.16169" lon="14.6347367"><ele>48.0</ele><time>2026-04-26T06:45:31.89Z</time></trkpt><trkpt lat="42.1617517" lon="14.6348267"><ele>47.0</ele><time>2026-04-26T06:45:32.891Z</time></trkpt><trkpt lat="42.1618233" lon="14.6349317"><ele>47.0</ele><time>2026-04-26T06:45:33.89Z</time></trkpt><trkpt lat="42.1619433" lon="14.6349767"><ele>47.0</ele><time>2026-04-26T06:45:34.891Z</time></trkpt><trkpt lat="42.1620217" lon="14.6350533"><ele>47.0</ele><time>2026-04-26T06:45:35.891Z</time></trkpt><trkpt lat="42.16209" lon="14.635115"><ele>47.0</ele><time>2026-04-26T06:45:36.891Z</time></trkpt><trkpt lat="42.16217" lon="14.6351817"><ele>47.0</ele><time>2026-04-26T06:45:37.891Z</time></trkpt><trkpt lat="42.1622533" lon="14.63524"><ele>47.0</ele><time>2026-04-26T06:45:38.89Z</time></trkpt><trkpt lat="42.1623433" lon="14.6352833"><ele>47.0</ele><time>2026-04-26T06:45:39.89Z</time></trkpt><trkpt lat="42.1624333" lon="14.6353283"><ele>47.0</ele><time>2026-04-26T06:45:40.89Z</time></trkpt><trkpt lat="42.1625233" lon="14.6353667"><ele>47.0</ele><time>2026-04-26T06:45:41.89Z</time></trkpt><trkpt lat="42.1626133" lon="14.6354083"><ele>47.0</ele><time>2026-04-26T06:45:42.891Z</time></trkpt><trkpt lat="42.162705" lon="14.6354533"><ele>45.0</ele><time>2026-04-26T06:45:43.891Z</time></trkpt><trkpt lat="42.162795" lon="14.63551"><ele>43.0</ele><time>2026-04-26T06:45:44.89Z</time></trkpt><trkpt lat="42.1628767" lon="14.6355783"><ele>41.0</ele><time>2026-04-26T06:45:45.891Z</time></trkpt><trkpt lat="42.1629567" lon="14.63566"><ele>39.0</ele><time>2026-04-26T06:45:46.89Z</time></trkpt><trkpt lat="42.1630267" lon="14.63575"><ele>37.0</ele><time>2026-04-26T06:45:47.891Z</time></trkpt><trkpt lat="42.1630867" lon="14.6358633"><ele>37.0</ele><time>2026-04-26T06:45:48.891Z</time></trkpt><trkpt lat="42.1631367" lon="14.6359767"><ele>37.0</ele><time>2026-04-26T06:45:49.891Z</time></trkpt><trkpt lat="42.1631967" lon="14.6360833"><ele>37.0</ele><time>2026-04-26T06:45:50.891Z</time></trkpt><trkpt lat="42.16325" lon="14.6361883"><ele>37.0</ele><time>2026-04-26T06:45:51.89Z</time></trkpt><trkpt lat="42.1633033" lon="14.6362933"><ele>37.0</ele><time>2026-04-26T06:45:52.89Z</time></trkpt><trkpt lat="42.163365" lon="14.6364"><ele>36.4</ele><time>2026-04-26T06:45:53.891Z</time></trkpt><trkpt lat="42.1634283" lon="14.6365067"><ele>35.800000000000004</ele><time>2026-04-26T06:45:54.891Z</time></trkpt><trkpt lat="42.1634917" lon="14.636615"><ele>35.2</ele><time>2026-04-26T06:45:55.891Z</time></trkpt><trkpt lat="42.1635483" lon="14.636725"><ele>34.6</ele><time>2026-04-26T06:45:56.891Z</time></trkpt><trkpt lat="42.1636017" lon="14.6368383"><ele>34.0</ele><time>2026-04-26T06:45:57.89Z</time></trkpt><trkpt lat="42.1636333" lon="14.63696"><ele>33.0</ele><time>2026-04-26T06:45:58.891Z</time></trkpt><trkpt lat="42.1636483" lon="14.6370917"><ele>32.0</ele><time>2026-04-26T06:45:59.891Z</time></trkpt><trkpt lat="42.1636267" lon="14.6372117"><ele>31.0</ele><time>2026-04-26T06:46:00.891Z</time></trkpt><trkpt lat="42.1635883" lon="14.6373317"><ele>30.0</ele><time>2026-04-26T06:46:01.891Z</time></trkpt><trkpt lat="42.1635317" lon="14.6374267"><ele>29.0</ele><time>2026-04-26T06:46:02.89Z</time></trkpt><trkpt lat="42.1634717" lon="14.637525"><ele>29.0</ele><time>2026-04-26T06:46:03.89Z</time></trkpt><trkpt lat="42.1634067" lon="14.6376233"><ele>29.0</ele><time>2026-04-26T06:46:04.891Z</time></trkpt><trkpt lat="42.1633467" lon="14.6377217"><ele>29.0</ele><time>2026-04-26T06:46:05.891Z</time></trkpt><trkpt lat="42.16328" lon="14.6378133"><ele>29.0</ele><time>2026-04-26T06:46:06.891Z</time></trkpt><trkpt lat="42.1632083" lon="14.6378917"><ele>29.0</ele><time>2026-04-26T06:46:07.89Z</time></trkpt><trkpt lat="42.1631217" lon="14.6379583"><ele>28.4</ele><time>2026-04-26T06:46:08.89Z</time></trkpt><trkpt lat="42.1630383" lon="14.63802"><ele>27.799999999999997</ele><time>2026-04-26T06:46:09.891Z</time></trkpt><trkpt lat="42.1629483" lon="14.6380767"><ele>27.200000000000003</ele><time>2026-04-26T06:46:10.891Z</time></trkpt><trkpt lat="42.1628583" lon="14.63814"><ele>26.6</ele><time>2026-04-26T06:46:11.89Z</time></trkpt><trkpt lat="42.16277" lon="14.6382083"><ele>26.0</ele><time>2026-04-26T06:46:12.891Z</time></trkpt><trkpt lat="42.162685" lon="14.638285"><ele>26.0</ele><time>2026-04-26T06:46:13.89Z</time></trkpt><trkpt lat="42.1626017" lon="14.638365"><ele>26.0</ele><time>2026-04-26T06:46:14.89Z</time></trkpt><trkpt lat="42.16253" lon="14.638455"><ele>26.0</ele><time>2026-04-26T06:46:15.891Z</time></trkpt><trkpt lat="42.1624667" lon="14.6385583"><ele>26.0</ele><time>2026-04-26T06:46:16.891Z</time></trkpt><trkpt lat="42.1624183" lon="14.6386717"><ele>26.0</ele><time>2026-04-26T06:46:17.891Z</time></trkpt><trkpt lat="42.1623933" lon="14.638795"><ele>25.333333333333332</ele><time>2026-04-26T06:46:18.89Z</time></trkpt><trkpt lat="42.162385" lon="14.638915"><ele>24.666666666666664</ele><time>2026-04-26T06:46:19.891Z</time></trkpt><trkpt lat="42.1624" lon="14.6390267"><ele>24.0</ele><time>2026-04-26T06:46:20.891Z</time></trkpt><trkpt lat="42.1624417" lon="14.6391283"><ele>23.333333333333332</ele><time>2026-04-26T06:46:21.891Z</time></trkpt><trkpt lat="42.1624967" lon="14.639215"><ele>22.666666666666664</ele><time>2026-04-26T06:46:22.891Z</time></trkpt><trkpt lat="42.16255" lon="14.6393033"><ele>22.0</ele><time>2026-04-26T06:46:23.891Z</time></trkpt><trkpt lat="42.16261" lon="14.6393833"><ele>22.0</ele><time>2026-04-26T06:46:24.891Z</time></trkpt><trkpt lat="42.1626767" lon="14.6394533"><ele>22.0</ele><time>2026-04-26T06:46:25.89Z</time></trkpt><trkpt lat="42.16275" lon="14.639505"><ele>22.0</ele><time>2026-04-26T06:46:26.89Z</time></trkpt><trkpt lat="42.1628283" lon="14.6395417"><ele>22.0</ele><time>2026-04-26T06:46:27.891Z</time></trkpt><trkpt lat="42.1629067" lon="14.6395767"><ele>22.0</ele><time>2026-04-26T06:46:28.891Z</time></trkpt><trkpt lat="42.1629833" lon="14.63961"><ele>22.0</ele><time>2026-04-26T06:46:29.89Z</time></trkpt><trkpt lat="42.1630533" lon="14.6396533"><ele>21.833333333333332</ele><time>2026-04-26T06:46:30.89Z</time></trkpt><trkpt lat="42.16312" lon="14.63971"><ele>21.666666666666664</ele><time>2026-04-26T06:46:31.89Z</time></trkpt><trkpt lat="42.1631717" lon="14.6397767"><ele>21.5</ele><time>2026-04-26T06:46:32.89Z</time></trkpt><trkpt lat="42.1632133" lon="14.6398583"><ele>21.333333333333332</ele><time>2026-04-26T06:46:33.891Z</time></trkpt><trkpt lat="42.16324" lon="14.6399433"><ele>21.166666666666668</ele><time>2026-04-26T06:46:34.891Z</time></trkpt><trkpt lat="42.1632583" lon="14.6401117"><ele>21.0</ele><time>2026-04-26T06:46:36.89Z</time></trkpt><trkpt lat="42.1632367" lon="14.6402667"><ele>20.25</ele><time>2026-04-26T06:46:38.891Z</time></trkpt><trkpt lat="42.1632317" lon="14.640425"><ele>19.5</ele><time>2026-04-26T06:46:40.891Z</time></trkpt><trkpt lat="42.1632917" lon="14.6405567"><ele>18.75</ele><time>2026-04-26T06:46:42.89Z</time></trkpt><trkpt lat="42.1634083" lon="14.6406183"><ele>18.0</ele><time>2026-04-26T06:46:44.89Z</time></trkpt><trkpt lat="42.1635333" lon="14.6406183"><ele>18.0</ele><time>2026-04-26T06:46:46.89Z</time></trkpt><trkpt lat="42.163655" lon="14.6406467"><ele>18.0</ele><time>2026-04-26T06:46:48.891Z</time></trkpt><trkpt lat="42.1637483" lon="14.6407383"><ele>18.0</ele><time>2026-04-26T06:46:50.891Z</time></trkpt><trkpt lat="42.1638067" lon="14.640875"><ele>18.0</ele><time>2026-04-26T06:46:52.891Z</time></trkpt><trkpt lat="42.1638583" lon="14.6410167"><ele>18.2</ele><time>2026-04-26T06:46:54.891Z</time></trkpt><trkpt lat="42.1639333" lon="14.6411433"><ele>18.4</ele><time>2026-04-26T06:46:56.891Z</time></trkpt><trkpt lat="42.1640433" lon="14.6411983"><ele>18.599999999999998</ele><time>2026-04-26T06:46:58.891Z</time></trkpt><trkpt lat="42.1641067" lon="14.6411967"><ele>18.8</ele><time>2026-04-26T06:46:59.891Z</time></trkpt><trkpt lat="42.1642133" lon="14.6411333"><ele>19.0</ele><time>2026-04-26T06:47:01.891Z</time></trkpt><trkpt lat="42.1642933" lon="14.641015"><ele>19.25</ele><time>2026-04-26T06:47:03.89Z</time></trkpt><trkpt lat="42.1643567" lon="14.6408833"><ele>19.5</ele><time>2026-04-26T06:47:05.89Z</time></trkpt><trkpt lat="42.1644517" lon="14.6407867"><ele>19.75</ele><time>2026-04-26T06:47:07.891Z</time></trkpt><trkpt lat="42.16456" lon="14.640725"><ele>20.0</ele><time>2026-04-26T06:47:09.891Z</time></trkpt><trkpt lat="42.1646683" lon="14.64067"><ele>20.0</ele><time>2026-04-26T06:47:11.891Z</time></trkpt><trkpt lat="42.16478" lon="14.6406083"><ele>20.0</ele><time>2026-04-26T06:47:13.89Z</time></trkpt><trkpt lat="42.1648933" lon="14.64055"><ele>20.0</ele><time>2026-04-26T06:47:15.891Z</time></trkpt><trkpt lat="42.1650067" lon="14.6405083"><ele>20.0</ele><time>2026-04-26T06:47:17.89Z</time></trkpt><trkpt lat="42.1651217" lon="14.6404733"><ele>19.8</ele><time>2026-04-26T06:47:19.891Z</time></trkpt><trkpt lat="42.1652433" lon="14.6404367"><ele>19.6</ele><time>2026-04-26T06:47:21.89Z</time></trkpt><trkpt lat="42.1653583" lon="14.6404017"><ele>19.4</ele><time>2026-04-26T06:47:23.891Z</time></trkpt><trkpt lat="42.1654783" lon="14.6403767"><ele>19.2</ele><time>2026-04-26T06:47:25.89Z</time></trkpt><trkpt lat="42.1655417" lon="14.6403633"><ele>19.0</ele><time>2026-04-26T06:47:26.89Z</time></trkpt><trkpt lat="42.165665" lon="14.64034"><ele>18.75</ele><time>2026-04-26T06:47:28.89Z</time></trkpt><trkpt lat="42.1657883" lon="14.6403233"><ele>18.5</ele><time>2026-04-26T06:47:30.89Z</time></trkpt><trkpt lat="42.1659117" lon="14.6403017"><ele>18.25</ele><time>2026-04-26T06:47:32.891Z</time></trkpt><trkpt lat="42.16603" lon="14.6402833"><ele>18.0</ele><time>2026-04-26T06:47:34.89Z</time></trkpt><trkpt lat="42.1661533" lon="14.640265"><ele>18.0</ele><time>2026-04-26T06:47:36.891Z</time></trkpt><trkpt lat="42.1662167" lon="14.6402567"><ele>18.0</ele><time>2026-04-26T06:47:37.89Z</time></trkpt><trkpt lat="42.1662817" lon="14.6402467"><ele>18.0</ele><time>2026-04-26T06:47:38.89Z</time></trkpt><trkpt lat="42.1664067" lon="14.640235"><ele>18.0</ele><time>2026-04-26T06:47:40.891Z</time></trkpt><trkpt lat="42.1664717" lon="14.6402267"><ele>18.0</ele><time>2026-04-26T06:47:41.891Z</time></trkpt><trkpt lat="42.166535" lon="14.6402133"><ele>18.0</ele><time>2026-04-26T06:47:42.891Z</time></trkpt><trkpt lat="42.1666617" lon="14.6401833"><ele>17.833333333333332</ele><time>2026-04-26T06:47:44.891Z</time></trkpt><trkpt lat="42.166785" lon="14.6401583"><ele>17.666666666666668</ele><time>2026-04-26T06:47:46.891Z</time></trkpt><trkpt lat="42.1668483" lon="14.6401483"><ele>17.5</ele><time>2026-04-26T06:47:47.89Z</time></trkpt><trkpt lat="42.1669683" lon="14.6401333"><ele>17.333333333333336</ele><time>2026-04-26T06:47:49.891Z</time></trkpt><trkpt lat="42.1670333" lon="14.64012"><ele>17.166666666666668</ele><time>2026-04-26T06:47:50.891Z</time></trkpt><trkpt lat="42.1670983" lon="14.6401083"><ele>17.0</ele><time>2026-04-26T06:47:51.891Z</time></trkpt><trkpt lat="42.167165" lon="14.6400983"><ele>17.0</ele><time>2026-04-26T06:47:52.891Z</time></trkpt><trkpt lat="42.16723" lon="14.6400917"><ele>17.0</ele><time>2026-04-26T06:47:53.89Z</time></trkpt><trkpt lat="42.1672933" lon="14.6400817"><ele>17.0</ele><time>2026-04-26T06:47:54.89Z</time></trkpt><trkpt lat="42.1674183" lon="14.6400633"><ele>17.0</ele><time>2026-04-26T06:47:56.891Z</time></trkpt><trkpt lat="42.1675417" lon="14.64004"><ele>17.0</ele><time>2026-04-26T06:47:58.891Z</time></trkpt><trkpt lat="42.1676083" lon="14.6400283"><ele>17.0</ele><time>2026-04-26T06:47:59.891Z</time></trkpt><trkpt lat="42.1676717" lon="14.6400167"><ele>17.0</ele><time>2026-04-26T06:48:00.891Z</time></trkpt><trkpt lat="42.1677967" lon="14.6399983"><ele>17.0</ele><time>2026-04-26T06:48:02.89Z</time></trkpt><trkpt lat="42.16786" lon="14.6399883"><ele>17.0</ele><time>2026-04-26T06:48:03.891Z</time></trkpt><trkpt lat="42.1679233" lon="14.6399783"><ele>17.0</ele><time>2026-04-26T06:48:04.89Z</time></trkpt><trkpt lat="42.1680467" lon="14.6399483"><ele>17.0</ele><time>2026-04-26T06:48:06.891Z</time></trkpt><trkpt lat="42.1681617" lon="14.6399233"><ele>17.142857142857142</ele><time>2026-04-26T06:48:08.891Z</time></trkpt><trkpt lat="42.168285" lon="14.6399083"><ele>17.285714285714285</ele><time>2026-04-26T06:48:10.89Z</time></trkpt><trkpt lat="42.16835" lon="14.6399"><ele>17.42857142857143</ele><time>2026-04-26T06:48:11.89Z</time></trkpt><trkpt lat="42.1684133" lon="14.63989"><ele>17.57142857142857</ele><time>2026-04-26T06:48:12.891Z</time></trkpt><trkpt lat="42.1684767" lon="14.63988"><ele>17.714285714285715</ele><time>2026-04-26T06:48:13.891Z</time></trkpt><trkpt lat="42.16854" lon="14.63987"><ele>17.857142857142858</ele><time>2026-04-26T06:48:14.891Z</time></trkpt><trkpt lat="42.168605" lon="14.6398617"><ele>18.0</ele><time>2026-04-26T06:48:15.891Z</time></trkpt><trkpt lat="42.16867" lon="14.6398567"><ele>18.0</ele><time>2026-04-26T06:48:16.89Z</time></trkpt><trkpt lat="42.1687883" lon="14.6398317"><ele>18.0</ele><time>2026-04-26T06:48:18.89Z</time></trkpt><trkpt lat="42.16891" lon="14.6398117"><ele>18.0</ele><time>2026-04-26T06:48:20.89Z</time></trkpt><trkpt lat="42.168975" lon="14.6398033"><ele>18.0</ele><time>2026-04-26T06:48:21.89Z</time></trkpt><trkpt lat="42.1691" lon="14.6397833"><ele>18.0</ele><time>2026-04-26T06:48:23.891Z</time></trkpt><trkpt lat="42.1691633" lon="14.6397733"><ele>18.0</ele><time>2026-04-26T06:48:24.89Z</time></trkpt><trkpt lat="42.169285" lon="14.6397583"><ele>18.0</ele><time>2026-04-26T06:48:26.89Z</time></trkpt><trkpt lat="42.1693483" lon="14.6397517"><ele>18.0</ele><time>2026-04-26T06:48:27.891Z</time></trkpt><trkpt lat="42.1694717" lon="14.6397317"><ele>18.0</ele><time>2026-04-26T06:48:29.891Z</time></trkpt><trkpt lat="42.169535" lon="14.6397217"><ele>18.0</ele><time>2026-04-26T06:48:30.89Z</time></trkpt><trkpt lat="42.1696583" lon="14.6397"><ele>18.0</ele><time>2026-04-26T06:48:32.891Z</time></trkpt><trkpt lat="42.1697833" lon="14.639675"><ele>18.0</ele><time>2026-04-26T06:48:34.89Z</time></trkpt><trkpt lat="42.1698467" lon="14.639665"><ele>18.0</ele><time>2026-04-26T06:48:35.891Z</time></trkpt><trkpt lat="42.16997" lon="14.6396383"><ele>18.0</ele><time>2026-04-26T06:48:37.891Z</time></trkpt><trkpt lat="42.170095" lon="14.63962"><ele>18.0</ele><time>2026-04-26T06:48:39.891Z</time></trkpt><trkpt lat="42.1702167" lon="14.63961"><ele>17.5</ele><time>2026-04-26T06:48:41.891Z</time></trkpt><trkpt lat="42.1703383" lon="14.6395917"><ele>17.0</ele><time>2026-04-26T06:48:43.891Z</time></trkpt><trkpt lat="42.170465" lon="14.63957"><ele>16.5</ele><time>2026-04-26T06:48:45.89Z</time></trkpt><trkpt lat="42.1705883" lon="14.6395433"><ele>16.0</ele><time>2026-04-26T06:48:47.891Z</time></trkpt><trkpt lat="42.1707067" lon="14.6395233"><ele>16.0</ele><time>2026-04-26T06:48:49.89Z</time></trkpt><trkpt lat="42.1708267" lon="14.6394983"><ele>16.0</ele><time>2026-04-26T06:48:51.89Z</time></trkpt><trkpt lat="42.1709483" lon="14.63948"><ele>16.0</ele><time>2026-04-26T06:48:53.891Z</time></trkpt><trkpt lat="42.17107" lon="14.6394617"><ele>16.0</ele><time>2026-04-26T06:48:55.891Z</time></trkpt><trkpt lat="42.1711333" lon="14.6394533"><ele>16.0</ele><time>2026-04-26T06:48:56.89Z</time></trkpt><trkpt lat="42.1711983" lon="14.6394433"><ele>16.0</ele><time>2026-04-26T06:48:57.891Z</time></trkpt><trkpt lat="42.1713167" lon="14.6394167"><ele>16.0</ele><time>2026-04-26T06:48:59.891Z</time></trkpt><trkpt lat="42.17144" lon="14.639395"><ele>16.0</ele><time>2026-04-26T06:49:01.89Z</time></trkpt><trkpt lat="42.1715617" lon="14.63938"><ele>16.0</ele><time>2026-04-26T06:49:03.89Z</time></trkpt><trkpt lat="42.1716783" lon="14.6393667"><ele>15.8</ele><time>2026-04-26T06:49:05.891Z</time></trkpt><trkpt lat="42.1717983" lon="14.6393467"><ele>15.600000000000001</ele><time>2026-04-26T06:49:07.89Z</time></trkpt><trkpt lat="42.17192" lon="14.6393283"><ele>15.4</ele><time>2026-04-26T06:49:09.891Z</time></trkpt><trkpt lat="42.1719833" lon="14.6393233"><ele>15.2</ele><time>2026-04-26T06:49:10.89Z</time></trkpt><trkpt lat="42.172105" lon="14.6393083"><ele>15.0</ele><time>2026-04-26T06:49:12.891Z</time></trkpt><trkpt lat="42.1722233" lon="14.6392817"><ele>15.0</ele><time>2026-04-26T06:49:14.891Z</time></trkpt><trkpt lat="42.1723383" lon="14.6392533"><ele>15.0</ele><time>2026-04-26T06:49:16.89Z</time></trkpt><trkpt lat="42.1724567" lon="14.6392383"><ele>15.0</ele><time>2026-04-26T06:49:18.891Z</time></trkpt><trkpt lat="42.17257" lon="14.6392233"><ele>15.0</ele><time>2026-04-26T06:49:20.89Z</time></trkpt><trkpt lat="42.172685" lon="14.6392067"><ele>14.8</ele><time>2026-04-26T06:49:22.89Z</time></trkpt><trkpt lat="42.17281" lon="14.63918"><ele>14.6</ele><time>2026-04-26T06:49:24.89Z</time></trkpt><trkpt lat="42.172875" lon="14.6391683"><ele>14.399999999999999</ele><time>2026-04-26T06:49:25.891Z</time></trkpt><trkpt lat="42.17294" lon="14.6391567"><ele>14.2</ele><time>2026-04-26T06:49:26.891Z</time></trkpt><trkpt lat="42.17306" lon="14.6391367"><ele>14.0</ele><time>2026-04-26T06:49:28.891Z</time></trkpt><trkpt lat="42.173175" lon="14.6391183"><ele>13.75</ele><time>2026-04-26T06:49:30.891Z</time></trkpt><trkpt lat="42.173295" lon="14.6390967"><ele>13.5</ele><time>2026-04-26T06:49:32.891Z</time></trkpt><trkpt lat="42.1734133" lon="14.6390817"><ele>13.25</ele><time>2026-04-26T06:49:34.89Z</time></trkpt><trkpt lat="42.1735333" lon="14.6390683"><ele>13.0</ele><time>2026-04-26T06:49:36.89Z</time></trkpt><trkpt lat="42.1736567" lon="14.6390467"><ele>13.0</ele><time>2026-04-26T06:49:38.89Z</time></trkpt><trkpt lat="42.1737767" lon="14.6390267"><ele>13.0</ele><time>2026-04-26T06:49:40.89Z</time></trkpt><trkpt lat="42.1738983" lon="14.6390017"><ele>13.0</ele><time>2026-04-26T06:49:42.891Z</time></trkpt><trkpt lat="42.17402" lon="14.6389917"><ele>13.0</ele><time>2026-04-26T06:49:44.891Z</time></trkpt><trkpt lat="42.17414" lon="14.63897"><ele>13.25</ele><time>2026-04-26T06:49:46.89Z</time></trkpt><trkpt lat="42.1742583" lon="14.638945"><ele>13.5</ele><time>2026-04-26T06:49:48.89Z</time></trkpt><trkpt lat="42.17437" lon="14.63893"><ele>13.75</ele><time>2026-04-26T06:49:50.891Z</time></trkpt><trkpt lat="42.1744867" lon="14.638915"><ele>14.0</ele><time>2026-04-26T06:49:52.891Z</time></trkpt><trkpt lat="42.1746033" lon="14.638895"><ele>14.0</ele><time>2026-04-26T06:49:54.891Z</time></trkpt><trkpt lat="42.1747283" lon="14.6388667"><ele>14.0</ele><time>2026-04-26T06:49:56.89Z</time></trkpt><trkpt lat="42.1748517" lon="14.6388517"><ele>14.0</ele><time>2026-04-26T06:49:58.89Z</time></trkpt><trkpt lat="42.1749783" lon="14.6388333"><ele>14.0</ele><time>2026-04-26T06:50:00.891Z</time></trkpt><trkpt lat="42.175095" lon="14.6388067"><ele>14.25</ele><time>2026-04-26T06:50:02.891Z</time></trkpt><trkpt lat="42.1752067" lon="14.6387983"><ele>14.5</ele><time>2026-04-26T06:50:04.89Z</time></trkpt><trkpt lat="42.1753167" lon="14.6387867"><ele>14.75</ele><time>2026-04-26T06:50:06.89Z</time></trkpt><trkpt lat="42.1754367" lon="14.63877"><ele>15.0</ele><time>2026-04-26T06:50:08.891Z</time></trkpt><trkpt lat="42.17556" lon="14.6387483"><ele>15.0</ele><time>2026-04-26T06:50:10.89Z</time></trkpt><trkpt lat="42.175625" lon="14.6387317"><ele>15.0</ele><time>2026-04-26T06:50:11.891Z</time></trkpt><trkpt lat="42.1757467" lon="14.6387083"><ele>15.0</ele><time>2026-04-26T06:50:13.891Z</time></trkpt><trkpt lat="42.17587" lon="14.638685"><ele>15.0</ele><time>2026-04-26T06:50:15.89Z</time></trkpt><trkpt lat="42.1759933" lon="14.6386567"><ele>15.0</ele><time>2026-04-26T06:50:17.89Z</time></trkpt><trkpt lat="42.176115" lon="14.6386433"><ele>15.2</ele><time>2026-04-26T06:50:19.891Z</time></trkpt><trkpt lat="42.17623" lon="14.6386217"><ele>15.4</ele><time>2026-04-26T06:50:21.891Z</time></trkpt><trkpt lat="42.17635" lon="14.638605"><ele>15.600000000000001</ele><time>2026-04-26T06:50:23.891Z</time></trkpt><trkpt lat="42.176475" lon="14.6386"><ele>15.8</ele><time>2026-04-26T06:50:25.891Z</time></trkpt><trkpt lat="42.1765383" lon="14.63861"><ele>16.0</ele><time>2026-04-26T06:50:26.891Z</time></trkpt><trkpt lat="42.1766483" lon="14.6386733"><ele>15.166666666666666</ele><time>2026-04-26T06:50:28.891Z</time></trkpt><trkpt lat="42.176755" lon="14.63877"><ele>14.333333333333332</ele><time>2026-04-26T06:50:30.891Z</time></trkpt><trkpt lat="42.17681" lon="14.6388333"><ele>13.5</ele><time>2026-04-26T06:50:31.891Z</time></trkpt><trkpt lat="42.1768633" lon="14.6389"><ele>12.666666666666666</ele><time>2026-04-26T06:50:32.891Z</time></trkpt><trkpt lat="42.17691" lon="14.6389717"><ele>11.833333333333332</ele><time>2026-04-26T06:50:33.891Z</time></trkpt><trkpt lat="42.1769583" lon="14.6390433"><ele>11.0</ele><time>2026-04-26T06:50:34.891Z</time></trkpt><trkpt lat="42.177005" lon="14.6391167"><ele>11.0</ele><time>2026-04-26T06:50:35.89Z</time></trkpt><trkpt lat="42.177055" lon="14.639185"><ele>11.0</ele><time>2026-04-26T06:50:36.891Z</time></trkpt><trkpt lat="42.1771067" lon="14.6392483"><ele>11.0</ele><time>2026-04-26T06:50:37.89Z</time></trkpt><trkpt lat="42.1771583" lon="14.639315"><ele>11.0</ele><time>2026-04-26T06:50:38.891Z</time></trkpt><trkpt lat="42.1772117" lon="14.6393733"><ele>11.0</ele><time>2026-04-26T06:50:39.891Z</time></trkpt><trkpt lat="42.177265" lon="14.639435"><ele>11.0</ele><time>2026-04-26T06:50:40.891Z</time></trkpt><trkpt lat="42.1773167" lon="14.6394967"><ele>11.0</ele><time>2026-04-26T06:50:41.891Z</time></trkpt><trkpt lat="42.1773667" lon="14.6395517"><ele>11.0</ele><time>2026-04-26T06:50:42.891Z</time></trkpt><trkpt lat="42.177415" lon="14.63961"><ele>11.0</ele><time>2026-04-26T06:50:43.89Z</time></trkpt><trkpt lat="42.1774617" lon="14.63967"><ele>11.0</ele><time>2026-04-26T06:50:44.89Z</time></trkpt><trkpt lat="42.1775033" lon="14.6397383"><ele>11.0</ele><time>2026-04-26T06:50:45.89Z</time></trkpt><trkpt lat="42.17757" lon="14.639875"><ele>11.0</ele><time>2026-04-26T06:50:47.891Z</time></trkpt><trkpt lat="42.1776" lon="14.6399517"><ele>11.0</ele><time>2026-04-26T06:50:48.891Z</time></trkpt><trkpt lat="42.177625" lon="14.64003"><ele>11.0</ele><time>2026-04-26T06:50:49.891Z</time></trkpt><trkpt lat="42.1776633" lon="14.6401817"><ele>11.0</ele><time>2026-04-26T06:50:51.89Z</time></trkpt><trkpt lat="42.1776967" lon="14.64033"><ele>11.0</ele><time>2026-04-26T06:50:53.89Z</time></trkpt><trkpt lat="42.1777267" lon="14.64048"><ele>11.0</ele><time>2026-04-26T06:50:55.891Z</time></trkpt><trkpt lat="42.1777583" lon="14.6406267"><ele>11.0</ele><time>2026-04-26T06:50:57.89Z</time></trkpt><trkpt lat="42.1777783" lon="14.6407183"><ele>11.0</ele><time>2026-04-26T06:50:58.891Z</time></trkpt><trkpt lat="42.1778067" lon="14.640875"><ele>11.0</ele><time>2026-04-26T06:51:00.89Z</time></trkpt><trkpt lat="42.1778417" lon="14.6410217"><ele>11.0</ele><time>2026-04-26T06:51:02.89Z</time></trkpt><trkpt lat="42.1779017" lon="14.6411483"><ele>11.0</ele><time>2026-04-26T06:51:04.89Z</time></trkpt><trkpt lat="42.178" lon="14.64124"><ele>11.0</ele><time>2026-04-26T06:51:06.891Z</time></trkpt><trkpt lat="42.1780667" lon="14.641265"><ele>11.0</ele><time>2026-04-26T06:51:07.891Z</time></trkpt><trkpt lat="42.17813" lon="14.6412667"><ele>10.600000000000001</ele><time>2026-04-26T06:51:08.89Z</time></trkpt><trkpt lat="42.1782517" lon="14.6412417"><ele>10.200000000000001</ele><time>2026-04-26T06:51:10.89Z</time></trkpt><trkpt lat="42.1783683" lon="14.641205"><ele>9.8</ele><time>2026-04-26T06:51:12.89Z</time></trkpt><trkpt lat="42.1784883" lon="14.6411767"><ele>9.4</ele><time>2026-04-26T06:51:14.891Z</time></trkpt><trkpt lat="42.1785517" lon="14.6411667"><ele>9.0</ele><time>2026-04-26T06:51:15.891Z</time></trkpt><trkpt lat="42.1786167" lon="14.6411567"><ele>9.0</ele><time>2026-04-26T06:51:16.891Z</time></trkpt><trkpt lat="42.17874" lon="14.6411517"><ele>9.0</ele><time>2026-04-26T06:51:18.89Z</time></trkpt><trkpt lat="42.17886" lon="14.6411567"><ele>9.0</ele><time>2026-04-26T06:51:20.89Z</time></trkpt><trkpt lat="42.17898" lon="14.6411767"><ele>9.0</ele><time>2026-04-26T06:51:22.891Z</time></trkpt><trkpt lat="42.1791" lon="14.6412133"><ele>8.75</ele><time>2026-04-26T06:51:24.891Z</time></trkpt><trkpt lat="42.17921" lon="14.64128"><ele>8.5</ele><time>2026-04-26T06:51:26.891Z</time></trkpt><trkpt lat="42.1793167" lon="14.641345"><ele>8.25</ele><time>2026-04-26T06:51:28.891Z</time></trkpt><trkpt lat="42.179425" lon="14.6414083"><ele>8.0</ele><time>2026-04-26T06:51:30.89Z</time></trkpt><trkpt lat="42.17953" lon="14.6414833"><ele>8.0</ele><time>2026-04-26T06:51:32.891Z</time></trkpt><trkpt lat="42.179635" lon="14.641575"><ele>8.0</ele><time>2026-04-26T06:51:34.89Z</time></trkpt><trkpt lat="42.1797283" lon="14.641675"><ele>8.0</ele><time>2026-04-26T06:51:36.891Z</time></trkpt><trkpt lat="42.179815" lon="14.641795"><ele>8.0</ele><time>2026-04-26T06:51:38.891Z</time></trkpt><trkpt lat="42.17989" lon="14.641915"><ele>8.0</ele><time>2026-04-26T06:51:40.89Z</time></trkpt><trkpt lat="42.1799633" lon="14.6420467"><ele>8.0</ele><time>2026-04-26T06:51:42.891Z</time></trkpt><trkpt lat="42.1800217" lon="14.6421817"><ele>8.0</ele><time>2026-04-26T06:51:44.89Z</time></trkpt><trkpt lat="42.180075" lon="14.64233"><ele>8.0</ele><time>2026-04-26T06:51:46.89Z</time></trkpt><trkpt lat="42.180115" lon="14.6424783"><ele>8.0</ele><time>2026-04-26T06:51:48.891Z</time></trkpt><trkpt lat="42.1801367" lon="14.6426317"><ele>8.0</ele><time>2026-04-26T06:51:50.891Z</time></trkpt><trkpt lat="42.180155" lon="14.6427883"><ele>8.0</ele><time>2026-04-26T06:51:52.891Z</time></trkpt><trkpt lat="42.1801617" lon="14.6429467"><ele>8.0</ele><time>2026-04-26T06:51:54.891Z</time></trkpt><trkpt lat="42.1801717" lon="14.643105"><ele>7.75</ele><time>2026-04-26T06:51:56.891Z</time></trkpt><trkpt lat="42.18018" lon="14.6432617"><ele>7.5</ele><time>2026-04-26T06:51:58.891Z</time></trkpt><trkpt lat="42.180185" lon="14.6434133"><ele>7.25</ele><time>2026-04-26T06:52:00.891Z</time></trkpt><trkpt lat="42.1801817" lon="14.64357"><ele>7.0</ele><time>2026-04-26T06:52:02.891Z</time></trkpt><trkpt lat="42.18019" lon="14.6437333"><ele>7.0</ele><time>2026-04-26T06:52:04.891Z</time></trkpt><trkpt lat="42.180225" lon="14.643875"><ele>7.0</ele><time>2026-04-26T06:52:06.891Z</time></trkpt><trkpt lat="42.1803067" lon="14.64398"><ele>7.0</ele><time>2026-04-26T06:52:08.891Z</time></trkpt><trkpt lat="42.180415" lon="14.6440367"><ele>7.0</ele><time>2026-04-26T06:52:10.89Z</time></trkpt><trkpt lat="42.1805217" lon="14.64408"><ele>7.0</ele><time>2026-04-26T06:52:12.891Z</time></trkpt><trkpt lat="42.1806367" lon="14.6441233"><ele>6.999999999999999</ele><time>2026-04-26T06:52:14.891Z</time></trkpt><trkpt lat="42.180755" lon="14.6441767"><ele>6.999999999999999</ele><time>2026-04-26T06:52:16.891Z</time></trkpt><trkpt lat="42.1808167" lon="14.644205"><ele>7.0</ele><time>2026-04-26T06:52:17.89Z</time></trkpt><trkpt lat="42.1808783" lon="14.6442333"><ele>7.0</ele><time>2026-04-26T06:52:18.89Z</time></trkpt><trkpt lat="42.180995" lon="14.644285"><ele>7.000000000000001</ele><time>2026-04-26T06:52:20.89Z</time></trkpt><trkpt lat="42.181055" lon="14.6443133"><ele>7.0</ele><time>2026-04-26T06:52:21.89Z</time></trkpt><trkpt lat="42.181115" lon="14.64434"><ele>7.0</ele><time>2026-04-26T06:52:22.891Z</time></trkpt><trkpt lat="42.1811783" lon="14.6443667"><ele>7.0</ele><time>2026-04-26T06:52:23.891Z</time></trkpt><trkpt lat="42.18124" lon="14.644395"><ele>7.000000000000001</ele><time>2026-04-26T06:52:24.89Z</time></trkpt><trkpt lat="42.1813633" lon="14.6444467"><ele>7.0</ele><time>2026-04-26T06:52:26.891Z</time></trkpt><trkpt lat="42.1814267" lon="14.6444717"><ele>7.000000000000001</ele><time>2026-04-26T06:52:27.891Z</time></trkpt><trkpt lat="42.1814883" lon="14.644495"><ele>7.0</ele><time>2026-04-26T06:52:28.891Z</time></trkpt><trkpt lat="42.18155" lon="14.644515"><ele>7.0</ele><time>2026-04-26T06:52:29.89Z</time></trkpt><trkpt lat="42.181615" lon="14.6445383"><ele>7.0</ele><time>2026-04-26T06:52:30.89Z</time></trkpt><trkpt lat="42.1817383" lon="14.6445833"><ele>7.000000000000001</ele><time>2026-04-26T06:52:32.891Z</time></trkpt><trkpt lat="42.1818017" lon="14.6445983"><ele>7.0</ele><time>2026-04-26T06:52:33.891Z</time></trkpt><trkpt lat="42.1818717" lon="14.6446067"><ele>7.0</ele><time>2026-04-26T06:52:34.891Z</time></trkpt><trkpt lat="42.1819367" lon="14.6446217"><ele>7.0</ele><time>2026-04-26T06:52:35.89Z</time></trkpt><trkpt lat="42.182" lon="14.6446333"><ele>7.0</ele><time>2026-04-26T06:52:36.89Z</time></trkpt><trkpt lat="42.1820667" lon="14.6446517"><ele>7.0</ele><time>2026-04-26T06:52:37.891Z</time></trkpt><trkpt lat="42.1821317" lon="14.6446683"><ele>7.0</ele><time>2026-04-26T06:52:38.89Z</time></trkpt><trkpt lat="42.1822017" lon="14.6446717"><ele>7.0</ele><time>2026-04-26T06:52:39.891Z</time></trkpt><trkpt lat="42.1822683" lon="14.6446717"><ele>7.0</ele><time>2026-04-26T06:52:40.891Z</time></trkpt><trkpt lat="42.1823333" lon="14.64467"><ele>6.857142857142857</ele><time>2026-04-26T06:52:41.891Z</time></trkpt><trkpt lat="42.1824" lon="14.6446617"><ele>6.714285714285714</ele><time>2026-04-26T06:52:42.89Z</time></trkpt><trkpt lat="42.1824667" lon="14.6446583"><ele>6.571428571428571</ele><time>2026-04-26T06:52:43.891Z</time></trkpt><trkpt lat="42.1825317" lon="14.6446467"><ele>6.428571428571429</ele><time>2026-04-26T06:52:44.89Z</time></trkpt><trkpt lat="42.182595" lon="14.6446417"><ele>6.285714285714286</ele><time>2026-04-26T06:52:45.89Z</time></trkpt><trkpt lat="42.1826583" lon="14.64464"><ele>6.142857142857142</ele><time>2026-04-26T06:52:46.891Z</time></trkpt><trkpt lat="42.1827233" lon="14.64464"><ele>6.0</ele><time>2026-04-26T06:52:47.891Z</time></trkpt><trkpt lat="42.1827883" lon="14.6446367"><ele>6.0</ele><time>2026-04-26T06:52:48.891Z</time></trkpt><trkpt lat="42.182855" lon="14.6446267"><ele>6.0</ele><time>2026-04-26T06:52:49.89Z</time></trkpt><trkpt lat="42.1829817" lon="14.644615"><ele>6.0</ele><time>2026-04-26T06:52:51.891Z</time></trkpt><trkpt lat="42.1831067" lon="14.644605"><ele>6.0</ele><time>2026-04-26T06:52:53.891Z</time></trkpt><trkpt lat="42.1831717" lon="14.6446033"><ele>6.0</ele><time>2026-04-26T06:52:54.891Z</time></trkpt><trkpt lat="42.1832383" lon="14.6446"><ele>5.7142857142857135</ele><time>2026-04-26T06:52:55.89Z</time></trkpt><trkpt lat="42.1833017" lon="14.6445983"><ele>5.428571428571429</ele><time>2026-04-26T06:52:56.89Z</time></trkpt><trkpt lat="42.183365" lon="14.644595"><ele>5.142857142857142</ele><time>2026-04-26T06:52:57.891Z</time></trkpt><trkpt lat="42.1834283" lon="14.6445933"><ele>4.857142857142857</ele><time>2026-04-26T06:52:58.89Z</time></trkpt><trkpt lat="42.1834933" lon="14.6445883"><ele>4.571428571428571</ele><time>2026-04-26T06:52:59.89Z</time></trkpt><trkpt lat="42.1835583" lon="14.64459"><ele>4.285714285714286</ele><time>2026-04-26T06:53:00.89Z</time></trkpt><trkpt lat="42.1836283" lon="14.6445867"><ele>4.0</ele><time>2026-04-26T06:53:01.891Z</time></trkpt><trkpt lat="42.1836917" lon="14.644585"><ele>4.0</ele><time>2026-04-26T06:53:02.891Z</time></trkpt><trkpt lat="42.183755" lon="14.64458"><ele>3.9999999999999996</ele><time>2026-04-26T06:53:03.89Z</time></trkpt><trkpt lat="42.1838183" lon="14.6445733"><ele>4.0</ele><time>2026-04-26T06:53:04.891Z</time></trkpt><trkpt lat="42.1838833" lon="14.6445683"><ele>4.0</ele><time>2026-04-26T06:53:05.89Z</time></trkpt><trkpt lat="42.1839517" lon="14.64456"><ele>3.9999999999999996</ele><time>2026-04-26T06:53:06.89Z</time></trkpt><trkpt lat="42.1840183" lon="14.644555"><ele>4.0</ele><time>2026-04-26T06:53:07.891Z</time></trkpt><trkpt lat="42.1840833" lon="14.6445433"><ele>4.0</ele><time>2026-04-26T06:53:08.89Z</time></trkpt><trkpt lat="42.1841433" lon="14.6445167"><ele>3.9999999999999996</ele><time>2026-04-26T06:53:09.891Z</time></trkpt><trkpt lat="42.1842533" lon="14.6444267"><ele>4.0</ele><time>2026-04-26T06:53:11.891Z</time></trkpt><trkpt lat="42.1843033" lon="14.64437"><ele>4.0</ele><time>2026-04-26T06:53:12.891Z</time></trkpt><trkpt lat="42.1843567" lon="14.6442967"><ele>4.0</ele><time>2026-04-26T06:53:13.89Z</time></trkpt><trkpt lat="42.1844033" lon="14.6442367"><ele>3.9999999999999996</ele><time>2026-04-26T06:53:14.891Z</time></trkpt><trkpt lat="42.1844483" lon="14.644175"><ele>4.0</ele><time>2026-04-26T06:53:15.89Z</time></trkpt><trkpt lat="42.18454" lon="14.6440583"><ele>4.0</ele><time>2026-04-26T06:53:17.891Z</time></trkpt><trkpt lat="42.1845883" lon="14.6440033"><ele>3.9999999999999996</ele><time>2026-04-26T06:53:18.89Z</time></trkpt><trkpt lat="42.18464" lon="14.64395"><ele>4.0</ele><time>2026-04-26T06:53:19.89Z</time></trkpt><trkpt lat="42.184695" lon="14.6439083"><ele>4.0</ele><time>2026-04-26T06:53:20.89Z</time></trkpt><trkpt lat="42.1847517" lon="14.64387"><ele>3.9999999999999996</ele><time>2026-04-26T06:53:21.891Z</time></trkpt><trkpt lat="42.1848117" lon="14.6438383"><ele>4.0</ele><time>2026-04-26T06:53:22.891Z</time></trkpt><trkpt lat="42.1849233" lon="14.6437833"><ele>4.0</ele><time>2026-04-26T06:53:24.89Z</time></trkpt><trkpt lat="42.1850333" lon="14.64374"><ele>4.0</ele><time>2026-04-26T06:53:26.891Z</time></trkpt><trkpt lat="42.185145" lon="14.6436817"><ele>4.0</ele><time>2026-04-26T06:53:28.891Z</time></trkpt><trkpt lat="42.18526" lon="14.6436233"><ele>4.0</ele><time>2026-04-26T06:53:30.891Z</time></trkpt><trkpt lat="42.18532" lon="14.6435917"><ele>4.0</ele><time>2026-04-26T06:53:31.89Z</time></trkpt><trkpt lat="42.1853783" lon="14.6435567"><ele>4.0</ele><time>2026-04-26T06:53:32.89Z</time></trkpt><trkpt lat="42.1854917" lon="14.64349"><ele>4.0</ele><time>2026-04-26T06:53:34.891Z</time></trkpt><trkpt lat="42.1856017" lon="14.6434333"><ele>4.0</ele><time>2026-04-26T06:53:36.891Z</time></trkpt><trkpt lat="42.1857167" lon="14.6434067"><ele>4.0</ele><time>2026-04-26T06:53:38.891Z</time></trkpt><trkpt lat="42.1858433" lon="14.6434017"><ele>4.0</ele><time>2026-04-26T06:53:40.891Z</time></trkpt><trkpt lat="42.1859083" lon="14.6434117"><ele>4.0</ele><time>2026-04-26T06:53:41.891Z</time></trkpt><trkpt lat="42.1860283" lon="14.64344"><ele>3.8000000000000003</ele><time>2026-04-26T06:53:43.89Z</time></trkpt><trkpt lat="42.186145" lon="14.6434833"><ele>3.6000000000000005</ele><time>2026-04-26T06:53:45.891Z</time></trkpt><trkpt lat="42.1862067" lon="14.6435017"><ele>3.4</ele><time>2026-04-26T06:53:46.89Z</time></trkpt><trkpt lat="42.186325" lon="14.6435467"><ele>3.2</ele><time>2026-04-26T06:53:48.891Z</time></trkpt><trkpt lat="42.1864417" lon="14.643595"><ele>3.0</ele><time>2026-04-26T06:53:50.891Z</time></trkpt><trkpt lat="42.18655" lon="14.6436467"><ele>2.6</ele><time>2026-04-26T06:53:52.89Z</time></trkpt><trkpt lat="42.1866617" lon="14.6437"><ele>2.1999999999999997</ele><time>2026-04-26T06:53:54.891Z</time></trkpt><trkpt lat="42.1867217" lon="14.6437283"><ele>1.8</ele><time>2026-04-26T06:53:55.89Z</time></trkpt><trkpt lat="42.1868317" lon="14.6437917"><ele>1.4</ele><time>2026-04-26T06:53:57.89Z</time></trkpt><trkpt lat="42.186935" lon="14.6438767"><ele>1.0</ele><time>2026-04-26T06:53:59.891Z</time></trkpt><trkpt lat="42.1870283" lon="14.6439783"><ele>1.0</ele><time>2026-04-26T06:54:01.891Z</time></trkpt><trkpt lat="42.18711" lon="14.6440967"><ele>1.0</ele><time>2026-04-26T06:54:03.89Z</time></trkpt><trkpt lat="42.1871917" lon="14.644215"><ele>1.0</ele><time>2026-04-26T06:54:05.89Z</time></trkpt><trkpt lat="42.1872733" lon="14.6443383"><ele>1.0</ele><time>2026-04-26T06:54:07.891Z</time></trkpt><trkpt lat="42.18735" lon="14.6444433"><ele>1.4</ele><time>2026-04-26T06:54:09.891Z</time></trkpt><trkpt lat="42.187435" lon="14.6445533"><ele>1.8</ele><time>2026-04-26T06:54:11.89Z</time></trkpt><trkpt lat="42.1874917" lon="14.6445983"><ele>2.1999999999999997</ele><time>2026-04-26T06:54:12.891Z</time></trkpt><trkpt lat="42.1876067" lon="14.64467"><ele>2.6</ele><time>2026-04-26T06:54:14.891Z</time></trkpt><trkpt lat="42.18767" lon="14.6446867"><ele>3.0</ele><time>2026-04-26T06:54:15.89Z</time></trkpt><trkpt lat="42.18779" lon="14.6447017"><ele>3.0</ele><time>2026-04-26T06:54:17.89Z</time></trkpt><trkpt lat="42.1879117" lon="14.6447083"><ele>3.0</ele><time>2026-04-26T06:54:19.89Z</time></trkpt><trkpt lat="42.188035" lon="14.644705"><ele>3.0</ele><time>2026-04-26T06:54:21.89Z</time></trkpt><trkpt lat="42.1881567" lon="14.6446983"><ele>3.0</ele><time>2026-04-26T06:54:23.891Z</time></trkpt><trkpt lat="42.1882783" lon="14.6446967"><ele>2.75</ele><time>2026-04-26T06:54:25.89Z</time></trkpt><trkpt lat="42.1884" lon="14.64469"><ele>2.5</ele><time>2026-04-26T06:54:27.891Z</time></trkpt><trkpt lat="42.1885217" lon="14.64468"><ele>2.25</ele><time>2026-04-26T06:54:29.89Z</time></trkpt><trkpt lat="42.1886417" lon="14.6446783"><ele>2.0</ele><time>2026-04-26T06:54:31.89Z</time></trkpt><trkpt lat="42.1887617" lon="14.6446733"><ele>2.0</ele><time>2026-04-26T06:54:33.89Z</time></trkpt><trkpt lat="42.1888833" lon="14.6446733"><ele>2.0</ele><time>2026-04-26T06:54:35.89Z</time></trkpt><trkpt lat="42.1890033" lon="14.6446717"><ele>2.0</ele><time>2026-04-26T06:54:37.891Z</time></trkpt><trkpt lat="42.1891167" lon="14.6446683"><ele>2.0</ele><time>2026-04-26T06:54:39.891Z</time></trkpt><trkpt lat="42.189235" lon="14.6446667"><ele>1.8</ele><time>2026-04-26T06:54:41.89Z</time></trkpt><trkpt lat="42.1893567" lon="14.6446533"><ele>1.6</ele><time>2026-04-26T06:54:43.891Z</time></trkpt><trkpt lat="42.1894733" lon="14.6446117"><ele>1.4000000000000001</ele><time>2026-04-26T06:54:45.89Z</time></trkpt><trkpt lat="42.1895333" lon="14.6445833"><ele>1.2000000000000002</ele><time>2026-04-26T06:54:46.89Z</time></trkpt><trkpt lat="42.18965" lon="14.6445383"><ele>1.0</ele><time>2026-04-26T06:54:48.891Z</time></trkpt><trkpt lat="42.1897533" lon="14.64451"><ele>1.4</ele><time>2026-04-26T06:54:50.89Z</time></trkpt><trkpt lat="42.1898667" lon="14.6444983"><ele>1.8</ele><time>2026-04-26T06:54:52.891Z</time></trkpt><trkpt lat="42.1899817" lon="14.6445033"><ele>2.1999999999999997</ele><time>2026-04-26T06:54:54.891Z</time></trkpt><trkpt lat="42.1900517" lon="14.6445367"><ele>2.6</ele><time>2026-04-26T06:54:55.89Z</time></trkpt><trkpt lat="42.1901267" lon="14.644605"><ele>3.0</ele><time>2026-04-26T06:54:56.89Z</time></trkpt><trkpt lat="42.1902367" lon="14.644635"><ele>3.0</ele><time>2026-04-26T06:54:58.89Z</time></trkpt><trkpt lat="42.1903" lon="14.6446183"><ele>3.0</ele><time>2026-04-26T06:54:59.891Z</time></trkpt><trkpt lat="42.190365" lon="14.644595"><ele>3.0</ele><time>2026-04-26T06:55:00.891Z</time></trkpt><trkpt lat="42.1904817" lon="14.6445533"><ele>3.0</ele><time>2026-04-26T06:55:02.891Z</time></trkpt><trkpt lat="42.190595" lon="14.6445083"><ele>3.0</ele><time>2026-04-26T06:55:04.891Z</time></trkpt><trkpt lat="42.1907083" lon="14.644465"><ele>2.75</ele><time>2026-04-26T06:55:06.89Z</time></trkpt><trkpt lat="42.19082" lon="14.6444267"><ele>2.5</ele><time>2026-04-26T06:55:08.891Z</time></trkpt><trkpt lat="42.1909283" lon="14.644375"><ele>2.25</ele><time>2026-04-26T06:55:10.891Z</time></trkpt><trkpt lat="42.1910333" lon="14.6442983"><ele>2.0</ele><time>2026-04-26T06:55:12.891Z</time></trkpt><trkpt lat="42.191125" lon="14.644205"><ele>2.0</ele><time>2026-04-26T06:55:14.891Z</time></trkpt><trkpt lat="42.1911967" lon="14.6440883"><ele>2.0</ele><time>2026-04-26T06:55:16.89Z</time></trkpt><trkpt lat="42.1912683" lon="14.6439583"><ele>2.0</ele><time>2026-04-26T06:55:18.891Z</time></trkpt><trkpt lat="42.1913033" lon="14.6438833"><ele>2.0</ele><time>2026-04-26T06:55:19.891Z</time></trkpt><trkpt lat="42.19137" lon="14.64375"><ele>2.0</ele><time>2026-04-26T06:55:21.89Z</time></trkpt><trkpt lat="42.1914383" lon="14.6436167"><ele>1.5</ele><time>2026-04-26T06:55:23.89Z</time></trkpt><trkpt lat="42.1915117" lon="14.6434833"><ele>1.0</ele><time>2026-04-26T06:55:25.89Z</time></trkpt><trkpt lat="42.19159" lon="14.6433783"><ele>0.5</ele><time>2026-04-26T06:55:27.89Z</time></trkpt><trkpt lat="42.191685" lon="14.6432767"><ele>0.0</ele><time>2026-04-26T06:55:29.891Z</time></trkpt><trkpt lat="42.191785" lon="14.643175"><ele>0.0</ele><time>2026-04-26T06:55:31.89Z</time></trkpt><trkpt lat="42.191875" lon="14.6430617"><ele>0.0</ele><time>2026-04-26T06:55:33.89Z</time></trkpt><trkpt lat="42.1919583" lon="14.6429367"><ele>0.0</ele><time>2026-04-26T06:55:35.891Z</time></trkpt><trkpt lat="42.1920383" lon="14.6428167"><ele>0.0</ele><time>2026-04-26T06:55:37.891Z</time></trkpt><trkpt lat="42.1921183" lon="14.64271"><ele>0.0</ele><time>2026-04-26T06:55:39.89Z</time></trkpt><trkpt lat="42.1922133" lon="14.6426233"><ele>0.0</ele><time>2026-04-26T06:55:41.89Z</time></trkpt><trkpt lat="42.1923" lon="14.6425367"><ele>0.0</ele><time>2026-04-26T06:55:43.891Z</time></trkpt><trkpt lat="42.1923567" lon="14.6424117"><ele>0.0</ele><time>2026-04-26T06:55:45.89Z</time></trkpt><trkpt lat="42.1924017" lon="14.642265"><ele>0.0</ele><time>2026-04-26T06:55:47.891Z</time></trkpt><trkpt lat="42.19244" lon="14.642115"><ele>0.0</ele><time>2026-04-26T06:55:49.89Z</time></trkpt><trkpt lat="42.19246" lon="14.64203"><ele>0.0</ele><time>2026-04-26T06:55:50.89Z</time></trkpt><trkpt lat="42.1924967" lon="14.64188"><ele>0.0</ele><time>2026-04-26T06:55:52.891Z</time></trkpt><trkpt lat="42.1925417" lon="14.6417367"><ele>0.0</ele><time>2026-04-26T06:55:54.891Z</time></trkpt><trkpt lat="42.192585" lon="14.641595"><ele>0.0</ele><time>2026-04-26T06:55:56.891Z</time></trkpt><trkpt lat="42.192605" lon="14.6415133"><ele>0.0</ele><time>2026-04-26T06:55:57.89Z</time></trkpt><trkpt lat="42.1926467" lon="14.6413667"><ele>0.0</ele><time>2026-04-26T06:55:59.891Z</time></trkpt><trkpt lat="42.1926883" lon="14.64122"><ele>0.0</ele><time>2026-04-26T06:56:01.891Z</time></trkpt><trkpt lat="42.1927183" lon="14.6410733"><ele>0.0</ele><time>2026-04-26T06:56:03.89Z</time></trkpt><trkpt lat="42.192755" lon="14.64093"><ele>0.0</ele><time>2026-04-26T06:56:05.89Z</time></trkpt><trkpt lat="42.1927983" lon="14.640775"><ele>0.0</ele><time>2026-04-26T06:56:07.891Z</time></trkpt><trkpt lat="42.1928383" lon="14.6406283"><ele>0.0</ele><time>2026-04-26T06:56:09.891Z</time></trkpt><trkpt lat="42.1928767" lon="14.6404817"><ele>0.0</ele><time>2026-04-26T06:56:11.891Z</time></trkpt><trkpt lat="42.1929183" lon="14.6403367"><ele>-0.25</ele><time>2026-04-26T06:56:13.89Z</time></trkpt><trkpt lat="42.1929567" lon="14.640185"><ele>-0.5</ele><time>2026-04-26T06:56:15.891Z</time></trkpt><trkpt lat="42.19299" lon="14.6400317"><ele>-0.75</ele><time>2026-04-26T06:56:17.891Z</time></trkpt><trkpt lat="42.1930317" lon="14.6398833"><ele>-1.0</ele><time>2026-04-26T06:56:19.891Z</time></trkpt><trkpt lat="42.1930717" lon="14.63974"><ele>-1.0</ele><time>2026-04-26T06:56:21.891Z</time></trkpt><trkpt lat="42.1931083" lon="14.6395867"><ele>-1.0</ele><time>2026-04-26T06:56:23.891Z</time></trkpt><trkpt lat="42.19315" lon="14.639435"><ele>-1.0</ele><time>2026-04-26T06:56:25.89Z</time></trkpt><trkpt lat="42.193195" lon="14.6392833"><ele>-1.0</ele><time>2026-04-26T06:56:27.89Z</time></trkpt><trkpt lat="42.1932333" lon="14.6391283"><ele>-1.0</ele><time>2026-04-26T06:56:29.891Z</time></trkpt><trkpt lat="42.1932733" lon="14.6389883"><ele>-1.0</ele><time>2026-04-26T06:56:31.891Z</time></trkpt><trkpt lat="42.193315" lon="14.6388517"><ele>-1.0</ele><time>2026-04-26T06:56:33.891Z</time></trkpt><trkpt lat="42.193355" lon="14.6387133"><ele>-1.0</ele><time>2026-04-26T06:56:35.89Z</time></trkpt><trkpt lat="42.1933933" lon="14.638575"><ele>-1.0</ele><time>2026-04-26T06:56:37.89Z</time></trkpt><trkpt lat="42.1934267" lon="14.6384433"><ele>-0.6000000000000001</ele><time>2026-04-26T06:56:39.891Z</time></trkpt><trkpt lat="42.1934433" lon="14.6383167"><ele>-0.20000000000000007</ele><time>2026-04-26T06:56:41.891Z</time></trkpt><trkpt lat="42.1934833" lon="14.6381867"><ele>0.20000000000000007</ele><time>2026-04-26T06:56:43.89Z</time></trkpt><trkpt lat="42.1935233" lon="14.638055"><ele>0.6000000000000001</ele><time>2026-04-26T06:56:45.891Z</time></trkpt><trkpt lat="42.1935583" lon="14.6379167"><ele>1.0</ele><time>2026-04-26T06:56:47.89Z</time></trkpt><trkpt lat="42.1935967" lon="14.637775"><ele>1.0</ele><time>2026-04-26T06:56:49.891Z</time></trkpt><trkpt lat="42.19364" lon="14.6376333"><ele>1.0</ele><time>2026-04-26T06:56:51.891Z</time></trkpt><trkpt lat="42.1936783" lon="14.6374967"><ele>1.0</ele><time>2026-04-26T06:56:53.891Z</time></trkpt><trkpt lat="42.1937183" lon="14.6373533"><ele>1.0</ele><time>2026-04-26T06:56:55.891Z</time></trkpt><trkpt lat="42.1937617" lon="14.63722"><ele>1.0</ele><time>2026-04-26T06:56:57.891Z</time></trkpt><trkpt lat="42.1938033" lon="14.6370817"><ele>1.25</ele><time>2026-04-26T06:56:59.891Z</time></trkpt><trkpt lat="42.19384" lon="14.636945"><ele>1.5</ele><time>2026-04-26T06:57:01.891Z</time></trkpt><trkpt lat="42.1938783" lon="14.6367933"><ele>1.75</ele><time>2026-04-26T06:57:03.891Z</time></trkpt><trkpt lat="42.19392" lon="14.6366517"><ele>2.0</ele><time>2026-04-26T06:57:05.89Z</time></trkpt><trkpt lat="42.1939533" lon="14.6365067"><ele>2.0</ele><time>2026-04-26T06:57:07.891Z</time></trkpt><trkpt lat="42.193995" lon="14.636365"><ele>2.0</ele><time>2026-04-26T06:57:09.89Z</time></trkpt><trkpt lat="42.194035" lon="14.63622"><ele>2.0</ele><time>2026-04-26T06:57:11.891Z</time></trkpt><trkpt lat="42.19408" lon="14.6360733"><ele>2.0</ele><time>2026-04-26T06:57:13.89Z</time></trkpt><trkpt lat="42.1941183" lon="14.63593"><ele>1.75</ele><time>2026-04-26T06:57:15.891Z</time></trkpt><trkpt lat="42.19416" lon="14.6357967"><ele>1.5</ele><time>2026-04-26T06:57:17.89Z</time></trkpt><trkpt lat="42.1942" lon="14.63564"><ele>1.25</ele><time>2026-04-26T06:57:19.891Z</time></trkpt><trkpt lat="42.1942367" lon="14.6354883"><ele>1.0</ele><time>2026-04-26T06:57:21.89Z</time></trkpt><trkpt lat="42.1942817" lon="14.63535"><ele>1.2000000000000002</ele><time>2026-04-26T06:57:23.891Z</time></trkpt><trkpt lat="42.1943217" lon="14.6352067"><ele>1.4000000000000001</ele><time>2026-04-26T06:57:25.891Z</time></trkpt><trkpt lat="42.19436" lon="14.6350633"><ele>1.6</ele><time>2026-04-26T06:57:27.89Z</time></trkpt><trkpt lat="42.1944" lon="14.63492"><ele>1.8</ele><time>2026-04-26T06:57:29.891Z</time></trkpt><trkpt lat="42.1944367" lon="14.6347933"><ele>2.0</ele><time>2026-04-26T06:57:31.891Z</time></trkpt><trkpt lat="42.19447" lon="14.6346517"><ele>2.0</ele><time>2026-04-26T06:57:33.891Z</time></trkpt><trkpt lat="42.194505" lon="14.6345183"><ele>2.0</ele><time>2026-04-26T06:57:35.89Z</time></trkpt><trkpt lat="42.194555" lon="14.6343933"><ele>2.0</ele><time>2026-04-26T06:57:37.891Z</time></trkpt><trkpt lat="42.1946033" lon="14.634265"><ele>2.0</ele><time>2026-04-26T06:57:39.89Z</time></trkpt><trkpt lat="42.19465" lon="14.6341167"><ele>2.0</ele><time>2026-04-26T06:57:41.891Z</time></trkpt><trkpt lat="42.1946983" lon="14.6339733"><ele>2.0</ele><time>2026-04-26T06:57:43.891Z</time></trkpt><trkpt lat="42.1947433" lon="14.633835"><ele>2.0</ele><time>2026-04-26T06:57:45.89Z</time></trkpt><trkpt lat="42.1947817" lon="14.6336933"><ele>2.0</ele><time>2026-04-26T06:57:47.891Z</time></trkpt><trkpt lat="42.1948167" lon="14.633555"><ele>2.0</ele><time>2026-04-26T06:57:49.891Z</time></trkpt><trkpt lat="42.1948533" lon="14.6334233"><ele>2.0</ele><time>2026-04-26T06:57:51.891Z</time></trkpt><trkpt lat="42.1948917" lon="14.6332833"><ele>2.0</ele><time>2026-04-26T06:57:53.891Z</time></trkpt><trkpt lat="42.1949367" lon="14.633135"><ele>2.0</ele><time>2026-04-26T06:57:55.89Z</time></trkpt><trkpt lat="42.1949733" lon="14.6329933"><ele>2.0</ele><time>2026-04-26T06:57:57.891Z</time></trkpt><trkpt lat="42.1950117" lon="14.6328417"><ele>2.0</ele><time>2026-04-26T06:57:59.891Z</time></trkpt><trkpt lat="42.19505" lon="14.6327033"><ele>2.6</ele><time>2026-04-26T06:58:01.891Z</time></trkpt><trkpt lat="42.19509" lon="14.6325683"><ele>3.2</ele><time>2026-04-26T06:58:03.891Z</time></trkpt><trkpt lat="42.1951267" lon="14.6324317"><ele>3.8</ele><time>2026-04-26T06:58:05.891Z</time></trkpt><trkpt lat="42.19517" lon="14.6322983"><ele>4.4</ele><time>2026-04-26T06:58:07.891Z</time></trkpt><trkpt lat="42.19521" lon="14.632155"><ele>5.0</ele><time>2026-04-26T06:58:09.89Z</time></trkpt><trkpt lat="42.195255" lon="14.632015"><ele>4.8</ele><time>2026-04-26T06:58:11.891Z</time></trkpt><trkpt lat="42.19529" lon="14.631885"><ele>4.6</ele><time>2026-04-26T06:58:13.891Z</time></trkpt><trkpt lat="42.1953233" lon="14.6317433"><ele>4.4</ele><time>2026-04-26T06:58:15.891Z</time></trkpt><trkpt lat="42.1953583" lon="14.6316033"><ele>4.2</ele><time>2026-04-26T06:58:17.891Z</time></trkpt><trkpt lat="42.1954017" lon="14.63146"><ele>4.0</ele><time>2026-04-26T06:58:19.891Z</time></trkpt><trkpt lat="42.1954317" lon="14.63131"><ele>4.0</ele><time>2026-04-26T06:58:21.891Z</time></trkpt><trkpt lat="42.1954767" lon="14.63117"><ele>4.0</ele><time>2026-04-26T06:58:23.89Z</time></trkpt><trkpt lat="42.19552" lon="14.6310283"><ele>4.0</ele><time>2026-04-26T06:58:25.891Z</time></trkpt><trkpt lat="42.195565" lon="14.6308817"><ele>4.0</ele><time>2026-04-26T06:58:27.891Z</time></trkpt><trkpt lat="42.1956083" lon="14.6307333"><ele>4.0</ele><time>2026-04-26T06:58:29.891Z</time></trkpt><trkpt lat="42.1956467" lon="14.6305983"><ele>4.0</ele><time>2026-04-26T06:58:31.89Z</time></trkpt><trkpt lat="42.195685" lon="14.63046"><ele>4.0</ele><time>2026-04-26T06:58:33.89Z</time></trkpt><trkpt lat="42.1957283" lon="14.6303183"><ele>4.0</ele><time>2026-04-26T06:58:35.891Z</time></trkpt><trkpt lat="42.1957733" lon="14.630175"><ele>4.0</ele><time>2026-04-26T06:58:37.891Z</time></trkpt><trkpt lat="42.19581" lon="14.6300333"><ele>4.0</ele><time>2026-04-26T06:58:39.891Z</time></trkpt><trkpt lat="42.1958467" lon="14.6298967"><ele>4.0</ele><time>2026-04-26T06:58:41.89Z</time></trkpt><trkpt lat="42.1958833" lon="14.62975"><ele>4.0</ele><time>2026-04-26T06:58:43.891Z</time></trkpt><trkpt lat="42.1959183" lon="14.62962"><ele>4.0</ele><time>2026-04-26T06:58:45.89Z</time></trkpt><trkpt lat="42.195965" lon="14.6294883"><ele>4.0</ele><time>2026-04-26T06:58:47.891Z</time></trkpt><trkpt lat="42.1960217" lon="14.6293667"><ele>4.0</ele><time>2026-04-26T06:58:49.891Z</time></trkpt><trkpt lat="42.1960617" lon="14.62922"><ele>4.0</ele><time>2026-04-26T06:58:51.891Z</time></trkpt><trkpt lat="42.1960733" lon="14.6291333"><ele>4.0</ele><time>2026-04-26T06:58:52.891Z</time></trkpt><trkpt lat="42.1960833" lon="14.6289783"><ele>4.0</ele><time>2026-04-26T06:58:54.89Z</time></trkpt><trkpt lat="42.1961033" lon="14.6288267"><ele>4.0</ele><time>2026-04-26T06:58:56.89Z</time></trkpt><trkpt lat="42.1961233" lon="14.62868"><ele>4.0</ele><time>2026-04-26T06:58:58.891Z</time></trkpt><trkpt lat="42.196155" lon="14.62854"><ele>4.0</ele><time>2026-04-26T06:59:00.89Z</time></trkpt><trkpt lat="42.1961967" lon="14.6284"><ele>4.0</ele><time>2026-04-26T06:59:02.891Z</time></trkpt><trkpt lat="42.196235" lon="14.6282667"><ele>4.0</ele><time>2026-04-26T06:59:04.891Z</time></trkpt><trkpt lat="42.19628" lon="14.6281267"><ele>4.0</ele><time>2026-04-26T06:59:06.89Z</time></trkpt><trkpt lat="42.1963317" lon="14.627995"><ele>4.0</ele><time>2026-04-26T06:59:08.891Z</time></trkpt><trkpt lat="42.1963917" lon="14.6278517"><ele>4.0</ele><time>2026-04-26T06:59:10.891Z</time></trkpt><trkpt lat="42.1964467" lon="14.6277083"><ele>4.0</ele><time>2026-04-26T06:59:12.891Z</time></trkpt><trkpt lat="42.19649" lon="14.6275633"><ele>4.0</ele><time>2026-04-26T06:59:14.891Z</time></trkpt><trkpt lat="42.1965367" lon="14.627425"><ele>3.5</ele><time>2026-04-26T06:59:16.891Z</time></trkpt><trkpt lat="42.1965883" lon="14.627275"><ele>3.0</ele><time>2026-04-26T06:59:18.891Z</time></trkpt><trkpt lat="42.1966467" lon="14.6271367"><ele>2.5</ele><time>2026-04-26T06:59:20.89Z</time></trkpt><trkpt lat="42.1966933" lon="14.6270033"><ele>2.0</ele><time>2026-04-26T06:59:22.891Z</time></trkpt><trkpt lat="42.19674" lon="14.6268617"><ele>1.6</ele><time>2026-04-26T06:59:24.891Z</time></trkpt><trkpt lat="42.196785" lon="14.6267283"><ele>1.2000000000000002</ele><time>2026-04-26T06:59:26.89Z</time></trkpt><trkpt lat="42.19683" lon="14.6265933"><ele>0.8</ele><time>2026-04-26T06:59:28.891Z</time></trkpt><trkpt lat="42.1968767" lon="14.6264633"><ele>0.4</ele><time>2026-04-26T06:59:30.89Z</time></trkpt><trkpt lat="42.1969283" lon="14.6263317"><ele>0.0</ele><time>2026-04-26T06:59:32.891Z</time></trkpt><trkpt lat="42.1969767" lon="14.6261917"><ele>1.4</ele><time>2026-04-26T06:59:34.891Z</time></trkpt><trkpt lat="42.1970267" lon="14.626055"><ele>2.8</ele><time>2026-04-26T06:59:36.89Z</time></trkpt><trkpt lat="42.1970767" lon="14.6259233"><ele>4.199999999999999</ele><time>2026-04-26T06:59:38.891Z</time></trkpt><trkpt lat="42.197125" lon="14.62579"><ele>5.6</ele><time>2026-04-26T06:59:40.891Z</time></trkpt><trkpt lat="42.1971717" lon="14.62565"><ele>7.0</ele><time>2026-04-26T06:59:42.891Z</time></trkpt><trkpt lat="42.19722" lon="14.62551"><ele>7.0</ele><time>2026-04-26T06:59:44.891Z</time></trkpt><trkpt lat="42.19727" lon="14.6253767"><ele>6.999999999999999</ele><time>2026-04-26T06:59:46.891Z</time></trkpt><trkpt lat="42.19732" lon="14.62524"><ele>6.999999999999999</ele><time>2026-04-26T06:59:48.891Z</time></trkpt><trkpt lat="42.1973683" lon="14.6251"><ele>7.0</ele><time>2026-04-26T06:59:50.891Z</time></trkpt><trkpt lat="42.1974133" lon="14.624965"><ele>7.0</ele><time>2026-04-26T06:59:52.891Z</time></trkpt><trkpt lat="42.197465" lon="14.624825"><ele>6.6</ele><time>2026-04-26T06:59:54.891Z</time></trkpt><trkpt lat="42.1975083" lon="14.6246867"><ele>6.199999999999999</ele><time>2026-04-26T06:59:56.89Z</time></trkpt><trkpt lat="42.1975567" lon="14.6245517"><ele>5.8</ele><time>2026-04-26T06:59:58.891Z</time></trkpt><trkpt lat="42.197605" lon="14.6244117"><ele>5.4</ele><time>2026-04-26T07:00:00.891Z</time></trkpt><trkpt lat="42.19765" lon="14.62428"><ele>5.0</ele><time>2026-04-26T07:00:02.891Z</time></trkpt><trkpt lat="42.197695" lon="14.624135"><ele>6.0</ele><time>2026-04-26T07:00:04.891Z</time></trkpt><trkpt lat="42.1977383" lon="14.623995"><ele>7.0</ele><time>2026-04-26T07:00:06.89Z</time></trkpt><trkpt lat="42.1977817" lon="14.623855"><ele>8.0</ele><time>2026-04-26T07:00:08.89Z</time></trkpt><trkpt lat="42.1978217" lon="14.6237133"><ele>9.0</ele><time>2026-04-26T07:00:10.891Z</time></trkpt><trkpt lat="42.1978667" lon="14.6235633"><ele>9.4</ele><time>2026-04-26T07:00:12.89Z</time></trkpt><trkpt lat="42.1979017" lon="14.6234333"><ele>9.8</ele><time>2026-04-26T07:00:14.891Z</time></trkpt><trkpt lat="42.19794" lon="14.623295"><ele>10.200000000000001</ele><time>2026-04-26T07:00:16.89Z</time></trkpt><trkpt lat="42.1979767" lon="14.6231633"><ele>10.600000000000001</ele><time>2026-04-26T07:00:18.89Z</time></trkpt><trkpt lat="42.1980167" lon="14.6230367"><ele>11.0</ele><time>2026-04-26T07:00:20.891Z</time></trkpt><trkpt lat="42.1980567" lon="14.6229033"><ele>11.600000000000001</ele><time>2026-04-26T07:00:22.89Z</time></trkpt><trkpt lat="42.1981" lon="14.6227683"><ele>12.2</ele><time>2026-04-26T07:00:24.891Z</time></trkpt><trkpt lat="42.1981383" lon="14.6226283"><ele>12.799999999999999</ele><time>2026-04-26T07:00:26.891Z</time></trkpt><trkpt lat="42.19818" lon="14.6224917"><ele>13.399999999999999</ele><time>2026-04-26T07:00:28.891Z</time></trkpt><trkpt lat="42.1982233" lon="14.6223467"><ele>14.0</ele><time>2026-04-26T07:00:30.89Z</time></trkpt><trkpt lat="42.19826" lon="14.6222"><ele>12.5</ele><time>2026-04-26T07:00:32.89Z</time></trkpt><trkpt lat="42.1983033" lon="14.6220633"><ele>11.0</ele><time>2026-04-26T07:00:34.89Z</time></trkpt><trkpt lat="42.1983433" lon="14.6219183"><ele>9.5</ele><time>2026-04-26T07:00:36.89Z</time></trkpt><trkpt lat="42.1983833" lon="14.6217783"><ele>8.0</ele><time>2026-04-26T07:00:38.891Z</time></trkpt><trkpt lat="42.1984233" lon="14.62163"><ele>8.0</ele><time>2026-04-26T07:00:40.891Z</time></trkpt><trkpt lat="42.1984667" lon="14.621485"><ele>8.0</ele><time>2026-04-26T07:00:42.89Z</time></trkpt><trkpt lat="42.1985067" lon="14.6213417"><ele>8.0</ele><time>2026-04-26T07:00:44.891Z</time></trkpt><trkpt lat="42.1985433" lon="14.6212033"><ele>8.0</ele><time>2026-04-26T07:00:46.89Z</time></trkpt><trkpt lat="42.198585" lon="14.6210683"><ele>8.0</ele><time>2026-04-26T07:00:48.891Z</time></trkpt><trkpt lat="42.1986283" lon="14.6209317"><ele>8.200000000000001</ele><time>2026-04-26T07:00:50.891Z</time></trkpt><trkpt lat="42.19867" lon="14.6207883"><ele>8.4</ele><time>2026-04-26T07:00:52.891Z</time></trkpt><trkpt lat="42.1987083" lon="14.620655"><ele>8.600000000000001</ele><time>2026-04-26T07:00:54.891Z</time></trkpt><trkpt lat="42.1987467" lon="14.620515"><ele>8.8</ele><time>2026-04-26T07:00:56.891Z</time></trkpt><trkpt lat="42.19879" lon="14.6203783"><ele>9.0</ele><time>2026-04-26T07:00:58.891Z</time></trkpt><trkpt lat="42.1988333" lon="14.6202367"><ele>9.0</ele><time>2026-04-26T07:01:00.89Z</time></trkpt><trkpt lat="42.1988767" lon="14.6200933"><ele>9.0</ele><time>2026-04-26T07:01:02.891Z</time></trkpt><trkpt lat="42.19892" lon="14.6199517"><ele>9.0</ele><time>2026-04-26T07:01:04.891Z</time></trkpt><trkpt lat="42.1989633" lon="14.61981"><ele>9.0</ele><time>2026-04-26T07:01:06.891Z</time></trkpt><trkpt lat="42.1989983" lon="14.619665"><ele>7.25</ele><time>2026-04-26T07:01:08.89Z</time></trkpt><trkpt lat="42.19904" lon="14.6195167"><ele>5.5</ele><time>2026-04-26T07:01:10.891Z</time></trkpt><trkpt lat="42.1990833" lon="14.6193733"><ele>3.75</ele><time>2026-04-26T07:01:12.89Z</time></trkpt><trkpt lat="42.1991317" lon="14.619225"><ele>2.0</ele><time>2026-04-26T07:01:14.89Z</time></trkpt><trkpt lat="42.1991733" lon="14.61908"><ele>2.0</ele><time>2026-04-26T07:01:16.891Z</time></trkpt><trkpt lat="42.199215" lon="14.6189483"><ele>2.0</ele><time>2026-04-26T07:01:18.89Z</time></trkpt><trkpt lat="42.199265" lon="14.6188067"><ele>2.0</ele><time>2026-04-26T07:01:20.891Z</time></trkpt><trkpt lat="42.1993067" lon="14.618685"><ele>2.0</ele><time>2026-04-26T07:01:22.891Z</time></trkpt><trkpt lat="42.1993517" lon="14.6185517"><ele>2.0</ele><time>2026-04-26T07:01:24.891Z</time></trkpt><trkpt lat="42.1993983" lon="14.6184217"><ele>2.25</ele><time>2026-04-26T07:01:26.891Z</time></trkpt><trkpt lat="42.19944" lon="14.6182917"><ele>2.5</ele><time>2026-04-26T07:01:28.891Z</time></trkpt><trkpt lat="42.1994883" lon="14.6181467"><ele>2.75</ele><time>2026-04-26T07:01:30.89Z</time></trkpt><trkpt lat="42.19954" lon="14.6180017"><ele>3.0</ele><time>2026-04-26T07:01:32.89Z</time></trkpt><trkpt lat="42.1995867" lon="14.617865"><ele>3.5999999999999996</ele><time>2026-04-26T07:01:34.891Z</time></trkpt><trkpt lat="42.1996267" lon="14.6177417"><ele>4.199999999999999</ele><time>2026-04-26T07:01:36.891Z</time></trkpt><trkpt lat="42.1996733" lon="14.6176217"><ele>4.8</ele><time>2026-04-26T07:01:38.89Z</time></trkpt><trkpt lat="42.199725" lon="14.61747"><ele>5.3999999999999995</ele><time>2026-04-26T07:01:40.891Z</time></trkpt><trkpt lat="42.1997733" lon="14.617345"><ele>6.0</ele><time>2026-04-26T07:01:42.891Z</time></trkpt><trkpt lat="42.1998217" lon="14.61721"><ele>5.0</ele><time>2026-04-26T07:01:44.891Z</time></trkpt><trkpt lat="42.199865" lon="14.617075"><ele>3.9999999999999996</ele><time>2026-04-26T07:01:46.891Z</time></trkpt><trkpt lat="42.1999117" lon="14.616935"><ele>3.0</ele><time>2026-04-26T07:01:48.891Z</time></trkpt><trkpt lat="42.1999583" lon="14.6168"><ele>2.0</ele><time>2026-04-26T07:01:50.89Z</time></trkpt><trkpt lat="42.2000067" lon="14.6166717"><ele>1.0</ele><time>2026-04-26T07:01:52.89Z</time></trkpt><trkpt lat="42.2000533" lon="14.61653"><ele>1.0</ele><time>2026-04-26T07:01:54.89Z</time></trkpt><trkpt lat="42.2001" lon="14.6163883"><ele>1.0</ele><time>2026-04-26T07:01:56.89Z</time></trkpt><trkpt lat="42.2001467" lon="14.6162483"><ele>1.0</ele><time>2026-04-26T07:01:58.89Z</time></trkpt><trkpt lat="42.20019" lon="14.616105"><ele>1.0</ele><time>2026-04-26T07:02:00.891Z</time></trkpt><trkpt lat="42.200235" lon="14.6159667"><ele>1.6</ele><time>2026-04-26T07:02:02.891Z</time></trkpt><trkpt lat="42.200285" lon="14.6158283"><ele>2.2</ele><time>2026-04-26T07:02:04.891Z</time></trkpt><trkpt lat="42.2003333" lon="14.6156967"><ele>2.8000000000000003</ele><time>2026-04-26T07:02:06.891Z</time></trkpt><trkpt lat="42.2003933" lon="14.6155717"><ele>3.4000000000000004</ele><time>2026-04-26T07:02:08.891Z</time></trkpt><trkpt lat="42.200455" lon="14.6154517"><ele>4.0</ele><time>2026-04-26T07:02:10.891Z</time></trkpt><trkpt lat="42.2005167" lon="14.6153283"><ele>3.8000000000000003</ele><time>2026-04-26T07:02:12.89Z</time></trkpt><trkpt lat="42.2005783" lon="14.6152117"><ele>3.6000000000000005</ele><time>2026-04-26T07:02:14.89Z</time></trkpt><trkpt lat="42.200655" lon="14.61507"><ele>3.4</ele><time>2026-04-26T07:02:16.891Z</time></trkpt><trkpt lat="42.2006867" lon="14.6149933"><ele>3.2</ele><time>2026-04-26T07:02:17.891Z</time></trkpt><trkpt lat="42.20069" lon="14.6148517"><ele>3.0</ele><time>2026-04-26T07:02:19.89Z</time></trkpt><trkpt lat="42.2006717" lon="14.6147183"><ele>3.0</ele><time>2026-04-26T07:02:21.891Z</time></trkpt><trkpt lat="42.2006667" lon="14.6145933"><ele>3.0</ele><time>2026-04-26T07:02:23.891Z</time></trkpt><trkpt lat="42.2007017" lon="14.6144967"><ele>3.0</ele><time>2026-04-26T07:02:25.891Z</time></trkpt><trkpt lat="42.2007417" lon="14.6143783"><ele>3.0</ele><time>2026-04-26T07:02:27.891Z</time></trkpt><trkpt lat="42.2007867" lon="14.614245"><ele>3.0</ele><time>2026-04-26T07:02:29.891Z</time></trkpt><trkpt lat="42.2008317" lon="14.6141167"><ele>3.4</ele><time>2026-04-26T07:02:31.891Z</time></trkpt><trkpt lat="42.2008667" lon="14.6139733"><ele>3.8</ele><time>2026-04-26T07:02:33.891Z</time></trkpt><trkpt lat="42.2009017" lon="14.613825"><ele>4.2</ele><time>2026-04-26T07:02:35.89Z</time></trkpt><trkpt lat="42.200945" lon="14.613695"><ele>4.6</ele><time>2026-04-26T07:02:37.89Z</time></trkpt><trkpt lat="42.2009867" lon="14.6135517"><ele>5.0</ele><time>2026-04-26T07:02:39.891Z</time></trkpt><trkpt lat="42.2010333" lon="14.6134"><ele>5.25</ele><time>2026-04-26T07:02:41.891Z</time></trkpt><trkpt lat="42.20109" lon="14.6132583"><ele>5.5</ele><time>2026-04-26T07:02:43.891Z</time></trkpt><trkpt lat="42.2011333" lon="14.6131133"><ele>5.75</ele><time>2026-04-26T07:02:45.89Z</time></trkpt><trkpt lat="42.2011767" lon="14.612955"><ele>6.0</ele><time>2026-04-26T07:02:47.891Z</time></trkpt><trkpt lat="42.2012167" lon="14.6128083"><ele>6.0</ele><time>2026-04-26T07:02:49.891Z</time></trkpt><trkpt lat="42.2012417" lon="14.6127283"><ele>6.0</ele><time>2026-04-26T07:02:50.891Z</time></trkpt><trkpt lat="42.201285" lon="14.612575"><ele>6.0</ele><time>2026-04-26T07:02:52.89Z</time></trkpt><trkpt lat="42.2013317" lon="14.6124217"><ele>6.0</ele><time>2026-04-26T07:02:54.891Z</time></trkpt><trkpt lat="42.201355" lon="14.6123417"><ele>6.0</ele><time>2026-04-26T07:02:55.891Z</time></trkpt><trkpt lat="42.2013817" lon="14.6122633"><ele>6.0</ele><time>2026-04-26T07:02:56.89Z</time></trkpt><trkpt lat="42.20141" lon="14.6121867"><ele>6.0</ele><time>2026-04-26T07:02:57.89Z</time></trkpt><trkpt lat="42.2014517" lon="14.61204"><ele>6.0</ele><time>2026-04-26T07:02:59.891Z</time></trkpt><trkpt lat="42.20149" lon="14.6118917"><ele>6.0</ele><time>2026-04-26T07:03:01.89Z</time></trkpt><trkpt lat="42.2015333" lon="14.6117433"><ele>6.0</ele><time>2026-04-26T07:03:03.891Z</time></trkpt><trkpt lat="42.20158" lon="14.611605"><ele>5.8</ele><time>2026-04-26T07:03:05.891Z</time></trkpt><trkpt lat="42.2016317" lon="14.61146"><ele>5.6</ele><time>2026-04-26T07:03:07.891Z</time></trkpt><trkpt lat="42.2016767" lon="14.61133"><ele>5.4</ele><time>2026-04-26T07:03:09.891Z</time></trkpt><trkpt lat="42.2017183" lon="14.6112083"><ele>5.2</ele><time>2026-04-26T07:03:11.891Z</time></trkpt><trkpt lat="42.2017633" lon="14.61107"><ele>5.0</ele><time>2026-04-26T07:03:13.891Z</time></trkpt><trkpt lat="42.2018083" lon="14.6109283"><ele>5.0</ele><time>2026-04-26T07:03:15.891Z</time></trkpt><trkpt lat="42.2018517" lon="14.6108"><ele>5.0</ele><time>2026-04-26T07:03:17.891Z</time></trkpt><trkpt lat="42.2019" lon="14.61068"><ele>5.0</ele><time>2026-04-26T07:03:19.891Z</time></trkpt><trkpt lat="42.2019383" lon="14.61055"><ele>5.0</ele><time>2026-04-26T07:03:21.891Z</time></trkpt><trkpt lat="42.2019533" lon="14.610395"><ele>5.0</ele><time>2026-04-26T07:03:23.891Z</time></trkpt><trkpt lat="42.2019617" lon="14.6102517"><ele>4.666666666666667</ele><time>2026-04-26T07:03:25.891Z</time></trkpt><trkpt lat="42.2019617" lon="14.6101133"><ele>4.333333333333334</ele><time>2026-04-26T07:03:27.89Z</time></trkpt><trkpt lat="42.2019717" lon="14.6100017"><ele>4.0</ele><time>2026-04-26T07:03:29.89Z</time></trkpt><trkpt lat="42.20199" lon="14.6099"><ele>3.666666666666667</ele><time>2026-04-26T07:03:31.89Z</time></trkpt><trkpt lat="42.202025" lon="14.6097783"><ele>3.3333333333333335</ele><time>2026-04-26T07:03:34.891Z</time></trkpt><trkpt lat="42.2020617" lon="14.6096883"><ele>3.0</ele><time>2026-04-26T07:03:36.891Z</time></trkpt><trkpt lat="42.2021067" lon="14.609575"><ele>3.0</ele><time>2026-04-26T07:03:38.89Z</time></trkpt><trkpt lat="42.2021533" lon="14.60946"><ele>3.0</ele><time>2026-04-26T07:03:40.89Z</time></trkpt><trkpt lat="42.2022033" lon="14.609335"><ele>3.0</ele><time>2026-04-26T07:03:42.891Z</time></trkpt><trkpt lat="42.2022483" lon="14.6092"><ele>3.0</ele><time>2026-04-26T07:03:44.891Z</time></trkpt><trkpt lat="42.2022983" lon="14.6090633"><ele>3.0</ele><time>2026-04-26T07:03:46.891Z</time></trkpt><trkpt lat="42.2023533" lon="14.6089317"><ele>3.25</ele><time>2026-04-26T07:03:48.891Z</time></trkpt><trkpt lat="42.2024067" lon="14.6087917"><ele>3.5</ele><time>2026-04-26T07:03:50.891Z</time></trkpt><trkpt lat="42.2024633" lon="14.60866"><ele>3.75</ele><time>2026-04-26T07:03:52.891Z</time></trkpt><trkpt lat="42.202515" lon="14.6085283"><ele>4.0</ele><time>2026-04-26T07:03:54.89Z</time></trkpt><trkpt lat="42.2025683" lon="14.6083883"><ele>4.0</ele><time>2026-04-26T07:03:56.891Z</time></trkpt><trkpt lat="42.2026183" lon="14.60826"><ele>4.0</ele><time>2026-04-26T07:03:58.891Z</time></trkpt><trkpt lat="42.202675" lon="14.6081283"><ele>4.0</ele><time>2026-04-26T07:04:00.891Z</time></trkpt><trkpt lat="42.20273" lon="14.608005"><ele>4.0</ele><time>2026-04-26T07:04:02.891Z</time></trkpt><trkpt lat="42.202795" lon="14.6078667"><ele>4.0</ele><time>2026-04-26T07:04:04.891Z</time></trkpt><trkpt lat="42.202855" lon="14.6077367"><ele>3.75</ele><time>2026-04-26T07:04:06.891Z</time></trkpt><trkpt lat="42.202915" lon="14.6076117"><ele>3.5</ele><time>2026-04-26T07:04:08.891Z</time></trkpt><trkpt lat="42.2029717" lon="14.60747"><ele>3.25</ele><time>2026-04-26T07:04:10.89Z</time></trkpt><trkpt lat="42.20303" lon="14.60733"><ele>3.0</ele><time>2026-04-26T07:04:12.89Z</time></trkpt><trkpt lat="42.20309" lon="14.6072017"><ele>3.0</ele><time>2026-04-26T07:04:14.891Z</time></trkpt><trkpt lat="42.203145" lon="14.6070667"><ele>3.0</ele><time>2026-04-26T07:04:16.891Z</time></trkpt><trkpt lat="42.203205" lon="14.60693"><ele>3.0</ele><time>2026-04-26T07:04:18.891Z</time></trkpt><trkpt lat="42.2032683" lon="14.6067883"><ele>3.0</ele><time>2026-04-26T07:04:20.89Z</time></trkpt><trkpt lat="42.2033283" lon="14.6066567"><ele>2.5</ele><time>2026-04-26T07:04:22.89Z</time></trkpt><trkpt lat="42.20339" lon="14.6065233"><ele>2.0</ele><time>2026-04-26T07:04:24.89Z</time></trkpt><trkpt lat="42.2034467" lon="14.6063933"><ele>1.5</ele><time>2026-04-26T07:04:26.89Z</time></trkpt><trkpt lat="42.2035083" lon="14.6062533"><ele>1.0</ele><time>2026-04-26T07:04:28.891Z</time></trkpt><trkpt lat="42.203565" lon="14.606115"><ele>0.75</ele><time>2026-04-26T07:04:30.891Z</time></trkpt><trkpt lat="42.2036183" lon="14.60598"><ele>0.5</ele><time>2026-04-26T07:04:32.891Z</time></trkpt><trkpt lat="42.20368" lon="14.6058517"><ele>0.25</ele><time>2026-04-26T07:04:34.89Z</time></trkpt><trkpt lat="42.2037383" lon="14.6057167"><ele>0.0</ele><time>2026-04-26T07:04:36.891Z</time></trkpt><trkpt lat="42.2037983" lon="14.6055783"><ele>0.0</ele><time>2026-04-26T07:04:38.891Z</time></trkpt><trkpt lat="42.2038617" lon="14.6054383"><ele>0.0</ele><time>2026-04-26T07:04:40.89Z</time></trkpt><trkpt lat="42.203925" lon="14.6052933"><ele>0.0</ele><time>2026-04-26T07:04:42.891Z</time></trkpt><trkpt lat="42.203985" lon="14.60515"><ele>0.0</ele><time>2026-04-26T07:04:44.891Z</time></trkpt><trkpt lat="42.2040433" lon="14.6050133"><ele>0.0</ele><time>2026-04-26T07:04:46.891Z</time></trkpt><trkpt lat="42.2040983" lon="14.6048817"><ele>0.0</ele><time>2026-04-26T07:04:48.891Z</time></trkpt><trkpt lat="42.2041583" lon="14.604745"><ele>0.0</ele><time>2026-04-26T07:04:50.891Z</time></trkpt><trkpt lat="42.20422" lon="14.604605"><ele>0.0</ele><time>2026-04-26T07:04:52.89Z</time></trkpt><trkpt lat="42.2042783" lon="14.6044717"><ele>0.0</ele><time>2026-04-26T07:04:54.891Z</time></trkpt><trkpt lat="42.2043417" lon="14.6043317"><ele>0.0</ele><time>2026-04-26T07:04:56.891Z</time></trkpt><trkpt lat="42.2044" lon="14.6041967"><ele>0.0</ele><time>2026-04-26T07:04:58.891Z</time></trkpt><trkpt lat="42.2044583" lon="14.6040533"><ele>0.0</ele><time>2026-04-26T07:05:00.891Z</time></trkpt><trkpt lat="42.2045167" lon="14.6039183"><ele>0.0</ele><time>2026-04-26T07:05:02.891Z</time></trkpt><trkpt lat="42.2045767" lon="14.603785"><ele>0.0</ele><time>2026-04-26T07:05:04.891Z</time></trkpt><trkpt lat="42.204645" lon="14.6036817"><ele>0.0</ele><time>2026-04-26T07:05:06.891Z</time></trkpt><trkpt lat="42.20472" lon="14.6035633"><ele>0.0</ele><time>2026-04-26T07:05:08.89Z</time></trkpt><trkpt lat="42.204775" lon="14.6034533"><ele>0.0</ele><time>2026-04-26T07:05:10.89Z</time></trkpt><trkpt lat="42.20484" lon="14.603315"><ele>0.6666666666666666</ele><time>2026-04-26T07:05:12.891Z</time></trkpt><trkpt lat="42.2048733" lon="14.60323"><ele>1.3333333333333333</ele><time>2026-04-26T07:05:13.89Z</time></trkpt><trkpt lat="42.2049067" lon="14.603155"><ele>2.0</ele><time>2026-04-26T07:05:14.891Z</time></trkpt><trkpt lat="42.20494" lon="14.6030817"><ele>2.6666666666666665</ele><time>2026-04-26T07:05:15.891Z</time></trkpt><trkpt lat="42.2049967" lon="14.6029367"><ele>3.333333333333333</ele><time>2026-04-26T07:05:17.891Z</time></trkpt><trkpt lat="42.2050583" lon="14.6027967"><ele>4.0</ele><time>2026-04-26T07:05:19.89Z</time></trkpt><trkpt lat="42.2051167" lon="14.6026683"><ele>4.75</ele><time>2026-04-26T07:05:21.89Z</time></trkpt><trkpt lat="42.2051817" lon="14.602535"><ele>5.5</ele><time>2026-04-26T07:05:23.89Z</time></trkpt><trkpt lat="42.20524" lon="14.6023917"><ele>6.25</ele><time>2026-04-26T07:05:25.891Z</time></trkpt><trkpt lat="42.205295" lon="14.602265"><ele>7.0</ele><time>2026-04-26T07:05:27.891Z</time></trkpt><trkpt lat="42.20535" lon="14.602135"><ele>7.0</ele><time>2026-04-26T07:05:29.891Z</time></trkpt><trkpt lat="42.20541" lon="14.6020033"><ele>7.0</ele><time>2026-04-26T07:05:31.89Z</time></trkpt><trkpt lat="42.2054683" lon="14.6018817"><ele>7.0</ele><time>2026-04-26T07:05:33.891Z</time></trkpt><trkpt lat="42.2055267" lon="14.6017417"><ele>7.0</ele><time>2026-04-26T07:05:35.891Z</time></trkpt><trkpt lat="42.205585" lon="14.60161"><ele>7.199999999999999</ele><time>2026-04-26T07:05:37.891Z</time></trkpt><trkpt lat="42.2056167" lon="14.6015317"><ele>7.3999999999999995</ele><time>2026-04-26T07:05:38.891Z</time></trkpt><trkpt lat="42.2056817" lon="14.6013833"><ele>7.6000000000000005</ele><time>2026-04-26T07:05:40.891Z</time></trkpt><trkpt lat="42.20575" lon="14.60123"><ele>7.800000000000001</ele><time>2026-04-26T07:05:42.891Z</time></trkpt><trkpt lat="42.2058083" lon="14.6010983"><ele>8.0</ele><time>2026-04-26T07:05:44.89Z</time></trkpt><trkpt lat="42.2058717" lon="14.60096"><ele>8.0</ele><time>2026-04-26T07:05:46.891Z</time></trkpt><trkpt lat="42.205935" lon="14.600825"><ele>8.0</ele><time>2026-04-26T07:05:48.89Z</time></trkpt><trkpt lat="42.20599" lon="14.60068"><ele>8.0</ele><time>2026-04-26T07:05:50.89Z</time></trkpt><trkpt lat="42.206045" lon="14.6005383"><ele>8.0</ele><time>2026-04-26T07:05:52.891Z</time></trkpt><trkpt lat="42.2061133" lon="14.60041"><ele>8.600000000000001</ele><time>2026-04-26T07:05:54.891Z</time></trkpt><trkpt lat="42.206175" lon="14.6002767"><ele>9.200000000000001</ele><time>2026-04-26T07:05:56.89Z</time></trkpt><trkpt lat="42.20621" lon="14.6002033"><ele>9.8</ele><time>2026-04-26T07:05:57.891Z</time></trkpt><trkpt lat="42.2062717" lon="14.600065"><ele>10.4</ele><time>2026-04-26T07:05:59.891Z</time></trkpt><trkpt lat="42.2063317" lon="14.5999183"><ele>11.0</ele><time>2026-04-26T07:06:01.891Z</time></trkpt><trkpt lat="42.2063967" lon="14.599775"><ele>11.0</ele><time>2026-04-26T07:06:03.891Z</time></trkpt><trkpt lat="42.2064567" lon="14.5996433"><ele>11.0</ele><time>2026-04-26T07:06:05.89Z</time></trkpt><trkpt lat="42.2065167" lon="14.599505"><ele>11.0</ele><time>2026-04-26T07:06:07.891Z</time></trkpt><trkpt lat="42.2065717" lon="14.599365"><ele>11.0</ele><time>2026-04-26T07:06:09.89Z</time></trkpt><trkpt lat="42.2066283" lon="14.59923"><ele>10.4</ele><time>2026-04-26T07:06:11.89Z</time></trkpt><trkpt lat="42.206665" lon="14.59916"><ele>9.8</ele><time>2026-04-26T07:06:12.891Z</time></trkpt><trkpt lat="42.2067183" lon="14.5990033"><ele>9.200000000000001</ele><time>2026-04-26T07:06:14.89Z</time></trkpt><trkpt lat="42.2067817" lon="14.59887"><ele>8.600000000000001</ele><time>2026-04-26T07:06:16.89Z</time></trkpt><trkpt lat="42.2068367" lon="14.59874"><ele>8.0</ele><time>2026-04-26T07:06:18.891Z</time></trkpt><trkpt lat="42.206905" lon="14.5986"><ele>9.75</ele><time>2026-04-26T07:06:20.891Z</time></trkpt><trkpt lat="42.206975" lon="14.5984667"><ele>11.5</ele><time>2026-04-26T07:06:22.891Z</time></trkpt><trkpt lat="42.207035" lon="14.598325"><ele>13.25</ele><time>2026-04-26T07:06:24.89Z</time></trkpt><trkpt lat="42.2070967" lon="14.5981983"><ele>15.0</ele><time>2026-04-26T07:06:26.891Z</time></trkpt><trkpt lat="42.20715" lon="14.59806"><ele>15.0</ele><time>2026-04-26T07:06:28.891Z</time></trkpt><trkpt lat="42.2072" lon="14.5979133"><ele>15.0</ele><time>2026-04-26T07:06:30.89Z</time></trkpt><trkpt lat="42.2072617" lon="14.5977867"><ele>15.0</ele><time>2026-04-26T07:06:32.891Z</time></trkpt><trkpt lat="42.207325" lon="14.5976517"><ele>15.0</ele><time>2026-04-26T07:06:34.891Z</time></trkpt><trkpt lat="42.2073867" lon="14.5975167"><ele>14.8</ele><time>2026-04-26T07:06:36.891Z</time></trkpt><trkpt lat="42.2074217" lon="14.597445"><ele>14.6</ele><time>2026-04-26T07:06:37.891Z</time></trkpt><trkpt lat="42.2074817" lon="14.597305"><ele>14.399999999999999</ele><time>2026-04-26T07:06:39.891Z</time></trkpt><trkpt lat="42.207535" lon="14.5971517"><ele>14.2</ele><time>2026-04-26T07:06:41.891Z</time></trkpt><trkpt lat="42.20758" lon="14.5970133"><ele>14.0</ele><time>2026-04-26T07:06:43.891Z</time></trkpt><trkpt lat="42.207625" lon="14.59686"><ele>14.0</ele><time>2026-04-26T07:06:45.891Z</time></trkpt><trkpt lat="42.207675" lon="14.596715"><ele>14.0</ele><time>2026-04-26T07:06:47.891Z</time></trkpt><trkpt lat="42.2077367" lon="14.5965717"><ele>14.0</ele><time>2026-04-26T07:06:49.891Z</time></trkpt><trkpt lat="42.2078017" lon="14.596435"><ele>14.0</ele><time>2026-04-26T07:06:51.89Z</time></trkpt><trkpt lat="42.2078717" lon="14.5963083"><ele>14.0</ele><time>2026-04-26T07:06:53.89Z</time></trkpt><trkpt lat="42.2079317" lon="14.5961783"><ele>14.0</ele><time>2026-04-26T07:06:55.891Z</time></trkpt><trkpt lat="42.207985" lon="14.5960533"><ele>14.0</ele><time>2026-04-26T07:06:57.89Z</time></trkpt><trkpt lat="42.2080483" lon="14.5959233"><ele>14.0</ele><time>2026-04-26T07:06:59.891Z</time></trkpt><trkpt lat="42.20811" lon="14.5957917"><ele>14.0</ele><time>2026-04-26T07:07:01.89Z</time></trkpt><trkpt lat="42.2081783" lon="14.59566"><ele>14.0</ele><time>2026-04-26T07:07:03.89Z</time></trkpt><trkpt lat="42.2082417" lon="14.5955383"><ele>14.0</ele><time>2026-04-26T07:07:05.89Z</time></trkpt><trkpt lat="42.2083117" lon="14.5954083"><ele>14.0</ele><time>2026-04-26T07:07:07.891Z</time></trkpt><trkpt lat="42.2083817" lon="14.5952767"><ele>14.0</ele><time>2026-04-26T07:07:09.89Z</time></trkpt><trkpt lat="42.20845" lon="14.5951417"><ele>14.0</ele><time>2026-04-26T07:07:11.891Z</time></trkpt><trkpt lat="42.2085233" lon="14.595015"><ele>14.0</ele><time>2026-04-26T07:07:13.891Z</time></trkpt><trkpt lat="42.2085917" lon="14.5948867"><ele>14.0</ele><time>2026-04-26T07:07:15.89Z</time></trkpt><trkpt lat="42.208665" lon="14.5947567"><ele>14.0</ele><time>2026-04-26T07:07:17.891Z</time></trkpt><trkpt lat="42.2087367" lon="14.594635"><ele>14.0</ele><time>2026-04-26T07:07:19.89Z</time></trkpt><trkpt lat="42.2088117" lon="14.5945067"><ele>14.0</ele><time>2026-04-26T07:07:21.891Z</time></trkpt><trkpt lat="42.2088833" lon="14.5943817"><ele>14.0</ele><time>2026-04-26T07:07:23.89Z</time></trkpt><trkpt lat="42.2089517" lon="14.594265"><ele>12.0</ele><time>2026-04-26T07:07:25.891Z</time></trkpt><trkpt lat="42.209025" lon="14.5941467"><ele>10.0</ele><time>2026-04-26T07:07:27.891Z</time></trkpt><trkpt lat="42.2091033" lon="14.594025"><ele>8.0</ele><time>2026-04-26T07:07:29.891Z</time></trkpt><trkpt lat="42.20918" lon="14.5939083"><ele>6.0</ele><time>2026-04-26T07:07:31.891Z</time></trkpt><trkpt lat="42.2092517" lon="14.59379"><ele>7.4</ele><time>2026-04-26T07:07:33.89Z</time></trkpt><trkpt lat="42.2093233" lon="14.5936683"><ele>8.8</ele><time>2026-04-26T07:07:35.89Z</time></trkpt><trkpt lat="42.2093883" lon="14.5935567"><ele>10.200000000000001</ele><time>2026-04-26T07:07:37.891Z</time></trkpt><trkpt lat="42.2094567" lon="14.5934433"><ele>11.6</ele><time>2026-04-26T07:07:39.89Z</time></trkpt><trkpt lat="42.2095167" lon="14.59333"><ele>13.0</ele><time>2026-04-26T07:07:41.891Z</time></trkpt><trkpt lat="42.2095833" lon="14.59321"><ele>13.0</ele><time>2026-04-26T07:07:43.891Z</time></trkpt><trkpt lat="42.2096533" lon="14.5930883"><ele>13.0</ele><time>2026-04-26T07:07:45.891Z</time></trkpt><trkpt lat="42.209725" lon="14.5929667"><ele>13.0</ele><time>2026-04-26T07:07:47.891Z</time></trkpt><trkpt lat="42.2097917" lon="14.5928417"><ele>13.0</ele><time>2026-04-26T07:07:49.89Z</time></trkpt><trkpt lat="42.209865" lon="14.59271"><ele>11.8</ele><time>2026-04-26T07:07:51.891Z</time></trkpt><trkpt lat="42.20994" lon="14.5925783"><ele>10.600000000000001</ele><time>2026-04-26T07:07:53.891Z</time></trkpt><trkpt lat="42.2099767" lon="14.5925083"><ele>9.399999999999999</ele><time>2026-04-26T07:07:54.891Z</time></trkpt><trkpt lat="42.210015" lon="14.5924367"><ele>8.2</ele><time>2026-04-26T07:07:55.89Z</time></trkpt><trkpt lat="42.21008" lon="14.5923033"><ele>7.0</ele><time>2026-04-26T07:07:57.891Z</time></trkpt><trkpt lat="42.21014" lon="14.5921717"><ele>7.0</ele><time>2026-04-26T07:07:59.891Z</time></trkpt><trkpt lat="42.2101967" lon="14.5920383"><ele>7.0</ele><time>2026-04-26T07:08:01.891Z</time></trkpt><trkpt lat="42.210255" lon="14.59191"><ele>7.0</ele><time>2026-04-26T07:08:03.891Z</time></trkpt><trkpt lat="42.2103167" lon="14.5917817"><ele>7.0</ele><time>2026-04-26T07:08:05.891Z</time></trkpt><trkpt lat="42.2103767" lon="14.591655"><ele>9.0</ele><time>2026-04-26T07:08:07.891Z</time></trkpt><trkpt lat="42.2104383" lon="14.5915167"><ele>11.0</ele><time>2026-04-26T07:08:09.89Z</time></trkpt><trkpt lat="42.210495" lon="14.5913817"><ele>13.0</ele><time>2026-04-26T07:08:11.891Z</time></trkpt><trkpt lat="42.210545" lon="14.5912467"><ele>15.0</ele><time>2026-04-26T07:08:13.89Z</time></trkpt><trkpt lat="42.2106033" lon="14.5911133"><ele>13.0</ele><time>2026-04-26T07:08:15.891Z</time></trkpt><trkpt lat="42.21066" lon="14.5909717"><ele>11.0</ele><time>2026-04-26T07:08:17.891Z</time></trkpt><trkpt lat="42.2106917" lon="14.590895"><ele>9.0</ele><time>2026-04-26T07:08:18.891Z</time></trkpt><trkpt lat="42.210745" lon="14.5907617"><ele>7.0</ele><time>2026-04-26T07:08:20.891Z</time></trkpt><trkpt lat="42.2107967" lon="14.5906233"><ele>5.0</ele><time>2026-04-26T07:08:22.891Z</time></trkpt><trkpt lat="42.2108517" lon="14.5904867"><ele>5.0</ele><time>2026-04-26T07:08:24.891Z</time></trkpt><trkpt lat="42.2109033" lon="14.590355"><ele>5.0</ele><time>2026-04-26T07:08:26.89Z</time></trkpt><trkpt lat="42.2109533" lon="14.59022"><ele>5.0</ele><time>2026-04-26T07:08:28.891Z</time></trkpt><trkpt lat="42.2110033" lon="14.5900883"><ele>5.0</ele><time>2026-04-26T07:08:30.891Z</time></trkpt><trkpt lat="42.2110533" lon="14.5899583"><ele>5.0</ele><time>2026-04-26T07:08:32.891Z</time></trkpt><trkpt lat="42.21111" lon="14.58983"><ele>7.25</ele><time>2026-04-26T07:08:34.89Z</time></trkpt><trkpt lat="42.2111617" lon="14.589695"><ele>9.5</ele><time>2026-04-26T07:08:36.891Z</time></trkpt><trkpt lat="42.211215" lon="14.589575"><ele>11.75</ele><time>2026-04-26T07:08:38.891Z</time></trkpt><trkpt lat="42.211275" lon="14.5894283"><ele>14.0</ele><time>2026-04-26T07:08:40.89Z</time></trkpt><trkpt lat="42.2113333" lon="14.5892917"><ele>14.2</ele><time>2026-04-26T07:08:42.891Z</time></trkpt><trkpt lat="42.2113917" lon="14.5891583"><ele>14.399999999999999</ele><time>2026-04-26T07:08:44.89Z</time></trkpt><trkpt lat="42.2114483" lon="14.58902"><ele>14.6</ele><time>2026-04-26T07:08:46.89Z</time></trkpt><trkpt lat="42.2115033" lon="14.5888967"><ele>14.8</ele><time>2026-04-26T07:08:48.89Z</time></trkpt><trkpt lat="42.2115617" lon="14.5887783"><ele>15.0</ele><time>2026-04-26T07:08:50.891Z</time></trkpt><trkpt lat="42.21162" lon="14.58865"><ele>15.0</ele><time>2026-04-26T07:08:52.891Z</time></trkpt><trkpt lat="42.2116883" lon="14.5885283"><ele>15.0</ele><time>2026-04-26T07:08:54.891Z</time></trkpt><trkpt lat="42.21175" lon="14.5884017"><ele>15.0</ele><time>2026-04-26T07:08:56.89Z</time></trkpt><trkpt lat="42.21181" lon="14.588275"><ele>15.0</ele><time>2026-04-26T07:08:58.891Z</time></trkpt><trkpt lat="42.2118617" lon="14.5881417"><ele>15.0</ele><time>2026-04-26T07:09:00.89Z</time></trkpt><trkpt lat="42.2119233" lon="14.5880017"><ele>15.0</ele><time>2026-04-26T07:09:02.89Z</time></trkpt><trkpt lat="42.2119933" lon="14.5878633"><ele>15.0</ele><time>2026-04-26T07:09:04.891Z</time></trkpt><trkpt lat="42.2120283" lon="14.5877883"><ele>15.0</ele><time>2026-04-26T07:09:05.891Z</time></trkpt><trkpt lat="42.21209" lon="14.5876483"><ele>15.0</ele><time>2026-04-26T07:09:07.891Z</time></trkpt><trkpt lat="42.21216" lon="14.5875083"><ele>15.0</ele><time>2026-04-26T07:09:09.891Z</time></trkpt><trkpt lat="42.2122217" lon="14.587385"><ele>16.25</ele><time>2026-04-26T07:09:11.891Z</time></trkpt><trkpt lat="42.212285" lon="14.5872567"><ele>17.5</ele><time>2026-04-26T07:09:13.891Z</time></trkpt><trkpt lat="42.2123467" lon="14.58713"><ele>18.75</ele><time>2026-04-26T07:09:15.891Z</time></trkpt><trkpt lat="42.2124117" lon="14.586995"><ele>20.0</ele><time>2026-04-26T07:09:17.891Z</time></trkpt><trkpt lat="42.2124733" lon="14.5868667"><ele>17.25</ele><time>2026-04-26T07:09:19.891Z</time></trkpt><trkpt lat="42.2125383" lon="14.586745"><ele>14.5</ele><time>2026-04-26T07:09:21.891Z</time></trkpt><trkpt lat="42.2126033" lon="14.5866083"><ele>11.75</ele><time>2026-04-26T07:09:23.89Z</time></trkpt><trkpt lat="42.2126733" lon="14.5864733"><ele>9.0</ele><time>2026-04-26T07:09:25.891Z</time></trkpt><trkpt lat="42.212735" lon="14.58634"><ele>9.0</ele><time>2026-04-26T07:09:27.891Z</time></trkpt><trkpt lat="42.2127967" lon="14.5862033"><ele>9.0</ele><time>2026-04-26T07:09:29.891Z</time></trkpt><trkpt lat="42.21286" lon="14.586065"><ele>9.0</ele><time>2026-04-26T07:09:31.891Z</time></trkpt><trkpt lat="42.212925" lon="14.5859333"><ele>9.0</ele><time>2026-04-26T07:09:33.891Z</time></trkpt><trkpt lat="42.2129917" lon="14.5858017"><ele>8.25</ele><time>2026-04-26T07:09:35.891Z</time></trkpt><trkpt lat="42.2130533" lon="14.58567"><ele>7.5</ele><time>2026-04-26T07:09:37.891Z</time></trkpt><trkpt lat="42.2131217" lon="14.5855417"><ele>6.75</ele><time>2026-04-26T07:09:39.891Z</time></trkpt><trkpt lat="42.2131817" lon="14.5854117"><ele>6.0</ele><time>2026-04-26T07:09:41.891Z</time></trkpt><trkpt lat="42.2132533" lon="14.5852783"><ele>7.5</ele><time>2026-04-26T07:09:43.891Z</time></trkpt><trkpt lat="42.21332" lon="14.58515"><ele>9.0</ele><time>2026-04-26T07:09:45.891Z</time></trkpt><trkpt lat="42.2133867" lon="14.5850217"><ele>10.5</ele><time>2026-04-26T07:09:47.891Z</time></trkpt><trkpt lat="42.2134583" lon="14.5848983"><ele>12.0</ele><time>2026-04-26T07:09:49.891Z</time></trkpt><trkpt lat="42.2135317" lon="14.5847767"><ele>12.0</ele><time>2026-04-26T07:09:51.89Z</time></trkpt><trkpt lat="42.2136033" lon="14.5846533"><ele>12.0</ele><time>2026-04-26T07:09:53.89Z</time></trkpt><trkpt lat="42.213675" lon="14.5845367"><ele>12.0</ele><time>2026-04-26T07:09:55.891Z</time></trkpt><trkpt lat="42.2137517" lon="14.5844067"><ele>12.0</ele><time>2026-04-26T07:09:57.891Z</time></trkpt><trkpt lat="42.2138217" lon="14.584285"><ele>10.75</ele><time>2026-04-26T07:09:59.89Z</time></trkpt><trkpt lat="42.2139033" lon="14.5841667"><ele>9.5</ele><time>2026-04-26T07:10:01.89Z</time></trkpt><trkpt lat="42.213975" lon="14.58405"><ele>8.25</ele><time>2026-04-26T07:10:03.89Z</time></trkpt><trkpt lat="42.21405" lon="14.5839283"><ele>7.0</ele><time>2026-04-26T07:10:05.89Z</time></trkpt><trkpt lat="42.2141233" lon="14.5838133"><ele>7.0</ele><time>2026-04-26T07:10:07.891Z</time></trkpt><trkpt lat="42.2142017" lon="14.583695"><ele>7.0</ele><time>2026-04-26T07:10:09.89Z</time></trkpt><trkpt lat="42.2142783" lon="14.5835933"><ele>7.0</ele><time>2026-04-26T07:10:11.891Z</time></trkpt><trkpt lat="42.2143533" lon="14.5834717"><ele>7.0</ele><time>2026-04-26T07:10:13.891Z</time></trkpt><trkpt lat="42.2144233" lon="14.583355"><ele>8.6</ele><time>2026-04-26T07:10:15.89Z</time></trkpt><trkpt lat="42.2144967" lon="14.5832383"><ele>10.2</ele><time>2026-04-26T07:10:17.891Z</time></trkpt><trkpt lat="42.21456" lon="14.58312"><ele>11.8</ele><time>2026-04-26T07:10:19.89Z</time></trkpt><trkpt lat="42.21462" lon="14.5830167"><ele>13.4</ele><time>2026-04-26T07:10:21.891Z</time></trkpt><trkpt lat="42.2146783" lon="14.5829233"><ele>15.0</ele><time>2026-04-26T07:10:23.891Z</time></trkpt><trkpt lat="42.2147333" lon="14.5828217"><ele>15.666666666666666</ele><time>2026-04-26T07:10:25.891Z</time></trkpt><trkpt lat="42.2147817" lon="14.5827267"><ele>16.333333333333332</ele><time>2026-04-26T07:10:27.89Z</time></trkpt><trkpt lat="42.214825" lon="14.5826517"><ele>17.0</ele><time>2026-04-26T07:10:29.89Z</time></trkpt><trkpt lat="42.214875" lon="14.582545"><ele>17.666666666666664</ele><time>2026-04-26T07:10:32.891Z</time></trkpt><trkpt lat="42.214805" lon="14.582515"><ele>18.333333333333332</ele><time>2026-04-26T07:10:37.891Z</time></trkpt><trkpt lat="42.2147267" lon="14.5825183"><ele>19.0</ele><time>2026-04-26T07:10:40.89Z</time></trkpt><trkpt lat="42.2146533" lon="14.5824567"><ele>19.0</ele><time>2026-04-26T07:10:43.89Z</time></trkpt><trkpt lat="42.21457" lon="14.5824167"><ele>19.0</ele><time>2026-04-26T07:10:46.89Z</time></trkpt><trkpt lat="42.2144983" lon="14.582365"><ele>19.0</ele><time>2026-04-26T07:10:49.89Z</time></trkpt><trkpt lat="42.2144333" lon="14.582335"><ele>19.0</ele><time>2026-04-26T07:10:53.89Z</time></trkpt><trkpt lat="42.2143533" lon="14.5823517"><ele>19.0</ele><time>2026-04-26T07:10:56.89Z</time></trkpt><trkpt lat="42.2142917" lon="14.5823783"><ele>19.0</ele><time>2026-04-26T07:10:58.891Z</time></trkpt><trkpt lat="42.21423" lon="14.5824533"><ele>19.0</ele><time>2026-04-26T07:11:01.891Z</time></trkpt><trkpt lat="42.2142083" lon="14.5823567"><ele>19.0</ele><time>2026-04-26T07:11:08.89Z</time></trkpt><trkpt lat="42.2142467" lon="14.5822733"><ele>19.0</ele><time>2026-04-26T07:11:10.89Z</time></trkpt><trkpt lat="42.2142917" lon="14.5821883"><ele>19.0</ele><time>2026-04-26T07:11:12.891Z</time></trkpt><trkpt lat="42.21433" lon="14.5820883"><ele>19.0</ele><time>2026-04-26T07:11:14.891Z</time></trkpt><trkpt lat="42.2143717" lon="14.582"><ele>19.0</ele><time>2026-04-26T07:11:16.89Z</time></trkpt><trkpt lat="42.2144267" lon="14.5819017"><ele>20.2</ele><time>2026-04-26T07:11:18.89Z</time></trkpt><trkpt lat="42.2144817" lon="14.5817983"><ele>21.4</ele><time>2026-04-26T07:11:20.891Z</time></trkpt><trkpt lat="42.2145433" lon="14.5816917"><ele>22.6</ele><time>2026-04-26T07:11:22.89Z</time></trkpt><trkpt lat="42.2146" lon="14.581585"><ele>23.8</ele><time>2026-04-26T07:11:24.891Z</time></trkpt><trkpt lat="42.214655" lon="14.58147"><ele>25.0</ele><time>2026-04-26T07:11:26.891Z</time></trkpt><trkpt lat="42.2147133" lon="14.5813617"><ele>25.0</ele><time>2026-04-26T07:11:28.891Z</time></trkpt><trkpt lat="42.2147667" lon="14.5812483"><ele>25.0</ele><time>2026-04-26T07:11:30.891Z</time></trkpt><trkpt lat="42.21482" lon="14.581125"><ele>25.0</ele><time>2026-04-26T07:11:32.89Z</time></trkpt><trkpt lat="42.2148833" lon="14.5810133"><ele>25.0</ele><time>2026-04-26T07:11:34.891Z</time></trkpt><trkpt lat="42.2149417" lon="14.580905"><ele>25.0</ele><time>2026-04-26T07:11:36.891Z</time></trkpt><trkpt lat="42.2150033" lon="14.5807883"><ele>24.6</ele><time>2026-04-26T07:11:38.89Z</time></trkpt><trkpt lat="42.2150617" lon="14.58067"><ele>24.2</ele><time>2026-04-26T07:11:40.891Z</time></trkpt><trkpt lat="42.2151167" lon="14.5805483"><ele>23.799999999999997</ele><time>2026-04-26T07:11:42.891Z</time></trkpt><trkpt lat="42.2151717" lon="14.5804367"><ele>23.4</ele><time>2026-04-26T07:11:44.891Z</time></trkpt><trkpt lat="42.2152317" lon="14.580315"><ele>23.0</ele><time>2026-04-26T07:11:46.89Z</time></trkpt><trkpt lat="42.215295" lon="14.580195"><ele>23.0</ele><time>2026-04-26T07:11:48.89Z</time></trkpt><trkpt lat="42.2153583" lon="14.58008"><ele>23.0</ele><time>2026-04-26T07:11:50.89Z</time></trkpt><trkpt lat="42.215425" lon="14.5799617"><ele>23.0</ele><time>2026-04-26T07:11:52.89Z</time></trkpt><trkpt lat="42.215485" lon="14.57984"><ele>23.0</ele><time>2026-04-26T07:11:54.89Z</time></trkpt><trkpt lat="42.2155483" lon="14.5797133"><ele>23.0</ele><time>2026-04-26T07:11:56.89Z</time></trkpt><trkpt lat="42.2156133" lon="14.5795883"><ele>22.25</ele><time>2026-04-26T07:11:58.891Z</time></trkpt><trkpt lat="42.215675" lon="14.5794483"><ele>21.5</ele><time>2026-04-26T07:12:00.89Z</time></trkpt><trkpt lat="42.21574" lon="14.5793217"><ele>20.75</ele><time>2026-04-26T07:12:02.891Z</time></trkpt><trkpt lat="42.2158017" lon="14.5791967"><ele>20.0</ele><time>2026-04-26T07:12:04.891Z</time></trkpt><trkpt lat="42.215865" lon="14.5790733"><ele>20.0</ele><time>2026-04-26T07:12:06.891Z</time></trkpt><trkpt lat="42.2159317" lon="14.578955"><ele>20.0</ele><time>2026-04-26T07:12:08.891Z</time></trkpt><trkpt lat="42.2159983" lon="14.5788367"><ele>20.0</ele><time>2026-04-26T07:12:10.891Z</time></trkpt><trkpt lat="42.21606" lon="14.5787183"><ele>20.0</ele><time>2026-04-26T07:12:12.891Z</time></trkpt><trkpt lat="42.2161217" lon="14.5785883"><ele>20.0</ele><time>2026-04-26T07:12:14.891Z</time></trkpt><trkpt lat="42.2161817" lon="14.578465"><ele>20.4</ele><time>2026-04-26T07:12:16.891Z</time></trkpt><trkpt lat="42.2162433" lon="14.57835"><ele>20.8</ele><time>2026-04-26T07:12:18.89Z</time></trkpt><trkpt lat="42.2163017" lon="14.5782267"><ele>21.200000000000003</ele><time>2026-04-26T07:12:20.891Z</time></trkpt><trkpt lat="42.2163617" lon="14.5781083"><ele>21.6</ele><time>2026-04-26T07:12:22.891Z</time></trkpt><trkpt lat="42.2164283" lon="14.577995"><ele>22.0</ele><time>2026-04-26T07:12:24.89Z</time></trkpt><trkpt lat="42.21649" lon="14.5778817"><ele>21.6</ele><time>2026-04-26T07:12:26.891Z</time></trkpt><trkpt lat="42.216545" lon="14.5777733"><ele>21.200000000000003</ele><time>2026-04-26T07:12:28.89Z</time></trkpt><trkpt lat="42.2166133" lon="14.577645"><ele>20.8</ele><time>2026-04-26T07:12:30.891Z</time></trkpt><trkpt lat="42.216675" lon="14.5775217"><ele>20.4</ele><time>2026-04-26T07:12:32.891Z</time></trkpt><trkpt lat="42.216735" lon="14.5773983"><ele>20.0</ele><time>2026-04-26T07:12:34.891Z</time></trkpt><trkpt lat="42.2167917" lon="14.5772783"><ele>20.0</ele><time>2026-04-26T07:12:36.891Z</time></trkpt><trkpt lat="42.2168383" lon="14.57716"><ele>20.0</ele><time>2026-04-26T07:12:38.891Z</time></trkpt><trkpt lat="42.2168833" lon="14.5770367"><ele>20.0</ele><time>2026-04-26T07:12:40.891Z</time></trkpt><trkpt lat="42.2169183" lon="14.5768983"><ele>20.0</ele><time>2026-04-26T07:12:42.89Z</time></trkpt><trkpt lat="42.2169433" lon="14.5767467"><ele>20.0</ele><time>2026-04-26T07:12:44.891Z</time></trkpt><trkpt lat="42.2169567" lon="14.57659"><ele>22.0</ele><time>2026-04-26T07:12:46.89Z</time></trkpt><trkpt lat="42.21696" lon="14.576435"><ele>24.0</ele><time>2026-04-26T07:12:48.891Z</time></trkpt><trkpt lat="42.216965" lon="14.5762733"><ele>26.0</ele><time>2026-04-26T07:12:50.891Z</time></trkpt><trkpt lat="42.2169733" lon="14.5761083"><ele>28.0</ele><time>2026-04-26T07:12:52.89Z</time></trkpt><trkpt lat="42.2169767" lon="14.5760183"><ele>30.0</ele><time>2026-04-26T07:12:53.891Z</time></trkpt><trkpt lat="42.216985" lon="14.5759333"><ele>30.0</ele><time>2026-04-26T07:12:54.891Z</time></trkpt><trkpt lat="42.2169933" lon="14.57584"><ele>30.0</ele><time>2026-04-26T07:12:55.891Z</time></trkpt><trkpt lat="42.2170167" lon="14.57567"><ele>30.0</ele><time>2026-04-26T07:12:57.891Z</time></trkpt><trkpt lat="42.2170283" lon="14.575575"><ele>30.0</ele><time>2026-04-26T07:12:58.891Z</time></trkpt><trkpt lat="42.2170517" lon="14.5754917"><ele>30.0</ele><time>2026-04-26T07:12:59.891Z</time></trkpt><trkpt lat="42.2170767" lon="14.5754083"><ele>30.0</ele><time>2026-04-26T07:13:00.89Z</time></trkpt><trkpt lat="42.2171117" lon="14.5753283"><ele>30.2</ele><time>2026-04-26T07:13:01.89Z</time></trkpt><trkpt lat="42.2171867" lon="14.57519"><ele>30.4</ele><time>2026-04-26T07:13:03.891Z</time></trkpt><trkpt lat="42.21723" lon="14.575125"><ele>30.6</ele><time>2026-04-26T07:13:04.891Z</time></trkpt><trkpt lat="42.2173267" lon="14.5750167"><ele>30.8</ele><time>2026-04-26T07:13:06.891Z</time></trkpt><trkpt lat="42.21738" lon="14.57496"><ele>31.0</ele><time>2026-04-26T07:13:07.891Z</time></trkpt><trkpt lat="42.2174817" lon="14.574865"><ele>30.333333333333336</ele><time>2026-04-26T07:13:09.89Z</time></trkpt><trkpt lat="42.21758" lon="14.574765"><ele>29.666666666666668</ele><time>2026-04-26T07:13:11.89Z</time></trkpt><trkpt lat="42.2176317" lon="14.5747083"><ele>29.0</ele><time>2026-04-26T07:13:12.89Z</time></trkpt><trkpt lat="42.2176817" lon="14.5746533"><ele>28.333333333333336</ele><time>2026-04-26T07:13:13.891Z</time></trkpt><trkpt lat="42.21773" lon="14.5745967"><ele>27.666666666666668</ele><time>2026-04-26T07:13:14.89Z</time></trkpt><trkpt lat="42.217815" lon="14.5744767"><ele>27.0</ele><time>2026-04-26T07:13:16.891Z</time></trkpt><trkpt lat="42.2178617" lon="14.57441"><ele>27.0</ele><time>2026-04-26T07:13:17.891Z</time></trkpt><trkpt lat="42.217905" lon="14.5743417"><ele>27.0</ele><time>2026-04-26T07:13:18.891Z</time></trkpt><trkpt lat="42.2179467" lon="14.57427"><ele>27.0</ele><time>2026-04-26T07:13:19.891Z</time></trkpt><trkpt lat="42.2179833" lon="14.5741967"><ele>27.0</ele><time>2026-04-26T07:13:20.89Z</time></trkpt><trkpt lat="42.2180217" lon="14.574125"><ele>27.0</ele><time>2026-04-26T07:13:21.891Z</time></trkpt><trkpt lat="42.2180833" lon="14.57398"><ele>27.0</ele><time>2026-04-26T07:13:23.891Z</time></trkpt><trkpt lat="42.2181167" lon="14.5739"><ele>27.0</ele><time>2026-04-26T07:13:24.891Z</time></trkpt><trkpt lat="42.2181483" lon="14.5738217"><ele>27.0</ele><time>2026-04-26T07:13:25.891Z</time></trkpt><trkpt lat="42.2181783" lon="14.5737467"><ele>27.0</ele><time>2026-04-26T07:13:26.89Z</time></trkpt><trkpt lat="42.2182117" lon="14.57367"><ele>27.0</ele><time>2026-04-26T07:13:27.891Z</time></trkpt><trkpt lat="42.2182433" lon="14.573595"><ele>27.0</ele><time>2026-04-26T07:13:28.89Z</time></trkpt><trkpt lat="42.218275" lon="14.5735133"><ele>27.0</ele><time>2026-04-26T07:13:29.89Z</time></trkpt><trkpt lat="42.2183083" lon="14.5734333"><ele>27.0</ele><time>2026-04-26T07:13:30.891Z</time></trkpt><trkpt lat="42.21834" lon="14.5733517"><ele>26.0</ele><time>2026-04-26T07:13:31.891Z</time></trkpt><trkpt lat="42.2183717" lon="14.57327"><ele>25.0</ele><time>2026-04-26T07:13:32.891Z</time></trkpt><trkpt lat="42.2184033" lon="14.5731917"><ele>24.0</ele><time>2026-04-26T07:13:33.891Z</time></trkpt><trkpt lat="42.2184333" lon="14.5731117"><ele>23.0</ele><time>2026-04-26T07:13:34.891Z</time></trkpt><trkpt lat="42.218465" lon="14.5730333"><ele>22.0</ele><time>2026-04-26T07:13:35.891Z</time></trkpt><trkpt lat="42.218495" lon="14.5729533"><ele>21.0</ele><time>2026-04-26T07:13:36.891Z</time></trkpt><trkpt lat="42.2185267" lon="14.5728767"><ele>20.0</ele><time>2026-04-26T07:13:37.891Z</time></trkpt><trkpt lat="42.21856" lon="14.5728033"><ele>20.0</ele><time>2026-04-26T07:13:38.891Z</time></trkpt><trkpt lat="42.2185917" lon="14.5727233"><ele>20.0</ele><time>2026-04-26T07:13:39.89Z</time></trkpt><trkpt lat="42.2186267" lon="14.572645"><ele>20.0</ele><time>2026-04-26T07:13:40.891Z</time></trkpt><trkpt lat="42.2186583" lon="14.5725633"><ele>20.0</ele><time>2026-04-26T07:13:41.891Z</time></trkpt><trkpt lat="42.2186883" lon="14.5724833"><ele>20.0</ele><time>2026-04-26T07:13:42.891Z</time></trkpt><trkpt lat="42.2187183" lon="14.5724033"><ele>20.0</ele><time>2026-04-26T07:13:43.891Z</time></trkpt><trkpt lat="42.2187467" lon="14.5723217"><ele>20.0</ele><time>2026-04-26T07:13:44.891Z</time></trkpt><trkpt lat="42.218785" lon="14.572245"><ele>20.0</ele><time>2026-04-26T07:13:45.891Z</time></trkpt><trkpt lat="42.2188217" lon="14.5721667"><ele>20.0</ele><time>2026-04-26T07:13:46.891Z</time></trkpt><trkpt lat="42.21886" lon="14.5720917"><ele>20.0</ele><time>2026-04-26T07:13:47.89Z</time></trkpt><trkpt lat="42.2189" lon="14.5720183"><ele>20.0</ele><time>2026-04-26T07:13:48.89Z</time></trkpt><trkpt lat="42.2189383" lon="14.5719483"><ele>20.0</ele><time>2026-04-26T07:13:49.891Z</time></trkpt><trkpt lat="42.21898" lon="14.5718783"><ele>20.0</ele><time>2026-04-26T07:13:50.891Z</time></trkpt><trkpt lat="42.219025" lon="14.5718067"><ele>20.0</ele><time>2026-04-26T07:13:51.89Z</time></trkpt><trkpt lat="42.21907" lon="14.57174"><ele>19.5</ele><time>2026-04-26T07:13:52.891Z</time></trkpt><trkpt lat="42.2191133" lon="14.5716733"><ele>19.0</ele><time>2026-04-26T07:13:53.891Z</time></trkpt><trkpt lat="42.2191583" lon="14.57161"><ele>18.5</ele><time>2026-04-26T07:13:54.89Z</time></trkpt><trkpt lat="42.2192017" lon="14.5715467"><ele>18.0</ele><time>2026-04-26T07:13:55.891Z</time></trkpt><trkpt lat="42.2192483" lon="14.5714833"><ele>17.5</ele><time>2026-04-26T07:13:56.891Z</time></trkpt><trkpt lat="42.2193317" lon="14.5713583"><ele>17.0</ele><time>2026-04-26T07:13:58.89Z</time></trkpt><trkpt lat="42.2193817" lon="14.5712917"><ele>17.0</ele><time>2026-04-26T07:13:59.891Z</time></trkpt><trkpt lat="42.21943" lon="14.57122"><ele>17.0</ele><time>2026-04-26T07:14:00.891Z</time></trkpt><trkpt lat="42.2194767" lon="14.571155"><ele>17.0</ele><time>2026-04-26T07:14:01.891Z</time></trkpt><trkpt lat="42.2195683" lon="14.5710317"><ele>17.0</ele><time>2026-04-26T07:14:03.891Z</time></trkpt><trkpt lat="42.21962" lon="14.5709617"><ele>17.0</ele><time>2026-04-26T07:14:04.891Z</time></trkpt><trkpt lat="42.2196683" lon="14.570895"><ele>17.0</ele><time>2026-04-26T07:14:05.891Z</time></trkpt><trkpt lat="42.2197117" lon="14.5708267"><ele>16.333333333333336</ele><time>2026-04-26T07:14:06.89Z</time></trkpt><trkpt lat="42.2197667" lon="14.5707517"><ele>15.666666666666668</ele><time>2026-04-26T07:14:07.89Z</time></trkpt><trkpt lat="42.21982" lon="14.5706767"><ele>15.0</ele><time>2026-04-26T07:14:08.891Z</time></trkpt><trkpt lat="42.2198733" lon="14.5706067"><ele>14.333333333333332</ele><time>2026-04-26T07:14:09.89Z</time></trkpt><trkpt lat="42.2199317" lon="14.5705317"><ele>13.666666666666666</ele><time>2026-04-26T07:14:10.89Z</time></trkpt><trkpt lat="42.2199833" lon="14.5704533"><ele>13.0</ele><time>2026-04-26T07:14:11.89Z</time></trkpt><trkpt lat="42.220035" lon="14.5703717"><ele>13.714285714285714</ele><time>2026-04-26T07:14:12.89Z</time></trkpt><trkpt lat="42.2200867" lon="14.5702933"><ele>14.42857142857143</ele><time>2026-04-26T07:14:13.891Z</time></trkpt><trkpt lat="42.2201317" lon="14.5702183"><ele>15.142857142857144</ele><time>2026-04-26T07:14:14.89Z</time></trkpt><trkpt lat="42.2201833" lon="14.5701467"><ele>15.857142857142858</ele><time>2026-04-26T07:14:15.89Z</time></trkpt><trkpt lat="42.2202283" lon="14.5700733"><ele>16.571428571428573</ele><time>2026-04-26T07:14:16.891Z</time></trkpt><trkpt lat="42.22027" lon="14.570005"><ele>17.28571428571429</ele><time>2026-04-26T07:14:17.89Z</time></trkpt><trkpt lat="42.2203133" lon="14.5699283"><ele>18.0</ele><time>2026-04-26T07:14:18.891Z</time></trkpt><trkpt lat="42.22036" lon="14.569845"><ele>18.000000000000004</ele><time>2026-04-26T07:14:19.89Z</time></trkpt><trkpt lat="42.2204" lon="14.5697683"><ele>18.0</ele><time>2026-04-26T07:14:20.891Z</time></trkpt><trkpt lat="42.2204433" lon="14.5696817"><ele>18.0</ele><time>2026-04-26T07:14:21.891Z</time></trkpt><trkpt lat="42.2204817" lon="14.5695983"><ele>18.0</ele><time>2026-04-26T07:14:22.89Z</time></trkpt><trkpt lat="42.2205183" lon="14.5695183"><ele>18.0</ele><time>2026-04-26T07:14:23.89Z</time></trkpt><trkpt lat="42.2205567" lon="14.5694383"><ele>18.000000000000004</ele><time>2026-04-26T07:14:24.891Z</time></trkpt><trkpt lat="42.2205933" lon="14.5693467"><ele>18.0</ele><time>2026-04-26T07:14:25.891Z</time></trkpt><trkpt lat="42.22063" lon="14.56926"><ele>17.28571428571429</ele><time>2026-04-26T07:14:26.891Z</time></trkpt><trkpt lat="42.2206683" lon="14.5691683"><ele>16.571428571428573</ele><time>2026-04-26T07:14:27.891Z</time></trkpt><trkpt lat="42.2207083" lon="14.5690867"><ele>15.857142857142858</ele><time>2026-04-26T07:14:28.89Z</time></trkpt><trkpt lat="42.220745" lon="14.5689967"><ele>15.142857142857144</ele><time>2026-04-26T07:14:29.891Z</time></trkpt><trkpt lat="42.2207817" lon="14.5689117"><ele>14.42857142857143</ele><time>2026-04-26T07:14:30.891Z</time></trkpt><trkpt lat="42.220815" lon="14.5688283"><ele>13.714285714285714</ele><time>2026-04-26T07:14:31.891Z</time></trkpt><trkpt lat="42.2208567" lon="14.56874"><ele>13.0</ele><time>2026-04-26T07:14:32.891Z</time></trkpt><trkpt lat="42.2208967" lon="14.568655"><ele>13.0</ele><time>2026-04-26T07:14:33.891Z</time></trkpt><trkpt lat="42.2209367" lon="14.568565"><ele>13.0</ele><time>2026-04-26T07:14:34.89Z</time></trkpt><trkpt lat="42.22097" lon="14.568485"><ele>13.0</ele><time>2026-04-26T07:14:35.891Z</time></trkpt><trkpt lat="42.2210067" lon="14.5684"><ele>13.0</ele><time>2026-04-26T07:14:36.89Z</time></trkpt><trkpt lat="42.2210417" lon="14.5683167"><ele>13.0</ele><time>2026-04-26T07:14:37.891Z</time></trkpt><trkpt lat="42.22108" lon="14.56823"><ele>13.0</ele><time>2026-04-26T07:14:38.891Z</time></trkpt><trkpt lat="42.2211217" lon="14.5681417"><ele>13.0</ele><time>2026-04-26T07:14:39.89Z</time></trkpt><trkpt lat="42.2211617" lon="14.5680567"><ele>13.0</ele><time>2026-04-26T07:14:40.89Z</time></trkpt><trkpt lat="42.2212033" lon="14.5679683"><ele>13.0</ele><time>2026-04-26T07:14:41.89Z</time></trkpt><trkpt lat="42.2212433" lon="14.5678833"><ele>13.0</ele><time>2026-04-26T07:14:42.89Z</time></trkpt><trkpt lat="42.2212783" lon="14.5678"><ele>13.0</ele><time>2026-04-26T07:14:43.891Z</time></trkpt><trkpt lat="42.221315" lon="14.5677183"><ele>13.0</ele><time>2026-04-26T07:14:44.89Z</time></trkpt><trkpt lat="42.2213467" lon="14.5676367"><ele>13.0</ele><time>2026-04-26T07:14:45.89Z</time></trkpt><trkpt lat="42.2213817" lon="14.5675583"><ele>13.0</ele><time>2026-04-26T07:14:46.891Z</time></trkpt><trkpt lat="42.2214167" lon="14.5674833"><ele>13.499999999999998</ele><time>2026-04-26T07:14:47.891Z</time></trkpt><trkpt lat="42.2214517" lon="14.5674033"><ele>14.0</ele><time>2026-04-26T07:14:48.891Z</time></trkpt><trkpt lat="42.2214867" lon="14.56733"><ele>14.5</ele><time>2026-04-26T07:14:49.891Z</time></trkpt><trkpt lat="42.2215233" lon="14.56725"><ele>15.0</ele><time>2026-04-26T07:14:50.891Z</time></trkpt><trkpt lat="42.2215567" lon="14.5671733"><ele>15.499999999999998</ele><time>2026-04-26T07:14:51.89Z</time></trkpt><trkpt lat="42.2215917" lon="14.567095"><ele>16.0</ele><time>2026-04-26T07:14:52.89Z</time></trkpt><trkpt lat="42.22165" lon="14.5669617"><ele>14.0</ele><time>2026-04-26T07:14:54.89Z</time></trkpt><trkpt lat="42.2217167" lon="14.5668183"><ele>12.0</ele><time>2026-04-26T07:14:56.89Z</time></trkpt><trkpt lat="42.221775" lon="14.5666817"><ele>10.0</ele><time>2026-04-26T07:14:58.891Z</time></trkpt><trkpt lat="42.221835" lon="14.5665533"><ele>8.0</ele><time>2026-04-26T07:15:00.891Z</time></trkpt><trkpt lat="42.221895" lon="14.566415"><ele>8.0</ele><time>2026-04-26T07:15:02.891Z</time></trkpt><trkpt lat="42.221955" lon="14.5662733"><ele>8.0</ele><time>2026-04-26T07:15:04.89Z</time></trkpt><trkpt lat="42.22199" lon="14.5662017"><ele>8.0</ele><time>2026-04-26T07:15:05.891Z</time></trkpt><trkpt lat="42.2220517" lon="14.5660667"><ele>8.0</ele><time>2026-04-26T07:15:07.89Z</time></trkpt><trkpt lat="42.2221133" lon="14.565925"><ele>8.0</ele><time>2026-04-26T07:15:09.89Z</time></trkpt><trkpt lat="42.222175" lon="14.56579"><ele>7.25</ele><time>2026-04-26T07:15:11.891Z</time></trkpt><trkpt lat="42.2222367" lon="14.56565"><ele>6.5</ele><time>2026-04-26T07:15:13.89Z</time></trkpt><trkpt lat="42.222295" lon="14.5655117"><ele>5.75</ele><time>2026-04-26T07:15:15.89Z</time></trkpt><trkpt lat="42.2223517" lon="14.5653817"><ele>5.0</ele><time>2026-04-26T07:15:17.89Z</time></trkpt><trkpt lat="42.2224083" lon="14.5652517"><ele>7.25</ele><time>2026-04-26T07:15:19.891Z</time></trkpt><trkpt lat="42.2224683" lon="14.5651183"><ele>9.5</ele><time>2026-04-26T07:15:21.891Z</time></trkpt><trkpt lat="42.2225317" lon="14.564985"><ele>11.75</ele><time>2026-04-26T07:15:23.891Z</time></trkpt><trkpt lat="42.2225933" lon="14.56486"><ele>14.0</ele><time>2026-04-26T07:15:25.891Z</time></trkpt><trkpt lat="42.222655" lon="14.56473"><ele>14.0</ele><time>2026-04-26T07:15:27.891Z</time></trkpt><trkpt lat="42.22271" lon="14.5645833"><ele>13.999999999999998</ele><time>2026-04-26T07:15:29.89Z</time></trkpt><trkpt lat="42.2227717" lon="14.564445"><ele>13.999999999999998</ele><time>2026-04-26T07:15:31.89Z</time></trkpt><trkpt lat="42.222835" lon="14.5643"><ele>14.0</ele><time>2026-04-26T07:15:33.89Z</time></trkpt><trkpt lat="42.2228683" lon="14.5642233"><ele>14.0</ele><time>2026-04-26T07:15:34.891Z</time></trkpt><trkpt lat="42.22293" lon="14.5640867"><ele>14.799999999999999</ele><time>2026-04-26T07:15:36.891Z</time></trkpt><trkpt lat="42.2229917" lon="14.5639517"><ele>15.599999999999998</ele><time>2026-04-26T07:15:38.891Z</time></trkpt><trkpt lat="42.2230233" lon="14.5638767"><ele>16.4</ele><time>2026-04-26T07:15:39.891Z</time></trkpt><trkpt lat="42.2230833" lon="14.5637367"><ele>17.2</ele><time>2026-04-26T07:15:41.891Z</time></trkpt><trkpt lat="42.2231167" lon="14.56366"><ele>18.0</ele><time>2026-04-26T07:15:42.891Z</time></trkpt><trkpt lat="42.22318" lon="14.563525"><ele>15.75</ele><time>2026-04-26T07:15:44.891Z</time></trkpt><trkpt lat="42.2232367" lon="14.56339"><ele>13.5</ele><time>2026-04-26T07:15:46.89Z</time></trkpt><trkpt lat="42.2233017" lon="14.563255"><ele>11.25</ele><time>2026-04-26T07:15:48.891Z</time></trkpt><trkpt lat="42.22336" lon="14.5631117"><ele>9.0</ele><time>2026-04-26T07:15:50.89Z</time></trkpt><trkpt lat="42.2234183" lon="14.56299"><ele>10.6</ele><time>2026-04-26T07:15:52.89Z</time></trkpt><trkpt lat="42.22348" lon="14.5628617"><ele>12.2</ele><time>2026-04-26T07:15:54.891Z</time></trkpt><trkpt lat="42.22354" lon="14.5627083"><ele>13.799999999999999</ele><time>2026-04-26T07:15:56.891Z</time></trkpt><trkpt lat="42.2235717" lon="14.56263"><ele>15.4</ele><time>2026-04-26T07:15:57.891Z</time></trkpt><trkpt lat="42.2236067" lon="14.5625533"><ele>17.0</ele><time>2026-04-26T07:15:58.89Z</time></trkpt><trkpt lat="42.2236633" lon="14.562415"><ele>17.0</ele><time>2026-04-26T07:16:00.89Z</time></trkpt><trkpt lat="42.2237267" lon="14.5622833"><ele>17.0</ele><time>2026-04-26T07:16:02.891Z</time></trkpt><trkpt lat="42.22379" lon="14.56214"><ele>17.0</ele><time>2026-04-26T07:16:04.891Z</time></trkpt><trkpt lat="42.2238517" lon="14.5619933"><ele>17.0</ele><time>2026-04-26T07:16:06.891Z</time></trkpt><trkpt lat="42.223915" lon="14.561855"><ele>18.0</ele><time>2026-04-26T07:16:08.891Z</time></trkpt><trkpt lat="42.2239433" lon="14.5617783"><ele>19.0</ele><time>2026-04-26T07:16:09.89Z</time></trkpt><trkpt lat="42.2240067" lon="14.561645"><ele>20.0</ele><time>2026-04-26T07:16:11.89Z</time></trkpt><trkpt lat="42.2240683" lon="14.5615083"><ele>21.0</ele><time>2026-04-26T07:16:13.891Z</time></trkpt><trkpt lat="42.2241233" lon="14.56137"><ele>22.0</ele><time>2026-04-26T07:16:15.891Z</time></trkpt><trkpt lat="42.22418" lon="14.56124"><ele>20.6</ele><time>2026-04-26T07:16:17.89Z</time></trkpt><trkpt lat="42.2242467" lon="14.5611133"><ele>19.200000000000003</ele><time>2026-04-26T07:16:19.891Z</time></trkpt><trkpt lat="42.2243183" lon="14.5609967"><ele>17.8</ele><time>2026-04-26T07:16:21.89Z</time></trkpt><trkpt lat="42.22438" lon="14.5608917"><ele>16.4</ele><time>2026-04-26T07:16:23.89Z</time></trkpt><trkpt lat="42.2244517" lon="14.5608283"><ele>15.0</ele><time>2026-04-26T07:16:25.89Z</time></trkpt><trkpt lat="42.2245667" lon="14.5608083"><ele>15.0</ele><time>2026-04-26T07:16:27.891Z</time></trkpt><trkpt lat="42.2246667" lon="14.56071"><ele>15.0</ele><time>2026-04-26T07:16:29.891Z</time></trkpt><trkpt lat="42.2247233" lon="14.5605633"><ele>15.0</ele><time>2026-04-26T07:16:31.89Z</time></trkpt><trkpt lat="42.2247767" lon="14.5604117"><ele>15.0</ele><time>2026-04-26T07:16:33.89Z</time></trkpt><trkpt lat="42.2248067" lon="14.560335"><ele>15.0</ele><time>2026-04-26T07:16:34.891Z</time></trkpt><trkpt lat="42.2248583" lon="14.5602"><ele>12.5</ele><time>2026-04-26T07:16:36.891Z</time></trkpt><trkpt lat="42.2249067" lon="14.560075"><ele>10.0</ele><time>2026-04-26T07:16:38.891Z</time></trkpt><trkpt lat="42.224965" lon="14.5599367"><ele>7.5</ele><time>2026-04-26T07:16:40.891Z</time></trkpt><trkpt lat="42.2250117" lon="14.559805"><ele>5.0</ele><time>2026-04-26T07:16:42.89Z</time></trkpt><trkpt lat="42.2250683" lon="14.55966"><ele>6.0</ele><time>2026-04-26T07:16:44.89Z</time></trkpt><trkpt lat="42.2251133" lon="14.5595217"><ele>7.0</ele><time>2026-04-26T07:16:46.891Z</time></trkpt><trkpt lat="42.2251767" lon="14.55937"><ele>8.0</ele><time>2026-04-26T07:16:48.891Z</time></trkpt><trkpt lat="42.2252333" lon="14.5592217"><ele>9.0</ele><time>2026-04-26T07:16:50.89Z</time></trkpt><trkpt lat="42.22529" lon="14.5590733"><ele>9.0</ele><time>2026-04-26T07:16:52.89Z</time></trkpt><trkpt lat="42.2253383" lon="14.5589417"><ele>9.0</ele><time>2026-04-26T07:16:54.89Z</time></trkpt><trkpt lat="42.2253867" lon="14.5588033"><ele>9.0</ele><time>2026-04-26T07:16:56.891Z</time></trkpt><trkpt lat="42.2254483" lon="14.5586667"><ele>9.0</ele><time>2026-04-26T07:16:58.89Z</time></trkpt><trkpt lat="42.2254767" lon="14.55859"><ele>9.0</ele><time>2026-04-26T07:16:59.891Z</time></trkpt><trkpt lat="42.2255317" lon="14.5584433"><ele>9.0</ele><time>2026-04-26T07:17:01.89Z</time></trkpt><trkpt lat="42.2255833" lon="14.558295"><ele>9.0</ele><time>2026-04-26T07:17:03.891Z</time></trkpt><trkpt lat="42.2256383" lon="14.55815"><ele>9.0</ele><time>2026-04-26T07:17:05.89Z</time></trkpt><trkpt lat="42.2256933" lon="14.558005"><ele>9.0</ele><time>2026-04-26T07:17:07.891Z</time></trkpt><trkpt lat="42.2257283" lon="14.5579333"><ele>9.0</ele><time>2026-04-26T07:17:08.89Z</time></trkpt><trkpt lat="42.22578" lon="14.55779"><ele>9.0</ele><time>2026-04-26T07:17:10.89Z</time></trkpt><trkpt lat="42.2258367" lon="14.5576567"><ele>9.0</ele><time>2026-04-26T07:17:12.89Z</time></trkpt><trkpt lat="42.2258983" lon="14.55751"><ele>9.0</ele><time>2026-04-26T07:17:14.891Z</time></trkpt><trkpt lat="42.2259567" lon="14.557365"><ele>9.0</ele><time>2026-04-26T07:17:16.89Z</time></trkpt><trkpt lat="42.2260117" lon="14.557225"><ele>9.0</ele><time>2026-04-26T07:17:18.891Z</time></trkpt><trkpt lat="42.2260617" lon="14.5571017"><ele>9.0</ele><time>2026-04-26T07:17:20.891Z</time></trkpt><trkpt lat="42.22612" lon="14.5569417"><ele>9.0</ele><time>2026-04-26T07:17:22.891Z</time></trkpt><trkpt lat="42.2261467" lon="14.5568633"><ele>9.0</ele><time>2026-04-26T07:17:23.89Z</time></trkpt><trkpt lat="42.2261883" lon="14.556725"><ele>9.0</ele><time>2026-04-26T07:17:25.891Z</time></trkpt><trkpt lat="42.226245" lon="14.55659"><ele>10.75</ele><time>2026-04-26T07:17:27.891Z</time></trkpt><trkpt lat="42.2263017" lon="14.5564467"><ele>12.5</ele><time>2026-04-26T07:17:29.89Z</time></trkpt><trkpt lat="42.22636" lon="14.5563"><ele>14.25</ele><time>2026-04-26T07:17:31.891Z</time></trkpt><trkpt lat="42.2264183" lon="14.5561567"><ele>16.0</ele><time>2026-04-26T07:17:33.891Z</time></trkpt><trkpt lat="42.226475" lon="14.5560183"><ele>14.0</ele><time>2026-04-26T07:17:35.891Z</time></trkpt><trkpt lat="42.22654" lon="14.5558867"><ele>12.000000000000002</ele><time>2026-04-26T07:17:37.891Z</time></trkpt><trkpt lat="42.2266033" lon="14.5557517"><ele>10.0</ele><time>2026-04-26T07:17:39.89Z</time></trkpt><trkpt lat="42.22666" lon="14.5556417"><ele>8.0</ele><time>2026-04-26T07:17:41.89Z</time></trkpt><trkpt lat="42.2267133" lon="14.5555333"><ele>6.0</ele><time>2026-04-26T07:17:43.89Z</time></trkpt><trkpt lat="42.22678" lon="14.5554167"><ele>7.0</ele><time>2026-04-26T07:17:45.89Z</time></trkpt><trkpt lat="42.22685" lon="14.5552783"><ele>8.0</ele><time>2026-04-26T07:17:47.89Z</time></trkpt><trkpt lat="42.2268867" lon="14.5552083"><ele>9.0</ele><time>2026-04-26T07:17:48.889Z</time></trkpt><trkpt lat="42.2269217" lon="14.5551367"><ele>10.0</ele><time>2026-04-26T07:17:49.89Z</time></trkpt><trkpt lat="42.2269567" lon="14.555065"><ele>11.0</ele><time>2026-04-26T07:17:50.89Z</time></trkpt><trkpt lat="42.2269933" lon="14.5549883"><ele>12.0</ele><time>2026-04-26T07:17:51.889Z</time></trkpt><trkpt lat="42.227035" lon="14.5549183"><ele>13.0</ele><time>2026-04-26T07:17:52.89Z</time></trkpt><trkpt lat="42.22707" lon="14.5548467"><ele>12.999999999999998</ele><time>2026-04-26T07:17:53.89Z</time></trkpt><trkpt lat="42.22711" lon="14.5547733"><ele>13.0</ele><time>2026-04-26T07:17:54.89Z</time></trkpt><trkpt lat="42.2271483" lon="14.5547033"><ele>13.0</ele><time>2026-04-26T07:17:55.89Z</time></trkpt><trkpt lat="42.2272217" lon="14.554585"><ele>13.0</ele><time>2026-04-26T07:17:57.89Z</time></trkpt><trkpt lat="42.2272633" lon="14.5545133"><ele>12.999999999999998</ele><time>2026-04-26T07:17:58.89Z</time></trkpt><trkpt lat="42.2273433" lon="14.5543883"><ele>13.0</ele><time>2026-04-26T07:18:00.89Z</time></trkpt><trkpt lat="42.22743" lon="14.5542683"><ele>11.4</ele><time>2026-04-26T07:18:02.89Z</time></trkpt><trkpt lat="42.227475" lon="14.5542067"><ele>9.8</ele><time>2026-04-26T07:18:03.89Z</time></trkpt><trkpt lat="42.227555" lon="14.554095"><ele>8.2</ele><time>2026-04-26T07:18:05.89Z</time></trkpt><trkpt lat="42.2276333" lon="14.5539733"><ele>6.6</ele><time>2026-04-26T07:18:07.889Z</time></trkpt><trkpt lat="42.2277117" lon="14.5538517"><ele>5.0</ele><time>2026-04-26T07:18:09.89Z</time></trkpt><trkpt lat="42.2277567" lon="14.5537883"><ele>6.4</ele><time>2026-04-26T07:18:10.889Z</time></trkpt><trkpt lat="42.2278333" lon="14.5536717"><ele>7.8</ele><time>2026-04-26T07:18:12.89Z</time></trkpt><trkpt lat="42.2279183" lon="14.5535483"><ele>9.2</ele><time>2026-04-26T07:18:14.889Z</time></trkpt><trkpt lat="42.227995" lon="14.5534167"><ele>10.6</ele><time>2026-04-26T07:18:16.889Z</time></trkpt><trkpt lat="42.228035" lon="14.55335"><ele>12.0</ele><time>2026-04-26T07:18:17.89Z</time></trkpt><trkpt lat="42.2281117" lon="14.5532183"><ele>10.2</ele><time>2026-04-26T07:18:19.889Z</time></trkpt><trkpt lat="42.228185" lon="14.5530983"><ele>8.399999999999999</ele><time>2026-04-26T07:18:21.89Z</time></trkpt><trkpt lat="42.2282583" lon="14.5529667"><ele>6.6</ele><time>2026-04-26T07:18:23.889Z</time></trkpt><trkpt lat="42.2282983" lon="14.5528917"><ele>4.8</ele><time>2026-04-26T07:18:24.889Z</time></trkpt><trkpt lat="42.228365" lon="14.55277"><ele>3.0</ele><time>2026-04-26T07:18:26.89Z</time></trkpt><trkpt lat="42.2284433" lon="14.5526533"><ele>3.0</ele><time>2026-04-26T07:18:28.89Z</time></trkpt><trkpt lat="42.2285167" lon="14.5525267"><ele>3.0</ele><time>2026-04-26T07:18:30.889Z</time></trkpt><trkpt lat="42.228585" lon="14.5524033"><ele>3.0</ele><time>2026-04-26T07:18:32.89Z</time></trkpt><trkpt lat="42.2286617" lon="14.5522817"><ele>3.0</ele><time>2026-04-26T07:18:34.889Z</time></trkpt><trkpt lat="42.228735" lon="14.5521483"><ele>2.25</ele><time>2026-04-26T07:18:36.89Z</time></trkpt><trkpt lat="42.2288067" lon="14.5520267"><ele>1.5</ele><time>2026-04-26T07:18:38.89Z</time></trkpt><trkpt lat="42.2288817" lon="14.5518917"><ele>0.75</ele><time>2026-04-26T07:18:40.89Z</time></trkpt><trkpt lat="42.228955" lon="14.5517633"><ele>0.0</ele><time>2026-04-26T07:18:42.889Z</time></trkpt><trkpt lat="42.229035" lon="14.5516383"><ele>0.0</ele><time>2026-04-26T07:18:44.89Z</time></trkpt><trkpt lat="42.229105" lon="14.5515133"><ele>0.0</ele><time>2026-04-26T07:18:46.89Z</time></trkpt><trkpt lat="42.2291833" lon="14.5513883"><ele>0.0</ele><time>2026-04-26T07:18:48.89Z</time></trkpt><trkpt lat="42.2292217" lon="14.5513183"><ele>0.0</ele><time>2026-04-26T07:18:49.89Z</time></trkpt><trkpt lat="42.22926" lon="14.551245"><ele>0.0</ele><time>2026-04-26T07:18:50.889Z</time></trkpt><trkpt lat="42.2293317" lon="14.5511217"><ele>1.25</ele><time>2026-04-26T07:18:52.89Z</time></trkpt><trkpt lat="42.2294083" lon="14.5510017"><ele>2.5</ele><time>2026-04-26T07:18:54.89Z</time></trkpt><trkpt lat="42.2294767" lon="14.5508733"><ele>3.75</ele><time>2026-04-26T07:18:56.89Z</time></trkpt><trkpt lat="42.2295433" lon="14.5507333"><ele>5.0</ele><time>2026-04-26T07:18:58.889Z</time></trkpt><trkpt lat="42.2295967" lon="14.550585"><ele>5.0</ele><time>2026-04-26T07:19:00.889Z</time></trkpt><trkpt lat="42.2296483" lon="14.5504483"><ele>5.0</ele><time>2026-04-26T07:19:02.89Z</time></trkpt><trkpt lat="42.2297167" lon="14.55031"><ele>5.0</ele><time>2026-04-26T07:19:04.889Z</time></trkpt><trkpt lat="42.22979" lon="14.5501833"><ele>5.0</ele><time>2026-04-26T07:19:06.89Z</time></trkpt><trkpt lat="42.22986" lon="14.55006"><ele>3.75</ele><time>2026-04-26T07:19:08.889Z</time></trkpt><trkpt lat="42.22993" lon="14.549935"><ele>2.5</ele><time>2026-04-26T07:19:10.89Z</time></trkpt><trkpt lat="42.2300067" lon="14.54981"><ele>1.25</ele><time>2026-04-26T07:19:12.89Z</time></trkpt><trkpt lat="42.2300733" lon="14.54969"><ele>0.0</ele><time>2026-04-26T07:19:14.89Z</time></trkpt><trkpt lat="42.2301417" lon="14.549575"><ele>1.0</ele><time>2026-04-26T07:19:16.89Z</time></trkpt><trkpt lat="42.230215" lon="14.5494533"><ele>2.0</ele><time>2026-04-26T07:19:18.89Z</time></trkpt><trkpt lat="42.2302883" lon="14.5493367"><ele>3.0</ele><time>2026-04-26T07:19:20.89Z</time></trkpt><trkpt lat="42.23036" lon="14.5492133"><ele>4.0</ele><time>2026-04-26T07:19:22.889Z</time></trkpt><trkpt lat="42.23043" lon="14.5490933"><ele>4.0</ele><time>2026-04-26T07:19:24.89Z</time></trkpt><trkpt lat="42.2305033" lon="14.5489717"><ele>4.0</ele><time>2026-04-26T07:19:26.89Z</time></trkpt><trkpt lat="42.23057" lon="14.54885"><ele>4.0</ele><time>2026-04-26T07:19:28.889Z</time></trkpt><trkpt lat="42.2306483" lon="14.548725"><ele>4.0</ele><time>2026-04-26T07:19:30.89Z</time></trkpt><trkpt lat="42.2307233" lon="14.548595"><ele>3.75</ele><time>2026-04-26T07:19:32.889Z</time></trkpt><trkpt lat="42.2307917" lon="14.5484733"><ele>3.5</ele><time>2026-04-26T07:19:34.89Z</time></trkpt><trkpt lat="42.2308583" lon="14.5483533"><ele>3.25</ele><time>2026-04-26T07:19:36.89Z</time></trkpt><trkpt lat="42.2309383" lon="14.5482267"><ele>3.0</ele><time>2026-04-26T07:19:38.89Z</time></trkpt><trkpt lat="42.2310133" lon="14.5480983"><ele>3.0</ele><time>2026-04-26T07:19:40.889Z</time></trkpt><trkpt lat="42.2310817" lon="14.5479683"><ele>3.0</ele><time>2026-04-26T07:19:42.889Z</time></trkpt><trkpt lat="42.2311483" lon="14.54784"><ele>3.0</ele><time>2026-04-26T07:19:44.89Z</time></trkpt><trkpt lat="42.23122" lon="14.5477117"><ele>3.0</ele><time>2026-04-26T07:19:46.889Z</time></trkpt><trkpt lat="42.2312933" lon="14.5475867"><ele>3.4</ele><time>2026-04-26T07:19:48.89Z</time></trkpt><trkpt lat="42.2313633" lon="14.5474767"><ele>3.8</ele><time>2026-04-26T07:19:50.89Z</time></trkpt><trkpt lat="42.2314383" lon="14.547365"><ele>4.2</ele><time>2026-04-26T07:19:52.89Z</time></trkpt><trkpt lat="42.231505" lon="14.5472383"><ele>4.6</ele><time>2026-04-26T07:19:54.889Z</time></trkpt><trkpt lat="42.2315483" lon="14.5471617"><ele>5.0</ele><time>2026-04-26T07:19:55.889Z</time></trkpt><trkpt lat="42.2315867" lon="14.54709"><ele>4.25</ele><time>2026-04-26T07:19:56.889Z</time></trkpt><trkpt lat="42.23166" lon="14.546945"><ele>3.5</ele><time>2026-04-26T07:19:58.89Z</time></trkpt><trkpt lat="42.2317267" lon="14.546825"><ele>2.75</ele><time>2026-04-26T07:20:00.889Z</time></trkpt><trkpt lat="42.2318017" lon="14.5467133"><ele>2.0</ele><time>2026-04-26T07:20:02.89Z</time></trkpt><trkpt lat="42.23187" lon="14.5466017"><ele>2.0</ele><time>2026-04-26T07:20:04.889Z</time></trkpt><trkpt lat="42.2319417" lon="14.546485"><ele>2.0</ele><time>2026-04-26T07:20:06.889Z</time></trkpt><trkpt lat="42.232015" lon="14.54636"><ele>2.0</ele><time>2026-04-26T07:20:08.89Z</time></trkpt><trkpt lat="42.2320883" lon="14.5462533"><ele>2.0</ele><time>2026-04-26T07:20:10.889Z</time></trkpt><trkpt lat="42.2321617" lon="14.546135"><ele>2.0</ele><time>2026-04-26T07:20:12.89Z</time></trkpt><trkpt lat="42.2322317" lon="14.5460067"><ele>2.0</ele><time>2026-04-26T07:20:14.89Z</time></trkpt><trkpt lat="42.2322967" lon="14.545885"><ele>2.0</ele><time>2026-04-26T07:20:16.889Z</time></trkpt><trkpt lat="42.232375" lon="14.54576"><ele>2.0</ele><time>2026-04-26T07:20:18.89Z</time></trkpt><trkpt lat="42.23245" lon="14.5456333"><ele>2.0</ele><time>2026-04-26T07:20:20.889Z</time></trkpt><trkpt lat="42.2325167" lon="14.545505"><ele>2.0</ele><time>2026-04-26T07:20:22.89Z</time></trkpt><trkpt lat="42.2325933" lon="14.5453717"><ele>2.0</ele><time>2026-04-26T07:20:24.89Z</time></trkpt><trkpt lat="42.23267" lon="14.5452383"><ele>2.0</ele><time>2026-04-26T07:20:26.89Z</time></trkpt><trkpt lat="42.23274" lon="14.5451117"><ele>2.6</ele><time>2026-04-26T07:20:28.889Z</time></trkpt><trkpt lat="42.2328117" lon="14.5449917"><ele>3.2</ele><time>2026-04-26T07:20:30.89Z</time></trkpt><trkpt lat="42.2328717" lon="14.5448767"><ele>3.8</ele><time>2026-04-26T07:20:32.89Z</time></trkpt><trkpt lat="42.232935" lon="14.5447533"><ele>4.4</ele><time>2026-04-26T07:20:34.89Z</time></trkpt><trkpt lat="42.2329983" lon="14.5446283"><ele>5.0</ele><time>2026-04-26T07:20:36.89Z</time></trkpt><trkpt lat="42.2330683" lon="14.5444983"><ele>4.75</ele><time>2026-04-26T07:20:38.89Z</time></trkpt><trkpt lat="42.2331333" lon="14.5443717"><ele>4.5</ele><time>2026-04-26T07:20:40.89Z</time></trkpt><trkpt lat="42.2332" lon="14.5442317"><ele>4.25</ele><time>2026-04-26T07:20:42.89Z</time></trkpt><trkpt lat="42.2332617" lon="14.5440917"><ele>4.0</ele><time>2026-04-26T07:20:44.89Z</time></trkpt><trkpt lat="42.23332" lon="14.54395"><ele>4.0</ele><time>2026-04-26T07:20:46.89Z</time></trkpt><trkpt lat="42.2333767" lon="14.5438167"><ele>4.0</ele><time>2026-04-26T07:20:48.89Z</time></trkpt><trkpt lat="42.233435" lon="14.5436867"><ele>4.0</ele><time>2026-04-26T07:20:50.889Z</time></trkpt><trkpt lat="42.2334817" lon="14.5435683"><ele>4.0</ele><time>2026-04-26T07:20:52.889Z</time></trkpt><trkpt lat="42.23352" lon="14.543465"><ele>4.0</ele><time>2026-04-26T07:20:54.889Z</time></trkpt><trkpt lat="42.23355" lon="14.5433583"><ele>5.4</ele><time>2026-04-26T07:20:56.89Z</time></trkpt><trkpt lat="42.2335883" lon="14.543245"><ele>6.800000000000001</ele><time>2026-04-26T07:20:58.89Z</time></trkpt><trkpt lat="42.2336533" lon="14.54315"><ele>8.200000000000001</ele><time>2026-04-26T07:21:00.89Z</time></trkpt><trkpt lat="42.2337283" lon="14.5430617"><ele>9.600000000000001</ele><time>2026-04-26T07:21:02.89Z</time></trkpt><trkpt lat="42.2337917" lon="14.5429667"><ele>11.0</ele><time>2026-04-26T07:21:04.889Z</time></trkpt><trkpt lat="42.2338533" lon="14.542865"><ele>9.4</ele><time>2026-04-26T07:21:06.89Z</time></trkpt><trkpt lat="42.2339083" lon="14.5427583"><ele>7.800000000000001</ele><time>2026-04-26T07:21:08.89Z</time></trkpt><trkpt lat="42.2339717" lon="14.5426133"><ele>6.2</ele><time>2026-04-26T07:21:10.889Z</time></trkpt><trkpt lat="42.234005" lon="14.5425383"><ele>4.6</ele><time>2026-04-26T07:21:11.89Z</time></trkpt><trkpt lat="42.234065" lon="14.54239"><ele>3.0</ele><time>2026-04-26T07:21:13.89Z</time></trkpt><trkpt lat="42.2341" lon="14.5423083"><ele>3.0</ele><time>2026-04-26T07:21:14.89Z</time></trkpt><trkpt lat="42.2341317" lon="14.5422333"><ele>3.0</ele><time>2026-04-26T07:21:15.889Z</time></trkpt><trkpt lat="42.234195" lon="14.5420933"><ele>3.0</ele><time>2026-04-26T07:21:17.89Z</time></trkpt><trkpt lat="42.23425" lon="14.5419517"><ele>3.0</ele><time>2026-04-26T07:21:19.889Z</time></trkpt><trkpt lat="42.2343083" lon="14.5418117"><ele>3.0</ele><time>2026-04-26T07:21:21.89Z</time></trkpt><trkpt lat="42.23437" lon="14.541675"><ele>3.25</ele><time>2026-04-26T07:21:23.89Z</time></trkpt><trkpt lat="42.2344267" lon="14.5415417"><ele>3.5</ele><time>2026-04-26T07:21:25.89Z</time></trkpt><trkpt lat="42.2344817" lon="14.54141"><ele>3.75</ele><time>2026-04-26T07:21:27.889Z</time></trkpt><trkpt lat="42.234545" lon="14.54127"><ele>4.0</ele><time>2026-04-26T07:21:29.89Z</time></trkpt><trkpt lat="42.2346083" lon="14.541135"><ele>4.0</ele><time>2026-04-26T07:21:31.889Z</time></trkpt><trkpt lat="42.23467" lon="14.5410083"><ele>4.0</ele><time>2026-04-26T07:21:33.889Z</time></trkpt><trkpt lat="42.2347283" lon="14.5408783"><ele>4.0</ele><time>2026-04-26T07:21:35.889Z</time></trkpt><trkpt lat="42.2347883" lon="14.5407467"><ele>4.0</ele><time>2026-04-26T07:21:37.889Z</time></trkpt><trkpt lat="42.23485" lon="14.5406167"><ele>4.25</ele><time>2026-04-26T07:21:39.889Z</time></trkpt><trkpt lat="42.23491" lon="14.5404883"><ele>4.5</ele><time>2026-04-26T07:21:41.889Z</time></trkpt><trkpt lat="42.2349733" lon="14.54035"><ele>4.75</ele><time>2026-04-26T07:21:43.89Z</time></trkpt><trkpt lat="42.2350267" lon="14.5402167"><ele>5.0</ele><time>2026-04-26T07:21:45.89Z</time></trkpt><trkpt lat="42.23509" lon="14.5400833"><ele>5.0</ele><time>2026-04-26T07:21:47.889Z</time></trkpt><trkpt lat="42.23515" lon="14.5399417"><ele>5.0</ele><time>2026-04-26T07:21:49.89Z</time></trkpt><trkpt lat="42.235185" lon="14.5398683"><ele>5.0</ele><time>2026-04-26T07:21:50.89Z</time></trkpt><trkpt lat="42.235245" lon="14.5397367"><ele>5.0</ele><time>2026-04-26T07:21:52.889Z</time></trkpt><trkpt lat="42.235305" lon="14.539615"><ele>5.0</ele><time>2026-04-26T07:21:54.89Z</time></trkpt><trkpt lat="42.2353667" lon="14.53948"><ele>5.5</ele><time>2026-04-26T07:21:56.889Z</time></trkpt><trkpt lat="42.23543" lon="14.5393483"><ele>6.0</ele><time>2026-04-26T07:21:58.889Z</time></trkpt><trkpt lat="42.235485" lon="14.5392133"><ele>6.5</ele><time>2026-04-26T07:22:00.89Z</time></trkpt><trkpt lat="42.23554" lon="14.53909"><ele>7.0</ele><time>2026-04-26T07:22:02.89Z</time></trkpt><trkpt lat="42.2356033" lon="14.5389583"><ele>6.5</ele><time>2026-04-26T07:22:04.89Z</time></trkpt><trkpt lat="42.2356633" lon="14.5388183"><ele>6.0</ele><time>2026-04-26T07:22:06.889Z</time></trkpt><trkpt lat="42.2357217" lon="14.5386817"><ele>5.5</ele><time>2026-04-26T07:22:08.889Z</time></trkpt><trkpt lat="42.2357817" lon="14.5385467"><ele>5.0</ele><time>2026-04-26T07:22:10.89Z</time></trkpt><trkpt lat="42.2358467" lon="14.5384067"><ele>5.0</ele><time>2026-04-26T07:22:12.889Z</time></trkpt><trkpt lat="42.2359133" lon="14.5382717"><ele>5.0</ele><time>2026-04-26T07:22:14.89Z</time></trkpt><trkpt lat="42.23597" lon="14.5381417"><ele>5.0</ele><time>2026-04-26T07:22:16.889Z</time></trkpt><trkpt lat="42.2360317" lon="14.5380183"><ele>5.0</ele><time>2026-04-26T07:22:18.889Z</time></trkpt><trkpt lat="42.2360967" lon="14.5378883"><ele>5.0</ele><time>2026-04-26T07:22:20.89Z</time></trkpt><trkpt lat="42.2361617" lon="14.5377567"><ele>5.0</ele><time>2026-04-26T07:22:22.889Z</time></trkpt><trkpt lat="42.2362217" lon="14.53763"><ele>5.0</ele><time>2026-04-26T07:22:24.889Z</time></trkpt><trkpt lat="42.2362833" lon="14.5374917"><ele>5.0</ele><time>2026-04-26T07:22:26.889Z</time></trkpt><trkpt lat="42.2363433" lon="14.53736"><ele>5.0</ele><time>2026-04-26T07:22:28.889Z</time></trkpt><trkpt lat="42.236405" lon="14.5372267"><ele>5.0</ele><time>2026-04-26T07:22:30.89Z</time></trkpt><trkpt lat="42.236465" lon="14.53708"><ele>5.0</ele><time>2026-04-26T07:22:32.889Z</time></trkpt><trkpt lat="42.236495" lon="14.5370033"><ele>5.0</ele><time>2026-04-26T07:22:33.89Z</time></trkpt><trkpt lat="42.236555" lon="14.5368533"><ele>5.0</ele><time>2026-04-26T07:22:35.889Z</time></trkpt><trkpt lat="42.2366133" lon="14.5367083"><ele>4.666666666666667</ele><time>2026-04-26T07:22:37.89Z</time></trkpt><trkpt lat="42.2366683" lon="14.5365583"><ele>4.333333333333334</ele><time>2026-04-26T07:22:39.89Z</time></trkpt><trkpt lat="42.2366967" lon="14.5364767"><ele>4.0</ele><time>2026-04-26T07:22:40.89Z</time></trkpt><trkpt lat="42.236725" lon="14.5363983"><ele>3.666666666666667</ele><time>2026-04-26T07:22:41.89Z</time></trkpt><trkpt lat="42.2367517" lon="14.53632"><ele>3.3333333333333335</ele><time>2026-04-26T07:22:42.89Z</time></trkpt><trkpt lat="42.2368117" lon="14.5361733"><ele>3.0</ele><time>2026-04-26T07:22:44.89Z</time></trkpt><trkpt lat="42.23687" lon="14.5360333"><ele>3.0</ele><time>2026-04-26T07:22:46.889Z</time></trkpt><trkpt lat="42.236925" lon="14.5358883"><ele>3.0</ele><time>2026-04-26T07:22:48.889Z</time></trkpt><trkpt lat="42.23698" lon="14.5357467"><ele>3.0</ele><time>2026-04-26T07:22:50.889Z</time></trkpt><trkpt lat="42.2370317" lon="14.535615"><ele>3.0</ele><time>2026-04-26T07:22:52.89Z</time></trkpt><trkpt lat="42.2370867" lon="14.5355017"><ele>3.0</ele><time>2026-04-26T07:22:54.89Z</time></trkpt><trkpt lat="42.2371533" lon="14.5354117"><ele>3.0</ele><time>2026-04-26T07:22:56.89Z</time></trkpt><trkpt lat="42.2372283" lon="14.5353233"><ele>3.0</ele><time>2026-04-26T07:22:58.89Z</time></trkpt><trkpt lat="42.2372967" lon="14.5352067"><ele>3.0</ele><time>2026-04-26T07:23:00.889Z</time></trkpt><trkpt lat="42.23736" lon="14.5350767"><ele>3.0</ele><time>2026-04-26T07:23:02.89Z</time></trkpt><trkpt lat="42.2374217" lon="14.5349417"><ele>3.0</ele><time>2026-04-26T07:23:04.89Z</time></trkpt><trkpt lat="42.23748" lon="14.5348183"><ele>3.0</ele><time>2026-04-26T07:23:06.889Z</time></trkpt><trkpt lat="42.23754" lon="14.5346967"><ele>3.0</ele><time>2026-04-26T07:23:08.889Z</time></trkpt><trkpt lat="42.2376" lon="14.5345667"><ele>3.0</ele><time>2026-04-26T07:23:10.89Z</time></trkpt><trkpt lat="42.2376333" lon="14.53449"><ele>3.0</ele><time>2026-04-26T07:23:11.89Z</time></trkpt><trkpt lat="42.237665" lon="14.534415"><ele>3.0</ele><time>2026-04-26T07:23:12.889Z</time></trkpt><trkpt lat="42.2376983" lon="14.5343417"><ele>3.0</ele><time>2026-04-26T07:23:13.89Z</time></trkpt><trkpt lat="42.2377617" lon="14.5341967"><ele>3.0</ele><time>2026-04-26T07:23:15.89Z</time></trkpt><trkpt lat="42.2378317" lon="14.53406"><ele>3.0</ele><time>2026-04-26T07:23:17.89Z</time></trkpt><trkpt lat="42.2378667" lon="14.533985"><ele>3.0</ele><time>2026-04-26T07:23:18.889Z</time></trkpt><trkpt lat="42.2379283" lon="14.5338417"><ele>3.0</ele><time>2026-04-26T07:23:20.889Z</time></trkpt><trkpt lat="42.2379883" lon="14.5337083"><ele>3.0</ele><time>2026-04-26T07:23:22.89Z</time></trkpt><trkpt lat="42.2380483" lon="14.533575"><ele>3.0</ele><time>2026-04-26T07:23:24.89Z</time></trkpt><trkpt lat="42.23811" lon="14.5334483"><ele>3.0</ele><time>2026-04-26T07:23:26.89Z</time></trkpt><trkpt lat="42.2381717" lon="14.5333133"><ele>3.25</ele><time>2026-04-26T07:23:28.89Z</time></trkpt><trkpt lat="42.2382333" lon="14.53318"><ele>3.5</ele><time>2026-04-26T07:23:30.89Z</time></trkpt><trkpt lat="42.238295" lon="14.5330467"><ele>3.75</ele><time>2026-04-26T07:23:32.89Z</time></trkpt><trkpt lat="42.238355" lon="14.5329117"><ele>4.0</ele><time>2026-04-26T07:23:34.89Z</time></trkpt><trkpt lat="42.2384133" lon="14.532775"><ele>4.0</ele><time>2026-04-26T07:23:36.889Z</time></trkpt><trkpt lat="42.2384767" lon="14.532645"><ele>4.0</ele><time>2026-04-26T07:23:38.889Z</time></trkpt><trkpt lat="42.238535" lon="14.53252"><ele>4.0</ele><time>2026-04-26T07:23:40.889Z</time></trkpt><trkpt lat="42.2385983" lon="14.5323933"><ele>4.0</ele><time>2026-04-26T07:23:42.89Z</time></trkpt><trkpt lat="42.238655" lon="14.5322617"><ele>4.0</ele><time>2026-04-26T07:23:44.889Z</time></trkpt><trkpt lat="42.23872" lon="14.5321267"><ele>4.0</ele><time>2026-04-26T07:23:46.89Z</time></trkpt><trkpt lat="42.238775" lon="14.5319933"><ele>4.0</ele><time>2026-04-26T07:23:48.89Z</time></trkpt><trkpt lat="42.2388367" lon="14.53186"><ele>4.0</ele><time>2026-04-26T07:23:50.889Z</time></trkpt><trkpt lat="42.238895" lon="14.53174"><ele>3.5</ele><time>2026-04-26T07:23:52.89Z</time></trkpt><trkpt lat="42.23896" lon="14.5316167"><ele>3.0</ele><time>2026-04-26T07:23:54.889Z</time></trkpt><trkpt lat="42.2390267" lon="14.531495"><ele>2.5</ele><time>2026-04-26T07:23:56.89Z</time></trkpt><trkpt lat="42.23909" lon="14.53136"><ele>2.0</ele><time>2026-04-26T07:23:58.889Z</time></trkpt><trkpt lat="42.23915" lon="14.5312183"><ele>1.8</ele><time>2026-04-26T07:24:00.889Z</time></trkpt><trkpt lat="42.2392083" lon="14.5310683"><ele>1.6</ele><time>2026-04-26T07:24:02.89Z</time></trkpt><trkpt lat="42.2392383" lon="14.5309933"><ele>1.4000000000000001</ele><time>2026-04-26T07:24:03.889Z</time></trkpt><trkpt lat="42.2392933" lon="14.5308617"><ele>1.2000000000000002</ele><time>2026-04-26T07:24:05.89Z</time></trkpt><trkpt lat="42.23935" lon="14.5307317"><ele>1.0</ele><time>2026-04-26T07:24:07.89Z</time></trkpt><trkpt lat="42.239405" lon="14.5306"><ele>1.0</ele><time>2026-04-26T07:24:09.89Z</time></trkpt><trkpt lat="42.2394667" lon="14.5304667"><ele>1.0</ele><time>2026-04-26T07:24:11.889Z</time></trkpt><trkpt lat="42.2395283" lon="14.5303383"><ele>1.0</ele><time>2026-04-26T07:24:13.889Z</time></trkpt><trkpt lat="42.2395917" lon="14.5302117"><ele>1.0</ele><time>2026-04-26T07:24:15.89Z</time></trkpt><trkpt lat="42.2396533" lon="14.53008"><ele>1.0</ele><time>2026-04-26T07:24:17.889Z</time></trkpt><trkpt lat="42.23971" lon="14.52995"><ele>1.0</ele><time>2026-04-26T07:24:19.89Z</time></trkpt><trkpt lat="42.2397683" lon="14.52982"><ele>1.0</ele><time>2026-04-26T07:24:21.89Z</time></trkpt><trkpt lat="42.2398333" lon="14.5296767"><ele>1.0</ele><time>2026-04-26T07:24:23.89Z</time></trkpt><trkpt lat="42.2399" lon="14.5295383"><ele>1.0</ele><time>2026-04-26T07:24:25.889Z</time></trkpt><trkpt lat="42.2399633" lon="14.5294"><ele>1.0</ele><time>2026-04-26T07:24:27.89Z</time></trkpt><trkpt lat="42.240035" lon="14.5292633"><ele>1.0</ele><time>2026-04-26T07:24:29.89Z</time></trkpt><trkpt lat="42.2400667" lon="14.5291867"><ele>1.0</ele><time>2026-04-26T07:24:30.889Z</time></trkpt><trkpt lat="42.240125" lon="14.5290417"><ele>1.0</ele><time>2026-04-26T07:24:32.89Z</time></trkpt><trkpt lat="42.2401833" lon="14.528905"><ele>1.0</ele><time>2026-04-26T07:24:34.89Z</time></trkpt><trkpt lat="42.2402467" lon="14.5287633"><ele>1.0</ele><time>2026-04-26T07:24:36.89Z</time></trkpt><trkpt lat="42.2403083" lon="14.5286267"><ele>1.0</ele><time>2026-04-26T07:24:38.89Z</time></trkpt><trkpt lat="42.2403683" lon="14.52849"><ele>1.0</ele><time>2026-04-26T07:24:40.89Z</time></trkpt><trkpt lat="42.2404267" lon="14.5283633"><ele>0.75</ele><time>2026-04-26T07:24:42.89Z</time></trkpt><trkpt lat="42.2404867" lon="14.528225"><ele>0.5</ele><time>2026-04-26T07:24:44.89Z</time></trkpt><trkpt lat="42.2405467" lon="14.52809"><ele>0.25</ele><time>2026-04-26T07:24:46.89Z</time></trkpt><trkpt lat="42.2406033" lon="14.52796"><ele>0.0</ele><time>2026-04-26T07:24:48.889Z</time></trkpt><trkpt lat="42.2406633" lon="14.527825"><ele>0.0</ele><time>2026-04-26T07:24:50.89Z</time></trkpt><trkpt lat="42.2407217" lon="14.5276967"><ele>0.0</ele><time>2026-04-26T07:24:52.89Z</time></trkpt><trkpt lat="42.2407867" lon="14.527565"><ele>0.0</ele><time>2026-04-26T07:24:54.89Z</time></trkpt><trkpt lat="42.2408483" lon="14.5274333"><ele>0.0</ele><time>2026-04-26T07:24:56.89Z</time></trkpt><trkpt lat="42.24091" lon="14.5273017"><ele>0.0</ele><time>2026-04-26T07:24:58.889Z</time></trkpt><trkpt lat="42.2409717" lon="14.5271667"><ele>0.0</ele><time>2026-04-26T07:25:00.89Z</time></trkpt><trkpt lat="42.2410017" lon="14.5270917"><ele>0.0</ele><time>2026-04-26T07:25:01.89Z</time></trkpt><trkpt lat="42.241065" lon="14.5269567"><ele>0.0</ele><time>2026-04-26T07:25:03.89Z</time></trkpt><trkpt lat="42.2411267" lon="14.5268183"><ele>0.0</ele><time>2026-04-26T07:25:05.89Z</time></trkpt><trkpt lat="42.2411883" lon="14.5266817"><ele>0.25</ele><time>2026-04-26T07:25:07.89Z</time></trkpt><trkpt lat="42.24125" lon="14.5265433"><ele>0.5</ele><time>2026-04-26T07:25:09.89Z</time></trkpt><trkpt lat="42.2413133" lon="14.5264067"><ele>0.75</ele><time>2026-04-26T07:25:11.89Z</time></trkpt><trkpt lat="42.2413683" lon="14.5262667"><ele>1.0</ele><time>2026-04-26T07:25:13.89Z</time></trkpt><trkpt lat="42.2414233" lon="14.5261317"><ele>1.25</ele><time>2026-04-26T07:25:15.89Z</time></trkpt><trkpt lat="42.2414833" lon="14.52599"><ele>1.5</ele><time>2026-04-26T07:25:17.889Z</time></trkpt><trkpt lat="42.2415433" lon="14.52587"><ele>1.75</ele><time>2026-04-26T07:25:19.89Z</time></trkpt><trkpt lat="42.2416117" lon="14.5257383"><ele>2.0</ele><time>2026-04-26T07:25:21.89Z</time></trkpt><trkpt lat="42.2416733" lon="14.5256033"><ele>2.0</ele><time>2026-04-26T07:25:23.89Z</time></trkpt><trkpt lat="42.2417383" lon="14.5254717"><ele>2.0</ele><time>2026-04-26T07:25:25.889Z</time></trkpt><trkpt lat="42.2418" lon="14.525335"><ele>2.0</ele><time>2026-04-26T07:25:27.89Z</time></trkpt><trkpt lat="42.2418617" lon="14.5252"><ele>2.0</ele><time>2026-04-26T07:25:29.889Z</time></trkpt><trkpt lat="42.2419233" lon="14.52507"><ele>1.75</ele><time>2026-04-26T07:25:31.89Z</time></trkpt><trkpt lat="42.2419833" lon="14.5249317"><ele>1.5</ele><time>2026-04-26T07:25:33.889Z</time></trkpt><trkpt lat="42.2420383" lon="14.524795"><ele>1.25</ele><time>2026-04-26T07:25:35.89Z</time></trkpt><trkpt lat="42.2420933" lon="14.5246667"><ele>1.0</ele><time>2026-04-26T07:25:37.89Z</time></trkpt><trkpt lat="42.2421567" lon="14.5245317"><ele>1.25</ele><time>2026-04-26T07:25:39.89Z</time></trkpt><trkpt lat="42.24222" lon="14.5243983"><ele>1.5</ele><time>2026-04-26T07:25:41.89Z</time></trkpt><trkpt lat="42.242285" lon="14.5242667"><ele>1.75</ele><time>2026-04-26T07:25:43.889Z</time></trkpt><trkpt lat="42.2423517" lon="14.52413"><ele>2.0</ele><time>2026-04-26T07:25:45.889Z</time></trkpt><trkpt lat="42.24241" lon="14.5239933"><ele>2.0</ele><time>2026-04-26T07:25:47.89Z</time></trkpt><trkpt lat="42.2424667" lon="14.5238617"><ele>2.0</ele><time>2026-04-26T07:25:49.89Z</time></trkpt><trkpt lat="42.24253" lon="14.52372"><ele>2.0</ele><time>2026-04-26T07:25:51.889Z</time></trkpt><trkpt lat="42.242595" lon="14.523585"><ele>2.0</ele><time>2026-04-26T07:25:53.89Z</time></trkpt><trkpt lat="42.242655" lon="14.52345"><ele>1.75</ele><time>2026-04-26T07:25:55.889Z</time></trkpt><trkpt lat="42.2427183" lon="14.5233183"><ele>1.5</ele><time>2026-04-26T07:25:57.89Z</time></trkpt><trkpt lat="42.2427817" lon="14.52318"><ele>1.25</ele><time>2026-04-26T07:25:59.89Z</time></trkpt><trkpt lat="42.2428367" lon="14.52305"><ele>1.0</ele><time>2026-04-26T07:26:01.889Z</time></trkpt><trkpt lat="42.2428983" lon="14.522925"><ele>1.0</ele><time>2026-04-26T07:26:03.89Z</time></trkpt><trkpt lat="42.2429567" lon="14.5227933"><ele>1.0</ele><time>2026-04-26T07:26:05.889Z</time></trkpt><trkpt lat="42.2430167" lon="14.5226617"><ele>1.0</ele><time>2026-04-26T07:26:07.889Z</time></trkpt><trkpt lat="42.24308" lon="14.5225317"><ele>1.0</ele><time>2026-04-26T07:26:09.89Z</time></trkpt><trkpt lat="42.2431383" lon="14.5224083"><ele>1.2000000000000002</ele><time>2026-04-26T07:26:11.89Z</time></trkpt><trkpt lat="42.2431883" lon="14.5222983"><ele>1.4000000000000001</ele><time>2026-04-26T07:26:13.89Z</time></trkpt><trkpt lat="42.2432267" lon="14.5222117"><ele>1.6</ele><time>2026-04-26T07:26:15.89Z</time></trkpt><trkpt lat="42.243275" lon="14.522115"><ele>1.8</ele><time>2026-04-26T07:26:17.89Z</time></trkpt><trkpt lat="42.2433333" lon="14.5220117"><ele>2.0</ele><time>2026-04-26T07:26:19.89Z</time></trkpt><trkpt lat="42.2433917" lon="14.521885"><ele>2.2</ele><time>2026-04-26T07:26:21.89Z</time></trkpt><trkpt lat="42.2434467" lon="14.52177"><ele>2.4000000000000004</ele><time>2026-04-26T07:26:23.89Z</time></trkpt><trkpt lat="42.2435067" lon="14.5216633"><ele>2.5999999999999996</ele><time>2026-04-26T07:26:25.889Z</time></trkpt><trkpt lat="42.2435667" lon="14.5215467"><ele>2.8</ele><time>2026-04-26T07:26:27.889Z</time></trkpt><trkpt lat="42.243635" lon="14.5214167"><ele>3.0</ele><time>2026-04-26T07:26:29.889Z</time></trkpt><trkpt lat="42.2436933" lon="14.52127"><ele>3.75</ele><time>2026-04-26T07:26:31.889Z</time></trkpt><trkpt lat="42.243745" lon="14.5211217"><ele>4.5</ele><time>2026-04-26T07:26:33.889Z</time></trkpt><trkpt lat="42.2438033" lon="14.5209767"><ele>5.25</ele><time>2026-04-26T07:26:35.89Z</time></trkpt><trkpt lat="42.2438683" lon="14.5208383"><ele>6.0</ele><time>2026-04-26T07:26:37.889Z</time></trkpt><trkpt lat="42.2439267" lon="14.5207083"><ele>6.0</ele><time>2026-04-26T07:26:39.89Z</time></trkpt><trkpt lat="42.2439867" lon="14.52058"><ele>6.0</ele><time>2026-04-26T07:26:41.89Z</time></trkpt><trkpt lat="42.2440467" lon="14.520445"><ele>6.0</ele><time>2026-04-26T07:26:43.889Z</time></trkpt><trkpt lat="42.2440817" lon="14.5203683"><ele>6.0</ele><time>2026-04-26T07:26:44.889Z</time></trkpt><trkpt lat="42.244145" lon="14.5202333"><ele>6.0</ele><time>2026-04-26T07:26:46.889Z</time></trkpt><trkpt lat="42.2442033" lon="14.5201"><ele>6.6</ele><time>2026-04-26T07:26:48.889Z</time></trkpt><trkpt lat="42.2442367" lon="14.520025"><ele>7.199999999999999</ele><time>2026-04-26T07:26:49.889Z</time></trkpt><trkpt lat="42.2442967" lon="14.5198883"><ele>7.800000000000001</ele><time>2026-04-26T07:26:51.889Z</time></trkpt><trkpt lat="42.2443617" lon="14.5197467"><ele>8.4</ele><time>2026-04-26T07:26:53.89Z</time></trkpt><trkpt lat="42.2444267" lon="14.5196067"><ele>9.0</ele><time>2026-04-26T07:26:55.889Z</time></trkpt><trkpt lat="42.2444867" lon="14.5194767"><ele>9.0</ele><time>2026-04-26T07:26:57.89Z</time></trkpt><trkpt lat="42.244545" lon="14.5193483"><ele>9.0</ele><time>2026-04-26T07:26:59.89Z</time></trkpt><trkpt lat="42.2446067" lon="14.51921"><ele>9.0</ele><time>2026-04-26T07:27:01.889Z</time></trkpt><trkpt lat="42.244665" lon="14.5190767"><ele>9.0</ele><time>2026-04-26T07:27:03.889Z</time></trkpt><trkpt lat="42.2447183" lon="14.5189533"><ele>9.0</ele><time>2026-04-26T07:27:05.89Z</time></trkpt><trkpt lat="42.2447817" lon="14.5188333"><ele>9.0</ele><time>2026-04-26T07:27:07.89Z</time></trkpt><trkpt lat="42.2448517" lon="14.518705"><ele>9.0</ele><time>2026-04-26T07:27:09.889Z</time></trkpt><trkpt lat="42.2449183" lon="14.518575"><ele>9.0</ele><time>2026-04-26T07:27:11.89Z</time></trkpt><trkpt lat="42.2449867" lon="14.5184483"><ele>8.5</ele><time>2026-04-26T07:27:13.89Z</time></trkpt><trkpt lat="42.2450533" lon="14.5183217"><ele>8.0</ele><time>2026-04-26T07:27:15.89Z</time></trkpt><trkpt lat="42.2451117" lon="14.51818"><ele>7.5</ele><time>2026-04-26T07:27:17.89Z</time></trkpt><trkpt lat="42.245175" lon="14.5180567"><ele>7.0</ele><time>2026-04-26T07:27:19.89Z</time></trkpt><trkpt lat="42.2452383" lon="14.517935"><ele>7.3999999999999995</ele><time>2026-04-26T07:27:21.889Z</time></trkpt><trkpt lat="42.2453067" lon="14.5178"><ele>7.799999999999999</ele><time>2026-04-26T07:27:23.89Z</time></trkpt><trkpt lat="42.2453467" lon="14.51773"><ele>8.2</ele><time>2026-04-26T07:27:24.89Z</time></trkpt><trkpt lat="42.2454183" lon="14.5176083"><ele>8.6</ele><time>2026-04-26T07:27:26.89Z</time></trkpt><trkpt lat="42.2454883" lon="14.5174933"><ele>9.0</ele><time>2026-04-26T07:27:28.89Z</time></trkpt><trkpt lat="42.2455583" lon="14.5173733"><ele>8.6</ele><time>2026-04-26T07:27:30.89Z</time></trkpt><trkpt lat="42.2456317" lon="14.51725"><ele>8.2</ele><time>2026-04-26T07:27:32.89Z</time></trkpt><trkpt lat="42.2457033" lon="14.5171267"><ele>7.799999999999999</ele><time>2026-04-26T07:27:34.89Z</time></trkpt><trkpt lat="42.2457417" lon="14.5170567"><ele>7.3999999999999995</ele><time>2026-04-26T07:27:35.889Z</time></trkpt><trkpt lat="42.245815" lon="14.5169267"><ele>7.0</ele><time>2026-04-26T07:27:37.89Z</time></trkpt><trkpt lat="42.2458867" lon="14.5167967"><ele>7.0</ele><time>2026-04-26T07:27:39.89Z</time></trkpt><trkpt lat="42.245965" lon="14.5166817"><ele>7.0</ele><time>2026-04-26T07:27:41.889Z</time></trkpt><trkpt lat="42.2460417" lon="14.5165667"><ele>7.0</ele><time>2026-04-26T07:27:43.89Z</time></trkpt><trkpt lat="42.24612" lon="14.5164467"><ele>7.0</ele><time>2026-04-26T07:27:45.89Z</time></trkpt><trkpt lat="42.2461933" lon="14.51633"><ele>7.0</ele><time>2026-04-26T07:27:47.89Z</time></trkpt><trkpt lat="42.246235" lon="14.516265"><ele>6.999999999999999</ele><time>2026-04-26T07:27:48.89Z</time></trkpt><trkpt lat="42.2463083" lon="14.5161367"><ele>6.999999999999999</ele><time>2026-04-26T07:27:50.889Z</time></trkpt><trkpt lat="42.2463483" lon="14.5160667"><ele>7.0</ele><time>2026-04-26T07:27:51.89Z</time></trkpt><trkpt lat="42.24642" lon="14.51593"><ele>7.0</ele><time>2026-04-26T07:27:53.89Z</time></trkpt><trkpt lat="42.2465033" lon="14.5158167"><ele>7.25</ele><time>2026-04-26T07:27:55.89Z</time></trkpt><trkpt lat="42.2465733" lon="14.5156983"><ele>7.5</ele><time>2026-04-26T07:27:57.89Z</time></trkpt><trkpt lat="42.2466533" lon="14.51558"><ele>7.75</ele><time>2026-04-26T07:27:59.89Z</time></trkpt><trkpt lat="42.24673" lon="14.5154667"><ele>8.0</ele><time>2026-04-26T07:28:01.889Z</time></trkpt><trkpt lat="42.246805" lon="14.51535"><ele>9.5</ele><time>2026-04-26T07:28:03.89Z</time></trkpt><trkpt lat="42.2468817" lon="14.5152267"><ele>11.0</ele><time>2026-04-26T07:28:05.89Z</time></trkpt><trkpt lat="42.2469583" lon="14.5151017"><ele>12.5</ele><time>2026-04-26T07:28:07.89Z</time></trkpt><trkpt lat="42.247035" lon="14.51498"><ele>14.0</ele><time>2026-04-26T07:28:09.89Z</time></trkpt><trkpt lat="42.2471067" lon="14.514865"><ele>14.0</ele><time>2026-04-26T07:28:11.89Z</time></trkpt><trkpt lat="42.2471783" lon="14.5147517"><ele>13.999999999999998</ele><time>2026-04-26T07:28:13.89Z</time></trkpt><trkpt lat="42.2472217" lon="14.5146783"><ele>13.999999999999998</ele><time>2026-04-26T07:28:14.89Z</time></trkpt><trkpt lat="42.247295" lon="14.5145567"><ele>14.0</ele><time>2026-04-26T07:28:16.89Z</time></trkpt><trkpt lat="42.2473667" lon="14.5144367"><ele>14.0</ele><time>2026-04-26T07:28:18.889Z</time></trkpt><trkpt lat="42.2474417" lon="14.5143167"><ele>12.799999999999999</ele><time>2026-04-26T07:28:20.89Z</time></trkpt><trkpt lat="42.247515" lon="14.514185"><ele>11.599999999999998</ele><time>2026-04-26T07:28:22.89Z</time></trkpt><trkpt lat="42.2475567" lon="14.5141167"><ele>10.4</ele><time>2026-04-26T07:28:23.89Z</time></trkpt><trkpt lat="42.2476317" lon="14.51399"><ele>9.2</ele><time>2026-04-26T07:28:25.89Z</time></trkpt><trkpt lat="42.247705" lon="14.5138717"><ele>8.0</ele><time>2026-04-26T07:28:27.89Z</time></trkpt><trkpt lat="42.2477767" lon="14.51376"><ele>10.0</ele><time>2026-04-26T07:28:29.89Z</time></trkpt><trkpt lat="42.2478533" lon="14.5136417"><ele>12.0</ele><time>2026-04-26T07:28:31.889Z</time></trkpt><trkpt lat="42.247925" lon="14.51352"><ele>14.0</ele><time>2026-04-26T07:28:33.89Z</time></trkpt><trkpt lat="42.2479983" lon="14.5134033"><ele>16.0</ele><time>2026-04-26T07:28:35.89Z</time></trkpt><trkpt lat="42.24807" lon="14.513285"><ele>14.5</ele><time>2026-04-26T07:28:37.89Z</time></trkpt><trkpt lat="42.2481483" lon="14.5131617"><ele>13.0</ele><time>2026-04-26T07:28:39.89Z</time></trkpt><trkpt lat="42.248215" lon="14.5130433"><ele>11.5</ele><time>2026-04-26T07:28:41.889Z</time></trkpt><trkpt lat="42.2482917" lon="14.51292"><ele>10.0</ele><time>2026-04-26T07:28:43.89Z</time></trkpt><trkpt lat="42.248365" lon="14.5128033"><ele>10.0</ele><time>2026-04-26T07:28:45.89Z</time></trkpt><trkpt lat="42.2484433" lon="14.512675"><ele>10.0</ele><time>2026-04-26T07:28:47.889Z</time></trkpt><trkpt lat="42.248525" lon="14.5125633"><ele>10.0</ele><time>2026-04-26T07:28:49.889Z</time></trkpt><trkpt lat="42.2486" lon="14.5124433"><ele>10.0</ele><time>2026-04-26T07:28:51.889Z</time></trkpt><trkpt lat="42.248675" lon="14.51232"><ele>10.0</ele><time>2026-04-26T07:28:53.89Z</time></trkpt><trkpt lat="42.2487483" lon="14.5121933"><ele>10.0</ele><time>2026-04-26T07:28:55.89Z</time></trkpt><trkpt lat="42.2488183" lon="14.5120833"><ele>10.0</ele><time>2026-04-26T07:28:57.89Z</time></trkpt><trkpt lat="42.2488983" lon="14.51196"><ele>10.0</ele><time>2026-04-26T07:28:59.89Z</time></trkpt><trkpt lat="42.2489733" lon="14.5118433"><ele>9.0</ele><time>2026-04-26T07:29:01.889Z</time></trkpt><trkpt lat="42.249045" lon="14.5117217"><ele>8.0</ele><time>2026-04-26T07:29:03.89Z</time></trkpt><trkpt lat="42.2491133" lon="14.5115933"><ele>7.0</ele><time>2026-04-26T07:29:05.89Z</time></trkpt><trkpt lat="42.249185" lon="14.5114683"><ele>6.0</ele><time>2026-04-26T07:29:07.89Z</time></trkpt><trkpt lat="42.2492567" lon="14.5113517"><ele>7.8</ele><time>2026-04-26T07:29:09.889Z</time></trkpt><trkpt lat="42.24933" lon="14.5112367"><ele>9.6</ele><time>2026-04-26T07:29:11.89Z</time></trkpt><trkpt lat="42.2494017" lon="14.5111217"><ele>11.4</ele><time>2026-04-26T07:29:13.89Z</time></trkpt><trkpt lat="42.2494717" lon="14.5110133"><ele>13.2</ele><time>2026-04-26T07:29:15.89Z</time></trkpt><trkpt lat="42.249545" lon="14.5108917"><ele>15.0</ele><time>2026-04-26T07:29:17.888Z</time></trkpt><trkpt lat="42.24962" lon="14.510775"><ele>15.0</ele><time>2026-04-26T07:29:19.888Z</time></trkpt><trkpt lat="42.2497" lon="14.5106533"><ele>15.0</ele><time>2026-04-26T07:29:21.888Z</time></trkpt><trkpt lat="42.2497417" lon="14.5105867"><ele>15.0</ele><time>2026-04-26T07:29:22.888Z</time></trkpt><trkpt lat="42.2498217" lon="14.5104717"><ele>15.0</ele><time>2026-04-26T07:29:24.889Z</time></trkpt><trkpt lat="42.249905" lon="14.5103617"><ele>15.0</ele><time>2026-04-26T07:29:26.888Z</time></trkpt><trkpt lat="42.2499733" lon="14.51024"><ele>14.2</ele><time>2026-04-26T07:29:28.889Z</time></trkpt><trkpt lat="42.2500467" lon="14.5101283"><ele>13.4</ele><time>2026-04-26T07:29:30.889Z</time></trkpt><trkpt lat="42.2501267" lon="14.51001"><ele>12.600000000000001</ele><time>2026-04-26T07:29:32.888Z</time></trkpt><trkpt lat="42.2502067" lon="14.5098933"><ele>11.8</ele><time>2026-04-26T07:29:34.889Z</time></trkpt><trkpt lat="42.2502517" lon="14.5098333"><ele>11.0</ele><time>2026-04-26T07:29:35.889Z</time></trkpt><trkpt lat="42.2503383" lon="14.5097183"><ele>11.0</ele><time>2026-04-26T07:29:37.889Z</time></trkpt><trkpt lat="42.2504283" lon="14.5096183"><ele>11.0</ele><time>2026-04-26T07:29:39.889Z</time></trkpt><trkpt lat="42.2505117" lon="14.5095217"><ele>11.0</ele><time>2026-04-26T07:29:41.888Z</time></trkpt><trkpt lat="42.25061" lon="14.50943"><ele>11.0</ele><time>2026-04-26T07:29:43.889Z</time></trkpt><trkpt lat="42.2506933" lon="14.5093283"><ele>11.200000000000001</ele><time>2026-04-26T07:29:45.889Z</time></trkpt><trkpt lat="42.2507767" lon="14.5092383"><ele>11.4</ele><time>2026-04-26T07:29:47.889Z</time></trkpt><trkpt lat="42.250875" lon="14.50914"><ele>11.6</ele><time>2026-04-26T07:29:49.889Z</time></trkpt><trkpt lat="42.250925" lon="14.5090867"><ele>11.8</ele><time>2026-04-26T07:29:50.888Z</time></trkpt><trkpt lat="42.2510183" lon="14.508995"><ele>12.0</ele><time>2026-04-26T07:29:52.888Z</time></trkpt><trkpt lat="42.25111" lon="14.5088967"><ele>12.0</ele><time>2026-04-26T07:29:54.889Z</time></trkpt><trkpt lat="42.2512" lon="14.5088017"><ele>12.0</ele><time>2026-04-26T07:29:56.889Z</time></trkpt><trkpt lat="42.2512933" lon="14.5087017"><ele>12.0</ele><time>2026-04-26T07:29:58.889Z</time></trkpt><trkpt lat="42.2513767" lon="14.5086017"><ele>12.0</ele><time>2026-04-26T07:30:00.889Z</time></trkpt><trkpt lat="42.2514583" lon="14.5085133"><ele>12.0</ele><time>2026-04-26T07:30:02.889Z</time></trkpt><trkpt lat="42.2515433" lon="14.5084267"><ele>10.75</ele><time>2026-04-26T07:30:04.889Z</time></trkpt><trkpt lat="42.251635" lon="14.50834"><ele>9.5</ele><time>2026-04-26T07:30:06.888Z</time></trkpt><trkpt lat="42.2517283" lon="14.5082467"><ele>8.25</ele><time>2026-04-26T07:30:08.888Z</time></trkpt><trkpt lat="42.2518267" lon="14.50816"><ele>7.0</ele><time>2026-04-26T07:30:10.889Z</time></trkpt><trkpt lat="42.2519217" lon="14.50806"><ele>7.0</ele><time>2026-04-26T07:30:12.888Z</time></trkpt><trkpt lat="42.2519733" lon="14.50801"><ele>6.999999999999999</ele><time>2026-04-26T07:30:13.889Z</time></trkpt><trkpt lat="42.2520167" lon="14.5079467"><ele>6.999999999999999</ele><time>2026-04-26T07:30:14.889Z</time></trkpt><trkpt lat="42.252105" lon="14.5078583"><ele>7.0</ele><time>2026-04-26T07:30:16.889Z</time></trkpt><trkpt lat="42.252195" lon="14.507755"><ele>7.0</ele><time>2026-04-26T07:30:18.888Z</time></trkpt><trkpt lat="42.252295" lon="14.5076683"><ele>6.8</ele><time>2026-04-26T07:30:20.889Z</time></trkpt><trkpt lat="42.252395" lon="14.5075767"><ele>6.6</ele><time>2026-04-26T07:30:22.889Z</time></trkpt><trkpt lat="42.2524917" lon="14.5074883"><ele>6.3999999999999995</ele><time>2026-04-26T07:30:24.888Z</time></trkpt><trkpt lat="42.2525883" lon="14.5074017"><ele>6.199999999999999</ele><time>2026-04-26T07:30:26.889Z</time></trkpt><trkpt lat="42.252675" lon="14.5073517"><ele>6.0</ele><time>2026-04-26T07:30:28.888Z</time></trkpt><trkpt lat="42.2527667" lon="14.50728"><ele>6.0</ele><time>2026-04-26T07:30:30.889Z</time></trkpt><trkpt lat="42.2528617" lon="14.507195"><ele>6.0</ele><time>2026-04-26T07:30:32.889Z</time></trkpt><trkpt lat="42.2529683" lon="14.5071167"><ele>6.0</ele><time>2026-04-26T07:30:34.888Z</time></trkpt><trkpt lat="42.2530233" lon="14.5070733"><ele>6.0</ele><time>2026-04-26T07:30:35.888Z</time></trkpt><trkpt lat="42.2531183" lon="14.50698"><ele>6.0</ele><time>2026-04-26T07:30:37.888Z</time></trkpt><trkpt lat="42.2531683" lon="14.5069283"><ele>6.199999999999999</ele><time>2026-04-26T07:30:38.889Z</time></trkpt><trkpt lat="42.2532667" lon="14.5068467"><ele>6.3999999999999995</ele><time>2026-04-26T07:30:40.889Z</time></trkpt><trkpt lat="42.2533717" lon="14.5067683"><ele>6.6</ele><time>2026-04-26T07:30:42.889Z</time></trkpt><trkpt lat="42.2534617" lon="14.5067117"><ele>6.8</ele><time>2026-04-26T07:30:44.889Z</time></trkpt><trkpt lat="42.2535567" lon="14.50663"><ele>7.0</ele><time>2026-04-26T07:30:46.889Z</time></trkpt><trkpt lat="42.2536583" lon="14.50654"><ele>7.0</ele><time>2026-04-26T07:30:48.889Z</time></trkpt><trkpt lat="42.2537633" lon="14.5064617"><ele>6.999999999999999</ele><time>2026-04-26T07:30:50.889Z</time></trkpt><trkpt lat="42.2538183" lon="14.50642"><ele>6.999999999999999</ele><time>2026-04-26T07:30:51.889Z</time></trkpt><trkpt lat="42.2539233" lon="14.506335"><ele>7.0</ele><time>2026-04-26T07:30:53.888Z</time></trkpt><trkpt lat="42.2540233" lon="14.50625"><ele>7.0</ele><time>2026-04-26T07:30:55.889Z</time></trkpt><trkpt lat="42.2541183" lon="14.506175"><ele>7.5</ele><time>2026-04-26T07:30:57.888Z</time></trkpt><trkpt lat="42.25421" lon="14.50609"><ele>8.0</ele><time>2026-04-26T07:30:59.889Z</time></trkpt><trkpt lat="42.25431" lon="14.506005"><ele>8.5</ele><time>2026-04-26T07:31:01.889Z</time></trkpt><trkpt lat="42.2544117" lon="14.5059133"><ele>9.0</ele><time>2026-04-26T07:31:03.889Z</time></trkpt><trkpt lat="42.2545033" lon="14.505835"><ele>9.0</ele><time>2026-04-26T07:31:05.888Z</time></trkpt><trkpt lat="42.254595" lon="14.5057467"><ele>9.0</ele><time>2026-04-26T07:31:07.888Z</time></trkpt><trkpt lat="42.2546467" lon="14.5056967"><ele>9.0</ele><time>2026-04-26T07:31:08.888Z</time></trkpt><trkpt lat="42.2547467" lon="14.5056033"><ele>9.0</ele><time>2026-04-26T07:31:10.889Z</time></trkpt><trkpt lat="42.2548417" lon="14.5055217"><ele>9.0</ele><time>2026-04-26T07:31:12.888Z</time></trkpt><trkpt lat="42.25494" lon="14.5054367"><ele>9.8</ele><time>2026-04-26T07:31:14.889Z</time></trkpt><trkpt lat="42.2549917" lon="14.5053867"><ele>10.600000000000001</ele><time>2026-04-26T07:31:15.889Z</time></trkpt><trkpt lat="42.2550883" lon="14.5053017"><ele>11.4</ele><time>2026-04-26T07:31:17.889Z</time></trkpt><trkpt lat="42.25519" lon="14.505225"><ele>12.200000000000001</ele><time>2026-04-26T07:31:19.889Z</time></trkpt><trkpt lat="42.2552883" lon="14.5051367"><ele>13.0</ele><time>2026-04-26T07:31:21.889Z</time></trkpt><trkpt lat="42.255385" lon="14.505045"><ele>13.0</ele><time>2026-04-26T07:31:23.888Z</time></trkpt><trkpt lat="42.25548" lon="14.5049533"><ele>13.0</ele><time>2026-04-26T07:31:25.889Z</time></trkpt><trkpt lat="42.2555783" lon="14.5048733"><ele>13.0</ele><time>2026-04-26T07:31:27.889Z</time></trkpt><trkpt lat="42.2556783" lon="14.504795"><ele>13.0</ele><time>2026-04-26T07:31:29.889Z</time></trkpt><trkpt lat="42.2557783" lon="14.5047167"><ele>14.0</ele><time>2026-04-26T07:31:31.888Z</time></trkpt><trkpt lat="42.2558833" lon="14.50463"><ele>15.0</ele><time>2026-04-26T07:31:33.888Z</time></trkpt><trkpt lat="42.2559783" lon="14.50455"><ele>16.0</ele><time>2026-04-26T07:31:35.889Z</time></trkpt><trkpt lat="42.2560783" lon="14.5044717"><ele>17.0</ele><time>2026-04-26T07:31:37.889Z</time></trkpt><trkpt lat="42.2561767" lon="14.5043933"><ele>17.0</ele><time>2026-04-26T07:31:39.888Z</time></trkpt><trkpt lat="42.256275" lon="14.50431"><ele>17.0</ele><time>2026-04-26T07:31:41.889Z</time></trkpt><trkpt lat="42.2563767" lon="14.5042217"><ele>17.0</ele><time>2026-04-26T07:31:43.888Z</time></trkpt><trkpt lat="42.2564717" lon="14.5041267"><ele>17.0</ele><time>2026-04-26T07:31:45.889Z</time></trkpt><trkpt lat="42.256575" lon="14.5040367"><ele>17.0</ele><time>2026-04-26T07:31:47.889Z</time></trkpt><trkpt lat="42.2566767" lon="14.5039467"><ele>17.0</ele><time>2026-04-26T07:31:49.889Z</time></trkpt><trkpt lat="42.25673" lon="14.5038983"><ele>17.0</ele><time>2026-04-26T07:31:50.889Z</time></trkpt><trkpt lat="42.2567833" lon="14.50385"><ele>17.0</ele><time>2026-04-26T07:31:51.889Z</time></trkpt><trkpt lat="42.256885" lon="14.50376"><ele>17.0</ele><time>2026-04-26T07:31:53.889Z</time></trkpt><trkpt lat="42.256985" lon="14.5036817"><ele>17.0</ele><time>2026-04-26T07:31:55.888Z</time></trkpt><trkpt lat="42.2570817" lon="14.503595"><ele>17.0</ele><time>2026-04-26T07:31:57.889Z</time></trkpt><trkpt lat="42.2571783" lon="14.5035067"><ele>17.0</ele><time>2026-04-26T07:31:59.889Z</time></trkpt><trkpt lat="42.2572317" lon="14.5034583"><ele>17.0</ele><time>2026-04-26T07:32:00.889Z</time></trkpt><trkpt lat="42.2573317" lon="14.5033733"><ele>17.0</ele><time>2026-04-26T07:32:02.889Z</time></trkpt><trkpt lat="42.25743" lon="14.5032767"><ele>14.799999999999999</ele><time>2026-04-26T07:32:04.888Z</time></trkpt><trkpt lat="42.2575283" lon="14.5032"><ele>12.6</ele><time>2026-04-26T07:32:06.888Z</time></trkpt><trkpt lat="42.2575817" lon="14.5031517"><ele>10.399999999999999</ele><time>2026-04-26T07:32:07.889Z</time></trkpt><trkpt lat="42.257675" lon="14.5030783"><ele>8.2</ele><time>2026-04-26T07:32:09.889Z</time></trkpt><trkpt lat="42.25778" lon="14.502995"><ele>6.0</ele><time>2026-04-26T07:32:11.888Z</time></trkpt><trkpt lat="42.2578833" lon="14.502915"><ele>6.25</ele><time>2026-04-26T07:32:13.889Z</time></trkpt><trkpt lat="42.2579867" lon="14.502835"><ele>6.5</ele><time>2026-04-26T07:32:15.888Z</time></trkpt><trkpt lat="42.2580817" lon="14.5027567"><ele>6.75</ele><time>2026-04-26T07:32:17.888Z</time></trkpt><trkpt lat="42.25818" lon="14.5026783"><ele>7.0</ele><time>2026-04-26T07:32:19.889Z</time></trkpt><trkpt lat="42.2582783" lon="14.5026033"><ele>7.0</ele><time>2026-04-26T07:32:21.889Z</time></trkpt><trkpt lat="42.2583883" lon="14.50251"><ele>7.0</ele><time>2026-04-26T07:32:23.889Z</time></trkpt><trkpt lat="42.258485" lon="14.50242"><ele>7.0</ele><time>2026-04-26T07:32:25.888Z</time></trkpt><trkpt lat="42.258585" lon="14.502345"><ele>7.0</ele><time>2026-04-26T07:32:27.889Z</time></trkpt><trkpt lat="42.258685" lon="14.5022717"><ele>7.0</ele><time>2026-04-26T07:32:29.889Z</time></trkpt><trkpt lat="42.2587383" lon="14.5022233"><ele>6.999999999999999</ele><time>2026-04-26T07:32:30.889Z</time></trkpt><trkpt lat="42.258835" lon="14.5021267"><ele>6.999999999999999</ele><time>2026-04-26T07:32:32.889Z</time></trkpt><trkpt lat="42.2589283" lon="14.5020467"><ele>7.0</ele><time>2026-04-26T07:32:34.888Z</time></trkpt><trkpt lat="42.259025" lon="14.501955"><ele>7.0</ele><time>2026-04-26T07:32:36.889Z</time></trkpt><trkpt lat="42.259125" lon="14.50187"><ele>6.8</ele><time>2026-04-26T07:32:38.889Z</time></trkpt><trkpt lat="42.25918" lon="14.5018233"><ele>6.6</ele><time>2026-04-26T07:32:39.888Z</time></trkpt><trkpt lat="42.2592833" lon="14.5017367"><ele>6.3999999999999995</ele><time>2026-04-26T07:32:41.889Z</time></trkpt><trkpt lat="42.2593867" lon="14.50166"><ele>6.199999999999999</ele><time>2026-04-26T07:32:43.889Z</time></trkpt><trkpt lat="42.2594867" lon="14.5015717"><ele>6.0</ele><time>2026-04-26T07:32:45.889Z</time></trkpt><trkpt lat="42.2595933" lon="14.5014883"><ele>6.0</ele><time>2026-04-26T07:32:47.889Z</time></trkpt><trkpt lat="42.2596983" lon="14.501415"><ele>6.0</ele><time>2026-04-26T07:32:49.889Z</time></trkpt><trkpt lat="42.2598033" lon="14.501345"><ele>6.0</ele><time>2026-04-26T07:32:51.889Z</time></trkpt><trkpt lat="42.25991" lon="14.5012867"><ele>6.0</ele><time>2026-04-26T07:32:53.889Z</time></trkpt><trkpt lat="42.2600183" lon="14.5012183"><ele>7.75</ele><time>2026-04-26T07:32:55.889Z</time></trkpt><trkpt lat="42.26013" lon="14.5011583"><ele>9.5</ele><time>2026-04-26T07:32:57.889Z</time></trkpt><trkpt lat="42.2602433" lon="14.501105"><ele>11.25</ele><time>2026-04-26T07:32:59.889Z</time></trkpt><trkpt lat="42.260355" lon="14.50105"><ele>13.0</ele><time>2026-04-26T07:33:01.889Z</time></trkpt><trkpt lat="42.26047" lon="14.5010033"><ele>13.0</ele><time>2026-04-26T07:33:03.888Z</time></trkpt><trkpt lat="42.2605883" lon="14.50095"><ele>13.0</ele><time>2026-04-26T07:33:05.889Z</time></trkpt><trkpt lat="42.2607083" lon="14.5009083"><ele>13.0</ele><time>2026-04-26T07:33:07.889Z</time></trkpt><trkpt lat="42.2608217" lon="14.500875"><ele>13.0</ele><time>2026-04-26T07:33:09.889Z</time></trkpt><trkpt lat="42.2609417" lon="14.5008533"><ele>11.6</ele><time>2026-04-26T07:33:11.888Z</time></trkpt><trkpt lat="42.261005" lon="14.50085"><ele>10.200000000000001</ele><time>2026-04-26T07:33:12.888Z</time></trkpt><trkpt lat="42.2611233" lon="14.5008283"><ele>8.8</ele><time>2026-04-26T07:33:14.889Z</time></trkpt><trkpt lat="42.2612333" lon="14.5008083"><ele>7.4</ele><time>2026-04-26T07:33:16.888Z</time></trkpt><trkpt lat="42.2613567" lon="14.5007867"><ele>6.0</ele><time>2026-04-26T07:33:18.888Z</time></trkpt><trkpt lat="42.261475" lon="14.5007783"><ele>6.0</ele><time>2026-04-26T07:33:20.888Z</time></trkpt><trkpt lat="42.261595" lon="14.500775"><ele>6.0</ele><time>2026-04-26T07:33:22.888Z</time></trkpt><trkpt lat="42.2617217" lon="14.5007683"><ele>6.0</ele><time>2026-04-26T07:33:24.888Z</time></trkpt><trkpt lat="42.2618433" lon="14.5007583"><ele>6.0</ele><time>2026-04-26T07:33:26.888Z</time></trkpt><trkpt lat="42.2619583" lon="14.500755"><ele>6.0</ele><time>2026-04-26T07:33:28.889Z</time></trkpt><trkpt lat="42.2620783" lon="14.5007517"><ele>6.0</ele><time>2026-04-26T07:33:30.889Z</time></trkpt><trkpt lat="42.2621433" lon="14.5007467"><ele>6.0</ele><time>2026-04-26T07:33:31.889Z</time></trkpt><trkpt lat="42.2622617" lon="14.5007617"><ele>6.0</ele><time>2026-04-26T07:33:33.889Z</time></trkpt><trkpt lat="42.2623783" lon="14.500775"><ele>6.0</ele><time>2026-04-26T07:33:35.889Z</time></trkpt><trkpt lat="42.2624983" lon="14.5007767"><ele>6.0</ele><time>2026-04-26T07:33:37.888Z</time></trkpt><trkpt lat="42.2626133" lon="14.5008033"><ele>6.0</ele><time>2026-04-26T07:33:39.889Z</time></trkpt><trkpt lat="42.2627317" lon="14.50082"><ele>6.0</ele><time>2026-04-26T07:33:41.888Z</time></trkpt><trkpt lat="42.2628517" lon="14.5008167"><ele>6.0</ele><time>2026-04-26T07:33:43.888Z</time></trkpt><trkpt lat="42.26297" lon="14.50081"><ele>6.0</ele><time>2026-04-26T07:33:45.888Z</time></trkpt><trkpt lat="42.2630917" lon="14.5008083"><ele>6.0</ele><time>2026-04-26T07:33:47.889Z</time></trkpt><trkpt lat="42.263155" lon="14.500815"><ele>6.0</ele><time>2026-04-26T07:33:48.888Z</time></trkpt><trkpt lat="42.2632217" lon="14.5008167"><ele>6.0</ele><time>2026-04-26T07:33:49.888Z</time></trkpt><trkpt lat="42.2632883" lon="14.5008233"><ele>6.0</ele><time>2026-04-26T07:33:50.888Z</time></trkpt><trkpt lat="42.2633517" lon="14.5008267"><ele>6.0</ele><time>2026-04-26T07:33:51.889Z</time></trkpt><trkpt lat="42.2634733" lon="14.5008233"><ele>6.0</ele><time>2026-04-26T07:33:53.888Z</time></trkpt><trkpt lat="42.26354" lon="14.50083"><ele>6.0</ele><time>2026-04-26T07:33:54.889Z</time></trkpt><trkpt lat="42.2636033" lon="14.5008333"><ele>6.0</ele><time>2026-04-26T07:33:55.889Z</time></trkpt><trkpt lat="42.263725" lon="14.5008467"><ele>6.0</ele><time>2026-04-26T07:33:57.889Z</time></trkpt><trkpt lat="42.2638433" lon="14.5008667"><ele>6.0</ele><time>2026-04-26T07:33:59.889Z</time></trkpt><trkpt lat="42.2639683" lon="14.5008667"><ele>6.0</ele><time>2026-04-26T07:34:01.889Z</time></trkpt><trkpt lat="42.2640867" lon="14.5008733"><ele>6.0</ele><time>2026-04-26T07:34:03.888Z</time></trkpt><trkpt lat="42.26415" lon="14.500875"><ele>6.0</ele><time>2026-04-26T07:34:04.888Z</time></trkpt><trkpt lat="42.264215" lon="14.5008767"><ele>6.0</ele><time>2026-04-26T07:34:05.889Z</time></trkpt><trkpt lat="42.2642783" lon="14.5008817"><ele>6.0</ele><time>2026-04-26T07:34:06.888Z</time></trkpt><trkpt lat="42.2643433" lon="14.50088"><ele>6.0</ele><time>2026-04-26T07:34:07.889Z</time></trkpt><trkpt lat="42.2644517" lon="14.5008967"><ele>6.0</ele><time>2026-04-26T07:34:09.889Z</time></trkpt><trkpt lat="42.2645567" lon="14.500905"><ele>6.0</ele><time>2026-04-26T07:34:11.889Z</time></trkpt><trkpt lat="42.264665" lon="14.500905"><ele>6.0</ele><time>2026-04-26T07:34:13.888Z</time></trkpt><trkpt lat="42.2647783" lon="14.5009"><ele>6.0</ele><time>2026-04-26T07:34:15.889Z</time></trkpt><trkpt lat="42.2648933" lon="14.5009083"><ele>6.0</ele><time>2026-04-26T07:34:17.889Z</time></trkpt><trkpt lat="42.2650117" lon="14.50092"><ele>6.75</ele><time>2026-04-26T07:34:19.888Z</time></trkpt><trkpt lat="42.265125" lon="14.5009333"><ele>7.5</ele><time>2026-04-26T07:34:21.888Z</time></trkpt><trkpt lat="42.265245" lon="14.5009483"><ele>8.25</ele><time>2026-04-26T07:34:23.888Z</time></trkpt><trkpt lat="42.2653633" lon="14.5009633"><ele>9.0</ele><time>2026-04-26T07:34:25.889Z</time></trkpt><trkpt lat="42.2654767" lon="14.50099"><ele>9.0</ele><time>2026-04-26T07:34:27.889Z</time></trkpt><trkpt lat="42.2655967" lon="14.50101"><ele>9.0</ele><time>2026-04-26T07:34:29.889Z</time></trkpt><trkpt lat="42.2657167" lon="14.5010367"><ele>9.0</ele><time>2026-04-26T07:34:31.889Z</time></trkpt><trkpt lat="42.2658333" lon="14.5010767"><ele>9.0</ele><time>2026-04-26T07:34:33.889Z</time></trkpt><trkpt lat="42.2659483" lon="14.5011033"><ele>10.5</ele><time>2026-04-26T07:34:35.889Z</time></trkpt><trkpt lat="42.266065" lon="14.501135"><ele>12.0</ele><time>2026-04-26T07:34:37.889Z</time></trkpt><trkpt lat="42.2661817" lon="14.5011633"><ele>13.5</ele><time>2026-04-26T07:34:39.889Z</time></trkpt><trkpt lat="42.2662917" lon="14.5012083"><ele>15.0</ele><time>2026-04-26T07:34:41.888Z</time></trkpt><trkpt lat="42.2664117" lon="14.5012533"><ele>12.5</ele><time>2026-04-26T07:34:43.889Z</time></trkpt><trkpt lat="42.2665233" lon="14.5013033"><ele>10.0</ele><time>2026-04-26T07:34:45.888Z</time></trkpt><trkpt lat="42.26663" lon="14.5013567"><ele>7.5</ele><time>2026-04-26T07:34:47.888Z</time></trkpt><trkpt lat="42.2667383" lon="14.5014167"><ele>5.0</ele><time>2026-04-26T07:34:49.889Z</time></trkpt><trkpt lat="42.2668467" lon="14.5014783"><ele>5.0</ele><time>2026-04-26T07:34:51.888Z</time></trkpt><trkpt lat="42.2669567" lon="14.5015433"><ele>5.0</ele><time>2026-04-26T07:34:53.888Z</time></trkpt><trkpt lat="42.26706" lon="14.50161"><ele>5.0</ele><time>2026-04-26T07:34:55.889Z</time></trkpt><trkpt lat="42.267165" lon="14.5016717"><ele>5.0</ele><time>2026-04-26T07:34:57.889Z</time></trkpt><trkpt lat="42.2672733" lon="14.501745"><ele>6.25</ele><time>2026-04-26T07:34:59.888Z</time></trkpt><trkpt lat="42.26738" lon="14.5018267"><ele>7.5</ele><time>2026-04-26T07:35:01.888Z</time></trkpt><trkpt lat="42.2674817" lon="14.5019"><ele>8.75</ele><time>2026-04-26T07:35:03.889Z</time></trkpt><trkpt lat="42.2675867" lon="14.5019583"><ele>10.0</ele><time>2026-04-26T07:35:05.889Z</time></trkpt><trkpt lat="42.2677017" lon="14.5020183"><ele>9.2</ele><time>2026-04-26T07:35:07.889Z</time></trkpt><trkpt lat="42.26781" lon="14.5020867"><ele>8.4</ele><time>2026-04-26T07:35:09.888Z</time></trkpt><trkpt lat="42.2679183" lon="14.5021517"><ele>7.6</ele><time>2026-04-26T07:35:11.889Z</time></trkpt><trkpt lat="42.268025" lon="14.5022033"><ele>6.8</ele><time>2026-04-26T07:35:13.889Z</time></trkpt><trkpt lat="42.268085" lon="14.5022333"><ele>6.0</ele><time>2026-04-26T07:35:14.889Z</time></trkpt><trkpt lat="42.2681917" lon="14.5022817"><ele>6.0</ele><time>2026-04-26T07:35:16.889Z</time></trkpt><trkpt lat="42.2682967" lon="14.50232"><ele>6.0</ele><time>2026-04-26T07:35:18.889Z</time></trkpt><trkpt lat="42.2684083" lon="14.5023583"><ele>6.0</ele><time>2026-04-26T07:35:20.889Z</time></trkpt><trkpt lat="42.268515" lon="14.5023967"><ele>6.0</ele><time>2026-04-26T07:35:22.888Z</time></trkpt><trkpt lat="42.2686317" lon="14.50243"><ele>6.0</ele><time>2026-04-26T07:35:24.888Z</time></trkpt><trkpt lat="42.26875" lon="14.5024633"><ele>6.0</ele><time>2026-04-26T07:35:26.888Z</time></trkpt><trkpt lat="42.268865" lon="14.5024983"><ele>6.0</ele><time>2026-04-26T07:35:28.889Z</time></trkpt><trkpt lat="42.2689817" lon="14.5025317"><ele>6.0</ele><time>2026-04-26T07:35:30.888Z</time></trkpt><trkpt lat="42.2690967" lon="14.5025633"><ele>6.6</ele><time>2026-04-26T07:35:32.889Z</time></trkpt><trkpt lat="42.26916" lon="14.5025767"><ele>7.199999999999999</ele><time>2026-04-26T07:35:33.889Z</time></trkpt><trkpt lat="42.2692717" lon="14.5025833"><ele>7.800000000000001</ele><time>2026-04-26T07:35:35.888Z</time></trkpt><trkpt lat="42.2693883" lon="14.50259"><ele>8.4</ele><time>2026-04-26T07:35:37.889Z</time></trkpt><trkpt lat="42.26951" lon="14.5025883"><ele>9.0</ele><time>2026-04-26T07:35:39.889Z</time></trkpt><trkpt lat="42.2695733" lon="14.502585"><ele>9.0</ele><time>2026-04-26T07:35:40.889Z</time></trkpt><trkpt lat="42.269695" lon="14.5025783"><ele>9.0</ele><time>2026-04-26T07:35:42.888Z</time></trkpt><trkpt lat="42.2698133" lon="14.50257"><ele>9.0</ele><time>2026-04-26T07:35:44.889Z</time></trkpt><trkpt lat="42.2699283" lon="14.5025683"><ele>9.0</ele><time>2026-04-26T07:35:46.888Z</time></trkpt><trkpt lat="42.2700433" lon="14.50255"><ele>8.6</ele><time>2026-04-26T07:35:48.888Z</time></trkpt><trkpt lat="42.2701583" lon="14.502525"><ele>8.2</ele><time>2026-04-26T07:35:50.889Z</time></trkpt><trkpt lat="42.2702783" lon="14.5025017"><ele>7.799999999999999</ele><time>2026-04-26T07:35:52.888Z</time></trkpt><trkpt lat="42.2703967" lon="14.50248"><ele>7.3999999999999995</ele><time>2026-04-26T07:35:54.888Z</time></trkpt><trkpt lat="42.2704583" lon="14.502455"><ele>7.0</ele><time>2026-04-26T07:35:55.889Z</time></trkpt><trkpt lat="42.2705717" lon="14.5024233"><ele>7.0</ele><time>2026-04-26T07:35:57.889Z</time></trkpt><trkpt lat="42.2706883" lon="14.5023867"><ele>7.0</ele><time>2026-04-26T07:35:59.888Z</time></trkpt><trkpt lat="42.2708" lon="14.502345"><ele>7.0</ele><time>2026-04-26T07:36:01.889Z</time></trkpt><trkpt lat="42.2709117" lon="14.502295"><ele>7.0</ele><time>2026-04-26T07:36:03.889Z</time></trkpt><trkpt lat="42.2710183" lon="14.50224"><ele>7.0</ele><time>2026-04-26T07:36:05.889Z</time></trkpt><trkpt lat="42.2711283" lon="14.5021967"><ele>6.999999999999999</ele><time>2026-04-26T07:36:07.889Z</time></trkpt><trkpt lat="42.27123" lon="14.502155"><ele>6.999999999999999</ele><time>2026-04-26T07:36:09.889Z</time></trkpt><trkpt lat="42.2713317" lon="14.50212"><ele>7.0</ele><time>2026-04-26T07:36:11.889Z</time></trkpt><trkpt lat="42.2714333" lon="14.5020683"><ele>7.0</ele><time>2026-04-26T07:36:13.889Z</time></trkpt><trkpt lat="42.271535" lon="14.5019983"><ele>8.25</ele><time>2026-04-26T07:36:15.889Z</time></trkpt><trkpt lat="42.2716383" lon="14.5019283"><ele>9.5</ele><time>2026-04-26T07:36:17.889Z</time></trkpt><trkpt lat="42.27174" lon="14.501855"><ele>10.75</ele><time>2026-04-26T07:36:19.888Z</time></trkpt><trkpt lat="42.27184" lon="14.5017733"><ele>12.0</ele><time>2026-04-26T07:36:21.889Z</time></trkpt><trkpt lat="42.2719417" lon="14.5016767"><ele>12.0</ele><time>2026-04-26T07:36:23.888Z</time></trkpt><trkpt lat="42.271995" lon="14.50163"><ele>12.0</ele><time>2026-04-26T07:36:24.889Z</time></trkpt><trkpt lat="42.272085" lon="14.5015467"><ele>12.0</ele><time>2026-04-26T07:36:26.889Z</time></trkpt><trkpt lat="42.272185" lon="14.5014533"><ele>12.0</ele><time>2026-04-26T07:36:28.888Z</time></trkpt><trkpt lat="42.2722783" lon="14.50135"><ele>12.0</ele><time>2026-04-26T07:36:30.888Z</time></trkpt><trkpt lat="42.2723283" lon="14.5012933"><ele>11.6</ele><time>2026-04-26T07:36:31.888Z</time></trkpt><trkpt lat="42.27238" lon="14.5012367"><ele>11.2</ele><time>2026-04-26T07:36:32.889Z</time></trkpt><trkpt lat="42.27243" lon="14.5011717"><ele>10.8</ele><time>2026-04-26T07:36:33.889Z</time></trkpt><trkpt lat="42.27248" lon="14.5011167"><ele>10.4</ele><time>2026-04-26T07:36:34.889Z</time></trkpt><trkpt lat="42.2725683" lon="14.5010083"><ele>10.0</ele><time>2026-04-26T07:36:36.889Z</time></trkpt><trkpt lat="42.272655" lon="14.500875"><ele>10.0</ele><time>2026-04-26T07:36:38.889Z</time></trkpt><trkpt lat="42.2727417" lon="14.5007633"><ele>10.0</ele><time>2026-04-26T07:36:40.889Z</time></trkpt><trkpt lat="42.2728267" lon="14.50065"><ele>10.0</ele><time>2026-04-26T07:36:42.888Z</time></trkpt><trkpt lat="42.27291" lon="14.5005433"><ele>10.0</ele><time>2026-04-26T07:36:44.889Z</time></trkpt><trkpt lat="42.2729867" lon="14.5004217"><ele>8.8</ele><time>2026-04-26T07:36:46.889Z</time></trkpt><trkpt lat="42.27306" lon="14.5002867"><ele>7.6</ele><time>2026-04-26T07:36:48.889Z</time></trkpt><trkpt lat="42.2731017" lon="14.50021"><ele>6.4</ele><time>2026-04-26T07:36:49.889Z</time></trkpt><trkpt lat="42.2731433" lon="14.50014"><ele>5.2</ele><time>2026-04-26T07:36:50.888Z</time></trkpt><trkpt lat="42.2732183" lon="14.5000233"><ele>4.0</ele><time>2026-04-26T07:36:52.889Z</time></trkpt><trkpt lat="42.2732883" lon="14.49988"><ele>3.9999999999999996</ele><time>2026-04-26T07:36:54.888Z</time></trkpt><trkpt lat="42.2733433" lon="14.4997433"><ele>4.0</ele><time>2026-04-26T07:36:56.888Z</time></trkpt><trkpt lat="42.273395" lon="14.49961"><ele>4.0</ele><time>2026-04-26T07:36:58.889Z</time></trkpt><trkpt lat="42.273425" lon="14.49953"><ele>4.0</ele><time>2026-04-26T07:36:59.889Z</time></trkpt><trkpt lat="42.2734517" lon="14.4994517"><ele>3.9999999999999996</ele><time>2026-04-26T07:37:00.889Z</time></trkpt><trkpt lat="42.2734817" lon="14.4993767"><ele>4.0</ele><time>2026-04-26T07:37:01.888Z</time></trkpt><trkpt lat="42.2735383" lon="14.4992317"><ele>4.800000000000001</ele><time>2026-04-26T07:37:03.888Z</time></trkpt><trkpt lat="42.2735917" lon="14.4990883"><ele>5.6000000000000005</ele><time>2026-04-26T07:37:05.888Z</time></trkpt><trkpt lat="42.27362" lon="14.4990117"><ele>6.4</ele><time>2026-04-26T07:37:06.888Z</time></trkpt><trkpt lat="42.2736517" lon="14.4989367"><ele>7.2</ele><time>2026-04-26T07:37:07.888Z</time></trkpt><trkpt lat="42.273705" lon="14.4987867"><ele>8.0</ele><time>2026-04-26T07:37:09.888Z</time></trkpt><trkpt lat="42.2737567" lon="14.4986433"><ele>6.800000000000001</ele><time>2026-04-26T07:37:11.889Z</time></trkpt><trkpt lat="42.273785" lon="14.4985667"><ele>5.6000000000000005</ele><time>2026-04-26T07:37:12.888Z</time></trkpt><trkpt lat="42.2738367" lon="14.4984183"><ele>4.4</ele><time>2026-04-26T07:37:14.889Z</time></trkpt><trkpt lat="42.27388" lon="14.4982667"><ele>3.2</ele><time>2026-04-26T07:37:16.889Z</time></trkpt><trkpt lat="42.2739367" lon="14.4981267"><ele>2.0</ele><time>2026-04-26T07:37:18.889Z</time></trkpt><trkpt lat="42.2740033" lon="14.4979733"><ele>3.0</ele><time>2026-04-26T07:37:20.889Z</time></trkpt><trkpt lat="42.2740367" lon="14.4979"><ele>4.0</ele><time>2026-04-26T07:37:21.889Z</time></trkpt><trkpt lat="42.274095" lon="14.4977633"><ele>4.999999999999999</ele><time>2026-04-26T07:37:23.889Z</time></trkpt><trkpt lat="42.27415" lon="14.4976233"><ele>6.0</ele><time>2026-04-26T07:37:25.888Z</time></trkpt><trkpt lat="42.2742217" lon="14.4974967"><ele>7.0</ele><time>2026-04-26T07:37:27.889Z</time></trkpt><trkpt lat="42.2742867" lon="14.4973717"><ele>7.0</ele><time>2026-04-26T07:37:29.889Z</time></trkpt><trkpt lat="42.2743583" lon="14.4972417"><ele>6.999999999999999</ele><time>2026-04-26T07:37:31.888Z</time></trkpt><trkpt lat="42.27443" lon="14.4971133"><ele>6.999999999999999</ele><time>2026-04-26T07:37:33.888Z</time></trkpt><trkpt lat="42.27447" lon="14.4970467"><ele>7.0</ele><time>2026-04-26T07:37:34.889Z</time></trkpt><trkpt lat="42.27454" lon="14.4969283"><ele>7.0</ele><time>2026-04-26T07:37:36.889Z</time></trkpt><trkpt lat="42.27461" lon="14.4968233"><ele>6.5</ele><time>2026-04-26T07:37:38.888Z</time></trkpt><trkpt lat="42.2746917" lon="14.4967167"><ele>6.0</ele><time>2026-04-26T07:37:40.888Z</time></trkpt><trkpt lat="42.27478" lon="14.4966033"><ele>5.5</ele><time>2026-04-26T07:37:42.889Z</time></trkpt><trkpt lat="42.2748667" lon="14.4965"><ele>5.0</ele><time>2026-04-26T07:37:44.888Z</time></trkpt><trkpt lat="42.2749483" lon="14.4963817"><ele>5.0</ele><time>2026-04-26T07:37:46.889Z</time></trkpt><trkpt lat="42.2750283" lon="14.49627"><ele>5.0</ele><time>2026-04-26T07:37:48.889Z</time></trkpt><trkpt lat="42.275115" lon="14.4961517"><ele>5.0</ele><time>2026-04-26T07:37:50.889Z</time></trkpt><trkpt lat="42.2751583" lon="14.4960883"><ele>5.0</ele><time>2026-04-26T07:37:51.888Z</time></trkpt><trkpt lat="42.2752467" lon="14.4959767"><ele>5.0</ele><time>2026-04-26T07:37:53.889Z</time></trkpt><trkpt lat="42.2753317" lon="14.49586"><ele>6.0</ele><time>2026-04-26T07:37:55.888Z</time></trkpt><trkpt lat="42.2754117" lon="14.4957433"><ele>7.0</ele><time>2026-04-26T07:37:57.888Z</time></trkpt><trkpt lat="42.275485" lon="14.4956167"><ele>8.0</ele><time>2026-04-26T07:37:59.889Z</time></trkpt><trkpt lat="42.2755683" lon="14.495495"><ele>9.0</ele><time>2026-04-26T07:38:01.889Z</time></trkpt><trkpt lat="42.275655" lon="14.4954"><ele>9.0</ele><time>2026-04-26T07:38:03.889Z</time></trkpt><trkpt lat="42.2757483" lon="14.4953033"><ele>9.0</ele><time>2026-04-26T07:38:05.889Z</time></trkpt><trkpt lat="42.27583" lon="14.4951983"><ele>9.0</ele><time>2026-04-26T07:38:07.889Z</time></trkpt><trkpt lat="42.27591" lon="14.49508"><ele>9.0</ele><time>2026-04-26T07:38:09.889Z</time></trkpt><trkpt lat="42.275995" lon="14.4949617"><ele>9.0</ele><time>2026-04-26T07:38:11.888Z</time></trkpt><trkpt lat="42.27604" lon="14.4949"><ele>9.0</ele><time>2026-04-26T07:38:12.888Z</time></trkpt><trkpt lat="42.276125" lon="14.4947883"><ele>9.0</ele><time>2026-04-26T07:38:14.888Z</time></trkpt><trkpt lat="42.27621" lon="14.494675"><ele>9.0</ele><time>2026-04-26T07:38:16.889Z</time></trkpt><trkpt lat="42.2762917" lon="14.4945567"><ele>9.0</ele><time>2026-04-26T07:38:18.889Z</time></trkpt><trkpt lat="42.2763717" lon="14.4944467"><ele>7.75</ele><time>2026-04-26T07:38:20.889Z</time></trkpt><trkpt lat="42.2764533" lon="14.4943367"><ele>6.5</ele><time>2026-04-26T07:38:22.888Z</time></trkpt><trkpt lat="42.2765317" lon="14.4942283"><ele>5.25</ele><time>2026-04-26T07:38:24.889Z</time></trkpt><trkpt lat="42.27661" lon="14.4941083"><ele>4.0</ele><time>2026-04-26T07:38:26.889Z</time></trkpt><trkpt lat="42.2766883" lon="14.494"><ele>4.0</ele><time>2026-04-26T07:38:28.888Z</time></trkpt><trkpt lat="42.276775" lon="14.4938967"><ele>4.0</ele><time>2026-04-26T07:38:30.888Z</time></trkpt><trkpt lat="42.27686" lon="14.49378"><ele>4.0</ele><time>2026-04-26T07:38:32.888Z</time></trkpt><trkpt lat="42.276945" lon="14.493665"><ele>4.0</ele><time>2026-04-26T07:38:34.887Z</time></trkpt><trkpt lat="42.27703" lon="14.4935433"><ele>4.0</ele><time>2026-04-26T07:38:36.888Z</time></trkpt><trkpt lat="42.277115" lon="14.493425"><ele>4.0</ele><time>2026-04-26T07:38:38.887Z</time></trkpt><trkpt lat="42.2772017" lon="14.4933067"><ele>4.0</ele><time>2026-04-26T07:38:40.888Z</time></trkpt><trkpt lat="42.2772467" lon="14.493245"><ele>4.0</ele><time>2026-04-26T07:38:41.888Z</time></trkpt><trkpt lat="42.2773333" lon="14.4931367"><ele>4.0</ele><time>2026-04-26T07:38:43.887Z</time></trkpt><trkpt lat="42.27741" lon="14.4930333"><ele>4.0</ele><time>2026-04-26T07:38:45.888Z</time></trkpt><trkpt lat="42.2774917" lon="14.49292"><ele>4.0</ele><time>2026-04-26T07:38:47.888Z</time></trkpt><trkpt lat="42.2775767" lon="14.492815"><ele>4.0</ele><time>2026-04-26T07:38:49.888Z</time></trkpt><trkpt lat="42.2776667" lon="14.492695"><ele>4.0</ele><time>2026-04-26T07:38:51.888Z</time></trkpt><trkpt lat="42.2777417" lon="14.4925983"><ele>3.9999999999999996</ele><time>2026-04-26T07:38:53.888Z</time></trkpt><trkpt lat="42.277815" lon="14.4924983"><ele>4.0</ele><time>2026-04-26T07:38:55.887Z</time></trkpt><trkpt lat="42.2778733" lon="14.4924117"><ele>4.0</ele><time>2026-04-26T07:38:57.888Z</time></trkpt><trkpt lat="42.2779383" lon="14.4923233"><ele>4.0</ele><time>2026-04-26T07:38:59.888Z</time></trkpt><trkpt lat="42.2779883" lon="14.492255"><ele>3.9999999999999996</ele><time>2026-04-26T07:39:01.888Z</time></trkpt><trkpt lat="42.2779917" lon="14.4921583"><ele>4.0</ele><time>2026-04-26T07:39:05.888Z</time></trkpt><trkpt lat="42.2779417" lon="14.4922267"><ele>4.0</ele><time>2026-04-26T07:39:41.887Z</time></trkpt><trkpt lat="42.2778867" lon="14.49227"><ele>3.9999999999999996</ele><time>2026-04-26T07:39:44.888Z</time></trkpt><trkpt lat="42.277825" lon="14.4923317"><ele>4.0</ele><time>2026-04-26T07:39:47.887Z</time></trkpt><trkpt lat="42.2777683" lon="14.4923983"><ele>4.0</ele><time>2026-04-26T07:39:49.887Z</time></trkpt><trkpt lat="42.277705" lon="14.4924633"><ele>3.9999999999999996</ele><time>2026-04-26T07:39:51.887Z</time></trkpt><trkpt lat="42.2776417" lon="14.4925283"><ele>4.0</ele><time>2026-04-26T07:39:53.888Z</time></trkpt><trkpt lat="42.2776983" lon="14.4924667"><ele>4.0</ele><time>2026-04-26T07:41:45.889Z</time></trkpt><trkpt lat="42.2777533" lon="14.4924033"><ele>3.9999999999999996</ele><time>2026-04-26T07:41:48.89Z</time></trkpt><trkpt lat="42.2778333" lon="14.4923583"><ele>4.0</ele><time>2026-04-26T07:41:51.889Z</time></trkpt><trkpt lat="42.277895" lon="14.4923167"><ele>4.0</ele><time>2026-04-26T07:41:53.89Z</time></trkpt><trkpt lat="42.277985" lon="14.4922767"><ele>4.0</ele><time>2026-04-26T07:41:56.89Z</time></trkpt><trkpt lat="42.2780517" lon="14.492215"><ele>3.9999999999999996</ele><time>2026-04-26T07:41:58.89Z</time></trkpt><trkpt lat="42.27812" lon="14.4921333"><ele>4.0</ele><time>2026-04-26T07:42:00.889Z</time></trkpt><trkpt lat="42.2781917" lon="14.4920533"><ele>5.2</ele><time>2026-04-26T07:42:02.89Z</time></trkpt><trkpt lat="42.278265" lon="14.4919683"><ele>6.4</ele><time>2026-04-26T07:42:04.889Z</time></trkpt><trkpt lat="42.2783417" lon="14.4918817"><ele>7.6</ele><time>2026-04-26T07:42:06.89Z</time></trkpt><trkpt lat="42.2784217" lon="14.4917967"><ele>8.8</ele><time>2026-04-26T07:42:08.89Z</time></trkpt><trkpt lat="42.2784967" lon="14.49171"><ele>10.0</ele><time>2026-04-26T07:42:10.889Z</time></trkpt><trkpt lat="42.2785733" lon="14.4916267"><ele>10.0</ele><time>2026-04-26T07:42:12.89Z</time></trkpt><trkpt lat="42.278655" lon="14.4915533"><ele>10.0</ele><time>2026-04-26T07:42:14.89Z</time></trkpt><trkpt lat="42.2787417" lon="14.4914717"><ele>10.0</ele><time>2026-04-26T07:42:16.89Z</time></trkpt><trkpt lat="42.27883" lon="14.4913867"><ele>10.0</ele><time>2026-04-26T07:42:18.89Z</time></trkpt><trkpt lat="42.2789217" lon="14.491305"><ele>10.0</ele><time>2026-04-26T07:42:20.89Z</time></trkpt><trkpt lat="42.279015" lon="14.4912217"><ele>10.4</ele><time>2026-04-26T07:42:22.889Z</time></trkpt><trkpt lat="42.2791117" lon="14.4911483"><ele>10.8</ele><time>2026-04-26T07:42:24.89Z</time></trkpt><trkpt lat="42.27921" lon="14.4910767"><ele>11.2</ele><time>2026-04-26T07:42:26.89Z</time></trkpt><trkpt lat="42.2793083" lon="14.4910067"><ele>11.6</ele><time>2026-04-26T07:42:28.89Z</time></trkpt><trkpt lat="42.2794083" lon="14.4909367"><ele>12.0</ele><time>2026-04-26T07:42:30.89Z</time></trkpt><trkpt lat="42.2795083" lon="14.4908683"><ele>12.0</ele><time>2026-04-26T07:42:32.89Z</time></trkpt><trkpt lat="42.2796133" lon="14.4907983"><ele>12.0</ele><time>2026-04-26T07:42:34.89Z</time></trkpt><trkpt lat="42.279715" lon="14.4907367"><ele>12.0</ele><time>2026-04-26T07:42:36.89Z</time></trkpt><trkpt lat="42.2798117" lon="14.4906683"><ele>12.0</ele><time>2026-04-26T07:42:38.89Z</time></trkpt><trkpt lat="42.2799083" lon="14.4906017"><ele>12.0</ele><time>2026-04-26T07:42:40.89Z</time></trkpt><trkpt lat="42.28001" lon="14.4905367"><ele>13.0</ele><time>2026-04-26T07:42:42.89Z</time></trkpt><trkpt lat="42.28011" lon="14.490475"><ele>14.0</ele><time>2026-04-26T07:42:44.89Z</time></trkpt><trkpt lat="42.28021" lon="14.4904133"><ele>15.0</ele><time>2026-04-26T07:42:46.89Z</time></trkpt><trkpt lat="42.28031" lon="14.490345"><ele>16.0</ele><time>2026-04-26T07:42:48.89Z</time></trkpt><trkpt lat="42.2804117" lon="14.490275"><ele>17.0</ele><time>2026-04-26T07:42:50.889Z</time></trkpt><trkpt lat="42.2805083" lon="14.490195"><ele>15.2</ele><time>2026-04-26T07:42:52.89Z</time></trkpt><trkpt lat="42.2806017" lon="14.4901267"><ele>13.399999999999999</ele><time>2026-04-26T07:42:54.89Z</time></trkpt><trkpt lat="42.2806967" lon="14.4900517"><ele>11.600000000000001</ele><time>2026-04-26T07:42:56.889Z</time></trkpt><trkpt lat="42.28079" lon="14.489975"><ele>9.8</ele><time>2026-04-26T07:42:58.89Z</time></trkpt><trkpt lat="42.2808917" lon="14.489885"><ele>8.0</ele><time>2026-04-26T07:43:00.89Z</time></trkpt><trkpt lat="42.2809817" lon="14.4897917"><ele>8.0</ele><time>2026-04-26T07:43:02.89Z</time></trkpt><trkpt lat="42.281075" lon="14.489695"><ele>8.0</ele><time>2026-04-26T07:43:04.889Z</time></trkpt><trkpt lat="42.2811667" lon="14.4896033"><ele>8.0</ele><time>2026-04-26T07:43:06.89Z</time></trkpt><trkpt lat="42.2812517" lon="14.4895067"><ele>8.0</ele><time>2026-04-26T07:43:08.889Z</time></trkpt><trkpt lat="42.2813417" lon="14.4894117"><ele>7.5</ele><time>2026-04-26T07:43:10.89Z</time></trkpt><trkpt lat="42.2814283" lon="14.4893083"><ele>7.0</ele><time>2026-04-26T07:43:12.89Z</time></trkpt><trkpt lat="42.2815133" lon="14.4892033"><ele>6.5</ele><time>2026-04-26T07:43:14.889Z</time></trkpt><trkpt lat="42.2815933" lon="14.489095"><ele>6.0</ele><time>2026-04-26T07:43:16.89Z</time></trkpt><trkpt lat="42.281675" lon="14.48899"><ele>6.0</ele><time>2026-04-26T07:43:18.89Z</time></trkpt><trkpt lat="42.281755" lon="14.4888883"><ele>6.0</ele><time>2026-04-26T07:43:20.889Z</time></trkpt><trkpt lat="42.2818383" lon="14.4887883"><ele>6.0</ele><time>2026-04-26T07:43:22.89Z</time></trkpt><trkpt lat="42.2819167" lon="14.4886617"><ele>6.0</ele><time>2026-04-26T07:43:24.889Z</time></trkpt><trkpt lat="42.28199" lon="14.488535"><ele>5.2</ele><time>2026-04-26T07:43:26.89Z</time></trkpt><trkpt lat="42.28206" lon="14.4884133"><ele>4.3999999999999995</ele><time>2026-04-26T07:43:28.89Z</time></trkpt><trkpt lat="42.2820967" lon="14.4883433"><ele>3.6</ele><time>2026-04-26T07:43:29.89Z</time></trkpt><trkpt lat="42.2821617" lon="14.4882133"><ele>2.8</ele><time>2026-04-26T07:43:31.89Z</time></trkpt><trkpt lat="42.2822317" lon="14.48808"><ele>2.0</ele><time>2026-04-26T07:43:33.89Z</time></trkpt><trkpt lat="42.2822983" lon="14.4879467"><ele>3.5</ele><time>2026-04-26T07:43:35.889Z</time></trkpt><trkpt lat="42.2823633" lon="14.4878133"><ele>5.0</ele><time>2026-04-26T07:43:37.89Z</time></trkpt><trkpt lat="42.2824267" lon="14.487685"><ele>6.5</ele><time>2026-04-26T07:43:39.89Z</time></trkpt><trkpt lat="42.28249" lon="14.4875583"><ele>8.0</ele><time>2026-04-26T07:43:41.89Z</time></trkpt><trkpt lat="42.2825517" lon="14.4874317"><ele>8.0</ele><time>2026-04-26T07:43:43.89Z</time></trkpt><trkpt lat="42.2826167" lon="14.4873"><ele>8.0</ele><time>2026-04-26T07:43:45.889Z</time></trkpt><trkpt lat="42.2826783" lon="14.4871717"><ele>8.0</ele><time>2026-04-26T07:43:47.889Z</time></trkpt><trkpt lat="42.2827467" lon="14.4870467"><ele>8.0</ele><time>2026-04-26T07:43:49.89Z</time></trkpt><trkpt lat="42.282815" lon="14.4869217"><ele>6.800000000000001</ele><time>2026-04-26T07:43:51.89Z</time></trkpt><trkpt lat="42.2828867" lon="14.486795"><ele>5.6000000000000005</ele><time>2026-04-26T07:43:53.889Z</time></trkpt><trkpt lat="42.2829617" lon="14.4866733"><ele>4.4</ele><time>2026-04-26T07:43:55.89Z</time></trkpt><trkpt lat="42.2830367" lon="14.4865517"><ele>3.2</ele><time>2026-04-26T07:43:57.89Z</time></trkpt><trkpt lat="42.2830733" lon="14.4864817"><ele>2.0</ele><time>2026-04-26T07:43:58.89Z</time></trkpt><trkpt lat="42.2831517" lon="14.4863617"><ele>3.6</ele><time>2026-04-26T07:44:00.89Z</time></trkpt><trkpt lat="42.2832333" lon="14.4862517"><ele>5.2</ele><time>2026-04-26T07:44:02.889Z</time></trkpt><trkpt lat="42.28332" lon="14.486145"><ele>6.8</ele><time>2026-04-26T07:44:04.889Z</time></trkpt><trkpt lat="42.2834067" lon="14.4860267"><ele>8.4</ele><time>2026-04-26T07:44:06.889Z</time></trkpt><trkpt lat="42.2834517" lon="14.4859667"><ele>10.0</ele><time>2026-04-26T07:44:07.889Z</time></trkpt><trkpt lat="42.2834967" lon="14.4859067"><ele>10.0</ele><time>2026-04-26T07:44:08.889Z</time></trkpt><trkpt lat="42.28358" lon="14.4857983"><ele>10.0</ele><time>2026-04-26T07:44:10.89Z</time></trkpt><trkpt lat="42.2836667" lon="14.48569"><ele>10.0</ele><time>2026-04-26T07:44:12.89Z</time></trkpt><trkpt lat="42.283755" lon="14.4855783"><ele>10.0</ele><time>2026-04-26T07:44:14.89Z</time></trkpt><trkpt lat="42.2838383" lon="14.4854767"><ele>9.8</ele><time>2026-04-26T07:44:16.89Z</time></trkpt><trkpt lat="42.283885" lon="14.4854133"><ele>9.6</ele><time>2026-04-26T07:44:17.89Z</time></trkpt><trkpt lat="42.2839733" lon="14.485315"><ele>9.4</ele><time>2026-04-26T07:44:19.89Z</time></trkpt><trkpt lat="42.28406" lon="14.4852183"><ele>9.2</ele><time>2026-04-26T07:44:21.89Z</time></trkpt><trkpt lat="42.28415" lon="14.48512"><ele>9.0</ele><time>2026-04-26T07:44:23.89Z</time></trkpt><trkpt lat="42.2842433" lon="14.485025"><ele>9.0</ele><time>2026-04-26T07:44:25.89Z</time></trkpt><trkpt lat="42.2843417" lon="14.48493"><ele>9.0</ele><time>2026-04-26T07:44:27.89Z</time></trkpt><trkpt lat="42.2844367" lon="14.48483"><ele>9.0</ele><time>2026-04-26T07:44:29.889Z</time></trkpt><trkpt lat="42.2845283" lon="14.4847383"><ele>9.0</ele><time>2026-04-26T07:44:31.89Z</time></trkpt><trkpt lat="42.284625" lon="14.484655"><ele>8.5</ele><time>2026-04-26T07:44:33.89Z</time></trkpt><trkpt lat="42.2847217" lon="14.4845783"><ele>8.0</ele><time>2026-04-26T07:44:35.89Z</time></trkpt><trkpt lat="42.28482" lon="14.4845017"><ele>7.5</ele><time>2026-04-26T07:44:37.889Z</time></trkpt><trkpt lat="42.2849167" lon="14.4844183"><ele>7.0</ele><time>2026-04-26T07:44:39.89Z</time></trkpt><trkpt lat="42.2850133" lon="14.484325"><ele>7.0</ele><time>2026-04-26T07:44:41.89Z</time></trkpt><trkpt lat="42.2851133" lon="14.484235"><ele>6.999999999999999</ele><time>2026-04-26T07:44:43.89Z</time></trkpt><trkpt lat="42.2851667" lon="14.484185"><ele>6.999999999999999</ele><time>2026-04-26T07:44:44.89Z</time></trkpt><trkpt lat="42.2852683" lon="14.4840833"><ele>7.0</ele><time>2026-04-26T07:44:46.89Z</time></trkpt><trkpt lat="42.2853667" lon="14.4839817"><ele>7.0</ele><time>2026-04-26T07:44:48.89Z</time></trkpt><trkpt lat="42.2854567" lon="14.4838867"><ele>7.0</ele><time>2026-04-26T07:44:50.89Z</time></trkpt><trkpt lat="42.2855533" lon="14.4837817"><ele>6.999999999999999</ele><time>2026-04-26T07:44:52.889Z</time></trkpt><trkpt lat="42.285605" lon="14.4837267"><ele>6.999999999999999</ele><time>2026-04-26T07:44:53.89Z</time></trkpt><trkpt lat="42.2856983" lon="14.4836283"><ele>7.0</ele><time>2026-04-26T07:44:55.89Z</time></trkpt><trkpt lat="42.28579" lon="14.4835333"><ele>7.0</ele><time>2026-04-26T07:44:57.89Z</time></trkpt><trkpt lat="42.28584" lon="14.483475"><ele>7.199999999999999</ele><time>2026-04-26T07:44:58.889Z</time></trkpt><trkpt lat="42.28589" lon="14.4834117"><ele>7.3999999999999995</ele><time>2026-04-26T07:44:59.889Z</time></trkpt><trkpt lat="42.2859767" lon="14.48331"><ele>7.6000000000000005</ele><time>2026-04-26T07:45:01.889Z</time></trkpt><trkpt lat="42.2860633" lon="14.4832033"><ele>7.800000000000001</ele><time>2026-04-26T07:45:03.89Z</time></trkpt><trkpt lat="42.2861483" lon="14.483095"><ele>8.0</ele><time>2026-04-26T07:45:05.89Z</time></trkpt><trkpt lat="42.2862283" lon="14.48298"><ele>7.25</ele><time>2026-04-26T07:45:07.89Z</time></trkpt><trkpt lat="42.2863117" lon="14.48287"><ele>6.5</ele><time>2026-04-26T07:45:09.89Z</time></trkpt><trkpt lat="42.28639" lon="14.482755"><ele>5.75</ele><time>2026-04-26T07:45:11.89Z</time></trkpt><trkpt lat="42.2864633" lon="14.482635"><ele>5.0</ele><time>2026-04-26T07:45:13.89Z</time></trkpt><trkpt lat="42.2865333" lon="14.482515"><ele>5.0</ele><time>2026-04-26T07:45:15.89Z</time></trkpt><trkpt lat="42.286605" lon="14.4823883"><ele>5.0</ele><time>2026-04-26T07:45:17.89Z</time></trkpt><trkpt lat="42.286675" lon="14.4822533"><ele>5.0</ele><time>2026-04-26T07:45:19.89Z</time></trkpt><trkpt lat="42.2867383" lon="14.4821217"><ele>5.0</ele><time>2026-04-26T07:45:21.889Z</time></trkpt><trkpt lat="42.2867983" lon="14.4819867"><ele>6.0</ele><time>2026-04-26T07:45:23.889Z</time></trkpt><trkpt lat="42.2868567" lon="14.4818483"><ele>7.0</ele><time>2026-04-26T07:45:25.889Z</time></trkpt><trkpt lat="42.2869133" lon="14.48171"><ele>8.0</ele><time>2026-04-26T07:45:27.89Z</time></trkpt><trkpt lat="42.2869733" lon="14.4815667"><ele>9.0</ele><time>2026-04-26T07:45:29.89Z</time></trkpt><trkpt lat="42.28703" lon="14.4814267"><ele>9.0</ele><time>2026-04-26T07:45:31.89Z</time></trkpt><trkpt lat="42.2870833" lon="14.4812867"><ele>9.0</ele><time>2026-04-26T07:45:33.889Z</time></trkpt><trkpt lat="42.2871083" lon="14.4812083"><ele>9.0</ele><time>2026-04-26T07:45:34.889Z</time></trkpt><trkpt lat="42.2871667" lon="14.48107"><ele>9.0</ele><time>2026-04-26T07:45:36.89Z</time></trkpt><trkpt lat="42.2872267" lon="14.48093"><ele>9.0</ele><time>2026-04-26T07:45:38.889Z</time></trkpt><trkpt lat="42.2872833" lon="14.4807867"><ele>9.0</ele><time>2026-04-26T07:45:40.889Z</time></trkpt><trkpt lat="42.2873417" lon="14.4806417"><ele>9.0</ele><time>2026-04-26T07:45:42.89Z</time></trkpt><trkpt lat="42.2873967" lon="14.4805067"><ele>9.0</ele><time>2026-04-26T07:45:44.89Z</time></trkpt><trkpt lat="42.287455" lon="14.4803733"><ele>9.0</ele><time>2026-04-26T07:45:46.89Z</time></trkpt><trkpt lat="42.287515" lon="14.4802417"><ele>9.0</ele><time>2026-04-26T07:45:48.889Z</time></trkpt><trkpt lat="42.2875767" lon="14.4801067"><ele>9.0</ele><time>2026-04-26T07:45:50.89Z</time></trkpt><trkpt lat="42.2876417" lon="14.47997"><ele>9.0</ele><time>2026-04-26T07:45:52.89Z</time></trkpt><trkpt lat="42.2877117" lon="14.4798333"><ele>9.0</ele><time>2026-04-26T07:45:54.889Z</time></trkpt><trkpt lat="42.2877783" lon="14.4796967"><ele>10.25</ele><time>2026-04-26T07:45:56.89Z</time></trkpt><trkpt lat="42.2878483" lon="14.47956"><ele>11.5</ele><time>2026-04-26T07:45:58.889Z</time></trkpt><trkpt lat="42.2879133" lon="14.47942"><ele>12.75</ele><time>2026-04-26T07:46:00.89Z</time></trkpt><trkpt lat="42.28798" lon="14.4792817"><ele>14.0</ele><time>2026-04-26T07:46:02.89Z</time></trkpt><trkpt lat="42.2880483" lon="14.47915"><ele>12.75</ele><time>2026-04-26T07:46:04.89Z</time></trkpt><trkpt lat="42.2881233" lon="14.479025"><ele>11.5</ele><time>2026-04-26T07:46:06.889Z</time></trkpt><trkpt lat="42.2882017" lon="14.4789083"><ele>10.25</ele><time>2026-04-26T07:46:08.89Z</time></trkpt><trkpt lat="42.288275" lon="14.4787917"><ele>9.0</ele><time>2026-04-26T07:46:10.89Z</time></trkpt><trkpt lat="42.2883467" lon="14.47867"><ele>9.0</ele><time>2026-04-26T07:46:12.89Z</time></trkpt><trkpt lat="42.2884183" lon="14.4785467"><ele>9.0</ele><time>2026-04-26T07:46:14.89Z</time></trkpt><trkpt lat="42.2884533" lon="14.4784733"><ele>9.0</ele><time>2026-04-26T07:46:15.89Z</time></trkpt><trkpt lat="42.2885217" lon="14.4783467"><ele>9.0</ele><time>2026-04-26T07:46:17.89Z</time></trkpt><trkpt lat="42.2885917" lon="14.478225"><ele>9.0</ele><time>2026-04-26T07:46:19.889Z</time></trkpt><trkpt lat="42.288665" lon="14.4781033"><ele>9.0</ele><time>2026-04-26T07:46:21.89Z</time></trkpt><trkpt lat="42.2887333" lon="14.47797"><ele>9.0</ele><time>2026-04-26T07:46:23.89Z</time></trkpt><trkpt lat="42.2888033" lon="14.477845"><ele>9.0</ele><time>2026-04-26T07:46:25.89Z</time></trkpt><trkpt lat="42.28888" lon="14.47772"><ele>9.0</ele><time>2026-04-26T07:46:27.89Z</time></trkpt><trkpt lat="42.28895" lon="14.4775933"><ele>9.5</ele><time>2026-04-26T07:46:29.89Z</time></trkpt><trkpt lat="42.2890233" lon="14.477465"><ele>10.0</ele><time>2026-04-26T07:46:31.89Z</time></trkpt><trkpt lat="42.2890933" lon="14.4773417"><ele>10.5</ele><time>2026-04-26T07:46:33.889Z</time></trkpt><trkpt lat="42.2891667" lon="14.4772133"><ele>11.0</ele><time>2026-04-26T07:46:35.89Z</time></trkpt><trkpt lat="42.2892383" lon="14.4770883"><ele>11.0</ele><time>2026-04-26T07:46:37.889Z</time></trkpt><trkpt lat="42.2893067" lon="14.4769567"><ele>11.0</ele><time>2026-04-26T07:46:39.89Z</time></trkpt><trkpt lat="42.289375" lon="14.4768283"><ele>11.0</ele><time>2026-04-26T07:46:41.89Z</time></trkpt><trkpt lat="42.289445" lon="14.4767017"><ele>11.0</ele><time>2026-04-26T07:46:43.889Z</time></trkpt><trkpt lat="42.28952" lon="14.4765733"><ele>11.0</ele><time>2026-04-26T07:46:45.89Z</time></trkpt><trkpt lat="42.2895917" lon="14.4764483"><ele>11.0</ele><time>2026-04-26T07:46:47.89Z</time></trkpt><trkpt lat="42.2896633" lon="14.4763233"><ele>11.0</ele><time>2026-04-26T07:46:49.89Z</time></trkpt><trkpt lat="42.2897333" lon="14.476195"><ele>11.0</ele><time>2026-04-26T07:46:51.89Z</time></trkpt><trkpt lat="42.2898017" lon="14.47607"><ele>9.75</ele><time>2026-04-26T07:46:53.889Z</time></trkpt><trkpt lat="42.2898733" lon="14.475945"><ele>8.5</ele><time>2026-04-26T07:46:55.889Z</time></trkpt><trkpt lat="42.28994" lon="14.47582"><ele>7.25</ele><time>2026-04-26T07:46:57.889Z</time></trkpt><trkpt lat="42.290005" lon="14.4756917"><ele>6.0</ele><time>2026-04-26T07:46:59.89Z</time></trkpt><trkpt lat="42.29008" lon="14.4755767"><ele>6.0</ele><time>2026-04-26T07:47:01.89Z</time></trkpt><trkpt lat="42.290155" lon="14.4754617"><ele>6.0</ele><time>2026-04-26T07:47:03.89Z</time></trkpt><trkpt lat="42.2902283" lon="14.4753417"><ele>6.0</ele><time>2026-04-26T07:47:05.89Z</time></trkpt><trkpt lat="42.2902967" lon="14.4752217"><ele>6.0</ele><time>2026-04-26T07:47:07.89Z</time></trkpt><trkpt lat="42.2903667" lon="14.4750967"><ele>6.199999999999999</ele><time>2026-04-26T07:47:09.889Z</time></trkpt><trkpt lat="42.290405" lon="14.4750267"><ele>6.3999999999999995</ele><time>2026-04-26T07:47:10.89Z</time></trkpt><trkpt lat="42.290445" lon="14.4749567"><ele>6.6</ele><time>2026-04-26T07:47:11.89Z</time></trkpt><trkpt lat="42.2905133" lon="14.4748317"><ele>6.8</ele><time>2026-04-26T07:47:13.889Z</time></trkpt><trkpt lat="42.2905867" lon="14.474705"><ele>7.0</ele><time>2026-04-26T07:47:15.89Z</time></trkpt><trkpt lat="42.2906633" lon="14.4745783"><ele>7.0</ele><time>2026-04-26T07:47:17.89Z</time></trkpt><trkpt lat="42.2907367" lon="14.47445"><ele>7.0</ele><time>2026-04-26T07:47:19.89Z</time></trkpt><trkpt lat="42.2908067" lon="14.474325"><ele>7.0</ele><time>2026-04-26T07:47:21.889Z</time></trkpt><trkpt lat="42.2908783" lon="14.4742033"><ele>7.0</ele><time>2026-04-26T07:47:23.889Z</time></trkpt><trkpt lat="42.2909567" lon="14.474085"><ele>7.0</ele><time>2026-04-26T07:47:25.889Z</time></trkpt><trkpt lat="42.29104" lon="14.4739717"><ele>7.0</ele><time>2026-04-26T07:47:27.888Z</time></trkpt><trkpt lat="42.2911217" lon="14.4738533"><ele>7.0</ele><time>2026-04-26T07:47:29.889Z</time></trkpt><trkpt lat="42.2912033" lon="14.47374"><ele>7.0</ele><time>2026-04-26T07:47:31.889Z</time></trkpt><trkpt lat="42.2912833" lon="14.473625"><ele>6.5</ele><time>2026-04-26T07:47:33.889Z</time></trkpt><trkpt lat="42.29137" lon="14.4735117"><ele>6.0</ele><time>2026-04-26T07:47:35.889Z</time></trkpt><trkpt lat="42.2914517" lon="14.4734033"><ele>5.5</ele><time>2026-04-26T07:47:37.888Z</time></trkpt><trkpt lat="42.29154" lon="14.473305"><ele>5.0</ele><time>2026-04-26T07:47:39.889Z</time></trkpt><trkpt lat="42.29163" lon="14.473205"><ele>5.0</ele><time>2026-04-26T07:47:41.889Z</time></trkpt><trkpt lat="42.2917183" lon="14.473105"><ele>5.0</ele><time>2026-04-26T07:47:43.888Z</time></trkpt><trkpt lat="42.2918067" lon="14.4730017"><ele>5.0</ele><time>2026-04-26T07:47:45.889Z</time></trkpt><trkpt lat="42.291895" lon="14.4728933"><ele>5.0</ele><time>2026-04-26T07:47:47.889Z</time></trkpt><trkpt lat="42.2919867" lon="14.4727867"><ele>5.0</ele><time>2026-04-26T07:47:49.889Z</time></trkpt><trkpt lat="42.29208" lon="14.4726783"><ele>5.0</ele><time>2026-04-26T07:47:51.889Z</time></trkpt><trkpt lat="42.2921717" lon="14.47258"><ele>5.0</ele><time>2026-04-26T07:47:53.888Z</time></trkpt><trkpt lat="42.2922617" lon="14.472485"><ele>5.0</ele><time>2026-04-26T07:47:55.889Z</time></trkpt><trkpt lat="42.2923533" lon="14.4723883"><ele>5.0</ele><time>2026-04-26T07:47:57.888Z</time></trkpt><trkpt lat="42.292445" lon="14.472295"><ele>5.0</ele><time>2026-04-26T07:47:59.889Z</time></trkpt><trkpt lat="42.2925367" lon="14.4722033"><ele>5.0</ele><time>2026-04-26T07:48:01.888Z</time></trkpt><trkpt lat="42.29262" lon="14.4721133"><ele>5.0</ele><time>2026-04-26T07:48:03.888Z</time></trkpt><trkpt lat="42.2926767" lon="14.4720083"><ele>5.0</ele><time>2026-04-26T07:48:05.888Z</time></trkpt><trkpt lat="42.2927267" lon="14.47191"><ele>8.4</ele><time>2026-04-26T07:48:07.889Z</time></trkpt><trkpt lat="42.29278" lon="14.4718133"><ele>11.8</ele><time>2026-04-26T07:48:09.888Z</time></trkpt><trkpt lat="42.292835" lon="14.4717167"><ele>15.200000000000001</ele><time>2026-04-26T07:48:11.889Z</time></trkpt><trkpt lat="42.292905" lon="14.4715683"><ele>18.6</ele><time>2026-04-26T07:48:13.888Z</time></trkpt><trkpt lat="42.2929483" lon="14.471475"><ele>22.0</ele><time>2026-04-26T07:48:14.889Z</time></trkpt><trkpt lat="42.2930533" lon="14.4713933"><ele>19.75</ele><time>2026-04-26T07:48:16.889Z</time></trkpt><trkpt lat="42.293275" lon="14.471245"><ele>17.5</ele><time>2026-04-26T07:48:18.89Z</time></trkpt><trkpt lat="42.2933233" lon="14.4711683"><ele>15.25</ele><time>2026-04-26T07:48:19.889Z</time></trkpt><trkpt lat="42.2934017" lon="14.4710533"><ele>13.0</ele><time>2026-04-26T07:48:21.889Z</time></trkpt><trkpt lat="42.29348" lon="14.47094"><ele>13.0</ele><time>2026-04-26T07:48:23.889Z</time></trkpt><trkpt lat="42.29356" lon="14.4708283"><ele>13.0</ele><time>2026-04-26T07:48:25.89Z</time></trkpt><trkpt lat="42.2936383" lon="14.4707117"><ele>13.0</ele><time>2026-04-26T07:48:27.89Z</time></trkpt><trkpt lat="42.29371" lon="14.4705917"><ele>13.0</ele><time>2026-04-26T07:48:29.889Z</time></trkpt><trkpt lat="42.2937883" lon="14.4704733"><ele>11.75</ele><time>2026-04-26T07:48:31.889Z</time></trkpt><trkpt lat="42.293865" lon="14.4703533"><ele>10.5</ele><time>2026-04-26T07:48:33.89Z</time></trkpt><trkpt lat="42.2939417" lon="14.4702333"><ele>9.25</ele><time>2026-04-26T07:48:35.889Z</time></trkpt><trkpt lat="42.2940217" lon="14.4701183"><ele>8.0</ele><time>2026-04-26T07:48:37.89Z</time></trkpt><trkpt lat="42.2940983" lon="14.469995"><ele>8.0</ele><time>2026-04-26T07:48:39.889Z</time></trkpt><trkpt lat="42.294175" lon="14.4698783"><ele>8.0</ele><time>2026-04-26T07:48:41.889Z</time></trkpt><trkpt lat="42.2942533" lon="14.46976"><ele>8.0</ele><time>2026-04-26T07:48:43.89Z</time></trkpt><trkpt lat="42.29433" lon="14.4696367"><ele>8.0</ele><time>2026-04-26T07:48:45.89Z</time></trkpt><trkpt lat="42.2944" lon="14.4695083"><ele>12.0</ele><time>2026-04-26T07:48:47.89Z</time></trkpt><trkpt lat="42.2944683" lon="14.4693733"><ele>16.0</ele><time>2026-04-26T07:48:49.89Z</time></trkpt><trkpt lat="42.2945317" lon="14.4692433"><ele>20.0</ele><time>2026-04-26T07:48:51.89Z</time></trkpt><trkpt lat="42.29459" lon="14.4691067"><ele>24.0</ele><time>2026-04-26T07:48:53.89Z</time></trkpt><trkpt lat="42.2946533" lon="14.46897"><ele>24.0</ele><time>2026-04-26T07:48:55.89Z</time></trkpt><trkpt lat="42.2946883" lon="14.4688983"><ele>24.0</ele><time>2026-04-26T07:48:56.889Z</time></trkpt><trkpt lat="42.294755" lon="14.4687633"><ele>24.0</ele><time>2026-04-26T07:48:58.89Z</time></trkpt><trkpt lat="42.2948183" lon="14.46863"><ele>24.0</ele><time>2026-04-26T07:49:00.89Z</time></trkpt><trkpt lat="42.29488" lon="14.4684983"><ele>24.0</ele><time>2026-04-26T07:49:02.889Z</time></trkpt><trkpt lat="42.2949433" lon="14.46835"><ele>22.25</ele><time>2026-04-26T07:49:04.89Z</time></trkpt><trkpt lat="42.2950017" lon="14.4682033"><ele>20.5</ele><time>2026-04-26T07:49:06.889Z</time></trkpt><trkpt lat="42.2950633" lon="14.468065"><ele>18.75</ele><time>2026-04-26T07:49:08.89Z</time></trkpt><trkpt lat="42.29512" lon="14.4679283"><ele>17.0</ele><time>2026-04-26T07:49:10.89Z</time></trkpt><trkpt lat="42.2951833" lon="14.46779"><ele>17.0</ele><time>2026-04-26T07:49:12.889Z</time></trkpt><trkpt lat="42.2952417" lon="14.4676533"><ele>17.0</ele><time>2026-04-26T07:49:14.889Z</time></trkpt><trkpt lat="42.2952983" lon="14.4675167"><ele>17.0</ele><time>2026-04-26T07:49:16.89Z</time></trkpt><trkpt lat="42.2953583" lon="14.4673733"><ele>17.0</ele><time>2026-04-26T07:49:18.889Z</time></trkpt><trkpt lat="42.2954183" lon="14.4672333"><ele>15.25</ele><time>2026-04-26T07:49:20.89Z</time></trkpt><trkpt lat="42.29548" lon="14.4670933"><ele>13.5</ele><time>2026-04-26T07:49:22.89Z</time></trkpt><trkpt lat="42.2955417" lon="14.4669633"><ele>11.75</ele><time>2026-04-26T07:49:24.89Z</time></trkpt><trkpt lat="42.295605" lon="14.4668367"><ele>10.0</ele><time>2026-04-26T07:49:26.889Z</time></trkpt><trkpt lat="42.295665" lon="14.466725"><ele>10.0</ele><time>2026-04-26T07:49:28.889Z</time></trkpt><trkpt lat="42.295715" lon="14.4666333"><ele>10.0</ele><time>2026-04-26T07:49:30.889Z</time></trkpt><trkpt lat="42.2957533" lon="14.4665567"><ele>10.0</ele><time>2026-04-26T07:49:32.889Z</time></trkpt><trkpt lat="42.2957917" lon="14.4664683"><ele>10.0</ele><time>2026-04-26T07:49:35.89Z</time></trkpt><trkpt lat="42.29584" lon="14.46637"><ele>10.0</ele><time>2026-04-26T07:49:58.186Z</time></trkpt><trkpt lat="42.2966825" lon="14.4649486"><ele>11.0</ele><time>2026-04-26T07:50:05.805Z</time></trkpt><trkpt lat="42.29682" lon="14.4647933"><ele>12.0</ele><time>2026-04-26T07:50:20.89Z</time></trkpt><trkpt lat="42.2969" lon="14.4646633"><ele>13.0</ele><time>2026-04-26T07:50:22.889Z</time></trkpt><trkpt lat="42.2969717" lon="14.4645433"><ele>14.0</ele><time>2026-04-26T07:50:24.89Z</time></trkpt><trkpt lat="42.2970417" lon="14.46442"><ele>15.75</ele><time>2026-04-26T07:50:26.89Z</time></trkpt><trkpt lat="42.2971067" lon="14.46429"><ele>17.5</ele><time>2026-04-26T07:50:28.889Z</time></trkpt><trkpt lat="42.2971683" lon="14.46417"><ele>19.25</ele><time>2026-04-26T07:50:30.889Z</time></trkpt><trkpt lat="42.2972433" lon="14.4640467"><ele>21.0</ele><time>2026-04-26T07:50:32.89Z</time></trkpt><trkpt lat="42.2973233" lon="14.46392"><ele>19.25</ele><time>2026-04-26T07:50:34.89Z</time></trkpt><trkpt lat="42.2973983" lon="14.4637983"><ele>17.5</ele><time>2026-04-26T07:50:36.89Z</time></trkpt><trkpt lat="42.2974717" lon="14.4636717"><ele>15.75</ele><time>2026-04-26T07:50:38.89Z</time></trkpt><trkpt lat="42.2975417" lon="14.4635417"><ele>14.0</ele><time>2026-04-26T07:50:40.89Z</time></trkpt><trkpt lat="42.2976133" lon="14.4634167"><ele>14.0</ele><time>2026-04-26T07:50:42.89Z</time></trkpt><trkpt lat="42.2976883" lon="14.4632917"><ele>14.0</ele><time>2026-04-26T07:50:44.89Z</time></trkpt><trkpt lat="42.2977617" lon="14.46317"><ele>14.0</ele><time>2026-04-26T07:50:46.89Z</time></trkpt><trkpt lat="42.297835" lon="14.46305"><ele>14.0</ele><time>2026-04-26T07:50:48.89Z</time></trkpt><trkpt lat="42.2979083" lon="14.4629317"><ele>12.25</ele><time>2026-04-26T07:50:50.889Z</time></trkpt><trkpt lat="42.2979817" lon="14.4628133"><ele>10.5</ele><time>2026-04-26T07:50:52.89Z</time></trkpt><trkpt lat="42.29806" lon="14.462695"><ele>8.75</ele><time>2026-04-26T07:50:54.89Z</time></trkpt><trkpt lat="42.2981283" lon="14.4625717"><ele>7.0</ele><time>2026-04-26T07:50:56.89Z</time></trkpt><trkpt lat="42.2982033" lon="14.4624367"><ele>7.0</ele><time>2026-04-26T07:50:58.889Z</time></trkpt><trkpt lat="42.2982733" lon="14.4623167"><ele>7.0</ele><time>2026-04-26T07:51:00.89Z</time></trkpt><trkpt lat="42.2983433" lon="14.462195"><ele>7.0</ele><time>2026-04-26T07:51:02.89Z</time></trkpt><trkpt lat="42.298415" lon="14.4620783"><ele>7.0</ele><time>2026-04-26T07:51:04.89Z</time></trkpt><trkpt lat="42.2984883" lon="14.4619517"><ele>10.0</ele><time>2026-04-26T07:51:06.889Z</time></trkpt><trkpt lat="42.29856" lon="14.4618283"><ele>13.0</ele><time>2026-04-26T07:51:08.89Z</time></trkpt><trkpt lat="42.2986333" lon="14.46171"><ele>16.0</ele><time>2026-04-26T07:51:10.89Z</time></trkpt><trkpt lat="42.2987017" lon="14.461595"><ele>19.0</ele><time>2026-04-26T07:51:12.889Z</time></trkpt><trkpt lat="42.298765" lon="14.4614917"><ele>22.0</ele><time>2026-04-26T07:51:14.89Z</time></trkpt><trkpt lat="42.2988283" lon="14.461385"><ele>21.333333333333332</ele><time>2026-04-26T07:51:16.889Z</time></trkpt><trkpt lat="42.2988883" lon="14.4612783"><ele>20.666666666666668</ele><time>2026-04-26T07:51:18.889Z</time></trkpt><trkpt lat="42.2989383" lon="14.4611717"><ele>20.0</ele><time>2026-04-26T07:51:20.89Z</time></trkpt><trkpt lat="42.2999667" lon="14.4595133"><ele>18.833333333333336</ele><time>2026-04-26T07:51:50.893Z</time></trkpt><trkpt lat="42.300025" lon="14.4594433"><ele>17.666666666666668</ele><time>2026-04-26T07:51:51.894Z</time></trkpt><trkpt lat="42.300085" lon="14.4593167"><ele>16.5</ele><time>2026-04-26T07:51:52.893Z</time></trkpt><trkpt lat="42.300135" lon="14.45924"><ele>15.333333333333332</ele><time>2026-04-26T07:51:53.894Z</time></trkpt><trkpt lat="42.3001783" lon="14.45917"><ele>14.166666666666666</ele><time>2026-04-26T07:51:54.894Z</time></trkpt><trkpt lat="42.3002217" lon="14.4590983"><ele>13.0</ele><time>2026-04-26T07:51:55.894Z</time></trkpt><trkpt lat="42.3002967" lon="14.4589683"><ele>13.0</ele><time>2026-04-26T07:51:57.894Z</time></trkpt><trkpt lat="42.3003717" lon="14.4588467"><ele>13.0</ele><time>2026-04-26T07:51:59.894Z</time></trkpt><trkpt lat="42.3004433" lon="14.4587183"><ele>13.0</ele><time>2026-04-26T07:52:01.894Z</time></trkpt><trkpt lat="42.3005183" lon="14.4585983"><ele>13.0</ele><time>2026-04-26T07:52:03.894Z</time></trkpt><trkpt lat="42.300585" lon="14.4584767"><ele>13.4</ele><time>2026-04-26T07:52:05.893Z</time></trkpt><trkpt lat="42.3006517" lon="14.458355"><ele>13.8</ele><time>2026-04-26T07:52:07.893Z</time></trkpt><trkpt lat="42.3007183" lon="14.458235"><ele>14.2</ele><time>2026-04-26T07:52:09.894Z</time></trkpt><trkpt lat="42.3007867" lon="14.45812"><ele>14.6</ele><time>2026-04-26T07:52:11.893Z</time></trkpt><trkpt lat="42.3008617" lon="14.4580017"><ele>15.0</ele><time>2026-04-26T07:52:13.893Z</time></trkpt><trkpt lat="42.300935" lon="14.4578783"><ele>15.0</ele><time>2026-04-26T07:52:15.894Z</time></trkpt><trkpt lat="42.3010083" lon="14.45775"><ele>15.0</ele><time>2026-04-26T07:52:17.893Z</time></trkpt><trkpt lat="42.30108" lon="14.457625"><ele>15.0</ele><time>2026-04-26T07:52:19.894Z</time></trkpt><trkpt lat="42.3011517" lon="14.4575033"><ele>15.0</ele><time>2026-04-26T07:52:21.894Z</time></trkpt><trkpt lat="42.3012283" lon="14.4573867"><ele>15.0</ele><time>2026-04-26T07:52:23.893Z</time></trkpt><trkpt lat="42.3013033" lon="14.457265"><ele>15.0</ele><time>2026-04-26T07:52:25.893Z</time></trkpt><trkpt lat="42.3013417" lon="14.4571967"><ele>15.0</ele><time>2026-04-26T07:52:26.893Z</time></trkpt><trkpt lat="42.3014117" lon="14.457075"><ele>15.0</ele><time>2026-04-26T07:52:28.893Z</time></trkpt><trkpt lat="42.30145" lon="14.457005"><ele>15.0</ele><time>2026-04-26T07:52:29.894Z</time></trkpt><trkpt lat="42.3014883" lon="14.4569367"><ele>15.0</ele><time>2026-04-26T07:52:30.893Z</time></trkpt><trkpt lat="42.30157" lon="14.4568133"><ele>14.0</ele><time>2026-04-26T07:52:32.894Z</time></trkpt><trkpt lat="42.3016417" lon="14.456695"><ele>13.0</ele><time>2026-04-26T07:52:34.894Z</time></trkpt><trkpt lat="42.3017117" lon="14.4565617"><ele>12.0</ele><time>2026-04-26T07:52:36.894Z</time></trkpt><trkpt lat="42.301785" lon="14.45644"><ele>11.0</ele><time>2026-04-26T07:52:38.894Z</time></trkpt><trkpt lat="42.30186" lon="14.4563167"><ele>14.0</ele><time>2026-04-26T07:52:40.893Z</time></trkpt><trkpt lat="42.3019367" lon="14.4561967"><ele>17.0</ele><time>2026-04-26T07:52:42.894Z</time></trkpt><trkpt lat="42.3020017" lon="14.4560667"><ele>20.0</ele><time>2026-04-26T07:52:44.894Z</time></trkpt><trkpt lat="42.3020717" lon="14.455945"><ele>23.0</ele><time>2026-04-26T07:52:46.894Z</time></trkpt><trkpt lat="42.3021483" lon="14.45581"><ele>23.0</ele><time>2026-04-26T07:52:48.894Z</time></trkpt><trkpt lat="42.3022183" lon="14.45569"><ele>23.0</ele><time>2026-04-26T07:52:50.894Z</time></trkpt><trkpt lat="42.302295" lon="14.455565"><ele>23.0</ele><time>2026-04-26T07:52:52.894Z</time></trkpt><trkpt lat="42.3023683" lon="14.455445"><ele>23.0</ele><time>2026-04-26T07:52:54.894Z</time></trkpt><trkpt lat="42.3024367" lon="14.4553183"><ele>20.5</ele><time>2026-04-26T07:52:56.894Z</time></trkpt><trkpt lat="42.3025117" lon="14.4551967"><ele>18.0</ele><time>2026-04-26T07:52:58.893Z</time></trkpt><trkpt lat="42.30259" lon="14.45508"><ele>15.5</ele><time>2026-04-26T07:53:00.894Z</time></trkpt><trkpt lat="42.3026667" lon="14.4549683"><ele>13.0</ele><time>2026-04-26T07:53:02.894Z</time></trkpt><trkpt lat="42.3027333" lon="14.45484"><ele>13.0</ele><time>2026-04-26T07:53:04.894Z</time></trkpt><trkpt lat="42.3028" lon="14.4547133"><ele>13.0</ele><time>2026-04-26T07:53:06.893Z</time></trkpt><trkpt lat="42.3028717" lon="14.4545967"><ele>13.0</ele><time>2026-04-26T07:53:08.893Z</time></trkpt><trkpt lat="42.3029467" lon="14.4544717"><ele>13.0</ele><time>2026-04-26T07:53:10.893Z</time></trkpt><trkpt lat="42.3030183" lon="14.4543433"><ele>11.6</ele><time>2026-04-26T07:53:12.893Z</time></trkpt><trkpt lat="42.3030933" lon="14.454205"><ele>10.200000000000001</ele><time>2026-04-26T07:53:14.894Z</time></trkpt><trkpt lat="42.303155" lon="14.454085"><ele>8.8</ele><time>2026-04-26T07:53:16.893Z</time></trkpt><trkpt lat="42.3032183" lon="14.453985"><ele>7.4</ele><time>2026-04-26T07:53:18.894Z</time></trkpt><trkpt lat="42.303275" lon="14.4538917"><ele>6.0</ele><time>2026-04-26T07:53:20.893Z</time></trkpt><trkpt lat="42.303325" lon="14.4538117"><ele>7.666666666666666</ele><time>2026-04-26T07:53:22.894Z</time></trkpt><trkpt lat="42.3033717" lon="14.453745"><ele>9.333333333333332</ele><time>2026-04-26T07:53:24.894Z</time></trkpt><trkpt lat="42.303425" lon="14.4536583"><ele>11.0</ele><time>2026-04-26T07:53:27.894Z</time></trkpt><trkpt lat="42.303475" lon="14.4535767"><ele>12.666666666666666</ele><time>2026-04-26T07:53:30.893Z</time></trkpt><trkpt lat="42.3035133" lon="14.453485"><ele>14.333333333333332</ele><time>2026-04-26T07:53:32.894Z</time></trkpt><trkpt lat="42.303575" lon="14.4533983"><ele>16.0</ele><time>2026-04-26T07:53:34.894Z</time></trkpt><trkpt lat="42.303635" lon="14.45331"><ele>16.0</ele><time>2026-04-26T07:53:36.894Z</time></trkpt><trkpt lat="42.3036967" lon="14.4531967"><ele>16.0</ele><time>2026-04-26T07:53:38.894Z</time></trkpt><trkpt lat="42.3037583" lon="14.453085"><ele>16.0</ele><time>2026-04-26T07:53:40.894Z</time></trkpt><trkpt lat="42.3038217" lon="14.452985"><ele>16.0</ele><time>2026-04-26T07:53:42.893Z</time></trkpt><trkpt lat="42.3038883" lon="14.45288"><ele>16.0</ele><time>2026-04-26T07:53:44.894Z</time></trkpt><trkpt lat="42.3039583" lon="14.45279"><ele>14.200000000000001</ele><time>2026-04-26T07:53:46.893Z</time></trkpt><trkpt lat="42.3040333" lon="14.452695"><ele>12.400000000000002</ele><time>2026-04-26T07:53:48.893Z</time></trkpt><trkpt lat="42.3041033" lon="14.45258"><ele>10.6</ele><time>2026-04-26T07:53:50.894Z</time></trkpt><trkpt lat="42.30418" lon="14.4524783"><ele>8.8</ele><time>2026-04-26T07:53:52.894Z</time></trkpt><trkpt lat="42.3042533" lon="14.4523667"><ele>7.0</ele><time>2026-04-26T07:53:54.893Z</time></trkpt><trkpt lat="42.3043317" lon="14.452265"><ele>7.0</ele><time>2026-04-26T07:53:56.894Z</time></trkpt><trkpt lat="42.3044133" lon="14.4521633"><ele>7.0</ele><time>2026-04-26T07:53:58.893Z</time></trkpt><trkpt lat="42.3044933" lon="14.4520583"><ele>7.0</ele><time>2026-04-26T07:54:00.894Z</time></trkpt><trkpt lat="42.3045833" lon="14.4519617"><ele>7.0</ele><time>2026-04-26T07:54:02.894Z</time></trkpt><trkpt lat="42.30467" lon="14.451855"><ele>6.3999999999999995</ele><time>2026-04-26T07:54:04.894Z</time></trkpt><trkpt lat="42.3047533" lon="14.4517433"><ele>5.799999999999999</ele><time>2026-04-26T07:54:06.894Z</time></trkpt><trkpt lat="42.3048317" lon="14.4516333"><ele>5.2</ele><time>2026-04-26T07:54:08.894Z</time></trkpt><trkpt lat="42.3049017" lon="14.4515217"><ele>4.6</ele><time>2026-04-26T07:54:10.894Z</time></trkpt><trkpt lat="42.3049433" lon="14.4514567"><ele>4.0</ele><time>2026-04-26T07:54:11.894Z</time></trkpt><trkpt lat="42.3049867" lon="14.4513933"><ele>5.5</ele><time>2026-04-26T07:54:12.893Z</time></trkpt><trkpt lat="42.3050667" lon="14.4512883"><ele>7.0</ele><time>2026-04-26T07:54:14.893Z</time></trkpt><trkpt lat="42.305155" lon="14.451175"><ele>8.5</ele><time>2026-04-26T07:54:16.894Z</time></trkpt><trkpt lat="42.3052367" lon="14.4510583"><ele>10.0</ele><time>2026-04-26T07:54:18.893Z</time></trkpt><trkpt lat="42.3053183" lon="14.4509483"><ele>10.0</ele><time>2026-04-26T07:54:20.894Z</time></trkpt><trkpt lat="42.305405" lon="14.450825"><ele>10.0</ele><time>2026-04-26T07:54:22.893Z</time></trkpt><trkpt lat="42.3054783" lon="14.45071"><ele>10.0</ele><time>2026-04-26T07:54:24.894Z</time></trkpt><trkpt lat="42.30556" lon="14.4505933"><ele>10.0</ele><time>2026-04-26T07:54:26.893Z</time></trkpt><trkpt lat="42.3056367" lon="14.4504683"><ele>9.333333333333334</ele><time>2026-04-26T07:54:28.893Z</time></trkpt><trkpt lat="42.30568" lon="14.450405"><ele>8.666666666666668</ele><time>2026-04-26T07:54:29.894Z</time></trkpt><trkpt lat="42.30573" lon="14.4503467"><ele>8.0</ele><time>2026-04-26T07:54:30.894Z</time></trkpt><trkpt lat="42.3057767" lon="14.4502867"><ele>7.333333333333334</ele><time>2026-04-26T07:54:31.893Z</time></trkpt><trkpt lat="42.3058233" lon="14.4502283"><ele>6.666666666666667</ele><time>2026-04-26T07:54:32.894Z</time></trkpt><trkpt lat="42.305905" lon="14.4501267"><ele>6.0</ele><time>2026-04-26T07:54:34.894Z</time></trkpt><trkpt lat="42.3059933" lon="14.450025"><ele>6.0</ele><time>2026-04-26T07:54:36.894Z</time></trkpt><trkpt lat="42.3060733" lon="14.44993"><ele>6.0</ele><time>2026-04-26T07:54:38.894Z</time></trkpt><trkpt lat="42.30615" lon="14.4498233"><ele>6.0</ele><time>2026-04-26T07:54:40.894Z</time></trkpt><trkpt lat="42.3062267" lon="14.4497167"><ele>6.0</ele><time>2026-04-26T07:54:42.894Z</time></trkpt><trkpt lat="42.3063083" lon="14.4496067"><ele>6.0</ele><time>2026-04-26T07:54:44.894Z</time></trkpt><trkpt lat="42.3063967" lon="14.4494833"><ele>5.75</ele><time>2026-04-26T07:54:46.894Z</time></trkpt><trkpt lat="42.3064767" lon="14.4493633"><ele>5.5</ele><time>2026-04-26T07:54:48.893Z</time></trkpt><trkpt lat="42.306555" lon="14.4492533"><ele>5.25</ele><time>2026-04-26T07:54:50.894Z</time></trkpt><trkpt lat="42.3066383" lon="14.4491417"><ele>5.0</ele><time>2026-04-26T07:54:52.894Z</time></trkpt><trkpt lat="42.3067233" lon="14.4490217"><ele>5.0</ele><time>2026-04-26T07:54:54.894Z</time></trkpt><trkpt lat="42.3068067" lon="14.4489167"><ele>5.0</ele><time>2026-04-26T07:54:56.894Z</time></trkpt><trkpt lat="42.3068833" lon="14.4488217"><ele>5.0</ele><time>2026-04-26T07:54:58.893Z</time></trkpt><trkpt lat="42.3069667" lon="14.44872"><ele>5.0</ele><time>2026-04-26T07:55:00.894Z</time></trkpt><trkpt lat="42.3070467" lon="14.4486017"><ele>5.0</ele><time>2026-04-26T07:55:02.893Z</time></trkpt><trkpt lat="42.3071317" lon="14.4484883"><ele>5.0</ele><time>2026-04-26T07:55:04.894Z</time></trkpt><trkpt lat="42.3072117" lon="14.4483783"><ele>5.0</ele><time>2026-04-26T07:55:06.893Z</time></trkpt><trkpt lat="42.3072967" lon="14.4482633"><ele>5.0</ele><time>2026-04-26T07:55:08.894Z</time></trkpt><trkpt lat="42.3073767" lon="14.4481567"><ele>5.0</ele><time>2026-04-26T07:55:10.894Z</time></trkpt><trkpt lat="42.3074567" lon="14.44805"><ele>6.75</ele><time>2026-04-26T07:55:12.894Z</time></trkpt><trkpt lat="42.3075417" lon="14.4479333"><ele>8.5</ele><time>2026-04-26T07:55:14.894Z</time></trkpt><trkpt lat="42.3076183" lon="14.447825"><ele>10.25</ele><time>2026-04-26T07:55:16.894Z</time></trkpt><trkpt lat="42.307695" lon="14.4477033"><ele>12.0</ele><time>2026-04-26T07:55:18.894Z</time></trkpt><trkpt lat="42.307765" lon="14.44759"><ele>12.0</ele><time>2026-04-26T07:55:20.893Z</time></trkpt><trkpt lat="42.3078383" lon="14.4474667"><ele>12.0</ele><time>2026-04-26T07:55:22.894Z</time></trkpt><trkpt lat="42.3079017" lon="14.4473383"><ele>12.0</ele><time>2026-04-26T07:55:24.894Z</time></trkpt><trkpt lat="42.3079567" lon="14.4472117"><ele>12.0</ele><time>2026-04-26T07:55:26.894Z</time></trkpt><trkpt lat="42.308015" lon="14.4470867"><ele>12.0</ele><time>2026-04-26T07:55:28.893Z</time></trkpt><trkpt lat="42.3080783" lon="14.44695"><ele>11.6</ele><time>2026-04-26T07:55:30.894Z</time></trkpt><trkpt lat="42.3081283" lon="14.44682"><ele>11.2</ele><time>2026-04-26T07:55:32.893Z</time></trkpt><trkpt lat="42.3081883" lon="14.4466983"><ele>10.8</ele><time>2026-04-26T07:55:34.894Z</time></trkpt><trkpt lat="42.3082483" lon="14.446575"><ele>10.4</ele><time>2026-04-26T07:55:36.894Z</time></trkpt><trkpt lat="42.3083033" lon="14.4464533"><ele>10.0</ele><time>2026-04-26T07:55:38.893Z</time></trkpt><trkpt lat="42.3083617" lon="14.4463233"><ele>10.0</ele><time>2026-04-26T07:55:40.893Z</time></trkpt><trkpt lat="42.3083917" lon="14.4462467"><ele>10.0</ele><time>2026-04-26T07:55:41.893Z</time></trkpt><trkpt lat="42.30845" lon="14.4461117"><ele>10.0</ele><time>2026-04-26T07:55:43.893Z</time></trkpt><trkpt lat="42.3085083" lon="14.4459733"><ele>10.0</ele><time>2026-04-26T07:55:45.894Z</time></trkpt><trkpt lat="42.3085367" lon="14.4458967"><ele>10.0</ele><time>2026-04-26T07:55:46.894Z</time></trkpt><trkpt lat="42.3085917" lon="14.4457617"><ele>10.0</ele><time>2026-04-26T07:55:48.894Z</time></trkpt><trkpt lat="42.3086517" lon="14.4456333"><ele>10.0</ele><time>2026-04-26T07:55:50.894Z</time></trkpt><trkpt lat="42.3087083" lon="14.4454917"><ele>10.0</ele><time>2026-04-26T07:55:52.894Z</time></trkpt><trkpt lat="42.3087717" lon="14.445355"><ele>10.0</ele><time>2026-04-26T07:55:54.894Z</time></trkpt><trkpt lat="42.308835" lon="14.4452183"><ele>9.8</ele><time>2026-04-26T07:55:56.894Z</time></trkpt><trkpt lat="42.3088933" lon="14.445095"><ele>9.6</ele><time>2026-04-26T07:55:58.893Z</time></trkpt><trkpt lat="42.308945" lon="14.44498"><ele>9.4</ele><time>2026-04-26T07:56:00.894Z</time></trkpt><trkpt lat="42.30901" lon="14.44486"><ele>9.2</ele><time>2026-04-26T07:56:02.894Z</time></trkpt><trkpt lat="42.30908" lon="14.44474"><ele>9.0</ele><time>2026-04-26T07:56:04.894Z</time></trkpt><trkpt lat="42.309155" lon="14.4446217"><ele>8.0</ele><time>2026-04-26T07:56:06.894Z</time></trkpt><trkpt lat="42.3092217" lon="14.4445083"><ele>7.0</ele><time>2026-04-26T07:56:08.894Z</time></trkpt><trkpt lat="42.3092917" lon="14.4443983"><ele>6.0</ele><time>2026-04-26T07:56:10.893Z</time></trkpt><trkpt lat="42.3093767" lon="14.44427"><ele>5.0</ele><time>2026-04-26T07:56:12.894Z</time></trkpt><trkpt lat="42.3094617" lon="14.4441583"><ele>5.0</ele><time>2026-04-26T07:56:14.894Z</time></trkpt><trkpt lat="42.3095467" lon="14.4440233"><ele>5.0</ele><time>2026-04-26T07:56:16.894Z</time></trkpt><trkpt lat="42.30959" lon="14.4439583"><ele>5.0</ele><time>2026-04-26T07:56:17.894Z</time></trkpt><trkpt lat="42.3096733" lon="14.4438383"><ele>5.0</ele><time>2026-04-26T07:56:19.893Z</time></trkpt><trkpt lat="42.309755" lon="14.4437267"><ele>5.0</ele><time>2026-04-26T07:56:21.893Z</time></trkpt><trkpt lat="42.309845" lon="14.4436133"><ele>5.0</ele><time>2026-04-26T07:56:23.893Z</time></trkpt><trkpt lat="42.3099383" lon="14.4435"><ele>5.0</ele><time>2026-04-26T07:56:25.893Z</time></trkpt><trkpt lat="42.3100233" lon="14.4433967"><ele>5.0</ele><time>2026-04-26T07:56:27.893Z</time></trkpt><trkpt lat="42.3101133" lon="14.4432917"><ele>5.0</ele><time>2026-04-26T07:56:29.894Z</time></trkpt><trkpt lat="42.3102067" lon="14.4431933"><ele>5.0</ele><time>2026-04-26T07:56:31.893Z</time></trkpt><trkpt lat="42.310295" lon="14.4431117"><ele>5.0</ele><time>2026-04-26T07:56:33.894Z</time></trkpt><trkpt lat="42.3103867" lon="14.4430167"><ele>5.0</ele><time>2026-04-26T07:56:35.893Z</time></trkpt><trkpt lat="42.3104767" lon="14.4429267"><ele>5.0</ele><time>2026-04-26T07:56:37.893Z</time></trkpt><trkpt lat="42.3105617" lon="14.442835"><ele>5.0</ele><time>2026-04-26T07:56:39.893Z</time></trkpt><trkpt lat="42.3106583" lon="14.442725"><ele>5.5</ele><time>2026-04-26T07:56:41.893Z</time></trkpt><trkpt lat="42.3107533" lon="14.4426067"><ele>6.0</ele><time>2026-04-26T07:56:43.893Z</time></trkpt><trkpt lat="42.310845" lon="14.4425083"><ele>6.5</ele><time>2026-04-26T07:56:45.893Z</time></trkpt><trkpt lat="42.3109383" lon="14.44241"><ele>7.0</ele><time>2026-04-26T07:56:47.893Z</time></trkpt><trkpt lat="42.3110283" lon="14.4423117"><ele>7.0</ele><time>2026-04-26T07:56:49.893Z</time></trkpt><trkpt lat="42.3111233" lon="14.4422183"><ele>7.0</ele><time>2026-04-26T07:56:51.893Z</time></trkpt><trkpt lat="42.3112233" lon="14.4421217"><ele>7.0</ele><time>2026-04-26T07:56:53.893Z</time></trkpt><trkpt lat="42.3113083" lon="14.4420217"><ele>7.0</ele><time>2026-04-26T07:56:55.892Z</time></trkpt><trkpt lat="42.3113933" lon="14.441915"><ele>7.0</ele><time>2026-04-26T07:56:57.893Z</time></trkpt><trkpt lat="42.3114767" lon="14.4418"><ele>7.0</ele><time>2026-04-26T07:56:59.893Z</time></trkpt><trkpt lat="42.3115617" lon="14.4416967"><ele>7.0</ele><time>2026-04-26T07:57:01.892Z</time></trkpt><trkpt lat="42.31165" lon="14.4415867"><ele>7.0</ele><time>2026-04-26T07:57:03.892Z</time></trkpt><trkpt lat="42.311735" lon="14.4414683"><ele>7.0</ele><time>2026-04-26T07:57:05.893Z</time></trkpt><trkpt lat="42.3118217" lon="14.4413517"><ele>7.0</ele><time>2026-04-26T07:57:07.893Z</time></trkpt><trkpt lat="42.31191" lon="14.4412433"><ele>7.0</ele><time>2026-04-26T07:57:09.893Z</time></trkpt><trkpt lat="42.3119967" lon="14.44113"><ele>7.0</ele><time>2026-04-26T07:57:11.893Z</time></trkpt><trkpt lat="42.31208" lon="14.441015"><ele>6.25</ele><time>2026-04-26T07:57:13.893Z</time></trkpt><trkpt lat="42.312165" lon="14.4409217"><ele>5.5</ele><time>2026-04-26T07:57:15.892Z</time></trkpt><trkpt lat="42.312245" lon="14.4408183"><ele>4.75</ele><time>2026-04-26T07:57:17.893Z</time></trkpt><trkpt lat="42.3123267" lon="14.4407033"><ele>4.0</ele><time>2026-04-26T07:57:19.892Z</time></trkpt><trkpt lat="42.3124033" lon="14.4405933"><ele>4.0</ele><time>2026-04-26T07:57:21.892Z</time></trkpt><trkpt lat="42.312485" lon="14.4404817"><ele>4.0</ele><time>2026-04-26T07:57:23.893Z</time></trkpt><trkpt lat="42.31253" lon="14.44042"><ele>4.0</ele><time>2026-04-26T07:57:24.892Z</time></trkpt><trkpt lat="42.3126167" lon="14.4403017"><ele>4.0</ele><time>2026-04-26T07:57:26.893Z</time></trkpt><trkpt lat="42.3126983" lon="14.4401983"><ele>4.0</ele><time>2026-04-26T07:57:28.893Z</time></trkpt><trkpt lat="42.3127817" lon="14.4400883"><ele>3.25</ele><time>2026-04-26T07:57:30.892Z</time></trkpt><trkpt lat="42.3128633" lon="14.439975"><ele>2.5</ele><time>2026-04-26T07:57:32.893Z</time></trkpt><trkpt lat="42.3129367" lon="14.43986"><ele>1.75</ele><time>2026-04-26T07:57:34.892Z</time></trkpt><trkpt lat="42.3130267" lon="14.43978"><ele>1.0</ele><time>2026-04-26T07:57:36.892Z</time></trkpt><trkpt lat="42.31311" lon="14.4396767"><ele>2.25</ele><time>2026-04-26T07:57:38.893Z</time></trkpt><trkpt lat="42.3131917" lon="14.439565"><ele>3.5</ele><time>2026-04-26T07:57:40.892Z</time></trkpt><trkpt lat="42.3132783" lon="14.4394667"><ele>4.75</ele><time>2026-04-26T07:57:42.893Z</time></trkpt><trkpt lat="42.3133583" lon="14.4393667"><ele>6.0</ele><time>2026-04-26T07:57:44.893Z</time></trkpt><trkpt lat="42.3134333" lon="14.4392517"><ele>6.0</ele><time>2026-04-26T07:57:46.893Z</time></trkpt><trkpt lat="42.3135117" lon="14.4391417"><ele>6.0</ele><time>2026-04-26T07:57:48.893Z</time></trkpt><trkpt lat="42.3135933" lon="14.43904"><ele>6.0</ele><time>2026-04-26T07:57:50.893Z</time></trkpt><trkpt lat="42.3136783" lon="14.4389233"><ele>6.0</ele><time>2026-04-26T07:57:52.892Z</time></trkpt><trkpt lat="42.3137617" lon="14.4388133"><ele>6.25</ele><time>2026-04-26T07:57:54.892Z</time></trkpt><trkpt lat="42.3138433" lon="14.4387067"><ele>6.5</ele><time>2026-04-26T07:57:56.892Z</time></trkpt><trkpt lat="42.31393" lon="14.4385983"><ele>6.75</ele><time>2026-04-26T07:57:58.893Z</time></trkpt><trkpt lat="42.3140167" lon="14.4384833"><ele>7.0</ele><time>2026-04-26T07:58:00.892Z</time></trkpt><trkpt lat="42.3141067" lon="14.4383833"><ele>7.0</ele><time>2026-04-26T07:58:02.893Z</time></trkpt><trkpt lat="42.314195" lon="14.438285"><ele>6.999999999999999</ele><time>2026-04-26T07:58:04.892Z</time></trkpt><trkpt lat="42.3142917" lon="14.4381867"><ele>6.999999999999999</ele><time>2026-04-26T07:58:06.893Z</time></trkpt><trkpt lat="42.314345" lon="14.4381383"><ele>7.0</ele><time>2026-04-26T07:58:07.893Z</time></trkpt><trkpt lat="42.3144417" lon="14.4380517"><ele>7.0</ele><time>2026-04-26T07:58:09.892Z</time></trkpt><trkpt lat="42.3145367" lon="14.4379633"><ele>8.0</ele><time>2026-04-26T07:58:11.892Z</time></trkpt><trkpt lat="42.3146317" lon="14.437875"><ele>9.0</ele><time>2026-04-26T07:58:13.892Z</time></trkpt><trkpt lat="42.3147217" lon="14.437785"><ele>10.0</ele><time>2026-04-26T07:58:15.892Z</time></trkpt><trkpt lat="42.3148217" lon="14.4377083"><ele>11.0</ele><time>2026-04-26T07:58:17.893Z</time></trkpt><trkpt lat="42.3149233" lon="14.4376317"><ele>11.0</ele><time>2026-04-26T07:58:19.893Z</time></trkpt><trkpt lat="42.3150233" lon="14.4375583"><ele>11.0</ele><time>2026-04-26T07:58:21.893Z</time></trkpt><trkpt lat="42.3151233" lon="14.43749"><ele>11.0</ele><time>2026-04-26T07:58:23.892Z</time></trkpt><trkpt lat="42.315235" lon="14.4374317"><ele>11.0</ele><time>2026-04-26T07:58:25.893Z</time></trkpt><trkpt lat="42.315345" lon="14.4373733"><ele>11.0</ele><time>2026-04-26T07:58:27.892Z</time></trkpt><trkpt lat="42.3154533" lon="14.4373283"><ele>11.0</ele><time>2026-04-26T07:58:29.893Z</time></trkpt><trkpt lat="42.3155617" lon="14.43727"><ele>11.0</ele><time>2026-04-26T07:58:31.892Z</time></trkpt><trkpt lat="42.3156683" lon="14.437225"><ele>11.0</ele><time>2026-04-26T07:58:33.893Z</time></trkpt><trkpt lat="42.3157783" lon="14.43717"><ele>11.4</ele><time>2026-04-26T07:58:35.892Z</time></trkpt><trkpt lat="42.3158867" lon="14.43712"><ele>11.8</ele><time>2026-04-26T07:58:37.893Z</time></trkpt><trkpt lat="42.3159883" lon="14.4370633"><ele>12.200000000000001</ele><time>2026-04-26T07:58:39.893Z</time></trkpt><trkpt lat="42.3160917" lon="14.4370117"><ele>12.600000000000001</ele><time>2026-04-26T07:58:41.893Z</time></trkpt><trkpt lat="42.3161933" lon="14.43694"><ele>13.0</ele><time>2026-04-26T07:58:43.893Z</time></trkpt><trkpt lat="42.31625" lon="14.4368983"><ele>13.0</ele><time>2026-04-26T07:58:44.892Z</time></trkpt><trkpt lat="42.3163567" lon="14.4368383"><ele>13.0</ele><time>2026-04-26T07:58:46.893Z</time></trkpt><trkpt lat="42.3164133" lon="14.4368"><ele>13.0</ele><time>2026-04-26T07:58:47.893Z</time></trkpt><trkpt lat="42.31652" lon="14.4367167"><ele>13.0</ele><time>2026-04-26T07:58:49.893Z</time></trkpt><trkpt lat="42.3166233" lon="14.4366517"><ele>13.0</ele><time>2026-04-26T07:58:51.893Z</time></trkpt><trkpt lat="42.3167217" lon="14.436575"><ele>12.0</ele><time>2026-04-26T07:58:53.893Z</time></trkpt><trkpt lat="42.31682" lon="14.43649"><ele>11.0</ele><time>2026-04-26T07:58:55.893Z</time></trkpt><trkpt lat="42.3169183" lon="14.4364117"><ele>10.0</ele><time>2026-04-26T07:58:57.892Z</time></trkpt><trkpt lat="42.31701" lon="14.4363217"><ele>9.0</ele><time>2026-04-26T07:58:59.893Z</time></trkpt><trkpt lat="42.3170633" lon="14.436275"><ele>8.0</ele><time>2026-04-26T07:59:00.892Z</time></trkpt><trkpt lat="42.3171583" lon="14.436185"><ele>7.4</ele><time>2026-04-26T07:59:02.892Z</time></trkpt><trkpt lat="42.3172483" lon="14.4360883"><ele>6.800000000000001</ele><time>2026-04-26T07:59:04.892Z</time></trkpt><trkpt lat="42.3172983" lon="14.4360333"><ele>6.2</ele><time>2026-04-26T07:59:05.893Z</time></trkpt><trkpt lat="42.3173933" lon="14.43593"><ele>5.6</ele><time>2026-04-26T07:59:07.893Z</time></trkpt><trkpt lat="42.3174867" lon="14.4358233"><ele>5.0</ele><time>2026-04-26T07:59:09.893Z</time></trkpt><trkpt lat="42.3175717" lon="14.43572"><ele>5.0</ele><time>2026-04-26T07:59:11.892Z</time></trkpt><trkpt lat="42.3176567" lon="14.4356117"><ele>5.0</ele><time>2026-04-26T07:59:13.893Z</time></trkpt><trkpt lat="42.31774" lon="14.43551"><ele>5.0</ele><time>2026-04-26T07:59:15.893Z</time></trkpt><trkpt lat="42.317825" lon="14.4354067"><ele>5.0</ele><time>2026-04-26T07:59:17.893Z</time></trkpt><trkpt lat="42.317905" lon="14.435295"><ele>4.75</ele><time>2026-04-26T07:59:19.892Z</time></trkpt><trkpt lat="42.3179833" lon="14.4351817"><ele>4.5</ele><time>2026-04-26T07:59:21.893Z</time></trkpt><trkpt lat="42.3180683" lon="14.4350633"><ele>4.25</ele><time>2026-04-26T07:59:23.893Z</time></trkpt><trkpt lat="42.318155" lon="14.43495"><ele>4.0</ele><time>2026-04-26T07:59:25.893Z</time></trkpt><trkpt lat="42.3182417" lon="14.4348517"><ele>4.0</ele><time>2026-04-26T07:59:27.893Z</time></trkpt><trkpt lat="42.3183283" lon="14.4347517"><ele>4.0</ele><time>2026-04-26T07:59:29.893Z</time></trkpt><trkpt lat="42.3184083" lon="14.4346383"><ele>4.0</ele><time>2026-04-26T07:59:31.893Z</time></trkpt><trkpt lat="42.31849" lon="14.4345133"><ele>4.0</ele><time>2026-04-26T07:59:33.892Z</time></trkpt><trkpt lat="42.3185717" lon="14.4344083"><ele>3.75</ele><time>2026-04-26T07:59:35.893Z</time></trkpt><trkpt lat="42.3186567" lon="14.4343"><ele>3.5</ele><time>2026-04-26T07:59:37.892Z</time></trkpt><trkpt lat="42.3187517" lon="14.4341983"><ele>3.25</ele><time>2026-04-26T07:59:39.892Z</time></trkpt><trkpt lat="42.3188383" lon="14.4341"><ele>3.0</ele><time>2026-04-26T07:59:41.893Z</time></trkpt><trkpt lat="42.3189233" lon="14.4339967"><ele>3.0</ele><time>2026-04-26T07:59:43.893Z</time></trkpt><trkpt lat="42.319015" lon="14.4338867"><ele>3.0</ele><time>2026-04-26T07:59:45.893Z</time></trkpt><trkpt lat="42.3190983" lon="14.4337683"><ele>3.0</ele><time>2026-04-26T07:59:47.892Z</time></trkpt><trkpt lat="42.3191817" lon="14.4336717"><ele>3.0</ele><time>2026-04-26T07:59:49.893Z</time></trkpt><trkpt lat="42.3192717" lon="14.4335717"><ele>5.75</ele><time>2026-04-26T07:59:51.893Z</time></trkpt><trkpt lat="42.3193583" lon="14.433475"><ele>8.5</ele><time>2026-04-26T07:59:53.893Z</time></trkpt><trkpt lat="42.319445" lon="14.4333667"><ele>11.25</ele><time>2026-04-26T07:59:55.893Z</time></trkpt><trkpt lat="42.3195317" lon="14.43326"><ele>14.0</ele><time>2026-04-26T07:59:57.892Z</time></trkpt><trkpt lat="42.319625" lon="14.433145"><ele>14.0</ele><time>2026-04-26T07:59:59.892Z</time></trkpt><trkpt lat="42.31967" lon="14.4330817"><ele>13.999999999999998</ele><time>2026-04-26T08:00:00.893Z</time></trkpt><trkpt lat="42.3197517" lon="14.4329683"><ele>13.999999999999998</ele><time>2026-04-26T08:00:02.892Z</time></trkpt><trkpt lat="42.319835" lon="14.4328633"><ele>14.0</ele><time>2026-04-26T08:00:04.892Z</time></trkpt><trkpt lat="42.31992" lon="14.432755"><ele>14.0</ele><time>2026-04-26T08:00:06.892Z</time></trkpt><trkpt lat="42.32001" lon="14.4326467"><ele>13.0</ele><time>2026-04-26T08:00:08.893Z</time></trkpt><trkpt lat="42.320095" lon="14.4325433"><ele>12.0</ele><time>2026-04-26T08:00:10.893Z</time></trkpt><trkpt lat="42.3201817" lon="14.432445"><ele>11.0</ele><time>2026-04-26T08:00:12.893Z</time></trkpt><trkpt lat="42.3202617" lon="14.4323317"><ele>10.0</ele><time>2026-04-26T08:00:14.893Z</time></trkpt><trkpt lat="42.320345" lon="14.432215"><ele>8.8</ele><time>2026-04-26T08:00:16.893Z</time></trkpt><trkpt lat="42.3204317" lon="14.4321017"><ele>7.6</ele><time>2026-04-26T08:00:18.893Z</time></trkpt><trkpt lat="42.3204783" lon="14.4320417"><ele>6.4</ele><time>2026-04-26T08:00:19.893Z</time></trkpt><trkpt lat="42.3205617" lon="14.431925"><ele>5.2</ele><time>2026-04-26T08:00:21.893Z</time></trkpt><trkpt lat="42.32065" lon="14.4318267"><ele>4.0</ele><time>2026-04-26T08:00:23.893Z</time></trkpt><trkpt lat="42.3207417" lon="14.4317283"><ele>4.0</ele><time>2026-04-26T08:00:25.893Z</time></trkpt><trkpt lat="42.3208317" lon="14.431625"><ele>4.0</ele><time>2026-04-26T08:00:27.893Z</time></trkpt><trkpt lat="42.3209183" lon="14.4315167"><ele>4.0</ele><time>2026-04-26T08:00:29.893Z</time></trkpt><trkpt lat="42.321005" lon="14.431405"><ele>4.0</ele><time>2026-04-26T08:00:31.893Z</time></trkpt><trkpt lat="42.3210917" lon="14.4313"><ele>4.2</ele><time>2026-04-26T08:00:33.892Z</time></trkpt><trkpt lat="42.321175" lon="14.4311867"><ele>4.4</ele><time>2026-04-26T08:00:35.893Z</time></trkpt><trkpt lat="42.3212533" lon="14.4310833"><ele>4.6</ele><time>2026-04-26T08:00:37.893Z</time></trkpt><trkpt lat="42.3213267" lon="14.4309867"><ele>4.8</ele><time>2026-04-26T08:00:39.892Z</time></trkpt><trkpt lat="42.321415" lon="14.4308917"><ele>5.0</ele><time>2026-04-26T08:00:41.892Z</time></trkpt><trkpt lat="42.3215017" lon="14.4307967"><ele>5.0</ele><time>2026-04-26T08:00:43.893Z</time></trkpt><trkpt lat="42.3215883" lon="14.43069"><ele>5.0</ele><time>2026-04-26T08:00:45.893Z</time></trkpt><trkpt lat="42.3216667" lon="14.4305817"><ele>5.0</ele><time>2026-04-26T08:00:47.893Z</time></trkpt><trkpt lat="42.3217517" lon="14.430465"><ele>5.0</ele><time>2026-04-26T08:00:49.893Z</time></trkpt><trkpt lat="42.3218317" lon="14.430355"><ele>6.75</ele><time>2026-04-26T08:00:51.893Z</time></trkpt><trkpt lat="42.3219267" lon="14.4302533"><ele>8.5</ele><time>2026-04-26T08:00:53.892Z</time></trkpt><trkpt lat="42.3220183" lon="14.4301583"><ele>10.25</ele><time>2026-04-26T08:00:55.892Z</time></trkpt><trkpt lat="42.322105" lon="14.4300483"><ele>12.0</ele><time>2026-04-26T08:00:57.893Z</time></trkpt><trkpt lat="42.3221917" lon="14.4299433"><ele>10.75</ele><time>2026-04-26T08:00:59.892Z</time></trkpt><trkpt lat="42.3222733" lon="14.429835"><ele>9.5</ele><time>2026-04-26T08:01:01.892Z</time></trkpt><trkpt lat="42.322355" lon="14.4297217"><ele>8.25</ele><time>2026-04-26T08:01:03.893Z</time></trkpt><trkpt lat="42.32244" lon="14.4296167"><ele>7.0</ele><time>2026-04-26T08:01:05.892Z</time></trkpt><trkpt lat="42.3225333" lon="14.4295067"><ele>7.0</ele><time>2026-04-26T08:01:07.893Z</time></trkpt><trkpt lat="42.32262" lon="14.4293917"><ele>7.0</ele><time>2026-04-26T08:01:09.893Z</time></trkpt><trkpt lat="42.322705" lon="14.4292833"><ele>7.0</ele><time>2026-04-26T08:01:11.892Z</time></trkpt><trkpt lat="42.3227867" lon="14.4291733"><ele>7.0</ele><time>2026-04-26T08:01:13.893Z</time></trkpt><trkpt lat="42.3228683" lon="14.4290583"><ele>7.0</ele><time>2026-04-26T08:01:15.892Z</time></trkpt><trkpt lat="42.32291" lon="14.4289817"><ele>6.999999999999999</ele><time>2026-04-26T08:01:16.893Z</time></trkpt><trkpt lat="42.322995" lon="14.428885"><ele>6.999999999999999</ele><time>2026-04-26T08:01:18.892Z</time></trkpt><trkpt lat="42.323085" lon="14.42877"><ele>7.0</ele><time>2026-04-26T08:01:20.893Z</time></trkpt><trkpt lat="42.3231717" lon="14.4286683"><ele>7.0</ele><time>2026-04-26T08:01:22.892Z</time></trkpt><trkpt lat="42.3232583" lon="14.4285617"><ele>7.25</ele><time>2026-04-26T08:01:24.892Z</time></trkpt><trkpt lat="42.323345" lon="14.42845"><ele>7.5</ele><time>2026-04-26T08:01:26.893Z</time></trkpt><trkpt lat="42.32343" lon="14.4283383"><ele>7.75</ele><time>2026-04-26T08:01:28.893Z</time></trkpt><trkpt lat="42.323515" lon="14.4282283"><ele>8.0</ele><time>2026-04-26T08:01:30.892Z</time></trkpt><trkpt lat="42.3235967" lon="14.4281233"><ele>8.0</ele><time>2026-04-26T08:01:32.893Z</time></trkpt><trkpt lat="42.323675" lon="14.4280083"><ele>8.0</ele><time>2026-04-26T08:01:34.892Z</time></trkpt><trkpt lat="42.32372" lon="14.4279467"><ele>8.0</ele><time>2026-04-26T08:01:35.893Z</time></trkpt><trkpt lat="42.3238083" lon="14.427835"><ele>8.0</ele><time>2026-04-26T08:01:37.893Z</time></trkpt><trkpt lat="42.3238967" lon="14.4277317"><ele>8.0</ele><time>2026-04-26T08:01:39.893Z</time></trkpt><trkpt lat="42.3239817" lon="14.42763"><ele>7.4</ele><time>2026-04-26T08:01:41.893Z</time></trkpt><trkpt lat="42.3240683" lon="14.427525"><ele>6.800000000000001</ele><time>2026-04-26T08:01:43.892Z</time></trkpt><trkpt lat="42.3241567" lon="14.4274217"><ele>6.2</ele><time>2026-04-26T08:01:45.892Z</time></trkpt><trkpt lat="42.32425" lon="14.4273167"><ele>5.6</ele><time>2026-04-26T08:01:47.892Z</time></trkpt><trkpt lat="42.3242983" lon="14.4272617"><ele>5.0</ele><time>2026-04-26T08:01:48.892Z</time></trkpt><trkpt lat="42.3243833" lon="14.4271617"><ele>4.8</ele><time>2026-04-26T08:01:50.893Z</time></trkpt><trkpt lat="42.32447" lon="14.427065"><ele>4.6</ele><time>2026-04-26T08:01:52.893Z</time></trkpt><trkpt lat="42.3245567" lon="14.426975"><ele>4.4</ele><time>2026-04-26T08:01:54.892Z</time></trkpt><trkpt lat="42.3246417" lon="14.4268833"><ele>4.2</ele><time>2026-04-26T08:01:56.893Z</time></trkpt><trkpt lat="42.324735" lon="14.4267917"><ele>4.0</ele><time>2026-04-26T08:01:58.893Z</time></trkpt><trkpt lat="42.3248317" lon="14.4266983"><ele>4.0</ele><time>2026-04-26T08:02:00.893Z</time></trkpt><trkpt lat="42.3249333" lon="14.4265983"><ele>4.0</ele><time>2026-04-26T08:02:02.893Z</time></trkpt><trkpt lat="42.3249867" lon="14.4265467"><ele>4.0</ele><time>2026-04-26T08:02:03.893Z</time></trkpt><trkpt lat="42.3250783" lon="14.4264433"><ele>4.0</ele><time>2026-04-26T08:02:05.893Z</time></trkpt><trkpt lat="42.3251667" lon="14.4263417"><ele>4.0</ele><time>2026-04-26T08:02:07.893Z</time></trkpt><trkpt lat="42.3252583" lon="14.42624"><ele>4.0</ele><time>2026-04-26T08:02:09.892Z</time></trkpt><trkpt lat="42.325355" lon="14.4261417"><ele>4.0</ele><time>2026-04-26T08:02:11.893Z</time></trkpt><trkpt lat="42.3254467" lon="14.426045"><ele>4.0</ele><time>2026-04-26T08:02:13.893Z</time></trkpt><trkpt lat="42.3255383" lon="14.42595"><ele>4.0</ele><time>2026-04-26T08:02:15.892Z</time></trkpt><trkpt lat="42.3256367" lon="14.4258617"><ele>4.0</ele><time>2026-04-26T08:02:17.893Z</time></trkpt><trkpt lat="42.3257367" lon="14.4257683"><ele>4.0</ele><time>2026-04-26T08:02:19.893Z</time></trkpt><trkpt lat="42.3258333" lon="14.42568"><ele>4.0</ele><time>2026-04-26T08:02:21.893Z</time></trkpt><trkpt lat="42.325925" lon="14.42559"><ele>4.0</ele><time>2026-04-26T08:02:23.893Z</time></trkpt><trkpt lat="42.3260267" lon="14.4255083"><ele>3.75</ele><time>2026-04-26T08:02:25.892Z</time></trkpt><trkpt lat="42.326125" lon="14.4254333"><ele>3.5</ele><time>2026-04-26T08:02:27.892Z</time></trkpt><trkpt lat="42.326225" lon="14.4253533"><ele>3.25</ele><time>2026-04-26T08:02:29.893Z</time></trkpt><trkpt lat="42.32633" lon="14.4252833"><ele>3.0</ele><time>2026-04-26T08:02:31.893Z</time></trkpt><trkpt lat="42.32644" lon="14.4252217"><ele>3.0</ele><time>2026-04-26T08:02:33.893Z</time></trkpt><trkpt lat="42.3265433" lon="14.4251533"><ele>3.0</ele><time>2026-04-26T08:02:35.892Z</time></trkpt><trkpt lat="42.3266517" lon="14.4250883"><ele>3.0</ele><time>2026-04-26T08:02:37.893Z</time></trkpt><trkpt lat="42.32676" lon="14.4250317"><ele>3.0</ele><time>2026-04-26T08:02:39.892Z</time></trkpt><trkpt lat="42.3268617" lon="14.4249733"><ele>3.0</ele><time>2026-04-26T08:02:41.893Z</time></trkpt><trkpt lat="42.3269783" lon="14.4249417"><ele>3.0</ele><time>2026-04-26T08:02:43.893Z</time></trkpt><trkpt lat="42.3270917" lon="14.4249067"><ele>3.0</ele><time>2026-04-26T08:02:45.893Z</time></trkpt><trkpt lat="42.3272033" lon="14.4248767"><ele>3.0</ele><time>2026-04-26T08:02:47.893Z</time></trkpt><trkpt lat="42.3273033" lon="14.4248417"><ele>2.6</ele><time>2026-04-26T08:02:49.892Z</time></trkpt><trkpt lat="42.3274017" lon="14.4248033"><ele>2.1999999999999997</ele><time>2026-04-26T08:02:51.893Z</time></trkpt><trkpt lat="42.32751" lon="14.42478"><ele>1.8</ele><time>2026-04-26T08:02:53.893Z</time></trkpt><trkpt lat="42.327615" lon="14.4247717"><ele>1.4</ele><time>2026-04-26T08:02:55.893Z</time></trkpt><trkpt lat="42.3277217" lon="14.4247667"><ele>1.0</ele><time>2026-04-26T08:02:57.893Z</time></trkpt><trkpt lat="42.327835" lon="14.424745"><ele>1.0</ele><time>2026-04-26T08:02:59.893Z</time></trkpt><trkpt lat="42.32795" lon="14.4247283"><ele>1.0</ele><time>2026-04-26T08:03:01.892Z</time></trkpt><trkpt lat="42.3280617" lon="14.4247033"><ele>1.0</ele><time>2026-04-26T08:03:03.892Z</time></trkpt><trkpt lat="42.3281783" lon="14.424665"><ele>1.0</ele><time>2026-04-26T08:03:05.892Z</time></trkpt><trkpt lat="42.3282917" lon="14.4246417"><ele>1.75</ele><time>2026-04-26T08:03:07.892Z</time></trkpt><trkpt lat="42.328405" lon="14.4246183"><ele>2.5</ele><time>2026-04-26T08:03:09.893Z</time></trkpt><trkpt lat="42.32852" lon="14.424595"><ele>3.25</ele><time>2026-04-26T08:03:11.893Z</time></trkpt><trkpt lat="42.3286333" lon="14.4245733"><ele>4.0</ele><time>2026-04-26T08:03:13.893Z</time></trkpt><trkpt lat="42.328745" lon="14.4245533"><ele>4.0</ele><time>2026-04-26T08:03:15.893Z</time></trkpt><trkpt lat="42.32886" lon="14.4245383"><ele>4.0</ele><time>2026-04-26T08:03:17.893Z</time></trkpt><trkpt lat="42.3289717" lon="14.4245167"><ele>4.0</ele><time>2026-04-26T08:03:19.893Z</time></trkpt><trkpt lat="42.3290867" lon="14.4244883"><ele>4.0</ele><time>2026-04-26T08:03:21.893Z</time></trkpt><trkpt lat="42.329205" lon="14.4244617"><ele>3.75</ele><time>2026-04-26T08:03:23.893Z</time></trkpt><trkpt lat="42.32932" lon="14.42444"><ele>3.5</ele><time>2026-04-26T08:03:25.892Z</time></trkpt><trkpt lat="42.3294367" lon="14.4244133"><ele>3.25</ele><time>2026-04-26T08:03:27.892Z</time></trkpt><trkpt lat="42.3295533" lon="14.424385"><ele>3.0</ele><time>2026-04-26T08:03:29.893Z</time></trkpt><trkpt lat="42.3296767" lon="14.42435"><ele>2.75</ele><time>2026-04-26T08:03:31.893Z</time></trkpt><trkpt lat="42.3297967" lon="14.4243217"><ele>2.5</ele><time>2026-04-26T08:03:33.893Z</time></trkpt><trkpt lat="42.32991" lon="14.4243033"><ele>2.25</ele><time>2026-04-26T08:03:35.893Z</time></trkpt><trkpt lat="42.3300233" lon="14.42428"><ele>2.0</ele><time>2026-04-26T08:03:37.893Z</time></trkpt><trkpt lat="42.330145" lon="14.4242433"><ele>2.0</ele><time>2026-04-26T08:03:39.892Z</time></trkpt><trkpt lat="42.3302633" lon="14.42422"><ele>2.0</ele><time>2026-04-26T08:03:41.892Z</time></trkpt><trkpt lat="42.3303817" lon="14.42421"><ele>2.0</ele><time>2026-04-26T08:03:43.893Z</time></trkpt><trkpt lat="42.330495" lon="14.424185"><ele>2.0</ele><time>2026-04-26T08:03:45.892Z</time></trkpt><trkpt lat="42.3306083" lon="14.4241583"><ele>2.5</ele><time>2026-04-26T08:03:47.893Z</time></trkpt><trkpt lat="42.3307233" lon="14.424135"><ele>3.0</ele><time>2026-04-26T08:03:49.893Z</time></trkpt><trkpt lat="42.3308367" lon="14.42412"><ele>3.5</ele><time>2026-04-26T08:03:51.892Z</time></trkpt><trkpt lat="42.3309517" lon="14.4240983"><ele>4.0</ele><time>2026-04-26T08:03:53.893Z</time></trkpt><trkpt lat="42.3310667" lon="14.42408"><ele>4.0</ele><time>2026-04-26T08:03:55.893Z</time></trkpt><trkpt lat="42.3311767" lon="14.4240583"><ele>4.0</ele><time>2026-04-26T08:03:57.893Z</time></trkpt><trkpt lat="42.3312817" lon="14.42403"><ele>4.0</ele><time>2026-04-26T08:03:59.892Z</time></trkpt><trkpt lat="42.331375" lon="14.4240033"><ele>4.0</ele><time>2026-04-26T08:04:01.893Z</time></trkpt><trkpt lat="42.331475" lon="14.423995"><ele>4.0</ele><time>2026-04-26T08:04:03.892Z</time></trkpt><trkpt lat="42.331585" lon="14.42397"><ele>5.4</ele><time>2026-04-26T08:04:05.893Z</time></trkpt><trkpt lat="42.3316933" lon="14.4239633"><ele>6.800000000000001</ele><time>2026-04-26T08:04:07.893Z</time></trkpt><trkpt lat="42.331805" lon="14.4239517"><ele>8.200000000000001</ele><time>2026-04-26T08:04:09.892Z</time></trkpt><trkpt lat="42.3319233" lon="14.4239567"><ele>9.600000000000001</ele><time>2026-04-26T08:04:11.893Z</time></trkpt><trkpt lat="42.3319883" lon="14.423955"><ele>11.0</ele><time>2026-04-26T08:04:12.893Z</time></trkpt><trkpt lat="42.33211" lon="14.4239417"><ele>15.0</ele><time>2026-04-26T08:04:14.893Z</time></trkpt><trkpt lat="42.3359333" lon="14.422035"><ele>15.0</ele><time>2026-04-26T08:05:28.889Z</time></trkpt><trkpt lat="42.3360133" lon="14.4219033"><ele>15.0</ele><time>2026-04-26T08:05:29.889Z</time></trkpt><trkpt lat="42.3360617" lon="14.4218233"><ele>15.0</ele><time>2026-04-26T08:05:30.888Z</time></trkpt><trkpt lat="42.336105" lon="14.4217533"><ele>15.0</ele><time>2026-04-26T08:05:31.889Z</time></trkpt><trkpt lat="42.3361867" lon="14.4216233"><ele>15.0</ele><time>2026-04-26T08:05:33.889Z</time></trkpt><trkpt lat="42.3362733" lon="14.4215067"><ele>15.0</ele><time>2026-04-26T08:05:35.888Z</time></trkpt><trkpt lat="42.33636" lon="14.42139"><ele>15.0</ele><time>2026-04-26T08:05:37.888Z</time></trkpt><trkpt lat="42.3364383" lon="14.4212767"><ele>15.0</ele><time>2026-04-26T08:05:39.889Z</time></trkpt><trkpt lat="42.3365183" lon="14.42116"><ele>15.0</ele><time>2026-04-26T08:05:41.888Z</time></trkpt><trkpt lat="42.336605" lon="14.4210567"><ele>13.5</ele><time>2026-04-26T08:05:43.889Z</time></trkpt><trkpt lat="42.3366867" lon="14.4209567"><ele>12.0</ele><time>2026-04-26T08:05:45.888Z</time></trkpt><trkpt lat="42.33676" lon="14.4208367"><ele>10.5</ele><time>2026-04-26T08:05:47.889Z</time></trkpt><trkpt lat="42.33684" lon="14.4207183"><ele>9.0</ele><time>2026-04-26T08:05:49.889Z</time></trkpt><trkpt lat="42.3369217" lon="14.420605"><ele>9.0</ele><time>2026-04-26T08:05:51.889Z</time></trkpt><trkpt lat="42.337" lon="14.4204883"><ele>9.0</ele><time>2026-04-26T08:05:53.889Z</time></trkpt><trkpt lat="42.3370833" lon="14.420375"><ele>9.0</ele><time>2026-04-26T08:05:55.889Z</time></trkpt><trkpt lat="42.3371633" lon="14.4202583"><ele>9.0</ele><time>2026-04-26T08:05:57.889Z</time></trkpt><trkpt lat="42.337245" lon="14.4201417"><ele>8.25</ele><time>2026-04-26T08:05:59.889Z</time></trkpt><trkpt lat="42.3373283" lon="14.4200267"><ele>7.5</ele><time>2026-04-26T08:06:01.889Z</time></trkpt><trkpt lat="42.3374133" lon="14.419905"><ele>6.75</ele><time>2026-04-26T08:06:03.888Z</time></trkpt><trkpt lat="42.337495" lon="14.419785"><ele>6.0</ele><time>2026-04-26T08:06:05.889Z</time></trkpt><trkpt lat="42.3375717" lon="14.4196633"><ele>9.75</ele><time>2026-04-26T08:06:07.888Z</time></trkpt><trkpt lat="42.3376467" lon="14.41954"><ele>13.5</ele><time>2026-04-26T08:06:09.889Z</time></trkpt><trkpt lat="42.3377183" lon="14.4194167"><ele>17.25</ele><time>2026-04-26T08:06:11.888Z</time></trkpt><trkpt lat="42.3377967" lon="14.4192933"><ele>21.0</ele><time>2026-04-26T08:06:13.889Z</time></trkpt><trkpt lat="42.337875" lon="14.41917"><ele>21.0</ele><time>2026-04-26T08:06:15.888Z</time></trkpt><trkpt lat="42.3379533" lon="14.4190533"><ele>21.0</ele><time>2026-04-26T08:06:17.888Z</time></trkpt><trkpt lat="42.33803" lon="14.4189317"><ele>21.0</ele><time>2026-04-26T08:06:19.889Z</time></trkpt><trkpt lat="42.3381033" lon="14.4188133"><ele>21.0</ele><time>2026-04-26T08:06:21.888Z</time></trkpt><trkpt lat="42.3381817" lon="14.4187067"><ele>19.400000000000002</ele><time>2026-04-26T08:06:23.889Z</time></trkpt><trkpt lat="42.3382533" lon="14.4186167"><ele>17.8</ele><time>2026-04-26T08:06:25.888Z</time></trkpt><trkpt lat="42.3383367" lon="14.418535"><ele>16.200000000000003</ele><time>2026-04-26T08:06:27.889Z</time></trkpt><trkpt lat="42.3384117" lon="14.41846"><ele>14.600000000000001</ele><time>2026-04-26T08:06:29.889Z</time></trkpt><trkpt lat="42.33848" lon="14.4183817"><ele>13.0</ele><time>2026-04-26T08:06:31.889Z</time></trkpt><trkpt lat="42.3385617" lon="14.4182967"><ele>13.0</ele><time>2026-04-26T08:06:33.889Z</time></trkpt><trkpt lat="42.3386867" lon="14.418055"><ele>13.0</ele><time>2026-04-26T08:06:36.889Z</time></trkpt><trkpt lat="42.3387233" lon="14.41796"><ele>13.0</ele><time>2026-04-26T08:06:37.889Z</time></trkpt><trkpt lat="42.3387767" lon="14.4179033"><ele>13.0</ele><time>2026-04-26T08:06:38.888Z</time></trkpt><trkpt lat="42.3388517" lon="14.41779"><ele>11.833333333333332</ele><time>2026-04-26T08:06:40.889Z</time></trkpt><trkpt lat="42.3389283" lon="14.4176717"><ele>10.666666666666666</ele><time>2026-04-26T08:06:42.888Z</time></trkpt><trkpt lat="42.338975" lon="14.417605"><ele>9.5</ele><time>2026-04-26T08:06:43.889Z</time></trkpt><trkpt lat="42.33902" lon="14.4175417"><ele>8.333333333333332</ele><time>2026-04-26T08:06:44.889Z</time></trkpt><trkpt lat="42.3390617" lon="14.4174767"><ele>7.166666666666666</ele><time>2026-04-26T08:06:45.888Z</time></trkpt><trkpt lat="42.3391367" lon="14.4173767"><ele>6.0</ele><time>2026-04-26T08:06:47.889Z</time></trkpt><trkpt lat="42.3392133" lon="14.4172783"><ele>6.0</ele><time>2026-04-26T08:06:49.888Z</time></trkpt><trkpt lat="42.339285" lon="14.41716"><ele>6.0</ele><time>2026-04-26T08:06:51.889Z</time></trkpt><trkpt lat="42.3393717" lon="14.4170683"><ele>6.0</ele><time>2026-04-26T08:06:53.888Z</time></trkpt><trkpt lat="42.339455" lon="14.4169717"><ele>6.0</ele><time>2026-04-26T08:06:55.889Z</time></trkpt><trkpt lat="42.33954" lon="14.41687"><ele>6.0</ele><time>2026-04-26T08:06:57.888Z</time></trkpt><trkpt lat="42.339625" lon="14.4167767"><ele>5.8</ele><time>2026-04-26T08:06:59.889Z</time></trkpt><trkpt lat="42.3397033" lon="14.4166633"><ele>5.6</ele><time>2026-04-26T08:07:01.888Z</time></trkpt><trkpt lat="42.3397833" lon="14.4165667"><ele>5.4</ele><time>2026-04-26T08:07:03.889Z</time></trkpt><trkpt lat="42.3398617" lon="14.4164767"><ele>5.2</ele><time>2026-04-26T08:07:05.888Z</time></trkpt><trkpt lat="42.3399433" lon="14.4164017"><ele>5.0</ele><time>2026-04-26T08:07:07.889Z</time></trkpt><trkpt lat="42.3400283" lon="14.4163233"><ele>8.4</ele><time>2026-04-26T08:07:09.889Z</time></trkpt><trkpt lat="42.3401117" lon="14.4162667"><ele>11.8</ele><time>2026-04-26T08:07:11.888Z</time></trkpt><trkpt lat="42.3401967" lon="14.4161933"><ele>15.200000000000001</ele><time>2026-04-26T08:07:13.888Z</time></trkpt><trkpt lat="42.3402733" lon="14.41614"><ele>18.6</ele><time>2026-04-26T08:07:15.888Z</time></trkpt><trkpt lat="42.3403617" lon="14.4160433"><ele>22.0</ele><time>2026-04-26T08:07:17.888Z</time></trkpt><trkpt lat="42.3404633" lon="14.415925"><ele>22.0</ele><time>2026-04-26T08:07:18.888Z</time></trkpt><trkpt lat="42.34052" lon="14.41585"><ele>22.0</ele><time>2026-04-26T08:07:19.889Z</time></trkpt><trkpt lat="42.34057" lon="14.415795"><ele>22.0</ele><time>2026-04-26T08:07:20.889Z</time></trkpt><trkpt lat="42.3406633" lon="14.4157017"><ele>22.0</ele><time>2026-04-26T08:07:22.889Z</time></trkpt><trkpt lat="42.34075" lon="14.4156117"><ele>22.0</ele><time>2026-04-26T08:07:24.888Z</time></trkpt><trkpt lat="42.3408417" lon="14.4155083"><ele>20.75</ele><time>2026-04-26T08:07:26.889Z</time></trkpt><trkpt lat="42.3409333" lon="14.4154033"><ele>19.5</ele><time>2026-04-26T08:07:28.889Z</time></trkpt><trkpt lat="42.3410233" lon="14.4153017"><ele>18.25</ele><time>2026-04-26T08:07:30.889Z</time></trkpt><trkpt lat="42.34111" lon="14.4151867"><ele>17.0</ele><time>2026-04-26T08:07:32.888Z</time></trkpt><trkpt lat="42.341195" lon="14.41509"><ele>17.0</ele><time>2026-04-26T08:07:34.888Z</time></trkpt><trkpt lat="42.34128" lon="14.4149933"><ele>17.0</ele><time>2026-04-26T08:07:36.889Z</time></trkpt><trkpt lat="42.341365" lon="14.414895"><ele>17.0</ele><time>2026-04-26T08:07:38.889Z</time></trkpt><trkpt lat="42.3414067" lon="14.414825"><ele>17.0</ele><time>2026-04-26T08:07:39.888Z</time></trkpt><trkpt lat="42.3414883" lon="14.41472"><ele>17.0</ele><time>2026-04-26T08:07:41.889Z</time></trkpt><trkpt lat="42.3415733" lon="14.4146067"><ele>14.799999999999999</ele><time>2026-04-26T08:07:43.889Z</time></trkpt><trkpt lat="42.3416167" lon="14.4145217"><ele>12.6</ele><time>2026-04-26T08:07:44.889Z</time></trkpt><trkpt lat="42.3417" lon="14.41442"><ele>10.399999999999999</ele><time>2026-04-26T08:07:46.889Z</time></trkpt><trkpt lat="42.3417867" lon="14.414315"><ele>8.2</ele><time>2026-04-26T08:07:48.889Z</time></trkpt><trkpt lat="42.3418717" lon="14.414215"><ele>6.0</ele><time>2026-04-26T08:07:50.888Z</time></trkpt><trkpt lat="42.3419167" lon="14.4141533"><ele>6.0</ele><time>2026-04-26T08:07:51.889Z</time></trkpt><trkpt lat="42.3419967" lon="14.4140483"><ele>6.0</ele><time>2026-04-26T08:07:53.889Z</time></trkpt><trkpt lat="42.342075" lon="14.41394"><ele>6.0</ele><time>2026-04-26T08:07:55.889Z</time></trkpt><trkpt lat="42.3421533" lon="14.4138467"><ele>6.0</ele><time>2026-04-26T08:07:57.889Z</time></trkpt><trkpt lat="42.342235" lon="14.4137433"><ele>6.0</ele><time>2026-04-26T08:07:59.889Z</time></trkpt><trkpt lat="42.3423183" lon="14.4136483"><ele>5.6</ele><time>2026-04-26T08:08:01.888Z</time></trkpt><trkpt lat="42.3424" lon="14.4135483"><ele>5.199999999999999</ele><time>2026-04-26T08:08:03.888Z</time></trkpt><trkpt lat="42.3424717" lon="14.4134533"><ele>4.800000000000001</ele><time>2026-04-26T08:08:05.889Z</time></trkpt><trkpt lat="42.3425433" lon="14.4133683"><ele>4.4</ele><time>2026-04-26T08:08:07.889Z</time></trkpt><trkpt lat="42.3426133" lon="14.4132817"><ele>4.0</ele><time>2026-04-26T08:08:09.888Z</time></trkpt><trkpt lat="42.3426883" lon="14.4131767"><ele>4.0</ele><time>2026-04-26T08:08:11.888Z</time></trkpt><trkpt lat="42.3427617" lon="14.4130783"><ele>4.0</ele><time>2026-04-26T08:08:13.888Z</time></trkpt><trkpt lat="42.34284" lon="14.4129783"><ele>4.0</ele><time>2026-04-26T08:08:15.889Z</time></trkpt><trkpt lat="42.3429167" lon="14.41289"><ele>4.0</ele><time>2026-04-26T08:08:17.889Z</time></trkpt><trkpt lat="42.3429883" lon="14.4128083"><ele>4.0</ele><time>2026-04-26T08:08:19.888Z</time></trkpt><trkpt lat="42.3430533" lon="14.4127267"><ele>4.0</ele><time>2026-04-26T08:08:21.888Z</time></trkpt><trkpt lat="42.343125" lon="14.4126367"><ele>4.0</ele><time>2026-04-26T08:08:23.889Z</time></trkpt><trkpt lat="42.3432117" lon="14.4125383"><ele>4.0</ele><time>2026-04-26T08:08:25.889Z</time></trkpt><trkpt lat="42.3433" lon="14.4124533"><ele>4.0</ele><time>2026-04-26T08:08:27.889Z</time></trkpt><trkpt lat="42.3433783" lon="14.4123667"><ele>4.0</ele><time>2026-04-26T08:08:29.889Z</time></trkpt><trkpt lat="42.343455" lon="14.41228"><ele>4.0</ele><time>2026-04-26T08:08:31.889Z</time></trkpt><trkpt lat="42.3435333" lon="14.4121967"><ele>4.0</ele><time>2026-04-26T08:08:33.889Z</time></trkpt><trkpt lat="42.3436067" lon="14.4121233"><ele>4.0</ele><time>2026-04-26T08:08:35.888Z</time></trkpt><trkpt lat="42.3436833" lon="14.412045"><ele>4.0</ele><time>2026-04-26T08:08:37.888Z</time></trkpt><trkpt lat="42.3437583" lon="14.41197"><ele>4.0</ele><time>2026-04-26T08:08:39.889Z</time></trkpt><trkpt lat="42.3438317" lon="14.4118867"><ele>4.4</ele><time>2026-04-26T08:08:41.888Z</time></trkpt><trkpt lat="42.3439" lon="14.4118167"><ele>4.800000000000001</ele><time>2026-04-26T08:08:43.889Z</time></trkpt><trkpt lat="42.343975" lon="14.4117633"><ele>5.199999999999999</ele><time>2026-04-26T08:08:45.889Z</time></trkpt><trkpt lat="42.3440583" lon="14.4117"><ele>5.6</ele><time>2026-04-26T08:08:47.888Z</time></trkpt><trkpt lat="42.3441333" lon="14.4116117"><ele>6.0</ele><time>2026-04-26T08:08:49.889Z</time></trkpt><trkpt lat="42.3442133" lon="14.411535"><ele>6.0</ele><time>2026-04-26T08:08:51.888Z</time></trkpt><trkpt lat="42.3442767" lon="14.4114833"><ele>6.0</ele><time>2026-04-26T08:08:53.888Z</time></trkpt><trkpt lat="42.3443333" lon="14.41141"><ele>6.0</ele><time>2026-04-26T08:08:56.889Z</time></trkpt><trkpt lat="42.3443883" lon="14.41136"><ele>6.0</ele><time>2026-04-26T08:10:25.89Z</time></trkpt><trkpt lat="42.344485" lon="14.41134"><ele>6.0</ele><time>2026-04-26T08:10:28.89Z</time></trkpt><trkpt lat="42.344555" lon="14.4113517"><ele>6.0</ele><time>2026-04-26T08:10:30.889Z</time></trkpt><trkpt lat="42.3446317" lon="14.4113667"><ele>6.0</ele><time>2026-04-26T08:10:33.889Z</time></trkpt><trkpt lat="42.3446883" lon="14.4114183"><ele>6.0</ele><time>2026-04-26T08:10:36.889Z</time></trkpt><trkpt lat="42.3447533" lon="14.4114083"><ele>6.0</ele><time>2026-04-26T08:10:39.889Z</time></trkpt><trkpt lat="42.3448017" lon="14.4113317"><ele>6.0</ele><time>2026-04-26T08:10:42.889Z</time></trkpt><trkpt lat="42.3448467" lon="14.411215"><ele>6.0</ele><time>2026-04-26T08:10:45.89Z</time></trkpt><trkpt lat="42.3449183" lon="14.4111217"><ele>6.0</ele><time>2026-04-26T08:10:47.89Z</time></trkpt><trkpt lat="42.345005" lon="14.411015"><ele>5.3999999999999995</ele><time>2026-04-26T08:10:49.89Z</time></trkpt><trkpt lat="42.3450867" lon="14.410925"><ele>4.8</ele><time>2026-04-26T08:10:51.889Z</time></trkpt><trkpt lat="42.34517" lon="14.41084"><ele>4.199999999999999</ele><time>2026-04-26T08:10:53.89Z</time></trkpt><trkpt lat="42.3452533" lon="14.4107417"><ele>3.5999999999999996</ele><time>2026-04-26T08:10:55.889Z</time></trkpt><trkpt lat="42.3453317" lon="14.4106467"><ele>3.0</ele><time>2026-04-26T08:10:57.89Z</time></trkpt><trkpt lat="42.34541" lon="14.410575"><ele>3.0</ele><time>2026-04-26T08:10:59.89Z</time></trkpt><trkpt lat="42.345495" lon="14.4105083"><ele>3.0</ele><time>2026-04-26T08:11:01.89Z</time></trkpt><trkpt lat="42.345585" lon="14.410435"><ele>3.0</ele><time>2026-04-26T08:11:03.889Z</time></trkpt><trkpt lat="42.3456717" lon="14.4103483"><ele>3.0</ele><time>2026-04-26T08:11:05.89Z</time></trkpt><trkpt lat="42.3457583" lon="14.4102783"><ele>3.0</ele><time>2026-04-26T08:11:07.89Z</time></trkpt><trkpt lat="42.3458417" lon="14.41021"><ele>3.4</ele><time>2026-04-26T08:11:09.889Z</time></trkpt><trkpt lat="42.3459383" lon="14.4101283"><ele>3.8</ele><time>2026-04-26T08:11:11.89Z</time></trkpt><trkpt lat="42.3460283" lon="14.4100567"><ele>4.2</ele><time>2026-04-26T08:11:13.89Z</time></trkpt><trkpt lat="42.3461183" lon="14.4099883"><ele>4.6</ele><time>2026-04-26T08:11:15.889Z</time></trkpt><trkpt lat="42.3462133" lon="14.4099217"><ele>5.0</ele><time>2026-04-26T08:11:17.89Z</time></trkpt><trkpt lat="42.346305" lon="14.4098667"><ele>5.0</ele><time>2026-04-26T08:11:19.89Z</time></trkpt><trkpt lat="42.346385" lon="14.4098183"><ele>5.0</ele><time>2026-04-26T08:11:21.89Z</time></trkpt><trkpt lat="42.3464567" lon="14.4097667"><ele>5.0</ele><time>2026-04-26T08:11:24.889Z</time></trkpt><trkpt lat="42.3465267" lon="14.4097133"><ele>5.0</ele><time>2026-04-26T08:11:27.889Z</time></trkpt><trkpt lat="42.3465933" lon="14.4096833"><ele>5.0</ele><time>2026-04-26T08:11:29.89Z</time></trkpt><trkpt lat="42.3466683" lon="14.4096617"><ele>5.0</ele><time>2026-04-26T08:11:31.89Z</time></trkpt><trkpt lat="42.346745" lon="14.4096333"><ele>5.4</ele><time>2026-04-26T08:11:33.889Z</time></trkpt><trkpt lat="42.346835" lon="14.409595"><ele>5.8</ele><time>2026-04-26T08:11:35.889Z</time></trkpt><trkpt lat="42.34693" lon="14.409555"><ele>6.199999999999999</ele><time>2026-04-26T08:11:37.89Z</time></trkpt><trkpt lat="42.3470217" lon="14.4095117"><ele>6.6</ele><time>2026-04-26T08:11:39.889Z</time></trkpt><trkpt lat="42.347115" lon="14.409475"><ele>7.0</ele><time>2026-04-26T08:11:41.89Z</time></trkpt><trkpt lat="42.347215" lon="14.40943"><ele>7.0</ele><time>2026-04-26T08:11:43.889Z</time></trkpt><trkpt lat="42.347315" lon="14.40939"><ele>6.999999999999999</ele><time>2026-04-26T08:11:45.89Z</time></trkpt><trkpt lat="42.3474133" lon="14.40934"><ele>6.999999999999999</ele><time>2026-04-26T08:11:47.889Z</time></trkpt><trkpt lat="42.3475167" lon="14.4092867"><ele>7.0</ele><time>2026-04-26T08:11:49.889Z</time></trkpt><trkpt lat="42.34762" lon="14.409245"><ele>7.0</ele><time>2026-04-26T08:11:51.89Z</time></trkpt><trkpt lat="42.34772" lon="14.4092033"><ele>7.0</ele><time>2026-04-26T08:11:53.89Z</time></trkpt><trkpt lat="42.3478283" lon="14.40916"><ele>7.0</ele><time>2026-04-26T08:11:55.89Z</time></trkpt><trkpt lat="42.34794" lon="14.4091217"><ele>7.0</ele><time>2026-04-26T08:11:57.889Z</time></trkpt><trkpt lat="42.34805" lon="14.4090733"><ele>7.0</ele><time>2026-04-26T08:11:59.89Z</time></trkpt><trkpt lat="42.3481617" lon="14.409025"><ele>6.5</ele><time>2026-04-26T08:12:01.89Z</time></trkpt><trkpt lat="42.3482733" lon="14.40898"><ele>6.0</ele><time>2026-04-26T08:12:03.889Z</time></trkpt><trkpt lat="42.348385" lon="14.4089283"><ele>5.5</ele><time>2026-04-26T08:12:05.889Z</time></trkpt><trkpt lat="42.348495" lon="14.4088767"><ele>5.0</ele><time>2026-04-26T08:12:07.889Z</time></trkpt><trkpt lat="42.3485967" lon="14.408825"><ele>6.5</ele><time>2026-04-26T08:12:09.89Z</time></trkpt><trkpt lat="42.3487083" lon="14.408775"><ele>8.0</ele><time>2026-04-26T08:12:11.89Z</time></trkpt><trkpt lat="42.3488217" lon="14.4087233"><ele>9.5</ele><time>2026-04-26T08:12:13.889Z</time></trkpt><trkpt lat="42.3489267" lon="14.408685"><ele>11.0</ele><time>2026-04-26T08:12:15.889Z</time></trkpt><trkpt lat="42.3490367" lon="14.4086467"><ele>11.0</ele><time>2026-04-26T08:12:17.89Z</time></trkpt><trkpt lat="42.3491467" lon="14.40861"><ele>11.0</ele><time>2026-04-26T08:12:19.89Z</time></trkpt><trkpt lat="42.3492567" lon="14.4085767"><ele>11.0</ele><time>2026-04-26T08:12:21.89Z</time></trkpt><trkpt lat="42.3493683" lon="14.408545"><ele>11.0</ele><time>2026-04-26T08:12:23.889Z</time></trkpt><trkpt lat="42.3494833" lon="14.4085133"><ele>11.0</ele><time>2026-04-26T08:12:25.889Z</time></trkpt><trkpt lat="42.34959" lon="14.40848"><ele>11.0</ele><time>2026-04-26T08:12:27.889Z</time></trkpt><trkpt lat="42.3497" lon="14.4084433"><ele>11.0</ele><time>2026-04-26T08:12:29.89Z</time></trkpt><trkpt lat="42.3498167" lon="14.4084183"><ele>11.0</ele><time>2026-04-26T08:12:31.89Z</time></trkpt><trkpt lat="42.349925" lon="14.4084"><ele>9.5</ele><time>2026-04-26T08:12:33.89Z</time></trkpt><trkpt lat="42.3500383" lon="14.40839"><ele>8.0</ele><time>2026-04-26T08:12:35.89Z</time></trkpt><trkpt lat="42.35015" lon="14.408365"><ele>6.5</ele><time>2026-04-26T08:12:37.89Z</time></trkpt><trkpt lat="42.3502617" lon="14.40835"><ele>5.0</ele><time>2026-04-26T08:12:39.889Z</time></trkpt><trkpt lat="42.3503783" lon="14.4083333"><ele>5.0</ele><time>2026-04-26T08:12:41.889Z</time></trkpt><trkpt lat="42.3504917" lon="14.40832"><ele>5.0</ele><time>2026-04-26T08:12:43.89Z</time></trkpt><trkpt lat="42.3506033" lon="14.40831"><ele>5.0</ele><time>2026-04-26T08:12:45.89Z</time></trkpt><trkpt lat="42.3507167" lon="14.4083"><ele>5.0</ele><time>2026-04-26T08:12:47.889Z</time></trkpt><trkpt lat="42.3508333" lon="14.4082833"><ele>5.0</ele><time>2026-04-26T08:12:49.89Z</time></trkpt><trkpt lat="42.3509517" lon="14.4082717"><ele>5.0</ele><time>2026-04-26T08:12:51.89Z</time></trkpt><trkpt lat="42.3510667" lon="14.4082567"><ele>5.0</ele><time>2026-04-26T08:12:53.89Z</time></trkpt><trkpt lat="42.3511867" lon="14.4082467"><ele>5.0</ele><time>2026-04-26T08:12:55.889Z</time></trkpt><trkpt lat="42.3513" lon="14.408235"><ele>4.6</ele><time>2026-04-26T08:12:57.889Z</time></trkpt><trkpt lat="42.3514117" lon="14.4082167"><ele>4.2</ele><time>2026-04-26T08:12:59.889Z</time></trkpt><trkpt lat="42.351515" lon="14.4082033"><ele>3.8</ele><time>2026-04-26T08:13:01.89Z</time></trkpt><trkpt lat="42.3516267" lon="14.4081967"><ele>3.4</ele><time>2026-04-26T08:13:03.89Z</time></trkpt><trkpt lat="42.3517367" lon="14.4081883"><ele>3.0</ele><time>2026-04-26T08:13:05.89Z</time></trkpt><trkpt lat="42.351855" lon="14.4081767"><ele>3.0</ele><time>2026-04-26T08:13:07.889Z</time></trkpt><trkpt lat="42.35197" lon="14.4081667"><ele>3.0</ele><time>2026-04-26T08:13:09.889Z</time></trkpt><trkpt lat="42.352085" lon="14.4081617"><ele>3.0</ele><time>2026-04-26T08:13:11.89Z</time></trkpt><trkpt lat="42.352205" lon="14.4081467"><ele>3.0</ele><time>2026-04-26T08:13:13.89Z</time></trkpt><trkpt lat="42.3523167" lon="14.408135"><ele>2.75</ele><time>2026-04-26T08:13:15.89Z</time></trkpt><trkpt lat="42.35243" lon="14.40812"><ele>2.5</ele><time>2026-04-26T08:13:17.89Z</time></trkpt><trkpt lat="42.352545" lon="14.4081033"><ele>2.25</ele><time>2026-04-26T08:13:19.89Z</time></trkpt><trkpt lat="42.35266" lon="14.40809"><ele>2.0</ele><time>2026-04-26T08:13:21.889Z</time></trkpt><trkpt lat="42.352775" lon="14.4080717"><ele>2.0</ele><time>2026-04-26T08:13:23.889Z</time></trkpt><trkpt lat="42.3528867" lon="14.4080583"><ele>2.0</ele><time>2026-04-26T08:13:25.89Z</time></trkpt><trkpt lat="42.3529983" lon="14.4080533"><ele>2.0</ele><time>2026-04-26T08:13:27.889Z</time></trkpt><trkpt lat="42.35311" lon="14.4080383"><ele>2.0</ele><time>2026-04-26T08:13:29.89Z</time></trkpt><trkpt lat="42.3532283" lon="14.4080133"><ele>2.0</ele><time>2026-04-26T08:13:31.889Z</time></trkpt><trkpt lat="42.3533483" lon="14.4079983"><ele>2.0</ele><time>2026-04-26T08:13:33.89Z</time></trkpt><trkpt lat="42.35346" lon="14.4079967"><ele>2.0</ele><time>2026-04-26T08:13:35.889Z</time></trkpt><trkpt lat="42.3535717" lon="14.4080083"><ele>2.0</ele><time>2026-04-26T08:13:37.89Z</time></trkpt><trkpt lat="42.3536783" lon="14.4079767"><ele>2.0</ele><time>2026-04-26T08:13:39.889Z</time></trkpt><trkpt lat="42.3537917" lon="14.4079417"><ele>2.0</ele><time>2026-04-26T08:13:41.89Z</time></trkpt><trkpt lat="42.3539" lon="14.4079233"><ele>2.0</ele><time>2026-04-26T08:13:43.889Z</time></trkpt><trkpt lat="42.3540117" lon="14.4079117"><ele>2.0</ele><time>2026-04-26T08:13:45.89Z</time></trkpt><trkpt lat="42.354125" lon="14.407895"><ele>1.75</ele><time>2026-04-26T08:13:47.89Z</time></trkpt><trkpt lat="42.35424" lon="14.4078817"><ele>1.5</ele><time>2026-04-26T08:13:49.889Z</time></trkpt><trkpt lat="42.3543583" lon="14.4078617"><ele>1.25</ele><time>2026-04-26T08:13:51.89Z</time></trkpt><trkpt lat="42.3544733" lon="14.407845"><ele>1.0</ele><time>2026-04-26T08:13:53.889Z</time></trkpt><trkpt lat="42.35459" lon="14.4078333"><ele>1.25</ele><time>2026-04-26T08:13:55.889Z</time></trkpt><trkpt lat="42.3547067" lon="14.4078133"><ele>1.5</ele><time>2026-04-26T08:13:57.889Z</time></trkpt><trkpt lat="42.35482" lon="14.4078033"><ele>1.75</ele><time>2026-04-26T08:13:59.89Z</time></trkpt><trkpt lat="42.3549333" lon="14.407795"><ele>2.0</ele><time>2026-04-26T08:14:01.889Z</time></trkpt><trkpt lat="42.3550533" lon="14.4077883"><ele>2.0</ele><time>2026-04-26T08:14:03.889Z</time></trkpt><trkpt lat="42.3551733" lon="14.4077767"><ele>2.0</ele><time>2026-04-26T08:14:05.89Z</time></trkpt><trkpt lat="42.355285" lon="14.4077883"><ele>2.0</ele><time>2026-04-26T08:14:07.89Z</time></trkpt><trkpt lat="42.3553967" lon="14.4078167"><ele>2.0</ele><time>2026-04-26T08:14:09.889Z</time></trkpt><trkpt lat="42.3555067" lon="14.4078117"><ele>2.2</ele><time>2026-04-26T08:14:11.889Z</time></trkpt><trkpt lat="42.355625" lon="14.4078033"><ele>2.4000000000000004</ele><time>2026-04-26T08:14:13.89Z</time></trkpt><trkpt lat="42.355735" lon="14.4077933"><ele>2.5999999999999996</ele><time>2026-04-26T08:14:15.89Z</time></trkpt><trkpt lat="42.355835" lon="14.40779"><ele>2.8</ele><time>2026-04-26T08:14:17.889Z</time></trkpt><trkpt lat="42.3559417" lon="14.40778"><ele>3.0</ele><time>2026-04-26T08:14:19.89Z</time></trkpt><trkpt lat="42.35606" lon="14.4077667"><ele>3.0</ele><time>2026-04-26T08:14:21.889Z</time></trkpt><trkpt lat="42.3561767" lon="14.4077533"><ele>3.0</ele><time>2026-04-26T08:14:23.89Z</time></trkpt><trkpt lat="42.3562967" lon="14.40773"><ele>3.0</ele><time>2026-04-26T08:14:25.889Z</time></trkpt><trkpt lat="42.3564167" lon="14.40771"><ele>3.0</ele><time>2026-04-26T08:14:27.89Z</time></trkpt><trkpt lat="42.3565317" lon="14.4076983"><ele>3.5999999999999996</ele><time>2026-04-26T08:14:29.889Z</time></trkpt><trkpt lat="42.3566417" lon="14.4076883"><ele>4.199999999999999</ele><time>2026-04-26T08:14:31.889Z</time></trkpt><trkpt lat="42.3567383" lon="14.4076667"><ele>4.8</ele><time>2026-04-26T08:14:33.89Z</time></trkpt><trkpt lat="42.3568467" lon="14.4076517"><ele>5.3999999999999995</ele><time>2026-04-26T08:14:35.89Z</time></trkpt><trkpt lat="42.35695" lon="14.40765"><ele>6.0</ele><time>2026-04-26T08:14:37.89Z</time></trkpt><trkpt lat="42.3570583" lon="14.4076417"><ele>6.0</ele><time>2026-04-26T08:14:39.89Z</time></trkpt><trkpt lat="42.357125" lon="14.4076467"><ele>6.0</ele><time>2026-04-26T08:14:40.889Z</time></trkpt><trkpt lat="42.3572367" lon="14.4076367"><ele>6.0</ele><time>2026-04-26T08:14:42.889Z</time></trkpt><trkpt lat="42.3573417" lon="14.4076067"><ele>6.0</ele><time>2026-04-26T08:14:44.889Z</time></trkpt><trkpt lat="42.3574367" lon="14.4075667"><ele>6.0</ele><time>2026-04-26T08:14:46.888Z</time></trkpt><trkpt lat="42.35753" lon="14.4075267"><ele>6.4</ele><time>2026-04-26T08:14:48.888Z</time></trkpt><trkpt lat="42.3576267" lon="14.40749"><ele>6.8</ele><time>2026-04-26T08:14:50.888Z</time></trkpt><trkpt lat="42.3577217" lon="14.407485"><ele>7.200000000000001</ele><time>2026-04-26T08:14:52.889Z</time></trkpt><trkpt lat="42.357815" lon="14.4075017"><ele>7.6000000000000005</ele><time>2026-04-26T08:14:54.889Z</time></trkpt><trkpt lat="42.3579083" lon="14.40752"><ele>8.0</ele><time>2026-04-26T08:14:56.889Z</time></trkpt><trkpt lat="42.35798" lon="14.40755"><ele>8.666666666666666</ele><time>2026-04-26T08:14:58.888Z</time></trkpt><trkpt lat="42.358045" lon="14.407575"><ele>9.333333333333332</ele><time>2026-04-26T08:15:00.889Z</time></trkpt><trkpt lat="42.358115" lon="14.407605"><ele>10.0</ele><time>2026-04-26T08:15:03.889Z</time></trkpt><trkpt lat="42.3582067" lon="14.4076217"><ele>10.666666666666666</ele><time>2026-04-26T08:15:07.889Z</time></trkpt><trkpt lat="42.3582817" lon="14.4076567"><ele>11.333333333333334</ele><time>2026-04-26T08:15:09.888Z</time></trkpt><trkpt lat="42.3583633" lon="14.4077217"><ele>12.0</ele><time>2026-04-26T08:15:11.888Z</time></trkpt><trkpt lat="42.3584467" lon="14.40779"><ele>12.0</ele><time>2026-04-26T08:15:13.888Z</time></trkpt><trkpt lat="42.3585333" lon="14.40786"><ele>12.0</ele><time>2026-04-26T08:15:15.888Z</time></trkpt><trkpt lat="42.3586067" lon="14.4079333"><ele>12.0</ele><time>2026-04-26T08:15:17.889Z</time></trkpt><trkpt lat="42.35868" lon="14.4080183"><ele>12.0</ele><time>2026-04-26T08:15:19.889Z</time></trkpt><trkpt lat="42.3587567" lon="14.408085"><ele>12.0</ele><time>2026-04-26T08:15:21.889Z</time></trkpt><trkpt lat="42.3588217" lon="14.4081483"><ele>10.571428571428571</ele><time>2026-04-26T08:15:23.888Z</time></trkpt><trkpt lat="42.3588933" lon="14.4081567"><ele>9.142857142857142</ele><time>2026-04-26T08:15:25.889Z</time></trkpt><trkpt lat="42.3589567" lon="14.4081533"><ele>7.7142857142857135</ele><time>2026-04-26T08:15:27.889Z</time></trkpt><trkpt lat="42.3590417" lon="14.4081317"><ele>6.285714285714285</ele><time>2026-04-26T08:15:30.888Z</time></trkpt><trkpt lat="42.3591067" lon="14.408125"><ele>4.857142857142857</ele><time>2026-04-26T08:15:32.889Z</time></trkpt><trkpt lat="42.359165" lon="14.40808"><ele>3.4285714285714284</ele><time>2026-04-26T08:15:34.889Z</time></trkpt><trkpt lat="42.3592333" lon="14.4080917"><ele>2.0</ele><time>2026-04-26T08:15:36.889Z</time></trkpt><trkpt lat="42.3593083" lon="14.4080317"><ele>4.75</ele><time>2026-04-26T08:15:38.888Z</time></trkpt><trkpt lat="42.3593883" lon="14.4079217"><ele>7.5</ele><time>2026-04-26T08:15:40.889Z</time></trkpt><trkpt lat="42.3594633" lon="14.4078033"><ele>10.25</ele><time>2026-04-26T08:15:42.888Z</time></trkpt><trkpt lat="42.3595417" lon="14.4076833"><ele>13.0</ele><time>2026-04-26T08:15:44.888Z</time></trkpt><trkpt lat="42.3596233" lon="14.4075617"><ele>11.4</ele><time>2026-04-26T08:15:46.888Z</time></trkpt><trkpt lat="42.3597017" lon="14.4074367"><ele>9.8</ele><time>2026-04-26T08:15:48.889Z</time></trkpt><trkpt lat="42.3597783" lon="14.4073183"><ele>8.2</ele><time>2026-04-26T08:15:50.889Z</time></trkpt><trkpt lat="42.359855" lon="14.4071967"><ele>6.6</ele><time>2026-04-26T08:15:52.889Z</time></trkpt><trkpt lat="42.3598933" lon="14.4071267"><ele>5.0</ele><time>2026-04-26T08:15:53.889Z</time></trkpt><trkpt lat="42.3599467" lon="14.4069817"><ele>5.0</ele><time>2026-04-26T08:15:55.889Z</time></trkpt><trkpt lat="42.3599767" lon="14.4068533"><ele>5.0</ele><time>2026-04-26T08:15:57.889Z</time></trkpt><trkpt lat="42.360015" lon="14.4067383"><ele>5.0</ele><time>2026-04-26T08:15:59.889Z</time></trkpt><trkpt lat="42.360055" lon="14.406615"><ele>5.0</ele><time>2026-04-26T08:16:01.889Z</time></trkpt><trkpt lat="42.3600767" lon="14.40647"><ele>5.0</ele><time>2026-04-26T08:16:03.889Z</time></trkpt><trkpt lat="42.3600833" lon="14.4063167"><ele>5.6</ele><time>2026-04-26T08:16:05.888Z</time></trkpt><trkpt lat="42.3600883" lon="14.406155"><ele>6.2</ele><time>2026-04-26T08:16:07.888Z</time></trkpt><trkpt lat="42.3600917" lon="14.406"><ele>6.800000000000001</ele><time>2026-04-26T08:16:09.889Z</time></trkpt><trkpt lat="42.3600933" lon="14.405855"><ele>7.4</ele><time>2026-04-26T08:16:11.888Z</time></trkpt><trkpt lat="42.3600983" lon="14.4057133"><ele>8.0</ele><time>2026-04-26T08:16:13.889Z</time></trkpt><trkpt lat="42.3601167" lon="14.405555"><ele>8.666666666666666</ele><time>2026-04-26T08:16:15.889Z</time></trkpt><trkpt lat="42.360155" lon="14.4053933"><ele>9.333333333333332</ele><time>2026-04-26T08:16:17.888Z</time></trkpt><trkpt lat="42.360175" lon="14.4053067"><ele>10.0</ele><time>2026-04-26T08:16:18.889Z</time></trkpt><trkpt lat="42.3601933" lon="14.405225"><ele>10.666666666666666</ele><time>2026-04-26T08:16:19.889Z</time></trkpt><trkpt lat="42.3602183" lon="14.4051383"><ele>11.333333333333334</ele><time>2026-04-26T08:16:20.889Z</time></trkpt><trkpt lat="42.3602417" lon="14.4050517"><ele>12.0</ele><time>2026-04-26T08:16:21.888Z</time></trkpt><trkpt lat="42.36027" lon="14.4049617"><ele>12.0</ele><time>2026-04-26T08:16:22.888Z</time></trkpt><trkpt lat="42.3602933" lon="14.40487"><ele>12.0</ele><time>2026-04-26T08:16:23.889Z</time></trkpt><trkpt lat="42.3603133" lon="14.4047833"><ele>12.0</ele><time>2026-04-26T08:16:24.889Z</time></trkpt><trkpt lat="42.3603383" lon="14.4047017"><ele>12.0</ele><time>2026-04-26T08:16:25.889Z</time></trkpt><trkpt lat="42.3603683" lon="14.4046233"><ele>12.0</ele><time>2026-04-26T08:16:26.888Z</time></trkpt><trkpt lat="42.3603967" lon="14.404545"><ele>12.0</ele><time>2026-04-26T08:16:27.889Z</time></trkpt><trkpt lat="42.36045" lon="14.4043917"><ele>11.0</ele><time>2026-04-26T08:16:29.889Z</time></trkpt><trkpt lat="42.3605017" lon="14.4042517"><ele>10.0</ele><time>2026-04-26T08:16:31.889Z</time></trkpt><trkpt lat="42.360555" lon="14.4041067"><ele>9.0</ele><time>2026-04-26T08:16:33.888Z</time></trkpt><trkpt lat="42.3606" lon="14.40397"><ele>8.0</ele><time>2026-04-26T08:16:35.889Z</time></trkpt><trkpt lat="42.36065" lon="14.40383"><ele>8.0</ele><time>2026-04-26T08:16:37.889Z</time></trkpt><trkpt lat="42.3607" lon="14.4036983"><ele>8.0</ele><time>2026-04-26T08:16:39.889Z</time></trkpt><trkpt lat="42.3607533" lon="14.4035667"><ele>8.0</ele><time>2026-04-26T08:16:41.888Z</time></trkpt><trkpt lat="42.3608083" lon="14.403435"><ele>8.0</ele><time>2026-04-26T08:16:43.888Z</time></trkpt><trkpt lat="42.36086" lon="14.4033133"><ele>8.0</ele><time>2026-04-26T08:16:45.888Z</time></trkpt><trkpt lat="42.3609183" lon="14.403195"><ele>8.0</ele><time>2026-04-26T08:16:47.888Z</time></trkpt><trkpt lat="42.360975" lon="14.4030683"><ele>8.0</ele><time>2026-04-26T08:16:49.889Z</time></trkpt><trkpt lat="42.3610317" lon="14.4029317"><ele>8.0</ele><time>2026-04-26T08:16:51.888Z</time></trkpt><trkpt lat="42.3610833" lon="14.402815"><ele>8.0</ele><time>2026-04-26T08:16:53.889Z</time></trkpt><trkpt lat="42.3611483" lon="14.4027"><ele>8.0</ele><time>2026-04-26T08:16:55.888Z</time></trkpt><trkpt lat="42.36122" lon="14.4025717"><ele>9.0</ele><time>2026-04-26T08:16:57.889Z</time></trkpt><trkpt lat="42.3612883" lon="14.4024567"><ele>10.0</ele><time>2026-04-26T08:16:59.888Z</time></trkpt><trkpt lat="42.3613717" lon="14.40234"><ele>11.0</ele><time>2026-04-26T08:17:01.889Z</time></trkpt><trkpt lat="42.3614433" lon="14.4022133"><ele>12.0</ele><time>2026-04-26T08:17:03.889Z</time></trkpt><trkpt lat="42.3614833" lon="14.4021467"><ele>13.0</ele><time>2026-04-26T08:17:04.889Z</time></trkpt><trkpt lat="42.361555" lon="14.40203"><ele>13.0</ele><time>2026-04-26T08:17:06.889Z</time></trkpt><trkpt lat="42.3616133" lon="14.4018917"><ele>13.0</ele><time>2026-04-26T08:17:08.889Z</time></trkpt><trkpt lat="42.361685" lon="14.401775"><ele>13.0</ele><time>2026-04-26T08:17:10.889Z</time></trkpt><trkpt lat="42.3617567" lon="14.4016567"><ele>13.0</ele><time>2026-04-26T08:17:12.889Z</time></trkpt><trkpt lat="42.3618333" lon="14.401545"><ele>13.0</ele><time>2026-04-26T08:17:14.889Z</time></trkpt><trkpt lat="42.3619067" lon="14.4014183"><ele>13.0</ele><time>2026-04-26T08:17:16.889Z</time></trkpt><trkpt lat="42.3619783" lon="14.4012917"><ele>13.0</ele><time>2026-04-26T08:17:18.889Z</time></trkpt><trkpt lat="42.362055" lon="14.40118"><ele>13.0</ele><time>2026-04-26T08:17:20.889Z</time></trkpt><trkpt lat="42.3621283" lon="14.4010567"><ele>10.25</ele><time>2026-04-26T08:17:22.888Z</time></trkpt><trkpt lat="42.362205" lon="14.4009367"><ele>7.5</ele><time>2026-04-26T08:17:24.888Z</time></trkpt><trkpt lat="42.36228" lon="14.400815"><ele>4.75</ele><time>2026-04-26T08:17:26.889Z</time></trkpt><trkpt lat="42.36234" lon="14.4006933"><ele>2.0</ele><time>2026-04-26T08:17:28.889Z</time></trkpt><trkpt lat="42.3624083" lon="14.4005767"><ele>2.333333333333333</ele><time>2026-04-26T08:17:30.889Z</time></trkpt><trkpt lat="42.3624767" lon="14.400455"><ele>2.6666666666666665</ele><time>2026-04-26T08:17:32.888Z</time></trkpt><trkpt lat="42.3625383" lon="14.4003517"><ele>3.0</ele><time>2026-04-26T08:17:34.888Z</time></trkpt><trkpt lat="42.3625883" lon="14.4002617"><ele>3.333333333333333</ele><time>2026-04-26T08:17:36.889Z</time></trkpt><trkpt lat="42.36262" lon="14.4001817"><ele>3.6666666666666665</ele><time>2026-04-26T08:17:39.889Z</time></trkpt><trkpt lat="42.362665" lon="14.4001067"><ele>4.0</ele><time>2026-04-26T08:17:45.889Z</time></trkpt><trkpt lat="42.3627033" lon="14.4000367"><ele>4.0</ele><time>2026-04-26T08:17:50.888Z</time></trkpt><trkpt lat="42.3627682" lon="14.3999474"><ele>4.0</ele><time>2026-04-26T08:18:35.888Z</time></trkpt><trkpt lat="42.3628526" lon="14.3998429"><ele>4.0</ele><time>2026-04-26T08:18:52.889Z</time></trkpt><trkpt lat="42.3629337" lon="14.3997306"><ele>4.0</ele><time>2026-04-26T08:19:10.888Z</time></trkpt><trkpt lat="42.3629885" lon="14.3996365"><ele>4.0</ele><time>2026-04-26T08:19:12.889Z</time></trkpt><trkpt lat="42.3630313" lon="14.3995562"><ele>3.6666666666666665</ele><time>2026-04-26T08:19:14.888Z</time></trkpt><trkpt lat="42.363072" lon="14.3994678"><ele>3.333333333333333</ele><time>2026-04-26T08:19:16.889Z</time></trkpt><trkpt lat="42.3631208" lon="14.3993821"><ele>3.0</ele><time>2026-04-26T08:19:18.888Z</time></trkpt><trkpt lat="42.3631726" lon="14.3992962"><ele>2.6666666666666665</ele><time>2026-04-26T08:19:20.888Z</time></trkpt><trkpt lat="42.3632337" lon="14.3992068"><ele>2.333333333333333</ele><time>2026-04-26T08:19:22.889Z</time></trkpt><trkpt lat="42.3632945" lon="14.3991221"><ele>2.0</ele><time>2026-04-26T08:19:24.888Z</time></trkpt><trkpt lat="42.3633563" lon="14.3990342"><ele>1.9999999999999998</ele><time>2026-04-26T08:19:26.888Z</time></trkpt><trkpt lat="42.3634176" lon="14.3989536"><ele>2.0</ele><time>2026-04-26T08:19:28.888Z</time></trkpt><trkpt lat="42.3634849" lon="14.3988845"><ele>2.0</ele><time>2026-04-26T08:19:30.888Z</time></trkpt><trkpt lat="42.3635533" lon="14.3988187"><ele>2.0</ele><time>2026-04-26T08:19:32.888Z</time></trkpt><trkpt lat="42.3636231" lon="14.3987426"><ele>1.9999999999999998</ele><time>2026-04-26T08:19:34.889Z</time></trkpt><trkpt lat="42.3636893" lon="14.3986733"><ele>2.0</ele><time>2026-04-26T08:19:36.889Z</time></trkpt><trkpt lat="42.3637615" lon="14.3985907"><ele>2.2</ele><time>2026-04-26T08:19:38.889Z</time></trkpt><trkpt lat="42.3638297" lon="14.3985033"><ele>2.4000000000000004</ele><time>2026-04-26T08:19:40.889Z</time></trkpt><trkpt lat="42.3639104" lon="14.3983991"><ele>2.5999999999999996</ele><time>2026-04-26T08:19:42.889Z</time></trkpt><trkpt lat="42.3639924" lon="14.398313"><ele>2.8</ele><time>2026-04-26T08:19:44.889Z</time></trkpt><trkpt lat="42.3640776" lon="14.398235"><ele>3.0</ele><time>2026-04-26T08:19:46.889Z</time></trkpt><trkpt lat="42.364155" lon="14.3981546"><ele>3.0</ele><time>2026-04-26T08:19:48.888Z</time></trkpt><trkpt lat="42.3642349" lon="14.3980741"><ele>3.0</ele><time>2026-04-26T08:19:50.888Z</time></trkpt><trkpt lat="42.3643178" lon="14.3979969"><ele>3.0</ele><time>2026-04-26T08:19:52.888Z</time></trkpt><trkpt lat="42.3644014" lon="14.3979139"><ele>3.0</ele><time>2026-04-26T08:19:54.888Z</time></trkpt><trkpt lat="42.3644806" lon="14.3978286"><ele>3.0</ele><time>2026-04-26T08:19:56.889Z</time></trkpt><trkpt lat="42.3645599" lon="14.3977481"><ele>4.0</ele><time>2026-04-26T08:19:58.889Z</time></trkpt><trkpt lat="42.364642" lon="14.3976689"><ele>5.0</ele><time>2026-04-26T08:20:00.889Z</time></trkpt><trkpt lat="42.3647216" lon="14.3975843"><ele>6.000000000000001</ele><time>2026-04-26T08:20:02.889Z</time></trkpt><trkpt lat="42.3648035" lon="14.3975057"><ele>7.0</ele><time>2026-04-26T08:20:04.889Z</time></trkpt><trkpt lat="42.3648858" lon="14.3974265"><ele>8.0</ele><time>2026-04-26T08:20:06.888Z</time></trkpt><trkpt lat="42.3649689" lon="14.3973389"><ele>8.0</ele><time>2026-04-26T08:20:08.889Z</time></trkpt><trkpt lat="42.3650486" lon="14.3972547"><ele>8.0</ele><time>2026-04-26T08:20:10.888Z</time></trkpt><trkpt lat="42.3651279" lon="14.3971711"><ele>8.0</ele><time>2026-04-26T08:20:12.888Z</time></trkpt><trkpt lat="42.3652098" lon="14.3970962"><ele>8.0</ele><time>2026-04-26T08:20:14.889Z</time></trkpt><trkpt lat="42.3652955" lon="14.3970257"><ele>8.0</ele><time>2026-04-26T08:20:16.889Z</time></trkpt><trkpt lat="42.3653769" lon="14.3969441"><ele>7.6000000000000005</ele><time>2026-04-26T08:20:18.888Z</time></trkpt><trkpt lat="42.3654531" lon="14.3968794"><ele>7.200000000000001</ele><time>2026-04-26T08:20:20.889Z</time></trkpt><trkpt lat="42.3655257" lon="14.3968032"><ele>6.8</ele><time>2026-04-26T08:20:22.888Z</time></trkpt><trkpt lat="42.3656001" lon="14.3967259"><ele>6.4</ele><time>2026-04-26T08:20:24.889Z</time></trkpt><trkpt lat="42.3656708" lon="14.3966488"><ele>6.0</ele><time>2026-04-26T08:20:26.888Z</time></trkpt><trkpt lat="42.3657413" lon="14.3965787"><ele>5.999999999999999</ele><time>2026-04-26T08:20:28.889Z</time></trkpt><trkpt lat="42.3658082" lon="14.396519"><ele>6.0</ele><time>2026-04-26T08:20:30.889Z</time></trkpt><trkpt lat="42.3658697" lon="14.3964609"><ele>6.0</ele><time>2026-04-26T08:20:32.889Z</time></trkpt><trkpt lat="42.3659319" lon="14.396412"><ele>6.0</ele><time>2026-04-26T08:20:34.889Z</time></trkpt><trkpt lat="42.365987" lon="14.396368"><ele>6.0</ele><time>2026-04-26T08:20:36.889Z</time></trkpt><trkpt lat="42.36604" lon="14.3963187"><ele>5.999999999999999</ele><time>2026-04-26T08:20:38.889Z</time></trkpt><trkpt lat="42.3661106" lon="14.3962562"><ele>6.0</ele><time>2026-04-26T08:20:41.888Z</time></trkpt><trkpt lat="42.3661685" lon="14.3961961"><ele>5.666666666666667</ele><time>2026-04-26T08:20:44.889Z</time></trkpt><trkpt lat="42.3662245" lon="14.3961533"><ele>5.333333333333333</ele><time>2026-04-26T08:20:47.889Z</time></trkpt><trkpt lat="42.3663042" lon="14.3960604"><ele>5.0</ele><time>2026-04-26T08:21:45.888Z</time></trkpt><trkpt lat="42.3663638" lon="14.3960198"><ele>4.666666666666666</ele><time>2026-04-26T08:21:47.889Z</time></trkpt><trkpt lat="42.3664243" lon="14.3959672"><ele>4.333333333333333</ele><time>2026-04-26T08:21:49.888Z</time></trkpt><trkpt lat="42.3664894" lon="14.3959041"><ele>4.0</ele><time>2026-04-26T08:21:51.889Z</time></trkpt><trkpt lat="42.366559" lon="14.3958271"><ele>3.9999999999999996</ele><time>2026-04-26T08:21:53.889Z</time></trkpt><trkpt lat="42.3666374" lon="14.3957492"><ele>4.0</ele><time>2026-04-26T08:21:55.889Z</time></trkpt><trkpt lat="42.3667159" lon="14.395678"><ele>4.0</ele><time>2026-04-26T08:21:57.889Z</time></trkpt><trkpt lat="42.3667798" lon="14.3956054"><ele>4.0</ele><time>2026-04-26T08:21:59.889Z</time></trkpt><trkpt lat="42.3668417" lon="14.3955409"><ele>3.9999999999999996</ele><time>2026-04-26T08:22:01.889Z</time></trkpt><trkpt lat="42.3669004" lon="14.3954799"><ele>4.0</ele><time>2026-04-26T08:22:03.888Z</time></trkpt><trkpt lat="42.3669578" lon="14.3954265"><ele>4.666666666666666</ele><time>2026-04-26T08:22:05.889Z</time></trkpt><trkpt lat="42.3670263" lon="14.395376"><ele>5.333333333333333</ele><time>2026-04-26T08:22:07.889Z</time></trkpt><trkpt lat="42.3670983" lon="14.3953172"><ele>6.0</ele><time>2026-04-26T08:22:09.889Z</time></trkpt><trkpt lat="42.3671704" lon="14.3952531"><ele>6.666666666666666</ele><time>2026-04-26T08:22:11.889Z</time></trkpt><trkpt lat="42.3672487" lon="14.3951697"><ele>7.333333333333333</ele><time>2026-04-26T08:22:13.889Z</time></trkpt><trkpt lat="42.3673347" lon="14.3951157"><ele>8.0</ele><time>2026-04-26T08:22:15.889Z</time></trkpt><trkpt lat="42.367419" lon="14.3950466"><ele>7.999999999999999</ele><time>2026-04-26T08:22:17.888Z</time></trkpt><trkpt lat="42.3675027" lon="14.3949744"><ele>8.0</ele><time>2026-04-26T08:22:19.889Z</time></trkpt><trkpt lat="42.3675828" lon="14.3949107"><ele>8.0</ele><time>2026-04-26T08:22:21.889Z</time></trkpt><trkpt lat="42.3676599" lon="14.3948449"><ele>8.0</ele><time>2026-04-26T08:22:23.889Z</time></trkpt><trkpt lat="42.3677305" lon="14.3947929"><ele>7.999999999999999</ele><time>2026-04-26T08:22:25.889Z</time></trkpt><trkpt lat="42.3677986" lon="14.3947486"><ele>8.0</ele><time>2026-04-26T08:22:27.889Z</time></trkpt><trkpt lat="42.3678663" lon="14.3947023"><ele>9.666666666666666</ele><time>2026-04-26T08:22:29.888Z</time></trkpt><trkpt lat="42.3679255" lon="14.3946598"><ele>11.333333333333332</ele><time>2026-04-26T08:22:31.889Z</time></trkpt><trkpt lat="42.3680104" lon="14.3946173"><ele>13.0</ele><time>2026-04-26T08:22:34.889Z</time></trkpt><trkpt lat="42.3680783" lon="14.3945833"><ele>14.666666666666666</ele><time>2026-04-26T08:22:37.889Z</time></trkpt><trkpt lat="42.36814" lon="14.39455"><ele>16.333333333333332</ele><time>2026-04-26T08:22:39.889Z</time></trkpt><trkpt lat="42.3682117" lon="14.3945133"><ele>18.0</ele><time>2026-04-26T08:22:41.889Z</time></trkpt><trkpt lat="42.3682783" lon="14.3944617"><ele>18.0</ele><time>2026-04-26T08:22:43.889Z</time></trkpt><trkpt lat="42.3683383" lon="14.3944217"><ele>18.0</ele><time>2026-04-26T08:22:45.888Z</time></trkpt><trkpt lat="42.36841" lon="14.3943783"><ele>18.0</ele><time>2026-04-26T08:22:48.888Z</time></trkpt><trkpt lat="42.3684767" lon="14.3943733"><ele>18.0</ele><time>2026-04-26T08:22:52.888Z</time></trkpt><trkpt lat="42.368555" lon="14.3943633"><ele>18.0</ele><time>2026-04-26T08:22:56.887Z</time></trkpt><trkpt lat="42.3686367" lon="14.3943317"><ele>18.0</ele><time>2026-04-26T08:23:00.887Z</time></trkpt><trkpt lat="42.3687217" lon="14.3942867"><ele>51.0</ele><time>2026-04-26T08:23:03.887Z</time></trkpt><trkpt lat="42.3699766" lon="14.3921049"><ele>51.0</ele><time>2026-04-26T08:29:26.891Z</time></trkpt><trkpt lat="42.3700195" lon="14.3921863"><ele>51.0</ele><time>2026-04-26T08:29:27.89Z</time></trkpt><trkpt lat="42.3700727" lon="14.392275"><ele>51.0</ele><time>2026-04-26T08:29:28.891Z</time></trkpt><trkpt lat="42.3701093" lon="14.3923652"><ele>51.0</ele><time>2026-04-26T08:29:29.891Z</time></trkpt><trkpt lat="42.3700466" lon="14.3922957"><ele>51.0</ele><time>2026-04-26T08:29:34.89Z</time></trkpt><trkpt lat="42.3700536" lon="14.3922092"><ele>51.0</ele><time>2026-04-26T08:29:38.89Z</time></trkpt><trkpt lat="42.3699324" lon="14.3921177"><ele>51.0</ele><time>2026-04-26T08:29:40.891Z</time></trkpt><trkpt lat="42.3698576" lon="14.3920791"><ele>51.0</ele><time>2026-04-26T08:29:41.89Z</time></trkpt><trkpt lat="42.3697698" lon="14.392045"><ele>51.0</ele><time>2026-04-26T08:29:43.89Z</time></trkpt><trkpt lat="42.3696562" lon="14.3920303"><ele>51.0</ele><time>2026-04-26T08:29:44.891Z</time></trkpt><trkpt lat="42.3697198" lon="14.392073"><ele>51.0</ele><time>2026-04-26T08:29:45.891Z</time></trkpt><trkpt lat="42.3702552" lon="14.392602"><ele>46.333333333333336</ele><time>2026-04-26T08:29:46.89Z</time></trkpt><trkpt lat="42.3704872" lon="14.39282"><ele>41.66666666666667</ele><time>2026-04-26T08:29:47.891Z</time></trkpt><trkpt lat="42.3705939" lon="14.3928838"><ele>37.0</ele><time>2026-04-26T08:29:48.89Z</time></trkpt><trkpt lat="42.3707763" lon="14.3928968"><ele>33.142857142857146</ele><time>2026-04-26T08:29:49.89Z</time></trkpt><trkpt lat="42.3708361" lon="14.3928538"><ele>29.285714285714285</ele><time>2026-04-26T08:30:02.89Z</time></trkpt><trkpt lat="42.3708807" lon="14.3927922"><ele>25.428571428571427</ele><time>2026-04-26T08:30:14.89Z</time></trkpt><trkpt lat="42.3709152" lon="14.3927152"><ele>21.571428571428573</ele><time>2026-04-26T08:30:29.891Z</time></trkpt><trkpt lat="42.3708949" lon="14.3926091"><ele>17.714285714285715</ele><time>2026-04-26T08:31:04.891Z</time></trkpt><trkpt lat="42.3708633" lon="14.3927429"><ele>13.857142857142858</ele><time>2026-04-26T08:44:41.887Z</time></trkpt><trkpt lat="42.37082" lon="14.3928064"><ele>10.0</ele><time>2026-04-26T08:44:53.888Z</time></trkpt><trkpt lat="42.3564015" lon="14.4011972"><ele>18.0</ele><time>2026-04-26T08:49:43.785Z</time></trkpt><trkpt lat="42.36854" lon="14.3940583"><ele>18.0</ele><time>2026-04-26T08:49:46.205Z</time></trkpt><trkpt lat="42.3685333" lon="14.3937883"><ele>18.0</ele><time>2026-04-26T08:49:48.887Z</time></trkpt><trkpt lat="42.36843" lon="14.3936567"><ele>18.0</ele><time>2026-04-26T08:49:52.89Z</time></trkpt><trkpt lat="42.3684833" lon="14.3937533"><ele>18.0</ele><time>2026-04-26T08:49:54.89Z</time></trkpt><trkpt lat="42.3684683" lon="14.3938767"><ele>18.0</ele><time>2026-04-26T08:49:55.89Z</time></trkpt><trkpt lat="42.3683867" lon="14.393815"><ele>18.0</ele><time>2026-04-26T08:50:00.89Z</time></trkpt><trkpt lat="42.3684017" lon="14.39373"><ele>18.0</ele><time>2026-04-26T08:50:04.89Z</time></trkpt><trkpt lat="42.3684733" lon="14.3937117"><ele>18.0</ele><time>2026-04-26T08:50:06.889Z</time></trkpt><trkpt lat="42.368545" lon="14.393695"><ele>18.0</ele><time>2026-04-26T08:50:09.89Z</time></trkpt><trkpt lat="42.3685167" lon="14.3938167"><ele>18.0</ele><time>2026-04-26T08:50:48.89Z</time></trkpt><trkpt lat="42.3684" lon="14.3939367"><ele>18.0</ele><time>2026-04-26T08:51:06.89Z</time></trkpt><trkpt lat="42.3683333" lon="14.3940033"><ele>18.0</ele><time>2026-04-26T08:51:09.89Z</time></trkpt><trkpt lat="42.36827" lon="14.3940733"><ele>18.0</ele><time>2026-04-26T08:51:11.89Z</time></trkpt><trkpt lat="42.3682033" lon="14.394155"><ele>18.0</ele><time>2026-04-26T08:51:13.89Z</time></trkpt><trkpt lat="42.36814" lon="14.3942483"><ele>18.0</ele><time>2026-04-26T08:51:15.889Z</time></trkpt><trkpt lat="42.368075" lon="14.3943533"><ele>18.0</ele><time>2026-04-26T08:51:17.889Z</time></trkpt><trkpt lat="42.3680133" lon="14.3944567"><ele>19.333333333333332</ele><time>2026-04-26T08:51:19.89Z</time></trkpt><trkpt lat="42.3679483" lon="14.3945317"><ele>20.666666666666664</ele><time>2026-04-26T08:51:21.889Z</time></trkpt><trkpt lat="42.3678833" lon="14.3946067"><ele>22.0</ele><time>2026-04-26T08:51:23.89Z</time></trkpt><trkpt lat="42.3678083" lon="14.3946867"><ele>23.333333333333332</ele><time>2026-04-26T08:51:25.889Z</time></trkpt><trkpt lat="42.3677367" lon="14.3947667"><ele>24.666666666666664</ele><time>2026-04-26T08:51:27.89Z</time></trkpt><trkpt lat="42.367665" lon="14.3948233"><ele>26.0</ele><time>2026-04-26T08:51:29.889Z</time></trkpt><trkpt lat="42.3676033" lon="14.39488"><ele>22.999999999999996</ele><time>2026-04-26T08:51:31.89Z</time></trkpt><trkpt lat="42.3675467" lon="14.3949433"><ele>20.0</ele><time>2026-04-26T08:51:33.89Z</time></trkpt><trkpt lat="42.3674983" lon="14.395"><ele>17.0</ele><time>2026-04-26T08:51:35.89Z</time></trkpt><trkpt lat="42.3674383" lon="14.39505"><ele>14.0</ele><time>2026-04-26T08:51:37.889Z</time></trkpt><trkpt lat="42.3673717" lon="14.3951033"><ele>11.0</ele><time>2026-04-26T08:51:39.889Z</time></trkpt><trkpt lat="42.3672867" lon="14.3951633"><ele>8.0</ele><time>2026-04-26T08:51:41.89Z</time></trkpt><trkpt lat="42.36721" lon="14.395215"><ele>7.333333333333333</ele><time>2026-04-26T08:51:43.889Z</time></trkpt><trkpt lat="42.3671367" lon="14.3952717"><ele>6.666666666666666</ele><time>2026-04-26T08:51:45.89Z</time></trkpt><trkpt lat="42.3670733" lon="14.3953267"><ele>6.0</ele><time>2026-04-26T08:51:47.89Z</time></trkpt><trkpt lat="42.3670133" lon="14.3953667"><ele>5.333333333333333</ele><time>2026-04-26T08:51:49.89Z</time></trkpt><trkpt lat="42.3669517" lon="14.3954233"><ele>4.666666666666666</ele><time>2026-04-26T08:51:51.89Z</time></trkpt><trkpt lat="42.366885" lon="14.3954833"><ele>4.0</ele><time>2026-04-26T08:51:53.89Z</time></trkpt><trkpt lat="42.3668233" lon="14.39553"><ele>3.9999999999999996</ele><time>2026-04-26T08:51:55.89Z</time></trkpt><trkpt lat="42.366755" lon="14.3955783"><ele>4.0</ele><time>2026-04-26T08:51:57.89Z</time></trkpt><trkpt lat="42.366685" lon="14.3956583"><ele>4.0</ele><time>2026-04-26T08:52:00.89Z</time></trkpt><trkpt lat="42.366615" lon="14.3957367"><ele>4.0</ele><time>2026-04-26T08:52:03.889Z</time></trkpt><trkpt lat="42.36656" lon="14.3957983"><ele>3.9999999999999996</ele><time>2026-04-26T08:52:05.89Z</time></trkpt><trkpt lat="42.3665033" lon="14.39585"><ele>4.0</ele><time>2026-04-26T08:52:07.889Z</time></trkpt><trkpt lat="42.3664517" lon="14.395905"><ele>3.9999999999999996</ele><time>2026-04-26T08:52:09.89Z</time></trkpt><trkpt lat="42.3663883" lon="14.3959817"><ele>4.0</ele><time>2026-04-26T08:52:13.89Z</time></trkpt><trkpt lat="42.3663367" lon="14.3960333"><ele>4.0</ele><time>2026-04-26T08:52:16.889Z</time></trkpt><trkpt lat="42.3662267" lon="14.3961083"><ele>4.0</ele><time>2026-04-26T08:52:49.89Z</time></trkpt><trkpt lat="42.3661683" lon="14.3961733"><ele>3.9999999999999996</ele><time>2026-04-26T08:52:52.89Z</time></trkpt><trkpt lat="42.3661117" lon="14.3962367"><ele>4.0</ele><time>2026-04-26T08:52:54.889Z</time></trkpt><trkpt lat="42.3660383" lon="14.39632"><ele>4.4</ele><time>2026-04-26T08:52:56.889Z</time></trkpt><trkpt lat="42.3659583" lon="14.3964067"><ele>4.800000000000001</ele><time>2026-04-26T08:52:58.89Z</time></trkpt><trkpt lat="42.3658733" lon="14.396495"><ele>5.199999999999999</ele><time>2026-04-26T08:53:00.89Z</time></trkpt><trkpt lat="42.3657883" lon="14.39658"><ele>5.6</ele><time>2026-04-26T08:53:02.889Z</time></trkpt><trkpt lat="42.3657017" lon="14.39666"><ele>6.0</ele><time>2026-04-26T08:53:04.889Z</time></trkpt><trkpt lat="42.365615" lon="14.39674"><ele>11.0</ele><time>2026-04-26T08:53:06.889Z</time></trkpt><trkpt lat="42.3655183" lon="14.39682"><ele>16.0</ele><time>2026-04-26T08:53:08.889Z</time></trkpt><trkpt lat="42.3654233" lon="14.3969067"><ele>21.0</ele><time>2026-04-26T08:53:10.89Z</time></trkpt><trkpt lat="42.3653283" lon="14.3969917"><ele>26.0</ele><time>2026-04-26T08:53:12.89Z</time></trkpt><trkpt lat="42.3652367" lon="14.39708"><ele>26.0</ele><time>2026-04-26T08:53:14.889Z</time></trkpt><trkpt lat="42.3651467" lon="14.3971617"><ele>26.0</ele><time>2026-04-26T08:53:16.89Z</time></trkpt><trkpt lat="42.3650583" lon="14.3972467"><ele>26.0</ele><time>2026-04-26T08:53:18.889Z</time></trkpt><trkpt lat="42.3649567" lon="14.3973317"><ele>26.0</ele><time>2026-04-26T08:53:20.889Z</time></trkpt><trkpt lat="42.364865" lon="14.39742"><ele>26.0</ele><time>2026-04-26T08:53:22.889Z</time></trkpt><trkpt lat="42.364775" lon="14.39751"><ele>25.8</ele><time>2026-04-26T08:53:24.889Z</time></trkpt><trkpt lat="42.36469" lon="14.3975983"><ele>25.6</ele><time>2026-04-26T08:53:26.89Z</time></trkpt><trkpt lat="42.3646017" lon="14.3976833"><ele>25.4</ele><time>2026-04-26T08:53:28.89Z</time></trkpt><trkpt lat="42.3645117" lon="14.397775"><ele>25.2</ele><time>2026-04-26T08:53:30.89Z</time></trkpt><trkpt lat="42.3644267" lon="14.3978667"><ele>25.0</ele><time>2026-04-26T08:53:32.89Z</time></trkpt><trkpt lat="42.3643417" lon="14.3979533"><ele>20.6</ele><time>2026-04-26T08:53:34.89Z</time></trkpt><trkpt lat="42.3642467" lon="14.39804"><ele>16.2</ele><time>2026-04-26T08:53:36.89Z</time></trkpt><trkpt lat="42.3641917" lon="14.398085"><ele>11.8</ele><time>2026-04-26T08:53:37.89Z</time></trkpt><trkpt lat="42.364095" lon="14.3981767"><ele>7.4</ele><time>2026-04-26T08:53:39.89Z</time></trkpt><trkpt lat="42.3640033" lon="14.3982717"><ele>3.0</ele><time>2026-04-26T08:53:41.889Z</time></trkpt><trkpt lat="42.363915" lon="14.3983633"><ele>2.8</ele><time>2026-04-26T08:53:43.89Z</time></trkpt><trkpt lat="42.3638317" lon="14.3984483"><ele>2.5999999999999996</ele><time>2026-04-26T08:53:45.89Z</time></trkpt><trkpt lat="42.3637433" lon="14.398545"><ele>2.4000000000000004</ele><time>2026-04-26T08:53:47.89Z</time></trkpt><trkpt lat="42.3636583" lon="14.39865"><ele>2.2</ele><time>2026-04-26T08:53:49.89Z</time></trkpt><trkpt lat="42.3635833" lon="14.3987483"><ele>2.0</ele><time>2026-04-26T08:53:51.89Z</time></trkpt><trkpt lat="42.3635067" lon="14.3988483"><ele>2.0</ele><time>2026-04-26T08:53:53.89Z</time></trkpt><trkpt lat="42.36344" lon="14.398875"><ele>2.0</ele><time>2026-04-26T08:53:54.889Z</time></trkpt><trkpt lat="42.3633617" lon="14.398965"><ele>2.0</ele><time>2026-04-26T08:53:56.89Z</time></trkpt><trkpt lat="42.3632967" lon="14.3990583"><ele>2.0</ele><time>2026-04-26T08:53:58.889Z</time></trkpt><trkpt lat="42.3632317" lon="14.399155"><ele>2.0</ele><time>2026-04-26T08:54:00.89Z</time></trkpt><trkpt lat="42.3631633" lon="14.39925"><ele>1.9999999999999998</ele><time>2026-04-26T08:54:02.89Z</time></trkpt><trkpt lat="42.36311" lon="14.3993383"><ele>2.0</ele><time>2026-04-26T08:54:04.889Z</time></trkpt><trkpt lat="42.3630517" lon="14.39944"><ele>2.0</ele><time>2026-04-26T08:54:06.89Z</time></trkpt><trkpt lat="42.3630067" lon="14.399525"><ele>2.0</ele><time>2026-04-26T08:54:08.89Z</time></trkpt><trkpt lat="42.36296" lon="14.3996"><ele>1.9999999999999998</ele><time>2026-04-26T08:54:10.889Z</time></trkpt><trkpt lat="42.3629067" lon="14.3996933"><ele>2.0</ele><time>2026-04-26T08:54:13.89Z</time></trkpt><trkpt lat="42.36286" lon="14.3997667"><ele>2.333333333333333</ele><time>2026-04-26T08:54:19.89Z</time></trkpt><trkpt lat="42.3628033" lon="14.3998417"><ele>2.6666666666666665</ele><time>2026-04-26T08:54:24.89Z</time></trkpt><trkpt lat="42.362755" lon="14.39991"><ele>3.0</ele><time>2026-04-26T08:54:27.89Z</time></trkpt><trkpt lat="42.3626867" lon="14.4000067"><ele>3.333333333333333</ele><time>2026-04-26T08:54:39.889Z</time></trkpt><trkpt lat="42.3626367" lon="14.400105"><ele>3.6666666666666665</ele><time>2026-04-26T08:54:43.89Z</time></trkpt><trkpt lat="42.3625933" lon="14.40018"><ele>4.0</ele><time>2026-04-26T08:54:45.89Z</time></trkpt><trkpt lat="42.36255" lon="14.400255"><ele>4.0</ele><time>2026-04-26T08:54:47.89Z</time></trkpt><trkpt lat="42.3625" lon="14.4003433"><ele>4.0</ele><time>2026-04-26T08:54:49.89Z</time></trkpt><trkpt lat="42.3624417" lon="14.4004433"><ele>4.0</ele><time>2026-04-26T08:54:51.889Z</time></trkpt><trkpt lat="42.3623817" lon="14.4005583"><ele>4.0</ele><time>2026-04-26T08:54:53.889Z</time></trkpt><trkpt lat="42.3623133" lon="14.40068"><ele>4.0</ele><time>2026-04-26T08:54:55.89Z</time></trkpt><trkpt lat="42.3622483" lon="14.400795"><ele>10.5</ele><time>2026-04-26T08:54:57.889Z</time></trkpt><trkpt lat="42.36219" lon="14.4009267"><ele>17.0</ele><time>2026-04-26T08:54:59.89Z</time></trkpt><trkpt lat="42.3621283" lon="14.4010567"><ele>23.5</ele><time>2026-04-26T08:55:01.89Z</time></trkpt><trkpt lat="42.362055" lon="14.4011833"><ele>30.0</ele><time>2026-04-26T08:55:03.89Z</time></trkpt><trkpt lat="42.361985" lon="14.4012867"><ele>26.6</ele><time>2026-04-26T08:55:05.89Z</time></trkpt><trkpt lat="42.3619117" lon="14.4013933"><ele>23.2</ele><time>2026-04-26T08:55:07.89Z</time></trkpt><trkpt lat="42.3618433" lon="14.401495"><ele>19.8</ele><time>2026-04-26T08:55:09.89Z</time></trkpt><trkpt lat="42.3617783" lon="14.401595"><ele>16.4</ele><time>2026-04-26T08:55:11.89Z</time></trkpt><trkpt lat="42.3616967" lon="14.4017083"><ele>13.0</ele><time>2026-04-26T08:55:13.89Z</time></trkpt><trkpt lat="42.3616267" lon="14.4018233"><ele>13.0</ele><time>2026-04-26T08:55:15.89Z</time></trkpt><trkpt lat="42.3615567" lon="14.4019283"><ele>13.0</ele><time>2026-04-26T08:55:17.89Z</time></trkpt><trkpt lat="42.3615033" lon="14.4020467"><ele>13.0</ele><time>2026-04-26T08:55:19.89Z</time></trkpt><trkpt lat="42.3614383" lon="14.4021683"><ele>13.0</ele><time>2026-04-26T08:55:21.89Z</time></trkpt><trkpt lat="42.361365" lon="14.4022933"><ele>13.0</ele><time>2026-04-26T08:55:23.89Z</time></trkpt><trkpt lat="42.361295" lon="14.4024183"><ele>12.0</ele><time>2026-04-26T08:55:25.89Z</time></trkpt><trkpt lat="42.3612217" lon="14.4025367"><ele>11.0</ele><time>2026-04-26T08:55:27.89Z</time></trkpt><trkpt lat="42.3611483" lon="14.402655"><ele>10.0</ele><time>2026-04-26T08:55:29.889Z</time></trkpt><trkpt lat="42.3610833" lon="14.4027767"><ele>9.0</ele><time>2026-04-26T08:55:31.889Z</time></trkpt><trkpt lat="42.3610317" lon="14.4029017"><ele>8.0</ele><time>2026-04-26T08:55:33.89Z</time></trkpt><trkpt lat="42.3610017" lon="14.4030267"><ele>8.0</ele><time>2026-04-26T08:55:35.889Z</time></trkpt><trkpt lat="42.3609633" lon="14.4031517"><ele>8.0</ele><time>2026-04-26T08:55:37.89Z</time></trkpt><trkpt lat="42.3609333" lon="14.403285"><ele>8.0</ele><time>2026-04-26T08:55:39.89Z</time></trkpt><trkpt lat="42.3608783" lon="14.403415"><ele>8.0</ele><time>2026-04-26T08:55:41.89Z</time></trkpt><trkpt lat="42.360845" lon="14.4035433"><ele>8.0</ele><time>2026-04-26T08:55:43.89Z</time></trkpt><trkpt lat="42.3608083" lon="14.4036783"><ele>8.0</ele><time>2026-04-26T08:55:45.889Z</time></trkpt><trkpt lat="42.3607667" lon="14.40383"><ele>8.0</ele><time>2026-04-26T08:55:47.889Z</time></trkpt><trkpt lat="42.3607167" lon="14.4039767"><ele>8.0</ele><time>2026-04-26T08:55:49.89Z</time></trkpt><trkpt lat="42.3606533" lon="14.4041233"><ele>8.0</ele><time>2026-04-26T08:55:51.89Z</time></trkpt><trkpt lat="42.3605933" lon="14.4042617"><ele>9.0</ele><time>2026-04-26T08:55:53.89Z</time></trkpt><trkpt lat="42.3605333" lon="14.404395"><ele>10.0</ele><time>2026-04-26T08:55:55.89Z</time></trkpt><trkpt lat="42.3604867" lon="14.40454"><ele>11.0</ele><time>2026-04-26T08:55:57.89Z</time></trkpt><trkpt lat="42.3604383" lon="14.4046733"><ele>12.0</ele><time>2026-04-26T08:55:59.889Z</time></trkpt><trkpt lat="42.3603817" lon="14.4048033"><ele>12.0</ele><time>2026-04-26T08:56:01.889Z</time></trkpt><trkpt lat="42.3603283" lon="14.4049333"><ele>12.0</ele><time>2026-04-26T08:56:03.89Z</time></trkpt><trkpt lat="42.3602733" lon="14.4050067"><ele>12.0</ele><time>2026-04-26T08:56:04.89Z</time></trkpt><trkpt lat="42.3602283" lon="14.4050883"><ele>12.0</ele><time>2026-04-26T08:56:05.89Z</time></trkpt><trkpt lat="42.3601733" lon="14.4052317"><ele>12.0</ele><time>2026-04-26T08:56:07.889Z</time></trkpt><trkpt lat="42.3601333" lon="14.4053617"><ele>12.0</ele><time>2026-04-26T08:56:09.89Z</time></trkpt><trkpt lat="42.3600983" lon="14.4054833"><ele>12.0</ele><time>2026-04-26T08:56:11.89Z</time></trkpt><trkpt lat="42.3600717" lon="14.405605"><ele>12.0</ele><time>2026-04-26T08:56:13.889Z</time></trkpt><trkpt lat="42.3600567" lon="14.4057117"><ele>12.0</ele><time>2026-04-26T08:56:15.889Z</time></trkpt><trkpt lat="42.360055" lon="14.4058417"><ele>12.0</ele><time>2026-04-26T08:56:17.889Z</time></trkpt><trkpt lat="42.360055" lon="14.4059667"><ele>11.2</ele><time>2026-04-26T08:56:19.89Z</time></trkpt><trkpt lat="42.3600517" lon="14.4061083"><ele>10.399999999999999</ele><time>2026-04-26T08:56:21.89Z</time></trkpt><trkpt lat="42.3600517" lon="14.4062667"><ele>9.600000000000001</ele><time>2026-04-26T08:56:23.89Z</time></trkpt><trkpt lat="42.3600517" lon="14.40643"><ele>8.8</ele><time>2026-04-26T08:56:25.889Z</time></trkpt><trkpt lat="42.3600317" lon="14.40657"><ele>8.0</ele><time>2026-04-26T08:56:27.89Z</time></trkpt><trkpt lat="42.3600033" lon="14.4067117"><ele>7.4</ele><time>2026-04-26T08:56:29.89Z</time></trkpt><trkpt lat="42.3599617" lon="14.4068567"><ele>6.800000000000001</ele><time>2026-04-26T08:56:31.889Z</time></trkpt><trkpt lat="42.3599183" lon="14.4069883"><ele>6.2</ele><time>2026-04-26T08:56:33.89Z</time></trkpt><trkpt lat="42.359865" lon="14.407105"><ele>5.6</ele><time>2026-04-26T08:56:35.89Z</time></trkpt><trkpt lat="42.3598067" lon="14.4072283"><ele>5.0</ele><time>2026-04-26T08:56:37.889Z</time></trkpt><trkpt lat="42.35974" lon="14.4073533"><ele>7.0</ele><time>2026-04-26T08:56:39.89Z</time></trkpt><trkpt lat="42.3596733" lon="14.4074717"><ele>9.0</ele><time>2026-04-26T08:56:41.889Z</time></trkpt><trkpt lat="42.3595917" lon="14.40759"><ele>11.0</ele><time>2026-04-26T08:56:43.889Z</time></trkpt><trkpt lat="42.35952" lon="14.4077033"><ele>13.0</ele><time>2026-04-26T08:56:45.89Z</time></trkpt><trkpt lat="42.3594467" lon="14.407815"><ele>12.999999999999998</ele><time>2026-04-26T08:56:47.89Z</time></trkpt><trkpt lat="42.3593733" lon="14.40793"><ele>13.0</ele><time>2026-04-26T08:56:49.89Z</time></trkpt><trkpt lat="42.3592967" lon="14.4080267"><ele>13.0</ele><time>2026-04-26T08:56:51.89Z</time></trkpt><trkpt lat="42.3592317" lon="14.40803"><ele>13.0</ele><time>2026-04-26T08:56:53.889Z</time></trkpt><trkpt lat="42.3591667" lon="14.4080117"><ele>12.999999999999998</ele><time>2026-04-26T08:56:55.889Z</time></trkpt><trkpt lat="42.359085" lon="14.408045"><ele>13.0</ele><time>2026-04-26T08:56:58.89Z</time></trkpt><trkpt lat="42.3590383" lon="14.4081167"><ele>12.857142857142856</ele><time>2026-04-26T08:57:01.89Z</time></trkpt><trkpt lat="42.3589633" lon="14.4081433"><ele>12.714285714285715</ele><time>2026-04-26T08:57:03.89Z</time></trkpt><trkpt lat="42.3589033" lon="14.4081733"><ele>12.571428571428571</ele><time>2026-04-26T08:57:05.89Z</time></trkpt><trkpt lat="42.3588367" lon="14.4081383"><ele>12.428571428571427</ele><time>2026-04-26T08:57:08.89Z</time></trkpt><trkpt lat="42.3587783" lon="14.4080617"><ele>12.285714285714285</ele><time>2026-04-26T08:57:10.889Z</time></trkpt><trkpt lat="42.358745" lon="14.407985"><ele>12.142857142857142</ele><time>2026-04-26T08:57:12.89Z</time></trkpt><trkpt lat="42.358705" lon="14.4079167"><ele>12.0</ele><time>2026-04-26T08:57:14.89Z</time></trkpt><trkpt lat="42.3586483" lon="14.4078533"><ele>11.999999999999998</ele><time>2026-04-26T08:57:16.889Z</time></trkpt><trkpt lat="42.3585833" lon="14.407825"><ele>12.0</ele><time>2026-04-26T08:57:18.89Z</time></trkpt><trkpt lat="42.3585067" lon="14.4077783"><ele>12.0</ele><time>2026-04-26T08:57:20.889Z</time></trkpt><trkpt lat="42.3584417" lon="14.4077267"><ele>12.0</ele><time>2026-04-26T08:57:22.889Z</time></trkpt><trkpt lat="42.358365" lon="14.407695"><ele>12.0</ele><time>2026-04-26T08:57:24.89Z</time></trkpt><trkpt lat="42.3582983" lon="14.4076733"><ele>11.999999999999998</ele><time>2026-04-26T08:57:26.89Z</time></trkpt><trkpt lat="42.3582333" lon="14.4076433"><ele>12.0</ele><time>2026-04-26T08:57:28.89Z</time></trkpt><trkpt lat="42.3581433" lon="14.40761"><ele>12.0</ele><time>2026-04-26T08:57:30.89Z</time></trkpt><trkpt lat="42.358045" lon="14.407605"><ele>12.0</ele><time>2026-04-26T08:57:32.89Z</time></trkpt><trkpt lat="42.357915" lon="14.40761"><ele>12.0</ele><time>2026-04-26T08:57:34.89Z</time></trkpt><trkpt lat="42.3578517" lon="14.407615"><ele>12.0</ele><time>2026-04-26T08:57:35.889Z</time></trkpt><trkpt lat="42.3577833" lon="14.4076217"><ele>12.0</ele><time>2026-04-26T08:57:36.89Z</time></trkpt><trkpt lat="42.3577167" lon="14.4076283"><ele>12.0</ele><time>2026-04-26T08:57:37.89Z</time></trkpt><trkpt lat="42.3576467" lon="14.4076533"><ele>11.333333333333334</ele><time>2026-04-26T08:57:38.89Z</time></trkpt><trkpt lat="42.357575" lon="14.40766"><ele>10.666666666666666</ele><time>2026-04-26T08:57:39.889Z</time></trkpt><trkpt lat="42.3575067" lon="14.4076633"><ele>10.0</ele><time>2026-04-26T08:57:40.89Z</time></trkpt><trkpt lat="42.3573833" lon="14.4076717"><ele>9.333333333333332</ele><time>2026-04-26T08:57:42.89Z</time></trkpt><trkpt lat="42.35732" lon="14.4076783"><ele>8.666666666666666</ele><time>2026-04-26T08:57:43.889Z</time></trkpt><trkpt lat="42.3572533" lon="14.4076867"><ele>8.0</ele><time>2026-04-26T08:57:44.89Z</time></trkpt><trkpt lat="42.35719" lon="14.4076917"><ele>7.5</ele><time>2026-04-26T08:57:45.89Z</time></trkpt><trkpt lat="42.3570717" lon="14.407705"><ele>7.0</ele><time>2026-04-26T08:57:47.89Z</time></trkpt><trkpt lat="42.3569483" lon="14.40771"><ele>6.5</ele><time>2026-04-26T08:57:49.889Z</time></trkpt><trkpt lat="42.356835" lon="14.4077217"><ele>6.0</ele><time>2026-04-26T08:57:51.889Z</time></trkpt><trkpt lat="42.35671" lon="14.4077333"><ele>5.999999999999999</ele><time>2026-04-26T08:57:53.89Z</time></trkpt><trkpt lat="42.356645" lon="14.4077433"><ele>6.0</ele><time>2026-04-26T08:57:54.89Z</time></trkpt><trkpt lat="42.3565817" lon="14.4077567"><ele>6.0</ele><time>2026-04-26T08:57:55.89Z</time></trkpt><trkpt lat="42.3565167" lon="14.407765"><ele>6.0</ele><time>2026-04-26T08:57:56.89Z</time></trkpt><trkpt lat="42.3564483" lon="14.4077717"><ele>6.0</ele><time>2026-04-26T08:57:57.89Z</time></trkpt><trkpt lat="42.3563833" lon="14.40778"><ele>5.999999999999999</ele><time>2026-04-26T08:57:58.89Z</time></trkpt><trkpt lat="42.35632" lon="14.407785"><ele>6.0</ele><time>2026-04-26T08:57:59.89Z</time></trkpt><trkpt lat="42.356255" lon="14.4077917"><ele>5.25</ele><time>2026-04-26T08:58:00.89Z</time></trkpt><trkpt lat="42.3561317" lon="14.4078133"><ele>4.5</ele><time>2026-04-26T08:58:02.89Z</time></trkpt><trkpt lat="42.3560133" lon="14.407825"><ele>3.75</ele><time>2026-04-26T08:58:04.889Z</time></trkpt><trkpt lat="42.3558933" lon="14.4078383"><ele>3.0</ele><time>2026-04-26T08:58:06.89Z</time></trkpt><trkpt lat="42.355775" lon="14.4078467"><ele>3.0</ele><time>2026-04-26T08:58:08.889Z</time></trkpt><trkpt lat="42.355655" lon="14.4078733"><ele>3.0</ele><time>2026-04-26T08:58:10.889Z</time></trkpt><trkpt lat="42.3555917" lon="14.407885"><ele>3.0</ele><time>2026-04-26T08:58:11.89Z</time></trkpt><trkpt lat="42.355525" lon="14.40789"><ele>3.0</ele><time>2026-04-26T08:58:12.89Z</time></trkpt><trkpt lat="42.35541" lon="14.4079033"><ele>3.0</ele><time>2026-04-26T08:58:14.89Z</time></trkpt><trkpt lat="42.3552933" lon="14.4079067"><ele>2.75</ele><time>2026-04-26T08:58:16.89Z</time></trkpt><trkpt lat="42.3551833" lon="14.4079117"><ele>2.5</ele><time>2026-04-26T08:58:18.889Z</time></trkpt><trkpt lat="42.355065" lon="14.40792"><ele>2.25</ele><time>2026-04-26T08:58:20.89Z</time></trkpt><trkpt lat="42.3549517" lon="14.4079317"><ele>2.0</ele><time>2026-04-26T08:58:22.889Z</time></trkpt><trkpt lat="42.3548433" lon="14.407945"><ele>2.0</ele><time>2026-04-26T08:58:24.89Z</time></trkpt><trkpt lat="42.35474" lon="14.407955"><ele>2.0</ele><time>2026-04-26T08:58:26.889Z</time></trkpt><trkpt lat="42.3546283" lon="14.4079683"><ele>2.0</ele><time>2026-04-26T08:58:28.89Z</time></trkpt><trkpt lat="42.3545083" lon="14.4079817"><ele>2.0</ele><time>2026-04-26T08:58:30.89Z</time></trkpt><trkpt lat="42.354445" lon="14.4079883"><ele>2.0</ele><time>2026-04-26T08:58:31.889Z</time></trkpt><trkpt lat="42.354325" lon="14.40801"><ele>1.75</ele><time>2026-04-26T08:58:33.889Z</time></trkpt><trkpt lat="42.3542067" lon="14.408025"><ele>1.5</ele><time>2026-04-26T08:58:35.889Z</time></trkpt><trkpt lat="42.3540967" lon="14.4080433"><ele>1.25</ele><time>2026-04-26T08:58:37.889Z</time></trkpt><trkpt lat="42.35398" lon="14.4080533"><ele>1.0</ele><time>2026-04-26T08:58:39.89Z</time></trkpt><trkpt lat="42.35386" lon="14.4080567"><ele>1.0</ele><time>2026-04-26T08:58:41.89Z</time></trkpt><trkpt lat="42.3537383" lon="14.4080733"><ele>1.0</ele><time>2026-04-26T08:58:43.889Z</time></trkpt><trkpt lat="42.353625" lon="14.408085"><ele>1.0</ele><time>2026-04-26T08:58:45.889Z</time></trkpt><trkpt lat="42.3535067" lon="14.4081017"><ele>1.0</ele><time>2026-04-26T08:58:47.89Z</time></trkpt><trkpt lat="42.3533917" lon="14.4081133"><ele>1.0</ele><time>2026-04-26T08:58:49.89Z</time></trkpt><trkpt lat="42.35328" lon="14.4081233"><ele>1.0</ele><time>2026-04-26T08:58:51.89Z</time></trkpt><trkpt lat="42.35316" lon="14.408135"><ele>1.0</ele><time>2026-04-26T08:58:53.889Z</time></trkpt><trkpt lat="42.353045" lon="14.4081483"><ele>1.0</ele><time>2026-04-26T08:58:55.89Z</time></trkpt><trkpt lat="42.3529267" lon="14.4081567"><ele>1.2000000000000002</ele><time>2026-04-26T08:58:57.889Z</time></trkpt><trkpt lat="42.352815" lon="14.4081733"><ele>1.4000000000000001</ele><time>2026-04-26T08:58:59.89Z</time></trkpt><trkpt lat="42.3527" lon="14.4081867"><ele>1.6</ele><time>2026-04-26T08:59:01.89Z</time></trkpt><trkpt lat="42.3526367" lon="14.4081967"><ele>1.8</ele><time>2026-04-26T08:59:02.889Z</time></trkpt><trkpt lat="42.3525167" lon="14.40821"><ele>2.0</ele><time>2026-04-26T08:59:04.89Z</time></trkpt><trkpt lat="42.3524033" lon="14.4082217"><ele>2.0</ele><time>2026-04-26T08:59:06.889Z</time></trkpt><trkpt lat="42.352285" lon="14.4082317"><ele>2.0</ele><time>2026-04-26T08:59:08.89Z</time></trkpt><trkpt lat="42.35216" lon="14.4082383"><ele>2.0</ele><time>2026-04-26T08:59:10.889Z</time></trkpt><trkpt lat="42.352095" lon="14.408245"><ele>2.0</ele><time>2026-04-26T08:59:11.89Z</time></trkpt><trkpt lat="42.35198" lon="14.4082683"><ele>2.0</ele><time>2026-04-26T08:59:13.89Z</time></trkpt><trkpt lat="42.3518617" lon="14.4082833"><ele>2.25</ele><time>2026-04-26T08:59:15.889Z</time></trkpt><trkpt lat="42.3517517" lon="14.4082967"><ele>2.5</ele><time>2026-04-26T08:59:17.89Z</time></trkpt><trkpt lat="42.3516333" lon="14.4083083"><ele>2.75</ele><time>2026-04-26T08:59:19.889Z</time></trkpt><trkpt lat="42.3515067" lon="14.4083233"><ele>3.0</ele><time>2026-04-26T08:59:21.89Z</time></trkpt><trkpt lat="42.351385" lon="14.4083367"><ele>3.5</ele><time>2026-04-26T08:59:23.889Z</time></trkpt><trkpt lat="42.3512717" lon="14.4083517"><ele>4.0</ele><time>2026-04-26T08:59:25.889Z</time></trkpt><trkpt lat="42.3511533" lon="14.4083683"><ele>4.5</ele><time>2026-04-26T08:59:27.89Z</time></trkpt><trkpt lat="42.351035" lon="14.4083817"><ele>5.0</ele><time>2026-04-26T08:59:29.889Z</time></trkpt><trkpt lat="42.3509233" lon="14.4083933"><ele>5.0</ele><time>2026-04-26T08:59:31.89Z</time></trkpt><trkpt lat="42.3508067" lon="14.4084033"><ele>5.0</ele><time>2026-04-26T08:59:33.89Z</time></trkpt><trkpt lat="42.35069" lon="14.4084117"><ele>5.0</ele><time>2026-04-26T08:59:35.889Z</time></trkpt><trkpt lat="42.350575" lon="14.4084183"><ele>5.0</ele><time>2026-04-26T08:59:37.889Z</time></trkpt><trkpt lat="42.35046" lon="14.408435"><ele>5.0</ele><time>2026-04-26T08:59:39.889Z</time></trkpt><trkpt lat="42.3503417" lon="14.4084483"><ele>5.0</ele><time>2026-04-26T08:59:41.889Z</time></trkpt><trkpt lat="42.3502267" lon="14.4084567"><ele>5.0</ele><time>2026-04-26T08:59:43.889Z</time></trkpt><trkpt lat="42.3501117" lon="14.40846"><ele>5.0</ele><time>2026-04-26T08:59:45.889Z</time></trkpt><trkpt lat="42.3499983" lon="14.4084733"><ele>5.0</ele><time>2026-04-26T08:59:47.89Z</time></trkpt><trkpt lat="42.3498833" lon="14.4084933"><ele>5.0</ele><time>2026-04-26T08:59:49.89Z</time></trkpt><trkpt lat="42.3497683" lon="14.4085183"><ele>5.0</ele><time>2026-04-26T08:59:51.889Z</time></trkpt><trkpt lat="42.34966" lon="14.4085383"><ele>5.0</ele><time>2026-04-26T08:59:53.89Z</time></trkpt><trkpt lat="42.349555" lon="14.4085583"><ele>5.0</ele><time>2026-04-26T08:59:55.889Z</time></trkpt><trkpt lat="42.3494383" lon="14.4085883"><ele>6.2</ele><time>2026-04-26T08:59:57.889Z</time></trkpt><trkpt lat="42.349375" lon="14.408605"><ele>7.4</ele><time>2026-04-26T08:59:58.89Z</time></trkpt><trkpt lat="42.3492583" lon="14.4086383"><ele>8.600000000000001</ele><time>2026-04-26T09:00:00.889Z</time></trkpt><trkpt lat="42.349145" lon="14.4086767"><ele>9.8</ele><time>2026-04-26T09:00:02.89Z</time></trkpt><trkpt lat="42.3490283" lon="14.408715"><ele>11.0</ele><time>2026-04-26T09:00:04.89Z</time></trkpt><trkpt lat="42.3489133" lon="14.4087567"><ele>9.5</ele><time>2026-04-26T09:00:06.89Z</time></trkpt><trkpt lat="42.348795" lon="14.4087983"><ele>8.0</ele><time>2026-04-26T09:00:08.889Z</time></trkpt><trkpt lat="42.3486817" lon="14.4088433"><ele>6.5</ele><time>2026-04-26T09:00:10.889Z</time></trkpt><trkpt lat="42.348575" lon="14.40889"><ele>5.0</ele><time>2026-04-26T09:00:12.889Z</time></trkpt><trkpt lat="42.3484683" lon="14.4089417"><ele>5.0</ele><time>2026-04-26T09:00:14.89Z</time></trkpt><trkpt lat="42.348355" lon="14.40899"><ele>5.0</ele><time>2026-04-26T09:00:16.89Z</time></trkpt><trkpt lat="42.348245" lon="14.409045"><ele>5.0</ele><time>2026-04-26T09:00:18.889Z</time></trkpt><trkpt lat="42.3481383" lon="14.4091083"><ele>5.0</ele><time>2026-04-26T09:00:20.89Z</time></trkpt><trkpt lat="42.3480317" lon="14.4091683"><ele>5.5</ele><time>2026-04-26T09:00:22.89Z</time></trkpt><trkpt lat="42.3479283" lon="14.409235"><ele>6.0</ele><time>2026-04-26T09:00:24.89Z</time></trkpt><trkpt lat="42.3478317" lon="14.409295"><ele>6.5</ele><time>2026-04-26T09:00:26.89Z</time></trkpt><trkpt lat="42.3477317" lon="14.4093617"><ele>7.0</ele><time>2026-04-26T09:00:28.89Z</time></trkpt><trkpt lat="42.3476167" lon="14.409435"><ele>7.0</ele><time>2026-04-26T09:00:30.889Z</time></trkpt><trkpt lat="42.3475583" lon="14.4094733"><ele>6.999999999999999</ele><time>2026-04-26T09:00:31.889Z</time></trkpt><trkpt lat="42.3474483" lon="14.4095317"><ele>6.999999999999999</ele><time>2026-04-26T09:00:33.89Z</time></trkpt><trkpt lat="42.347335" lon="14.4095983"><ele>7.0</ele><time>2026-04-26T09:00:35.889Z</time></trkpt><trkpt lat="42.347225" lon="14.409665"><ele>7.0</ele><time>2026-04-26T09:00:37.889Z</time></trkpt><trkpt lat="42.34712" lon="14.4097283"><ele>6.5</ele><time>2026-04-26T09:00:39.89Z</time></trkpt><trkpt lat="42.3470167" lon="14.40979"><ele>6.0</ele><time>2026-04-26T09:00:41.89Z</time></trkpt><trkpt lat="42.3469117" lon="14.4098567"><ele>5.5</ele><time>2026-04-26T09:00:43.89Z</time></trkpt><trkpt lat="42.3468117" lon="14.4099183"><ele>5.0</ele><time>2026-04-26T09:00:45.89Z</time></trkpt><trkpt lat="42.3467083" lon="14.4099783"><ele>5.0</ele><time>2026-04-26T09:00:47.889Z</time></trkpt><trkpt lat="42.3466083" lon="14.4100383"><ele>5.0</ele><time>2026-04-26T09:00:49.889Z</time></trkpt><trkpt lat="42.3465083" lon="14.4100967"><ele>5.0</ele><time>2026-04-26T09:00:51.889Z</time></trkpt><trkpt lat="42.3464" lon="14.41016"><ele>5.0</ele><time>2026-04-26T09:00:53.89Z</time></trkpt><trkpt lat="42.3462917" lon="14.4102333"><ele>5.0</ele><time>2026-04-26T09:00:55.89Z</time></trkpt><trkpt lat="42.3461967" lon="14.4102933"><ele>5.0</ele><time>2026-04-26T09:00:57.889Z</time></trkpt><trkpt lat="42.3461017" lon="14.4103633"><ele>5.0</ele><time>2026-04-26T09:00:59.89Z</time></trkpt><trkpt lat="42.3460067" lon="14.4104417"><ele>5.0</ele><time>2026-04-26T09:01:01.89Z</time></trkpt><trkpt lat="42.3459283" lon="14.410545"><ele>5.0</ele><time>2026-04-26T09:01:03.889Z</time></trkpt><trkpt lat="42.3458767" lon="14.4106267"><ele>4.6</ele><time>2026-04-26T09:01:05.89Z</time></trkpt><trkpt lat="42.3457917" lon="14.4107067"><ele>4.2</ele><time>2026-04-26T09:01:08.89Z</time></trkpt><trkpt lat="42.3457117" lon="14.4107633"><ele>3.8</ele><time>2026-04-26T09:01:10.89Z</time></trkpt><trkpt lat="42.3456183" lon="14.4108217"><ele>3.4</ele><time>2026-04-26T09:01:12.89Z</time></trkpt><trkpt lat="42.3455233" lon="14.4108917"><ele>3.0</ele><time>2026-04-26T09:01:14.89Z</time></trkpt><trkpt lat="42.345415" lon="14.4109583"><ele>3.0</ele><time>2026-04-26T09:01:16.889Z</time></trkpt><trkpt lat="42.3453183" lon="14.41102"><ele>3.0</ele><time>2026-04-26T09:01:18.889Z</time></trkpt><trkpt lat="42.3452283" lon="14.4110917"><ele>3.0</ele><time>2026-04-26T09:01:20.889Z</time></trkpt><trkpt lat="42.3451433" lon="14.41116"><ele>3.0</ele><time>2026-04-26T09:01:22.89Z</time></trkpt><trkpt lat="42.3450567" lon="14.4112267"><ele>3.0</ele><time>2026-04-26T09:01:24.889Z</time></trkpt><trkpt lat="42.34498" lon="14.411295"><ele>2.4</ele><time>2026-04-26T09:01:26.889Z</time></trkpt><trkpt lat="42.3449133" lon="14.411355"><ele>1.7999999999999998</ele><time>2026-04-26T09:01:28.89Z</time></trkpt><trkpt lat="42.344825" lon="14.411415"><ele>1.2</ele><time>2026-04-26T09:01:30.89Z</time></trkpt><trkpt lat="42.3447217" lon="14.4114667"><ele>0.6</ele><time>2026-04-26T09:01:32.89Z</time></trkpt><trkpt lat="42.3446383" lon="14.411525"><ele>0.0</ele><time>2026-04-26T09:01:34.89Z</time></trkpt><trkpt lat="42.3445567" lon="14.4115983"><ele>1.2</ele><time>2026-04-26T09:01:36.89Z</time></trkpt><trkpt lat="42.3444767" lon="14.4116617"><ele>2.4</ele><time>2026-04-26T09:01:38.889Z</time></trkpt><trkpt lat="42.344385" lon="14.4117217"><ele>3.5999999999999996</ele><time>2026-04-26T09:01:40.89Z</time></trkpt><trkpt lat="42.344285" lon="14.4118033"><ele>4.8</ele><time>2026-04-26T09:01:42.889Z</time></trkpt><trkpt lat="42.344185" lon="14.4118917"><ele>6.0</ele><time>2026-04-26T09:01:44.89Z</time></trkpt><trkpt lat="42.3440883" lon="14.411975"><ele>6.0</ele><time>2026-04-26T09:01:46.889Z</time></trkpt><trkpt lat="42.3439933" lon="14.4120533"><ele>6.0</ele><time>2026-04-26T09:01:48.889Z</time></trkpt><trkpt lat="42.3439083" lon="14.4121367"><ele>6.0</ele><time>2026-04-26T09:01:50.89Z</time></trkpt><trkpt lat="42.3438217" lon="14.41222"><ele>6.0</ele><time>2026-04-26T09:01:52.89Z</time></trkpt><trkpt lat="42.34375" lon="14.4122517"><ele>6.0</ele><time>2026-04-26T09:01:54.889Z</time></trkpt><trkpt lat="42.34366" lon="14.412235"><ele>5.6</ele><time>2026-04-26T09:01:56.889Z</time></trkpt><trkpt lat="42.343575" lon="14.4123033"><ele>5.199999999999999</ele><time>2026-04-26T09:01:58.89Z</time></trkpt><trkpt lat="42.343485" lon="14.41238"><ele>4.800000000000001</ele><time>2026-04-26T09:02:00.889Z</time></trkpt><trkpt lat="42.3433867" lon="14.412455"><ele>4.4</ele><time>2026-04-26T09:02:02.89Z</time></trkpt><trkpt lat="42.3433" lon="14.4125167"><ele>4.0</ele><time>2026-04-26T09:02:04.889Z</time></trkpt><trkpt lat="42.3432167" lon="14.4125917"><ele>4.0</ele><time>2026-04-26T09:02:06.89Z</time></trkpt><trkpt lat="42.3431383" lon="14.4126367"><ele>4.0</ele><time>2026-04-26T09:02:08.89Z</time></trkpt><trkpt lat="42.343055" lon="14.4127033"><ele>4.0</ele><time>2026-04-26T09:02:10.89Z</time></trkpt><trkpt lat="42.3429683" lon="14.4127883"><ele>4.0</ele><time>2026-04-26T09:02:12.889Z</time></trkpt><trkpt lat="42.3428867" lon="14.4128817"><ele>4.0</ele><time>2026-04-26T09:02:14.89Z</time></trkpt><trkpt lat="42.3428" lon="14.4129867"><ele>4.0</ele><time>2026-04-26T09:02:16.889Z</time></trkpt><trkpt lat="42.3427167" lon="14.4130967"><ele>4.0</ele><time>2026-04-26T09:02:18.89Z</time></trkpt><trkpt lat="42.3426283" lon="14.4132083"><ele>4.0</ele><time>2026-04-26T09:02:20.889Z</time></trkpt><trkpt lat="42.3425417" lon="14.413315"><ele>4.0</ele><time>2026-04-26T09:02:22.889Z</time></trkpt><trkpt lat="42.3424617" lon="14.4134183"><ele>4.0</ele><time>2026-04-26T09:02:24.889Z</time></trkpt><trkpt lat="42.34238" lon="14.4135183"><ele>4.0</ele><time>2026-04-26T09:02:26.889Z</time></trkpt><trkpt lat="42.3422933" lon="14.4136217"><ele>4.0</ele><time>2026-04-26T09:02:28.889Z</time></trkpt><trkpt lat="42.3422483" lon="14.41369"><ele>4.0</ele><time>2026-04-26T09:02:29.89Z</time></trkpt><trkpt lat="42.3421683" lon="14.4138067"><ele>4.0</ele><time>2026-04-26T09:02:31.89Z</time></trkpt><trkpt lat="42.3420867" lon="14.4139167"><ele>4.333333333333333</ele><time>2026-04-26T09:02:33.89Z</time></trkpt><trkpt lat="42.3420267" lon="14.4139967"><ele>4.666666666666666</ele><time>2026-04-26T09:02:35.89Z</time></trkpt><trkpt lat="42.3419617" lon="14.414075"><ele>5.0</ele><time>2026-04-26T09:02:38.889Z</time></trkpt><trkpt lat="42.3419167" lon="14.414155"><ele>5.333333333333333</ele><time>2026-04-26T09:02:40.89Z</time></trkpt><trkpt lat="42.3418567" lon="14.4142417"><ele>5.666666666666667</ele><time>2026-04-26T09:02:42.889Z</time></trkpt><trkpt lat="42.3417817" lon="14.41432"><ele>6.0</ele><time>2026-04-26T09:02:44.89Z</time></trkpt><trkpt lat="42.3417083" lon="14.41442"><ele>6.0</ele><time>2026-04-26T09:02:46.889Z</time></trkpt><trkpt lat="42.341625" lon="14.4145317"><ele>6.0</ele><time>2026-04-26T09:02:48.89Z</time></trkpt><trkpt lat="42.3415367" lon="14.4146317"><ele>6.0</ele><time>2026-04-26T09:02:50.889Z</time></trkpt><trkpt lat="42.3414567" lon="14.4147383"><ele>6.0</ele><time>2026-04-26T09:02:52.89Z</time></trkpt><trkpt lat="42.3413733" lon="14.4148417"><ele>8.2</ele><time>2026-04-26T09:02:54.89Z</time></trkpt><trkpt lat="42.3412867" lon="14.414945"><ele>10.399999999999999</ele><time>2026-04-26T09:02:56.889Z</time></trkpt><trkpt lat="42.3411983" lon="14.41505"><ele>12.6</ele><time>2026-04-26T09:02:58.89Z</time></trkpt><trkpt lat="42.34112" lon="14.4151567"><ele>14.799999999999999</ele><time>2026-04-26T09:03:00.889Z</time></trkpt><trkpt lat="42.3410417" lon="14.4152517"><ele>17.0</ele><time>2026-04-26T09:03:02.889Z</time></trkpt><trkpt lat="42.3409533" lon="14.41535"><ele>17.0</ele><time>2026-04-26T09:03:04.889Z</time></trkpt><trkpt lat="42.340865" lon="14.4154483"><ele>17.0</ele><time>2026-04-26T09:03:06.89Z</time></trkpt><trkpt lat="42.3407617" lon="14.4155467"><ele>17.0</ele><time>2026-04-26T09:03:08.89Z</time></trkpt><trkpt lat="42.340705" lon="14.4155917"><ele>17.0</ele><time>2026-04-26T09:03:09.89Z</time></trkpt><trkpt lat="42.34063" lon="14.4156917"><ele>17.0</ele><time>2026-04-26T09:03:11.89Z</time></trkpt><trkpt lat="42.3405433" lon="14.415795"><ele>18.0</ele><time>2026-04-26T09:03:13.89Z</time></trkpt><trkpt lat="42.340455" lon="14.415895"><ele>19.0</ele><time>2026-04-26T09:03:15.89Z</time></trkpt><trkpt lat="42.3403717" lon="14.4159817"><ele>20.0</ele><time>2026-04-26T09:03:17.89Z</time></trkpt><trkpt lat="42.3402983" lon="14.4160633"><ele>21.0</ele><time>2026-04-26T09:03:19.89Z</time></trkpt><trkpt lat="42.3402267" lon="14.4161733"><ele>22.0</ele><time>2026-04-26T09:03:21.889Z</time></trkpt><trkpt lat="42.3401667" lon="14.4162733"><ele>22.0</ele><time>2026-04-26T09:03:23.89Z</time></trkpt><trkpt lat="42.3401017" lon="14.4163183"><ele>22.0</ele><time>2026-04-26T09:03:24.89Z</time></trkpt><trkpt lat="42.3400233" lon="14.4164117"><ele>22.0</ele><time>2026-04-26T09:03:26.89Z</time></trkpt><trkpt lat="42.33993" lon="14.416505"><ele>22.0</ele><time>2026-04-26T09:03:28.889Z</time></trkpt><trkpt lat="42.3398833" lon="14.4165633"><ele>22.0</ele><time>2026-04-26T09:03:29.89Z</time></trkpt><trkpt lat="42.3397883" lon="14.416615"><ele>22.0</ele><time>2026-04-26T09:03:30.889Z</time></trkpt><trkpt lat="42.33966" lon="14.4166717"><ele>22.0</ele><time>2026-04-26T09:03:32.89Z</time></trkpt><trkpt lat="42.339585" lon="14.4167"><ele>22.0</ele><time>2026-04-26T09:03:33.89Z</time></trkpt><trkpt lat="42.3394917" lon="14.4167283"><ele>22.0</ele><time>2026-04-26T09:03:35.89Z</time></trkpt><trkpt lat="42.33945" lon="14.416805"><ele>22.0</ele><time>2026-04-26T09:03:36.89Z</time></trkpt><trkpt lat="42.3394217" lon="14.4168867"><ele>22.0</ele><time>2026-04-26T09:03:37.889Z</time></trkpt><trkpt lat="42.33938" lon="14.4169617"><ele>22.0</ele><time>2026-04-26T09:03:38.89Z</time></trkpt><trkpt lat="42.33933" lon="14.4170233"><ele>22.0</ele><time>2026-04-26T09:03:39.89Z</time></trkpt><trkpt lat="42.33929" lon="14.41709"><ele>22.0</ele><time>2026-04-26T09:03:40.89Z</time></trkpt><trkpt lat="42.3392167" lon="14.4172183"><ele>22.0</ele><time>2026-04-26T09:03:42.89Z</time></trkpt><trkpt lat="42.3391333" lon="14.4173283"><ele>22.0</ele><time>2026-04-26T09:03:44.89Z</time></trkpt><trkpt lat="42.3390567" lon="14.417435"><ele>23.5</ele><time>2026-04-26T09:03:46.889Z</time></trkpt><trkpt lat="42.33898" lon="14.4175483"><ele>25.0</ele><time>2026-04-26T09:03:48.89Z</time></trkpt><trkpt lat="42.3388967" lon="14.417665"><ele>26.5</ele><time>2026-04-26T09:03:50.889Z</time></trkpt><trkpt lat="42.33883" lon="14.417785"><ele>28.0</ele><time>2026-04-26T09:03:52.89Z</time></trkpt><trkpt lat="42.3387567" lon="14.4179"><ele>25.0</ele><time>2026-04-26T09:03:54.889Z</time></trkpt><trkpt lat="42.3386983" lon="14.4180117"><ele>21.999999999999996</ele><time>2026-04-26T09:03:56.89Z</time></trkpt><trkpt lat="42.3386133" lon="14.4181"><ele>19.0</ele><time>2026-04-26T09:03:58.889Z</time></trkpt><trkpt lat="42.33855" lon="14.4182217"><ele>16.0</ele><time>2026-04-26T09:04:00.889Z</time></trkpt><trkpt lat="42.3384767" lon="14.4183583"><ele>13.0</ele><time>2026-04-26T09:04:02.889Z</time></trkpt><trkpt lat="42.3384117" lon="14.41848"><ele>13.0</ele><time>2026-04-26T09:04:04.89Z</time></trkpt><trkpt lat="42.338325" lon="14.4185833"><ele>13.0</ele><time>2026-04-26T09:04:06.89Z</time></trkpt><trkpt lat="42.3382817" lon="14.4186483"><ele>13.0</ele><time>2026-04-26T09:04:07.89Z</time></trkpt><trkpt lat="42.338225" lon="14.4187633"><ele>13.0</ele><time>2026-04-26T09:04:09.89Z</time></trkpt><trkpt lat="42.3381583" lon="14.4188783"><ele>13.0</ele><time>2026-04-26T09:04:11.889Z</time></trkpt><trkpt lat="42.3380917" lon="14.418955"><ele>15.0</ele><time>2026-04-26T09:04:13.89Z</time></trkpt><trkpt lat="42.3379817" lon="14.41907"><ele>17.0</ele><time>2026-04-26T09:04:14.889Z</time></trkpt><trkpt lat="42.3378867" lon="14.4191167"><ele>19.0</ele><time>2026-04-26T09:04:15.89Z</time></trkpt><trkpt lat="42.3378" lon="14.4192383"><ele>21.0</ele><time>2026-04-26T09:04:17.89Z</time></trkpt><trkpt lat="42.337735" lon="14.4193617"><ele>21.0</ele><time>2026-04-26T09:04:19.889Z</time></trkpt><trkpt lat="42.3376617" lon="14.41948"><ele>21.0</ele><time>2026-04-26T09:04:21.89Z</time></trkpt><trkpt lat="42.3375867" lon="14.4195917"><ele>21.0</ele><time>2026-04-26T09:04:23.889Z</time></trkpt><trkpt lat="42.3375133" lon="14.41971"><ele>21.0</ele><time>2026-04-26T09:04:25.89Z</time></trkpt><trkpt lat="42.3374383" lon="14.4198217"><ele>22.25</ele><time>2026-04-26T09:04:27.89Z</time></trkpt><trkpt lat="42.3373667" lon="14.41994"><ele>23.5</ele><time>2026-04-26T09:04:29.889Z</time></trkpt><trkpt lat="42.3372833" lon="14.420055"><ele>24.75</ele><time>2026-04-26T09:04:31.89Z</time></trkpt><trkpt lat="42.3371967" lon="14.42016"><ele>26.0</ele><time>2026-04-26T09:04:33.89Z</time></trkpt><trkpt lat="42.3371183" lon="14.42028"><ele>26.0</ele><time>2026-04-26T09:04:35.889Z</time></trkpt><trkpt lat="42.3370417" lon="14.4204"><ele>26.0</ele><time>2026-04-26T09:04:37.889Z</time></trkpt><trkpt lat="42.3369633" lon="14.42051"><ele>26.0</ele><time>2026-04-26T09:04:39.889Z</time></trkpt><trkpt lat="42.336885" lon="14.4206233"><ele>26.0</ele><time>2026-04-26T09:04:41.89Z</time></trkpt><trkpt lat="42.3368067" lon="14.4207317"><ele>21.75</ele><time>2026-04-26T09:04:43.89Z</time></trkpt><trkpt lat="42.3367233" lon="14.4208517"><ele>17.5</ele><time>2026-04-26T09:04:45.89Z</time></trkpt><trkpt lat="42.3366433" lon="14.4209683"><ele>13.25</ele><time>2026-04-26T09:04:47.889Z</time></trkpt><trkpt lat="42.33656" lon="14.4210833"><ele>9.0</ele><time>2026-04-26T09:04:49.889Z</time></trkpt><trkpt lat="42.33648" lon="14.421195"><ele>9.0</ele><time>2026-04-26T09:04:51.889Z</time></trkpt><trkpt lat="42.3363967" lon="14.421305"><ele>9.0</ele><time>2026-04-26T09:04:53.889Z</time></trkpt><trkpt lat="42.3363133" lon="14.42142"><ele>9.0</ele><time>2026-04-26T09:04:55.889Z</time></trkpt><trkpt lat="42.3362283" lon="14.421525"><ele>9.0</ele><time>2026-04-26T09:04:57.89Z</time></trkpt><trkpt lat="42.3361467" lon="14.4216367"><ele>10.2</ele><time>2026-04-26T09:04:59.89Z</time></trkpt><trkpt lat="42.336075" lon="14.421745"><ele>11.4</ele><time>2026-04-26T09:05:01.89Z</time></trkpt><trkpt lat="42.33601" lon="14.42185"><ele>12.6</ele><time>2026-04-26T09:05:03.889Z</time></trkpt><trkpt lat="42.33594" lon="14.42195"><ele>13.8</ele><time>2026-04-26T09:05:05.889Z</time></trkpt><trkpt lat="42.3358633" lon="14.4220567"><ele>15.0</ele><time>2026-04-26T09:05:07.89Z</time></trkpt><trkpt lat="42.3357917" lon="14.422145"><ele>14.0</ele><time>2026-04-26T09:05:09.89Z</time></trkpt><trkpt lat="42.3357233" lon="14.4222183"><ele>13.0</ele><time>2026-04-26T09:05:11.889Z</time></trkpt><trkpt lat="42.335645" lon="14.4222767"><ele>12.0</ele><time>2026-04-26T09:05:13.89Z</time></trkpt><trkpt lat="42.335575" lon="14.4223317"><ele>11.0</ele><time>2026-04-26T09:05:15.89Z</time></trkpt><trkpt lat="42.3314933" lon="14.4239"><ele>11.0</ele><time>2026-04-26T09:06:32.886Z</time></trkpt><trkpt lat="42.3314017" lon="14.4239533"><ele>11.0</ele><time>2026-04-26T09:06:33.887Z</time></trkpt><trkpt lat="42.331315" lon="14.4240133"><ele>11.0</ele><time>2026-04-26T09:06:34.887Z</time></trkpt><trkpt lat="42.3312517" lon="14.4240433"><ele>11.0</ele><time>2026-04-26T09:06:35.887Z</time></trkpt><trkpt lat="42.3311383" lon="14.4240717"><ele>11.0</ele><time>2026-04-26T09:06:37.887Z</time></trkpt><trkpt lat="42.331025" lon="14.424095"><ele>9.600000000000001</ele><time>2026-04-26T09:06:39.887Z</time></trkpt><trkpt lat="42.33092" lon="14.42411"><ele>8.200000000000001</ele><time>2026-04-26T09:06:41.887Z</time></trkpt><trkpt lat="42.33082" lon="14.424125"><ele>6.800000000000001</ele><time>2026-04-26T09:06:43.887Z</time></trkpt><trkpt lat="42.330715" lon="14.42415"><ele>5.4</ele><time>2026-04-26T09:06:45.887Z</time></trkpt><trkpt lat="42.3306017" lon="14.4241867"><ele>4.0</ele><time>2026-04-26T09:06:47.887Z</time></trkpt><trkpt lat="42.33048" lon="14.4242117"><ele>3.5</ele><time>2026-04-26T09:06:49.886Z</time></trkpt><trkpt lat="42.3303617" lon="14.424235"><ele>3.0</ele><time>2026-04-26T09:06:51.887Z</time></trkpt><trkpt lat="42.3302483" lon="14.42425"><ele>2.5</ele><time>2026-04-26T09:06:53.886Z</time></trkpt><trkpt lat="42.3301267" lon="14.4242717"><ele>2.0</ele><time>2026-04-26T09:06:55.887Z</time></trkpt><trkpt lat="42.33001" lon="14.4242917"><ele>2.0</ele><time>2026-04-26T09:06:57.886Z</time></trkpt><trkpt lat="42.329885" lon="14.4243183"><ele>2.0</ele><time>2026-04-26T09:06:59.887Z</time></trkpt><trkpt lat="42.32977" lon="14.4243467"><ele>2.0</ele><time>2026-04-26T09:07:01.886Z</time></trkpt><trkpt lat="42.3296583" lon="14.4243717"><ele>2.0</ele><time>2026-04-26T09:07:03.887Z</time></trkpt><trkpt lat="42.3295517" lon="14.4243933"><ele>2.2</ele><time>2026-04-26T09:07:05.887Z</time></trkpt><trkpt lat="42.3294417" lon="14.4244133"><ele>2.4000000000000004</ele><time>2026-04-26T09:07:07.887Z</time></trkpt><trkpt lat="42.3293317" lon="14.4244417"><ele>2.5999999999999996</ele><time>2026-04-26T09:07:09.886Z</time></trkpt><trkpt lat="42.32923" lon="14.42447"><ele>2.8</ele><time>2026-04-26T09:07:11.886Z</time></trkpt><trkpt lat="42.329135" lon="14.4244817"><ele>3.0</ele><time>2026-04-26T09:07:13.887Z</time></trkpt><trkpt lat="42.3290217" lon="14.4245033"><ele>3.0</ele><time>2026-04-26T09:07:15.886Z</time></trkpt><trkpt lat="42.3289117" lon="14.4245183"><ele>3.0</ele><time>2026-04-26T09:07:17.887Z</time></trkpt><trkpt lat="42.3287967" lon="14.4245517"><ele>3.0</ele><time>2026-04-26T09:07:19.887Z</time></trkpt><trkpt lat="42.3286867" lon="14.4245733"><ele>3.0</ele><time>2026-04-26T09:07:21.886Z</time></trkpt><trkpt lat="42.3285767" lon="14.4245967"><ele>3.0</ele><time>2026-04-26T09:07:23.887Z</time></trkpt><trkpt lat="42.3284583" lon="14.424625"><ele>3.0</ele><time>2026-04-26T09:07:25.886Z</time></trkpt><trkpt lat="42.3283417" lon="14.424645"><ele>3.0</ele><time>2026-04-26T09:07:27.886Z</time></trkpt><trkpt lat="42.3282267" lon="14.4246533"><ele>3.0</ele><time>2026-04-26T09:07:29.887Z</time></trkpt><trkpt lat="42.3281183" lon="14.4246667"><ele>2.5</ele><time>2026-04-26T09:07:31.886Z</time></trkpt><trkpt lat="42.328005" lon="14.4246967"><ele>2.0</ele><time>2026-04-26T09:07:33.887Z</time></trkpt><trkpt lat="42.327885" lon="14.4247217"><ele>1.5</ele><time>2026-04-26T09:07:35.886Z</time></trkpt><trkpt lat="42.3277683" lon="14.42474"><ele>1.0</ele><time>2026-04-26T09:07:37.887Z</time></trkpt><trkpt lat="42.3276517" lon="14.4247567"><ele>1.0</ele><time>2026-04-26T09:07:39.887Z</time></trkpt><trkpt lat="42.327535" lon="14.4247767"><ele>1.0</ele><time>2026-04-26T09:07:41.887Z</time></trkpt><trkpt lat="42.3274183" lon="14.4248033"><ele>1.0</ele><time>2026-04-26T09:07:43.887Z</time></trkpt><trkpt lat="42.3273" lon="14.4248433"><ele>1.0</ele><time>2026-04-26T09:07:45.886Z</time></trkpt><trkpt lat="42.3271867" lon="14.4248783"><ele>1.5</ele><time>2026-04-26T09:07:47.887Z</time></trkpt><trkpt lat="42.327075" lon="14.4249133"><ele>2.0</ele><time>2026-04-26T09:07:49.887Z</time></trkpt><trkpt lat="42.32696" lon="14.424955"><ele>2.5</ele><time>2026-04-26T09:07:51.887Z</time></trkpt><trkpt lat="42.326845" lon="14.425"><ele>3.0</ele><time>2026-04-26T09:07:53.887Z</time></trkpt><trkpt lat="42.3267333" lon="14.4250483"><ele>3.0</ele><time>2026-04-26T09:07:55.887Z</time></trkpt><trkpt lat="42.3266217" lon="14.4251033"><ele>3.0</ele><time>2026-04-26T09:07:57.887Z</time></trkpt><trkpt lat="42.3265133" lon="14.425165"><ele>3.0</ele><time>2026-04-26T09:07:59.887Z</time></trkpt><trkpt lat="42.32641" lon="14.42523"><ele>3.0</ele><time>2026-04-26T09:08:01.887Z</time></trkpt><trkpt lat="42.3263033" lon="14.4253017"><ele>3.25</ele><time>2026-04-26T09:08:03.886Z</time></trkpt><trkpt lat="42.326195" lon="14.425375"><ele>3.5</ele><time>2026-04-26T09:08:05.886Z</time></trkpt><trkpt lat="42.32609" lon="14.425455"><ele>3.75</ele><time>2026-04-26T09:08:07.886Z</time></trkpt><trkpt lat="42.32598" lon="14.425535"><ele>4.0</ele><time>2026-04-26T09:08:09.887Z</time></trkpt><trkpt lat="42.32588" lon="14.4256217"><ele>4.0</ele><time>2026-04-26T09:08:11.887Z</time></trkpt><trkpt lat="42.3257783" lon="14.425715"><ele>4.0</ele><time>2026-04-26T09:08:13.887Z</time></trkpt><trkpt lat="42.3256833" lon="14.425805"><ele>4.0</ele><time>2026-04-26T09:08:15.887Z</time></trkpt><trkpt lat="42.32559" lon="14.4258983"><ele>4.0</ele><time>2026-04-26T09:08:17.887Z</time></trkpt><trkpt lat="42.3254967" lon="14.4259967"><ele>4.0</ele><time>2026-04-26T09:08:19.887Z</time></trkpt><trkpt lat="42.325405" lon="14.42609"><ele>4.0</ele><time>2026-04-26T09:08:21.887Z</time></trkpt><trkpt lat="42.3253117" lon="14.426185"><ele>4.0</ele><time>2026-04-26T09:08:23.887Z</time></trkpt><trkpt lat="42.3252183" lon="14.4262767"><ele>4.0</ele><time>2026-04-26T09:08:25.887Z</time></trkpt><trkpt lat="42.32512" lon="14.4263683"><ele>4.0</ele><time>2026-04-26T09:08:27.887Z</time></trkpt><trkpt lat="42.3250233" lon="14.4264683"><ele>4.0</ele><time>2026-04-26T09:08:29.887Z</time></trkpt><trkpt lat="42.3249283" lon="14.426565"><ele>4.0</ele><time>2026-04-26T09:08:31.887Z</time></trkpt><trkpt lat="42.3248383" lon="14.42666"><ele>4.0</ele><time>2026-04-26T09:08:33.887Z</time></trkpt><trkpt lat="42.3247417" lon="14.4267483"><ele>4.25</ele><time>2026-04-26T09:08:35.887Z</time></trkpt><trkpt lat="42.3246517" lon="14.4268517"><ele>4.5</ele><time>2026-04-26T09:08:37.887Z</time></trkpt><trkpt lat="42.3245633" lon="14.4269483"><ele>4.75</ele><time>2026-04-26T09:08:39.887Z</time></trkpt><trkpt lat="42.3244733" lon="14.4270483"><ele>5.0</ele><time>2026-04-26T09:08:41.887Z</time></trkpt><trkpt lat="42.324385" lon="14.42715"><ele>5.0</ele><time>2026-04-26T09:08:43.887Z</time></trkpt><trkpt lat="42.3242917" lon="14.4272517"><ele>5.0</ele><time>2026-04-26T09:08:45.887Z</time></trkpt><trkpt lat="42.3242017" lon="14.427355"><ele>5.0</ele><time>2026-04-26T09:08:47.887Z</time></trkpt><trkpt lat="42.3241183" lon="14.4274583"><ele>5.0</ele><time>2026-04-26T09:08:49.887Z</time></trkpt><trkpt lat="42.3240283" lon="14.4275717"><ele>5.0</ele><time>2026-04-26T09:08:51.887Z</time></trkpt><trkpt lat="42.3239383" lon="14.42769"><ele>5.0</ele><time>2026-04-26T09:08:53.886Z</time></trkpt><trkpt lat="42.3238917" lon="14.4277483"><ele>5.0</ele><time>2026-04-26T09:08:54.886Z</time></trkpt><trkpt lat="42.3238383" lon="14.4278083"><ele>5.0</ele><time>2026-04-26T09:08:55.887Z</time></trkpt><trkpt lat="42.323785" lon="14.4278633"><ele>5.0</ele><time>2026-04-26T09:08:56.887Z</time></trkpt><trkpt lat="42.32369" lon="14.4279717"><ele>5.6</ele><time>2026-04-26T09:08:58.886Z</time></trkpt><trkpt lat="42.3236417" lon="14.4280267"><ele>6.2</ele><time>2026-04-26T09:08:59.887Z</time></trkpt><trkpt lat="42.32355" lon="14.4281367"><ele>6.800000000000001</ele><time>2026-04-26T09:09:01.887Z</time></trkpt><trkpt lat="42.323465" lon="14.428245"><ele>7.4</ele><time>2026-04-26T09:09:03.886Z</time></trkpt><trkpt lat="42.3233883" lon="14.428355"><ele>8.0</ele><time>2026-04-26T09:09:05.886Z</time></trkpt><trkpt lat="42.3233133" lon="14.4284583"><ele>8.0</ele><time>2026-04-26T09:09:07.886Z</time></trkpt><trkpt lat="42.32324" lon="14.428555"><ele>8.0</ele><time>2026-04-26T09:09:09.887Z</time></trkpt><trkpt lat="42.3231683" lon="14.4286483"><ele>8.0</ele><time>2026-04-26T09:09:11.887Z</time></trkpt><trkpt lat="42.3230883" lon="14.4287517"><ele>8.0</ele><time>2026-04-26T09:09:13.886Z</time></trkpt><trkpt lat="42.323015" lon="14.428865"><ele>8.0</ele><time>2026-04-26T09:09:15.887Z</time></trkpt><trkpt lat="42.3229333" lon="14.4289717"><ele>7.75</ele><time>2026-04-26T09:09:17.886Z</time></trkpt><trkpt lat="42.3228533" lon="14.42907"><ele>7.5</ele><time>2026-04-26T09:09:19.886Z</time></trkpt><trkpt lat="42.3227633" lon="14.429175"><ele>7.25</ele><time>2026-04-26T09:09:21.887Z</time></trkpt><trkpt lat="42.32268" lon="14.429285"><ele>7.0</ele><time>2026-04-26T09:09:23.887Z</time></trkpt><trkpt lat="42.32259" lon="14.4293983"><ele>7.0</ele><time>2026-04-26T09:09:25.886Z</time></trkpt><trkpt lat="42.3225067" lon="14.429505"><ele>7.0</ele><time>2026-04-26T09:09:27.886Z</time></trkpt><trkpt lat="42.3224267" lon="14.42961"><ele>7.0</ele><time>2026-04-26T09:09:29.886Z</time></trkpt><trkpt lat="42.3223417" lon="14.4297183"><ele>7.0</ele><time>2026-04-26T09:09:31.887Z</time></trkpt><trkpt lat="42.3222617" lon="14.429815"><ele>8.25</ele><time>2026-04-26T09:09:33.887Z</time></trkpt><trkpt lat="42.3221717" lon="14.4299133"><ele>9.5</ele><time>2026-04-26T09:09:35.887Z</time></trkpt><trkpt lat="42.322085" lon="14.4300117"><ele>10.75</ele><time>2026-04-26T09:09:37.887Z</time></trkpt><trkpt lat="42.3220067" lon="14.430125"><ele>12.0</ele><time>2026-04-26T09:09:39.886Z</time></trkpt><trkpt lat="42.321915" lon="14.4302433"><ele>12.0</ele><time>2026-04-26T09:09:41.887Z</time></trkpt><trkpt lat="42.3218683" lon="14.4303083"><ele>12.0</ele><time>2026-04-26T09:09:42.886Z</time></trkpt><trkpt lat="42.321785" lon="14.4304333"><ele>12.0</ele><time>2026-04-26T09:09:44.887Z</time></trkpt><trkpt lat="42.3216967" lon="14.4305467"><ele>12.0</ele><time>2026-04-26T09:09:46.887Z</time></trkpt><trkpt lat="42.3216083" lon="14.430655"><ele>12.0</ele><time>2026-04-26T09:09:48.887Z</time></trkpt><trkpt lat="42.3215583" lon="14.430715"><ele>12.0</ele><time>2026-04-26T09:09:49.887Z</time></trkpt><trkpt lat="42.32151" lon="14.4307717"><ele>12.0</ele><time>2026-04-26T09:09:50.887Z</time></trkpt><trkpt lat="42.3214117" lon="14.4308667"><ele>12.0</ele><time>2026-04-26T09:09:52.887Z</time></trkpt><trkpt lat="42.3213183" lon="14.4309767"><ele>12.0</ele><time>2026-04-26T09:09:54.886Z</time></trkpt><trkpt lat="42.3212333" lon="14.4310917"><ele>12.0</ele><time>2026-04-26T09:09:56.886Z</time></trkpt><trkpt lat="42.3211533" lon="14.4312017"><ele>10.4</ele><time>2026-04-26T09:09:58.887Z</time></trkpt><trkpt lat="42.321075" lon="14.4313183"><ele>8.799999999999999</ele><time>2026-04-26T09:10:00.887Z</time></trkpt><trkpt lat="42.3209933" lon="14.4314233"><ele>7.2</ele><time>2026-04-26T09:10:02.887Z</time></trkpt><trkpt lat="42.3209133" lon="14.43152"><ele>5.6</ele><time>2026-04-26T09:10:04.886Z</time></trkpt><trkpt lat="42.3208267" lon="14.4316183"><ele>4.0</ele><time>2026-04-26T09:10:06.886Z</time></trkpt><trkpt lat="42.3207433" lon="14.43171"><ele>4.0</ele><time>2026-04-26T09:10:08.887Z</time></trkpt><trkpt lat="42.3206567" lon="14.4318117"><ele>4.0</ele><time>2026-04-26T09:10:10.887Z</time></trkpt><trkpt lat="42.3205683" lon="14.4319167"><ele>4.0</ele><time>2026-04-26T09:10:12.887Z</time></trkpt><trkpt lat="42.32048" lon="14.43202"><ele>4.0</ele><time>2026-04-26T09:10:14.887Z</time></trkpt><trkpt lat="42.3203917" lon="14.4321283"><ele>5.5</ele><time>2026-04-26T09:10:16.886Z</time></trkpt><trkpt lat="42.320305" lon="14.4322433"><ele>7.0</ele><time>2026-04-26T09:10:18.886Z</time></trkpt><trkpt lat="42.320225" lon="14.4323483"><ele>8.5</ele><time>2026-04-26T09:10:20.887Z</time></trkpt><trkpt lat="42.3201383" lon="14.43245"><ele>10.0</ele><time>2026-04-26T09:10:22.886Z</time></trkpt><trkpt lat="42.3200533" lon="14.4325533"><ele>10.0</ele><time>2026-04-26T09:10:24.887Z</time></trkpt><trkpt lat="42.31997" lon="14.4326617"><ele>10.0</ele><time>2026-04-26T09:10:26.886Z</time></trkpt><trkpt lat="42.3198867" lon="14.4327633"><ele>10.0</ele><time>2026-04-26T09:10:28.887Z</time></trkpt><trkpt lat="42.319795" lon="14.432865"><ele>10.0</ele><time>2026-04-26T09:10:30.886Z</time></trkpt><trkpt lat="42.319705" lon="14.4329683"><ele>10.8</ele><time>2026-04-26T09:10:32.887Z</time></trkpt><trkpt lat="42.319615" lon="14.4330667"><ele>11.6</ele><time>2026-04-26T09:10:34.887Z</time></trkpt><trkpt lat="42.3195233" lon="14.4331783"><ele>12.399999999999999</ele><time>2026-04-26T09:10:36.887Z</time></trkpt><trkpt lat="42.3194433" lon="14.4332983"><ele>13.2</ele><time>2026-04-26T09:10:38.887Z</time></trkpt><trkpt lat="42.3193983" lon="14.4333583"><ele>14.0</ele><time>2026-04-26T09:10:39.887Z</time></trkpt><trkpt lat="42.31931" lon="14.4334733"><ele>14.0</ele><time>2026-04-26T09:10:41.887Z</time></trkpt><trkpt lat="42.3192283" lon="14.4335817"><ele>14.0</ele><time>2026-04-26T09:10:43.887Z</time></trkpt><trkpt lat="42.3191517" lon="14.4336917"><ele>14.0</ele><time>2026-04-26T09:10:45.887Z</time></trkpt><trkpt lat="42.3190617" lon="14.4337933"><ele>14.0</ele><time>2026-04-26T09:10:47.887Z</time></trkpt><trkpt lat="42.318975" lon="14.4338983"><ele>14.5</ele><time>2026-04-26T09:10:49.887Z</time></trkpt><trkpt lat="42.3188867" lon="14.434005"><ele>15.0</ele><time>2026-04-26T09:10:51.886Z</time></trkpt><trkpt lat="42.3188017" lon="14.4341117"><ele>15.5</ele><time>2026-04-26T09:10:53.887Z</time></trkpt><trkpt lat="42.3187183" lon="14.4342233"><ele>16.0</ele><time>2026-04-26T09:10:55.886Z</time></trkpt><trkpt lat="42.3186317" lon="14.4343317"><ele>16.0</ele><time>2026-04-26T09:10:57.887Z</time></trkpt><trkpt lat="42.318545" lon="14.4344317"><ele>16.0</ele><time>2026-04-26T09:10:59.887Z</time></trkpt><trkpt lat="42.3184583" lon="14.4345367"><ele>16.0</ele><time>2026-04-26T09:11:01.886Z</time></trkpt><trkpt lat="42.3183717" lon="14.4346483"><ele>16.0</ele><time>2026-04-26T09:11:03.886Z</time></trkpt><trkpt lat="42.31828" lon="14.4347517"><ele>16.25</ele><time>2026-04-26T09:11:05.887Z</time></trkpt><trkpt lat="42.31819" lon="14.4348633"><ele>16.5</ele><time>2026-04-26T09:11:07.887Z</time></trkpt><trkpt lat="42.3181083" lon="14.43497"><ele>16.75</ele><time>2026-04-26T09:11:09.887Z</time></trkpt><trkpt lat="42.3180217" lon="14.4350783"><ele>17.0</ele><time>2026-04-26T09:11:11.886Z</time></trkpt><trkpt lat="42.31794" lon="14.4351933"><ele>17.0</ele><time>2026-04-26T09:11:13.887Z</time></trkpt><trkpt lat="42.3178533" lon="14.4353117"><ele>17.0</ele><time>2026-04-26T09:11:15.886Z</time></trkpt><trkpt lat="42.3177667" lon="14.435425"><ele>17.0</ele><time>2026-04-26T09:11:17.887Z</time></trkpt><trkpt lat="42.3176833" lon="14.4355383"><ele>17.0</ele><time>2026-04-26T09:11:19.887Z</time></trkpt><trkpt lat="42.3175983" lon="14.4356467"><ele>14.0</ele><time>2026-04-26T09:11:21.886Z</time></trkpt><trkpt lat="42.31751" lon="14.4357567"><ele>11.0</ele><time>2026-04-26T09:11:23.887Z</time></trkpt><trkpt lat="42.317425" lon="14.43586"><ele>8.0</ele><time>2026-04-26T09:11:25.886Z</time></trkpt><trkpt lat="42.317335" lon="14.4359583"><ele>5.0</ele><time>2026-04-26T09:11:27.887Z</time></trkpt><trkpt lat="42.31724" lon="14.4360617"><ele>5.75</ele><time>2026-04-26T09:11:29.887Z</time></trkpt><trkpt lat="42.3171517" lon="14.4361617"><ele>6.5</ele><time>2026-04-26T09:11:31.886Z</time></trkpt><trkpt lat="42.31706" lon="14.4362533"><ele>7.25</ele><time>2026-04-26T09:11:33.887Z</time></trkpt><trkpt lat="42.31696" lon="14.43634"><ele>8.0</ele><time>2026-04-26T09:11:35.886Z</time></trkpt><trkpt lat="42.3168617" lon="14.4364267"><ele>8.0</ele><time>2026-04-26T09:11:37.887Z</time></trkpt><trkpt lat="42.3167617" lon="14.43651"><ele>8.0</ele><time>2026-04-26T09:11:39.886Z</time></trkpt><trkpt lat="42.3166667" lon="14.43659"><ele>8.0</ele><time>2026-04-26T09:11:41.887Z</time></trkpt><trkpt lat="42.3165783" lon="14.4366633"><ele>8.0</ele><time>2026-04-26T09:11:43.887Z</time></trkpt><trkpt lat="42.31648" lon="14.436735"><ele>8.0</ele><time>2026-04-26T09:11:45.887Z</time></trkpt><trkpt lat="42.316375" lon="14.436805"><ele>9.25</ele><time>2026-04-26T09:11:47.887Z</time></trkpt><trkpt lat="42.3162717" lon="14.4368783"><ele>10.5</ele><time>2026-04-26T09:11:49.887Z</time></trkpt><trkpt lat="42.3161667" lon="14.4369417"><ele>11.75</ele><time>2026-04-26T09:11:51.887Z</time></trkpt><trkpt lat="42.3160567" lon="14.4370067"><ele>13.0</ele><time>2026-04-26T09:11:53.886Z</time></trkpt><trkpt lat="42.3159517" lon="14.437065"><ele>13.0</ele><time>2026-04-26T09:11:55.886Z</time></trkpt><trkpt lat="42.3158467" lon="14.4371317"><ele>13.0</ele><time>2026-04-26T09:11:57.887Z</time></trkpt><trkpt lat="42.31574" lon="14.4371967"><ele>13.0</ele><time>2026-04-26T09:11:59.886Z</time></trkpt><trkpt lat="42.3156267" lon="14.43725"><ele>13.0</ele><time>2026-04-26T09:12:01.887Z</time></trkpt><trkpt lat="42.3155667" lon="14.43728"><ele>13.0</ele><time>2026-04-26T09:12:02.886Z</time></trkpt><trkpt lat="42.3154567" lon="14.4373267"><ele>12.5</ele><time>2026-04-26T09:12:04.886Z</time></trkpt><trkpt lat="42.3153483" lon="14.4373783"><ele>12.0</ele><time>2026-04-26T09:12:06.887Z</time></trkpt><trkpt lat="42.3152433" lon="14.4374317"><ele>11.5</ele><time>2026-04-26T09:12:08.887Z</time></trkpt><trkpt lat="42.3151417" lon="14.4375"><ele>11.0</ele><time>2026-04-26T09:12:10.887Z</time></trkpt><trkpt lat="42.315035" lon="14.4375667"><ele>11.0</ele><time>2026-04-26T09:12:12.887Z</time></trkpt><trkpt lat="42.3149383" lon="14.4376333"><ele>11.0</ele><time>2026-04-26T09:12:14.886Z</time></trkpt><trkpt lat="42.3148383" lon="14.4377117"><ele>11.0</ele><time>2026-04-26T09:12:16.887Z</time></trkpt><trkpt lat="42.3147367" lon="14.4377967"><ele>11.0</ele><time>2026-04-26T09:12:18.887Z</time></trkpt><trkpt lat="42.3146367" lon="14.4378833"><ele>10.0</ele><time>2026-04-26T09:12:20.887Z</time></trkpt><trkpt lat="42.3145433" lon="14.4379767"><ele>9.0</ele><time>2026-04-26T09:12:22.886Z</time></trkpt><trkpt lat="42.3144483" lon="14.4380733"><ele>8.0</ele><time>2026-04-26T09:12:24.887Z</time></trkpt><trkpt lat="42.3143517" lon="14.4381683"><ele>7.0</ele><time>2026-04-26T09:12:26.887Z</time></trkpt><trkpt lat="42.314255" lon="14.4382633"><ele>7.0</ele><time>2026-04-26T09:12:28.886Z</time></trkpt><trkpt lat="42.3141583" lon="14.4383633"><ele>6.999999999999999</ele><time>2026-04-26T09:12:30.887Z</time></trkpt><trkpt lat="42.3141067" lon="14.438415"><ele>6.999999999999999</ele><time>2026-04-26T09:12:31.887Z</time></trkpt><trkpt lat="42.314055" lon="14.4384683"><ele>7.0</ele><time>2026-04-26T09:12:32.887Z</time></trkpt><trkpt lat="42.313955" lon="14.4385683"><ele>7.0</ele><time>2026-04-26T09:12:34.886Z</time></trkpt><trkpt lat="42.3138767" lon="14.4386767"><ele>6.75</ele><time>2026-04-26T09:12:36.886Z</time></trkpt><trkpt lat="42.3137883" lon="14.438785"><ele>6.5</ele><time>2026-04-26T09:12:38.887Z</time></trkpt><trkpt lat="42.3136983" lon="14.4388783"><ele>6.25</ele><time>2026-04-26T09:12:40.887Z</time></trkpt><trkpt lat="42.313605" lon="14.4389883"><ele>6.0</ele><time>2026-04-26T09:12:42.886Z</time></trkpt><trkpt lat="42.313515" lon="14.4391067"><ele>6.0</ele><time>2026-04-26T09:12:44.886Z</time></trkpt><trkpt lat="42.313435" lon="14.43922"><ele>6.0</ele><time>2026-04-26T09:12:46.886Z</time></trkpt><trkpt lat="42.3133483" lon="14.4393333"><ele>6.0</ele><time>2026-04-26T09:12:48.887Z</time></trkpt><trkpt lat="42.3132667" lon="14.4394483"><ele>6.0</ele><time>2026-04-26T09:12:50.887Z</time></trkpt><trkpt lat="42.3131833" lon="14.4395467"><ele>6.5</ele><time>2026-04-26T09:12:52.886Z</time></trkpt><trkpt lat="42.3131" lon="14.439655"><ele>7.0</ele><time>2026-04-26T09:12:54.886Z</time></trkpt><trkpt lat="42.3130117" lon="14.439765"><ele>7.5</ele><time>2026-04-26T09:12:56.887Z</time></trkpt><trkpt lat="42.3129267" lon="14.4398767"><ele>8.0</ele><time>2026-04-26T09:12:58.887Z</time></trkpt><trkpt lat="42.3128367" lon="14.4399883"><ele>8.0</ele><time>2026-04-26T09:13:00.886Z</time></trkpt><trkpt lat="42.312745" lon="14.4401067"><ele>8.0</ele><time>2026-04-26T09:13:02.887Z</time></trkpt><trkpt lat="42.312655" lon="14.4402133"><ele>8.0</ele><time>2026-04-26T09:13:04.887Z</time></trkpt><trkpt lat="42.3125717" lon="14.4403233"><ele>8.0</ele><time>2026-04-26T09:13:06.887Z</time></trkpt><trkpt lat="42.3124833" lon="14.440435"><ele>8.600000000000001</ele><time>2026-04-26T09:13:08.887Z</time></trkpt><trkpt lat="42.3124033" lon="14.44055"><ele>9.200000000000001</ele><time>2026-04-26T09:13:10.886Z</time></trkpt><trkpt lat="42.312325" lon="14.440655"><ele>9.8</ele><time>2026-04-26T09:13:12.886Z</time></trkpt><trkpt lat="42.312245" lon="14.4407517"><ele>10.4</ele><time>2026-04-26T09:13:14.886Z</time></trkpt><trkpt lat="42.3121617" lon="14.4408483"><ele>11.0</ele><time>2026-04-26T09:13:16.886Z</time></trkpt><trkpt lat="42.3120767" lon="14.4409383"><ele>11.0</ele><time>2026-04-26T09:13:18.887Z</time></trkpt><trkpt lat="42.3120033" lon="14.441045"><ele>11.0</ele><time>2026-04-26T09:13:20.887Z</time></trkpt><trkpt lat="42.3119117" lon="14.4411583"><ele>11.0</ele><time>2026-04-26T09:13:22.887Z</time></trkpt><trkpt lat="42.311825" lon="14.4412767"><ele>11.0</ele><time>2026-04-26T09:13:24.886Z</time></trkpt><trkpt lat="42.31173" lon="14.4413833"><ele>10.0</ele><time>2026-04-26T09:13:26.886Z</time></trkpt><trkpt lat="42.3116433" lon="14.4414967"><ele>9.0</ele><time>2026-04-26T09:13:28.887Z</time></trkpt><trkpt lat="42.31156" lon="14.4416083"><ele>8.0</ele><time>2026-04-26T09:13:30.887Z</time></trkpt><trkpt lat="42.3114817" lon="14.4417217"><ele>7.0</ele><time>2026-04-26T09:13:32.886Z</time></trkpt><trkpt lat="42.3114017" lon="14.4418233"><ele>7.0</ele><time>2026-04-26T09:13:34.887Z</time></trkpt><trkpt lat="42.3113117" lon="14.4419133"><ele>6.999999999999999</ele><time>2026-04-26T09:13:36.887Z</time></trkpt><trkpt lat="42.3112233" lon="14.4420183"><ele>6.999999999999999</ele><time>2026-04-26T09:13:38.886Z</time></trkpt><trkpt lat="42.3111767" lon="14.44208"><ele>7.0</ele><time>2026-04-26T09:13:39.887Z</time></trkpt><trkpt lat="42.3111283" lon="14.442145"><ele>7.0</ele><time>2026-04-26T09:13:40.887Z</time></trkpt><trkpt lat="42.31104" lon="14.442265"><ele>7.0</ele><time>2026-04-26T09:13:42.887Z</time></trkpt><trkpt lat="42.310955" lon="14.4423767"><ele>7.0</ele><time>2026-04-26T09:13:44.887Z</time></trkpt><trkpt lat="42.31087" lon="14.44249"><ele>7.0</ele><time>2026-04-26T09:13:46.887Z</time></trkpt><trkpt lat="42.3107767" lon="14.442595"><ele>7.0</ele><time>2026-04-26T09:13:48.887Z</time></trkpt><trkpt lat="42.3106767" lon="14.442695"><ele>7.0</ele><time>2026-04-26T09:13:50.887Z</time></trkpt><trkpt lat="42.310575" lon="14.442785"><ele>7.0</ele><time>2026-04-26T09:13:52.887Z</time></trkpt><trkpt lat="42.3104833" lon="14.442875"><ele>7.0</ele><time>2026-04-26T09:13:54.886Z</time></trkpt><trkpt lat="42.31039" lon="14.442965"><ele>7.0</ele><time>2026-04-26T09:13:56.886Z</time></trkpt><trkpt lat="42.3103067" lon="14.44307"><ele>6.5</ele><time>2026-04-26T09:13:58.887Z</time></trkpt><trkpt lat="42.31021" lon="14.4431683"><ele>6.0</ele><time>2026-04-26T09:14:00.887Z</time></trkpt><trkpt lat="42.310115" lon="14.4432717"><ele>5.5</ele><time>2026-04-26T09:14:02.886Z</time></trkpt><trkpt lat="42.3100183" lon="14.4433717"><ele>5.0</ele><time>2026-04-26T09:14:04.887Z</time></trkpt><trkpt lat="42.3099267" lon="14.443475"><ele>5.0</ele><time>2026-04-26T09:14:06.887Z</time></trkpt><trkpt lat="42.30984" lon="14.44359"><ele>5.0</ele><time>2026-04-26T09:14:08.886Z</time></trkpt><trkpt lat="42.30976" lon="14.44371"><ele>5.0</ele><time>2026-04-26T09:14:10.887Z</time></trkpt><trkpt lat="42.30967" lon="14.44382"><ele>5.0</ele><time>2026-04-26T09:14:12.887Z</time></trkpt><trkpt lat="42.3095917" lon="14.4439317"><ele>5.0</ele><time>2026-04-26T09:14:14.887Z</time></trkpt><trkpt lat="42.3095117" lon="14.444045"><ele>5.0</ele><time>2026-04-26T09:14:16.886Z</time></trkpt><trkpt lat="42.3094317" lon="14.44416"><ele>5.0</ele><time>2026-04-26T09:14:18.887Z</time></trkpt><trkpt lat="42.3093483" lon="14.4442733"><ele>5.0</ele><time>2026-04-26T09:14:20.887Z</time></trkpt><trkpt lat="42.3092667" lon="14.4443867"><ele>5.0</ele><time>2026-04-26T09:14:22.887Z</time></trkpt><trkpt lat="42.30919" lon="14.4444967"><ele>5.0</ele><time>2026-04-26T09:14:24.887Z</time></trkpt><trkpt lat="42.309115" lon="14.4446217"><ele>5.0</ele><time>2026-04-26T09:14:26.887Z</time></trkpt><trkpt lat="42.30904" lon="14.4447567"><ele>5.0</ele><time>2026-04-26T09:14:28.886Z</time></trkpt><trkpt lat="42.3089633" lon="14.444885"><ele>5.8</ele><time>2026-04-26T09:14:30.887Z</time></trkpt><trkpt lat="42.3089017" lon="14.4450133"><ele>6.6</ele><time>2026-04-26T09:14:32.887Z</time></trkpt><trkpt lat="42.3088433" lon="14.4451417"><ele>7.4</ele><time>2026-04-26T09:14:34.887Z</time></trkpt><trkpt lat="42.3087833" lon="14.4452633"><ele>8.2</ele><time>2026-04-26T09:14:36.886Z</time></trkpt><trkpt lat="42.3087183" lon="14.4453883"><ele>9.0</ele><time>2026-04-26T09:14:38.886Z</time></trkpt><trkpt lat="42.30866" lon="14.4455083"><ele>9.2</ele><time>2026-04-26T09:14:40.887Z</time></trkpt><trkpt lat="42.30861" lon="14.445635"><ele>9.4</ele><time>2026-04-26T09:14:42.887Z</time></trkpt><trkpt lat="42.3085533" lon="14.4457517"><ele>9.6</ele><time>2026-04-26T09:14:44.886Z</time></trkpt><trkpt lat="42.3085017" lon="14.44586"><ele>9.8</ele><time>2026-04-26T09:14:46.887Z</time></trkpt><trkpt lat="42.3084583" lon="14.4459633"><ele>10.0</ele><time>2026-04-26T09:14:48.887Z</time></trkpt><trkpt lat="42.3084233" lon="14.4460583"><ele>10.0</ele><time>2026-04-26T09:14:50.886Z</time></trkpt><trkpt lat="42.30838" lon="14.4461283"><ele>10.0</ele><time>2026-04-26T09:14:52.887Z</time></trkpt><trkpt lat="42.308335" lon="14.4462083"><ele>10.0</ele><time>2026-04-26T09:14:54.887Z</time></trkpt><trkpt lat="42.3082917" lon="14.4463083"><ele>10.0</ele><time>2026-04-26T09:14:56.886Z</time></trkpt><trkpt lat="42.3082417" lon="14.4463967"><ele>10.0</ele><time>2026-04-26T09:14:58.886Z</time></trkpt><trkpt lat="42.30819" lon="14.4465017"><ele>10.0</ele><time>2026-04-26T09:15:00.886Z</time></trkpt><trkpt lat="42.30815" lon="14.4466083"><ele>10.0</ele><time>2026-04-26T09:15:02.886Z</time></trkpt><trkpt lat="42.3081017" lon="14.4467167"><ele>10.0</ele><time>2026-04-26T09:15:04.887Z</time></trkpt><trkpt lat="42.308055" lon="14.4468283"><ele>10.0</ele><time>2026-04-26T09:15:06.886Z</time></trkpt><trkpt lat="42.308005" lon="14.4469433"><ele>10.0</ele><time>2026-04-26T09:15:08.887Z</time></trkpt><trkpt lat="42.307955" lon="14.4470483"><ele>10.0</ele><time>2026-04-26T09:15:10.887Z</time></trkpt><trkpt lat="42.3079017" lon="14.44716"><ele>10.4</ele><time>2026-04-26T09:15:12.886Z</time></trkpt><trkpt lat="42.307855" lon="14.4472567"><ele>10.8</ele><time>2026-04-26T09:15:14.887Z</time></trkpt><trkpt lat="42.3078033" lon="14.447375"><ele>11.2</ele><time>2026-04-26T09:15:16.887Z</time></trkpt><trkpt lat="42.307745" lon="14.4474983"><ele>11.6</ele><time>2026-04-26T09:15:18.887Z</time></trkpt><trkpt lat="42.3076833" lon="14.4476233"><ele>12.0</ele><time>2026-04-26T09:15:20.887Z</time></trkpt><trkpt lat="42.3076183" lon="14.44774"><ele>12.0</ele><time>2026-04-26T09:15:22.886Z</time></trkpt><trkpt lat="42.3075583" lon="14.447845"><ele>12.0</ele><time>2026-04-26T09:15:24.887Z</time></trkpt><trkpt lat="42.307505" lon="14.4479367"><ele>12.0</ele><time>2026-04-26T09:15:26.887Z</time></trkpt><trkpt lat="42.3074533" lon="14.4480117"><ele>12.0</ele><time>2026-04-26T09:15:28.887Z</time></trkpt><trkpt lat="42.3074117" lon="14.4480767"><ele>12.0</ele><time>2026-04-26T09:15:30.886Z</time></trkpt><trkpt lat="42.3073533" lon="14.4481533"><ele>12.0</ele><time>2026-04-26T09:15:33.887Z</time></trkpt><trkpt lat="42.307305" lon="14.44823"><ele>12.666666666666666</ele><time>2026-04-26T09:15:35.887Z</time></trkpt><trkpt lat="42.307245" lon="14.4483217"><ele>13.333333333333332</ele><time>2026-04-26T09:15:37.886Z</time></trkpt><trkpt lat="42.307185" lon="14.4483983"><ele>14.0</ele><time>2026-04-26T09:15:39.887Z</time></trkpt><trkpt lat="42.307135" lon="14.4484717"><ele>14.666666666666666</ele><time>2026-04-26T09:15:42.887Z</time></trkpt><trkpt lat="42.3070667" lon="14.448555"><ele>15.333333333333332</ele><time>2026-04-26T09:15:45.887Z</time></trkpt><trkpt lat="42.307" lon="14.4486283"><ele>16.0</ele><time>2026-04-26T09:15:47.887Z</time></trkpt><trkpt lat="42.3069283" lon="14.4487267"><ele>14.166666666666666</ele><time>2026-04-26T09:15:49.887Z</time></trkpt><trkpt lat="42.3068533" lon="14.4488317"><ele>12.333333333333332</ele><time>2026-04-26T09:15:51.887Z</time></trkpt><trkpt lat="42.3067883" lon="14.4489217"><ele>10.5</ele><time>2026-04-26T09:15:53.887Z</time></trkpt><trkpt lat="42.3067233" lon="14.4489967"><ele>8.666666666666666</ele><time>2026-04-26T09:15:55.887Z</time></trkpt><trkpt lat="42.306665" lon="14.4490733"><ele>6.833333333333334</ele><time>2026-04-26T09:15:57.887Z</time></trkpt><trkpt lat="42.3066083" lon="14.4491517"><ele>5.0</ele><time>2026-04-26T09:15:59.886Z</time></trkpt><trkpt lat="42.3065617" lon="14.4492133"><ele>5.0</ele><time>2026-04-26T09:16:01.887Z</time></trkpt><trkpt lat="42.3065167" lon="14.4492767"><ele>5.0</ele><time>2026-04-26T09:16:03.886Z</time></trkpt><trkpt lat="42.30647" lon="14.4493433"><ele>5.0</ele><time>2026-04-26T09:16:05.886Z</time></trkpt><trkpt lat="42.3064217" lon="14.449425"><ele>5.0</ele><time>2026-04-26T09:16:07.887Z</time></trkpt><trkpt lat="42.30637" lon="14.4495033"><ele>5.0</ele><time>2026-04-26T09:16:09.887Z</time></trkpt><trkpt lat="42.3063233" lon="14.4495767"><ele>5.0</ele><time>2026-04-26T09:16:11.887Z</time></trkpt><trkpt lat="42.3062783" lon="14.4496433"><ele>5.0</ele><time>2026-04-26T09:16:13.886Z</time></trkpt><trkpt lat="42.306215" lon="14.4497367"><ele>5.166666666666667</ele><time>2026-04-26T09:16:16.887Z</time></trkpt><trkpt lat="42.3061483" lon="14.449815"><ele>5.333333333333334</ele><time>2026-04-26T09:16:19.887Z</time></trkpt><trkpt lat="42.3060833" lon="14.44988"><ele>5.5</ele><time>2026-04-26T09:16:22.887Z</time></trkpt><trkpt lat="42.3060217" lon="14.4499533"><ele>5.666666666666667</ele><time>2026-04-26T09:16:25.886Z</time></trkpt><trkpt lat="42.3059633" lon="14.4500283"><ele>5.833333333333333</ele><time>2026-04-26T09:16:28.886Z</time></trkpt><trkpt lat="42.3059117" lon="14.4501"><ele>6.0</ele><time>2026-04-26T09:16:30.886Z</time></trkpt><trkpt lat="42.30586" lon="14.4501833"><ele>5.999999999999999</ele><time>2026-04-26T09:16:32.886Z</time></trkpt><trkpt lat="42.3058017" lon="14.4502717"><ele>6.0</ele><time>2026-04-26T09:16:34.886Z</time></trkpt><trkpt lat="42.3057517" lon="14.4503367"><ele>6.0</ele><time>2026-04-26T09:16:36.887Z</time></trkpt><trkpt lat="42.3057083" lon="14.4504033"><ele>6.0</ele><time>2026-04-26T09:16:38.887Z</time></trkpt><trkpt lat="42.30566" lon="14.4504717"><ele>6.0</ele><time>2026-04-26T09:16:40.887Z</time></trkpt><trkpt lat="42.3056017" lon="14.4505483"><ele>5.999999999999999</ele><time>2026-04-26T09:16:43.886Z</time></trkpt><trkpt lat="42.3055467" lon="14.4506183"><ele>6.0</ele><time>2026-04-26T09:16:45.886Z</time></trkpt><trkpt lat="42.3054883" lon="14.450695"><ele>6.8</ele><time>2026-04-26T09:16:47.887Z</time></trkpt><trkpt lat="42.3054283" lon="14.4507733"><ele>7.6</ele><time>2026-04-26T09:16:49.886Z</time></trkpt><trkpt lat="42.3053583" lon="14.45086"><ele>8.4</ele><time>2026-04-26T09:16:51.887Z</time></trkpt><trkpt lat="42.3052867" lon="14.4509583"><ele>9.2</ele><time>2026-04-26T09:16:53.887Z</time></trkpt><trkpt lat="42.3052083" lon="14.45108"><ele>10.0</ele><time>2026-04-26T09:16:55.887Z</time></trkpt><trkpt lat="42.3051667" lon="14.4511483"><ele>10.0</ele><time>2026-04-26T09:16:56.886Z</time></trkpt><trkpt lat="42.3051183" lon="14.4512083"><ele>10.0</ele><time>2026-04-26T09:16:57.887Z</time></trkpt><trkpt lat="42.3050667" lon="14.4512683"><ele>10.0</ele><time>2026-04-26T09:16:58.886Z</time></trkpt><trkpt lat="42.3049817" lon="14.4513667"><ele>10.0</ele><time>2026-04-26T09:17:00.887Z</time></trkpt><trkpt lat="42.3048983" lon="14.4514767"><ele>10.0</ele><time>2026-04-26T09:17:02.886Z</time></trkpt><trkpt lat="42.3048083" lon="14.451575"><ele>10.8</ele><time>2026-04-26T09:17:04.886Z</time></trkpt><trkpt lat="42.3047217" lon="14.45168"><ele>11.6</ele><time>2026-04-26T09:17:06.886Z</time></trkpt><trkpt lat="42.3046467" lon="14.4517883"><ele>12.399999999999999</ele><time>2026-04-26T09:17:08.887Z</time></trkpt><trkpt lat="42.3045817" lon="14.4518967"><ele>13.2</ele><time>2026-04-26T09:17:10.887Z</time></trkpt><trkpt lat="42.3045167" lon="14.451995"><ele>14.0</ele><time>2026-04-26T09:17:12.887Z</time></trkpt><trkpt lat="42.3044383" lon="14.4521083"><ele>12.25</ele><time>2026-04-26T09:17:14.886Z</time></trkpt><trkpt lat="42.3043567" lon="14.4522167"><ele>10.5</ele><time>2026-04-26T09:17:16.886Z</time></trkpt><trkpt lat="42.3042683" lon="14.4523183"><ele>8.75</ele><time>2026-04-26T09:17:18.887Z</time></trkpt><trkpt lat="42.3041817" lon="14.452425"><ele>7.0</ele><time>2026-04-26T09:17:20.886Z</time></trkpt><trkpt lat="42.3041067" lon="14.452525"><ele>7.0</ele><time>2026-04-26T09:17:22.886Z</time></trkpt><trkpt lat="42.3040283" lon="14.4526317"><ele>7.0</ele><time>2026-04-26T09:17:24.887Z</time></trkpt><trkpt lat="42.30395" lon="14.452745"><ele>7.0</ele><time>2026-04-26T09:17:26.887Z</time></trkpt><trkpt lat="42.303875" lon="14.4528633"><ele>7.0</ele><time>2026-04-26T09:17:28.887Z</time></trkpt><trkpt lat="42.303805" lon="14.45299"><ele>8.8</ele><time>2026-04-26T09:17:30.886Z</time></trkpt><trkpt lat="42.30374" lon="14.4530967"><ele>10.6</ele><time>2026-04-26T09:17:32.887Z</time></trkpt><trkpt lat="42.3036733" lon="14.4532033"><ele>12.400000000000002</ele><time>2026-04-26T09:17:34.887Z</time></trkpt><trkpt lat="42.3036083" lon="14.4533233"><ele>14.200000000000001</ele><time>2026-04-26T09:17:36.886Z</time></trkpt><trkpt lat="42.3035383" lon="14.45345"><ele>16.0</ele><time>2026-04-26T09:17:38.887Z</time></trkpt><trkpt lat="42.3034767" lon="14.4535583"><ele>16.0</ele><time>2026-04-26T09:17:40.886Z</time></trkpt><trkpt lat="42.3034217" lon="14.4536433"><ele>16.0</ele><time>2026-04-26T09:17:42.886Z</time></trkpt><trkpt lat="42.30337" lon="14.4537333"><ele>16.0</ele><time>2026-04-26T09:17:44.887Z</time></trkpt><trkpt lat="42.3033117" lon="14.45385"><ele>16.0</ele><time>2026-04-26T09:17:46.886Z</time></trkpt><trkpt lat="42.3032333" lon="14.453965"><ele>16.0</ele><time>2026-04-26T09:17:48.886Z</time></trkpt><trkpt lat="42.303155" lon="14.454085"><ele>18.25</ele><time>2026-04-26T09:17:50.887Z</time></trkpt><trkpt lat="42.30308" lon="14.4542083"><ele>20.5</ele><time>2026-04-26T09:17:52.887Z</time></trkpt><trkpt lat="42.3030083" lon="14.4543333"><ele>22.75</ele><time>2026-04-26T09:17:54.887Z</time></trkpt><trkpt lat="42.3029417" lon="14.454455"><ele>25.0</ele><time>2026-04-26T09:17:56.887Z</time></trkpt><trkpt lat="42.30287" lon="14.4545867"><ele>22.0</ele><time>2026-04-26T09:17:58.887Z</time></trkpt><trkpt lat="42.3028" lon="14.4547217"><ele>19.0</ele><time>2026-04-26T09:18:00.887Z</time></trkpt><trkpt lat="42.302725" lon="14.4548467"><ele>16.0</ele><time>2026-04-26T09:18:02.887Z</time></trkpt><trkpt lat="42.302655" lon="14.4549733"><ele>13.0</ele><time>2026-04-26T09:18:04.887Z</time></trkpt><trkpt lat="42.3025733" lon="14.4550967"><ele>13.0</ele><time>2026-04-26T09:18:06.886Z</time></trkpt><trkpt lat="42.302505" lon="14.4552233"><ele>13.0</ele><time>2026-04-26T09:18:08.887Z</time></trkpt><trkpt lat="42.3024283" lon="14.4553333"><ele>13.0</ele><time>2026-04-26T09:18:10.887Z</time></trkpt><trkpt lat="42.3023533" lon="14.4554417"><ele>13.0</ele><time>2026-04-26T09:18:12.886Z</time></trkpt><trkpt lat="42.3022767" lon="14.455565"><ele>15.5</ele><time>2026-04-26T09:18:14.887Z</time></trkpt><trkpt lat="42.3022067" lon="14.45569"><ele>18.0</ele><time>2026-04-26T09:18:16.887Z</time></trkpt><trkpt lat="42.3021417" lon="14.4558217"><ele>20.5</ele><time>2026-04-26T09:18:18.886Z</time></trkpt><trkpt lat="42.30207" lon="14.4559483"><ele>23.0</ele><time>2026-04-26T09:18:20.886Z</time></trkpt><trkpt lat="42.3019867" lon="14.45607"><ele>23.0</ele><time>2026-04-26T09:18:22.887Z</time></trkpt><trkpt lat="42.3019117" lon="14.4562033"><ele>23.0</ele><time>2026-04-26T09:18:24.887Z</time></trkpt><trkpt lat="42.30184" lon="14.4563183"><ele>23.0</ele><time>2026-04-26T09:18:26.886Z</time></trkpt><trkpt lat="42.3017733" lon="14.4564317"><ele>23.0</ele><time>2026-04-26T09:18:28.887Z</time></trkpt><trkpt lat="42.3016983" lon="14.4565517"><ele>20.0</ele><time>2026-04-26T09:18:30.887Z</time></trkpt><trkpt lat="42.3016233" lon="14.4566783"><ele>17.0</ele><time>2026-04-26T09:18:32.887Z</time></trkpt><trkpt lat="42.3015617" lon="14.4568017"><ele>14.0</ele><time>2026-04-26T09:18:34.887Z</time></trkpt><trkpt lat="42.3014967" lon="14.4569233"><ele>11.0</ele><time>2026-04-26T09:18:36.887Z</time></trkpt><trkpt lat="42.3014233" lon="14.4570417"><ele>12.0</ele><time>2026-04-26T09:18:38.887Z</time></trkpt><trkpt lat="42.3013467" lon="14.4571617"><ele>13.0</ele><time>2026-04-26T09:18:40.887Z</time></trkpt><trkpt lat="42.3012767" lon="14.45728"><ele>14.0</ele><time>2026-04-26T09:18:42.887Z</time></trkpt><trkpt lat="42.3011983" lon="14.4573967"><ele>15.0</ele><time>2026-04-26T09:18:44.887Z</time></trkpt><trkpt lat="42.3011217" lon="14.4575083"><ele>15.0</ele><time>2026-04-26T09:18:46.887Z</time></trkpt><trkpt lat="42.30105" lon="14.4576333"><ele>15.0</ele><time>2026-04-26T09:18:48.887Z</time></trkpt><trkpt lat="42.3009767" lon="14.457755"><ele>15.0</ele><time>2026-04-26T09:18:50.887Z</time></trkpt><trkpt lat="42.3009067" lon="14.457865"><ele>15.0</ele><time>2026-04-26T09:18:52.887Z</time></trkpt><trkpt lat="42.300835" lon="14.4579833"><ele>17.5</ele><time>2026-04-26T09:18:54.887Z</time></trkpt><trkpt lat="42.3007667" lon="14.4581"><ele>20.0</ele><time>2026-04-26T09:18:56.886Z</time></trkpt><trkpt lat="42.3006917" lon="14.4582333"><ele>22.5</ele><time>2026-04-26T09:18:58.887Z</time></trkpt><trkpt lat="42.3006167" lon="14.4583583"><ele>25.0</ele><time>2026-04-26T09:19:00.887Z</time></trkpt><trkpt lat="42.3005317" lon="14.458475"><ele>25.0</ele><time>2026-04-26T09:19:02.886Z</time></trkpt><trkpt lat="42.3004667" lon="14.4585883"><ele>25.0</ele><time>2026-04-26T09:19:04.887Z</time></trkpt><trkpt lat="42.3004033" lon="14.4586983"><ele>25.0</ele><time>2026-04-26T09:19:06.887Z</time></trkpt><trkpt lat="42.3003433" lon="14.4588083"><ele>25.0</ele><time>2026-04-26T09:19:08.887Z</time></trkpt><trkpt lat="42.3002917" lon="14.4589117"><ele>25.0</ele><time>2026-04-26T09:19:10.886Z</time></trkpt><trkpt lat="42.30024" lon="14.4590217"><ele>22.6</ele><time>2026-04-26T09:19:12.887Z</time></trkpt><trkpt lat="42.3001617" lon="14.45913"><ele>20.2</ele><time>2026-04-26T09:19:14.886Z</time></trkpt><trkpt lat="42.3000967" lon="14.4592483"><ele>17.8</ele><time>2026-04-26T09:19:16.887Z</time></trkpt><trkpt lat="42.3000333" lon="14.45936"><ele>15.4</ele><time>2026-04-26T09:19:18.887Z</time></trkpt><trkpt lat="42.2999767" lon="14.459455"><ele>13.0</ele><time>2026-04-26T09:19:20.887Z</time></trkpt><trkpt lat="42.2999217" lon="14.4595133"><ele>13.0</ele><time>2026-04-26T09:19:22.887Z</time></trkpt><trkpt lat="42.2998517" lon="14.4595933"><ele>13.0</ele><time>2026-04-26T09:19:25.887Z</time></trkpt><trkpt lat="42.2997983" lon="14.4596783"><ele>13.0</ele><time>2026-04-26T09:19:27.887Z</time></trkpt><trkpt lat="42.3001711" lon="14.4592087"><ele>22.0</ele><time>2026-04-26T09:19:39.955Z</time></trkpt><trkpt lat="42.2985833" lon="14.4618517"><ele>22.0</ele><time>2026-04-26T09:20:14.892Z</time></trkpt><trkpt lat="42.2984817" lon="14.4619317"><ele>22.0</ele><time>2026-04-26T09:20:16.891Z</time></trkpt><trkpt lat="42.2984233" lon="14.4620367"><ele>22.0</ele><time>2026-04-26T09:20:18.892Z</time></trkpt><trkpt lat="42.29835" lon="14.4621567"><ele>22.0</ele><time>2026-04-26T09:20:20.892Z</time></trkpt><trkpt lat="42.2982917" lon="14.4622867"><ele>22.0</ele><time>2026-04-26T09:20:22.891Z</time></trkpt><trkpt lat="42.2982317" lon="14.4624117"><ele>23.5</ele><time>2026-04-26T09:20:24.891Z</time></trkpt><trkpt lat="42.2981717" lon="14.4625333"><ele>25.0</ele><time>2026-04-26T09:20:26.892Z</time></trkpt><trkpt lat="42.2981" lon="14.46266"><ele>26.5</ele><time>2026-04-26T09:20:28.892Z</time></trkpt><trkpt lat="42.2980183" lon="14.4627783"><ele>28.0</ele><time>2026-04-26T09:20:30.892Z</time></trkpt><trkpt lat="42.2979417" lon="14.4628883"><ele>25.2</ele><time>2026-04-26T09:20:32.891Z</time></trkpt><trkpt lat="42.297865" lon="14.4630083"><ele>22.4</ele><time>2026-04-26T09:20:34.892Z</time></trkpt><trkpt lat="42.2977967" lon="14.4631333"><ele>19.599999999999998</ele><time>2026-04-26T09:20:36.891Z</time></trkpt><trkpt lat="42.29773" lon="14.4632483"><ele>16.799999999999997</ele><time>2026-04-26T09:20:38.892Z</time></trkpt><trkpt lat="42.2976683" lon="14.4633483"><ele>14.0</ele><time>2026-04-26T09:20:40.891Z</time></trkpt><trkpt lat="42.2976067" lon="14.46345"><ele>14.000000000000002</ele><time>2026-04-26T09:20:42.892Z</time></trkpt><trkpt lat="42.297545" lon="14.4635483"><ele>14.0</ele><time>2026-04-26T09:20:44.892Z</time></trkpt><trkpt lat="42.2974817" lon="14.46365"><ele>14.0</ele><time>2026-04-26T09:20:46.892Z</time></trkpt><trkpt lat="42.2974367" lon="14.463735"><ele>14.0</ele><time>2026-04-26T09:20:48.892Z</time></trkpt><trkpt lat="42.2973867" lon="14.46381"><ele>14.000000000000002</ele><time>2026-04-26T09:20:50.892Z</time></trkpt><trkpt lat="42.2973367" lon="14.4639067"><ele>14.0</ele><time>2026-04-26T09:20:52.892Z</time></trkpt><trkpt lat="42.2972767" lon="14.4640133"><ele>15.399999999999999</ele><time>2026-04-26T09:20:54.892Z</time></trkpt><trkpt lat="42.2971983" lon="14.4641117"><ele>16.799999999999997</ele><time>2026-04-26T09:20:56.892Z</time></trkpt><trkpt lat="42.2971167" lon="14.4642167"><ele>18.200000000000003</ele><time>2026-04-26T09:20:58.892Z</time></trkpt><trkpt lat="42.297035" lon="14.4643217"><ele>19.6</ele><time>2026-04-26T09:21:00.892Z</time></trkpt><trkpt lat="42.2969617" lon="14.4644367"><ele>21.0</ele><time>2026-04-26T09:21:02.891Z</time></trkpt><trkpt lat="42.2968917" lon="14.464545"><ele>19.6</ele><time>2026-04-26T09:21:04.891Z</time></trkpt><trkpt lat="42.2968167" lon="14.4646583"><ele>18.200000000000003</ele><time>2026-04-26T09:21:06.891Z</time></trkpt><trkpt lat="42.2967567" lon="14.4647767"><ele>16.799999999999997</ele><time>2026-04-26T09:21:08.891Z</time></trkpt><trkpt lat="42.2967167" lon="14.4648833"><ele>15.399999999999999</ele><time>2026-04-26T09:21:10.891Z</time></trkpt><trkpt lat="42.2966633" lon="14.46496"><ele>14.0</ele><time>2026-04-26T09:21:12.892Z</time></trkpt><trkpt lat="42.2966" lon="14.46503"><ele>14.0</ele><time>2026-04-26T09:21:14.892Z</time></trkpt><trkpt lat="42.296535" lon="14.4650983"><ele>14.0</ele><time>2026-04-26T09:21:16.891Z</time></trkpt><trkpt lat="42.2955383" lon="14.466815"><ele>14.6</ele><time>2026-04-26T09:21:52.887Z</time></trkpt><trkpt lat="42.2955267" lon="14.466915"><ele>15.2</ele><time>2026-04-26T09:21:53.888Z</time></trkpt><trkpt lat="42.2954767" lon="14.4670533"><ele>15.799999999999999</ele><time>2026-04-26T09:21:55.888Z</time></trkpt><trkpt lat="42.2954467" lon="14.4671567"><ele>16.4</ele><time>2026-04-26T09:21:57.887Z</time></trkpt><trkpt lat="42.2954067" lon="14.4672633"><ele>17.0</ele><time>2026-04-26T09:21:59.888Z</time></trkpt><trkpt lat="42.2953467" lon="14.4673733"><ele>17.0</ele><time>2026-04-26T09:22:01.888Z</time></trkpt><trkpt lat="42.2952867" lon="14.467495"><ele>17.0</ele><time>2026-04-26T09:22:03.887Z</time></trkpt><trkpt lat="42.2952283" lon="14.4676283"><ele>17.0</ele><time>2026-04-26T09:22:05.888Z</time></trkpt><trkpt lat="42.2951667" lon="14.4677517"><ele>17.0</ele><time>2026-04-26T09:22:07.887Z</time></trkpt><trkpt lat="42.2951067" lon="14.4678867"><ele>17.0</ele><time>2026-04-26T09:22:09.888Z</time></trkpt><trkpt lat="42.2950417" lon="14.468025"><ele>14.25</ele><time>2026-04-26T09:22:11.888Z</time></trkpt><trkpt lat="42.2949817" lon="14.468165"><ele>11.5</ele><time>2026-04-26T09:22:13.887Z</time></trkpt><trkpt lat="42.2949183" lon="14.46831"><ele>8.75</ele><time>2026-04-26T09:22:15.887Z</time></trkpt><trkpt lat="42.2948567" lon="14.468445"><ele>6.0</ele><time>2026-04-26T09:22:17.888Z</time></trkpt><trkpt lat="42.2947933" lon="14.46857"><ele>10.5</ele><time>2026-04-26T09:22:19.888Z</time></trkpt><trkpt lat="42.294725" lon="14.4687"><ele>15.0</ele><time>2026-04-26T09:22:21.887Z</time></trkpt><trkpt lat="42.294665" lon="14.4688267"><ele>19.5</ele><time>2026-04-26T09:22:23.888Z</time></trkpt><trkpt lat="42.2946117" lon="14.4689517"><ele>24.0</ele><time>2026-04-26T09:22:25.888Z</time></trkpt><trkpt lat="42.29456" lon="14.46909"><ele>24.0</ele><time>2026-04-26T09:22:27.888Z</time></trkpt><trkpt lat="42.2945083" lon="14.469215"><ele>24.0</ele><time>2026-04-26T09:22:29.888Z</time></trkpt><trkpt lat="42.2944417" lon="14.4693567"><ele>24.0</ele><time>2026-04-26T09:22:31.887Z</time></trkpt><trkpt lat="42.29437" lon="14.4694917"><ele>24.0</ele><time>2026-04-26T09:22:33.887Z</time></trkpt><trkpt lat="42.2943033" lon="14.4696267"><ele>20.0</ele><time>2026-04-26T09:22:35.888Z</time></trkpt><trkpt lat="42.29423" lon="14.4697367"><ele>16.0</ele><time>2026-04-26T09:22:37.887Z</time></trkpt><trkpt lat="42.2941517" lon="14.469855"><ele>12.0</ele><time>2026-04-26T09:22:39.888Z</time></trkpt><trkpt lat="42.29407" lon="14.469975"><ele>8.0</ele><time>2026-04-26T09:22:41.887Z</time></trkpt><trkpt lat="42.2939967" lon="14.4700867"><ele>9.25</ele><time>2026-04-26T09:22:43.888Z</time></trkpt><trkpt lat="42.2939167" lon="14.4702067"><ele>10.5</ele><time>2026-04-26T09:22:45.888Z</time></trkpt><trkpt lat="42.293845" lon="14.4703317"><ele>11.75</ele><time>2026-04-26T09:22:47.887Z</time></trkpt><trkpt lat="42.293775" lon="14.470465"><ele>13.0</ele><time>2026-04-26T09:22:49.888Z</time></trkpt><trkpt lat="42.2937033" lon="14.470585"><ele>13.0</ele><time>2026-04-26T09:22:51.888Z</time></trkpt><trkpt lat="42.2936233" lon="14.4707017"><ele>13.0</ele><time>2026-04-26T09:22:53.888Z</time></trkpt><trkpt lat="42.293545" lon="14.4708167"><ele>13.0</ele><time>2026-04-26T09:22:55.888Z</time></trkpt><trkpt lat="42.293465" lon="14.4709267"><ele>13.0</ele><time>2026-04-26T09:22:57.888Z</time></trkpt><trkpt lat="42.2933817" lon="14.4710467"><ele>13.0</ele><time>2026-04-26T09:22:59.887Z</time></trkpt><trkpt lat="42.293305" lon="14.4711633"><ele>13.0</ele><time>2026-04-26T09:23:01.887Z</time></trkpt><trkpt lat="42.2932283" lon="14.4712733"><ele>13.0</ele><time>2026-04-26T09:23:03.887Z</time></trkpt><trkpt lat="42.2931583" lon="14.4713883"><ele>13.0</ele><time>2026-04-26T09:23:05.888Z</time></trkpt><trkpt lat="42.2930683" lon="14.4714867"><ele>9.0</ele><time>2026-04-26T09:23:07.887Z</time></trkpt><trkpt lat="42.2929817" lon="14.471585"><ele>5.0</ele><time>2026-04-26T09:23:09.888Z</time></trkpt><trkpt lat="42.2923817" lon="14.4721917"><ele>5.0</ele><time>2026-04-26T09:23:22.89Z</time></trkpt><trkpt lat="42.2923383" lon="14.4722683"><ele>5.0</ele><time>2026-04-26T09:23:23.89Z</time></trkpt><trkpt lat="42.29231" lon="14.4723483"><ele>5.0</ele><time>2026-04-26T09:23:24.89Z</time></trkpt><trkpt lat="42.2922233" lon="14.472465"><ele>5.0</ele><time>2026-04-26T09:23:26.891Z</time></trkpt><trkpt lat="42.2921417" lon="14.4725817"><ele>5.0</ele><time>2026-04-26T09:23:28.891Z</time></trkpt><trkpt lat="42.29206" lon="14.4726833"><ele>5.0</ele><time>2026-04-26T09:23:30.891Z</time></trkpt><trkpt lat="42.29197" lon="14.4727817"><ele>5.0</ele><time>2026-04-26T09:23:32.891Z</time></trkpt><trkpt lat="42.2919183" lon="14.4728367"><ele>5.0</ele><time>2026-04-26T09:23:33.89Z</time></trkpt><trkpt lat="42.2918317" lon="14.47293"><ele>5.0</ele><time>2026-04-26T09:23:35.89Z</time></trkpt><trkpt lat="42.291745" lon="14.47303"><ele>5.0</ele><time>2026-04-26T09:23:37.891Z</time></trkpt><trkpt lat="42.2916517" lon="14.4731333"><ele>5.0</ele><time>2026-04-26T09:23:39.89Z</time></trkpt><trkpt lat="42.2916033" lon="14.47319"><ele>5.0</ele><time>2026-04-26T09:23:40.891Z</time></trkpt><trkpt lat="42.2915117" lon="14.4732917"><ele>5.0</ele><time>2026-04-26T09:23:42.891Z</time></trkpt><trkpt lat="42.291425" lon="14.4734033"><ele>5.0</ele><time>2026-04-26T09:23:44.89Z</time></trkpt><trkpt lat="42.291375" lon="14.4734633"><ele>5.0</ele><time>2026-04-26T09:23:45.89Z</time></trkpt><trkpt lat="42.291325" lon="14.47353"><ele>5.0</ele><time>2026-04-26T09:23:46.891Z</time></trkpt><trkpt lat="42.2912733" lon="14.4735983"><ele>5.285714285714286</ele><time>2026-04-26T09:23:47.891Z</time></trkpt><trkpt lat="42.2912267" lon="14.4736683"><ele>5.571428571428571</ele><time>2026-04-26T09:23:48.891Z</time></trkpt><trkpt lat="42.2911817" lon="14.4737367"><ele>5.857142857142858</ele><time>2026-04-26T09:23:49.89Z</time></trkpt><trkpt lat="42.2911367" lon="14.4738067"><ele>6.142857142857142</ele><time>2026-04-26T09:23:50.891Z</time></trkpt><trkpt lat="42.2910917" lon="14.4738783"><ele>6.428571428571429</ele><time>2026-04-26T09:23:51.891Z</time></trkpt><trkpt lat="42.291045" lon="14.4739517"><ele>6.714285714285714</ele><time>2026-04-26T09:23:52.89Z</time></trkpt><trkpt lat="42.291" lon="14.4740217"><ele>7.0</ele><time>2026-04-26T09:23:53.89Z</time></trkpt><trkpt lat="42.290955" lon="14.47409"><ele>7.0</ele><time>2026-04-26T09:23:54.89Z</time></trkpt><trkpt lat="42.2909067" lon="14.4741617"><ele>7.0</ele><time>2026-04-26T09:23:55.89Z</time></trkpt><trkpt lat="42.2908633" lon="14.4742317"><ele>7.0</ele><time>2026-04-26T09:23:56.891Z</time></trkpt><trkpt lat="42.29082" lon="14.474305"><ele>7.0</ele><time>2026-04-26T09:23:57.89Z</time></trkpt><trkpt lat="42.290775" lon="14.47438"><ele>7.0</ele><time>2026-04-26T09:23:58.891Z</time></trkpt><trkpt lat="42.290725" lon="14.4744567"><ele>7.0</ele><time>2026-04-26T09:23:59.891Z</time></trkpt><trkpt lat="42.29068" lon="14.4745367"><ele>7.0</ele><time>2026-04-26T09:24:00.891Z</time></trkpt><trkpt lat="42.2906367" lon="14.474605"><ele>7.571428571428571</ele><time>2026-04-26T09:24:01.891Z</time></trkpt><trkpt lat="42.290595" lon="14.474675"><ele>8.142857142857142</ele><time>2026-04-26T09:24:02.891Z</time></trkpt><trkpt lat="42.29055" lon="14.474745"><ele>8.714285714285715</ele><time>2026-04-26T09:24:03.891Z</time></trkpt><trkpt lat="42.2905083" lon="14.4748133"><ele>9.285714285714285</ele><time>2026-04-26T09:24:04.89Z</time></trkpt><trkpt lat="42.2904667" lon="14.4748883"><ele>9.857142857142858</ele><time>2026-04-26T09:24:05.89Z</time></trkpt><trkpt lat="42.290425" lon="14.47496"><ele>10.428571428571429</ele><time>2026-04-26T09:24:06.89Z</time></trkpt><trkpt lat="42.2903817" lon="14.4750283"><ele>11.0</ele><time>2026-04-26T09:24:07.891Z</time></trkpt><trkpt lat="42.2903433" lon="14.4750967"><ele>11.0</ele><time>2026-04-26T09:24:08.891Z</time></trkpt><trkpt lat="42.2903067" lon="14.4751667"><ele>11.0</ele><time>2026-04-26T09:24:09.891Z</time></trkpt><trkpt lat="42.2902267" lon="14.4752883"><ele>11.0</ele><time>2026-04-26T09:24:11.891Z</time></trkpt><trkpt lat="42.2901833" lon="14.475355"><ele>11.0</ele><time>2026-04-26T09:24:12.891Z</time></trkpt><trkpt lat="42.290145" lon="14.4754283"><ele>11.0</ele><time>2026-04-26T09:24:13.891Z</time></trkpt><trkpt lat="42.2901033" lon="14.475505"><ele>11.0</ele><time>2026-04-26T09:24:14.891Z</time></trkpt><trkpt lat="42.290065" lon="14.47558"><ele>10.285714285714286</ele><time>2026-04-26T09:24:15.891Z</time></trkpt><trkpt lat="42.290025" lon="14.4756617"><ele>9.571428571428571</ele><time>2026-04-26T09:24:16.891Z</time></trkpt><trkpt lat="42.289985" lon="14.4757383"><ele>8.857142857142858</ele><time>2026-04-26T09:24:17.891Z</time></trkpt><trkpt lat="42.2899433" lon="14.4758167"><ele>8.142857142857142</ele><time>2026-04-26T09:24:18.891Z</time></trkpt><trkpt lat="42.2899" lon="14.47589"><ele>7.428571428571429</ele><time>2026-04-26T09:24:19.891Z</time></trkpt><trkpt lat="42.2898483" lon="14.4759617"><ele>6.7142857142857135</ele><time>2026-04-26T09:24:20.89Z</time></trkpt><trkpt lat="42.2898067" lon="14.47604"><ele>6.0</ele><time>2026-04-26T09:24:21.891Z</time></trkpt><trkpt lat="42.28976" lon="14.4761167"><ele>6.833333333333333</ele><time>2026-04-26T09:24:22.891Z</time></trkpt><trkpt lat="42.2897133" lon="14.4761933"><ele>7.666666666666666</ele><time>2026-04-26T09:24:23.891Z</time></trkpt><trkpt lat="42.2896683" lon="14.4762717"><ele>8.5</ele><time>2026-04-26T09:24:24.891Z</time></trkpt><trkpt lat="42.28962" lon="14.4763583"><ele>9.333333333333332</ele><time>2026-04-26T09:24:25.891Z</time></trkpt><trkpt lat="42.2895717" lon="14.4764417"><ele>10.166666666666666</ele><time>2026-04-26T09:24:26.891Z</time></trkpt><trkpt lat="42.2895217" lon="14.47652"><ele>11.0</ele><time>2026-04-26T09:24:27.891Z</time></trkpt><trkpt lat="42.2894783" lon="14.4766067"><ele>11.0</ele><time>2026-04-26T09:24:28.89Z</time></trkpt><trkpt lat="42.289435" lon="14.47669"><ele>11.0</ele><time>2026-04-26T09:24:29.891Z</time></trkpt><trkpt lat="42.2893967" lon="14.47676"><ele>11.0</ele><time>2026-04-26T09:24:30.89Z</time></trkpt><trkpt lat="42.2893567" lon="14.476835"><ele>11.0</ele><time>2026-04-26T09:24:31.891Z</time></trkpt><trkpt lat="42.2893133" lon="14.4769133"><ele>11.0</ele><time>2026-04-26T09:24:32.891Z</time></trkpt><trkpt lat="42.2892767" lon="14.47699"><ele>11.0</ele><time>2026-04-26T09:24:33.89Z</time></trkpt><trkpt lat="42.2892317" lon="14.4770617"><ele>11.0</ele><time>2026-04-26T09:24:34.891Z</time></trkpt><trkpt lat="42.2891917" lon="14.4771383"><ele>12.0</ele><time>2026-04-26T09:24:35.89Z</time></trkpt><trkpt lat="42.2891533" lon="14.4772117"><ele>13.0</ele><time>2026-04-26T09:24:36.891Z</time></trkpt><trkpt lat="42.2891117" lon="14.4772833"><ele>14.0</ele><time>2026-04-26T09:24:37.89Z</time></trkpt><trkpt lat="42.28903" lon="14.47742"><ele>15.0</ele><time>2026-04-26T09:24:39.891Z</time></trkpt><trkpt lat="42.28899" lon="14.477495"><ele>16.0</ele><time>2026-04-26T09:24:40.89Z</time></trkpt><trkpt lat="42.2889483" lon="14.47757"><ele>17.0</ele><time>2026-04-26T09:24:41.891Z</time></trkpt><trkpt lat="42.288915" lon="14.477645"><ele>17.0</ele><time>2026-04-26T09:24:42.891Z</time></trkpt><trkpt lat="42.2888367" lon="14.4777833"><ele>17.0</ele><time>2026-04-26T09:24:44.891Z</time></trkpt><trkpt lat="42.28879" lon="14.4778683"><ele>17.0</ele><time>2026-04-26T09:24:45.891Z</time></trkpt><trkpt lat="42.2887433" lon="14.477945"><ele>17.0</ele><time>2026-04-26T09:24:46.891Z</time></trkpt><trkpt lat="42.2887" lon="14.4780167"><ele>17.0</ele><time>2026-04-26T09:24:47.891Z</time></trkpt><trkpt lat="42.288655" lon="14.4780867"><ele>17.0</ele><time>2026-04-26T09:24:48.891Z</time></trkpt><trkpt lat="42.28861" lon="14.4781567"><ele>15.857142857142856</ele><time>2026-04-26T09:24:49.89Z</time></trkpt><trkpt lat="42.2885667" lon="14.47823"><ele>14.714285714285714</ele><time>2026-04-26T09:24:50.89Z</time></trkpt><trkpt lat="42.2885267" lon="14.4783017"><ele>13.571428571428571</ele><time>2026-04-26T09:24:51.89Z</time></trkpt><trkpt lat="42.2884883" lon="14.478375"><ele>12.428571428571427</ele><time>2026-04-26T09:24:52.891Z</time></trkpt><trkpt lat="42.2884483" lon="14.4784467"><ele>11.285714285714285</ele><time>2026-04-26T09:24:53.89Z</time></trkpt><trkpt lat="42.2884067" lon="14.4785167"><ele>10.142857142857144</ele><time>2026-04-26T09:24:54.891Z</time></trkpt><trkpt lat="42.288365" lon="14.4785883"><ele>9.0</ele><time>2026-04-26T09:24:55.89Z</time></trkpt><trkpt lat="42.2883167" lon="14.4786617"><ele>9.0</ele><time>2026-04-26T09:24:56.89Z</time></trkpt><trkpt lat="42.288275" lon="14.4787367"><ele>9.0</ele><time>2026-04-26T09:24:57.891Z</time></trkpt><trkpt lat="42.288235" lon="14.4788083"><ele>9.0</ele><time>2026-04-26T09:24:58.891Z</time></trkpt><trkpt lat="42.28816" lon="14.4789483"><ele>9.0</ele><time>2026-04-26T09:25:00.89Z</time></trkpt><trkpt lat="42.28809" lon="14.4790783"><ele>9.0</ele><time>2026-04-26T09:25:02.89Z</time></trkpt><trkpt lat="42.2880267" lon="14.479205"><ele>9.0</ele><time>2026-04-26T09:25:04.891Z</time></trkpt><trkpt lat="42.287965" lon="14.4793417"><ele>9.0</ele><time>2026-04-26T09:25:06.89Z</time></trkpt><trkpt lat="42.2878933" lon="14.47948"><ele>9.0</ele><time>2026-04-26T09:25:08.891Z</time></trkpt><trkpt lat="42.28785" lon="14.479555"><ele>9.0</ele><time>2026-04-26T09:25:09.891Z</time></trkpt><trkpt lat="42.28781" lon="14.47963"><ele>9.0</ele><time>2026-04-26T09:25:10.891Z</time></trkpt><trkpt lat="42.2877717" lon="14.4797017"><ele>9.0</ele><time>2026-04-26T09:25:11.89Z</time></trkpt><trkpt lat="42.287705" lon="14.4798267"><ele>9.0</ele><time>2026-04-26T09:25:13.891Z</time></trkpt><trkpt lat="42.28766" lon="14.4799117"><ele>9.0</ele><time>2026-04-26T09:25:15.891Z</time></trkpt><trkpt lat="42.28762" lon="14.480005"><ele>9.0</ele><time>2026-04-26T09:25:18.891Z</time></trkpt><trkpt lat="42.2875817" lon="14.4800867"><ele>9.0</ele><time>2026-04-26T09:25:22.891Z</time></trkpt><trkpt lat="42.2875333" lon="14.4801933"><ele>9.0</ele><time>2026-04-26T09:25:25.891Z</time></trkpt><trkpt lat="42.2874883" lon="14.4802767"><ele>9.0</ele><time>2026-04-26T09:25:27.891Z</time></trkpt><trkpt lat="42.2874333" lon="14.480375"><ele>10.0</ele><time>2026-04-26T09:25:29.891Z</time></trkpt><trkpt lat="42.2873833" lon="14.480475"><ele>11.0</ele><time>2026-04-26T09:25:31.891Z</time></trkpt><trkpt lat="42.28733" lon="14.4805683"><ele>11.999999999999998</ele><time>2026-04-26T09:25:33.891Z</time></trkpt><trkpt lat="42.2872817" lon="14.4806833"><ele>13.0</ele><time>2026-04-26T09:25:35.892Z</time></trkpt><trkpt lat="42.287235" lon="14.480795"><ele>14.0</ele><time>2026-04-26T09:25:37.892Z</time></trkpt><trkpt lat="42.2871933" lon="14.4809033"><ele>14.000000000000002</ele><time>2026-04-26T09:25:39.892Z</time></trkpt><trkpt lat="42.287155" lon="14.4810083"><ele>14.0</ele><time>2026-04-26T09:25:41.892Z</time></trkpt><trkpt lat="42.28712" lon="14.4811083"><ele>14.0</ele><time>2026-04-26T09:25:43.891Z</time></trkpt><trkpt lat="42.287085" lon="14.4812083"><ele>14.0</ele><time>2026-04-26T09:25:45.892Z</time></trkpt><trkpt lat="42.287045" lon="14.4813217"><ele>14.000000000000002</ele><time>2026-04-26T09:25:47.892Z</time></trkpt><trkpt lat="42.2869967" lon="14.4814417"><ele>14.0</ele><time>2026-04-26T09:25:49.892Z</time></trkpt><trkpt lat="42.2869467" lon="14.481565"><ele>12.75</ele><time>2026-04-26T09:25:51.892Z</time></trkpt><trkpt lat="42.2868983" lon="14.4816933"><ele>11.5</ele><time>2026-04-26T09:25:53.892Z</time></trkpt><trkpt lat="42.2868433" lon="14.4818233"><ele>10.25</ele><time>2026-04-26T09:25:55.892Z</time></trkpt><trkpt lat="42.2867883" lon="14.4819617"><ele>9.0</ele><time>2026-04-26T09:25:57.891Z</time></trkpt><trkpt lat="42.28673" lon="14.4821067"><ele>8.2</ele><time>2026-04-26T09:25:59.892Z</time></trkpt><trkpt lat="42.2866683" lon="14.4822417"><ele>7.4</ele><time>2026-04-26T09:26:01.891Z</time></trkpt><trkpt lat="42.2865933" lon="14.4823767"><ele>6.6</ele><time>2026-04-26T09:26:03.892Z</time></trkpt><trkpt lat="42.2865533" lon="14.482445"><ele>5.8</ele><time>2026-04-26T09:26:04.891Z</time></trkpt><trkpt lat="42.2865167" lon="14.4825167"><ele>5.0</ele><time>2026-04-26T09:26:05.892Z</time></trkpt><trkpt lat="42.2864417" lon="14.4826433"><ele>5.75</ele><time>2026-04-26T09:26:07.892Z</time></trkpt><trkpt lat="42.28637" lon="14.4827667"><ele>6.5</ele><time>2026-04-26T09:26:09.892Z</time></trkpt><trkpt lat="42.2862967" lon="14.482895"><ele>7.25</ele><time>2026-04-26T09:26:11.891Z</time></trkpt><trkpt lat="42.2862233" lon="14.48302"><ele>8.0</ele><time>2026-04-26T09:26:13.891Z</time></trkpt><trkpt lat="42.2861367" lon="14.4831333"><ele>8.0</ele><time>2026-04-26T09:26:15.892Z</time></trkpt><trkpt lat="42.2860533" lon="14.4832433"><ele>8.0</ele><time>2026-04-26T09:26:17.892Z</time></trkpt><trkpt lat="42.285975" lon="14.4833467"><ele>8.0</ele><time>2026-04-26T09:26:19.892Z</time></trkpt><trkpt lat="42.2859" lon="14.4834433"><ele>8.0</ele><time>2026-04-26T09:26:21.891Z</time></trkpt><trkpt lat="42.28581" lon="14.4835367"><ele>8.0</ele><time>2026-04-26T09:26:23.892Z</time></trkpt><trkpt lat="42.28576" lon="14.48359"><ele>8.0</ele><time>2026-04-26T09:26:24.891Z</time></trkpt><trkpt lat="42.2856667" lon="14.4836867"><ele>8.0</ele><time>2026-04-26T09:26:26.891Z</time></trkpt><trkpt lat="42.2855667" lon="14.483795"><ele>8.0</ele><time>2026-04-26T09:26:28.891Z</time></trkpt><trkpt lat="42.2854667" lon="14.4838917"><ele>8.0</ele><time>2026-04-26T09:26:30.892Z</time></trkpt><trkpt lat="42.28541" lon="14.4839417"><ele>8.0</ele><time>2026-04-26T09:26:31.892Z</time></trkpt><trkpt lat="42.285355" lon="14.4839917"><ele>7.75</ele><time>2026-04-26T09:26:32.892Z</time></trkpt><trkpt lat="42.2852567" lon="14.4840883"><ele>7.5</ele><time>2026-04-26T09:26:34.892Z</time></trkpt><trkpt lat="42.2851667" lon="14.4841867"><ele>7.25</ele><time>2026-04-26T09:26:36.892Z</time></trkpt><trkpt lat="42.2850683" lon="14.4842867"><ele>7.0</ele><time>2026-04-26T09:26:38.892Z</time></trkpt><trkpt lat="42.28497" lon="14.484375"><ele>7.0</ele><time>2026-04-26T09:26:40.892Z</time></trkpt><trkpt lat="42.2848817" lon="14.4844517"><ele>6.999999999999999</ele><time>2026-04-26T09:26:42.892Z</time></trkpt><trkpt lat="42.284785" lon="14.4845233"><ele>6.999999999999999</ele><time>2026-04-26T09:26:44.891Z</time></trkpt><trkpt lat="42.2846883" lon="14.4846017"><ele>7.0</ele><time>2026-04-26T09:26:46.892Z</time></trkpt><trkpt lat="42.284595" lon="14.48469"><ele>7.0</ele><time>2026-04-26T09:26:48.892Z</time></trkpt><trkpt lat="42.2844983" lon="14.484775"><ele>7.3999999999999995</ele><time>2026-04-26T09:26:50.892Z</time></trkpt><trkpt lat="42.2844" lon="14.4848733"><ele>7.799999999999999</ele><time>2026-04-26T09:26:52.892Z</time></trkpt><trkpt lat="42.2843233" lon="14.4849533"><ele>8.2</ele><time>2026-04-26T09:26:54.892Z</time></trkpt><trkpt lat="42.2842667" lon="14.4850283"><ele>8.6</ele><time>2026-04-26T09:26:56.892Z</time></trkpt><trkpt lat="42.2842117" lon="14.4851"><ele>9.0</ele><time>2026-04-26T09:26:58.892Z</time></trkpt><trkpt lat="42.284145" lon="14.48519"><ele>9.0</ele><time>2026-04-26T09:27:00.891Z</time></trkpt><trkpt lat="42.28407" lon="14.4852783"><ele>9.0</ele><time>2026-04-26T09:27:02.892Z</time></trkpt><trkpt lat="42.28399" lon="14.4853567"><ele>9.0</ele><time>2026-04-26T09:27:04.892Z</time></trkpt><trkpt lat="42.2839117" lon="14.4854517"><ele>9.0</ele><time>2026-04-26T09:27:06.892Z</time></trkpt><trkpt lat="42.2838317" lon="14.4855617"><ele>9.0</ele><time>2026-04-26T09:27:08.892Z</time></trkpt><trkpt lat="42.283775" lon="14.4856167"><ele>9.166666666666666</ele><time>2026-04-26T09:27:09.891Z</time></trkpt><trkpt lat="42.2837217" lon="14.48567"><ele>9.333333333333334</ele><time>2026-04-26T09:27:10.891Z</time></trkpt><trkpt lat="42.2836717" lon="14.4857267"><ele>9.5</ele><time>2026-04-26T09:27:11.892Z</time></trkpt><trkpt lat="42.2836217" lon="14.4857817"><ele>9.666666666666668</ele><time>2026-04-26T09:27:12.892Z</time></trkpt><trkpt lat="42.2835733" lon="14.48584"><ele>9.833333333333334</ele><time>2026-04-26T09:27:13.892Z</time></trkpt><trkpt lat="42.2834917" lon="14.4859417"><ele>10.0</ele><time>2026-04-26T09:27:15.892Z</time></trkpt><trkpt lat="42.2834167" lon="14.4860483"><ele>10.0</ele><time>2026-04-26T09:27:17.891Z</time></trkpt><trkpt lat="42.2833167" lon="14.4861667"><ele>10.0</ele><time>2026-04-26T09:27:19.892Z</time></trkpt><trkpt lat="42.28326" lon="14.4862267"><ele>10.0</ele><time>2026-04-26T09:27:20.891Z</time></trkpt><trkpt lat="42.2832067" lon="14.4862867"><ele>10.0</ele><time>2026-04-26T09:27:21.892Z</time></trkpt><trkpt lat="42.2831583" lon="14.486355"><ele>10.0</ele><time>2026-04-26T09:27:22.891Z</time></trkpt><trkpt lat="42.2831033" lon="14.4864283"><ele>10.0</ele><time>2026-04-26T09:27:23.891Z</time></trkpt><trkpt lat="42.2830517" lon="14.4865"><ele>10.857142857142858</ele><time>2026-04-26T09:27:24.892Z</time></trkpt><trkpt lat="42.2830017" lon="14.4865683"><ele>11.714285714285715</ele><time>2026-04-26T09:27:25.891Z</time></trkpt><trkpt lat="42.2829567" lon="14.4866433"><ele>12.571428571428571</ele><time>2026-04-26T09:27:26.892Z</time></trkpt><trkpt lat="42.28291" lon="14.4867183"><ele>13.428571428571427</ele><time>2026-04-26T09:27:27.891Z</time></trkpt><trkpt lat="42.282865" lon="14.4867983"><ele>14.285714285714285</ele><time>2026-04-26T09:27:28.892Z</time></trkpt><trkpt lat="42.2828217" lon="14.48688"><ele>15.142857142857142</ele><time>2026-04-26T09:27:29.891Z</time></trkpt><trkpt lat="42.2827767" lon="14.4869583"><ele>16.0</ele><time>2026-04-26T09:27:30.892Z</time></trkpt><trkpt lat="42.2827333" lon="14.48704"><ele>14.857142857142856</ele><time>2026-04-26T09:27:31.892Z</time></trkpt><trkpt lat="42.2826883" lon="14.4871133"><ele>13.714285714285712</ele><time>2026-04-26T09:27:32.891Z</time></trkpt><trkpt lat="42.28265" lon="14.4871883"><ele>12.571428571428571</ele><time>2026-04-26T09:27:33.891Z</time></trkpt><trkpt lat="42.282605" lon="14.4872683"><ele>11.428571428571427</ele><time>2026-04-26T09:27:34.891Z</time></trkpt><trkpt lat="42.282565" lon="14.48734"><ele>10.285714285714285</ele><time>2026-04-26T09:27:35.891Z</time></trkpt><trkpt lat="42.2825317" lon="14.4874167"><ele>9.142857142857142</ele><time>2026-04-26T09:27:36.891Z</time></trkpt><trkpt lat="42.2825" lon="14.4874933"><ele>8.0</ele><time>2026-04-26T09:27:37.891Z</time></trkpt><trkpt lat="42.2824317" lon="14.48764"><ele>7.999999999999999</ele><time>2026-04-26T09:27:39.892Z</time></trkpt><trkpt lat="42.2823983" lon="14.487715"><ele>8.0</ele><time>2026-04-26T09:27:40.891Z</time></trkpt><trkpt lat="42.2823617" lon="14.48779"><ele>8.0</ele><time>2026-04-26T09:27:41.892Z</time></trkpt><trkpt lat="42.2823217" lon="14.4878667"><ele>8.0</ele><time>2026-04-26T09:27:42.892Z</time></trkpt><trkpt lat="42.28228" lon="14.4879433"><ele>7.999999999999999</ele><time>2026-04-26T09:27:43.891Z</time></trkpt><trkpt lat="42.2822083" lon="14.4880767"><ele>8.0</ele><time>2026-04-26T09:27:45.891Z</time></trkpt><trkpt lat="42.2821717" lon="14.4881467"><ele>9.0</ele><time>2026-04-26T09:27:46.891Z</time></trkpt><trkpt lat="42.2821067" lon="14.4882817"><ele>10.0</ele><time>2026-04-26T09:27:48.892Z</time></trkpt><trkpt lat="42.282045" lon="14.4884133"><ele>11.0</ele><time>2026-04-26T09:27:50.892Z</time></trkpt><trkpt lat="42.2819717" lon="14.4885567"><ele>12.0</ele><time>2026-04-26T09:27:52.892Z</time></trkpt><trkpt lat="42.2819317" lon="14.4886283"><ele>13.0</ele><time>2026-04-26T09:27:53.892Z</time></trkpt><trkpt lat="42.2818783" lon="14.4887"><ele>12.0</ele><time>2026-04-26T09:27:54.891Z</time></trkpt><trkpt lat="42.28183" lon="14.4887667"><ele>11.0</ele><time>2026-04-26T09:27:55.891Z</time></trkpt><trkpt lat="42.28178" lon="14.48883"><ele>10.0</ele><time>2026-04-26T09:27:56.892Z</time></trkpt><trkpt lat="42.2817267" lon="14.4888983"><ele>9.0</ele><time>2026-04-26T09:27:57.892Z</time></trkpt><trkpt lat="42.281675" lon="14.4889683"><ele>8.0</ele><time>2026-04-26T09:27:58.891Z</time></trkpt><trkpt lat="42.2816233" lon="14.4890367"><ele>7.0</ele><time>2026-04-26T09:27:59.891Z</time></trkpt><trkpt lat="42.2815733" lon="14.48911"><ele>6.0</ele><time>2026-04-26T09:28:00.892Z</time></trkpt><trkpt lat="42.2815183" lon="14.4891783"><ele>6.0</ele><time>2026-04-26T09:28:01.892Z</time></trkpt><trkpt lat="42.2814567" lon="14.489255"><ele>6.0</ele><time>2026-04-26T09:28:02.892Z</time></trkpt><trkpt lat="42.2813983" lon="14.4893283"><ele>6.0</ele><time>2026-04-26T09:28:03.892Z</time></trkpt><trkpt lat="42.2813417" lon="14.489395"><ele>6.0</ele><time>2026-04-26T09:28:04.892Z</time></trkpt><trkpt lat="42.2812833" lon="14.48946"><ele>6.0</ele><time>2026-04-26T09:28:05.892Z</time></trkpt><trkpt lat="42.2812233" lon="14.489525"><ele>6.0</ele><time>2026-04-26T09:28:06.891Z</time></trkpt><trkpt lat="42.281165" lon="14.4895883"><ele>6.285714285714285</ele><time>2026-04-26T09:28:07.891Z</time></trkpt><trkpt lat="42.2811183" lon="14.4896517"><ele>6.571428571428571</ele><time>2026-04-26T09:28:08.892Z</time></trkpt><trkpt lat="42.2810583" lon="14.489705"><ele>6.857142857142857</ele><time>2026-04-26T09:28:09.892Z</time></trkpt><trkpt lat="42.2810067" lon="14.4897617"><ele>7.142857142857142</ele><time>2026-04-26T09:28:10.891Z</time></trkpt><trkpt lat="42.2809517" lon="14.4898133"><ele>7.428571428571428</ele><time>2026-04-26T09:28:11.892Z</time></trkpt><trkpt lat="42.2808983" lon="14.489865"><ele>7.7142857142857135</ele><time>2026-04-26T09:28:12.891Z</time></trkpt><trkpt lat="42.280845" lon="14.4899167"><ele>8.0</ele><time>2026-04-26T09:28:13.892Z</time></trkpt><trkpt lat="42.2807367" lon="14.4900133"><ele>8.0</ele><time>2026-04-26T09:28:15.891Z</time></trkpt><trkpt lat="42.28068" lon="14.4900567"><ele>8.0</ele><time>2026-04-26T09:28:16.891Z</time></trkpt><trkpt lat="42.280575" lon="14.4901433"><ele>8.0</ele><time>2026-04-26T09:28:18.892Z</time></trkpt><trkpt lat="42.2804767" lon="14.4902267"><ele>8.0</ele><time>2026-04-26T09:28:20.892Z</time></trkpt><trkpt lat="42.2803867" lon="14.4902933"><ele>8.0</ele><time>2026-04-26T09:28:22.891Z</time></trkpt><trkpt lat="42.28032" lon="14.4903617"><ele>7.333333333333333</ele><time>2026-04-26T09:28:24.892Z</time></trkpt><trkpt lat="42.2802567" lon="14.4904183"><ele>6.666666666666666</ele><time>2026-04-26T09:28:26.892Z</time></trkpt><trkpt lat="42.280185" lon="14.490485"><ele>6.0</ele><time>2026-04-26T09:28:28.892Z</time></trkpt><trkpt lat="42.280095" lon="14.4905433"><ele>5.333333333333333</ele><time>2026-04-26T09:28:30.891Z</time></trkpt><trkpt lat="42.280025" lon="14.490575"><ele>4.666666666666666</ele><time>2026-04-26T09:28:31.892Z</time></trkpt><trkpt lat="42.279965" lon="14.4906083"><ele>4.0</ele><time>2026-04-26T09:28:32.892Z</time></trkpt><trkpt lat="42.2799033" lon="14.49064"><ele>4.0</ele><time>2026-04-26T09:28:33.892Z</time></trkpt><trkpt lat="42.27984" lon="14.490675"><ele>3.9999999999999996</ele><time>2026-04-26T09:28:34.892Z</time></trkpt><trkpt lat="42.2797817" lon="14.4907083"><ele>4.0</ele><time>2026-04-26T09:28:35.892Z</time></trkpt><trkpt lat="42.2797217" lon="14.4907417"><ele>4.0</ele><time>2026-04-26T09:28:36.892Z</time></trkpt><trkpt lat="42.2796567" lon="14.4907817"><ele>3.9999999999999996</ele><time>2026-04-26T09:28:37.892Z</time></trkpt><trkpt lat="42.2795917" lon="14.4908217"><ele>4.0</ele><time>2026-04-26T09:28:38.892Z</time></trkpt><trkpt lat="42.279535" lon="14.49086"><ele>4.0</ele><time>2026-04-26T09:28:39.891Z</time></trkpt><trkpt lat="42.27947" lon="14.490895"><ele>5.142857142857142</ele><time>2026-04-26T09:28:40.892Z</time></trkpt><trkpt lat="42.2794033" lon="14.4909317"><ele>6.285714285714285</ele><time>2026-04-26T09:28:41.892Z</time></trkpt><trkpt lat="42.2793433" lon="14.4909817"><ele>7.428571428571428</ele><time>2026-04-26T09:28:42.891Z</time></trkpt><trkpt lat="42.27928" lon="14.49103"><ele>8.571428571428571</ele><time>2026-04-26T09:28:43.892Z</time></trkpt><trkpt lat="42.2792183" lon="14.4910767"><ele>9.714285714285714</ele><time>2026-04-26T09:28:44.891Z</time></trkpt><trkpt lat="42.2791567" lon="14.491115"><ele>10.857142857142856</ele><time>2026-04-26T09:28:45.892Z</time></trkpt><trkpt lat="42.2790917" lon="14.4911533"><ele>12.0</ele><time>2026-04-26T09:28:46.892Z</time></trkpt><trkpt lat="42.27903" lon="14.4911917"><ele>11.999999999999998</ele><time>2026-04-26T09:28:47.891Z</time></trkpt><trkpt lat="42.27897" lon="14.4912367"><ele>12.0</ele><time>2026-04-26T09:28:48.891Z</time></trkpt><trkpt lat="42.278915" lon="14.4912833"><ele>12.0</ele><time>2026-04-26T09:28:49.892Z</time></trkpt><trkpt lat="42.2788483" lon="14.49133"><ele>12.0</ele><time>2026-04-26T09:28:50.892Z</time></trkpt><trkpt lat="42.2787817" lon="14.491375"><ele>12.0</ele><time>2026-04-26T09:28:51.892Z</time></trkpt><trkpt lat="42.278715" lon="14.4914267"><ele>11.999999999999998</ele><time>2026-04-26T09:28:52.891Z</time></trkpt><trkpt lat="42.2786567" lon="14.4914833"><ele>12.0</ele><time>2026-04-26T09:28:53.891Z</time></trkpt><trkpt lat="42.2786067" lon="14.4915433"><ele>11.714285714285714</ele><time>2026-04-26T09:28:54.892Z</time></trkpt><trkpt lat="42.2785583" lon="14.4916033"><ele>11.428571428571429</ele><time>2026-04-26T09:28:55.892Z</time></trkpt><trkpt lat="42.2785083" lon="14.4916583"><ele>11.142857142857142</ele><time>2026-04-26T09:28:56.892Z</time></trkpt><trkpt lat="42.2784583" lon="14.4917117"><ele>10.857142857142858</ele><time>2026-04-26T09:28:57.892Z</time></trkpt><trkpt lat="42.2784067" lon="14.4917667"><ele>10.571428571428571</ele><time>2026-04-26T09:28:58.891Z</time></trkpt><trkpt lat="42.2783533" lon="14.4918267"><ele>10.285714285714285</ele><time>2026-04-26T09:28:59.892Z</time></trkpt><trkpt lat="42.2783" lon="14.4918883"><ele>10.0</ele><time>2026-04-26T09:29:00.892Z</time></trkpt><trkpt lat="42.2782467" lon="14.4919467"><ele>10.0</ele><time>2026-04-26T09:29:01.892Z</time></trkpt><trkpt lat="42.2781933" lon="14.4920033"><ele>10.0</ele><time>2026-04-26T09:29:02.892Z</time></trkpt><trkpt lat="42.27814" lon="14.492065"><ele>10.0</ele><time>2026-04-26T09:29:03.892Z</time></trkpt><trkpt lat="42.2780867" lon="14.49213"><ele>10.0</ele><time>2026-04-26T09:29:04.892Z</time></trkpt><trkpt lat="42.2780383" lon="14.492195"><ele>10.0</ele><time>2026-04-26T09:29:05.892Z</time></trkpt><trkpt lat="42.277985" lon="14.4922583"><ele>10.0</ele><time>2026-04-26T09:29:06.891Z</time></trkpt><trkpt lat="42.2779283" lon="14.49232"><ele>10.0</ele><time>2026-04-26T09:29:07.891Z</time></trkpt><trkpt lat="42.2778767" lon="14.492385"><ele>9.0</ele><time>2026-04-26T09:29:08.892Z</time></trkpt><trkpt lat="42.2778267" lon="14.492445"><ele>8.0</ele><time>2026-04-26T09:29:09.892Z</time></trkpt><trkpt lat="42.2777767" lon="14.492505"><ele>7.0</ele><time>2026-04-26T09:29:10.892Z</time></trkpt><trkpt lat="42.27773" lon="14.492565"><ele>6.0</ele><time>2026-04-26T09:29:11.892Z</time></trkpt><trkpt lat="42.277685" lon="14.49263"><ele>5.0</ele><time>2026-04-26T09:29:12.892Z</time></trkpt><trkpt lat="42.2776" lon="14.49274"><ele>4.0</ele><time>2026-04-26T09:29:14.891Z</time></trkpt><trkpt lat="42.2775133" lon="14.4928517"><ele>3.9999999999999996</ele><time>2026-04-26T09:29:16.892Z</time></trkpt><trkpt lat="42.2774267" lon="14.4929717"><ele>4.0</ele><time>2026-04-26T09:29:18.891Z</time></trkpt><trkpt lat="42.2773783" lon="14.49303"><ele>4.0</ele><time>2026-04-26T09:29:19.891Z</time></trkpt><trkpt lat="42.2773233" lon="14.4930883"><ele>4.0</ele><time>2026-04-26T09:29:20.891Z</time></trkpt><trkpt lat="42.27727" lon="14.4931533"><ele>3.9999999999999996</ele><time>2026-04-26T09:29:21.892Z</time></trkpt><trkpt lat="42.2772217" lon="14.4932167"><ele>4.0</ele><time>2026-04-26T09:29:22.891Z</time></trkpt><trkpt lat="42.277175" lon="14.4932817"><ele>3.9999999999999996</ele><time>2026-04-26T09:29:23.891Z</time></trkpt><trkpt lat="42.2771217" lon="14.4933433"><ele>4.0</ele><time>2026-04-26T09:29:24.892Z</time></trkpt><trkpt lat="42.277075" lon="14.4934117"><ele>4.0</ele><time>2026-04-26T09:29:25.892Z</time></trkpt><trkpt lat="42.277025" lon="14.4934733"><ele>4.0</ele><time>2026-04-26T09:29:26.892Z</time></trkpt><trkpt lat="42.27694" lon="14.49359"><ele>3.9999999999999996</ele><time>2026-04-26T09:29:28.891Z</time></trkpt><trkpt lat="42.276895" lon="14.4936583"><ele>4.0</ele><time>2026-04-26T09:29:29.891Z</time></trkpt><trkpt lat="42.2768483" lon="14.4937233"><ele>3.9999999999999996</ele><time>2026-04-26T09:29:30.891Z</time></trkpt><trkpt lat="42.2768033" lon="14.4937867"><ele>4.0</ele><time>2026-04-26T09:29:31.892Z</time></trkpt><trkpt lat="42.276755" lon="14.4938533"><ele>4.0</ele><time>2026-04-26T09:29:32.891Z</time></trkpt><trkpt lat="42.2766683" lon="14.4939683"><ele>4.0</ele><time>2026-04-26T09:29:34.892Z</time></trkpt><trkpt lat="42.2766033" lon="14.4940733"><ele>3.9999999999999996</ele><time>2026-04-26T09:29:36.892Z</time></trkpt><trkpt lat="42.2765517" lon="14.4941633"><ele>4.0</ele><time>2026-04-26T09:29:38.892Z</time></trkpt><trkpt lat="42.27648" lon="14.4942567"><ele>5.0</ele><time>2026-04-26T09:29:40.892Z</time></trkpt><trkpt lat="42.2764117" lon="14.4943467"><ele>6.0</ele><time>2026-04-26T09:29:42.892Z</time></trkpt><trkpt lat="42.2763417" lon="14.4944283"><ele>7.0</ele><time>2026-04-26T09:29:44.891Z</time></trkpt><trkpt lat="42.2762667" lon="14.49451"><ele>8.0</ele><time>2026-04-26T09:29:46.891Z</time></trkpt><trkpt lat="42.2761817" lon="14.4946167"><ele>9.0</ele><time>2026-04-26T09:29:48.891Z</time></trkpt><trkpt lat="42.2761033" lon="14.4947383"><ele>9.0</ele><time>2026-04-26T09:29:50.892Z</time></trkpt><trkpt lat="42.276025" lon="14.4948583"><ele>9.0</ele><time>2026-04-26T09:29:52.892Z</time></trkpt><trkpt lat="42.2759517" lon="14.49497"><ele>9.0</ele><time>2026-04-26T09:29:54.892Z</time></trkpt><trkpt lat="42.2758767" lon="14.4950683"><ele>9.0</ele><time>2026-04-26T09:29:56.892Z</time></trkpt><trkpt lat="42.2758" lon="14.4951683"><ele>9.0</ele><time>2026-04-26T09:29:58.891Z</time></trkpt><trkpt lat="42.27572" lon="14.4952733"><ele>9.0</ele><time>2026-04-26T09:30:00.891Z</time></trkpt><trkpt lat="42.2756483" lon="14.4953833"><ele>9.0</ele><time>2026-04-26T09:30:02.891Z</time></trkpt><trkpt lat="42.2755833" lon="14.4955083"><ele>9.0</ele><time>2026-04-26T09:30:04.892Z</time></trkpt><trkpt lat="42.2755117" lon="14.4956333"><ele>9.0</ele><time>2026-04-26T09:30:06.892Z</time></trkpt><trkpt lat="42.2754317" lon="14.495745"><ele>10.0</ele><time>2026-04-26T09:30:08.892Z</time></trkpt><trkpt lat="42.27536" lon="14.49585"><ele>11.0</ele><time>2026-04-26T09:30:10.891Z</time></trkpt><trkpt lat="42.2752833" lon="14.4959717"><ele>12.0</ele><time>2026-04-26T09:30:12.891Z</time></trkpt><trkpt lat="42.2752333" lon="14.4960317"><ele>13.0</ele><time>2026-04-26T09:30:13.891Z</time></trkpt><trkpt lat="42.2751667" lon="14.4960867"><ele>14.0</ele><time>2026-04-26T09:30:14.891Z</time></trkpt><trkpt lat="42.2751183" lon="14.496145"><ele>15.0</ele><time>2026-04-26T09:30:15.892Z</time></trkpt><trkpt lat="42.2750283" lon="14.49625"><ele>15.571428571428573</ele><time>2026-04-26T09:30:17.892Z</time></trkpt><trkpt lat="42.2749817" lon="14.4963083"><ele>16.142857142857142</ele><time>2026-04-26T09:30:18.892Z</time></trkpt><trkpt lat="42.2749317" lon="14.4963667"><ele>16.714285714285715</ele><time>2026-04-26T09:30:19.892Z</time></trkpt><trkpt lat="42.2748867" lon="14.4964267"><ele>17.285714285714285</ele><time>2026-04-26T09:30:20.892Z</time></trkpt><trkpt lat="42.27484" lon="14.4964867"><ele>17.857142857142858</ele><time>2026-04-26T09:30:21.892Z</time></trkpt><trkpt lat="42.2747867" lon="14.4965533"><ele>18.428571428571427</ele><time>2026-04-26T09:30:22.892Z</time></trkpt><trkpt lat="42.2747383" lon="14.4966183"><ele>19.0</ele><time>2026-04-26T09:30:23.892Z</time></trkpt><trkpt lat="42.27469" lon="14.4966917"><ele>19.0</ele><time>2026-04-26T09:30:24.892Z</time></trkpt><trkpt lat="42.2746467" lon="14.4967683"><ele>19.0</ele><time>2026-04-26T09:30:25.892Z</time></trkpt><trkpt lat="42.2745983" lon="14.4968417"><ele>19.0</ele><time>2026-04-26T09:30:26.892Z</time></trkpt><trkpt lat="42.274555" lon="14.49691"><ele>19.0</ele><time>2026-04-26T09:30:27.892Z</time></trkpt><trkpt lat="42.27451" lon="14.49698"><ele>19.0</ele><time>2026-04-26T09:30:28.892Z</time></trkpt><trkpt lat="42.2744633" lon="14.4970533"><ele>19.0</ele><time>2026-04-26T09:30:29.891Z</time></trkpt><trkpt lat="42.2744183" lon="14.497125"><ele>19.0</ele><time>2026-04-26T09:30:30.892Z</time></trkpt><trkpt lat="42.2743733" lon="14.497195"><ele>17.0</ele><time>2026-04-26T09:30:31.891Z</time></trkpt><trkpt lat="42.2743317" lon="14.4972617"><ele>15.0</ele><time>2026-04-26T09:30:32.891Z</time></trkpt><trkpt lat="42.2742833" lon="14.49733"><ele>13.0</ele><time>2026-04-26T09:30:33.891Z</time></trkpt><trkpt lat="42.2742433" lon="14.4974"><ele>11.0</ele><time>2026-04-26T09:30:34.892Z</time></trkpt><trkpt lat="42.27418" lon="14.4975433"><ele>9.0</ele><time>2026-04-26T09:30:36.892Z</time></trkpt><trkpt lat="42.27412" lon="14.497675"><ele>7.0</ele><time>2026-04-26T09:30:38.892Z</time></trkpt><trkpt lat="42.27405" lon="14.4978217"><ele>7.0</ele><time>2026-04-26T09:30:40.891Z</time></trkpt><trkpt lat="42.274015" lon="14.4978967"><ele>7.0</ele><time>2026-04-26T09:30:41.892Z</time></trkpt><trkpt lat="42.2739833" lon="14.4979717"><ele>7.0</ele><time>2026-04-26T09:30:42.892Z</time></trkpt><trkpt lat="42.2739533" lon="14.4980517"><ele>7.0</ele><time>2026-04-26T09:30:43.891Z</time></trkpt><trkpt lat="42.2739217" lon="14.4981317"><ele>7.0</ele><time>2026-04-26T09:30:44.892Z</time></trkpt><trkpt lat="42.2738933" lon="14.4982133"><ele>7.0</ele><time>2026-04-26T09:30:45.892Z</time></trkpt><trkpt lat="42.273865" lon="14.4982933"><ele>7.0</ele><time>2026-04-26T09:30:46.891Z</time></trkpt><trkpt lat="42.273835" lon="14.4983717"><ele>7.166666666666667</ele><time>2026-04-26T09:30:47.891Z</time></trkpt><trkpt lat="42.2737833" lon="14.49853"><ele>7.333333333333334</ele><time>2026-04-26T09:30:49.892Z</time></trkpt><trkpt lat="42.273755" lon="14.4986083"><ele>7.5</ele><time>2026-04-26T09:30:50.892Z</time></trkpt><trkpt lat="42.2737283" lon="14.49869"><ele>7.666666666666666</ele><time>2026-04-26T09:30:51.891Z</time></trkpt><trkpt lat="42.2736967" lon="14.49877"><ele>7.833333333333333</ele><time>2026-04-26T09:30:52.891Z</time></trkpt><trkpt lat="42.2736667" lon="14.4988467"><ele>8.0</ele><time>2026-04-26T09:30:53.891Z</time></trkpt><trkpt lat="42.2736133" lon="14.4989983"><ele>8.0</ele><time>2026-04-26T09:30:55.891Z</time></trkpt><trkpt lat="42.273565" lon="14.4991367"><ele>8.0</ele><time>2026-04-26T09:30:57.892Z</time></trkpt><trkpt lat="42.2735067" lon="14.4992683"><ele>8.0</ele><time>2026-04-26T09:30:59.892Z</time></trkpt><trkpt lat="42.2734533" lon="14.4994067"><ele>8.0</ele><time>2026-04-26T09:31:01.891Z</time></trkpt><trkpt lat="42.2733967" lon="14.4995417"><ele>7.2</ele><time>2026-04-26T09:31:03.892Z</time></trkpt><trkpt lat="42.27334" lon="14.4996767"><ele>6.4</ele><time>2026-04-26T09:31:05.892Z</time></trkpt><trkpt lat="42.2732817" lon="14.4998"><ele>5.6000000000000005</ele><time>2026-04-26T09:31:07.892Z</time></trkpt><trkpt lat="42.27322" lon="14.499905"><ele>4.800000000000001</ele><time>2026-04-26T09:31:09.892Z</time></trkpt><trkpt lat="42.273165" lon="14.5000167"><ele>4.0</ele><time>2026-04-26T09:31:11.892Z</time></trkpt><trkpt lat="42.2730933" lon="14.5001433"><ele>5.5</ele><time>2026-04-26T09:31:13.891Z</time></trkpt><trkpt lat="42.2730233" lon="14.5002667"><ele>7.0</ele><time>2026-04-26T09:31:15.891Z</time></trkpt><trkpt lat="42.2729583" lon="14.50038"><ele>8.5</ele><time>2026-04-26T09:31:17.892Z</time></trkpt><trkpt lat="42.272885" lon="14.50051"><ele>10.0</ele><time>2026-04-26T09:31:19.892Z</time></trkpt><trkpt lat="42.2728017" lon="14.5006367"><ele>10.0</ele><time>2026-04-26T09:31:21.892Z</time></trkpt><trkpt lat="42.2727133" lon="14.5007567"><ele>10.0</ele><time>2026-04-26T09:31:23.892Z</time></trkpt><trkpt lat="42.2726633" lon="14.5008167"><ele>10.0</ele><time>2026-04-26T09:31:24.892Z</time></trkpt><trkpt lat="42.2726133" lon="14.5008767"><ele>10.0</ele><time>2026-04-26T09:31:25.891Z</time></trkpt><trkpt lat="42.272525" lon="14.50099"><ele>10.0</ele><time>2026-04-26T09:31:27.891Z</time></trkpt><trkpt lat="42.272435" lon="14.5010867"><ele>10.0</ele><time>2026-04-26T09:31:29.892Z</time></trkpt><trkpt lat="42.272365" lon="14.5011767"><ele>10.0</ele><time>2026-04-26T09:31:31.892Z</time></trkpt><trkpt lat="42.2722833" lon="14.5012717"><ele>10.0</ele><time>2026-04-26T09:31:33.892Z</time></trkpt><trkpt lat="42.2721933" lon="14.5013517"><ele>10.0</ele><time>2026-04-26T09:31:35.892Z</time></trkpt><trkpt lat="42.2721067" lon="14.5014333"><ele>10.0</ele><time>2026-04-26T09:31:37.892Z</time></trkpt><trkpt lat="42.2720167" lon="14.50152"><ele>10.333333333333334</ele><time>2026-04-26T09:31:39.892Z</time></trkpt><trkpt lat="42.271925" lon="14.501615"><ele>10.666666666666668</ele><time>2026-04-26T09:31:41.891Z</time></trkpt><trkpt lat="42.2718667" lon="14.501655"><ele>11.0</ele><time>2026-04-26T09:31:42.892Z</time></trkpt><trkpt lat="42.2718117" lon="14.5017"><ele>11.333333333333334</ele><time>2026-04-26T09:31:43.892Z</time></trkpt><trkpt lat="42.2717483" lon="14.50175"><ele>11.666666666666666</ele><time>2026-04-26T09:31:44.892Z</time></trkpt><trkpt lat="42.2716867" lon="14.5017867"><ele>12.0</ele><time>2026-04-26T09:31:45.892Z</time></trkpt><trkpt lat="42.271625" lon="14.5018267"><ele>12.0</ele><time>2026-04-26T09:31:46.892Z</time></trkpt><trkpt lat="42.2715667" lon="14.5018667"><ele>12.0</ele><time>2026-04-26T09:31:47.891Z</time></trkpt><trkpt lat="42.2714617" lon="14.501945"><ele>12.0</ele><time>2026-04-26T09:31:49.891Z</time></trkpt><trkpt lat="42.27135" lon="14.5020167"><ele>12.0</ele><time>2026-04-26T09:31:51.891Z</time></trkpt><trkpt lat="42.271225" lon="14.5020783"><ele>12.0</ele><time>2026-04-26T09:31:53.891Z</time></trkpt><trkpt lat="42.2711633" lon="14.502105"><ele>11.0</ele><time>2026-04-26T09:31:54.891Z</time></trkpt><trkpt lat="42.271075" lon="14.5021517"><ele>10.0</ele><time>2026-04-26T09:31:56.892Z</time></trkpt><trkpt lat="42.2709783" lon="14.50221"><ele>9.0</ele><time>2026-04-26T09:31:58.892Z</time></trkpt><trkpt lat="42.27087" lon="14.50226"><ele>8.0</ele><time>2026-04-26T09:32:00.892Z</time></trkpt><trkpt lat="42.2707533" lon="14.5022983"><ele>7.0</ele><time>2026-04-26T09:32:02.892Z</time></trkpt><trkpt lat="42.270685" lon="14.5023167"><ele>7.000000000000001</ele><time>2026-04-26T09:32:03.891Z</time></trkpt><trkpt lat="42.2706167" lon="14.5023383"><ele>7.0</ele><time>2026-04-26T09:32:04.891Z</time></trkpt><trkpt lat="42.2705467" lon="14.5023633"><ele>7.0</ele><time>2026-04-26T09:32:05.892Z</time></trkpt><trkpt lat="42.2704817" lon="14.5023867"><ele>7.0</ele><time>2026-04-26T09:32:06.892Z</time></trkpt><trkpt lat="42.2703583" lon="14.5024167"><ele>7.000000000000001</ele><time>2026-04-26T09:32:08.891Z</time></trkpt><trkpt lat="42.2702917" lon="14.5024283"><ele>7.0</ele><time>2026-04-26T09:32:09.891Z</time></trkpt><trkpt lat="42.2702233" lon="14.5024367"><ele>7.0</ele><time>2026-04-26T09:32:10.892Z</time></trkpt><trkpt lat="42.27015" lon="14.5024367"><ele>7.0</ele><time>2026-04-26T09:32:11.892Z</time></trkpt><trkpt lat="42.270075" lon="14.5024483"><ele>7.0</ele><time>2026-04-26T09:32:12.892Z</time></trkpt><trkpt lat="42.2700017" lon="14.5024633"><ele>7.0</ele><time>2026-04-26T09:32:13.892Z</time></trkpt><trkpt lat="42.2699267" lon="14.5024733"><ele>7.0</ele><time>2026-04-26T09:32:14.892Z</time></trkpt><trkpt lat="42.2698567" lon="14.5024733"><ele>7.0</ele><time>2026-04-26T09:32:15.892Z</time></trkpt><trkpt lat="42.2697883" lon="14.502475"><ele>7.0</ele><time>2026-04-26T09:32:16.891Z</time></trkpt><trkpt lat="42.2697233" lon="14.50248"><ele>7.333333333333334</ele><time>2026-04-26T09:32:17.892Z</time></trkpt><trkpt lat="42.26965" lon="14.5024767"><ele>7.666666666666667</ele><time>2026-04-26T09:32:18.892Z</time></trkpt><trkpt lat="42.26958" lon="14.5024733"><ele>8.0</ele><time>2026-04-26T09:32:19.892Z</time></trkpt><trkpt lat="42.2695167" lon="14.5024733"><ele>8.333333333333334</ele><time>2026-04-26T09:32:20.892Z</time></trkpt><trkpt lat="42.2693883" lon="14.50247"><ele>8.666666666666666</ele><time>2026-04-26T09:32:22.892Z</time></trkpt><trkpt lat="42.2693167" lon="14.50247"><ele>9.0</ele><time>2026-04-26T09:32:23.892Z</time></trkpt><trkpt lat="42.2692483" lon="14.5024617"><ele>9.000000000000002</ele><time>2026-04-26T09:32:24.892Z</time></trkpt><trkpt lat="42.2691833" lon="14.502455"><ele>9.0</ele><time>2026-04-26T09:32:25.892Z</time></trkpt><trkpt lat="42.2691133" lon="14.502455"><ele>9.0</ele><time>2026-04-26T09:32:26.892Z</time></trkpt><trkpt lat="42.26903" lon="14.5024517"><ele>9.0</ele><time>2026-04-26T09:32:27.891Z</time></trkpt><trkpt lat="42.2689567" lon="14.502455"><ele>9.0</ele><time>2026-04-26T09:32:28.892Z</time></trkpt><trkpt lat="42.2688833" lon="14.502435"><ele>9.000000000000002</ele><time>2026-04-26T09:32:29.892Z</time></trkpt><trkpt lat="42.26881" lon="14.5024117"><ele>9.0</ele><time>2026-04-26T09:32:30.892Z</time></trkpt><trkpt lat="42.2687367" lon="14.5023867"><ele>8.571428571428573</ele><time>2026-04-26T09:32:31.891Z</time></trkpt><trkpt lat="42.2686617" lon="14.5023617"><ele>8.142857142857142</ele><time>2026-04-26T09:32:32.892Z</time></trkpt><trkpt lat="42.268595" lon="14.5023433"><ele>7.714285714285714</ele><time>2026-04-26T09:32:33.891Z</time></trkpt><trkpt lat="42.2685233" lon="14.50232"><ele>7.2857142857142865</ele><time>2026-04-26T09:32:34.891Z</time></trkpt><trkpt lat="42.2684533" lon="14.5022983"><ele>6.857142857142858</ele><time>2026-04-26T09:32:35.892Z</time></trkpt><trkpt lat="42.2683833" lon="14.5022817"><ele>6.428571428571428</ele><time>2026-04-26T09:32:36.891Z</time></trkpt><trkpt lat="42.26832" lon="14.502255"><ele>6.0</ele><time>2026-04-26T09:32:37.892Z</time></trkpt><trkpt lat="42.268255" lon="14.5022317"><ele>6.0</ele><time>2026-04-26T09:32:38.892Z</time></trkpt><trkpt lat="42.2681883" lon="14.5022067"><ele>6.0</ele><time>2026-04-26T09:32:39.892Z</time></trkpt><trkpt lat="42.268065" lon="14.5021467"><ele>6.0</ele><time>2026-04-26T09:32:41.892Z</time></trkpt><trkpt lat="42.2680017" lon="14.5021117"><ele>6.0</ele><time>2026-04-26T09:32:42.892Z</time></trkpt><trkpt lat="42.2679367" lon="14.5020733"><ele>6.0</ele><time>2026-04-26T09:32:43.892Z</time></trkpt><trkpt lat="42.2678683" lon="14.5020417"><ele>6.0</ele><time>2026-04-26T09:32:44.891Z</time></trkpt><trkpt lat="42.2677967" lon="14.5020167"><ele>6.571428571428571</ele><time>2026-04-26T09:32:45.892Z</time></trkpt><trkpt lat="42.26773" lon="14.50198"><ele>7.142857142857142</ele><time>2026-04-26T09:32:46.891Z</time></trkpt><trkpt lat="42.267665" lon="14.5019367"><ele>7.7142857142857135</ele><time>2026-04-26T09:32:47.892Z</time></trkpt><trkpt lat="42.2676" lon="14.5018917"><ele>8.285714285714285</ele><time>2026-04-26T09:32:48.892Z</time></trkpt><trkpt lat="42.267535" lon="14.50185"><ele>8.857142857142858</ele><time>2026-04-26T09:32:49.891Z</time></trkpt><trkpt lat="42.2674717" lon="14.501815"><ele>9.428571428571429</ele><time>2026-04-26T09:32:50.892Z</time></trkpt><trkpt lat="42.2674083" lon="14.501775"><ele>10.0</ele><time>2026-04-26T09:32:51.892Z</time></trkpt><trkpt lat="42.2673433" lon="14.5017317"><ele>10.0</ele><time>2026-04-26T09:32:52.891Z</time></trkpt><trkpt lat="42.2672883" lon="14.5016867"><ele>10.0</ele><time>2026-04-26T09:32:53.892Z</time></trkpt><trkpt lat="42.267225" lon="14.5016433"><ele>10.0</ele><time>2026-04-26T09:32:54.891Z</time></trkpt><trkpt lat="42.26716" lon="14.5015983"><ele>10.0</ele><time>2026-04-26T09:32:55.891Z</time></trkpt><trkpt lat="42.2670967" lon="14.5015533"><ele>10.0</ele><time>2026-04-26T09:32:56.892Z</time></trkpt><trkpt lat="42.26703" lon="14.501515"><ele>10.0</ele><time>2026-04-26T09:32:57.891Z</time></trkpt><trkpt lat="42.266965" lon="14.50147"><ele>10.0</ele><time>2026-04-26T09:32:58.892Z</time></trkpt><trkpt lat="42.266905" lon="14.5014283"><ele>9.285714285714285</ele><time>2026-04-26T09:32:59.891Z</time></trkpt><trkpt lat="42.2668433" lon="14.501385"><ele>8.571428571428571</ele><time>2026-04-26T09:33:00.891Z</time></trkpt><trkpt lat="42.2667767" lon="14.501345"><ele>7.857142857142858</ele><time>2026-04-26T09:33:01.891Z</time></trkpt><trkpt lat="42.266715" lon="14.5013117"><ele>7.142857142857142</ele><time>2026-04-26T09:33:02.892Z</time></trkpt><trkpt lat="42.266655" lon="14.50128"><ele>6.428571428571429</ele><time>2026-04-26T09:33:03.891Z</time></trkpt><trkpt lat="42.2665933" lon="14.50124"><ele>5.714285714285714</ele><time>2026-04-26T09:33:04.892Z</time></trkpt><trkpt lat="42.2665317" lon="14.5012083"><ele>5.0</ele><time>2026-04-26T09:33:05.892Z</time></trkpt><trkpt lat="42.2664633" lon="14.50118"><ele>7.0</ele><time>2026-04-26T09:33:06.892Z</time></trkpt><trkpt lat="42.2663967" lon="14.5011533"><ele>9.0</ele><time>2026-04-26T09:33:07.892Z</time></trkpt><trkpt lat="42.2662833" lon="14.5011117"><ele>11.0</ele><time>2026-04-26T09:33:09.891Z</time></trkpt><trkpt lat="42.2661817" lon="14.5010717"><ele>13.0</ele><time>2026-04-26T09:33:11.892Z</time></trkpt><trkpt lat="42.2660867" lon="14.5010517"><ele>15.0</ele><time>2026-04-26T09:33:13.892Z</time></trkpt><trkpt lat="42.2659717" lon="14.50101"><ele>15.0</ele><time>2026-04-26T09:33:15.892Z</time></trkpt><trkpt lat="42.265865" lon="14.5009767"><ele>15.0</ele><time>2026-04-26T09:33:17.892Z</time></trkpt><trkpt lat="42.2657517" lon="14.5009683"><ele>15.0</ele><time>2026-04-26T09:33:19.892Z</time></trkpt><trkpt lat="42.2656267" lon="14.5009333"><ele>15.0</ele><time>2026-04-26T09:33:21.891Z</time></trkpt><trkpt lat="42.2655633" lon="14.50091"><ele>15.0</ele><time>2026-04-26T09:33:22.892Z</time></trkpt><trkpt lat="42.26544" lon="14.5008883"><ele>13.8</ele><time>2026-04-26T09:33:24.891Z</time></trkpt><trkpt lat="42.2653217" lon="14.5008783"><ele>12.6</ele><time>2026-04-26T09:33:26.892Z</time></trkpt><trkpt lat="42.2652033" lon="14.5008683"><ele>11.4</ele><time>2026-04-26T09:33:28.891Z</time></trkpt><trkpt lat="42.2651367" lon="14.5008683"><ele>10.2</ele><time>2026-04-26T09:33:29.892Z</time></trkpt><trkpt lat="42.265015" lon="14.5008733"><ele>9.0</ele><time>2026-04-26T09:33:31.892Z</time></trkpt><trkpt lat="42.2648817" lon="14.5008933"><ele>9.0</ele><time>2026-04-26T09:33:33.892Z</time></trkpt><trkpt lat="42.264805" lon="14.50084"><ele>9.0</ele><time>2026-04-26T09:33:34.891Z</time></trkpt><trkpt lat="42.264725" lon="14.5008367"><ele>9.0</ele><time>2026-04-26T09:33:35.892Z</time></trkpt><trkpt lat="42.2646517" lon="14.5008283"><ele>9.0</ele><time>2026-04-26T09:33:36.892Z</time></trkpt><trkpt lat="42.26458" lon="14.5008183"><ele>9.0</ele><time>2026-04-26T09:33:37.891Z</time></trkpt><trkpt lat="42.2644683" lon="14.5008033"><ele>9.0</ele><time>2026-04-26T09:33:39.892Z</time></trkpt><trkpt lat="42.2643483" lon="14.500795"><ele>8.833333333333334</ele><time>2026-04-26T09:33:41.892Z</time></trkpt><trkpt lat="42.2642833" lon="14.500795"><ele>8.666666666666666</ele><time>2026-04-26T09:33:42.892Z</time></trkpt><trkpt lat="42.26422" lon="14.5007933"><ele>8.5</ele><time>2026-04-26T09:33:43.892Z</time></trkpt><trkpt lat="42.264155" lon="14.50079"><ele>8.333333333333332</ele><time>2026-04-26T09:33:44.891Z</time></trkpt><trkpt lat="42.2640733" lon="14.500785"><ele>8.166666666666666</ele><time>2026-04-26T09:33:45.892Z</time></trkpt><trkpt lat="42.2639483" lon="14.50078"><ele>8.0</ele><time>2026-04-26T09:33:47.892Z</time></trkpt><trkpt lat="42.2638817" lon="14.50078"><ele>7.999999999999999</ele><time>2026-04-26T09:33:48.892Z</time></trkpt><trkpt lat="42.2638133" lon="14.5007833"><ele>8.0</ele><time>2026-04-26T09:33:49.892Z</time></trkpt><trkpt lat="42.263745" lon="14.5007817"><ele>8.0</ele><time>2026-04-26T09:33:50.891Z</time></trkpt><trkpt lat="42.26368" lon="14.500775"><ele>8.0</ele><time>2026-04-26T09:33:51.892Z</time></trkpt><trkpt lat="42.2635517" lon="14.50076"><ele>7.999999999999999</ele><time>2026-04-26T09:33:53.892Z</time></trkpt><trkpt lat="42.2634883" lon="14.5007533"><ele>8.0</ele><time>2026-04-26T09:33:54.891Z</time></trkpt><trkpt lat="42.2634183" lon="14.5007533"><ele>8.0</ele><time>2026-04-26T09:33:55.892Z</time></trkpt><trkpt lat="42.2633483" lon="14.50075"><ele>7.999999999999999</ele><time>2026-04-26T09:33:56.892Z</time></trkpt><trkpt lat="42.263285" lon="14.500745"><ele>8.0</ele><time>2026-04-26T09:33:57.892Z</time></trkpt><trkpt lat="42.2632167" lon="14.5007417"><ele>8.0</ele><time>2026-04-26T09:33:58.892Z</time></trkpt><trkpt lat="42.2631517" lon="14.5007367"><ele>7.999999999999999</ele><time>2026-04-26T09:33:59.892Z</time></trkpt><trkpt lat="42.26308" lon="14.5007317"><ele>8.0</ele><time>2026-04-26T09:34:00.891Z</time></trkpt><trkpt lat="42.2630067" lon="14.5007233"><ele>8.0</ele><time>2026-04-26T09:34:01.891Z</time></trkpt><trkpt lat="42.2629417" lon="14.5007133"><ele>7.666666666666666</ele><time>2026-04-26T09:34:02.891Z</time></trkpt><trkpt lat="42.2628717" lon="14.5007083"><ele>7.333333333333333</ele><time>2026-04-26T09:34:03.891Z</time></trkpt><trkpt lat="42.262745" lon="14.5006983"><ele>7.0</ele><time>2026-04-26T09:34:05.892Z</time></trkpt><trkpt lat="42.2626767" lon="14.5007"><ele>6.666666666666666</ele><time>2026-04-26T09:34:06.891Z</time></trkpt><trkpt lat="42.2626083" lon="14.5007033"><ele>6.333333333333333</ele><time>2026-04-26T09:34:07.892Z</time></trkpt><trkpt lat="42.2625417" lon="14.5007033"><ele>6.0</ele><time>2026-04-26T09:34:08.892Z</time></trkpt><trkpt lat="42.2624783" lon="14.5007"><ele>5.999999999999999</ele><time>2026-04-26T09:34:09.892Z</time></trkpt><trkpt lat="42.2624117" lon="14.5006933"><ele>6.0</ele><time>2026-04-26T09:34:10.892Z</time></trkpt><trkpt lat="42.2623433" lon="14.5006883"><ele>6.0</ele><time>2026-04-26T09:34:11.891Z</time></trkpt><trkpt lat="42.2622767" lon="14.500685"><ele>6.0</ele><time>2026-04-26T09:34:12.891Z</time></trkpt><trkpt lat="42.2622083" lon="14.50068"><ele>6.0</ele><time>2026-04-26T09:34:13.891Z</time></trkpt><trkpt lat="42.2621417" lon="14.5006783"><ele>5.999999999999999</ele><time>2026-04-26T09:34:14.891Z</time></trkpt><trkpt lat="42.2620717" lon="14.5006717"><ele>6.0</ele><time>2026-04-26T09:34:15.891Z</time></trkpt><trkpt lat="42.2620033" lon="14.5006783"><ele>6.0</ele><time>2026-04-26T09:34:16.892Z</time></trkpt><trkpt lat="42.261935" lon="14.5006883"><ele>6.0</ele><time>2026-04-26T09:34:17.892Z</time></trkpt><trkpt lat="42.2618683" lon="14.50069"><ele>6.0</ele><time>2026-04-26T09:34:18.892Z</time></trkpt><trkpt lat="42.2617433" lon="14.5006933"><ele>6.0</ele><time>2026-04-26T09:34:20.892Z</time></trkpt><trkpt lat="42.2616733" lon="14.500695"><ele>6.0</ele><time>2026-04-26T09:34:21.892Z</time></trkpt><trkpt lat="42.26155" lon="14.5006967"><ele>6.0</ele><time>2026-04-26T09:34:23.891Z</time></trkpt><trkpt lat="42.2614233" lon="14.50071"><ele>6.0</ele><time>2026-04-26T09:34:25.891Z</time></trkpt><trkpt lat="42.26136" lon="14.5007217"><ele>6.0</ele><time>2026-04-26T09:34:26.892Z</time></trkpt><trkpt lat="42.2612367" lon="14.500735"><ele>6.0</ele><time>2026-04-26T09:34:28.891Z</time></trkpt><trkpt lat="42.2611733" lon="14.5007483"><ele>6.0</ele><time>2026-04-26T09:34:29.892Z</time></trkpt><trkpt lat="42.2611083" lon="14.5007567"><ele>6.0</ele><time>2026-04-26T09:34:30.892Z</time></trkpt><trkpt lat="42.2610383" lon="14.5007717"><ele>5.999999999999999</ele><time>2026-04-26T09:34:31.892Z</time></trkpt><trkpt lat="42.2609717" lon="14.500785"><ele>6.0</ele><time>2026-04-26T09:34:32.892Z</time></trkpt><trkpt lat="42.2609017" lon="14.5008033"><ele>6.0</ele><time>2026-04-26T09:34:33.892Z</time></trkpt><trkpt lat="42.2608333" lon="14.500825"><ele>6.0</ele><time>2026-04-26T09:34:34.892Z</time></trkpt><trkpt lat="42.2607717" lon="14.5008517"><ele>6.0</ele><time>2026-04-26T09:34:35.891Z</time></trkpt><trkpt lat="42.2607083" lon="14.5008717"><ele>5.999999999999999</ele><time>2026-04-26T09:34:36.892Z</time></trkpt><trkpt lat="42.2606417" lon="14.5008967"><ele>6.0</ele><time>2026-04-26T09:34:37.892Z</time></trkpt><trkpt lat="42.2605733" lon="14.500925"><ele>7.0</ele><time>2026-04-26T09:34:38.892Z</time></trkpt><trkpt lat="42.260505" lon="14.5009467"><ele>8.0</ele><time>2026-04-26T09:34:39.891Z</time></trkpt><trkpt lat="42.2604383" lon="14.50097"><ele>9.0</ele><time>2026-04-26T09:34:40.891Z</time></trkpt><trkpt lat="42.2603683" lon="14.5010017"><ele>10.0</ele><time>2026-04-26T09:34:41.892Z</time></trkpt><trkpt lat="42.2603017" lon="14.5010367"><ele>11.0</ele><time>2026-04-26T09:34:42.892Z</time></trkpt><trkpt lat="42.26024" lon="14.5010733"><ele>12.0</ele><time>2026-04-26T09:34:43.892Z</time></trkpt><trkpt lat="42.2601767" lon="14.50111"><ele>13.0</ele><time>2026-04-26T09:34:44.892Z</time></trkpt><trkpt lat="42.260115" lon="14.501145"><ele>13.0</ele><time>2026-04-26T09:34:45.891Z</time></trkpt><trkpt lat="42.2600517" lon="14.5011783"><ele>13.0</ele><time>2026-04-26T09:34:46.892Z</time></trkpt><trkpt lat="42.2599883" lon="14.50121"><ele>13.0</ele><time>2026-04-26T09:34:47.892Z</time></trkpt><trkpt lat="42.2599283" lon="14.5012483"><ele>13.0</ele><time>2026-04-26T09:34:48.891Z</time></trkpt><trkpt lat="42.25987" lon="14.5012817"><ele>13.0</ele><time>2026-04-26T09:34:49.891Z</time></trkpt><trkpt lat="42.25981" lon="14.5013233"><ele>13.0</ele><time>2026-04-26T09:34:50.891Z</time></trkpt><trkpt lat="42.259745" lon="14.5013633"><ele>13.0</ele><time>2026-04-26T09:34:51.892Z</time></trkpt><trkpt lat="42.2596833" lon="14.5014017"><ele>12.0</ele><time>2026-04-26T09:34:52.891Z</time></trkpt><trkpt lat="42.259625" lon="14.50144"><ele>11.0</ele><time>2026-04-26T09:34:53.892Z</time></trkpt><trkpt lat="42.2595633" lon="14.5014783"><ele>10.0</ele><time>2026-04-26T09:34:54.892Z</time></trkpt><trkpt lat="42.2595083" lon="14.5015217"><ele>9.0</ele><time>2026-04-26T09:34:55.891Z</time></trkpt><trkpt lat="42.2594517" lon="14.5015633"><ele>8.0</ele><time>2026-04-26T09:34:56.892Z</time></trkpt><trkpt lat="42.2593933" lon="14.501605"><ele>7.0</ele><time>2026-04-26T09:34:57.891Z</time></trkpt><trkpt lat="42.2593333" lon="14.5016517"><ele>6.0</ele><time>2026-04-26T09:34:58.892Z</time></trkpt><trkpt lat="42.2592767" lon="14.5016967"><ele>6.0</ele><time>2026-04-26T09:34:59.891Z</time></trkpt><trkpt lat="42.2591683" lon="14.5017817"><ele>6.0</ele><time>2026-04-26T09:35:01.891Z</time></trkpt><trkpt lat="42.25907" lon="14.5018617"><ele>6.0</ele><time>2026-04-26T09:35:03.892Z</time></trkpt><trkpt lat="42.2589733" lon="14.5019283"><ele>6.0</ele><time>2026-04-26T09:35:05.892Z</time></trkpt><trkpt lat="42.258875" lon="14.5020183"><ele>6.142857142857142</ele><time>2026-04-26T09:35:07.891Z</time></trkpt><trkpt lat="42.25882" lon="14.50206"><ele>6.285714285714286</ele><time>2026-04-26T09:35:08.892Z</time></trkpt><trkpt lat="42.258765" lon="14.5021067"><ele>6.428571428571429</ele><time>2026-04-26T09:35:09.891Z</time></trkpt><trkpt lat="42.2587133" lon="14.5021567"><ele>6.571428571428571</ele><time>2026-04-26T09:35:10.892Z</time></trkpt><trkpt lat="42.25866" lon="14.5022083"><ele>6.714285714285714</ele><time>2026-04-26T09:35:11.892Z</time></trkpt><trkpt lat="42.2586067" lon="14.5022567"><ele>6.857142857142857</ele><time>2026-04-26T09:35:12.892Z</time></trkpt><trkpt lat="42.25855" lon="14.5023067"><ele>7.0</ele><time>2026-04-26T09:35:13.891Z</time></trkpt><trkpt lat="42.2584933" lon="14.502355"><ele>7.000000000000001</ele><time>2026-04-26T09:35:14.892Z</time></trkpt><trkpt lat="42.25844" lon="14.5024017"><ele>7.0</ele><time>2026-04-26T09:35:15.892Z</time></trkpt><trkpt lat="42.258335" lon="14.5024933"><ele>7.0</ele><time>2026-04-26T09:35:17.891Z</time></trkpt><trkpt lat="42.25828" lon="14.5025383"><ele>7.0</ele><time>2026-04-26T09:35:18.891Z</time></trkpt><trkpt lat="42.25822" lon="14.5025867"><ele>7.000000000000001</ele><time>2026-04-26T09:35:19.891Z</time></trkpt><trkpt lat="42.2581583" lon="14.50264"><ele>7.0</ele><time>2026-04-26T09:35:20.892Z</time></trkpt><trkpt lat="42.2581033" lon="14.5026883"><ele>6.8</ele><time>2026-04-26T09:35:21.892Z</time></trkpt><trkpt lat="42.2580433" lon="14.5027283"><ele>6.6</ele><time>2026-04-26T09:35:22.892Z</time></trkpt><trkpt lat="42.2579867" lon="14.5027767"><ele>6.3999999999999995</ele><time>2026-04-26T09:35:23.891Z</time></trkpt><trkpt lat="42.2578867" lon="14.5028683"><ele>6.199999999999999</ele><time>2026-04-26T09:35:25.891Z</time></trkpt><trkpt lat="42.257775" lon="14.502945"><ele>6.0</ele><time>2026-04-26T09:35:27.891Z</time></trkpt><trkpt lat="42.2576767" lon="14.503035"><ele>5.999999999999999</ele><time>2026-04-26T09:35:29.892Z</time></trkpt><trkpt lat="42.2576233" lon="14.5030833"><ele>6.0</ele><time>2026-04-26T09:35:30.892Z</time></trkpt><trkpt lat="42.2575617" lon="14.5031317"><ele>6.0</ele><time>2026-04-26T09:35:31.892Z</time></trkpt><trkpt lat="42.2575067" lon="14.5031783"><ele>6.0</ele><time>2026-04-26T09:35:32.891Z</time></trkpt><trkpt lat="42.257445" lon="14.5032183"><ele>6.0</ele><time>2026-04-26T09:35:33.892Z</time></trkpt><trkpt lat="42.2573883" lon="14.5032717"><ele>5.999999999999999</ele><time>2026-04-26T09:35:34.891Z</time></trkpt><trkpt lat="42.2573333" lon="14.5033233"><ele>6.0</ele><time>2026-04-26T09:35:35.892Z</time></trkpt><trkpt lat="42.25728" lon="14.5033767"><ele>5.857142857142857</ele><time>2026-04-26T09:35:36.892Z</time></trkpt><trkpt lat="42.2572233" lon="14.5034333"><ele>5.714285714285714</ele><time>2026-04-26T09:35:37.891Z</time></trkpt><trkpt lat="42.2571667" lon="14.50349"><ele>5.571428571428571</ele><time>2026-04-26T09:35:38.892Z</time></trkpt><trkpt lat="42.2570983" lon="14.5035467"><ele>5.428571428571429</ele><time>2026-04-26T09:35:39.892Z</time></trkpt><trkpt lat="42.2570333" lon="14.5035983"><ele>5.285714285714286</ele><time>2026-04-26T09:35:40.892Z</time></trkpt><trkpt lat="42.2569717" lon="14.5036483"><ele>5.142857142857142</ele><time>2026-04-26T09:35:41.891Z</time></trkpt><trkpt lat="42.2569117" lon="14.5036983"><ele>5.0</ele><time>2026-04-26T09:35:42.891Z</time></trkpt><trkpt lat="42.2568467" lon="14.5037483"><ele>5.0</ele><time>2026-04-26T09:35:43.891Z</time></trkpt><trkpt lat="42.25679" lon="14.503795"><ele>5.0</ele><time>2026-04-26T09:35:44.891Z</time></trkpt><trkpt lat="42.2567333" lon="14.5038417"><ele>5.0</ele><time>2026-04-26T09:35:45.892Z</time></trkpt><trkpt lat="42.2566733" lon="14.5038933"><ele>5.0</ele><time>2026-04-26T09:35:46.892Z</time></trkpt><trkpt lat="42.2566133" lon="14.503945"><ele>5.0</ele><time>2026-04-26T09:35:47.892Z</time></trkpt><trkpt lat="42.2565567" lon="14.504"><ele>5.0</ele><time>2026-04-26T09:35:48.892Z</time></trkpt><trkpt lat="42.2564983" lon="14.5040467"><ele>5.0</ele><time>2026-04-26T09:35:49.892Z</time></trkpt><trkpt lat="42.2564433" lon="14.504095"><ele>6.7142857142857135</ele><time>2026-04-26T09:35:50.892Z</time></trkpt><trkpt lat="42.2563867" lon="14.5041383"><ele>8.428571428571429</ele><time>2026-04-26T09:35:51.892Z</time></trkpt><trkpt lat="42.25633" lon="14.5041917"><ele>10.142857142857142</ele><time>2026-04-26T09:35:52.892Z</time></trkpt><trkpt lat="42.2562767" lon="14.5042417"><ele>11.857142857142856</ele><time>2026-04-26T09:35:53.891Z</time></trkpt><trkpt lat="42.2562233" lon="14.5042933"><ele>13.571428571428571</ele><time>2026-04-26T09:35:54.892Z</time></trkpt><trkpt lat="42.2561683" lon="14.5043383"><ele>15.285714285714283</ele><time>2026-04-26T09:35:55.892Z</time></trkpt><trkpt lat="42.2561117" lon="14.5043867"><ele>17.0</ele><time>2026-04-26T09:35:56.892Z</time></trkpt><trkpt lat="42.2560517" lon="14.5044317"><ele>16.999999999999996</ele><time>2026-04-26T09:35:57.892Z</time></trkpt><trkpt lat="42.2559917" lon="14.5044833"><ele>17.0</ele><time>2026-04-26T09:35:58.891Z</time></trkpt><trkpt lat="42.2559367" lon="14.5045333"><ele>17.0</ele><time>2026-04-26T09:35:59.892Z</time></trkpt><trkpt lat="42.25588" lon="14.5045717"><ele>17.0</ele><time>2026-04-26T09:36:00.892Z</time></trkpt><trkpt lat="42.25582" lon="14.5046133"><ele>17.0</ele><time>2026-04-26T09:36:01.892Z</time></trkpt><trkpt lat="42.255765" lon="14.5046617"><ele>16.999999999999996</ele><time>2026-04-26T09:36:02.892Z</time></trkpt><trkpt lat="42.2557117" lon="14.5047117"><ele>17.0</ele><time>2026-04-26T09:36:03.891Z</time></trkpt><trkpt lat="42.25561" lon="14.50481"><ele>16.2</ele><time>2026-04-26T09:36:05.891Z</time></trkpt><trkpt lat="42.255525" lon="14.5048617"><ele>15.399999999999999</ele><time>2026-04-26T09:36:06.892Z</time></trkpt><trkpt lat="42.2554617" lon="14.5049067"><ele>14.600000000000001</ele><time>2026-04-26T09:36:07.891Z</time></trkpt><trkpt lat="42.2554017" lon="14.5049467"><ele>13.8</ele><time>2026-04-26T09:36:08.891Z</time></trkpt><trkpt lat="42.2553117" lon="14.505035"><ele>13.0</ele><time>2026-04-26T09:36:10.892Z</time></trkpt><trkpt lat="42.2552233" lon="14.505125"><ele>12.999999999999998</ele><time>2026-04-26T09:36:12.892Z</time></trkpt><trkpt lat="42.2551317" lon="14.5052117"><ele>13.0</ele><time>2026-04-26T09:36:14.891Z</time></trkpt><trkpt lat="42.2550333" lon="14.5052983"><ele>13.0</ele><time>2026-04-26T09:36:16.891Z</time></trkpt><trkpt lat="42.2549783" lon="14.5053433"><ele>13.0</ele><time>2026-04-26T09:36:17.892Z</time></trkpt><trkpt lat="42.2549183" lon="14.50539"><ele>12.999999999999998</ele><time>2026-04-26T09:36:18.892Z</time></trkpt><trkpt lat="42.25486" lon="14.50544"><ele>13.0</ele><time>2026-04-26T09:36:19.892Z</time></trkpt><trkpt lat="42.254795" lon="14.5054933"><ele>12.333333333333332</ele><time>2026-04-26T09:36:20.892Z</time></trkpt><trkpt lat="42.2547267" lon="14.50555"><ele>11.666666666666666</ele><time>2026-04-26T09:36:21.892Z</time></trkpt><trkpt lat="42.25466" lon="14.5056033"><ele>11.0</ele><time>2026-04-26T09:36:22.892Z</time></trkpt><trkpt lat="42.2546" lon="14.5056567"><ele>10.333333333333332</ele><time>2026-04-26T09:36:23.892Z</time></trkpt><trkpt lat="42.2545417" lon="14.505715"><ele>9.666666666666666</ele><time>2026-04-26T09:36:24.892Z</time></trkpt><trkpt lat="42.2544817" lon="14.5057717"><ele>9.0</ele><time>2026-04-26T09:36:25.891Z</time></trkpt><trkpt lat="42.2544183" lon="14.5058267"><ele>9.0</ele><time>2026-04-26T09:36:26.891Z</time></trkpt><trkpt lat="42.2543583" lon="14.505875"><ele>9.0</ele><time>2026-04-26T09:36:27.892Z</time></trkpt><trkpt lat="42.2543033" lon="14.5059217"><ele>9.0</ele><time>2026-04-26T09:36:28.891Z</time></trkpt><trkpt lat="42.2542467" lon="14.5059683"><ele>9.0</ele><time>2026-04-26T09:36:29.891Z</time></trkpt><trkpt lat="42.2541917" lon="14.5060233"><ele>9.0</ele><time>2026-04-26T09:36:30.892Z</time></trkpt><trkpt lat="42.2540833" lon="14.506115"><ele>9.0</ele><time>2026-04-26T09:36:32.891Z</time></trkpt><trkpt lat="42.2540283" lon="14.5061583"><ele>9.0</ele><time>2026-04-26T09:36:33.892Z</time></trkpt><trkpt lat="42.2539717" lon="14.5061983"><ele>9.0</ele><time>2026-04-26T09:36:34.891Z</time></trkpt><trkpt lat="42.253865" lon="14.5062933"><ele>9.0</ele><time>2026-04-26T09:36:36.892Z</time></trkpt><trkpt lat="42.25381" lon="14.5063383"><ele>9.0</ele><time>2026-04-26T09:36:37.892Z</time></trkpt><trkpt lat="42.2537017" lon="14.506425"><ele>9.0</ele><time>2026-04-26T09:36:39.892Z</time></trkpt><trkpt lat="42.2536033" lon="14.5065117"><ele>8.6</ele><time>2026-04-26T09:36:41.891Z</time></trkpt><trkpt lat="42.2535033" lon="14.5065983"><ele>8.2</ele><time>2026-04-26T09:36:43.892Z</time></trkpt><trkpt lat="42.2533917" lon="14.5066783"><ele>7.799999999999999</ele><time>2026-04-26T09:36:45.891Z</time></trkpt><trkpt lat="42.2532867" lon="14.5067683"><ele>7.3999999999999995</ele><time>2026-04-26T09:36:47.892Z</time></trkpt><trkpt lat="42.25323" lon="14.5068133"><ele>7.0</ele><time>2026-04-26T09:36:48.892Z</time></trkpt><trkpt lat="42.25312" lon="14.5068967"><ele>6.8</ele><time>2026-04-26T09:36:50.891Z</time></trkpt><trkpt lat="42.253065" lon="14.5069417"><ele>6.6</ele><time>2026-04-26T09:36:51.892Z</time></trkpt><trkpt lat="42.2529567" lon="14.507025"><ele>6.3999999999999995</ele><time>2026-04-26T09:36:53.892Z</time></trkpt><trkpt lat="42.2528617" lon="14.507115"><ele>6.199999999999999</ele><time>2026-04-26T09:36:55.892Z</time></trkpt><trkpt lat="42.2527533" lon="14.5071917"><ele>6.0</ele><time>2026-04-26T09:36:57.892Z</time></trkpt><trkpt lat="42.2526933" lon="14.5072333"><ele>6.0</ele><time>2026-04-26T09:36:58.892Z</time></trkpt><trkpt lat="42.2526367" lon="14.5072783"><ele>6.0</ele><time>2026-04-26T09:36:59.892Z</time></trkpt><trkpt lat="42.25258" lon="14.5073233"><ele>6.0</ele><time>2026-04-26T09:37:00.892Z</time></trkpt><trkpt lat="42.2524767" lon="14.5074067"><ele>6.0</ele><time>2026-04-26T09:37:02.892Z</time></trkpt><trkpt lat="42.252385" lon="14.5074917"><ele>6.0</ele><time>2026-04-26T09:37:04.892Z</time></trkpt><trkpt lat="42.25229" lon="14.50757"><ele>6.199999999999999</ele><time>2026-04-26T09:37:06.892Z</time></trkpt><trkpt lat="42.2522017" lon="14.507645"><ele>6.3999999999999995</ele><time>2026-04-26T09:37:08.892Z</time></trkpt><trkpt lat="42.2521183" lon="14.5077217"><ele>6.6</ele><time>2026-04-26T09:37:10.892Z</time></trkpt><trkpt lat="42.2520383" lon="14.50779"><ele>6.8</ele><time>2026-04-26T09:37:12.892Z</time></trkpt><trkpt lat="42.25197" lon="14.5078817"><ele>7.0</ele><time>2026-04-26T09:37:14.891Z</time></trkpt><trkpt lat="42.25189" lon="14.5079533"><ele>7.000000000000001</ele><time>2026-04-26T09:37:16.891Z</time></trkpt><trkpt lat="42.2518133" lon="14.5080333"><ele>7.0</ele><time>2026-04-26T09:37:18.892Z</time></trkpt><trkpt lat="42.25175" lon="14.5081083"><ele>7.0</ele><time>2026-04-26T09:37:20.891Z</time></trkpt><trkpt lat="42.25169" lon="14.5081683"><ele>7.0</ele><time>2026-04-26T09:37:22.892Z</time></trkpt><trkpt lat="42.251635" lon="14.5082317"><ele>7.000000000000001</ele><time>2026-04-26T09:37:25.892Z</time></trkpt><trkpt lat="42.2515583" lon="14.5082383"><ele>7.0</ele><time>2026-04-26T09:37:31.892Z</time></trkpt><trkpt lat="42.2515067" lon="14.508325"><ele>8.0</ele><time>2026-04-26T09:37:34.892Z</time></trkpt><trkpt lat="42.251445" lon="14.5084017"><ele>9.0</ele><time>2026-04-26T09:37:37.892Z</time></trkpt><trkpt lat="42.2513683" lon="14.5084733"><ele>10.0</ele><time>2026-04-26T09:37:39.892Z</time></trkpt><trkpt lat="42.2512983" lon="14.5085683"><ele>11.0</ele><time>2026-04-26T09:37:41.892Z</time></trkpt><trkpt lat="42.2512283" lon="14.5086633"><ele>12.0</ele><time>2026-04-26T09:37:43.892Z</time></trkpt><trkpt lat="42.2511483" lon="14.508755"><ele>12.0</ele><time>2026-04-26T09:37:45.891Z</time></trkpt><trkpt lat="42.2510667" lon="14.5088433"><ele>12.0</ele><time>2026-04-26T09:37:47.892Z</time></trkpt><trkpt lat="42.2509817" lon="14.5089333"><ele>12.0</ele><time>2026-04-26T09:37:49.891Z</time></trkpt><trkpt lat="42.2508967" lon="14.5090183"><ele>12.0</ele><time>2026-04-26T09:37:51.891Z</time></trkpt><trkpt lat="42.2508033" lon="14.5090983"><ele>12.0</ele><time>2026-04-26T09:37:53.891Z</time></trkpt><trkpt lat="42.2507467" lon="14.5091383"><ele>12.0</ele><time>2026-04-26T09:37:54.892Z</time></trkpt><trkpt lat="42.250655" lon="14.5092417"><ele>12.0</ele><time>2026-04-26T09:37:56.891Z</time></trkpt><trkpt lat="42.2505717" lon="14.5093433"><ele>12.0</ele><time>2026-04-26T09:37:58.891Z</time></trkpt><trkpt lat="42.2504883" lon="14.5094467"><ele>12.0</ele><time>2026-04-26T09:38:00.892Z</time></trkpt><trkpt lat="42.250405" lon="14.5095567"><ele>11.8</ele><time>2026-04-26T09:38:02.892Z</time></trkpt><trkpt lat="42.2503617" lon="14.509625"><ele>11.6</ele><time>2026-04-26T09:38:03.892Z</time></trkpt><trkpt lat="42.2502767" lon="14.5097467"><ele>11.4</ele><time>2026-04-26T09:38:05.891Z</time></trkpt><trkpt lat="42.2501917" lon="14.50987"><ele>11.200000000000001</ele><time>2026-04-26T09:38:07.892Z</time></trkpt><trkpt lat="42.2501017" lon="14.5099833"><ele>11.0</ele><time>2026-04-26T09:38:09.891Z</time></trkpt><trkpt lat="42.2500167" lon="14.5101"><ele>11.0</ele><time>2026-04-26T09:38:11.891Z</time></trkpt><trkpt lat="42.2499367" lon="14.5102133"><ele>11.0</ele><time>2026-04-26T09:38:13.892Z</time></trkpt><trkpt lat="42.2498583" lon="14.5103367"><ele>11.0</ele><time>2026-04-26T09:38:15.892Z</time></trkpt><trkpt lat="42.2497733" lon="14.5104583"><ele>11.0</ele><time>2026-04-26T09:38:17.891Z</time></trkpt><trkpt lat="42.2496983" lon="14.5105833"><ele>12.0</ele><time>2026-04-26T09:38:19.892Z</time></trkpt><trkpt lat="42.2496267" lon="14.5107117"><ele>13.0</ele><time>2026-04-26T09:38:21.892Z</time></trkpt><trkpt lat="42.2495483" lon="14.5108367"><ele>14.0</ele><time>2026-04-26T09:38:23.892Z</time></trkpt><trkpt lat="42.24947" lon="14.51096"><ele>15.0</ele><time>2026-04-26T09:38:25.892Z</time></trkpt><trkpt lat="42.249395" lon="14.5110783"><ele>15.0</ele><time>2026-04-26T09:38:27.892Z</time></trkpt><trkpt lat="42.2493167" lon="14.5112"><ele>15.0</ele><time>2026-04-26T09:38:29.892Z</time></trkpt><trkpt lat="42.2492467" lon="14.5113183"><ele>15.0</ele><time>2026-04-26T09:38:31.892Z</time></trkpt><trkpt lat="42.2491733" lon="14.5114467"><ele>15.0</ele><time>2026-04-26T09:38:33.891Z</time></trkpt><trkpt lat="42.2491333" lon="14.5115133"><ele>15.0</ele><time>2026-04-26T09:38:34.892Z</time></trkpt><trkpt lat="42.2490533" lon="14.511635"><ele>15.25</ele><time>2026-04-26T09:38:36.891Z</time></trkpt><trkpt lat="42.2489783" lon="14.5117567"><ele>15.5</ele><time>2026-04-26T09:38:38.892Z</time></trkpt><trkpt lat="42.2489" lon="14.5118783"><ele>15.75</ele><time>2026-04-26T09:38:40.891Z</time></trkpt><trkpt lat="42.2488283" lon="14.5120067"><ele>16.0</ele><time>2026-04-26T09:38:42.891Z</time></trkpt><trkpt lat="42.2487517" lon="14.5122483"><ele>14.8</ele><time>2026-04-26T09:38:44.915Z</time></trkpt><trkpt lat="42.24864" lon="14.5122667"><ele>13.600000000000001</ele><time>2026-04-26T09:38:46.888Z</time></trkpt><trkpt lat="42.2485917" lon="14.5123617"><ele>12.4</ele><time>2026-04-26T09:38:48.387Z</time></trkpt><trkpt lat="42.2485433" lon="14.5124567"><ele>11.2</ele><time>2026-04-26T09:38:49.887Z</time></trkpt><trkpt lat="42.24847" lon="14.5125767"><ele>10.0</ele><time>2026-04-26T09:38:51.888Z</time></trkpt><trkpt lat="42.2483933" lon="14.5127"><ele>10.0</ele><time>2026-04-26T09:38:53.887Z</time></trkpt><trkpt lat="42.2483283" lon="14.5128183"><ele>10.0</ele><time>2026-04-26T09:38:55.887Z</time></trkpt><trkpt lat="42.2482583" lon="14.5129367"><ele>10.0</ele><time>2026-04-26T09:38:57.888Z</time></trkpt><trkpt lat="42.2481967" lon="14.51306"><ele>10.0</ele><time>2026-04-26T09:38:59.887Z</time></trkpt><trkpt lat="42.2481267" lon="14.5131783"><ele>10.0</ele><time>2026-04-26T09:39:01.888Z</time></trkpt><trkpt lat="42.2480517" lon="14.5132983"><ele>9.5</ele><time>2026-04-26T09:39:03.887Z</time></trkpt><trkpt lat="42.24797" lon="14.513415"><ele>9.0</ele><time>2026-04-26T09:39:05.888Z</time></trkpt><trkpt lat="42.2478917" lon="14.5135317"><ele>8.5</ele><time>2026-04-26T09:39:07.888Z</time></trkpt><trkpt lat="42.247815" lon="14.5136517"><ele>8.0</ele><time>2026-04-26T09:39:09.888Z</time></trkpt><trkpt lat="42.24774" lon="14.5137767"><ele>8.0</ele><time>2026-04-26T09:39:11.887Z</time></trkpt><trkpt lat="42.2476633" lon="14.5139033"><ele>8.0</ele><time>2026-04-26T09:39:13.888Z</time></trkpt><trkpt lat="42.247585" lon="14.5140233"><ele>8.0</ele><time>2026-04-26T09:39:15.888Z</time></trkpt><trkpt lat="42.2475117" lon="14.5141433"><ele>8.0</ele><time>2026-04-26T09:39:17.888Z</time></trkpt><trkpt lat="42.2474367" lon="14.5142633"><ele>8.0</ele><time>2026-04-26T09:39:19.888Z</time></trkpt><trkpt lat="42.2473667" lon="14.5143783"><ele>8.0</ele><time>2026-04-26T09:39:21.888Z</time></trkpt><trkpt lat="42.2472883" lon="14.5144883"><ele>8.0</ele><time>2026-04-26T09:39:23.887Z</time></trkpt><trkpt lat="42.24721" lon="14.514595"><ele>8.0</ele><time>2026-04-26T09:39:25.887Z</time></trkpt><trkpt lat="42.24714" lon="14.5147017"><ele>8.0</ele><time>2026-04-26T09:39:27.888Z</time></trkpt><trkpt lat="42.2470633" lon="14.5148167"><ele>9.2</ele><time>2026-04-26T09:39:29.888Z</time></trkpt><trkpt lat="42.24699" lon="14.5149217"><ele>10.4</ele><time>2026-04-26T09:39:31.888Z</time></trkpt><trkpt lat="42.246915" lon="14.5150317"><ele>11.599999999999998</ele><time>2026-04-26T09:39:33.888Z</time></trkpt><trkpt lat="42.246835" lon="14.51515"><ele>12.799999999999999</ele><time>2026-04-26T09:39:35.888Z</time></trkpt><trkpt lat="42.2467583" lon="14.5152533"><ele>14.0</ele><time>2026-04-26T09:39:37.888Z</time></trkpt><trkpt lat="42.2466717" lon="14.5153567"><ele>13.75</ele><time>2026-04-26T09:39:39.887Z</time></trkpt><trkpt lat="42.2465867" lon="14.5154667"><ele>13.5</ele><time>2026-04-26T09:39:41.888Z</time></trkpt><trkpt lat="42.2465167" lon="14.5155967"><ele>13.25</ele><time>2026-04-26T09:39:43.888Z</time></trkpt><trkpt lat="42.2464417" lon="14.515725"><ele>13.0</ele><time>2026-04-26T09:39:45.887Z</time></trkpt><trkpt lat="42.246375" lon="14.5158583"><ele>13.0</ele><time>2026-04-26T09:39:47.888Z</time></trkpt><trkpt lat="42.2463067" lon="14.51599"><ele>13.0</ele><time>2026-04-26T09:39:49.888Z</time></trkpt><trkpt lat="42.2462317" lon="14.51611"><ele>13.0</ele><time>2026-04-26T09:39:51.887Z</time></trkpt><trkpt lat="42.2461917" lon="14.5161767"><ele>13.0</ele><time>2026-04-26T09:39:52.888Z</time></trkpt><trkpt lat="42.2461217" lon="14.516315"><ele>13.0</ele><time>2026-04-26T09:39:54.887Z</time></trkpt><trkpt lat="42.24605" lon="14.5164483"><ele>11.8</ele><time>2026-04-26T09:39:56.888Z</time></trkpt><trkpt lat="42.2459733" lon="14.51658"><ele>10.600000000000001</ele><time>2026-04-26T09:39:58.887Z</time></trkpt><trkpt lat="42.2459333" lon="14.5166483"><ele>9.399999999999999</ele><time>2026-04-26T09:39:59.887Z</time></trkpt><trkpt lat="42.2458633" lon="14.516785"><ele>8.2</ele><time>2026-04-26T09:40:01.887Z</time></trkpt><trkpt lat="42.245795" lon="14.5169117"><ele>7.0</ele><time>2026-04-26T09:40:03.888Z</time></trkpt><trkpt lat="42.2457317" lon="14.5170283"><ele>6.75</ele><time>2026-04-26T09:40:05.888Z</time></trkpt><trkpt lat="42.2456567" lon="14.5171467"><ele>6.5</ele><time>2026-04-26T09:40:07.888Z</time></trkpt><trkpt lat="42.2455817" lon="14.5172633"><ele>6.25</ele><time>2026-04-26T09:40:09.888Z</time></trkpt><trkpt lat="42.2455083" lon="14.5173867"><ele>6.0</ele><time>2026-04-26T09:40:11.888Z</time></trkpt><trkpt lat="42.2454333" lon="14.5175067"><ele>6.199999999999999</ele><time>2026-04-26T09:40:13.887Z</time></trkpt><trkpt lat="42.2453917" lon="14.5175717"><ele>6.3999999999999995</ele><time>2026-04-26T09:40:14.887Z</time></trkpt><trkpt lat="42.2453217" lon="14.517705"><ele>6.6</ele><time>2026-04-26T09:40:16.888Z</time></trkpt><trkpt lat="42.2452467" lon="14.51783"><ele>6.8</ele><time>2026-04-26T09:40:18.888Z</time></trkpt><trkpt lat="42.2451767" lon="14.5179633"><ele>7.0</ele><time>2026-04-26T09:40:20.888Z</time></trkpt><trkpt lat="42.2451033" lon="14.5180967"><ele>7.0</ele><time>2026-04-26T09:40:22.887Z</time></trkpt><trkpt lat="42.2450333" lon="14.518215"><ele>7.0</ele><time>2026-04-26T09:40:24.888Z</time></trkpt><trkpt lat="42.24497" lon="14.5183417"><ele>7.0</ele><time>2026-04-26T09:40:26.888Z</time></trkpt><trkpt lat="42.2449083" lon="14.5184733"><ele>7.0</ele><time>2026-04-26T09:40:28.888Z</time></trkpt><trkpt lat="42.244845" lon="14.518605"><ele>7.5</ele><time>2026-04-26T09:40:30.888Z</time></trkpt><trkpt lat="42.24478" lon="14.5187383"><ele>8.0</ele><time>2026-04-26T09:40:32.887Z</time></trkpt><trkpt lat="42.2447167" lon="14.5188733"><ele>8.5</ele><time>2026-04-26T09:40:34.888Z</time></trkpt><trkpt lat="42.2446633" lon="14.5190183"><ele>9.0</ele><time>2026-04-26T09:40:36.886Z</time></trkpt><trkpt lat="42.244605" lon="14.5191567"><ele>9.0</ele><time>2026-04-26T09:40:38.888Z</time></trkpt><trkpt lat="42.2445433" lon="14.5192967"><ele>9.0</ele><time>2026-04-26T09:40:40.888Z</time></trkpt><trkpt lat="42.244475" lon="14.5194267"><ele>9.0</ele><time>2026-04-26T09:40:42.888Z</time></trkpt><trkpt lat="42.244415" lon="14.51956"><ele>9.0</ele><time>2026-04-26T09:40:44.888Z</time></trkpt><trkpt lat="42.244355" lon="14.5196967"><ele>9.0</ele><time>2026-04-26T09:40:46.888Z</time></trkpt><trkpt lat="42.2442867" lon="14.5198267"><ele>9.0</ele><time>2026-04-26T09:40:48.888Z</time></trkpt><trkpt lat="42.24422" lon="14.5199617"><ele>9.0</ele><time>2026-04-26T09:40:50.888Z</time></trkpt><trkpt lat="42.2441533" lon="14.520095"><ele>9.0</ele><time>2026-04-26T09:40:52.887Z</time></trkpt><trkpt lat="42.2440867" lon="14.5202233"><ele>9.0</ele><time>2026-04-26T09:40:54.888Z</time></trkpt><trkpt lat="42.2440183" lon="14.520355"><ele>9.0</ele><time>2026-04-26T09:40:56.888Z</time></trkpt><trkpt lat="42.2439583" lon="14.52049"><ele>9.0</ele><time>2026-04-26T09:40:58.888Z</time></trkpt><trkpt lat="42.2438983" lon="14.5206233"><ele>9.0</ele><time>2026-04-26T09:41:00.888Z</time></trkpt><trkpt lat="42.243835" lon="14.5207583"><ele>8.25</ele><time>2026-04-26T09:41:02.888Z</time></trkpt><trkpt lat="42.2437733" lon="14.520895"><ele>7.5</ele><time>2026-04-26T09:41:04.887Z</time></trkpt><trkpt lat="42.2437083" lon="14.5210367"><ele>6.75</ele><time>2026-04-26T09:41:06.888Z</time></trkpt><trkpt lat="42.2436417" lon="14.5211683"><ele>6.0</ele><time>2026-04-26T09:41:08.888Z</time></trkpt><trkpt lat="42.2435767" lon="14.5213017"><ele>5.25</ele><time>2026-04-26T09:41:10.888Z</time></trkpt><trkpt lat="42.2435217" lon="14.5214417"><ele>4.5</ele><time>2026-04-26T09:41:12.888Z</time></trkpt><trkpt lat="42.2434633" lon="14.521585"><ele>3.75</ele><time>2026-04-26T09:41:14.887Z</time></trkpt><trkpt lat="42.243405" lon="14.5217167"><ele>3.0</ele><time>2026-04-26T09:41:16.887Z</time></trkpt><trkpt lat="42.2433533" lon="14.5218467"><ele>3.0</ele><time>2026-04-26T09:41:18.888Z</time></trkpt><trkpt lat="42.2433033" lon="14.5219567"><ele>3.0</ele><time>2026-04-26T09:41:20.887Z</time></trkpt><trkpt lat="42.2432617" lon="14.5220467"><ele>3.0</ele><time>2026-04-26T09:41:22.887Z</time></trkpt><trkpt lat="42.2432283" lon="14.52214"><ele>3.0</ele><time>2026-04-26T09:41:25.888Z</time></trkpt><trkpt lat="42.2431917" lon="14.522225"><ele>3.0</ele><time>2026-04-26T09:41:28.888Z</time></trkpt><trkpt lat="42.24314" lon="14.5223233"><ele>3.0</ele><time>2026-04-26T09:41:30.888Z</time></trkpt><trkpt lat="42.24309" lon="14.5224333"><ele>2.6</ele><time>2026-04-26T09:41:32.887Z</time></trkpt><trkpt lat="42.2430367" lon="14.5225517"><ele>2.1999999999999997</ele><time>2026-04-26T09:41:34.888Z</time></trkpt><trkpt lat="42.2429717" lon="14.5226767"><ele>1.8</ele><time>2026-04-26T09:41:36.888Z</time></trkpt><trkpt lat="42.2429067" lon="14.5227883"><ele>1.4</ele><time>2026-04-26T09:41:38.887Z</time></trkpt><trkpt lat="42.2428417" lon="14.52291"><ele>1.0</ele><time>2026-04-26T09:41:40.888Z</time></trkpt><trkpt lat="42.2427733" lon="14.52304"><ele>1.0</ele><time>2026-04-26T09:41:42.888Z</time></trkpt><trkpt lat="42.2427167" lon="14.52317"><ele>1.0</ele><time>2026-04-26T09:41:44.888Z</time></trkpt><trkpt lat="42.2426483" lon="14.52329"><ele>1.0</ele><time>2026-04-26T09:41:46.888Z</time></trkpt><trkpt lat="42.2425833" lon="14.5234167"><ele>1.0</ele><time>2026-04-26T09:41:48.888Z</time></trkpt><trkpt lat="42.2425583" lon="14.5235"><ele>1.0</ele><time>2026-04-26T09:41:49.887Z</time></trkpt><trkpt lat="42.2425" lon="14.5236367"><ele>1.25</ele><time>2026-04-26T09:41:51.887Z</time></trkpt><trkpt lat="42.2424433" lon="14.52377"><ele>1.5</ele><time>2026-04-26T09:41:53.888Z</time></trkpt><trkpt lat="42.2423883" lon="14.5239083"><ele>1.75</ele><time>2026-04-26T09:41:55.888Z</time></trkpt><trkpt lat="42.2423267" lon="14.5240417"><ele>2.0</ele><time>2026-04-26T09:41:57.888Z</time></trkpt><trkpt lat="42.2422667" lon="14.524175"><ele>2.25</ele><time>2026-04-26T09:41:59.888Z</time></trkpt><trkpt lat="42.2422033" lon="14.5243067"><ele>2.5</ele><time>2026-04-26T09:42:01.887Z</time></trkpt><trkpt lat="42.2421383" lon="14.5244417"><ele>2.75</ele><time>2026-04-26T09:42:03.888Z</time></trkpt><trkpt lat="42.24208" lon="14.524565"><ele>3.0</ele><time>2026-04-26T09:42:05.887Z</time></trkpt><trkpt lat="42.2420233" lon="14.52469"><ele>2.6</ele><time>2026-04-26T09:42:07.888Z</time></trkpt><trkpt lat="42.241965" lon="14.5248133"><ele>2.1999999999999997</ele><time>2026-04-26T09:42:09.887Z</time></trkpt><trkpt lat="42.241905" lon="14.5249267"><ele>1.8</ele><time>2026-04-26T09:42:11.888Z</time></trkpt><trkpt lat="42.2418433" lon="14.5250533"><ele>1.4</ele><time>2026-04-26T09:42:13.888Z</time></trkpt><trkpt lat="42.2417817" lon="14.5251933"><ele>1.0</ele><time>2026-04-26T09:42:15.888Z</time></trkpt><trkpt lat="42.2417333" lon="14.525345"><ele>1.0</ele><time>2026-04-26T09:42:17.888Z</time></trkpt><trkpt lat="42.2416783" lon="14.52548"><ele>1.0</ele><time>2026-04-26T09:42:19.887Z</time></trkpt><trkpt lat="42.2416233" lon="14.525615"><ele>1.0</ele><time>2026-04-26T09:42:21.888Z</time></trkpt><trkpt lat="42.2415617" lon="14.52574"><ele>1.0</ele><time>2026-04-26T09:42:23.887Z</time></trkpt><trkpt lat="42.2415117" lon="14.52587"><ele>1.0</ele><time>2026-04-26T09:42:25.888Z</time></trkpt><trkpt lat="42.24146" lon="14.5259983"><ele>1.0</ele><time>2026-04-26T09:42:27.887Z</time></trkpt><trkpt lat="42.241405" lon="14.526125"><ele>1.0</ele><time>2026-04-26T09:42:29.887Z</time></trkpt><trkpt lat="42.2413467" lon="14.5262483"><ele>1.0</ele><time>2026-04-26T09:42:31.888Z</time></trkpt><trkpt lat="42.24128" lon="14.526375"><ele>1.0</ele><time>2026-04-26T09:42:33.887Z</time></trkpt><trkpt lat="42.2412433" lon="14.5264517"><ele>1.0</ele><time>2026-04-26T09:42:34.888Z</time></trkpt><trkpt lat="42.2411833" lon="14.5265883"><ele>1.0</ele><time>2026-04-26T09:42:36.888Z</time></trkpt><trkpt lat="42.2411267" lon="14.5267267"><ele>1.0</ele><time>2026-04-26T09:42:38.888Z</time></trkpt><trkpt lat="42.2410617" lon="14.5268567"><ele>1.0</ele><time>2026-04-26T09:42:40.887Z</time></trkpt><trkpt lat="42.2410017" lon="14.526985"><ele>1.0</ele><time>2026-04-26T09:42:42.888Z</time></trkpt><trkpt lat="42.2409417" lon="14.5271167"><ele>0.75</ele><time>2026-04-26T09:42:44.888Z</time></trkpt><trkpt lat="42.2408883" lon="14.527255"><ele>0.5</ele><time>2026-04-26T09:42:46.887Z</time></trkpt><trkpt lat="42.240825" lon="14.5273867"><ele>0.25</ele><time>2026-04-26T09:42:48.888Z</time></trkpt><trkpt lat="42.2407617" lon="14.5275217"><ele>0.0</ele><time>2026-04-26T09:42:50.888Z</time></trkpt><trkpt lat="42.2406983" lon="14.52765"><ele>0.0</ele><time>2026-04-26T09:42:52.888Z</time></trkpt><trkpt lat="42.2406417" lon="14.5277833"><ele>0.0</ele><time>2026-04-26T09:42:54.888Z</time></trkpt><trkpt lat="42.2405833" lon="14.5279133"><ele>0.0</ele><time>2026-04-26T09:42:56.887Z</time></trkpt><trkpt lat="42.240535" lon="14.5280633"><ele>0.0</ele><time>2026-04-26T09:42:58.888Z</time></trkpt><trkpt lat="42.24047" lon="14.5282"><ele>0.0</ele><time>2026-04-26T09:43:00.887Z</time></trkpt><trkpt lat="42.2404133" lon="14.5283433"><ele>0.0</ele><time>2026-04-26T09:43:02.887Z</time></trkpt><trkpt lat="42.240355" lon="14.5284833"><ele>0.0</ele><time>2026-04-26T09:43:04.888Z</time></trkpt><trkpt lat="42.2402883" lon="14.5286183"><ele>0.0</ele><time>2026-04-26T09:43:06.888Z</time></trkpt><trkpt lat="42.24023" lon="14.5287483"><ele>0.25</ele><time>2026-04-26T09:43:08.888Z</time></trkpt><trkpt lat="42.2401683" lon="14.528885"><ele>0.5</ele><time>2026-04-26T09:43:10.888Z</time></trkpt><trkpt lat="42.2401083" lon="14.52902"><ele>0.75</ele><time>2026-04-26T09:43:12.887Z</time></trkpt><trkpt lat="42.240045" lon="14.5291433"><ele>1.0</ele><time>2026-04-26T09:43:14.887Z</time></trkpt><trkpt lat="42.2399867" lon="14.5292767"><ele>1.0</ele><time>2026-04-26T09:43:16.888Z</time></trkpt><trkpt lat="42.2399267" lon="14.529405"><ele>1.0</ele><time>2026-04-26T09:43:18.887Z</time></trkpt><trkpt lat="42.2398633" lon="14.52954"><ele>1.0</ele><time>2026-04-26T09:43:20.888Z</time></trkpt><trkpt lat="42.2398" lon="14.529665"><ele>1.0</ele><time>2026-04-26T09:43:22.887Z</time></trkpt><trkpt lat="42.23974" lon="14.529805"><ele>1.0</ele><time>2026-04-26T09:43:24.888Z</time></trkpt><trkpt lat="42.2396783" lon="14.5299383"><ele>1.0</ele><time>2026-04-26T09:43:26.887Z</time></trkpt><trkpt lat="42.23961" lon="14.5300683"><ele>1.0</ele><time>2026-04-26T09:43:28.888Z</time></trkpt><trkpt lat="42.239545" lon="14.5301983"><ele>1.0</ele><time>2026-04-26T09:43:30.888Z</time></trkpt><trkpt lat="42.2394817" lon="14.53034"><ele>1.0</ele><time>2026-04-26T09:43:32.888Z</time></trkpt><trkpt lat="42.23943" lon="14.5304717"><ele>1.0</ele><time>2026-04-26T09:43:34.887Z</time></trkpt><trkpt lat="42.2393733" lon="14.5306083"><ele>1.0</ele><time>2026-04-26T09:43:36.887Z</time></trkpt><trkpt lat="42.2393133" lon="14.5307383"><ele>1.0</ele><time>2026-04-26T09:43:38.887Z</time></trkpt><trkpt lat="42.2392533" lon="14.530875"><ele>1.0</ele><time>2026-04-26T09:43:40.888Z</time></trkpt><trkpt lat="42.2391933" lon="14.5310117"><ele>1.0</ele><time>2026-04-26T09:43:42.887Z</time></trkpt><trkpt lat="42.239135" lon="14.531155"><ele>1.0</ele><time>2026-04-26T09:43:44.887Z</time></trkpt><trkpt lat="42.2390667" lon="14.5312867"><ele>1.0</ele><time>2026-04-26T09:43:46.887Z</time></trkpt><trkpt lat="42.239015" lon="14.5314333"><ele>1.25</ele><time>2026-04-26T09:43:48.888Z</time></trkpt><trkpt lat="42.2389533" lon="14.5315533"><ele>1.5</ele><time>2026-04-26T09:43:50.887Z</time></trkpt><trkpt lat="42.238885" lon="14.5316817"><ele>1.75</ele><time>2026-04-26T09:43:52.887Z</time></trkpt><trkpt lat="42.2388217" lon="14.53181"><ele>2.0</ele><time>2026-04-26T09:43:54.888Z</time></trkpt><trkpt lat="42.238755" lon="14.5319383"><ele>2.5</ele><time>2026-04-26T09:43:56.888Z</time></trkpt><trkpt lat="42.2386933" lon="14.532075"><ele>3.0</ele><time>2026-04-26T09:43:58.888Z</time></trkpt><trkpt lat="42.2386333" lon="14.5322133"><ele>3.5</ele><time>2026-04-26T09:44:00.887Z</time></trkpt><trkpt lat="42.2385683" lon="14.5323483"><ele>4.0</ele><time>2026-04-26T09:44:02.888Z</time></trkpt><trkpt lat="42.2385083" lon="14.532485"><ele>4.0</ele><time>2026-04-26T09:44:04.887Z</time></trkpt><trkpt lat="42.23845" lon="14.532615"><ele>4.0</ele><time>2026-04-26T09:44:06.887Z</time></trkpt><trkpt lat="42.23839" lon="14.5327483"><ele>4.0</ele><time>2026-04-26T09:44:08.887Z</time></trkpt><trkpt lat="42.238325" lon="14.5328767"><ele>4.0</ele><time>2026-04-26T09:44:10.888Z</time></trkpt><trkpt lat="42.2382617" lon="14.53301"><ele>3.75</ele><time>2026-04-26T09:44:12.887Z</time></trkpt><trkpt lat="42.2381983" lon="14.5331483"><ele>3.5</ele><time>2026-04-26T09:44:14.887Z</time></trkpt><trkpt lat="42.2381417" lon="14.5332817"><ele>3.25</ele><time>2026-04-26T09:44:16.888Z</time></trkpt><trkpt lat="42.238075" lon="14.5334167"><ele>3.0</ele><time>2026-04-26T09:44:18.888Z</time></trkpt><trkpt lat="42.238015" lon="14.5335433"><ele>3.0</ele><time>2026-04-26T09:44:20.887Z</time></trkpt><trkpt lat="42.2379483" lon="14.5336817"><ele>3.0</ele><time>2026-04-26T09:44:22.888Z</time></trkpt><trkpt lat="42.2378867" lon="14.53381"><ele>3.0</ele><time>2026-04-26T09:44:24.887Z</time></trkpt><trkpt lat="42.23783" lon="14.53394"><ele>3.0</ele><time>2026-04-26T09:44:26.888Z</time></trkpt><trkpt lat="42.2377733" lon="14.5340767"><ele>3.0</ele><time>2026-04-26T09:44:28.888Z</time></trkpt><trkpt lat="42.2377083" lon="14.5342067"><ele>3.0</ele><time>2026-04-26T09:44:30.887Z</time></trkpt><trkpt lat="42.2376433" lon="14.5343433"><ele>3.0</ele><time>2026-04-26T09:44:32.888Z</time></trkpt><trkpt lat="42.23759" lon="14.5344717"><ele>3.0</ele><time>2026-04-26T09:44:34.888Z</time></trkpt><trkpt lat="42.237525" lon="14.5346033"><ele>2.75</ele><time>2026-04-26T09:44:36.887Z</time></trkpt><trkpt lat="42.23746" lon="14.534745"><ele>2.5</ele><time>2026-04-26T09:44:38.888Z</time></trkpt><trkpt lat="42.2373967" lon="14.5348883"><ele>2.25</ele><time>2026-04-26T09:44:40.888Z</time></trkpt><trkpt lat="42.2373367" lon="14.535015"><ele>2.0</ele><time>2026-04-26T09:44:42.887Z</time></trkpt><trkpt lat="42.2372833" lon="14.5351483"><ele>2.0</ele><time>2026-04-26T09:44:44.888Z</time></trkpt><trkpt lat="42.2372333" lon="14.535255"><ele>2.0</ele><time>2026-04-26T09:44:46.887Z</time></trkpt><trkpt lat="42.2371733" lon="14.53535"><ele>2.0</ele><time>2026-04-26T09:44:48.887Z</time></trkpt><trkpt lat="42.2370967" lon="14.5354383"><ele>2.0</ele><time>2026-04-26T09:44:50.888Z</time></trkpt><trkpt lat="42.2370267" lon="14.5355517"><ele>2.0</ele><time>2026-04-26T09:44:52.888Z</time></trkpt><trkpt lat="42.2369633" lon="14.5356717"><ele>2.0</ele><time>2026-04-26T09:44:54.888Z</time></trkpt><trkpt lat="42.2369017" lon="14.5357933"><ele>2.0</ele><time>2026-04-26T09:44:56.887Z</time></trkpt><trkpt lat="42.23684" lon="14.5359233"><ele>2.0</ele><time>2026-04-26T09:44:58.888Z</time></trkpt><trkpt lat="42.2367867" lon="14.536045"><ele>2.0</ele><time>2026-04-26T09:45:00.888Z</time></trkpt><trkpt lat="42.2367383" lon="14.5361867"><ele>2.0</ele><time>2026-04-26T09:45:02.888Z</time></trkpt><trkpt lat="42.2366867" lon="14.5363333"><ele>2.0</ele><time>2026-04-26T09:45:04.888Z</time></trkpt><trkpt lat="42.236635" lon="14.53647"><ele>2.0</ele><time>2026-04-26T09:45:06.888Z</time></trkpt><trkpt lat="42.236585" lon="14.5366"><ele>2.0</ele><time>2026-04-26T09:45:08.887Z</time></trkpt><trkpt lat="42.2365367" lon="14.536725"><ele>2.0</ele><time>2026-04-26T09:45:10.888Z</time></trkpt><trkpt lat="42.2364833" lon="14.5368417"><ele>2.0</ele><time>2026-04-26T09:45:12.888Z</time></trkpt><trkpt lat="42.23643" lon="14.53695"><ele>2.6</ele><time>2026-04-26T09:45:14.888Z</time></trkpt><trkpt lat="42.2363717" lon="14.5370733"><ele>3.2</ele><time>2026-04-26T09:45:16.888Z</time></trkpt><trkpt lat="42.2363117" lon="14.5371983"><ele>3.8</ele><time>2026-04-26T09:45:18.888Z</time></trkpt><trkpt lat="42.2362617" lon="14.53733"><ele>4.4</ele><time>2026-04-26T09:45:20.887Z</time></trkpt><trkpt lat="42.2362017" lon="14.537465"><ele>5.0</ele><time>2026-04-26T09:45:22.887Z</time></trkpt><trkpt lat="42.2361483" lon="14.5375983"><ele>5.0</ele><time>2026-04-26T09:45:24.887Z</time></trkpt><trkpt lat="42.2360883" lon="14.5377217"><ele>5.0</ele><time>2026-04-26T09:45:26.888Z</time></trkpt><trkpt lat="42.236035" lon="14.5378533"><ele>5.0</ele><time>2026-04-26T09:45:28.887Z</time></trkpt><trkpt lat="42.2359783" lon="14.5379833"><ele>5.0</ele><time>2026-04-26T09:45:30.888Z</time></trkpt><trkpt lat="42.2359183" lon="14.5381183"><ele>5.0</ele><time>2026-04-26T09:45:32.888Z</time></trkpt><trkpt lat="42.2358533" lon="14.5382583"><ele>5.0</ele><time>2026-04-26T09:45:34.888Z</time></trkpt><trkpt lat="42.235795" lon="14.5384033"><ele>5.0</ele><time>2026-04-26T09:45:36.888Z</time></trkpt><trkpt lat="42.2357383" lon="14.53854"><ele>5.0</ele><time>2026-04-26T09:45:38.887Z</time></trkpt><trkpt lat="42.23568" lon="14.5386783"><ele>5.0</ele><time>2026-04-26T09:45:40.888Z</time></trkpt><trkpt lat="42.2356267" lon="14.538805"><ele>5.4</ele><time>2026-04-26T09:45:42.888Z</time></trkpt><trkpt lat="42.2355683" lon="14.5389317"><ele>5.8</ele><time>2026-04-26T09:45:44.888Z</time></trkpt><trkpt lat="42.2355133" lon="14.5390667"><ele>6.199999999999999</ele><time>2026-04-26T09:45:46.888Z</time></trkpt><trkpt lat="42.23545" lon="14.5391967"><ele>6.6</ele><time>2026-04-26T09:45:48.888Z</time></trkpt><trkpt lat="42.2354" lon="14.53932"><ele>7.0</ele><time>2026-04-26T09:45:50.888Z</time></trkpt><trkpt lat="42.2353433" lon="14.5394433"><ele>6.6</ele><time>2026-04-26T09:45:52.888Z</time></trkpt><trkpt lat="42.2352917" lon="14.53956"><ele>6.199999999999999</ele><time>2026-04-26T09:45:54.888Z</time></trkpt><trkpt lat="42.2352367" lon="14.5396683"><ele>5.8</ele><time>2026-04-26T09:45:56.887Z</time></trkpt><trkpt lat="42.2351867" lon="14.5397683"><ele>5.4</ele><time>2026-04-26T09:45:58.887Z</time></trkpt><trkpt lat="42.2351417" lon="14.539865"><ele>5.0</ele><time>2026-04-26T09:46:00.888Z</time></trkpt><trkpt lat="42.2350967" lon="14.539975"><ele>5.0</ele><time>2026-04-26T09:46:02.887Z</time></trkpt><trkpt lat="42.2350467" lon="14.540085"><ele>5.0</ele><time>2026-04-26T09:46:04.887Z</time></trkpt><trkpt lat="42.2349933" lon="14.5402017"><ele>5.0</ele><time>2026-04-26T09:46:06.888Z</time></trkpt><trkpt lat="42.234935" lon="14.5403183"><ele>5.0</ele><time>2026-04-26T09:46:08.887Z</time></trkpt><trkpt lat="42.2348733" lon="14.540435"><ele>5.0</ele><time>2026-04-26T09:46:10.887Z</time></trkpt><trkpt lat="42.2348183" lon="14.540545"><ele>4.8</ele><time>2026-04-26T09:46:12.888Z</time></trkpt><trkpt lat="42.2347667" lon="14.5406683"><ele>4.6</ele><time>2026-04-26T09:46:14.888Z</time></trkpt><trkpt lat="42.2347167" lon="14.5407833"><ele>4.4</ele><time>2026-04-26T09:46:16.888Z</time></trkpt><trkpt lat="42.2346667" lon="14.5409067"><ele>4.2</ele><time>2026-04-26T09:46:18.888Z</time></trkpt><trkpt lat="42.234625" lon="14.5410233"><ele>4.0</ele><time>2026-04-26T09:46:20.888Z</time></trkpt><trkpt lat="42.2345783" lon="14.541135"><ele>4.0</ele><time>2026-04-26T09:46:22.887Z</time></trkpt><trkpt lat="42.23452" lon="14.54126"><ele>4.0</ele><time>2026-04-26T09:46:24.888Z</time></trkpt><trkpt lat="42.2344533" lon="14.5413783"><ele>4.0</ele><time>2026-04-26T09:46:26.888Z</time></trkpt><trkpt lat="42.2343883" lon="14.5415017"><ele>4.0</ele><time>2026-04-26T09:46:28.887Z</time></trkpt><trkpt lat="42.2343333" lon="14.541625"><ele>4.0</ele><time>2026-04-26T09:46:30.887Z</time></trkpt><trkpt lat="42.23428" lon="14.5417467"><ele>4.0</ele><time>2026-04-26T09:46:32.888Z</time></trkpt><trkpt lat="42.2342317" lon="14.5418667"><ele>4.0</ele><time>2026-04-26T09:46:34.888Z</time></trkpt><trkpt lat="42.2341783" lon="14.5419917"><ele>4.0</ele><time>2026-04-26T09:46:36.887Z</time></trkpt><trkpt lat="42.2341233" lon="14.5421067"><ele>4.0</ele><time>2026-04-26T09:46:38.888Z</time></trkpt><trkpt lat="42.23406" lon="14.542215"><ele>4.0</ele><time>2026-04-26T09:46:40.888Z</time></trkpt><trkpt lat="42.234005" lon="14.5423217"><ele>5.4</ele><time>2026-04-26T09:46:42.888Z</time></trkpt><trkpt lat="42.233945" lon="14.5424267"><ele>6.800000000000001</ele><time>2026-04-26T09:46:44.888Z</time></trkpt><trkpt lat="42.233875" lon="14.542535"><ele>8.200000000000001</ele><time>2026-04-26T09:46:46.888Z</time></trkpt><trkpt lat="42.23381" lon="14.542655"><ele>9.600000000000001</ele><time>2026-04-26T09:46:48.888Z</time></trkpt><trkpt lat="42.233745" lon="14.5427817"><ele>11.0</ele><time>2026-04-26T09:46:50.887Z</time></trkpt><trkpt lat="42.2336817" lon="14.5429"><ele>11.0</ele><time>2026-04-26T09:46:52.887Z</time></trkpt><trkpt lat="42.2336267" lon="14.5430017"><ele>11.0</ele><time>2026-04-26T09:46:54.887Z</time></trkpt><trkpt lat="42.233585" lon="14.5430883"><ele>11.0</ele><time>2026-04-26T09:46:56.888Z</time></trkpt><trkpt lat="42.2335533" lon="14.54317"><ele>11.0</ele><time>2026-04-26T09:46:59.887Z</time></trkpt><trkpt lat="42.23353" lon="14.5432533"><ele>11.0</ele><time>2026-04-26T09:47:02.887Z</time></trkpt><trkpt lat="42.2335117" lon="14.5433717"><ele>11.0</ele><time>2026-04-26T09:47:05.888Z</time></trkpt><trkpt lat="42.2334767" lon="14.5434867"><ele>11.0</ele><time>2026-04-26T09:47:07.887Z</time></trkpt><trkpt lat="42.2334167" lon="14.5435967"><ele>11.0</ele><time>2026-04-26T09:47:09.888Z</time></trkpt><trkpt lat="42.2333583" lon="14.5437017"><ele>11.0</ele><time>2026-04-26T09:47:11.888Z</time></trkpt><trkpt lat="42.2333" lon="14.5438267"><ele>11.0</ele><time>2026-04-26T09:47:13.888Z</time></trkpt><trkpt lat="42.233235" lon="14.5439633"><ele>11.0</ele><time>2026-04-26T09:47:15.888Z</time></trkpt><trkpt lat="42.2331733" lon="14.5441"><ele>11.75</ele><time>2026-04-26T09:47:17.887Z</time></trkpt><trkpt lat="42.23311" lon="14.544245"><ele>12.5</ele><time>2026-04-26T09:47:19.887Z</time></trkpt><trkpt lat="42.233045" lon="14.5443833"><ele>13.25</ele><time>2026-04-26T09:47:21.887Z</time></trkpt><trkpt lat="42.2329733" lon="14.5445217"><ele>14.0</ele><time>2026-04-26T09:47:23.887Z</time></trkpt><trkpt lat="42.2329083" lon="14.5446533"><ele>11.75</ele><time>2026-04-26T09:47:25.888Z</time></trkpt><trkpt lat="42.2328433" lon="14.544775"><ele>9.5</ele><time>2026-04-26T09:47:27.888Z</time></trkpt><trkpt lat="42.2327767" lon="14.54491"><ele>7.25</ele><time>2026-04-26T09:47:29.888Z</time></trkpt><trkpt lat="42.232705" lon="14.5450383"><ele>5.0</ele><time>2026-04-26T09:47:31.887Z</time></trkpt><trkpt lat="42.2326367" lon="14.5451667"><ele>5.0</ele><time>2026-04-26T09:47:33.887Z</time></trkpt><trkpt lat="42.232565" lon="14.5452967"><ele>5.0</ele><time>2026-04-26T09:47:35.887Z</time></trkpt><trkpt lat="42.2325267" lon="14.545365"><ele>5.0</ele><time>2026-04-26T09:47:36.888Z</time></trkpt><trkpt lat="42.23246" lon="14.5454967"><ele>5.0</ele><time>2026-04-26T09:47:38.887Z</time></trkpt><trkpt lat="42.2323933" lon="14.5456283"><ele>5.0</ele><time>2026-04-26T09:47:40.887Z</time></trkpt><trkpt lat="42.2323233" lon="14.5457583"><ele>5.75</ele><time>2026-04-26T09:47:42.888Z</time></trkpt><trkpt lat="42.2322483" lon="14.5458867"><ele>6.5</ele><time>2026-04-26T09:47:44.887Z</time></trkpt><trkpt lat="42.2321733" lon="14.54602"><ele>7.25</ele><time>2026-04-26T09:47:46.888Z</time></trkpt><trkpt lat="42.2321" lon="14.5461483"><ele>8.0</ele><time>2026-04-26T09:47:48.887Z</time></trkpt><trkpt lat="42.23204" lon="14.546265"><ele>6.5</ele><time>2026-04-26T09:47:50.887Z</time></trkpt><trkpt lat="42.23196" lon="14.546375"><ele>5.0</ele><time>2026-04-26T09:47:52.888Z</time></trkpt><trkpt lat="42.2318883" lon="14.5464967"><ele>3.5</ele><time>2026-04-26T09:47:54.887Z</time></trkpt><trkpt lat="42.2318167" lon="14.5466233"><ele>2.0</ele><time>2026-04-26T09:47:56.888Z</time></trkpt><trkpt lat="42.231745" lon="14.5467483"><ele>2.0</ele><time>2026-04-26T09:47:58.887Z</time></trkpt><trkpt lat="42.2316683" lon="14.5468717"><ele>2.0</ele><time>2026-04-26T09:48:00.888Z</time></trkpt><trkpt lat="42.2316017" lon="14.547005"><ele>2.0</ele><time>2026-04-26T09:48:02.888Z</time></trkpt><trkpt lat="42.2315333" lon="14.5471383"><ele>2.0</ele><time>2026-04-26T09:48:04.888Z</time></trkpt><trkpt lat="42.2314617" lon="14.547265"><ele>2.6</ele><time>2026-04-26T09:48:06.887Z</time></trkpt><trkpt lat="42.231425" lon="14.547335"><ele>3.2</ele><time>2026-04-26T09:48:07.888Z</time></trkpt><trkpt lat="42.2313567" lon="14.5474583"><ele>3.8</ele><time>2026-04-26T09:48:09.888Z</time></trkpt><trkpt lat="42.2312867" lon="14.5475817"><ele>4.4</ele><time>2026-04-26T09:48:11.888Z</time></trkpt><trkpt lat="42.2312117" lon="14.5477033"><ele>5.0</ele><time>2026-04-26T09:48:13.888Z</time></trkpt><trkpt lat="42.2311317" lon="14.5478"><ele>4.5</ele><time>2026-04-26T09:48:15.888Z</time></trkpt><trkpt lat="42.2310517" lon="14.5479233"><ele>4.0</ele><time>2026-04-26T09:48:17.887Z</time></trkpt><trkpt lat="42.2309817" lon="14.548045"><ele>3.5</ele><time>2026-04-26T09:48:19.888Z</time></trkpt><trkpt lat="42.2309117" lon="14.5481683"><ele>3.0</ele><time>2026-04-26T09:48:21.887Z</time></trkpt><trkpt lat="42.2308383" lon="14.5482883"><ele>3.0</ele><time>2026-04-26T09:48:23.888Z</time></trkpt><trkpt lat="42.2307733" lon="14.5484067"><ele>3.0</ele><time>2026-04-26T09:48:25.887Z</time></trkpt><trkpt lat="42.230705" lon="14.5485267"><ele>3.0</ele><time>2026-04-26T09:48:27.888Z</time></trkpt><trkpt lat="42.230635" lon="14.5486517"><ele>3.0</ele><time>2026-04-26T09:48:29.888Z</time></trkpt><trkpt lat="42.2305583" lon="14.54877"><ele>3.25</ele><time>2026-04-26T09:48:31.888Z</time></trkpt><trkpt lat="42.230485" lon="14.548895"><ele>3.5</ele><time>2026-04-26T09:48:33.888Z</time></trkpt><trkpt lat="42.23041" lon="14.5490133"><ele>3.75</ele><time>2026-04-26T09:48:35.887Z</time></trkpt><trkpt lat="42.2303333" lon="14.5491317"><ele>4.0</ele><time>2026-04-26T09:48:37.888Z</time></trkpt><trkpt lat="42.2302583" lon="14.54926"><ele>4.0</ele><time>2026-04-26T09:48:39.887Z</time></trkpt><trkpt lat="42.2301833" lon="14.5493833"><ele>4.0</ele><time>2026-04-26T09:48:41.888Z</time></trkpt><trkpt lat="42.2301167" lon="14.549505"><ele>4.0</ele><time>2026-04-26T09:48:43.888Z</time></trkpt><trkpt lat="42.2300417" lon="14.5496217"><ele>4.0</ele><time>2026-04-26T09:48:45.888Z</time></trkpt><trkpt lat="42.2299717" lon="14.5497367"><ele>3.2</ele><time>2026-04-26T09:48:47.887Z</time></trkpt><trkpt lat="42.2299033" lon="14.5498467"><ele>2.4000000000000004</ele><time>2026-04-26T09:48:49.887Z</time></trkpt><trkpt lat="42.2298367" lon="14.5499683"><ele>1.6</ele><time>2026-04-26T09:48:51.888Z</time></trkpt><trkpt lat="42.2297683" lon="14.5500867"><ele>0.8</ele><time>2026-04-26T09:48:53.887Z</time></trkpt><trkpt lat="42.2297" lon="14.5502067"><ele>0.0</ele><time>2026-04-26T09:48:55.888Z</time></trkpt><trkpt lat="42.2296417" lon="14.550325"><ele>1.25</ele><time>2026-04-26T09:48:57.888Z</time></trkpt><trkpt lat="42.22957" lon="14.5504517"><ele>2.5</ele><time>2026-04-26T09:48:59.887Z</time></trkpt><trkpt lat="42.2295167" lon="14.5505733"><ele>3.75</ele><time>2026-04-26T09:49:01.888Z</time></trkpt><trkpt lat="42.22946" lon="14.550705"><ele>5.0</ele><time>2026-04-26T09:49:03.888Z</time></trkpt><trkpt lat="42.229395" lon="14.5508367"><ele>5.0</ele><time>2026-04-26T09:49:05.888Z</time></trkpt><trkpt lat="42.2293233" lon="14.5509633"><ele>5.0</ele><time>2026-04-26T09:49:07.887Z</time></trkpt><trkpt lat="42.2292583" lon="14.55108"><ele>5.0</ele><time>2026-04-26T09:49:09.888Z</time></trkpt><trkpt lat="42.2291883" lon="14.5512117"><ele>5.0</ele><time>2026-04-26T09:49:11.888Z</time></trkpt><trkpt lat="42.2291167" lon="14.5513367"><ele>3.75</ele><time>2026-04-26T09:49:13.887Z</time></trkpt><trkpt lat="42.2290517" lon="14.5514783"><ele>2.5</ele><time>2026-04-26T09:49:15.887Z</time></trkpt><trkpt lat="42.2289817" lon="14.5516033"><ele>1.25</ele><time>2026-04-26T09:49:17.887Z</time></trkpt><trkpt lat="42.2289117" lon="14.5517233"><ele>0.0</ele><time>2026-04-26T09:49:19.888Z</time></trkpt><trkpt lat="42.2288517" lon="14.5518517"><ele>0.75</ele><time>2026-04-26T09:49:21.888Z</time></trkpt><trkpt lat="42.2287833" lon="14.55198"><ele>1.5</ele><time>2026-04-26T09:49:23.887Z</time></trkpt><trkpt lat="42.228705" lon="14.5521"><ele>2.25</ele><time>2026-04-26T09:49:25.887Z</time></trkpt><trkpt lat="42.22863" lon="14.5522233"><ele>3.0</ele><time>2026-04-26T09:49:27.887Z</time></trkpt><trkpt lat="42.2285567" lon="14.5523517"><ele>3.0</ele><time>2026-04-26T09:49:29.887Z</time></trkpt><trkpt lat="42.2284933" lon="14.5524817"><ele>3.0</ele><time>2026-04-26T09:49:31.887Z</time></trkpt><trkpt lat="42.2284233" lon="14.552605"><ele>3.0</ele><time>2026-04-26T09:49:33.888Z</time></trkpt><trkpt lat="42.228355" lon="14.5527317"><ele>3.0</ele><time>2026-04-26T09:49:35.888Z</time></trkpt><trkpt lat="42.22828" lon="14.552855"><ele>3.0</ele><time>2026-04-26T09:49:37.887Z</time></trkpt><trkpt lat="42.2282083" lon="14.5529817"><ele>3.0</ele><time>2026-04-26T09:49:39.888Z</time></trkpt><trkpt lat="42.228135" lon="14.5531117"><ele>3.0</ele><time>2026-04-26T09:49:41.888Z</time></trkpt><trkpt lat="42.2280633" lon="14.5532417"><ele>3.0</ele><time>2026-04-26T09:49:43.888Z</time></trkpt><trkpt lat="42.227995" lon="14.553365"><ele>3.5</ele><time>2026-04-26T09:49:45.888Z</time></trkpt><trkpt lat="42.2279183" lon="14.5534833"><ele>4.0</ele><time>2026-04-26T09:49:47.887Z</time></trkpt><trkpt lat="42.227845" lon="14.5536033"><ele>4.5</ele><time>2026-04-26T09:49:49.888Z</time></trkpt><trkpt lat="42.2277667" lon="14.55372"><ele>5.0</ele><time>2026-04-26T09:49:51.888Z</time></trkpt><trkpt lat="42.22769" lon="14.5538183"><ele>5.0</ele><time>2026-04-26T09:49:53.888Z</time></trkpt><trkpt lat="42.227625" lon="14.5539183"><ele>5.0</ele><time>2026-04-26T09:49:55.887Z</time></trkpt><trkpt lat="42.22755" lon="14.5540283"><ele>5.0</ele><time>2026-04-26T09:49:57.888Z</time></trkpt><trkpt lat="42.2274733" lon="14.5541433"><ele>5.0</ele><time>2026-04-26T09:49:59.888Z</time></trkpt><trkpt lat="42.2273983" lon="14.554265"><ele>5.0</ele><time>2026-04-26T09:50:01.888Z</time></trkpt><trkpt lat="42.2273133" lon="14.55438"><ele>7.0</ele><time>2026-04-26T09:50:03.887Z</time></trkpt><trkpt lat="42.227235" lon="14.55449"><ele>9.0</ele><time>2026-04-26T09:50:05.888Z</time></trkpt><trkpt lat="42.22716" lon="14.554605"><ele>11.0</ele><time>2026-04-26T09:50:07.888Z</time></trkpt><trkpt lat="42.2270867" lon="14.5547233"><ele>13.0</ele><time>2026-04-26T09:50:09.888Z</time></trkpt><trkpt lat="42.227015" lon="14.55485"><ele>13.0</ele><time>2026-04-26T09:50:11.888Z</time></trkpt><trkpt lat="42.2269533" lon="14.5549783"><ele>13.0</ele><time>2026-04-26T09:50:13.888Z</time></trkpt><trkpt lat="42.22688" lon="14.5551067"><ele>13.0</ele><time>2026-04-26T09:50:15.888Z</time></trkpt><trkpt lat="42.2268233" lon="14.5552317"><ele>13.0</ele><time>2026-04-26T09:50:17.887Z</time></trkpt><trkpt lat="42.2267583" lon="14.5553583"><ele>11.6</ele><time>2026-04-26T09:50:19.888Z</time></trkpt><trkpt lat="42.22669" lon="14.5554717"><ele>10.200000000000001</ele><time>2026-04-26T09:50:21.888Z</time></trkpt><trkpt lat="42.2266283" lon="14.5555683"><ele>8.8</ele><time>2026-04-26T09:50:23.888Z</time></trkpt><trkpt lat="42.2265783" lon="14.5556533"><ele>7.4</ele><time>2026-04-26T09:50:25.888Z</time></trkpt><trkpt lat="42.2265167" lon="14.5557567"><ele>6.0</ele><time>2026-04-26T09:50:27.887Z</time></trkpt><trkpt lat="42.2264633" lon="14.5558767"><ele>7.666666666666666</ele><time>2026-04-26T09:50:29.888Z</time></trkpt><trkpt lat="42.2264033" lon="14.5560167"><ele>9.333333333333332</ele><time>2026-04-26T09:50:31.888Z</time></trkpt><trkpt lat="42.22634" lon="14.556165"><ele>11.0</ele><time>2026-04-26T09:50:33.888Z</time></trkpt><trkpt lat="42.226305" lon="14.556245"><ele>12.666666666666666</ele><time>2026-04-26T09:50:34.888Z</time></trkpt><trkpt lat="42.2262717" lon="14.556325"><ele>14.333333333333332</ele><time>2026-04-26T09:50:35.888Z</time></trkpt><trkpt lat="42.2262417" lon="14.5564"><ele>16.0</ele><time>2026-04-26T09:50:36.888Z</time></trkpt><trkpt lat="42.226215" lon="14.5564783"><ele>15.999999999999998</ele><time>2026-04-26T09:50:37.887Z</time></trkpt><trkpt lat="42.2261617" lon="14.5566283"><ele>16.0</ele><time>2026-04-26T09:50:39.888Z</time></trkpt><trkpt lat="42.226135" lon="14.5567067"><ele>16.0</ele><time>2026-04-26T09:50:40.888Z</time></trkpt><trkpt lat="42.2261083" lon="14.5567867"><ele>16.0</ele><time>2026-04-26T09:50:41.887Z</time></trkpt><trkpt lat="42.22608" lon="14.5568683"><ele>15.999999999999998</ele><time>2026-04-26T09:50:42.888Z</time></trkpt><trkpt lat="42.2260467" lon="14.556945"><ele>16.0</ele><time>2026-04-26T09:50:43.887Z</time></trkpt><trkpt lat="42.2259933" lon="14.55709"><ele>14.25</ele><time>2026-04-26T09:50:45.888Z</time></trkpt><trkpt lat="42.2259383" lon="14.5572317"><ele>12.5</ele><time>2026-04-26T09:50:47.887Z</time></trkpt><trkpt lat="42.2258917" lon="14.557365"><ele>10.75</ele><time>2026-04-26T09:50:49.888Z</time></trkpt><trkpt lat="42.2258383" lon="14.5575017"><ele>9.0</ele><time>2026-04-26T09:50:51.888Z</time></trkpt><trkpt lat="42.22579" lon="14.5576383"><ele>9.0</ele><time>2026-04-26T09:50:53.888Z</time></trkpt><trkpt lat="42.225735" lon="14.55778"><ele>9.0</ele><time>2026-04-26T09:50:55.888Z</time></trkpt><trkpt lat="42.225685" lon="14.5579117"><ele>9.0</ele><time>2026-04-26T09:50:57.888Z</time></trkpt><trkpt lat="42.2256333" lon="14.5580383"><ele>9.0</ele><time>2026-04-26T09:50:59.888Z</time></trkpt><trkpt lat="42.225575" lon="14.558165"><ele>9.0</ele><time>2026-04-26T09:51:01.888Z</time></trkpt><trkpt lat="42.2255317" lon="14.5582883"><ele>9.0</ele><time>2026-04-26T09:51:03.888Z</time></trkpt><trkpt lat="42.22549" lon="14.5584217"><ele>9.0</ele><time>2026-04-26T09:51:05.888Z</time></trkpt><trkpt lat="42.2254417" lon="14.55855"><ele>9.0</ele><time>2026-04-26T09:51:07.887Z</time></trkpt><trkpt lat="42.2253833" lon="14.5586767"><ele>9.0</ele><time>2026-04-26T09:51:09.887Z</time></trkpt><trkpt lat="42.2253217" lon="14.5587967"><ele>9.0</ele><time>2026-04-26T09:51:11.888Z</time></trkpt><trkpt lat="42.2252633" lon="14.5589067"><ele>9.0</ele><time>2026-04-26T09:51:13.887Z</time></trkpt><trkpt lat="42.22521" lon="14.5590233"><ele>9.0</ele><time>2026-04-26T09:51:15.888Z</time></trkpt><trkpt lat="42.2251633" lon="14.55915"><ele>9.0</ele><time>2026-04-26T09:51:17.888Z</time></trkpt><trkpt lat="42.225115" lon="14.5592767"><ele>9.0</ele><time>2026-04-26T09:51:19.888Z</time></trkpt><trkpt lat="42.225065" lon="14.5594"><ele>9.0</ele><time>2026-04-26T09:51:21.887Z</time></trkpt><trkpt lat="42.22501" lon="14.5595317"><ele>8.0</ele><time>2026-04-26T09:51:23.888Z</time></trkpt><trkpt lat="42.2249583" lon="14.5596617"><ele>7.0</ele><time>2026-04-26T09:51:25.887Z</time></trkpt><trkpt lat="42.2249" lon="14.5597933"><ele>6.0</ele><time>2026-04-26T09:51:27.888Z</time></trkpt><trkpt lat="42.2248433" lon="14.5599317"><ele>5.0</ele><time>2026-04-26T09:51:29.887Z</time></trkpt><trkpt lat="42.2247917" lon="14.5600717"><ele>7.0</ele><time>2026-04-26T09:51:31.888Z</time></trkpt><trkpt lat="42.2247483" lon="14.56021"><ele>9.0</ele><time>2026-04-26T09:51:33.888Z</time></trkpt><trkpt lat="42.224715" lon="14.5603483"><ele>11.0</ele><time>2026-04-26T09:51:35.887Z</time></trkpt><trkpt lat="42.2246883" lon="14.560475"><ele>13.0</ele><time>2026-04-26T09:51:37.888Z</time></trkpt><trkpt lat="42.2246517" lon="14.5605783"><ele>15.0</ele><time>2026-04-26T09:51:39.887Z</time></trkpt><trkpt lat="42.2246183" lon="14.56067"><ele>15.0</ele><time>2026-04-26T09:51:41.888Z</time></trkpt><trkpt lat="42.2245567" lon="14.5607317"><ele>15.0</ele><time>2026-04-26T09:51:43.887Z</time></trkpt><trkpt lat="42.2244917" lon="14.5607583"><ele>15.0</ele><time>2026-04-26T09:51:45.887Z</time></trkpt><trkpt lat="42.2244183" lon="14.5608083"><ele>15.0</ele><time>2026-04-26T09:51:48.888Z</time></trkpt><trkpt lat="42.2243533" lon="14.560895"><ele>15.0</ele><time>2026-04-26T09:51:51.888Z</time></trkpt><trkpt lat="42.2243067" lon="14.560955"><ele>15.0</ele><time>2026-04-26T09:51:53.888Z</time></trkpt><trkpt lat="42.2242533" lon="14.5610267"><ele>15.0</ele><time>2026-04-26T09:51:55.887Z</time></trkpt><trkpt lat="42.2241933" lon="14.56112"><ele>15.0</ele><time>2026-04-26T09:51:57.888Z</time></trkpt><trkpt lat="42.22414" lon="14.561225"><ele>15.0</ele><time>2026-04-26T09:51:59.888Z</time></trkpt><trkpt lat="42.2240983" lon="14.5613283"><ele>15.0</ele><time>2026-04-26T09:52:01.887Z</time></trkpt><trkpt lat="42.224065" lon="14.5614433"><ele>15.0</ele><time>2026-04-26T09:52:03.888Z</time></trkpt><trkpt lat="42.2240217" lon="14.5615567"><ele>15.4</ele><time>2026-04-26T09:52:05.888Z</time></trkpt><trkpt lat="42.22396" lon="14.56167"><ele>15.8</ele><time>2026-04-26T09:52:07.888Z</time></trkpt><trkpt lat="42.2239067" lon="14.5617833"><ele>16.2</ele><time>2026-04-26T09:52:09.887Z</time></trkpt><trkpt lat="42.2238567" lon="14.5619"><ele>16.6</ele><time>2026-04-26T09:52:11.887Z</time></trkpt><trkpt lat="42.2238067" lon="14.5620217"><ele>17.0</ele><time>2026-04-26T09:52:13.887Z</time></trkpt><trkpt lat="42.2237367" lon="14.5621483"><ele>17.0</ele><time>2026-04-26T09:52:15.887Z</time></trkpt><trkpt lat="42.2236733" lon="14.5622667"><ele>17.0</ele><time>2026-04-26T09:52:17.888Z</time></trkpt><trkpt lat="42.2236117" lon="14.5623883"><ele>17.0</ele><time>2026-04-26T09:52:19.887Z</time></trkpt><trkpt lat="42.2235567" lon="14.5625167"><ele>17.0</ele><time>2026-04-26T09:52:21.888Z</time></trkpt><trkpt lat="42.2235" lon="14.5626433"><ele>17.0</ele><time>2026-04-26T09:52:23.888Z</time></trkpt><trkpt lat="42.2234417" lon="14.5627667"><ele>15.4</ele><time>2026-04-26T09:52:25.888Z</time></trkpt><trkpt lat="42.22338" lon="14.5628917"><ele>13.799999999999999</ele><time>2026-04-26T09:52:27.887Z</time></trkpt><trkpt lat="42.223315" lon="14.563015"><ele>12.2</ele><time>2026-04-26T09:52:29.888Z</time></trkpt><trkpt lat="42.223255" lon="14.5631367"><ele>10.6</ele><time>2026-04-26T09:52:31.888Z</time></trkpt><trkpt lat="42.2231933" lon="14.5632583"><ele>9.0</ele><time>2026-04-26T09:52:33.888Z</time></trkpt><trkpt lat="42.2231317" lon="14.56338"><ele>10.8</ele><time>2026-04-26T09:52:35.888Z</time></trkpt><trkpt lat="42.2230683" lon="14.563495"><ele>12.600000000000001</ele><time>2026-04-26T09:52:37.887Z</time></trkpt><trkpt lat="42.2230117" lon="14.563625"><ele>14.4</ele><time>2026-04-26T09:52:39.888Z</time></trkpt><trkpt lat="42.2229633" lon="14.5637517"><ele>16.2</ele><time>2026-04-26T09:52:41.887Z</time></trkpt><trkpt lat="42.2229133" lon="14.5638733"><ele>18.0</ele><time>2026-04-26T09:52:43.888Z</time></trkpt><trkpt lat="42.2228633" lon="14.5640067"><ele>18.0</ele><time>2026-04-26T09:52:45.888Z</time></trkpt><trkpt lat="42.22281" lon="14.5641217"><ele>18.0</ele><time>2026-04-26T09:52:47.888Z</time></trkpt><trkpt lat="42.2227517" lon="14.56425"><ele>18.0</ele><time>2026-04-26T09:52:49.887Z</time></trkpt><trkpt lat="42.22269" lon="14.5643833"><ele>18.0</ele><time>2026-04-26T09:52:51.887Z</time></trkpt><trkpt lat="42.2226367" lon="14.56451"><ele>18.0</ele><time>2026-04-26T09:52:53.888Z</time></trkpt><trkpt lat="42.2225833" lon="14.5646383"><ele>17.2</ele><time>2026-04-26T09:52:55.887Z</time></trkpt><trkpt lat="42.2225267" lon="14.564775"><ele>16.4</ele><time>2026-04-26T09:52:57.888Z</time></trkpt><trkpt lat="42.2224733" lon="14.5648933"><ele>15.599999999999998</ele><time>2026-04-26T09:52:59.888Z</time></trkpt><trkpt lat="42.2224217" lon="14.565015"><ele>14.799999999999999</ele><time>2026-04-26T09:53:01.888Z</time></trkpt><trkpt lat="42.2223683" lon="14.5651317"><ele>14.0</ele><time>2026-04-26T09:53:03.888Z</time></trkpt><trkpt lat="42.2223083" lon="14.5652517"><ele>15.6</ele><time>2026-04-26T09:53:05.887Z</time></trkpt><trkpt lat="42.2222667" lon="14.5653783"><ele>17.2</ele><time>2026-04-26T09:53:07.887Z</time></trkpt><trkpt lat="42.2222017" lon="14.5655033"><ele>18.8</ele><time>2026-04-26T09:53:09.887Z</time></trkpt><trkpt lat="42.222135" lon="14.5656233"><ele>20.400000000000002</ele><time>2026-04-26T09:53:11.887Z</time></trkpt><trkpt lat="42.22207" lon="14.5657583"><ele>22.0</ele><time>2026-04-26T09:53:13.887Z</time></trkpt><trkpt lat="42.222015" lon="14.56589"><ele>22.0</ele><time>2026-04-26T09:53:15.888Z</time></trkpt><trkpt lat="42.2219567" lon="14.56602"><ele>22.0</ele><time>2026-04-26T09:53:17.887Z</time></trkpt><trkpt lat="42.2218967" lon="14.5661583"><ele>22.0</ele><time>2026-04-26T09:53:19.888Z</time></trkpt><trkpt lat="42.2218367" lon="14.5662983"><ele>22.0</ele><time>2026-04-26T09:53:21.888Z</time></trkpt><trkpt lat="42.221775" lon="14.5664383"><ele>18.5</ele><time>2026-04-26T09:53:23.888Z</time></trkpt><trkpt lat="42.2217183" lon="14.5665717"><ele>15.0</ele><time>2026-04-26T09:53:25.888Z</time></trkpt><trkpt lat="42.221665" lon="14.5667067"><ele>11.5</ele><time>2026-04-26T09:53:27.888Z</time></trkpt><trkpt lat="42.2216083" lon="14.5668417"><ele>8.0</ele><time>2026-04-26T09:53:29.888Z</time></trkpt><trkpt lat="42.22155" lon="14.5669733"><ele>7.4</ele><time>2026-04-26T09:53:31.888Z</time></trkpt><trkpt lat="42.221495" lon="14.5671"><ele>6.800000000000001</ele><time>2026-04-26T09:53:33.888Z</time></trkpt><trkpt lat="42.2214383" lon="14.5672367"><ele>6.2</ele><time>2026-04-26T09:53:35.888Z</time></trkpt><trkpt lat="42.2213767" lon="14.5673683"><ele>5.6</ele><time>2026-04-26T09:53:37.887Z</time></trkpt><trkpt lat="42.221325" lon="14.5674917"><ele>5.0</ele><time>2026-04-26T09:53:39.888Z</time></trkpt><trkpt lat="42.2212683" lon="14.5676133"><ele>6.6</ele><time>2026-04-26T09:53:41.888Z</time></trkpt><trkpt lat="42.2212183" lon="14.5677417"><ele>8.2</ele><time>2026-04-26T09:53:43.888Z</time></trkpt><trkpt lat="42.221165" lon="14.56787"><ele>9.8</ele><time>2026-04-26T09:53:45.888Z</time></trkpt><trkpt lat="42.2211067" lon="14.5679983"><ele>11.4</ele><time>2026-04-26T09:53:47.887Z</time></trkpt><trkpt lat="42.2210533" lon="14.568125"><ele>13.0</ele><time>2026-04-26T09:53:49.888Z</time></trkpt><trkpt lat="42.2209917" lon="14.5682433"><ele>13.0</ele><time>2026-04-26T09:53:51.887Z</time></trkpt><trkpt lat="42.2209433" lon="14.5683683"><ele>13.0</ele><time>2026-04-26T09:53:53.888Z</time></trkpt><trkpt lat="42.2208933" lon="14.5684867"><ele>13.0</ele><time>2026-04-26T09:53:55.888Z</time></trkpt><trkpt lat="42.2208433" lon="14.5686133"><ele>13.0</ele><time>2026-04-26T09:53:57.888Z</time></trkpt><trkpt lat="42.2207967" lon="14.56873"><ele>13.0</ele><time>2026-04-26T09:53:59.887Z</time></trkpt><trkpt lat="42.2207467" lon="14.5688517"><ele>12.4</ele><time>2026-04-26T09:54:01.888Z</time></trkpt><trkpt lat="42.220695" lon="14.5689767"><ele>11.8</ele><time>2026-04-26T09:54:03.887Z</time></trkpt><trkpt lat="42.2206417" lon="14.5690983"><ele>11.2</ele><time>2026-04-26T09:54:05.887Z</time></trkpt><trkpt lat="42.2205917" lon="14.5692167"><ele>10.6</ele><time>2026-04-26T09:54:07.888Z</time></trkpt><trkpt lat="42.2205417" lon="14.5693417"><ele>10.0</ele><time>2026-04-26T09:54:09.887Z</time></trkpt><trkpt lat="42.2204883" lon="14.569465"><ele>11.6</ele><time>2026-04-26T09:54:11.888Z</time></trkpt><trkpt lat="42.2204333" lon="14.5695883"><ele>13.2</ele><time>2026-04-26T09:54:13.888Z</time></trkpt><trkpt lat="42.22038" lon="14.5697"><ele>14.8</ele><time>2026-04-26T09:54:15.888Z</time></trkpt><trkpt lat="42.2203283" lon="14.5698117"><ele>16.4</ele><time>2026-04-26T09:54:17.888Z</time></trkpt><trkpt lat="42.2202617" lon="14.569925"><ele>18.0</ele><time>2026-04-26T09:54:19.888Z</time></trkpt><trkpt lat="42.220185" lon="14.5700417"><ele>18.0</ele><time>2026-04-26T09:54:21.887Z</time></trkpt><trkpt lat="42.2201083" lon="14.5701533"><ele>18.0</ele><time>2026-04-26T09:54:23.887Z</time></trkpt><trkpt lat="42.2200267" lon="14.5702583"><ele>18.0</ele><time>2026-04-26T09:54:25.888Z</time></trkpt><trkpt lat="42.21995" lon="14.57036"><ele>18.0</ele><time>2026-04-26T09:54:27.887Z</time></trkpt><trkpt lat="42.219875" lon="14.5704633"><ele>18.0</ele><time>2026-04-26T09:54:29.888Z</time></trkpt><trkpt lat="42.219805" lon="14.5705617"><ele>18.8</ele><time>2026-04-26T09:54:31.887Z</time></trkpt><trkpt lat="42.2197383" lon="14.5706617"><ele>19.6</ele><time>2026-04-26T09:54:33.887Z</time></trkpt><trkpt lat="42.21966" lon="14.570765"><ele>20.400000000000002</ele><time>2026-04-26T09:54:35.888Z</time></trkpt><trkpt lat="42.21958" lon="14.5708633"><ele>21.200000000000003</ele><time>2026-04-26T09:54:37.888Z</time></trkpt><trkpt lat="42.21951" lon="14.5709667"><ele>22.0</ele><time>2026-04-26T09:54:39.888Z</time></trkpt><trkpt lat="42.2194383" lon="14.571065"><ele>22.0</ele><time>2026-04-26T09:54:41.888Z</time></trkpt><trkpt lat="42.2193683" lon="14.57116"><ele>22.0</ele><time>2026-04-26T09:54:43.887Z</time></trkpt><trkpt lat="42.2193033" lon="14.57126"><ele>22.0</ele><time>2026-04-26T09:54:45.888Z</time></trkpt><trkpt lat="42.2192233" lon="14.5713617"><ele>22.0</ele><time>2026-04-26T09:54:47.887Z</time></trkpt><trkpt lat="42.2191433" lon="14.57147"><ele>22.0</ele><time>2026-04-26T09:54:49.888Z</time></trkpt><trkpt lat="42.2190683" lon="14.5715883"><ele>21.6</ele><time>2026-04-26T09:54:51.888Z</time></trkpt><trkpt lat="42.2189933" lon="14.5716967"><ele>21.200000000000003</ele><time>2026-04-26T09:54:53.888Z</time></trkpt><trkpt lat="42.21892" lon="14.5718067"><ele>20.8</ele><time>2026-04-26T09:54:55.887Z</time></trkpt><trkpt lat="42.21885" lon="14.5719083"><ele>20.4</ele><time>2026-04-26T09:54:57.888Z</time></trkpt><trkpt lat="42.21879" lon="14.5720333"><ele>20.0</ele><time>2026-04-26T09:54:59.888Z</time></trkpt><trkpt lat="42.2187317" lon="14.5721533"><ele>20.0</ele><time>2026-04-26T09:55:01.888Z</time></trkpt><trkpt lat="42.2186717" lon="14.5722767"><ele>20.0</ele><time>2026-04-26T09:55:03.888Z</time></trkpt><trkpt lat="42.2186233" lon="14.5724067"><ele>20.0</ele><time>2026-04-26T09:55:05.887Z</time></trkpt><trkpt lat="42.2185717" lon="14.5725283"><ele>20.0</ele><time>2026-04-26T09:55:07.887Z</time></trkpt><trkpt lat="42.21852" lon="14.57265"><ele>20.0</ele><time>2026-04-26T09:55:09.888Z</time></trkpt><trkpt lat="42.2184717" lon="14.572775"><ele>19.8</ele><time>2026-04-26T09:55:11.887Z</time></trkpt><trkpt lat="42.2184217" lon="14.5728967"><ele>19.6</ele><time>2026-04-26T09:55:13.888Z</time></trkpt><trkpt lat="42.218375" lon="14.5730183"><ele>19.4</ele><time>2026-04-26T09:55:15.887Z</time></trkpt><trkpt lat="42.2183333" lon="14.5731483"><ele>19.2</ele><time>2026-04-26T09:55:17.887Z</time></trkpt><trkpt lat="42.2182833" lon="14.5732767"><ele>19.0</ele><time>2026-04-26T09:55:19.888Z</time></trkpt><trkpt lat="42.2182317" lon="14.5733983"><ele>19.0</ele><time>2026-04-26T09:55:21.887Z</time></trkpt><trkpt lat="42.2181767" lon="14.5735283"><ele>19.0</ele><time>2026-04-26T09:55:23.888Z</time></trkpt><trkpt lat="42.2181333" lon="14.57366"><ele>19.0</ele><time>2026-04-26T09:55:25.888Z</time></trkpt><trkpt lat="42.2180833" lon="14.57379"><ele>19.0</ele><time>2026-04-26T09:55:27.887Z</time></trkpt><trkpt lat="42.2180283" lon="14.573915"><ele>19.0</ele><time>2026-04-26T09:55:29.888Z</time></trkpt><trkpt lat="42.2179717" lon="14.574035"><ele>19.4</ele><time>2026-04-26T09:55:31.888Z</time></trkpt><trkpt lat="42.21791" lon="14.5741517"><ele>19.799999999999997</ele><time>2026-04-26T09:55:33.888Z</time></trkpt><trkpt lat="42.217845" lon="14.5742517"><ele>20.200000000000003</ele><time>2026-04-26T09:55:35.888Z</time></trkpt><trkpt lat="42.2177817" lon="14.5743583"><ele>20.6</ele><time>2026-04-26T09:55:37.888Z</time></trkpt><trkpt lat="42.2177067" lon="14.57446"><ele>21.0</ele><time>2026-04-26T09:55:39.887Z</time></trkpt><trkpt lat="42.2176283" lon="14.5745567"><ele>21.0</ele><time>2026-04-26T09:55:41.888Z</time></trkpt><trkpt lat="42.21755" lon="14.5746483"><ele>21.0</ele><time>2026-04-26T09:55:43.887Z</time></trkpt><trkpt lat="42.217465" lon="14.5747317"><ele>21.0</ele><time>2026-04-26T09:55:45.888Z</time></trkpt><trkpt lat="42.21738" lon="14.5748183"><ele>21.0</ele><time>2026-04-26T09:55:47.888Z</time></trkpt><trkpt lat="42.2172983" lon="14.5749083"><ele>21.0</ele><time>2026-04-26T09:55:49.887Z</time></trkpt><trkpt lat="42.2172217" lon="14.575005"><ele>22.8</ele><time>2026-04-26T09:55:51.888Z</time></trkpt><trkpt lat="42.2171483" lon="14.5751"><ele>24.6</ele><time>2026-04-26T09:55:53.888Z</time></trkpt><trkpt lat="42.2170833" lon="14.5752083"><ele>26.4</ele><time>2026-04-26T09:55:55.887Z</time></trkpt><trkpt lat="42.21702" lon="14.5753317"><ele>28.2</ele><time>2026-04-26T09:55:57.888Z</time></trkpt><trkpt lat="42.21697" lon="14.5754617"><ele>30.0</ele><time>2026-04-26T09:55:59.887Z</time></trkpt><trkpt lat="42.2169383" lon="14.575595"><ele>30.0</ele><time>2026-04-26T09:56:01.887Z</time></trkpt><trkpt lat="42.2169183" lon="14.5757267"><ele>30.0</ele><time>2026-04-26T09:56:03.888Z</time></trkpt><trkpt lat="42.2169017" lon="14.5758633"><ele>30.0</ele><time>2026-04-26T09:56:05.887Z</time></trkpt><trkpt lat="42.216895" lon="14.5760133"><ele>30.0</ele><time>2026-04-26T09:56:07.887Z</time></trkpt><trkpt lat="42.2168983" lon="14.5761717"><ele>30.0</ele><time>2026-04-26T09:56:09.888Z</time></trkpt><trkpt lat="42.2168983" lon="14.57632"><ele>30.0</ele><time>2026-04-26T09:56:11.887Z</time></trkpt><trkpt lat="42.2168967" lon="14.576485"><ele>30.0</ele><time>2026-04-26T09:56:13.888Z</time></trkpt><trkpt lat="42.2168783" lon="14.5766367"><ele>30.0</ele><time>2026-04-26T09:56:15.888Z</time></trkpt><trkpt lat="42.2168567" lon="14.5767717"><ele>30.0</ele><time>2026-04-26T09:56:17.888Z</time></trkpt><trkpt lat="42.2168233" lon="14.5769083"><ele>30.0</ele><time>2026-04-26T09:56:19.888Z</time></trkpt><trkpt lat="42.216775" lon="14.5770483"><ele>27.5</ele><time>2026-04-26T09:56:21.888Z</time></trkpt><trkpt lat="42.21673" lon="14.577185"><ele>25.0</ele><time>2026-04-26T09:56:23.888Z</time></trkpt><trkpt lat="42.2166733" lon="14.5773167"><ele>22.5</ele><time>2026-04-26T09:56:25.888Z</time></trkpt><trkpt lat="42.2166067" lon="14.57745"><ele>20.0</ele><time>2026-04-26T09:56:27.888Z</time></trkpt><trkpt lat="42.2165417" lon="14.5775817"><ele>20.5</ele><time>2026-04-26T09:56:29.888Z</time></trkpt><trkpt lat="42.21648" lon="14.5777117"><ele>21.0</ele><time>2026-04-26T09:56:31.887Z</time></trkpt><trkpt lat="42.2164183" lon="14.5778417"><ele>21.5</ele><time>2026-04-26T09:56:33.888Z</time></trkpt><trkpt lat="42.2163517" lon="14.5779733"><ele>22.0</ele><time>2026-04-26T09:56:35.888Z</time></trkpt><trkpt lat="42.2162867" lon="14.5781117"><ele>22.0</ele><time>2026-04-26T09:56:37.887Z</time></trkpt><trkpt lat="42.21622" lon="14.5782533"><ele>22.0</ele><time>2026-04-26T09:56:39.887Z</time></trkpt><trkpt lat="42.21615" lon="14.5783833"><ele>22.0</ele><time>2026-04-26T09:56:41.888Z</time></trkpt><trkpt lat="42.2160833" lon="14.5785167"><ele>22.0</ele><time>2026-04-26T09:56:43.887Z</time></trkpt><trkpt lat="42.216015" lon="14.578645"><ele>21.5</ele><time>2026-04-26T09:56:45.887Z</time></trkpt><trkpt lat="42.2159467" lon="14.5787733"><ele>21.0</ele><time>2026-04-26T09:56:47.887Z</time></trkpt><trkpt lat="42.2158833" lon="14.578905"><ele>20.5</ele><time>2026-04-26T09:56:49.888Z</time></trkpt><trkpt lat="42.2158167" lon="14.5790383"><ele>20.0</ele><time>2026-04-26T09:56:51.888Z</time></trkpt><trkpt lat="42.2157467" lon="14.5791717"><ele>20.0</ele><time>2026-04-26T09:56:53.888Z</time></trkpt><trkpt lat="42.2156767" lon="14.579295"><ele>20.0</ele><time>2026-04-26T09:56:55.888Z</time></trkpt><trkpt lat="42.21561" lon="14.579425"><ele>20.0</ele><time>2026-04-26T09:56:57.887Z</time></trkpt><trkpt lat="42.21554" lon="14.5795583"><ele>20.0</ele><time>2026-04-26T09:56:59.888Z</time></trkpt><trkpt lat="42.2154733" lon="14.579695"><ele>20.75</ele><time>2026-04-26T09:57:01.888Z</time></trkpt><trkpt lat="42.2154067" lon="14.5798233"><ele>21.5</ele><time>2026-04-26T09:57:03.888Z</time></trkpt><trkpt lat="42.215335" lon="14.5799533"><ele>22.25</ele><time>2026-04-26T09:57:05.888Z</time></trkpt><trkpt lat="42.21526" lon="14.5800867"><ele>23.0</ele><time>2026-04-26T09:57:07.887Z</time></trkpt><trkpt lat="42.2151917" lon="14.5802133"><ele>23.0</ele><time>2026-04-26T09:57:09.887Z</time></trkpt><trkpt lat="42.2151267" lon="14.5803417"><ele>23.0</ele><time>2026-04-26T09:57:11.888Z</time></trkpt><trkpt lat="42.2150617" lon="14.58048"><ele>23.0</ele><time>2026-04-26T09:57:13.888Z</time></trkpt><trkpt lat="42.2150233" lon="14.5805483"><ele>23.0</ele><time>2026-04-26T09:57:14.888Z</time></trkpt><trkpt lat="42.2149567" lon="14.5806867"><ele>23.0</ele><time>2026-04-26T09:57:16.888Z</time></trkpt><trkpt lat="42.2148933" lon="14.5808183"><ele>23.5</ele><time>2026-04-26T09:57:18.887Z</time></trkpt><trkpt lat="42.2148317" lon="14.58095"><ele>24.0</ele><time>2026-04-26T09:57:20.888Z</time></trkpt><trkpt lat="42.21477" lon="14.5810833"><ele>24.5</ele><time>2026-04-26T09:57:22.887Z</time></trkpt><trkpt lat="42.2147067" lon="14.58121"><ele>25.0</ele><time>2026-04-26T09:57:24.888Z</time></trkpt><trkpt lat="42.2146383" lon="14.58134"><ele>25.0</ele><time>2026-04-26T09:57:26.887Z</time></trkpt><trkpt lat="42.2145783" lon="14.58147"><ele>25.0</ele><time>2026-04-26T09:57:28.888Z</time></trkpt><trkpt lat="42.21451" lon="14.5815783"><ele>25.0</ele><time>2026-04-26T09:57:30.888Z</time></trkpt><trkpt lat="42.2144467" lon="14.581685"><ele>25.0</ele><time>2026-04-26T09:57:32.888Z</time></trkpt><trkpt lat="42.21439" lon="14.5818"><ele>25.0</ele><time>2026-04-26T09:57:34.887Z</time></trkpt><trkpt lat="42.21434" lon="14.5818933"><ele>25.000000000000004</ele><time>2026-04-26T09:57:36.887Z</time></trkpt><trkpt lat="42.214295" lon="14.5819733"><ele>25.0</ele><time>2026-04-26T09:57:38.887Z</time></trkpt><trkpt lat="42.214235" lon="14.5820033"><ele>25.0</ele><time>2026-04-26T09:57:42.888Z</time></trkpt><trkpt lat="42.2142667" lon="14.5819267"><ele>25.0</ele><time>2026-04-26T09:57:53.888Z</time></trkpt><trkpt lat="42.2142133" lon="14.58199"><ele>25.000000000000004</ele><time>2026-04-26T09:59:51.888Z</time></trkpt><trkpt lat="42.2141917" lon="14.5820917"><ele>25.0</ele><time>2026-04-26T09:59:55.888Z</time></trkpt><trkpt lat="42.2141583" lon="14.5822233"><ele>24.142857142857146</ele><time>2026-04-26T09:59:58.887Z</time></trkpt><trkpt lat="42.2141233" lon="14.5823267"><ele>23.285714285714285</ele><time>2026-04-26T10:00:00.887Z</time></trkpt><trkpt lat="42.2141233" lon="14.5824183"><ele>22.42857142857143</ele><time>2026-04-26T10:00:02.888Z</time></trkpt><trkpt lat="42.21418" lon="14.5824633"><ele>21.571428571428573</ele><time>2026-04-26T10:00:04.888Z</time></trkpt><trkpt lat="42.214245" lon="14.5824267"><ele>20.714285714285715</ele><time>2026-04-26T10:00:07.888Z</time></trkpt><trkpt lat="42.2143067" lon="14.5823833"><ele>19.857142857142858</ele><time>2026-04-26T10:00:10.887Z</time></trkpt><trkpt lat="42.2143717" lon="14.582395"><ele>19.0</ele><time>2026-04-26T10:00:12.887Z</time></trkpt><trkpt lat="42.2144433" lon="14.5824383"><ele>19.0</ele><time>2026-04-26T10:00:14.888Z</time></trkpt><trkpt lat="42.2145317" lon="14.5825067"><ele>19.0</ele><time>2026-04-26T10:00:16.888Z</time></trkpt><trkpt lat="42.2146267" lon="14.5825533"><ele>19.0</ele><time>2026-04-26T10:00:18.888Z</time></trkpt><trkpt lat="42.2147133" lon="14.5825767"><ele>19.0</ele><time>2026-04-26T10:00:20.887Z</time></trkpt><trkpt lat="42.2147833" lon="14.5825883"><ele>19.0</ele><time>2026-04-26T10:00:22.888Z</time></trkpt><trkpt lat="42.2148633" lon="14.5825633"><ele>19.0</ele><time>2026-04-26T10:00:25.888Z</time></trkpt><trkpt lat="42.2148067" lon="14.5826233"><ele>19.0</ele><time>2026-04-26T10:00:31.888Z</time></trkpt><trkpt lat="42.21476" lon="14.582685"><ele>19.0</ele><time>2026-04-26T10:00:33.888Z</time></trkpt><trkpt lat="42.214715" lon="14.582755"><ele>19.0</ele><time>2026-04-26T10:00:35.888Z</time></trkpt><trkpt lat="42.2146633" lon="14.582835"><ele>19.0</ele><time>2026-04-26T10:00:37.888Z</time></trkpt><trkpt lat="42.2146033" lon="14.5829317"><ele>19.0</ele><time>2026-04-26T10:00:39.888Z</time></trkpt><trkpt lat="42.21453" lon="14.5830183"><ele>19.0</ele><time>2026-04-26T10:00:41.888Z</time></trkpt><trkpt lat="42.2144567" lon="14.5831083"><ele>18.2</ele><time>2026-04-26T10:00:43.887Z</time></trkpt><trkpt lat="42.2143967" lon="14.5832233"><ele>17.4</ele><time>2026-04-26T10:00:45.888Z</time></trkpt><trkpt lat="42.2143483" lon="14.583345"><ele>16.6</ele><time>2026-04-26T10:00:47.887Z</time></trkpt><trkpt lat="42.2142967" lon="14.5834617"><ele>15.8</ele><time>2026-04-26T10:00:49.888Z</time></trkpt><trkpt lat="42.214235" lon="14.58358"><ele>15.0</ele><time>2026-04-26T10:00:51.888Z</time></trkpt><trkpt lat="42.2141717" lon="14.583695"><ele>16.4</ele><time>2026-04-26T10:00:53.888Z</time></trkpt><trkpt lat="42.2141067" lon="14.5838117"><ele>17.8</ele><time>2026-04-26T10:00:55.888Z</time></trkpt><trkpt lat="42.2140383" lon="14.58393"><ele>19.200000000000003</ele><time>2026-04-26T10:00:57.888Z</time></trkpt><trkpt lat="42.2139667" lon="14.5840383"><ele>20.6</ele><time>2026-04-26T10:00:59.888Z</time></trkpt><trkpt lat="42.2138867" lon="14.5841533"><ele>22.0</ele><time>2026-04-26T10:01:01.887Z</time></trkpt><trkpt lat="42.2138067" lon="14.5842717"><ele>22.0</ele><time>2026-04-26T10:01:03.888Z</time></trkpt><trkpt lat="42.2137283" lon="14.584385"><ele>22.0</ele><time>2026-04-26T10:01:05.887Z</time></trkpt><trkpt lat="42.2136467" lon="14.5844883"><ele>22.0</ele><time>2026-04-26T10:01:07.888Z</time></trkpt><trkpt lat="42.2136067" lon="14.5845633"><ele>22.0</ele><time>2026-04-26T10:01:08.888Z</time></trkpt><trkpt lat="42.213525" lon="14.584685"><ele>22.0</ele><time>2026-04-26T10:01:10.888Z</time></trkpt><trkpt lat="42.2134467" lon="14.5847983"><ele>22.0</ele><time>2026-04-26T10:01:12.888Z</time></trkpt><trkpt lat="42.2133617" lon="14.58492"><ele>22.0</ele><time>2026-04-26T10:01:14.887Z</time></trkpt><trkpt lat="42.2133183" lon="14.5849833"><ele>22.0</ele><time>2026-04-26T10:01:15.888Z</time></trkpt><trkpt lat="42.2132367" lon="14.585105"><ele>22.0</ele><time>2026-04-26T10:01:17.887Z</time></trkpt><trkpt lat="42.2131583" lon="14.5852233"><ele>22.0</ele><time>2026-04-26T10:01:19.888Z</time></trkpt><trkpt lat="42.2130867" lon="14.5853417"><ele>20.8</ele><time>2026-04-26T10:01:21.887Z</time></trkpt><trkpt lat="42.2130183" lon="14.585455"><ele>19.6</ele><time>2026-04-26T10:01:23.888Z</time></trkpt><trkpt lat="42.212945" lon="14.5855783"><ele>18.400000000000002</ele><time>2026-04-26T10:01:25.887Z</time></trkpt><trkpt lat="42.212905" lon="14.585645"><ele>17.200000000000003</ele><time>2026-04-26T10:01:26.887Z</time></trkpt><trkpt lat="42.2128667" lon="14.585715"><ele>16.0</ele><time>2026-04-26T10:01:27.887Z</time></trkpt><trkpt lat="42.2127933" lon="14.585855"><ele>16.0</ele><time>2026-04-26T10:01:29.888Z</time></trkpt><trkpt lat="42.2127183" lon="14.5859833"><ele>16.0</ele><time>2026-04-26T10:01:31.888Z</time></trkpt><trkpt lat="42.2126733" lon="14.5860483"><ele>16.0</ele><time>2026-04-26T10:01:32.888Z</time></trkpt><trkpt lat="42.2126183" lon="14.5862033"><ele>16.0</ele><time>2026-04-26T10:01:34.887Z</time></trkpt><trkpt lat="42.2126117" lon="14.5863067"><ele>16.0</ele><time>2026-04-26T10:01:35.888Z</time></trkpt><trkpt lat="42.2126083" lon="14.5864133"><ele>14.600000000000001</ele><time>2026-04-26T10:01:36.888Z</time></trkpt><trkpt lat="42.2125667" lon="14.5865717"><ele>13.200000000000001</ele><time>2026-04-26T10:01:38.888Z</time></trkpt><trkpt lat="42.2125167" lon="14.5867183"><ele>11.8</ele><time>2026-04-26T10:01:40.888Z</time></trkpt><trkpt lat="42.212465" lon="14.5868367"><ele>10.4</ele><time>2026-04-26T10:01:42.887Z</time></trkpt><trkpt lat="42.2124117" lon="14.5869433"><ele>9.0</ele><time>2026-04-26T10:01:44.887Z</time></trkpt><trkpt lat="42.212355" lon="14.5870567"><ele>11.75</ele><time>2026-04-26T10:01:46.887Z</time></trkpt><trkpt lat="42.2122867" lon="14.5871833"><ele>14.5</ele><time>2026-04-26T10:01:48.888Z</time></trkpt><trkpt lat="42.2122167" lon="14.5873183"><ele>17.25</ele><time>2026-04-26T10:01:50.888Z</time></trkpt><trkpt lat="42.2121533" lon="14.5874533"><ele>20.0</ele><time>2026-04-26T10:01:52.887Z</time></trkpt><trkpt lat="42.212095" lon="14.5875883"><ele>20.0</ele><time>2026-04-26T10:01:54.888Z</time></trkpt><trkpt lat="42.21203" lon="14.58773"><ele>20.0</ele><time>2026-04-26T10:01:56.888Z</time></trkpt><trkpt lat="42.2119833" lon="14.5878067"><ele>20.0</ele><time>2026-04-26T10:01:57.888Z</time></trkpt><trkpt lat="42.21192" lon="14.5879567"><ele>20.0</ele><time>2026-04-26T10:01:59.888Z</time></trkpt><trkpt lat="42.2118917" lon="14.588045"><ele>20.0</ele><time>2026-04-26T10:02:00.888Z</time></trkpt><trkpt lat="42.2118333" lon="14.58819"><ele>19.166666666666668</ele><time>2026-04-26T10:02:02.888Z</time></trkpt><trkpt lat="42.21179" lon="14.5882633"><ele>18.333333333333336</ele><time>2026-04-26T10:02:03.888Z</time></trkpt><trkpt lat="42.211725" lon="14.5883933"><ele>17.5</ele><time>2026-04-26T10:02:05.888Z</time></trkpt><trkpt lat="42.21169" lon="14.58847"><ele>16.666666666666668</ele><time>2026-04-26T10:02:06.888Z</time></trkpt><trkpt lat="42.2116567" lon="14.5885483"><ele>15.833333333333334</ele><time>2026-04-26T10:02:07.887Z</time></trkpt><trkpt lat="42.211625" lon="14.5886267"><ele>15.0</ele><time>2026-04-26T10:02:08.888Z</time></trkpt><trkpt lat="42.21159" lon="14.5887"><ele>13.666666666666666</ele><time>2026-04-26T10:02:09.888Z</time></trkpt><trkpt lat="42.211555" lon="14.588775"><ele>12.333333333333334</ele><time>2026-04-26T10:02:10.887Z</time></trkpt><trkpt lat="42.21152" lon="14.5888517"><ele>11.0</ele><time>2026-04-26T10:02:11.888Z</time></trkpt><trkpt lat="42.2114517" lon="14.5889917"><ele>9.666666666666668</ele><time>2026-04-26T10:02:13.888Z</time></trkpt><trkpt lat="42.2114167" lon="14.589065"><ele>8.333333333333334</ele><time>2026-04-26T10:02:14.888Z</time></trkpt><trkpt lat="42.2113833" lon="14.5891433"><ele>7.0</ele><time>2026-04-26T10:02:15.887Z</time></trkpt><trkpt lat="42.2113483" lon="14.5892233"><ele>8.0</ele><time>2026-04-26T10:02:16.888Z</time></trkpt><trkpt lat="42.211315" lon="14.589305"><ele>9.0</ele><time>2026-04-26T10:02:17.888Z</time></trkpt><trkpt lat="42.2112833" lon="14.5893883"><ele>10.0</ele><time>2026-04-26T10:02:18.887Z</time></trkpt><trkpt lat="42.211255" lon="14.5894683"><ele>11.0</ele><time>2026-04-26T10:02:19.888Z</time></trkpt><trkpt lat="42.21123" lon="14.5895467"><ele>12.0</ele><time>2026-04-26T10:02:20.887Z</time></trkpt><trkpt lat="42.2112033" lon="14.5896267"><ele>13.0</ele><time>2026-04-26T10:02:21.888Z</time></trkpt><trkpt lat="42.211175" lon="14.58971"><ele>14.0</ele><time>2026-04-26T10:02:22.888Z</time></trkpt><trkpt lat="42.211135" lon="14.5898033"><ele>14.0</ele><time>2026-04-26T10:02:23.888Z</time></trkpt><trkpt lat="42.2110933" lon="14.5898867"><ele>14.0</ele><time>2026-04-26T10:02:24.888Z</time></trkpt><trkpt lat="42.2110517" lon="14.5899717"><ele>14.0</ele><time>2026-04-26T10:02:25.888Z</time></trkpt><trkpt lat="42.2110133" lon="14.590055"><ele>14.0</ele><time>2026-04-26T10:02:26.888Z</time></trkpt><trkpt lat="42.2109767" lon="14.5901383"><ele>14.0</ele><time>2026-04-26T10:02:27.888Z</time></trkpt><trkpt lat="42.2109367" lon="14.5902233"><ele>14.0</ele><time>2026-04-26T10:02:28.887Z</time></trkpt><trkpt lat="42.2109" lon="14.590305"><ele>14.0</ele><time>2026-04-26T10:02:29.888Z</time></trkpt><trkpt lat="42.210865" lon="14.590385"><ele>12.714285714285714</ele><time>2026-04-26T10:02:30.888Z</time></trkpt><trkpt lat="42.2108283" lon="14.5904683"><ele>11.428571428571429</ele><time>2026-04-26T10:02:31.888Z</time></trkpt><trkpt lat="42.2107917" lon="14.59056"><ele>10.142857142857142</ele><time>2026-04-26T10:02:32.888Z</time></trkpt><trkpt lat="42.2107583" lon="14.5906433"><ele>8.857142857142858</ele><time>2026-04-26T10:02:33.888Z</time></trkpt><trkpt lat="42.21072" lon="14.5907267"><ele>7.571428571428571</ele><time>2026-04-26T10:02:34.888Z</time></trkpt><trkpt lat="42.21069" lon="14.590815"><ele>6.285714285714286</ele><time>2026-04-26T10:02:35.887Z</time></trkpt><trkpt lat="42.21066" lon="14.5908983"><ele>5.0</ele><time>2026-04-26T10:02:36.888Z</time></trkpt><trkpt lat="42.2106233" lon="14.59099"><ele>6.428571428571429</ele><time>2026-04-26T10:02:37.888Z</time></trkpt><trkpt lat="42.21059" lon="14.5910767"><ele>7.857142857142858</ele><time>2026-04-26T10:02:38.888Z</time></trkpt><trkpt lat="42.2105583" lon="14.5911583"><ele>9.285714285714286</ele><time>2026-04-26T10:02:39.888Z</time></trkpt><trkpt lat="42.210525" lon="14.5912417"><ele>10.714285714285714</ele><time>2026-04-26T10:02:40.888Z</time></trkpt><trkpt lat="42.2104867" lon="14.5913317"><ele>12.142857142857142</ele><time>2026-04-26T10:02:41.888Z</time></trkpt><trkpt lat="42.2104533" lon="14.5914133"><ele>13.571428571428571</ele><time>2026-04-26T10:02:42.887Z</time></trkpt><trkpt lat="42.2104217" lon="14.5914967"><ele>15.0</ele><time>2026-04-26T10:02:43.888Z</time></trkpt><trkpt lat="42.210385" lon="14.5915733"><ele>15.0</ele><time>2026-04-26T10:02:44.888Z</time></trkpt><trkpt lat="42.2103483" lon="14.591655"><ele>15.0</ele><time>2026-04-26T10:02:45.887Z</time></trkpt><trkpt lat="42.2103117" lon="14.591735"><ele>15.0</ele><time>2026-04-26T10:02:46.888Z</time></trkpt><trkpt lat="42.210275" lon="14.5918117"><ele>15.0</ele><time>2026-04-26T10:02:47.888Z</time></trkpt><trkpt lat="42.2102383" lon="14.59189"><ele>15.0</ele><time>2026-04-26T10:02:48.887Z</time></trkpt><trkpt lat="42.210205" lon="14.5919733"><ele>15.0</ele><time>2026-04-26T10:02:49.888Z</time></trkpt><trkpt lat="42.210165" lon="14.592055"><ele>15.0</ele><time>2026-04-26T10:02:50.888Z</time></trkpt><trkpt lat="42.21013" lon="14.592135"><ele>13.857142857142858</ele><time>2026-04-26T10:02:51.888Z</time></trkpt><trkpt lat="42.21009" lon="14.5922133"><ele>12.714285714285714</ele><time>2026-04-26T10:02:52.888Z</time></trkpt><trkpt lat="42.2100433" lon="14.5922967"><ele>11.571428571428571</ele><time>2026-04-26T10:02:53.888Z</time></trkpt><trkpt lat="42.210005" lon="14.5923767"><ele>10.428571428571429</ele><time>2026-04-26T10:02:54.888Z</time></trkpt><trkpt lat="42.20997" lon="14.5924583"><ele>9.285714285714285</ele><time>2026-04-26T10:02:55.888Z</time></trkpt><trkpt lat="42.2099267" lon="14.59254"><ele>8.142857142857142</ele><time>2026-04-26T10:02:56.888Z</time></trkpt><trkpt lat="42.209885" lon="14.592615"><ele>7.0</ele><time>2026-04-26T10:02:57.887Z</time></trkpt><trkpt lat="42.2098467" lon="14.5926883"><ele>7.857142857142858</ele><time>2026-04-26T10:02:58.888Z</time></trkpt><trkpt lat="42.2098033" lon="14.5927633"><ele>8.714285714285715</ele><time>2026-04-26T10:02:59.888Z</time></trkpt><trkpt lat="42.20976" lon="14.5928367"><ele>9.571428571428571</ele><time>2026-04-26T10:03:00.888Z</time></trkpt><trkpt lat="42.2097217" lon="14.592905"><ele>10.428571428571429</ele><time>2026-04-26T10:03:01.888Z</time></trkpt><trkpt lat="42.2096817" lon="14.5929767"><ele>11.285714285714286</ele><time>2026-04-26T10:03:02.887Z</time></trkpt><trkpt lat="42.20964" lon="14.5930517"><ele>12.142857142857142</ele><time>2026-04-26T10:03:03.887Z</time></trkpt><trkpt lat="42.2096" lon="14.59313"><ele>13.0</ele><time>2026-04-26T10:03:04.888Z</time></trkpt><trkpt lat="42.2095567" lon="14.5932083"><ele>13.0</ele><time>2026-04-26T10:03:05.887Z</time></trkpt><trkpt lat="42.209515" lon="14.5932833"><ele>13.0</ele><time>2026-04-26T10:03:06.888Z</time></trkpt><trkpt lat="42.2094717" lon="14.5933567"><ele>13.0</ele><time>2026-04-26T10:03:07.887Z</time></trkpt><trkpt lat="42.20943" lon="14.5934283"><ele>13.0</ele><time>2026-04-26T10:03:08.888Z</time></trkpt><trkpt lat="42.209385" lon="14.5935033"><ele>13.0</ele><time>2026-04-26T10:03:09.887Z</time></trkpt><trkpt lat="42.20934" lon="14.5935783"><ele>13.0</ele><time>2026-04-26T10:03:10.888Z</time></trkpt><trkpt lat="42.2092933" lon="14.593645"><ele>13.0</ele><time>2026-04-26T10:03:11.888Z</time></trkpt><trkpt lat="42.2092517" lon="14.59372"><ele>13.714285714285714</ele><time>2026-04-26T10:03:12.887Z</time></trkpt><trkpt lat="42.2092083" lon="14.5937983"><ele>14.42857142857143</ele><time>2026-04-26T10:03:13.887Z</time></trkpt><trkpt lat="42.2091667" lon="14.5938733"><ele>15.142857142857144</ele><time>2026-04-26T10:03:14.887Z</time></trkpt><trkpt lat="42.20912" lon="14.5939517"><ele>15.857142857142858</ele><time>2026-04-26T10:03:15.888Z</time></trkpt><trkpt lat="42.209075" lon="14.5940233"><ele>16.571428571428573</ele><time>2026-04-26T10:03:16.888Z</time></trkpt><trkpt lat="42.20903" lon="14.5940933"><ele>17.28571428571429</ele><time>2026-04-26T10:03:17.888Z</time></trkpt><trkpt lat="42.2089817" lon="14.5941683"><ele>18.0</ele><time>2026-04-26T10:03:18.888Z</time></trkpt><trkpt lat="42.2089333" lon="14.594245"><ele>18.000000000000004</ele><time>2026-04-26T10:03:19.888Z</time></trkpt><trkpt lat="42.2088833" lon="14.59432"><ele>18.0</ele><time>2026-04-26T10:03:20.888Z</time></trkpt><trkpt lat="42.2088383" lon="14.5944"><ele>18.0</ele><time>2026-04-26T10:03:21.887Z</time></trkpt><trkpt lat="42.2087967" lon="14.5944817"><ele>18.0</ele><time>2026-04-26T10:03:22.888Z</time></trkpt><trkpt lat="42.2087567" lon="14.594555"><ele>18.0</ele><time>2026-04-26T10:03:23.887Z</time></trkpt><trkpt lat="42.208715" lon="14.5946283"><ele>18.000000000000004</ele><time>2026-04-26T10:03:24.888Z</time></trkpt><trkpt lat="42.208675" lon="14.5946967"><ele>18.0</ele><time>2026-04-26T10:03:25.888Z</time></trkpt><trkpt lat="42.2086317" lon="14.5947733"><ele>17.42857142857143</ele><time>2026-04-26T10:03:26.888Z</time></trkpt><trkpt lat="42.208585" lon="14.59485"><ele>16.857142857142858</ele><time>2026-04-26T10:03:27.888Z</time></trkpt><trkpt lat="42.2085433" lon="14.594925"><ele>16.285714285714285</ele><time>2026-04-26T10:03:28.888Z</time></trkpt><trkpt lat="42.208505" lon="14.5949983"><ele>15.714285714285715</ele><time>2026-04-26T10:03:29.888Z</time></trkpt><trkpt lat="42.2084617" lon="14.5950767"><ele>15.142857142857142</ele><time>2026-04-26T10:03:30.888Z</time></trkpt><trkpt lat="42.2084183" lon="14.5951517"><ele>14.571428571428571</ele><time>2026-04-26T10:03:31.888Z</time></trkpt><trkpt lat="42.2083783" lon="14.5952217"><ele>14.0</ele><time>2026-04-26T10:03:32.887Z</time></trkpt><trkpt lat="42.2083367" lon="14.595295"><ele>14.571428571428571</ele><time>2026-04-26T10:03:33.888Z</time></trkpt><trkpt lat="42.2082967" lon="14.59537"><ele>15.142857142857142</ele><time>2026-04-26T10:03:34.888Z</time></trkpt><trkpt lat="42.2082583" lon="14.5954467"><ele>15.714285714285715</ele><time>2026-04-26T10:03:35.888Z</time></trkpt><trkpt lat="42.208215" lon="14.5955217"><ele>16.285714285714285</ele><time>2026-04-26T10:03:36.888Z</time></trkpt><trkpt lat="42.208175" lon="14.5955983"><ele>16.857142857142858</ele><time>2026-04-26T10:03:37.888Z</time></trkpt><trkpt lat="42.208135" lon="14.5956767"><ele>17.42857142857143</ele><time>2026-04-26T10:03:38.888Z</time></trkpt><trkpt lat="42.2080933" lon="14.5957517"><ele>18.0</ele><time>2026-04-26T10:03:39.888Z</time></trkpt><trkpt lat="42.2080567" lon="14.59583"><ele>18.0</ele><time>2026-04-26T10:03:40.888Z</time></trkpt><trkpt lat="42.2079967" lon="14.5959817"><ele>18.0</ele><time>2026-04-26T10:03:42.887Z</time></trkpt><trkpt lat="42.2079567" lon="14.5960617"><ele>18.0</ele><time>2026-04-26T10:03:43.888Z</time></trkpt><trkpt lat="42.2079167" lon="14.5961383"><ele>18.0</ele><time>2026-04-26T10:03:44.888Z</time></trkpt><trkpt lat="42.2078783" lon="14.5962167"><ele>18.0</ele><time>2026-04-26T10:03:45.888Z</time></trkpt><trkpt lat="42.20784" lon="14.596295"><ele>18.0</ele><time>2026-04-26T10:03:46.888Z</time></trkpt><trkpt lat="42.2078033" lon="14.5963783"><ele>17.42857142857143</ele><time>2026-04-26T10:03:47.888Z</time></trkpt><trkpt lat="42.2077683" lon="14.59646"><ele>16.857142857142858</ele><time>2026-04-26T10:03:48.888Z</time></trkpt><trkpt lat="42.2077367" lon="14.5965383"><ele>16.285714285714285</ele><time>2026-04-26T10:03:49.887Z</time></trkpt><trkpt lat="42.207705" lon="14.5966217"><ele>15.714285714285715</ele><time>2026-04-26T10:03:50.887Z</time></trkpt><trkpt lat="42.2076767" lon="14.596705"><ele>15.142857142857142</ele><time>2026-04-26T10:03:51.888Z</time></trkpt><trkpt lat="42.207645" lon="14.5967883"><ele>14.571428571428571</ele><time>2026-04-26T10:03:52.888Z</time></trkpt><trkpt lat="42.2076167" lon="14.5968717"><ele>14.0</ele><time>2026-04-26T10:03:53.888Z</time></trkpt><trkpt lat="42.207595" lon="14.596955"><ele>13.0</ele><time>2026-04-26T10:03:54.887Z</time></trkpt><trkpt lat="42.2075667" lon="14.5970383"><ele>12.0</ele><time>2026-04-26T10:03:55.888Z</time></trkpt><trkpt lat="42.2075367" lon="14.5971233"><ele>11.0</ele><time>2026-04-26T10:03:56.888Z</time></trkpt><trkpt lat="42.2074983" lon="14.5972067"><ele>10.0</ele><time>2026-04-26T10:03:57.888Z</time></trkpt><trkpt lat="42.20746" lon="14.5972883"><ele>9.0</ele><time>2026-04-26T10:03:58.887Z</time></trkpt><trkpt lat="42.2074233" lon="14.59737"><ele>8.0</ele><time>2026-04-26T10:03:59.887Z</time></trkpt><trkpt lat="42.207385" lon="14.5974517"><ele>7.0</ele><time>2026-04-26T10:04:00.888Z</time></trkpt><trkpt lat="42.20735" lon="14.5975283"><ele>8.142857142857142</ele><time>2026-04-26T10:04:01.888Z</time></trkpt><trkpt lat="42.207315" lon="14.5976083"><ele>9.285714285714285</ele><time>2026-04-26T10:04:02.888Z</time></trkpt><trkpt lat="42.2072817" lon="14.5976917"><ele>10.428571428571429</ele><time>2026-04-26T10:04:03.888Z</time></trkpt><trkpt lat="42.2072417" lon="14.597775"><ele>11.571428571428571</ele><time>2026-04-26T10:04:04.887Z</time></trkpt><trkpt lat="42.2072067" lon="14.597855"><ele>12.714285714285714</ele><time>2026-04-26T10:04:05.888Z</time></trkpt><trkpt lat="42.2071717" lon="14.59793"><ele>13.857142857142858</ele><time>2026-04-26T10:04:06.888Z</time></trkpt><trkpt lat="42.2071417" lon="14.5980067"><ele>15.0</ele><time>2026-04-26T10:04:07.888Z</time></trkpt><trkpt lat="42.2071067" lon="14.5980867"><ele>15.0</ele><time>2026-04-26T10:04:08.887Z</time></trkpt><trkpt lat="42.2070717" lon="14.5981717"><ele>15.0</ele><time>2026-04-26T10:04:09.888Z</time></trkpt><trkpt lat="42.207035" lon="14.5982517"><ele>15.0</ele><time>2026-04-26T10:04:10.888Z</time></trkpt><trkpt lat="42.2070033" lon="14.59833"><ele>15.0</ele><time>2026-04-26T10:04:11.887Z</time></trkpt><trkpt lat="42.20697" lon="14.5984083"><ele>15.0</ele><time>2026-04-26T10:04:12.888Z</time></trkpt><trkpt lat="42.2069367" lon="14.5984833"><ele>15.0</ele><time>2026-04-26T10:04:13.888Z</time></trkpt><trkpt lat="42.2068983" lon="14.5985633"><ele>15.0</ele><time>2026-04-26T10:04:14.888Z</time></trkpt><trkpt lat="42.2068617" lon="14.59865"><ele>14.0</ele><time>2026-04-26T10:04:15.888Z</time></trkpt><trkpt lat="42.20683" lon="14.5987317"><ele>13.0</ele><time>2026-04-26T10:04:16.887Z</time></trkpt><trkpt lat="42.206795" lon="14.5988117"><ele>12.0</ele><time>2026-04-26T10:04:17.887Z</time></trkpt><trkpt lat="42.2067583" lon="14.598895"><ele>11.0</ele><time>2026-04-26T10:04:18.887Z</time></trkpt><trkpt lat="42.2067183" lon="14.5989733"><ele>10.0</ele><time>2026-04-26T10:04:19.888Z</time></trkpt><trkpt lat="42.206685" lon="14.5990533"><ele>9.0</ele><time>2026-04-26T10:04:20.888Z</time></trkpt><trkpt lat="42.2066483" lon="14.5991317"><ele>8.0</ele><time>2026-04-26T10:04:21.887Z</time></trkpt><trkpt lat="42.206615" lon="14.599215"><ele>8.0</ele><time>2026-04-26T10:04:22.888Z</time></trkpt><trkpt lat="42.2065817" lon="14.5992983"><ele>7.999999999999999</ele><time>2026-04-26T10:04:23.888Z</time></trkpt><trkpt lat="42.2065483" lon="14.5993767"><ele>8.0</ele><time>2026-04-26T10:04:24.888Z</time></trkpt><trkpt lat="42.2065133" lon="14.5994567"><ele>8.0</ele><time>2026-04-26T10:04:25.888Z</time></trkpt><trkpt lat="42.2064783" lon="14.5995367"><ele>7.999999999999999</ele><time>2026-04-26T10:04:26.888Z</time></trkpt><trkpt lat="42.2064433" lon="14.5996167"><ele>8.0</ele><time>2026-04-26T10:04:27.888Z</time></trkpt><trkpt lat="42.2064083" lon="14.5996967"><ele>8.0</ele><time>2026-04-26T10:04:28.887Z</time></trkpt><trkpt lat="42.2063683" lon="14.5997717"><ele>8.0</ele><time>2026-04-26T10:04:29.887Z</time></trkpt><trkpt lat="42.2063317" lon="14.5998467"><ele>7.999999999999999</ele><time>2026-04-26T10:04:30.888Z</time></trkpt><trkpt lat="42.2062983" lon="14.5999317"><ele>8.0</ele><time>2026-04-26T10:04:31.887Z</time></trkpt><trkpt lat="42.2062633" lon="14.600015"><ele>8.0</ele><time>2026-04-26T10:04:32.888Z</time></trkpt><trkpt lat="42.206235" lon="14.6001"><ele>7.999999999999999</ele><time>2026-04-26T10:04:33.888Z</time></trkpt><trkpt lat="42.2061983" lon="14.6001767"><ele>8.0</ele><time>2026-04-26T10:04:34.887Z</time></trkpt><trkpt lat="42.206165" lon="14.6002533"><ele>8.0</ele><time>2026-04-26T10:04:35.888Z</time></trkpt><trkpt lat="42.2061317" lon="14.600335"><ele>8.0</ele><time>2026-04-26T10:04:36.888Z</time></trkpt><trkpt lat="42.2060967" lon="14.6004067"><ele>7.999999999999999</ele><time>2026-04-26T10:04:37.888Z</time></trkpt><trkpt lat="42.2060583" lon="14.6004867"><ele>8.0</ele><time>2026-04-26T10:04:38.887Z</time></trkpt><trkpt lat="42.2060233" lon="14.6005717"><ele>8.0</ele><time>2026-04-26T10:04:39.888Z</time></trkpt><trkpt lat="42.2059883" lon="14.6006517"><ele>7.999999999999999</ele><time>2026-04-26T10:04:40.887Z</time></trkpt><trkpt lat="42.205955" lon="14.6007367"><ele>8.0</ele><time>2026-04-26T10:04:41.888Z</time></trkpt><trkpt lat="42.2059183" lon="14.6008167"><ele>8.0</ele><time>2026-04-26T10:04:42.887Z</time></trkpt><trkpt lat="42.2058833" lon="14.600905"><ele>8.0</ele><time>2026-04-26T10:04:43.888Z</time></trkpt><trkpt lat="42.2058483" lon="14.6009817"><ele>7.999999999999999</ele><time>2026-04-26T10:04:44.887Z</time></trkpt><trkpt lat="42.20581" lon="14.6010617"><ele>8.0</ele><time>2026-04-26T10:04:45.888Z</time></trkpt><trkpt lat="42.2057683" lon="14.6011417"><ele>8.0</ele><time>2026-04-26T10:04:46.887Z</time></trkpt><trkpt lat="42.205725" lon="14.6012217"><ele>7.999999999999999</ele><time>2026-04-26T10:04:47.887Z</time></trkpt><trkpt lat="42.2056933" lon="14.6013067"><ele>8.0</ele><time>2026-04-26T10:04:48.887Z</time></trkpt><trkpt lat="42.2056567" lon="14.601385"><ele>8.0</ele><time>2026-04-26T10:04:49.887Z</time></trkpt><trkpt lat="42.2056217" lon="14.6014617"><ele>7.857142857142857</ele><time>2026-04-26T10:04:50.888Z</time></trkpt><trkpt lat="42.205585" lon="14.6015367"><ele>7.7142857142857135</ele><time>2026-04-26T10:04:51.888Z</time></trkpt><trkpt lat="42.2055517" lon="14.6016183"><ele>7.571428571428571</ele><time>2026-04-26T10:04:52.887Z</time></trkpt><trkpt lat="42.2055167" lon="14.6016967"><ele>7.428571428571429</ele><time>2026-04-26T10:04:53.887Z</time></trkpt><trkpt lat="42.2054833" lon="14.6017783"><ele>7.285714285714286</ele><time>2026-04-26T10:04:54.888Z</time></trkpt><trkpt lat="42.2054417" lon="14.6018567"><ele>7.142857142857142</ele><time>2026-04-26T10:04:55.888Z</time></trkpt><trkpt lat="42.2054067" lon="14.601935"><ele>7.0</ele><time>2026-04-26T10:04:56.887Z</time></trkpt><trkpt lat="42.2053717" lon="14.6020117"><ele>7.0</ele><time>2026-04-26T10:04:57.887Z</time></trkpt><trkpt lat="42.205335" lon="14.6020867"><ele>7.0</ele><time>2026-04-26T10:04:58.888Z</time></trkpt><trkpt lat="42.2052983" lon="14.6021667"><ele>7.0</ele><time>2026-04-26T10:04:59.888Z</time></trkpt><trkpt lat="42.2052567" lon="14.6022467"><ele>7.0</ele><time>2026-04-26T10:05:00.888Z</time></trkpt><trkpt lat="42.205215" lon="14.6023283"><ele>7.0</ele><time>2026-04-26T10:05:01.888Z</time></trkpt><trkpt lat="42.20518" lon="14.6024067"><ele>7.0</ele><time>2026-04-26T10:05:02.888Z</time></trkpt><trkpt lat="42.2051417" lon="14.6024917"><ele>7.0</ele><time>2026-04-26T10:05:03.888Z</time></trkpt><trkpt lat="42.2051083" lon="14.60258"><ele>7.0</ele><time>2026-04-26T10:05:04.888Z</time></trkpt><trkpt lat="42.2050717" lon="14.6026633"><ele>7.0</ele><time>2026-04-26T10:05:05.888Z</time></trkpt><trkpt lat="42.205035" lon="14.6027483"><ele>7.0</ele><time>2026-04-26T10:05:06.888Z</time></trkpt><trkpt lat="42.205" lon="14.602835"><ele>7.0</ele><time>2026-04-26T10:05:07.888Z</time></trkpt><trkpt lat="42.204965" lon="14.6029183"><ele>7.0</ele><time>2026-04-26T10:05:08.888Z</time></trkpt><trkpt lat="42.2049317" lon="14.6030017"><ele>7.0</ele><time>2026-04-26T10:05:09.887Z</time></trkpt><trkpt lat="42.2048967" lon="14.60308"><ele>7.0</ele><time>2026-04-26T10:05:10.888Z</time></trkpt><trkpt lat="42.2048633" lon="14.6031583"><ele>6.500000000000001</ele><time>2026-04-26T10:05:11.887Z</time></trkpt><trkpt lat="42.2048317" lon="14.603235"><ele>6.0</ele><time>2026-04-26T10:05:12.887Z</time></trkpt><trkpt lat="42.2047933" lon="14.60331"><ele>5.5</ele><time>2026-04-26T10:05:13.887Z</time></trkpt><trkpt lat="42.20476" lon="14.6033917"><ele>5.0</ele><time>2026-04-26T10:05:14.887Z</time></trkpt><trkpt lat="42.2047217" lon="14.6034817"><ele>4.5</ele><time>2026-04-26T10:05:15.888Z</time></trkpt><trkpt lat="42.2046883" lon="14.6035617"><ele>4.0</ele><time>2026-04-26T10:05:16.888Z</time></trkpt><trkpt lat="42.20461" lon="14.6036917"><ele>3.4285714285714284</ele><time>2026-04-26T10:05:18.888Z</time></trkpt><trkpt lat="42.2045683" lon="14.6037633"><ele>2.8571428571428568</ele><time>2026-04-26T10:05:19.888Z</time></trkpt><trkpt lat="42.2045283" lon="14.6038417"><ele>2.2857142857142856</ele><time>2026-04-26T10:05:20.888Z</time></trkpt><trkpt lat="42.2044883" lon="14.6039233"><ele>1.7142857142857142</ele><time>2026-04-26T10:05:21.888Z</time></trkpt><trkpt lat="42.2044517" lon="14.604005"><ele>1.1428571428571428</ele><time>2026-04-26T10:05:22.887Z</time></trkpt><trkpt lat="42.20442" lon="14.6040817"><ele>0.5714285714285714</ele><time>2026-04-26T10:05:23.887Z</time></trkpt><trkpt lat="42.2043867" lon="14.6041567"><ele>0.0</ele><time>2026-04-26T10:05:24.887Z</time></trkpt><trkpt lat="42.20435" lon="14.60423"><ele>0.0</ele><time>2026-04-26T10:05:25.888Z</time></trkpt><trkpt lat="42.204315" lon="14.6043067"><ele>0.0</ele><time>2026-04-26T10:05:26.887Z</time></trkpt><trkpt lat="42.20428" lon="14.604385"><ele>0.0</ele><time>2026-04-26T10:05:27.888Z</time></trkpt><trkpt lat="42.2042483" lon="14.6044617"><ele>0.0</ele><time>2026-04-26T10:05:28.888Z</time></trkpt><trkpt lat="42.2042133" lon="14.60454"><ele>0.0</ele><time>2026-04-26T10:05:29.887Z</time></trkpt><trkpt lat="42.20418" lon="14.6046183"><ele>0.0</ele><time>2026-04-26T10:05:30.888Z</time></trkpt><trkpt lat="42.2041517" lon="14.604695"><ele>0.0</ele><time>2026-04-26T10:05:31.888Z</time></trkpt><trkpt lat="42.2041217" lon="14.6047717"><ele>0.14285714285714285</ele><time>2026-04-26T10:05:32.888Z</time></trkpt><trkpt lat="42.20409" lon="14.6048467"><ele>0.2857142857142857</ele><time>2026-04-26T10:05:33.887Z</time></trkpt><trkpt lat="42.2040583" lon="14.604925"><ele>0.42857142857142855</ele><time>2026-04-26T10:05:34.887Z</time></trkpt><trkpt lat="42.2040233" lon="14.6050017"><ele>0.5714285714285714</ele><time>2026-04-26T10:05:35.887Z</time></trkpt><trkpt lat="42.20399" lon="14.6050783"><ele>0.7142857142857142</ele><time>2026-04-26T10:05:36.888Z</time></trkpt><trkpt lat="42.2039617" lon="14.605155"><ele>0.8571428571428571</ele><time>2026-04-26T10:05:37.888Z</time></trkpt><trkpt lat="42.2039267" lon="14.6052333"><ele>1.0</ele><time>2026-04-26T10:05:38.888Z</time></trkpt><trkpt lat="42.2038917" lon="14.6053083"><ele>0.8571428571428571</ele><time>2026-04-26T10:05:39.888Z</time></trkpt><trkpt lat="42.2038567" lon="14.6053867"><ele>0.7142857142857142</ele><time>2026-04-26T10:05:40.887Z</time></trkpt><trkpt lat="42.2038233" lon="14.6054633"><ele>0.5714285714285714</ele><time>2026-04-26T10:05:41.888Z</time></trkpt><trkpt lat="42.2037917" lon="14.6055417"><ele>0.42857142857142855</ele><time>2026-04-26T10:05:42.888Z</time></trkpt><trkpt lat="42.2037583" lon="14.6056167"><ele>0.2857142857142857</ele><time>2026-04-26T10:05:43.888Z</time></trkpt><trkpt lat="42.2037267" lon="14.6056917"><ele>0.14285714285714285</ele><time>2026-04-26T10:05:44.888Z</time></trkpt><trkpt lat="42.20369" lon="14.6057717"><ele>0.0</ele><time>2026-04-26T10:05:45.888Z</time></trkpt><trkpt lat="42.2036583" lon="14.6058467"><ele>0.0</ele><time>2026-04-26T10:05:46.887Z</time></trkpt><trkpt lat="42.2036217" lon="14.6059217"><ele>0.0</ele><time>2026-04-26T10:05:47.888Z</time></trkpt><trkpt lat="42.2035867" lon="14.6060017"><ele>0.0</ele><time>2026-04-26T10:05:48.888Z</time></trkpt><trkpt lat="42.2035533" lon="14.6060767"><ele>0.0</ele><time>2026-04-26T10:05:49.888Z</time></trkpt><trkpt lat="42.2035233" lon="14.6061583"><ele>0.0</ele><time>2026-04-26T10:05:50.887Z</time></trkpt><trkpt lat="42.2034917" lon="14.606235"><ele>0.0</ele><time>2026-04-26T10:05:51.888Z</time></trkpt><trkpt lat="42.2034567" lon="14.6063117"><ele>0.0</ele><time>2026-04-26T10:05:52.888Z</time></trkpt><trkpt lat="42.2034233" lon="14.6063883"><ele>0.14285714285714285</ele><time>2026-04-26T10:05:53.888Z</time></trkpt><trkpt lat="42.2033883" lon="14.6064633"><ele>0.2857142857142857</ele><time>2026-04-26T10:05:54.887Z</time></trkpt><trkpt lat="42.2033533" lon="14.6065433"><ele>0.42857142857142855</ele><time>2026-04-26T10:05:55.888Z</time></trkpt><trkpt lat="42.2033183" lon="14.6066233"><ele>0.5714285714285714</ele><time>2026-04-26T10:05:56.887Z</time></trkpt><trkpt lat="42.20328" lon="14.6066983"><ele>0.7142857142857142</ele><time>2026-04-26T10:05:57.887Z</time></trkpt><trkpt lat="42.2032417" lon="14.6067783"><ele>0.8571428571428571</ele><time>2026-04-26T10:05:58.888Z</time></trkpt><trkpt lat="42.2032067" lon="14.6068567"><ele>1.0</ele><time>2026-04-26T10:05:59.888Z</time></trkpt><trkpt lat="42.2031717" lon="14.60693"><ele>1.2857142857142856</ele><time>2026-04-26T10:06:00.887Z</time></trkpt><trkpt lat="42.2031367" lon="14.6070083"><ele>1.5714285714285712</ele><time>2026-04-26T10:06:01.888Z</time></trkpt><trkpt lat="42.2031017" lon="14.60709"><ele>1.857142857142857</ele><time>2026-04-26T10:06:02.887Z</time></trkpt><trkpt lat="42.2030683" lon="14.60717"><ele>2.142857142857143</ele><time>2026-04-26T10:06:03.888Z</time></trkpt><trkpt lat="42.203035" lon="14.6072483"><ele>2.4285714285714284</ele><time>2026-04-26T10:06:04.888Z</time></trkpt><trkpt lat="42.203" lon="14.6073267"><ele>2.714285714285714</ele><time>2026-04-26T10:06:05.888Z</time></trkpt><trkpt lat="42.202965" lon="14.6074067"><ele>3.0</ele><time>2026-04-26T10:06:06.888Z</time></trkpt><trkpt lat="42.2029283" lon="14.6074833"><ele>2.9999999999999996</ele><time>2026-04-26T10:06:07.887Z</time></trkpt><trkpt lat="42.2028967" lon="14.6075583"><ele>3.0</ele><time>2026-04-26T10:06:08.888Z</time></trkpt><trkpt lat="42.2028617" lon="14.6076417"><ele>3.0</ele><time>2026-04-26T10:06:09.888Z</time></trkpt><trkpt lat="42.20283" lon="14.6077233"><ele>3.0</ele><time>2026-04-26T10:06:10.888Z</time></trkpt><trkpt lat="42.2027967" lon="14.6077967"><ele>3.0</ele><time>2026-04-26T10:06:11.888Z</time></trkpt><trkpt lat="42.2027683" lon="14.607875"><ele>2.9999999999999996</ele><time>2026-04-26T10:06:12.888Z</time></trkpt><trkpt lat="42.20273" lon="14.6079567"><ele>3.0</ele><time>2026-04-26T10:06:13.888Z</time></trkpt><trkpt lat="42.2026933" lon="14.608035"><ele>3.1428571428571423</ele><time>2026-04-26T10:06:14.888Z</time></trkpt><trkpt lat="42.2026567" lon="14.6081133"><ele>3.2857142857142856</ele><time>2026-04-26T10:06:15.888Z</time></trkpt><trkpt lat="42.2026217" lon="14.608195"><ele>3.4285714285714284</ele><time>2026-04-26T10:06:16.887Z</time></trkpt><trkpt lat="42.2025867" lon="14.60827"><ele>3.571428571428571</ele><time>2026-04-26T10:06:17.887Z</time></trkpt><trkpt lat="42.2025567" lon="14.6083467"><ele>3.714285714285714</ele><time>2026-04-26T10:06:18.888Z</time></trkpt><trkpt lat="42.202525" lon="14.60843"><ele>3.8571428571428568</ele><time>2026-04-26T10:06:19.887Z</time></trkpt><trkpt lat="42.2024917" lon="14.6085133"><ele>4.0</ele><time>2026-04-26T10:06:20.887Z</time></trkpt><trkpt lat="42.20246" lon="14.6085933"><ele>4.166666666666666</ele><time>2026-04-26T10:06:21.888Z</time></trkpt><trkpt lat="42.2024317" lon="14.60867"><ele>4.333333333333333</ele><time>2026-04-26T10:06:22.887Z</time></trkpt><trkpt lat="42.2024" lon="14.60875"><ele>4.5</ele><time>2026-04-26T10:06:23.888Z</time></trkpt><trkpt lat="42.2023667" lon="14.6088317"><ele>4.666666666666667</ele><time>2026-04-26T10:06:24.888Z</time></trkpt><trkpt lat="42.2023333" lon="14.6089133"><ele>4.833333333333334</ele><time>2026-04-26T10:06:25.888Z</time></trkpt><trkpt lat="42.20227" lon="14.6090617"><ele>5.0</ele><time>2026-04-26T10:06:27.888Z</time></trkpt><trkpt lat="42.2022333" lon="14.6091367"><ele>4.6</ele><time>2026-04-26T10:06:28.888Z</time></trkpt><trkpt lat="42.2021733" lon="14.60928"><ele>4.2</ele><time>2026-04-26T10:06:30.888Z</time></trkpt><trkpt lat="42.2021233" lon="14.6094167"><ele>3.8</ele><time>2026-04-26T10:06:32.888Z</time></trkpt><trkpt lat="42.2020717" lon="14.6095333"><ele>3.4</ele><time>2026-04-26T10:06:34.888Z</time></trkpt><trkpt lat="42.202025" lon="14.6096467"><ele>3.0</ele><time>2026-04-26T10:06:36.887Z</time></trkpt><trkpt lat="42.201995" lon="14.609765"><ele>3.0</ele><time>2026-04-26T10:06:38.887Z</time></trkpt><trkpt lat="42.20197" lon="14.609895"><ele>3.0</ele><time>2026-04-26T10:06:40.888Z</time></trkpt><trkpt lat="42.2019533" lon="14.6100367"><ele>3.0</ele><time>2026-04-26T10:06:42.887Z</time></trkpt><trkpt lat="42.20195" lon="14.61021"><ele>3.0</ele><time>2026-04-26T10:06:44.887Z</time></trkpt><trkpt lat="42.20195" lon="14.6102983"><ele>3.0</ele><time>2026-04-26T10:06:45.888Z</time></trkpt><trkpt lat="42.201945" lon="14.6103917"><ele>3.4</ele><time>2026-04-26T10:06:46.888Z</time></trkpt><trkpt lat="42.2019333" lon="14.6104833"><ele>3.8</ele><time>2026-04-26T10:06:47.888Z</time></trkpt><trkpt lat="42.2019083" lon="14.61058"><ele>4.2</ele><time>2026-04-26T10:06:48.887Z</time></trkpt><trkpt lat="42.2018783" lon="14.610665"><ele>4.6</ele><time>2026-04-26T10:06:49.888Z</time></trkpt><trkpt lat="42.20182" lon="14.610815"><ele>5.0</ele><time>2026-04-26T10:06:51.888Z</time></trkpt><trkpt lat="42.2017667" lon="14.6109733"><ele>5.0</ele><time>2026-04-26T10:06:53.888Z</time></trkpt><trkpt lat="42.201735" lon="14.611055"><ele>5.0</ele><time>2026-04-26T10:06:54.888Z</time></trkpt><trkpt lat="42.2017017" lon="14.611135"><ele>5.0</ele><time>2026-04-26T10:06:55.888Z</time></trkpt><trkpt lat="42.2016717" lon="14.6112183"><ele>5.0</ele><time>2026-04-26T10:06:56.887Z</time></trkpt><trkpt lat="42.2016417" lon="14.6113033"><ele>5.0</ele><time>2026-04-26T10:06:57.888Z</time></trkpt><trkpt lat="42.201615" lon="14.6113867"><ele>5.0</ele><time>2026-04-26T10:06:58.887Z</time></trkpt><trkpt lat="42.20159" lon="14.6114683"><ele>5.0</ele><time>2026-04-26T10:06:59.888Z</time></trkpt><trkpt lat="42.2015683" lon="14.6115483"><ele>5.0</ele><time>2026-04-26T10:07:00.887Z</time></trkpt><trkpt lat="42.2015467" lon="14.6116317"><ele>5.0</ele><time>2026-04-26T10:07:01.887Z</time></trkpt><trkpt lat="42.2015217" lon="14.6117183"><ele>5.0</ele><time>2026-04-26T10:07:02.887Z</time></trkpt><trkpt lat="42.201495" lon="14.6118033"><ele>5.0</ele><time>2026-04-26T10:07:03.888Z</time></trkpt><trkpt lat="42.20147" lon="14.61189"><ele>5.0</ele><time>2026-04-26T10:07:04.888Z</time></trkpt><trkpt lat="42.2014433" lon="14.611975"><ele>5.0</ele><time>2026-04-26T10:07:05.888Z</time></trkpt><trkpt lat="42.201415" lon="14.6120583"><ele>5.0</ele><time>2026-04-26T10:07:06.888Z</time></trkpt><trkpt lat="42.20139" lon="14.612145"><ele>5.2</ele><time>2026-04-26T10:07:07.887Z</time></trkpt><trkpt lat="42.2013517" lon="14.6123067"><ele>5.4</ele><time>2026-04-26T10:07:09.888Z</time></trkpt><trkpt lat="42.2013083" lon="14.6124667"><ele>5.6</ele><time>2026-04-26T10:07:11.888Z</time></trkpt><trkpt lat="42.2012833" lon="14.612545"><ele>5.8</ele><time>2026-04-26T10:07:12.888Z</time></trkpt><trkpt lat="42.201235" lon="14.6126983"><ele>6.0</ele><time>2026-04-26T10:07:14.887Z</time></trkpt><trkpt lat="42.2011867" lon="14.612845"><ele>6.199999999999999</ele><time>2026-04-26T10:07:16.888Z</time></trkpt><trkpt lat="42.201145" lon="14.6129733"><ele>6.3999999999999995</ele><time>2026-04-26T10:07:18.888Z</time></trkpt><trkpt lat="42.2011067" lon="14.613105"><ele>6.6</ele><time>2026-04-26T10:07:20.888Z</time></trkpt><trkpt lat="42.201055" lon="14.6132433"><ele>6.8</ele><time>2026-04-26T10:07:22.887Z</time></trkpt><trkpt lat="42.2010067" lon="14.6133767"><ele>7.0</ele><time>2026-04-26T10:07:24.888Z</time></trkpt><trkpt lat="42.200955" lon="14.6135067"><ele>7.0</ele><time>2026-04-26T10:07:26.888Z</time></trkpt><trkpt lat="42.20092" lon="14.6136383"><ele>6.999999999999999</ele><time>2026-04-26T10:07:28.888Z</time></trkpt><trkpt lat="42.2008817" lon="14.61376"><ele>6.999999999999999</ele><time>2026-04-26T10:07:30.888Z</time></trkpt><trkpt lat="42.2008417" lon="14.6138967"><ele>7.0</ele><time>2026-04-26T10:07:32.888Z</time></trkpt><trkpt lat="42.20081" lon="14.6140333"><ele>7.0</ele><time>2026-04-26T10:07:34.888Z</time></trkpt><trkpt lat="42.2007767" lon="14.6141567"><ele>6.6</ele><time>2026-04-26T10:07:36.887Z</time></trkpt><trkpt lat="42.2007483" lon="14.61428"><ele>6.199999999999999</ele><time>2026-04-26T10:07:38.888Z</time></trkpt><trkpt lat="42.200705" lon="14.6144017"><ele>5.8</ele><time>2026-04-26T10:07:40.888Z</time></trkpt><trkpt lat="42.2006783" lon="14.6145383"><ele>5.4</ele><time>2026-04-26T10:07:42.888Z</time></trkpt><trkpt lat="42.2006617" lon="14.614685"><ele>5.0</ele><time>2026-04-26T10:07:44.887Z</time></trkpt><trkpt lat="42.2006733" lon="14.6148267"><ele>4.8</ele><time>2026-04-26T10:07:46.888Z</time></trkpt><trkpt lat="42.2006483" lon="14.6149883"><ele>4.6</ele><time>2026-04-26T10:07:48.888Z</time></trkpt><trkpt lat="42.200595" lon="14.61512"><ele>4.4</ele><time>2026-04-26T10:07:50.888Z</time></trkpt><trkpt lat="42.2005367" lon="14.6152267"><ele>4.2</ele><time>2026-04-26T10:07:52.888Z</time></trkpt><trkpt lat="42.20047" lon="14.6153083"><ele>4.0</ele><time>2026-04-26T10:07:54.887Z</time></trkpt><trkpt lat="42.200395" lon="14.61541"><ele>4.0</ele><time>2026-04-26T10:07:56.887Z</time></trkpt><trkpt lat="42.200325" lon="14.6155283"><ele>4.0</ele><time>2026-04-26T10:07:58.888Z</time></trkpt><trkpt lat="42.2002767" lon="14.6156467"><ele>4.0</ele><time>2026-04-26T10:08:00.888Z</time></trkpt><trkpt lat="42.2002283" lon="14.61576"><ele>4.0</ele><time>2026-04-26T10:08:02.888Z</time></trkpt><trkpt lat="42.2001867" lon="14.6158817"><ele>4.0</ele><time>2026-04-26T10:08:04.888Z</time></trkpt><trkpt lat="42.2001367" lon="14.6160117"><ele>4.0</ele><time>2026-04-26T10:08:06.887Z</time></trkpt><trkpt lat="42.200085" lon="14.6161433"><ele>4.0</ele><time>2026-04-26T10:08:08.887Z</time></trkpt><trkpt lat="42.20005" lon="14.6162817"><ele>4.0</ele><time>2026-04-26T10:08:10.888Z</time></trkpt><trkpt lat="42.2000017" lon="14.6164333"><ele>4.0</ele><time>2026-04-26T10:08:12.888Z</time></trkpt><trkpt lat="42.19995" lon="14.61658"><ele>4.5</ele><time>2026-04-26T10:08:14.888Z</time></trkpt><trkpt lat="42.1999033" lon="14.61672"><ele>5.0</ele><time>2026-04-26T10:08:16.888Z</time></trkpt><trkpt lat="42.1998533" lon="14.6168617"><ele>5.5</ele><time>2026-04-26T10:08:18.887Z</time></trkpt><trkpt lat="42.19981" lon="14.617"><ele>6.0</ele><time>2026-04-26T10:08:20.888Z</time></trkpt><trkpt lat="42.1997633" lon="14.6171433"><ele>6.0</ele><time>2026-04-26T10:08:22.888Z</time></trkpt><trkpt lat="42.1997133" lon="14.6172917"><ele>6.0</ele><time>2026-04-26T10:08:24.888Z</time></trkpt><trkpt lat="42.1996667" lon="14.6174383"><ele>6.0</ele><time>2026-04-26T10:08:26.888Z</time></trkpt><trkpt lat="42.1996383" lon="14.617515"><ele>6.0</ele><time>2026-04-26T10:08:27.887Z</time></trkpt><trkpt lat="42.1995867" lon="14.61765"><ele>6.0</ele><time>2026-04-26T10:08:29.888Z</time></trkpt><trkpt lat="42.1995483" lon="14.6177867"><ele>5.25</ele><time>2026-04-26T10:08:31.888Z</time></trkpt><trkpt lat="42.1995083" lon="14.6179367"><ele>4.5</ele><time>2026-04-26T10:08:33.888Z</time></trkpt><trkpt lat="42.199465" lon="14.6180817"><ele>3.75</ele><time>2026-04-26T10:08:35.888Z</time></trkpt><trkpt lat="42.199415" lon="14.6182267"><ele>3.0</ele><time>2026-04-26T10:08:37.887Z</time></trkpt><trkpt lat="42.1993683" lon="14.6183667"><ele>3.0</ele><time>2026-04-26T10:08:39.887Z</time></trkpt><trkpt lat="42.1993233" lon="14.6185033"><ele>3.0</ele><time>2026-04-26T10:08:41.888Z</time></trkpt><trkpt lat="42.1992767" lon="14.618635"><ele>3.0</ele><time>2026-04-26T10:08:43.888Z</time></trkpt><trkpt lat="42.1992283" lon="14.6187717"><ele>3.0</ele><time>2026-04-26T10:08:45.888Z</time></trkpt><trkpt lat="42.19918" lon="14.6189033"><ele>3.0</ele><time>2026-04-26T10:08:47.887Z</time></trkpt><trkpt lat="42.19913" lon="14.6190467"><ele>2.8</ele><time>2026-04-26T10:08:49.888Z</time></trkpt><trkpt lat="42.1990767" lon="14.619185"><ele>2.5999999999999996</ele><time>2026-04-26T10:08:51.888Z</time></trkpt><trkpt lat="42.199035" lon="14.6193267"><ele>2.4000000000000004</ele><time>2026-04-26T10:08:53.888Z</time></trkpt><trkpt lat="42.1989883" lon="14.619455"><ele>2.2</ele><time>2026-04-26T10:08:55.887Z</time></trkpt><trkpt lat="42.1989483" lon="14.6195917"><ele>2.0</ele><time>2026-04-26T10:08:57.888Z</time></trkpt><trkpt lat="42.1989067" lon="14.6197317"><ele>3.75</ele><time>2026-04-26T10:08:59.888Z</time></trkpt><trkpt lat="42.1988633" lon="14.6198767"><ele>5.5</ele><time>2026-04-26T10:09:01.888Z</time></trkpt><trkpt lat="42.1988217" lon="14.62002"><ele>7.25</ele><time>2026-04-26T10:09:03.887Z</time></trkpt><trkpt lat="42.1987733" lon="14.6201667"><ele>9.0</ele><time>2026-04-26T10:09:05.888Z</time></trkpt><trkpt lat="42.1987333" lon="14.6203183"><ele>9.0</ele><time>2026-04-26T10:09:07.888Z</time></trkpt><trkpt lat="42.1986933" lon="14.620465"><ele>9.0</ele><time>2026-04-26T10:09:09.887Z</time></trkpt><trkpt lat="42.1986533" lon="14.62061"><ele>9.0</ele><time>2026-04-26T10:09:11.888Z</time></trkpt><trkpt lat="42.198605" lon="14.6207583"><ele>9.0</ele><time>2026-04-26T10:09:13.888Z</time></trkpt><trkpt lat="42.1985667" lon="14.6209017"><ele>9.0</ele><time>2026-04-26T10:09:15.887Z</time></trkpt><trkpt lat="42.198525" lon="14.621045"><ele>9.0</ele><time>2026-04-26T10:09:17.887Z</time></trkpt><trkpt lat="42.19849" lon="14.6211917"><ele>9.0</ele><time>2026-04-26T10:09:19.888Z</time></trkpt><trkpt lat="42.1984483" lon="14.621345"><ele>9.0</ele><time>2026-04-26T10:09:21.887Z</time></trkpt><trkpt lat="42.198405" lon="14.621485"><ele>8.75</ele><time>2026-04-26T10:09:23.888Z</time></trkpt><trkpt lat="42.19837" lon="14.6216333"><ele>8.5</ele><time>2026-04-26T10:09:25.887Z</time></trkpt><trkpt lat="42.1983333" lon="14.621775"><ele>8.25</ele><time>2026-04-26T10:09:27.888Z</time></trkpt><trkpt lat="42.1982933" lon="14.6219167"><ele>8.0</ele><time>2026-04-26T10:09:29.888Z</time></trkpt><trkpt lat="42.1982533" lon="14.62206"><ele>7.0</ele><time>2026-04-26T10:09:31.887Z</time></trkpt><trkpt lat="42.1982117" lon="14.6222017"><ele>6.0</ele><time>2026-04-26T10:09:33.888Z</time></trkpt><trkpt lat="42.1981633" lon="14.6223417"><ele>5.0</ele><time>2026-04-26T10:09:35.888Z</time></trkpt><trkpt lat="42.19812" lon="14.6224883"><ele>4.0</ele><time>2026-04-26T10:09:37.887Z</time></trkpt><trkpt lat="42.1980733" lon="14.6226367"><ele>5.75</ele><time>2026-04-26T10:09:39.887Z</time></trkpt><trkpt lat="42.198035" lon="14.62278"><ele>7.5</ele><time>2026-04-26T10:09:41.888Z</time></trkpt><trkpt lat="42.1979833" lon="14.6229133"><ele>9.25</ele><time>2026-04-26T10:09:43.888Z</time></trkpt><trkpt lat="42.19793" lon="14.6230517"><ele>11.0</ele><time>2026-04-26T10:09:45.888Z</time></trkpt><trkpt lat="42.1979" lon="14.6232083"><ele>11.0</ele><time>2026-04-26T10:09:47.887Z</time></trkpt><trkpt lat="42.1978667" lon="14.6233567"><ele>11.0</ele><time>2026-04-26T10:09:49.887Z</time></trkpt><trkpt lat="42.19783" lon="14.6235017"><ele>11.0</ele><time>2026-04-26T10:09:51.888Z</time></trkpt><trkpt lat="42.1977933" lon="14.6236517"><ele>11.0</ele><time>2026-04-26T10:09:53.888Z</time></trkpt><trkpt lat="42.1977483" lon="14.623795"><ele>10.5</ele><time>2026-04-26T10:09:55.887Z</time></trkpt><trkpt lat="42.1977033" lon="14.6239433"><ele>10.0</ele><time>2026-04-26T10:09:57.888Z</time></trkpt><trkpt lat="42.197655" lon="14.6240867"><ele>9.5</ele><time>2026-04-26T10:09:59.888Z</time></trkpt><trkpt lat="42.1976133" lon="14.624225"><ele>9.0</ele><time>2026-04-26T10:10:01.887Z</time></trkpt><trkpt lat="42.1975633" lon="14.6243733"><ele>8.0</ele><time>2026-04-26T10:10:03.888Z</time></trkpt><trkpt lat="42.1975117" lon="14.6245167"><ele>7.0</ele><time>2026-04-26T10:10:05.888Z</time></trkpt><trkpt lat="42.19746" lon="14.6246617"><ele>6.0</ele><time>2026-04-26T10:10:07.888Z</time></trkpt><trkpt lat="42.1974167" lon="14.6248033"><ele>5.0</ele><time>2026-04-26T10:10:09.887Z</time></trkpt><trkpt lat="42.1973617" lon="14.6249367"><ele>5.5</ele><time>2026-04-26T10:10:11.887Z</time></trkpt><trkpt lat="42.19731" lon="14.6250783"><ele>6.0</ele><time>2026-04-26T10:10:13.887Z</time></trkpt><trkpt lat="42.1972617" lon="14.6252217"><ele>6.5</ele><time>2026-04-26T10:10:15.888Z</time></trkpt><trkpt lat="42.1972167" lon="14.6253633"><ele>7.0</ele><time>2026-04-26T10:10:17.887Z</time></trkpt><trkpt lat="42.197165" lon="14.6255033"><ele>7.0</ele><time>2026-04-26T10:10:19.887Z</time></trkpt><trkpt lat="42.197115" lon="14.62564"><ele>7.0</ele><time>2026-04-26T10:10:21.888Z</time></trkpt><trkpt lat="42.1970667" lon="14.6257717"><ele>7.0</ele><time>2026-04-26T10:10:23.887Z</time></trkpt><trkpt lat="42.1970167" lon="14.6259117"><ele>7.0</ele><time>2026-04-26T10:10:25.887Z</time></trkpt><trkpt lat="42.1969667" lon="14.62605"><ele>5.25</ele><time>2026-04-26T10:10:27.887Z</time></trkpt><trkpt lat="42.1969167" lon="14.626185"><ele>3.5</ele><time>2026-04-26T10:10:29.887Z</time></trkpt><trkpt lat="42.19687" lon="14.6263183"><ele>1.75</ele><time>2026-04-26T10:10:31.888Z</time></trkpt><trkpt lat="42.19682" lon="14.6264617"><ele>0.0</ele><time>2026-04-26T10:10:33.888Z</time></trkpt><trkpt lat="42.1967733" lon="14.6266033"><ele>0.0</ele><time>2026-04-26T10:10:35.887Z</time></trkpt><trkpt lat="42.1967133" lon="14.62675"><ele>0.0</ele><time>2026-04-26T10:10:37.887Z</time></trkpt><trkpt lat="42.1966683" lon="14.626895"><ele>0.0</ele><time>2026-04-26T10:10:39.888Z</time></trkpt><trkpt lat="42.1966233" lon="14.6270283"><ele>0.0</ele><time>2026-04-26T10:10:41.888Z</time></trkpt><trkpt lat="42.19657" lon="14.6271717"><ele>0.5</ele><time>2026-04-26T10:10:43.888Z</time></trkpt><trkpt lat="42.1965167" lon="14.6273117"><ele>1.0</ele><time>2026-04-26T10:10:45.887Z</time></trkpt><trkpt lat="42.1964683" lon="14.6274567"><ele>1.5</ele><time>2026-04-26T10:10:47.888Z</time></trkpt><trkpt lat="42.196415" lon="14.6275933"><ele>2.0</ele><time>2026-04-26T10:10:49.888Z</time></trkpt><trkpt lat="42.1963667" lon="14.6277267"><ele>2.4000000000000004</ele><time>2026-04-26T10:10:51.888Z</time></trkpt><trkpt lat="42.19632" lon="14.62786"><ele>2.8000000000000003</ele><time>2026-04-26T10:10:53.888Z</time></trkpt><trkpt lat="42.19627" lon="14.6280017"><ele>3.2</ele><time>2026-04-26T10:10:55.887Z</time></trkpt><trkpt lat="42.1962317" lon="14.6281267"><ele>3.6</ele><time>2026-04-26T10:10:57.887Z</time></trkpt><trkpt lat="42.1961933" lon="14.62825"><ele>4.0</ele><time>2026-04-26T10:10:59.888Z</time></trkpt><trkpt lat="42.1961533" lon="14.6283633"><ele>3.9999999999999996</ele><time>2026-04-26T10:11:01.887Z</time></trkpt><trkpt lat="42.1961067" lon="14.6284667"><ele>4.0</ele><time>2026-04-26T10:11:03.888Z</time></trkpt><trkpt lat="42.1960667" lon="14.6285633"><ele>4.0</ele><time>2026-04-26T10:11:05.888Z</time></trkpt><trkpt lat="42.1960433" lon="14.62867"><ele>4.0</ele><time>2026-04-26T10:11:07.888Z</time></trkpt><trkpt lat="42.196025" lon="14.6287783"><ele>3.9999999999999996</ele><time>2026-04-26T10:11:09.887Z</time></trkpt><trkpt lat="42.1960183" lon="14.6288883"><ele>4.0</ele><time>2026-04-26T10:11:11.888Z</time></trkpt><trkpt lat="42.1960367" lon="14.628995"><ele>3.9999999999999996</ele><time>2026-04-26T10:11:13.887Z</time></trkpt><trkpt lat="42.1960383" lon="14.6291033"><ele>4.0</ele><time>2026-04-26T10:11:16.888Z</time></trkpt><trkpt lat="42.19602" lon="14.6292"><ele>4.0</ele><time>2026-04-26T10:11:19.888Z</time></trkpt><trkpt lat="42.195995" lon="14.6292917"><ele>4.0</ele><time>2026-04-26T10:11:21.888Z</time></trkpt><trkpt lat="42.1959617" lon="14.629395"><ele>3.9999999999999996</ele><time>2026-04-26T10:11:23.887Z</time></trkpt><trkpt lat="42.1959183" lon="14.6295"><ele>4.0</ele><time>2026-04-26T10:11:25.888Z</time></trkpt><trkpt lat="42.1958767" lon="14.6296233"><ele>3.8000000000000003</ele><time>2026-04-26T10:11:27.888Z</time></trkpt><trkpt lat="42.1958433" lon="14.62975"><ele>3.6000000000000005</ele><time>2026-04-26T10:11:29.887Z</time></trkpt><trkpt lat="42.195805" lon="14.6298667"><ele>3.4</ele><time>2026-04-26T10:11:31.888Z</time></trkpt><trkpt lat="42.1957517" lon="14.6299883"><ele>3.2</ele><time>2026-04-26T10:11:33.888Z</time></trkpt><trkpt lat="42.1957117" lon="14.6301183"><ele>3.0</ele><time>2026-04-26T10:11:35.888Z</time></trkpt><trkpt lat="42.19567" lon="14.6302483"><ele>3.2</ele><time>2026-04-26T10:11:37.888Z</time></trkpt><trkpt lat="42.1956483" lon="14.6303767"><ele>3.4</ele><time>2026-04-26T10:11:39.888Z</time></trkpt><trkpt lat="42.1956183" lon="14.6305133"><ele>3.6000000000000005</ele><time>2026-04-26T10:11:41.887Z</time></trkpt><trkpt lat="42.1955717" lon="14.6306683"><ele>3.8000000000000003</ele><time>2026-04-26T10:11:43.888Z</time></trkpt><trkpt lat="42.19553" lon="14.6307917"><ele>4.0</ele><time>2026-04-26T10:11:45.888Z</time></trkpt><trkpt lat="42.1954967" lon="14.6309183"><ele>4.0</ele><time>2026-04-26T10:11:47.887Z</time></trkpt><trkpt lat="42.1954633" lon="14.6310367"><ele>4.0</ele><time>2026-04-26T10:11:49.888Z</time></trkpt><trkpt lat="42.1954317" lon="14.6311667"><ele>4.0</ele><time>2026-04-26T10:11:51.888Z</time></trkpt><trkpt lat="42.1954017" lon="14.6313017"><ele>4.0</ele><time>2026-04-26T10:11:53.888Z</time></trkpt><trkpt lat="42.19536" lon="14.6314383"><ele>4.0</ele><time>2026-04-26T10:11:55.888Z</time></trkpt><trkpt lat="42.1953067" lon="14.6315717"><ele>4.0</ele><time>2026-04-26T10:11:57.888Z</time></trkpt><trkpt lat="42.19526" lon="14.6317017"><ele>4.0</ele><time>2026-04-26T10:11:59.888Z</time></trkpt><trkpt lat="42.1952217" lon="14.63182"><ele>4.0</ele><time>2026-04-26T10:12:01.888Z</time></trkpt><trkpt lat="42.1951933" lon="14.6319367"><ele>4.0</ele><time>2026-04-26T10:12:03.887Z</time></trkpt><trkpt lat="42.1951583" lon="14.632055"><ele>4.0</ele><time>2026-04-26T10:12:05.887Z</time></trkpt><trkpt lat="42.1951217" lon="14.632185"><ele>4.2</ele><time>2026-04-26T10:12:07.887Z</time></trkpt><trkpt lat="42.1950833" lon="14.63232"><ele>4.4</ele><time>2026-04-26T10:12:09.888Z</time></trkpt><trkpt lat="42.1950433" lon="14.6324533"><ele>4.6</ele><time>2026-04-26T10:12:11.887Z</time></trkpt><trkpt lat="42.1950017" lon="14.6325933"><ele>4.8</ele><time>2026-04-26T10:12:13.888Z</time></trkpt><trkpt lat="42.19496" lon="14.6327317"><ele>5.0</ele><time>2026-04-26T10:12:15.888Z</time></trkpt><trkpt lat="42.1949167" lon="14.6328633"><ele>5.2</ele><time>2026-04-26T10:12:17.887Z</time></trkpt><trkpt lat="42.1948767" lon="14.6330067"><ele>5.4</ele><time>2026-04-26T10:12:19.887Z</time></trkpt><trkpt lat="42.1948483" lon="14.63315"><ele>5.6</ele><time>2026-04-26T10:12:21.887Z</time></trkpt><trkpt lat="42.1948117" lon="14.6332817"><ele>5.8</ele><time>2026-04-26T10:12:23.888Z</time></trkpt><trkpt lat="42.19478" lon="14.6334133"><ele>6.0</ele><time>2026-04-26T10:12:25.887Z</time></trkpt><trkpt lat="42.1947483" lon="14.63354"><ele>5.6</ele><time>2026-04-26T10:12:27.887Z</time></trkpt><trkpt lat="42.1947133" lon="14.6336683"><ele>5.199999999999999</ele><time>2026-04-26T10:12:29.887Z</time></trkpt><trkpt lat="42.1946783" lon="14.6337933"><ele>4.800000000000001</ele><time>2026-04-26T10:12:31.888Z</time></trkpt><trkpt lat="42.1946483" lon="14.6339133"><ele>4.4</ele><time>2026-04-26T10:12:33.888Z</time></trkpt><trkpt lat="42.1946217" lon="14.634025"><ele>4.0</ele><time>2026-04-26T10:12:35.887Z</time></trkpt><trkpt lat="42.194575" lon="14.634125"><ele>4.0</ele><time>2026-04-26T10:12:37.887Z</time></trkpt><trkpt lat="42.19453" lon="14.6342467"><ele>4.0</ele><time>2026-04-26T10:12:39.888Z</time></trkpt><trkpt lat="42.1944883" lon="14.6343783"><ele>4.0</ele><time>2026-04-26T10:12:41.888Z</time></trkpt><trkpt lat="42.194445" lon="14.6345217"><ele>4.0</ele><time>2026-04-26T10:12:43.888Z</time></trkpt><trkpt lat="42.1944117" lon="14.63467"><ele>4.0</ele><time>2026-04-26T10:12:45.888Z</time></trkpt><trkpt lat="42.19437" lon="14.6348"><ele>3.6</ele><time>2026-04-26T10:12:47.887Z</time></trkpt><trkpt lat="42.1943383" lon="14.6349433"><ele>3.2</ele><time>2026-04-26T10:12:49.888Z</time></trkpt><trkpt lat="42.1943033" lon="14.63509"><ele>2.8000000000000003</ele><time>2026-04-26T10:12:51.887Z</time></trkpt><trkpt lat="42.1942717" lon="14.63524"><ele>2.4000000000000004</ele><time>2026-04-26T10:12:53.887Z</time></trkpt><trkpt lat="42.19423" lon="14.6353733"><ele>2.0</ele><time>2026-04-26T10:12:55.888Z</time></trkpt><trkpt lat="42.194185" lon="14.6355033"><ele>2.0</ele><time>2026-04-26T10:12:57.888Z</time></trkpt><trkpt lat="42.1941417" lon="14.635635"><ele>2.0</ele><time>2026-04-26T10:12:59.887Z</time></trkpt><trkpt lat="42.1940983" lon="14.6357633"><ele>2.0</ele><time>2026-04-26T10:13:01.887Z</time></trkpt><trkpt lat="42.19406" lon="14.6358833"><ele>2.0</ele><time>2026-04-26T10:13:03.888Z</time></trkpt><trkpt lat="42.1940217" lon="14.6360217"><ele>2.0</ele><time>2026-04-26T10:13:05.888Z</time></trkpt><trkpt lat="42.1939767" lon="14.6361733"><ele>2.0</ele><time>2026-04-26T10:13:07.887Z</time></trkpt><trkpt lat="42.1939417" lon="14.6363367"><ele>2.0</ele><time>2026-04-26T10:13:09.887Z</time></trkpt><trkpt lat="42.1939067" lon="14.6364867"><ele>2.0</ele><time>2026-04-26T10:13:11.887Z</time></trkpt><trkpt lat="42.1938617" lon="14.63663"><ele>2.0</ele><time>2026-04-26T10:13:13.887Z</time></trkpt><trkpt lat="42.1938283" lon="14.6367833"><ele>2.0</ele><time>2026-04-26T10:13:15.887Z</time></trkpt><trkpt lat="42.1937917" lon="14.6369433"><ele>2.0</ele><time>2026-04-26T10:13:17.887Z</time></trkpt><trkpt lat="42.1937517" lon="14.6370917"><ele>2.0</ele><time>2026-04-26T10:13:19.887Z</time></trkpt><trkpt lat="42.193705" lon="14.6372367"><ele>2.0</ele><time>2026-04-26T10:13:21.888Z</time></trkpt><trkpt lat="42.1936633" lon="14.6373833"><ele>1.75</ele><time>2026-04-26T10:13:23.888Z</time></trkpt><trkpt lat="42.1936217" lon="14.6375217"><ele>1.5</ele><time>2026-04-26T10:13:25.887Z</time></trkpt><trkpt lat="42.1935883" lon="14.6376667"><ele>1.25</ele><time>2026-04-26T10:13:27.888Z</time></trkpt><trkpt lat="42.1935367" lon="14.6378117"><ele>1.0</ele><time>2026-04-26T10:13:29.888Z</time></trkpt><trkpt lat="42.1934983" lon="14.6379533"><ele>1.0</ele><time>2026-04-26T10:13:31.888Z</time></trkpt><trkpt lat="42.1934567" lon="14.6380833"><ele>1.0</ele><time>2026-04-26T10:13:33.888Z</time></trkpt><trkpt lat="42.1934083" lon="14.6382317"><ele>1.0</ele><time>2026-04-26T10:13:35.888Z</time></trkpt><trkpt lat="42.1933633" lon="14.6383817"><ele>1.0</ele><time>2026-04-26T10:13:37.888Z</time></trkpt><trkpt lat="42.1933083" lon="14.6385283"><ele>0.5</ele><time>2026-04-26T10:13:39.888Z</time></trkpt><trkpt lat="42.19326" lon="14.6386783"><ele>0.0</ele><time>2026-04-26T10:13:41.888Z</time></trkpt><trkpt lat="42.1932267" lon="14.6388267"><ele>-0.5</ele><time>2026-04-26T10:13:43.888Z</time></trkpt><trkpt lat="42.1932" lon="14.6389817"><ele>-1.0</ele><time>2026-04-26T10:13:45.888Z</time></trkpt><trkpt lat="42.193175" lon="14.6391317"><ele>-1.0</ele><time>2026-04-26T10:13:47.887Z</time></trkpt><trkpt lat="42.1931417" lon="14.6392783"><ele>-1.0</ele><time>2026-04-26T10:13:49.887Z</time></trkpt><trkpt lat="42.19309" lon="14.63942"><ele>-1.0</ele><time>2026-04-26T10:13:51.888Z</time></trkpt><trkpt lat="42.193045" lon="14.6395583"><ele>-1.0</ele><time>2026-04-26T10:13:53.888Z</time></trkpt><trkpt lat="42.193005" lon="14.6396917"><ele>-1.0</ele><time>2026-04-26T10:13:55.888Z</time></trkpt><trkpt lat="42.1929667" lon="14.639835"><ele>-1.0</ele><time>2026-04-26T10:13:57.887Z</time></trkpt><trkpt lat="42.1929267" lon="14.6399783"><ele>-1.0</ele><time>2026-04-26T10:13:59.888Z</time></trkpt><trkpt lat="42.1928883" lon="14.640125"><ele>-1.0</ele><time>2026-04-26T10:14:01.887Z</time></trkpt><trkpt lat="42.1928467" lon="14.6402683"><ele>-1.0</ele><time>2026-04-26T10:14:03.887Z</time></trkpt><trkpt lat="42.1928067" lon="14.64041"><ele>-0.75</ele><time>2026-04-26T10:14:05.887Z</time></trkpt><trkpt lat="42.192765" lon="14.6405633"><ele>-0.5</ele><time>2026-04-26T10:14:07.887Z</time></trkpt><trkpt lat="42.19273" lon="14.6407133"><ele>-0.25</ele><time>2026-04-26T10:14:09.888Z</time></trkpt><trkpt lat="42.1927033" lon="14.640865"><ele>0.0</ele><time>2026-04-26T10:14:11.888Z</time></trkpt><trkpt lat="42.1926733" lon="14.6410133"><ele>0.0</ele><time>2026-04-26T10:14:13.887Z</time></trkpt><trkpt lat="42.19264" lon="14.6411517"><ele>0.0</ele><time>2026-04-26T10:14:15.888Z</time></trkpt><trkpt lat="42.19261" lon="14.6412883"><ele>0.0</ele><time>2026-04-26T10:14:17.888Z</time></trkpt><trkpt lat="42.1925767" lon="14.6414317"><ele>0.0</ele><time>2026-04-26T10:14:19.888Z</time></trkpt><trkpt lat="42.1925367" lon="14.6415683"><ele>0.0</ele><time>2026-04-26T10:14:21.888Z</time></trkpt><trkpt lat="42.1925033" lon="14.6417133"><ele>0.0</ele><time>2026-04-26T10:14:23.888Z</time></trkpt><trkpt lat="42.1924717" lon="14.6418483"><ele>0.0</ele><time>2026-04-26T10:14:25.887Z</time></trkpt><trkpt lat="42.1924367" lon="14.6419717"><ele>0.0</ele><time>2026-04-26T10:14:27.888Z</time></trkpt><trkpt lat="42.1924" lon="14.6421"><ele>0.0</ele><time>2026-04-26T10:14:29.888Z</time></trkpt><trkpt lat="42.192365" lon="14.6422417"><ele>0.0</ele><time>2026-04-26T10:14:31.888Z</time></trkpt><trkpt lat="42.19232" lon="14.6423767"><ele>0.0</ele><time>2026-04-26T10:14:33.888Z</time></trkpt><trkpt lat="42.1922567" lon="14.6424867"><ele>0.0</ele><time>2026-04-26T10:14:35.887Z</time></trkpt><trkpt lat="42.192185" lon="14.642575"><ele>0.0</ele><time>2026-04-26T10:14:37.888Z</time></trkpt><trkpt lat="42.192115" lon="14.6426633"><ele>0.0</ele><time>2026-04-26T10:14:39.888Z</time></trkpt><trkpt lat="42.1920467" lon="14.6427683"><ele>0.0</ele><time>2026-04-26T10:14:41.888Z</time></trkpt><trkpt lat="42.1919633" lon="14.6428817"><ele>0.0</ele><time>2026-04-26T10:14:43.887Z</time></trkpt><trkpt lat="42.1918783" lon="14.642985"><ele>0.0</ele><time>2026-04-26T10:14:45.888Z</time></trkpt><trkpt lat="42.1917983" lon="14.6430917"><ele>0.0</ele><time>2026-04-26T10:14:47.888Z</time></trkpt><trkpt lat="42.1917033" lon="14.643195"><ele>0.0</ele><time>2026-04-26T10:14:49.887Z</time></trkpt><trkpt lat="42.19161" lon="14.6432883"><ele>0.0</ele><time>2026-04-26T10:14:51.888Z</time></trkpt><trkpt lat="42.1915317" lon="14.64339"><ele>0.0</ele><time>2026-04-26T10:14:53.888Z</time></trkpt><trkpt lat="42.1914533" lon="14.6435133"><ele>0.0</ele><time>2026-04-26T10:14:55.888Z</time></trkpt><trkpt lat="42.19138" lon="14.6436383"><ele>0.0</ele><time>2026-04-26T10:14:57.888Z</time></trkpt><trkpt lat="42.1913117" lon="14.6437717"><ele>0.5</ele><time>2026-04-26T10:14:59.887Z</time></trkpt><trkpt lat="42.19125" lon="14.6439117"><ele>1.0</ele><time>2026-04-26T10:15:01.887Z</time></trkpt><trkpt lat="42.1911867" lon="14.6440383"><ele>1.5</ele><time>2026-04-26T10:15:03.888Z</time></trkpt><trkpt lat="42.1911117" lon="14.6441567"><ele>2.0</ele><time>2026-04-26T10:15:05.887Z</time></trkpt><trkpt lat="42.19102" lon="14.6442333"><ele>2.0</ele><time>2026-04-26T10:15:07.888Z</time></trkpt><trkpt lat="42.1909233" lon="14.644305"><ele>2.0</ele><time>2026-04-26T10:15:09.888Z</time></trkpt><trkpt lat="42.190815" lon="14.6443717"><ele>2.0</ele><time>2026-04-26T10:15:11.888Z</time></trkpt><trkpt lat="42.1907" lon="14.6444267"><ele>2.0</ele><time>2026-04-26T10:15:13.887Z</time></trkpt><trkpt lat="42.19059" lon="14.6444633"><ele>2.2</ele><time>2026-04-26T10:15:15.887Z</time></trkpt><trkpt lat="42.1904733" lon="14.6445"><ele>2.4000000000000004</ele><time>2026-04-26T10:15:17.887Z</time></trkpt><trkpt lat="42.1903683" lon="14.644535"><ele>2.5999999999999996</ele><time>2026-04-26T10:15:19.887Z</time></trkpt><trkpt lat="42.190265" lon="14.64457"><ele>2.8</ele><time>2026-04-26T10:15:21.887Z</time></trkpt><trkpt lat="42.19018" lon="14.6445967"><ele>3.0</ele><time>2026-04-26T10:15:23.888Z</time></trkpt><trkpt lat="42.1900917" lon="14.64461"><ele>3.0</ele><time>2026-04-26T10:15:25.888Z</time></trkpt><trkpt lat="42.1900167" lon="14.6445983"><ele>3.0</ele><time>2026-04-26T10:15:27.887Z</time></trkpt><trkpt lat="42.1899383" lon="14.6445733"><ele>3.0</ele><time>2026-04-26T10:15:29.888Z</time></trkpt><trkpt lat="42.1898383" lon="14.6445583"><ele>3.0</ele><time>2026-04-26T10:15:31.888Z</time></trkpt><trkpt lat="42.1897317" lon="14.6445367"><ele>3.0</ele><time>2026-04-26T10:15:33.888Z</time></trkpt><trkpt lat="42.1896533" lon="14.6445483"><ele>3.0</ele><time>2026-04-26T10:15:34.888Z</time></trkpt><trkpt lat="42.1895883" lon="14.644555"><ele>2.6</ele><time>2026-04-26T10:15:35.888Z</time></trkpt><trkpt lat="42.1895233" lon="14.6445783"><ele>2.1999999999999997</ele><time>2026-04-26T10:15:36.888Z</time></trkpt><trkpt lat="42.1894067" lon="14.644615"><ele>1.8</ele><time>2026-04-26T10:15:38.887Z</time></trkpt><trkpt lat="42.189295" lon="14.644635"><ele>1.4</ele><time>2026-04-26T10:15:40.888Z</time></trkpt><trkpt lat="42.1891917" lon="14.6446417"><ele>1.0</ele><time>2026-04-26T10:15:42.888Z</time></trkpt><trkpt lat="42.189075" lon="14.6446467"><ele>1.2000000000000002</ele><time>2026-04-26T10:15:44.887Z</time></trkpt><trkpt lat="42.1889617" lon="14.6446517"><ele>1.4000000000000001</ele><time>2026-04-26T10:15:46.888Z</time></trkpt><trkpt lat="42.188845" lon="14.64465"><ele>1.6</ele><time>2026-04-26T10:15:48.887Z</time></trkpt><trkpt lat="42.18873" lon="14.6446533"><ele>1.8</ele><time>2026-04-26T10:15:50.887Z</time></trkpt><trkpt lat="42.1886667" lon="14.6446567"><ele>2.0</ele><time>2026-04-26T10:15:51.887Z</time></trkpt><trkpt lat="42.1885983" lon="14.64466"><ele>2.0</ele><time>2026-04-26T10:15:52.888Z</time></trkpt><trkpt lat="42.188485" lon="14.6446633"><ele>2.0</ele><time>2026-04-26T10:15:54.888Z</time></trkpt><trkpt lat="42.1883667" lon="14.64467"><ele>2.0</ele><time>2026-04-26T10:15:56.888Z</time></trkpt><trkpt lat="42.18825" lon="14.64468"><ele>2.0</ele><time>2026-04-26T10:15:58.888Z</time></trkpt><trkpt lat="42.1881333" lon="14.6446783"><ele>2.25</ele><time>2026-04-26T10:16:00.888Z</time></trkpt><trkpt lat="42.1880167" lon="14.6446783"><ele>2.5</ele><time>2026-04-26T10:16:02.887Z</time></trkpt><trkpt lat="42.1879017" lon="14.6446767"><ele>2.75</ele><time>2026-04-26T10:16:04.887Z</time></trkpt><trkpt lat="42.1877767" lon="14.644675"><ele>3.0</ele><time>2026-04-26T10:16:06.888Z</time></trkpt><trkpt lat="42.1876567" lon="14.6446517"><ele>3.0</ele><time>2026-04-26T10:16:08.888Z</time></trkpt><trkpt lat="42.187595" lon="14.6446317"><ele>3.0</ele><time>2026-04-26T10:16:09.888Z</time></trkpt><trkpt lat="42.1874867" lon="14.64457"><ele>3.0</ele><time>2026-04-26T10:16:11.888Z</time></trkpt><trkpt lat="42.18739" lon="14.6444667"><ele>3.0</ele><time>2026-04-26T10:16:13.888Z</time></trkpt><trkpt lat="42.1873117" lon="14.644345"><ele>3.0</ele><time>2026-04-26T10:16:15.888Z</time></trkpt><trkpt lat="42.187235" lon="14.64423"><ele>2.5</ele><time>2026-04-26T10:16:17.887Z</time></trkpt><trkpt lat="42.1871517" lon="14.6441217"><ele>2.0</ele><time>2026-04-26T10:16:19.888Z</time></trkpt><trkpt lat="42.187065" lon="14.6440133"><ele>1.5</ele><time>2026-04-26T10:16:21.888Z</time></trkpt><trkpt lat="42.186985" lon="14.6439"><ele>1.0</ele><time>2026-04-26T10:16:23.888Z</time></trkpt><trkpt lat="42.18689" lon="14.643805"><ele>0.9999999999999999</ele><time>2026-04-26T10:16:25.888Z</time></trkpt><trkpt lat="42.18678" lon="14.643735"><ele>1.0</ele><time>2026-04-26T10:16:27.887Z</time></trkpt><trkpt lat="42.1866617" lon="14.6436817"><ele>1.0</ele><time>2026-04-26T10:16:29.887Z</time></trkpt><trkpt lat="42.1866017" lon="14.643655"><ele>1.0</ele><time>2026-04-26T10:16:30.887Z</time></trkpt><trkpt lat="42.1865383" lon="14.643625"><ele>0.9999999999999999</ele><time>2026-04-26T10:16:31.888Z</time></trkpt><trkpt lat="42.1864767" lon="14.6436"><ele>1.0</ele><time>2026-04-26T10:16:32.888Z</time></trkpt><trkpt lat="42.1864117" lon="14.64357"><ele>1.2857142857142856</ele><time>2026-04-26T10:16:33.888Z</time></trkpt><trkpt lat="42.1863483" lon="14.64354"><ele>1.5714285714285712</ele><time>2026-04-26T10:16:34.887Z</time></trkpt><trkpt lat="42.18628" lon="14.6435117"><ele>1.857142857142857</ele><time>2026-04-26T10:16:35.887Z</time></trkpt><trkpt lat="42.18621" lon="14.643485"><ele>2.142857142857143</ele><time>2026-04-26T10:16:36.888Z</time></trkpt><trkpt lat="42.1861433" lon="14.64346"><ele>2.4285714285714284</ele><time>2026-04-26T10:16:37.888Z</time></trkpt><trkpt lat="42.186075" lon="14.64344"><ele>2.714285714285714</ele><time>2026-04-26T10:16:38.887Z</time></trkpt><trkpt lat="42.18601" lon="14.6434167"><ele>3.0</ele><time>2026-04-26T10:16:39.888Z</time></trkpt><trkpt lat="42.185935" lon="14.6433967"><ele>2.9999999999999996</ele><time>2026-04-26T10:16:40.888Z</time></trkpt><trkpt lat="42.1858633" lon="14.6433917"><ele>3.0</ele><time>2026-04-26T10:16:41.888Z</time></trkpt><trkpt lat="42.1857917" lon="14.6433917"><ele>3.0</ele><time>2026-04-26T10:16:42.887Z</time></trkpt><trkpt lat="42.1857217" lon="14.6433967"><ele>3.0</ele><time>2026-04-26T10:16:43.887Z</time></trkpt><trkpt lat="42.185655" lon="14.6434067"><ele>3.0</ele><time>2026-04-26T10:16:44.888Z</time></trkpt><trkpt lat="42.1855833" lon="14.6434283"><ele>2.9999999999999996</ele><time>2026-04-26T10:16:45.888Z</time></trkpt><trkpt lat="42.1855233" lon="14.6434617"><ele>3.0</ele><time>2026-04-26T10:16:46.888Z</time></trkpt><trkpt lat="42.1854583" lon="14.6434967"><ele>2.9999999999999996</ele><time>2026-04-26T10:16:47.887Z</time></trkpt><trkpt lat="42.1853933" lon="14.6435267"><ele>3.0</ele><time>2026-04-26T10:16:48.888Z</time></trkpt><trkpt lat="42.1853283" lon="14.64356"><ele>3.0</ele><time>2026-04-26T10:16:49.888Z</time></trkpt><trkpt lat="42.1852617" lon="14.64359"><ele>3.0</ele><time>2026-04-26T10:16:50.887Z</time></trkpt><trkpt lat="42.1851967" lon="14.6436233"><ele>3.0</ele><time>2026-04-26T10:16:51.887Z</time></trkpt><trkpt lat="42.185135" lon="14.6436567"><ele>2.9999999999999996</ele><time>2026-04-26T10:16:52.887Z</time></trkpt><trkpt lat="42.18507" lon="14.6436867"><ele>3.0</ele><time>2026-04-26T10:16:53.888Z</time></trkpt><trkpt lat="42.1850083" lon="14.6437183"><ele>2.9999999999999996</ele><time>2026-04-26T10:16:54.888Z</time></trkpt><trkpt lat="42.1849417" lon="14.6437467"><ele>3.0</ele><time>2026-04-26T10:16:55.888Z</time></trkpt><trkpt lat="42.184875" lon="14.6437783"><ele>3.0</ele><time>2026-04-26T10:16:56.887Z</time></trkpt><trkpt lat="42.18481" lon="14.6438083"><ele>3.0</ele><time>2026-04-26T10:16:57.888Z</time></trkpt><trkpt lat="42.18475" lon="14.643845"><ele>3.0</ele><time>2026-04-26T10:16:58.888Z</time></trkpt><trkpt lat="42.184685" lon="14.64389"><ele>2.9999999999999996</ele><time>2026-04-26T10:16:59.887Z</time></trkpt><trkpt lat="42.1846233" lon="14.64394"><ele>3.0</ele><time>2026-04-26T10:17:00.887Z</time></trkpt><trkpt lat="42.1845683" lon="14.643995"><ele>3.1428571428571423</ele><time>2026-04-26T10:17:01.887Z</time></trkpt><trkpt lat="42.1845133" lon="14.6440567"><ele>3.2857142857142856</ele><time>2026-04-26T10:17:02.887Z</time></trkpt><trkpt lat="42.1844633" lon="14.64412"><ele>3.4285714285714284</ele><time>2026-04-26T10:17:03.887Z</time></trkpt><trkpt lat="42.184415" lon="14.6441833"><ele>3.571428571428571</ele><time>2026-04-26T10:17:04.888Z</time></trkpt><trkpt lat="42.1843683" lon="14.6442467"><ele>3.714285714285714</ele><time>2026-04-26T10:17:05.888Z</time></trkpt><trkpt lat="42.1843217" lon="14.64431"><ele>3.8571428571428568</ele><time>2026-04-26T10:17:06.887Z</time></trkpt><trkpt lat="42.18427" lon="14.64437"><ele>4.0</ele><time>2026-04-26T10:17:07.887Z</time></trkpt><trkpt lat="42.184215" lon="14.644425"><ele>4.0</ele><time>2026-04-26T10:17:08.887Z</time></trkpt><trkpt lat="42.184155" lon="14.6444733"><ele>3.9999999999999996</ele><time>2026-04-26T10:17:09.887Z</time></trkpt><trkpt lat="42.18409" lon="14.6445067"><ele>4.0</ele><time>2026-04-26T10:17:10.888Z</time></trkpt><trkpt lat="42.1840217" lon="14.6445267"><ele>4.0</ele><time>2026-04-26T10:17:11.888Z</time></trkpt><trkpt lat="42.1839517" lon="14.6445367"><ele>3.9999999999999996</ele><time>2026-04-26T10:17:12.888Z</time></trkpt><trkpt lat="42.18388" lon="14.6445433"><ele>4.0</ele><time>2026-04-26T10:17:13.888Z</time></trkpt><trkpt lat="42.1838067" lon="14.64455"><ele>4.0</ele><time>2026-04-26T10:17:14.888Z</time></trkpt><trkpt lat="42.1837317" lon="14.6445533"><ele>4.0</ele><time>2026-04-26T10:17:15.888Z</time></trkpt><trkpt lat="42.183665" lon="14.64456"><ele>3.9999999999999996</ele><time>2026-04-26T10:17:16.887Z</time></trkpt><trkpt lat="42.183595" lon="14.6445667"><ele>4.0</ele><time>2026-04-26T10:17:17.888Z</time></trkpt><trkpt lat="42.1835267" lon="14.6445683"><ele>4.0</ele><time>2026-04-26T10:17:18.888Z</time></trkpt><trkpt lat="42.18346" lon="14.6445733"><ele>3.9999999999999996</ele><time>2026-04-26T10:17:19.887Z</time></trkpt><trkpt lat="42.183395" lon="14.644575"><ele>4.0</ele><time>2026-04-26T10:17:20.888Z</time></trkpt><trkpt lat="42.18333" lon="14.6445733"><ele>4.0</ele><time>2026-04-26T10:17:21.888Z</time></trkpt><trkpt lat="42.1832667" lon="14.6445733"><ele>4.0</ele><time>2026-04-26T10:17:22.888Z</time></trkpt><trkpt lat="42.1831983" lon="14.6445783"><ele>3.9999999999999996</ele><time>2026-04-26T10:17:23.888Z</time></trkpt><trkpt lat="42.1831333" lon="14.644585"><ele>4.0</ele><time>2026-04-26T10:17:24.888Z</time></trkpt><trkpt lat="42.1830633" lon="14.6445867"><ele>4.0</ele><time>2026-04-26T10:17:25.888Z</time></trkpt><trkpt lat="42.182995" lon="14.6445917"><ele>3.9999999999999996</ele><time>2026-04-26T10:17:26.887Z</time></trkpt><trkpt lat="42.1829233" lon="14.644595"><ele>4.0</ele><time>2026-04-26T10:17:27.888Z</time></trkpt><trkpt lat="42.1828517" lon="14.6445983"><ele>4.0</ele><time>2026-04-26T10:17:28.887Z</time></trkpt><trkpt lat="42.1827783" lon="14.644605"><ele>4.285714285714286</ele><time>2026-04-26T10:17:29.888Z</time></trkpt><trkpt lat="42.1827067" lon="14.6446083"><ele>4.571428571428571</ele><time>2026-04-26T10:17:30.887Z</time></trkpt><trkpt lat="42.1826333" lon="14.6446133"><ele>4.857142857142857</ele><time>2026-04-26T10:17:31.888Z</time></trkpt><trkpt lat="42.1825567" lon="14.6446217"><ele>5.142857142857142</ele><time>2026-04-26T10:17:32.887Z</time></trkpt><trkpt lat="42.182485" lon="14.64462"><ele>5.428571428571429</ele><time>2026-04-26T10:17:33.887Z</time></trkpt><trkpt lat="42.1824167" lon="14.6446217"><ele>5.7142857142857135</ele><time>2026-04-26T10:17:34.888Z</time></trkpt><trkpt lat="42.1823483" lon="14.644625"><ele>6.0</ele><time>2026-04-26T10:17:35.888Z</time></trkpt><trkpt lat="42.18228" lon="14.6446267"><ele>6.166666666666667</ele><time>2026-04-26T10:17:36.888Z</time></trkpt><trkpt lat="42.18221" lon="14.6446233"><ele>6.333333333333334</ele><time>2026-04-26T10:17:37.888Z</time></trkpt><trkpt lat="42.1821383" lon="14.6446183"><ele>6.5</ele><time>2026-04-26T10:17:38.887Z</time></trkpt><trkpt lat="42.18207" lon="14.644615"><ele>6.666666666666667</ele><time>2026-04-26T10:17:39.888Z</time></trkpt><trkpt lat="42.181945" lon="14.64459"><ele>6.833333333333334</ele><time>2026-04-26T10:17:41.888Z</time></trkpt><trkpt lat="42.181875" lon="14.6445733"><ele>7.0</ele><time>2026-04-26T10:17:42.888Z</time></trkpt><trkpt lat="42.181805" lon="14.6445567"><ele>7.000000000000001</ele><time>2026-04-26T10:17:43.887Z</time></trkpt><trkpt lat="42.1817317" lon="14.6445433"><ele>7.0</ele><time>2026-04-26T10:17:44.887Z</time></trkpt><trkpt lat="42.1816617" lon="14.6445233"><ele>7.0</ele><time>2026-04-26T10:17:45.887Z</time></trkpt><trkpt lat="42.1815967" lon="14.6445"><ele>7.0</ele><time>2026-04-26T10:17:46.887Z</time></trkpt><trkpt lat="42.1814767" lon="14.6444433"><ele>7.000000000000001</ele><time>2026-04-26T10:17:48.888Z</time></trkpt><trkpt lat="42.1814117" lon="14.644415"><ele>7.0</ele><time>2026-04-26T10:17:49.888Z</time></trkpt><trkpt lat="42.1813383" lon="14.6443883"><ele>7.142857142857142</ele><time>2026-04-26T10:17:50.888Z</time></trkpt><trkpt lat="42.1812667" lon="14.64436"><ele>7.285714285714286</ele><time>2026-04-26T10:17:51.888Z</time></trkpt><trkpt lat="42.1811967" lon="14.6443333"><ele>7.428571428571429</ele><time>2026-04-26T10:17:52.887Z</time></trkpt><trkpt lat="42.1811317" lon="14.6443117"><ele>7.571428571428571</ele><time>2026-04-26T10:17:53.887Z</time></trkpt><trkpt lat="42.181065" lon="14.6442767"><ele>7.7142857142857135</ele><time>2026-04-26T10:17:54.888Z</time></trkpt><trkpt lat="42.1809967" lon="14.6442433"><ele>7.857142857142857</ele><time>2026-04-26T10:17:55.888Z</time></trkpt><trkpt lat="42.1809283" lon="14.644215"><ele>8.0</ele><time>2026-04-26T10:17:56.888Z</time></trkpt><trkpt lat="42.180865" lon="14.644185"><ele>8.0</ele><time>2026-04-26T10:17:57.887Z</time></trkpt><trkpt lat="42.1807983" lon="14.64416"><ele>7.999999999999999</ele><time>2026-04-26T10:17:58.888Z</time></trkpt><trkpt lat="42.18073" lon="14.6441317"><ele>8.0</ele><time>2026-04-26T10:17:59.888Z</time></trkpt><trkpt lat="42.1806617" lon="14.6441067"><ele>8.0</ele><time>2026-04-26T10:18:00.888Z</time></trkpt><trkpt lat="42.1805983" lon="14.6440783"><ele>7.999999999999999</ele><time>2026-04-26T10:18:01.888Z</time></trkpt><trkpt lat="42.18053" lon="14.644055"><ele>8.0</ele><time>2026-04-26T10:18:02.887Z</time></trkpt><trkpt lat="42.180465" lon="14.64403"><ele>8.0</ele><time>2026-04-26T10:18:03.887Z</time></trkpt><trkpt lat="42.1804" lon="14.6440017"><ele>7.833333333333333</ele><time>2026-04-26T10:18:04.888Z</time></trkpt><trkpt lat="42.180335" lon="14.643965"><ele>7.666666666666666</ele><time>2026-04-26T10:18:05.888Z</time></trkpt><trkpt lat="42.1802783" lon="14.64392"><ele>7.5</ele><time>2026-04-26T10:18:06.888Z</time></trkpt><trkpt lat="42.180235" lon="14.6438567"><ele>7.333333333333334</ele><time>2026-04-26T10:18:07.887Z</time></trkpt><trkpt lat="42.1802017" lon="14.6437017"><ele>7.166666666666667</ele><time>2026-04-26T10:18:09.887Z</time></trkpt><trkpt lat="42.180205" lon="14.6436117"><ele>7.0</ele><time>2026-04-26T10:18:10.887Z</time></trkpt><trkpt lat="42.1802133" lon="14.64352"><ele>7.0</ele><time>2026-04-26T10:18:11.888Z</time></trkpt><trkpt lat="42.180215" lon="14.6434267"><ele>7.0</ele><time>2026-04-26T10:18:12.888Z</time></trkpt><trkpt lat="42.1802117" lon="14.6433333"><ele>7.0</ele><time>2026-04-26T10:18:13.887Z</time></trkpt><trkpt lat="42.1802083" lon="14.6432417"><ele>7.0</ele><time>2026-04-26T10:18:14.888Z</time></trkpt><trkpt lat="42.1802067" lon="14.6431483"><ele>7.0</ele><time>2026-04-26T10:18:15.888Z</time></trkpt><trkpt lat="42.1802083" lon="14.643055"><ele>7.0</ele><time>2026-04-26T10:18:16.887Z</time></trkpt><trkpt lat="42.180205" lon="14.6429633"><ele>7.0</ele><time>2026-04-26T10:18:17.888Z</time></trkpt><trkpt lat="42.1802017" lon="14.6428667"><ele>7.142857142857142</ele><time>2026-04-26T10:18:18.888Z</time></trkpt><trkpt lat="42.1801983" lon="14.6427683"><ele>7.285714285714286</ele><time>2026-04-26T10:18:19.887Z</time></trkpt><trkpt lat="42.1801917" lon="14.642675"><ele>7.428571428571429</ele><time>2026-04-26T10:18:20.888Z</time></trkpt><trkpt lat="42.18018" lon="14.6425867"><ele>7.571428571428571</ele><time>2026-04-26T10:18:21.888Z</time></trkpt><trkpt lat="42.1801633" lon="14.6424983"><ele>7.7142857142857135</ele><time>2026-04-26T10:18:22.887Z</time></trkpt><trkpt lat="42.1801383" lon="14.6424117"><ele>7.857142857142857</ele><time>2026-04-26T10:18:23.888Z</time></trkpt><trkpt lat="42.18011" lon="14.6423317"><ele>8.0</ele><time>2026-04-26T10:18:24.888Z</time></trkpt><trkpt lat="42.1800833" lon="14.6422467"><ele>7.999999999999999</ele><time>2026-04-26T10:18:25.888Z</time></trkpt><trkpt lat="42.180055" lon="14.6421633"><ele>8.0</ele><time>2026-04-26T10:18:26.887Z</time></trkpt><trkpt lat="42.18002" lon="14.6420867"><ele>8.0</ele><time>2026-04-26T10:18:27.888Z</time></trkpt><trkpt lat="42.1799833" lon="14.642015"><ele>8.0</ele><time>2026-04-26T10:18:28.888Z</time></trkpt><trkpt lat="42.1799117" lon="14.6418867"><ele>7.999999999999999</ele><time>2026-04-26T10:18:30.888Z</time></trkpt><trkpt lat="42.1798417" lon="14.6417617"><ele>8.0</ele><time>2026-04-26T10:18:32.887Z</time></trkpt><trkpt lat="42.1797967" lon="14.6416983"><ele>7.999999999999999</ele><time>2026-04-26T10:18:33.888Z</time></trkpt><trkpt lat="42.179705" lon="14.6415833"><ele>8.0</ele><time>2026-04-26T10:18:35.888Z</time></trkpt><trkpt lat="42.179655" lon="14.641525"><ele>8.0</ele><time>2026-04-26T10:18:36.888Z</time></trkpt><trkpt lat="42.1795983" lon="14.64148"><ele>8.0</ele><time>2026-04-26T10:18:37.888Z</time></trkpt><trkpt lat="42.17954" lon="14.6414433"><ele>7.999999999999999</ele><time>2026-04-26T10:18:38.888Z</time></trkpt><trkpt lat="42.179485" lon="14.6414017"><ele>8.0</ele><time>2026-04-26T10:18:39.888Z</time></trkpt><trkpt lat="42.1794217" lon="14.6413567"><ele>7.999999999999999</ele><time>2026-04-26T10:18:40.888Z</time></trkpt><trkpt lat="42.179355" lon="14.6413167"><ele>8.0</ele><time>2026-04-26T10:18:41.888Z</time></trkpt><trkpt lat="42.1792883" lon="14.64128"><ele>8.0</ele><time>2026-04-26T10:18:42.887Z</time></trkpt><trkpt lat="42.179215" lon="14.6412417"><ele>8.0</ele><time>2026-04-26T10:18:43.887Z</time></trkpt><trkpt lat="42.1791417" lon="14.64121"><ele>7.999999999999999</ele><time>2026-04-26T10:18:44.887Z</time></trkpt><trkpt lat="42.1790683" lon="14.64118"><ele>8.0</ele><time>2026-04-26T10:18:45.888Z</time></trkpt><trkpt lat="42.178995" lon="14.6411617"><ele>8.142857142857142</ele><time>2026-04-26T10:18:46.887Z</time></trkpt><trkpt lat="42.1789267" lon="14.6411483"><ele>8.285714285714285</ele><time>2026-04-26T10:18:47.887Z</time></trkpt><trkpt lat="42.17885" lon="14.64114"><ele>8.428571428571429</ele><time>2026-04-26T10:18:48.887Z</time></trkpt><trkpt lat="42.17878" lon="14.64114"><ele>8.571428571428571</ele><time>2026-04-26T10:18:49.888Z</time></trkpt><trkpt lat="42.17871" lon="14.6411433"><ele>8.714285714285715</ele><time>2026-04-26T10:18:50.887Z</time></trkpt><trkpt lat="42.17864" lon="14.64115"><ele>8.857142857142858</ele><time>2026-04-26T10:18:51.887Z</time></trkpt><trkpt lat="42.17857" lon="14.641155"><ele>9.0</ele><time>2026-04-26T10:18:52.888Z</time></trkpt><trkpt lat="42.1785067" lon="14.6411633"><ele>9.000000000000002</ele><time>2026-04-26T10:18:53.887Z</time></trkpt><trkpt lat="42.1784433" lon="14.64117"><ele>9.0</ele><time>2026-04-26T10:18:54.888Z</time></trkpt><trkpt lat="42.17838" lon="14.6411883"><ele>9.0</ele><time>2026-04-26T10:18:55.887Z</time></trkpt><trkpt lat="42.1783133" lon="14.6412067"><ele>9.0</ele><time>2026-04-26T10:18:56.887Z</time></trkpt><trkpt lat="42.17825" lon="14.64122"><ele>9.0</ele><time>2026-04-26T10:18:57.888Z</time></trkpt><trkpt lat="42.1781833" lon="14.6412317"><ele>9.000000000000002</ele><time>2026-04-26T10:18:58.888Z</time></trkpt><trkpt lat="42.17812" lon="14.6412367"><ele>9.0</ele><time>2026-04-26T10:18:59.887Z</time></trkpt><trkpt lat="42.178055" lon="14.6412317"><ele>9.166666666666666</ele><time>2026-04-26T10:19:00.888Z</time></trkpt><trkpt lat="42.177945" lon="14.641155"><ele>9.333333333333334</ele><time>2026-04-26T10:19:02.887Z</time></trkpt><trkpt lat="42.1779033" lon="14.64108"><ele>9.5</ele><time>2026-04-26T10:19:03.888Z</time></trkpt><trkpt lat="42.1778733" lon="14.6409933"><ele>9.666666666666668</ele><time>2026-04-26T10:19:04.888Z</time></trkpt><trkpt lat="42.1778533" lon="14.64091"><ele>9.833333333333334</ele><time>2026-04-26T10:19:05.888Z</time></trkpt><trkpt lat="42.1778367" lon="14.6408233"><ele>10.0</ele><time>2026-04-26T10:19:06.887Z</time></trkpt><trkpt lat="42.1778217" lon="14.640735"><ele>10.142857142857142</ele><time>2026-04-26T10:19:07.888Z</time></trkpt><trkpt lat="42.1778067" lon="14.6406483"><ele>10.285714285714286</ele><time>2026-04-26T10:19:08.888Z</time></trkpt><trkpt lat="42.1777867" lon="14.6405583"><ele>10.428571428571429</ele><time>2026-04-26T10:19:09.887Z</time></trkpt><trkpt lat="42.17777" lon="14.6404683"><ele>10.571428571428571</ele><time>2026-04-26T10:19:10.887Z</time></trkpt><trkpt lat="42.1777517" lon="14.6403817"><ele>10.714285714285714</ele><time>2026-04-26T10:19:11.887Z</time></trkpt><trkpt lat="42.1777333" lon="14.6402883"><ele>10.857142857142858</ele><time>2026-04-26T10:19:12.887Z</time></trkpt><trkpt lat="42.17771" lon="14.6401983"><ele>11.0</ele><time>2026-04-26T10:19:13.888Z</time></trkpt><trkpt lat="42.1776867" lon="14.64011"><ele>11.0</ele><time>2026-04-26T10:19:14.888Z</time></trkpt><trkpt lat="42.1776617" lon="14.6400267"><ele>11.0</ele><time>2026-04-26T10:19:15.887Z</time></trkpt><trkpt lat="42.1776333" lon="14.639945"><ele>11.0</ele><time>2026-04-26T10:19:16.888Z</time></trkpt><trkpt lat="42.1776" lon="14.6398717"><ele>11.0</ele><time>2026-04-26T10:19:17.887Z</time></trkpt><trkpt lat="42.177525" lon="14.6397367"><ele>11.0</ele><time>2026-04-26T10:19:19.888Z</time></trkpt><trkpt lat="42.177485" lon="14.63967"><ele>11.0</ele><time>2026-04-26T10:19:20.888Z</time></trkpt><trkpt lat="42.177405" lon="14.63956"><ele>11.0</ele><time>2026-04-26T10:19:22.888Z</time></trkpt><trkpt lat="42.1773217" lon="14.6394617"><ele>11.0</ele><time>2026-04-26T10:19:24.888Z</time></trkpt><trkpt lat="42.1772717" lon="14.639405"><ele>11.0</ele><time>2026-04-26T10:19:25.887Z</time></trkpt><trkpt lat="42.177225" lon="14.6393417"><ele>11.0</ele><time>2026-04-26T10:19:26.888Z</time></trkpt><trkpt lat="42.1771733" lon="14.6392817"><ele>11.0</ele><time>2026-04-26T10:19:27.888Z</time></trkpt><trkpt lat="42.1771233" lon="14.6392233"><ele>11.0</ele><time>2026-04-26T10:19:28.887Z</time></trkpt><trkpt lat="42.177075" lon="14.6391633"><ele>11.0</ele><time>2026-04-26T10:19:29.888Z</time></trkpt><trkpt lat="42.1770317" lon="14.6390967"><ele>11.0</ele><time>2026-04-26T10:19:30.888Z</time></trkpt><trkpt lat="42.1769567" lon="14.6389717"><ele>11.0</ele><time>2026-04-26T10:19:32.888Z</time></trkpt><trkpt lat="42.1768783" lon="14.6388667"><ele>11.0</ele><time>2026-04-26T10:19:34.888Z</time></trkpt><trkpt lat="42.17681" lon="14.638785"><ele>11.0</ele><time>2026-04-26T10:19:36.888Z</time></trkpt><trkpt lat="42.1767583" lon="14.638715"><ele>11.0</ele><time>2026-04-26T10:19:38.887Z</time></trkpt><trkpt lat="42.1767067" lon="14.6386383"><ele>11.833333333333332</ele><time>2026-04-26T10:19:41.887Z</time></trkpt><trkpt lat="42.1766533" lon="14.63859"><ele>12.666666666666666</ele><time>2026-04-26T10:19:45.887Z</time></trkpt><trkpt lat="42.176585" lon="14.6385467"><ele>13.5</ele><time>2026-04-26T10:19:48.887Z</time></trkpt><trkpt lat="42.1765083" lon="14.638505"><ele>14.333333333333332</ele><time>2026-04-26T10:19:50.886Z</time></trkpt><trkpt lat="42.17641" lon="14.6385117"><ele>15.166666666666666</ele><time>2026-04-26T10:19:52.887Z</time></trkpt><trkpt lat="42.176305" lon="14.6385333"><ele>16.0</ele><time>2026-04-26T10:19:54.886Z</time></trkpt><trkpt lat="42.1761967" lon="14.63855"><ele>16.2</ele><time>2026-04-26T10:19:56.887Z</time></trkpt><trkpt lat="42.176095" lon="14.6385633"><ele>16.400000000000002</ele><time>2026-04-26T10:19:58.887Z</time></trkpt><trkpt lat="42.1759783" lon="14.638575"><ele>16.6</ele><time>2026-04-26T10:20:00.886Z</time></trkpt><trkpt lat="42.1758617" lon="14.6385933"><ele>16.8</ele><time>2026-04-26T10:20:02.887Z</time></trkpt><trkpt lat="42.175795" lon="14.6386017"><ele>17.0</ele><time>2026-04-26T10:20:03.886Z</time></trkpt><trkpt lat="42.17573" lon="14.63861"><ele>17.333333333333336</ele><time>2026-04-26T10:20:04.887Z</time></trkpt><trkpt lat="42.1756633" lon="14.6386233"><ele>17.666666666666668</ele><time>2026-04-26T10:20:05.886Z</time></trkpt><trkpt lat="42.175595" lon="14.6386367"><ele>18.0</ele><time>2026-04-26T10:20:06.887Z</time></trkpt><trkpt lat="42.1755283" lon="14.6386467"><ele>18.333333333333332</ele><time>2026-04-26T10:20:07.886Z</time></trkpt><trkpt lat="42.1754017" lon="14.6386733"><ele>18.666666666666664</ele><time>2026-04-26T10:20:09.886Z</time></trkpt><trkpt lat="42.1753383" lon="14.63868"><ele>19.0</ele><time>2026-04-26T10:20:10.887Z</time></trkpt><trkpt lat="42.175275" lon="14.63869"><ele>18.333333333333332</ele><time>2026-04-26T10:20:11.886Z</time></trkpt><trkpt lat="42.1752117" lon="14.6387"><ele>17.666666666666664</ele><time>2026-04-26T10:20:12.886Z</time></trkpt><trkpt lat="42.175085" lon="14.6387217"><ele>17.0</ele><time>2026-04-26T10:20:14.886Z</time></trkpt><trkpt lat="42.1750183" lon="14.638735"><ele>16.333333333333332</ele><time>2026-04-26T10:20:15.887Z</time></trkpt><trkpt lat="42.1749517" lon="14.6387483"><ele>15.666666666666666</ele><time>2026-04-26T10:20:16.887Z</time></trkpt><trkpt lat="42.1748867" lon="14.6387633"><ele>15.0</ele><time>2026-04-26T10:20:17.887Z</time></trkpt><trkpt lat="42.17482" lon="14.6387733"><ele>14.833333333333334</ele><time>2026-04-26T10:20:18.886Z</time></trkpt><trkpt lat="42.1747483" lon="14.6387833"><ele>14.666666666666668</ele><time>2026-04-26T10:20:19.887Z</time></trkpt><trkpt lat="42.17468" lon="14.63879"><ele>14.5</ele><time>2026-04-26T10:20:20.887Z</time></trkpt><trkpt lat="42.1746117" lon="14.638795"><ele>14.333333333333334</ele><time>2026-04-26T10:20:21.887Z</time></trkpt><trkpt lat="42.1745467" lon="14.6388"><ele>14.166666666666668</ele><time>2026-04-26T10:20:22.887Z</time></trkpt><trkpt lat="42.1744817" lon="14.63881"><ele>14.0</ele><time>2026-04-26T10:20:23.887Z</time></trkpt><trkpt lat="42.1743533" lon="14.6388383"><ele>14.0</ele><time>2026-04-26T10:20:25.887Z</time></trkpt><trkpt lat="42.1742833" lon="14.6388517"><ele>14.0</ele><time>2026-04-26T10:20:26.887Z</time></trkpt><trkpt lat="42.1742183" lon="14.6388617"><ele>14.0</ele><time>2026-04-26T10:20:27.886Z</time></trkpt><trkpt lat="42.1741517" lon="14.6388717"><ele>14.0</ele><time>2026-04-26T10:20:28.886Z</time></trkpt><trkpt lat="42.174085" lon="14.6388817"><ele>14.0</ele><time>2026-04-26T10:20:29.886Z</time></trkpt><trkpt lat="42.17402" lon="14.6388917"><ele>14.0</ele><time>2026-04-26T10:20:30.887Z</time></trkpt><trkpt lat="42.1739483" lon="14.6389033"><ele>14.0</ele><time>2026-04-26T10:20:31.886Z</time></trkpt><trkpt lat="42.1738783" lon="14.638915"><ele>13.857142857142858</ele><time>2026-04-26T10:20:32.886Z</time></trkpt><trkpt lat="42.17381" lon="14.638925"><ele>13.714285714285715</ele><time>2026-04-26T10:20:33.886Z</time></trkpt><trkpt lat="42.1737433" lon="14.6389383"><ele>13.571428571428571</ele><time>2026-04-26T10:20:34.887Z</time></trkpt><trkpt lat="42.173675" lon="14.6389467"><ele>13.428571428571429</ele><time>2026-04-26T10:20:35.886Z</time></trkpt><trkpt lat="42.17361" lon="14.6389583"><ele>13.285714285714286</ele><time>2026-04-26T10:20:36.887Z</time></trkpt><trkpt lat="42.173535" lon="14.6389733"><ele>13.142857142857142</ele><time>2026-04-26T10:20:37.887Z</time></trkpt><trkpt lat="42.1734617" lon="14.638985"><ele>13.0</ele><time>2026-04-26T10:20:38.887Z</time></trkpt><trkpt lat="42.1733967" lon="14.6389933"><ele>13.0</ele><time>2026-04-26T10:20:39.887Z</time></trkpt><trkpt lat="42.1733317" lon="14.639005"><ele>13.0</ele><time>2026-04-26T10:20:40.887Z</time></trkpt><trkpt lat="42.1732633" lon="14.6390183"><ele>13.0</ele><time>2026-04-26T10:20:41.887Z</time></trkpt><trkpt lat="42.1731967" lon="14.6390317"><ele>13.0</ele><time>2026-04-26T10:20:42.887Z</time></trkpt><trkpt lat="42.1731283" lon="14.6390483"><ele>13.0</ele><time>2026-04-26T10:20:43.886Z</time></trkpt><trkpt lat="42.173055" lon="14.6390583"><ele>13.0</ele><time>2026-04-26T10:20:44.887Z</time></trkpt><trkpt lat="42.17298" lon="14.6390667"><ele>13.0</ele><time>2026-04-26T10:20:45.887Z</time></trkpt><trkpt lat="42.17291" lon="14.63908"><ele>13.142857142857142</ele><time>2026-04-26T10:20:46.886Z</time></trkpt><trkpt lat="42.172835" lon="14.6390917"><ele>13.285714285714286</ele><time>2026-04-26T10:20:47.887Z</time></trkpt><trkpt lat="42.172765" lon="14.639105"><ele>13.428571428571429</ele><time>2026-04-26T10:20:48.886Z</time></trkpt><trkpt lat="42.1726933" lon="14.6391167"><ele>13.571428571428571</ele><time>2026-04-26T10:20:49.886Z</time></trkpt><trkpt lat="42.1726183" lon="14.6391283"><ele>13.714285714285715</ele><time>2026-04-26T10:20:50.887Z</time></trkpt><trkpt lat="42.1725483" lon="14.63914"><ele>13.857142857142858</ele><time>2026-04-26T10:20:51.887Z</time></trkpt><trkpt lat="42.1724783" lon="14.63915"><ele>14.0</ele><time>2026-04-26T10:20:52.887Z</time></trkpt><trkpt lat="42.17241" lon="14.6391583"><ele>14.142857142857142</ele><time>2026-04-26T10:20:53.887Z</time></trkpt><trkpt lat="42.1723433" lon="14.639165"><ele>14.285714285714285</ele><time>2026-04-26T10:20:54.886Z</time></trkpt><trkpt lat="42.172275" lon="14.6391733"><ele>14.428571428571429</ele><time>2026-04-26T10:20:55.886Z</time></trkpt><trkpt lat="42.172205" lon="14.6391767"><ele>14.571428571428571</ele><time>2026-04-26T10:20:56.887Z</time></trkpt><trkpt lat="42.1721317" lon="14.6391983"><ele>14.714285714285714</ele><time>2026-04-26T10:20:57.887Z</time></trkpt><trkpt lat="42.1720617" lon="14.63921"><ele>14.857142857142858</ele><time>2026-04-26T10:20:58.886Z</time></trkpt><trkpt lat="42.1719967" lon="14.6392267"><ele>15.0</ele><time>2026-04-26T10:20:59.886Z</time></trkpt><trkpt lat="42.171875" lon="14.6392417"><ele>15.0</ele><time>2026-04-26T10:21:01.886Z</time></trkpt><trkpt lat="42.1718117" lon="14.639255"><ele>15.0</ele><time>2026-04-26T10:21:02.887Z</time></trkpt><trkpt lat="42.1716983" lon="14.6392767"><ele>15.0</ele><time>2026-04-26T10:21:04.887Z</time></trkpt><trkpt lat="42.1715733" lon="14.6392983"><ele>15.0</ele><time>2026-04-26T10:21:06.887Z</time></trkpt><trkpt lat="42.17151" lon="14.63931"><ele>15.0</ele><time>2026-04-26T10:21:07.887Z</time></trkpt><trkpt lat="42.1714417" lon="14.63932"><ele>15.0</ele><time>2026-04-26T10:21:08.887Z</time></trkpt><trkpt lat="42.1713767" lon="14.6393317"><ele>15.142857142857142</ele><time>2026-04-26T10:21:09.887Z</time></trkpt><trkpt lat="42.1713117" lon="14.639345"><ele>15.285714285714285</ele><time>2026-04-26T10:21:10.886Z</time></trkpt><trkpt lat="42.1712367" lon="14.6393517"><ele>15.428571428571427</ele><time>2026-04-26T10:21:11.887Z</time></trkpt><trkpt lat="42.171165" lon="14.6393617"><ele>15.571428571428571</ele><time>2026-04-26T10:21:12.886Z</time></trkpt><trkpt lat="42.1710883" lon="14.6393733"><ele>15.714285714285712</ele><time>2026-04-26T10:21:13.887Z</time></trkpt><trkpt lat="42.1710167" lon="14.639385"><ele>15.857142857142856</ele><time>2026-04-26T10:21:14.886Z</time></trkpt><trkpt lat="42.170945" lon="14.6393983"><ele>16.0</ele><time>2026-04-26T10:21:15.886Z</time></trkpt><trkpt lat="42.17087" lon="14.6394117"><ele>16.0</ele><time>2026-04-26T10:21:16.887Z</time></trkpt><trkpt lat="42.1707983" lon="14.6394217"><ele>15.999999999999998</ele><time>2026-04-26T10:21:17.887Z</time></trkpt><trkpt lat="42.1707283" lon="14.63943"><ele>16.0</ele><time>2026-04-26T10:21:18.887Z</time></trkpt><trkpt lat="42.1706567" lon="14.6394467"><ele>16.0</ele><time>2026-04-26T10:21:19.887Z</time></trkpt><trkpt lat="42.1705867" lon="14.6394617"><ele>15.999999999999998</ele><time>2026-04-26T10:21:20.887Z</time></trkpt><trkpt lat="42.1705117" lon="14.6394767"><ele>16.0</ele><time>2026-04-26T10:21:21.887Z</time></trkpt><trkpt lat="42.1704383" lon="14.6394917"><ele>16.0</ele><time>2026-04-26T10:21:22.887Z</time></trkpt><trkpt lat="42.1703633" lon="14.6395"><ele>16.0</ele><time>2026-04-26T10:21:23.887Z</time></trkpt><trkpt lat="42.17029" lon="14.639515"><ele>15.999999999999998</ele><time>2026-04-26T10:21:24.886Z</time></trkpt><trkpt lat="42.17022" lon="14.639525"><ele>16.0</ele><time>2026-04-26T10:21:25.886Z</time></trkpt><trkpt lat="42.1701467" lon="14.639535"><ele>16.0</ele><time>2026-04-26T10:21:26.887Z</time></trkpt><trkpt lat="42.1700783" lon="14.6395483"><ele>15.999999999999998</ele><time>2026-04-26T10:21:27.886Z</time></trkpt><trkpt lat="42.170005" lon="14.6395583"><ele>16.0</ele><time>2026-04-26T10:21:28.886Z</time></trkpt><trkpt lat="42.1699333" lon="14.63957"><ele>16.0</ele><time>2026-04-26T10:21:29.886Z</time></trkpt><trkpt lat="42.1698583" lon="14.6395817"><ele>16.285714285714285</ele><time>2026-04-26T10:21:30.887Z</time></trkpt><trkpt lat="42.1697833" lon="14.6395933"><ele>16.57142857142857</ele><time>2026-04-26T10:21:31.887Z</time></trkpt><trkpt lat="42.1697167" lon="14.639605"><ele>16.857142857142858</ele><time>2026-04-26T10:21:32.887Z</time></trkpt><trkpt lat="42.1696483" lon="14.63962"><ele>17.142857142857142</ele><time>2026-04-26T10:21:33.886Z</time></trkpt><trkpt lat="42.169575" lon="14.6396283"><ele>17.42857142857143</ele><time>2026-04-26T10:21:34.886Z</time></trkpt><trkpt lat="42.1695033" lon="14.63964"><ele>17.714285714285715</ele><time>2026-04-26T10:21:35.887Z</time></trkpt><trkpt lat="42.1694333" lon="14.639655"><ele>18.0</ele><time>2026-04-26T10:21:36.886Z</time></trkpt><trkpt lat="42.169365" lon="14.6396633"><ele>18.000000000000004</ele><time>2026-04-26T10:21:37.887Z</time></trkpt><trkpt lat="42.1692933" lon="14.6396733"><ele>18.0</ele><time>2026-04-26T10:21:38.886Z</time></trkpt><trkpt lat="42.16922" lon="14.6396833"><ele>18.0</ele><time>2026-04-26T10:21:39.887Z</time></trkpt><trkpt lat="42.169145" lon="14.6396983"><ele>18.0</ele><time>2026-04-26T10:21:40.887Z</time></trkpt><trkpt lat="42.16907" lon="14.63971"><ele>18.0</ele><time>2026-04-26T10:21:41.887Z</time></trkpt><trkpt lat="42.169" lon="14.63972"><ele>18.000000000000004</ele><time>2026-04-26T10:21:42.886Z</time></trkpt><trkpt lat="42.1689283" lon="14.6397317"><ele>18.0</ele><time>2026-04-26T10:21:43.887Z</time></trkpt><trkpt lat="42.1688533" lon="14.6397433"><ele>18.000000000000004</ele><time>2026-04-26T10:21:44.887Z</time></trkpt><trkpt lat="42.1687817" lon="14.6397567"><ele>18.0</ele><time>2026-04-26T10:21:45.887Z</time></trkpt><trkpt lat="42.1687083" lon="14.6397717"><ele>18.0</ele><time>2026-04-26T10:21:46.886Z</time></trkpt><trkpt lat="42.168635" lon="14.6397817"><ele>18.0</ele><time>2026-04-26T10:21:47.887Z</time></trkpt><trkpt lat="42.1685633" lon="14.6397933"><ele>18.0</ele><time>2026-04-26T10:21:48.887Z</time></trkpt><trkpt lat="42.1684917" lon="14.639805"><ele>18.000000000000004</ele><time>2026-04-26T10:21:49.887Z</time></trkpt><trkpt lat="42.1684167" lon="14.63982"><ele>18.0</ele><time>2026-04-26T10:21:50.887Z</time></trkpt><trkpt lat="42.1683417" lon="14.639835"><ele>18.000000000000004</ele><time>2026-04-26T10:21:51.886Z</time></trkpt><trkpt lat="42.16827" lon="14.6398483"><ele>18.0</ele><time>2026-04-26T10:21:52.887Z</time></trkpt><trkpt lat="42.1682" lon="14.63986"><ele>18.0</ele><time>2026-04-26T10:21:53.886Z</time></trkpt><trkpt lat="42.1681283" lon="14.63987"><ele>18.0</ele><time>2026-04-26T10:21:54.886Z</time></trkpt><trkpt lat="42.1680567" lon="14.6398833"><ele>18.0</ele><time>2026-04-26T10:21:55.887Z</time></trkpt><trkpt lat="42.1679883" lon="14.63989"><ele>18.000000000000004</ele><time>2026-04-26T10:21:56.887Z</time></trkpt><trkpt lat="42.1679183" lon="14.6399017"><ele>18.0</ele><time>2026-04-26T10:21:57.887Z</time></trkpt><trkpt lat="42.1678467" lon="14.6399133"><ele>17.857142857142858</ele><time>2026-04-26T10:21:58.887Z</time></trkpt><trkpt lat="42.1677733" lon="14.6399267"><ele>17.714285714285715</ele><time>2026-04-26T10:21:59.887Z</time></trkpt><trkpt lat="42.1677" lon="14.6399383"><ele>17.57142857142857</ele><time>2026-04-26T10:22:00.887Z</time></trkpt><trkpt lat="42.1676267" lon="14.6399483"><ele>17.42857142857143</ele><time>2026-04-26T10:22:01.887Z</time></trkpt><trkpt lat="42.167555" lon="14.6399633"><ele>17.285714285714285</ele><time>2026-04-26T10:22:02.887Z</time></trkpt><trkpt lat="42.1674817" lon="14.6399683"><ele>17.142857142857142</ele><time>2026-04-26T10:22:03.887Z</time></trkpt><trkpt lat="42.1674083" lon="14.6399833"><ele>17.0</ele><time>2026-04-26T10:22:04.887Z</time></trkpt><trkpt lat="42.167335" lon="14.6399967"><ele>16.999999999999996</ele><time>2026-04-26T10:22:05.886Z</time></trkpt><trkpt lat="42.1672617" lon="14.6400083"><ele>17.0</ele><time>2026-04-26T10:22:06.886Z</time></trkpt><trkpt lat="42.1671883" lon="14.64002"><ele>17.0</ele><time>2026-04-26T10:22:07.886Z</time></trkpt><trkpt lat="42.167115" lon="14.6400317"><ele>17.0</ele><time>2026-04-26T10:22:08.886Z</time></trkpt><trkpt lat="42.167045" lon="14.6400433"><ele>17.0</ele><time>2026-04-26T10:22:09.887Z</time></trkpt><trkpt lat="42.16697" lon="14.640055"><ele>16.999999999999996</ele><time>2026-04-26T10:22:10.886Z</time></trkpt><trkpt lat="42.1668983" lon="14.6400667"><ele>17.0</ele><time>2026-04-26T10:22:11.887Z</time></trkpt><trkpt lat="42.1668217" lon="14.6400783"><ele>17.0</ele><time>2026-04-26T10:22:12.887Z</time></trkpt><trkpt lat="42.1667433" lon="14.64009"><ele>17.0</ele><time>2026-04-26T10:22:13.887Z</time></trkpt><trkpt lat="42.1666683" lon="14.640105"><ele>17.0</ele><time>2026-04-26T10:22:14.886Z</time></trkpt><trkpt lat="42.1665917" lon="14.6401133"><ele>17.0</ele><time>2026-04-26T10:22:15.886Z</time></trkpt><trkpt lat="42.166515" lon="14.6401283"><ele>17.0</ele><time>2026-04-26T10:22:16.887Z</time></trkpt><trkpt lat="42.16644" lon="14.64014"><ele>17.0</ele><time>2026-04-26T10:22:17.887Z</time></trkpt><trkpt lat="42.166365" lon="14.64015"><ele>17.142857142857142</ele><time>2026-04-26T10:22:18.886Z</time></trkpt><trkpt lat="42.1662917" lon="14.6401633"><ele>17.285714285714285</ele><time>2026-04-26T10:22:19.887Z</time></trkpt><trkpt lat="42.1662183" lon="14.640175"><ele>17.42857142857143</ele><time>2026-04-26T10:22:20.887Z</time></trkpt><trkpt lat="42.166145" lon="14.6401867"><ele>17.57142857142857</ele><time>2026-04-26T10:22:21.886Z</time></trkpt><trkpt lat="42.1660733" lon="14.6401983"><ele>17.714285714285715</ele><time>2026-04-26T10:22:22.887Z</time></trkpt><trkpt lat="42.1660017" lon="14.6402117"><ele>17.857142857142858</ele><time>2026-04-26T10:22:23.887Z</time></trkpt><trkpt lat="42.1659333" lon="14.640225"><ele>18.0</ele><time>2026-04-26T10:22:24.887Z</time></trkpt><trkpt lat="42.1658667" lon="14.640235"><ele>18.0</ele><time>2026-04-26T10:22:25.887Z</time></trkpt><trkpt lat="42.16575" lon="14.6402467"><ele>18.0</ele><time>2026-04-26T10:22:27.886Z</time></trkpt><trkpt lat="42.1656283" lon="14.6402633"><ele>18.0</ele><time>2026-04-26T10:22:29.887Z</time></trkpt><trkpt lat="42.165565" lon="14.6402783"><ele>18.0</ele><time>2026-04-26T10:22:30.887Z</time></trkpt><trkpt lat="42.1654983" lon="14.64029"><ele>18.0</ele><time>2026-04-26T10:22:31.887Z</time></trkpt><trkpt lat="42.1654333" lon="14.6403017"><ele>18.0</ele><time>2026-04-26T10:22:32.886Z</time></trkpt><trkpt lat="42.1653633" lon="14.6403133"><ele>18.142857142857146</ele><time>2026-04-26T10:22:33.886Z</time></trkpt><trkpt lat="42.1653" lon="14.6403233"><ele>18.285714285714285</ele><time>2026-04-26T10:22:34.887Z</time></trkpt><trkpt lat="42.16523" lon="14.6403367"><ele>18.42857142857143</ele><time>2026-04-26T10:22:35.887Z</time></trkpt><trkpt lat="42.1651583" lon="14.6403517"><ele>18.571428571428573</ele><time>2026-04-26T10:22:36.886Z</time></trkpt><trkpt lat="42.1650917" lon="14.640365"><ele>18.714285714285715</ele><time>2026-04-26T10:22:37.887Z</time></trkpt><trkpt lat="42.165025" lon="14.6403833"><ele>18.857142857142858</ele><time>2026-04-26T10:22:38.887Z</time></trkpt><trkpt lat="42.1649517" lon="14.6404067"><ele>19.0</ele><time>2026-04-26T10:22:39.887Z</time></trkpt><trkpt lat="42.16488" lon="14.6404317"><ele>19.166666666666664</ele><time>2026-04-26T10:22:40.887Z</time></trkpt><trkpt lat="42.1648133" lon="14.6404583"><ele>19.333333333333332</ele><time>2026-04-26T10:22:41.887Z</time></trkpt><trkpt lat="42.16475" lon="14.6404867"><ele>19.5</ele><time>2026-04-26T10:22:42.887Z</time></trkpt><trkpt lat="42.1646883" lon="14.6405133"><ele>19.666666666666668</ele><time>2026-04-26T10:22:43.887Z</time></trkpt><trkpt lat="42.1645733" lon="14.6405533"><ele>19.833333333333336</ele><time>2026-04-26T10:22:45.887Z</time></trkpt><trkpt lat="42.1644583" lon="14.6405867"><ele>20.0</ele><time>2026-04-26T10:22:47.887Z</time></trkpt><trkpt lat="42.1643467" lon="14.6406117"><ele>20.0</ele><time>2026-04-26T10:22:49.886Z</time></trkpt><trkpt lat="42.1642833" lon="14.6406183"><ele>20.0</ele><time>2026-04-26T10:22:50.887Z</time></trkpt><trkpt lat="42.1641633" lon="14.6405967"><ele>20.0</ele><time>2026-04-26T10:22:52.886Z</time></trkpt><trkpt lat="42.1640967" lon="14.6405767"><ele>20.0</ele><time>2026-04-26T10:22:53.887Z</time></trkpt><trkpt lat="42.1640283" lon="14.6405667"><ele>20.0</ele><time>2026-04-26T10:22:54.887Z</time></trkpt><trkpt lat="42.16396" lon="14.6405733"><ele>20.0</ele><time>2026-04-26T10:22:55.886Z</time></trkpt><trkpt lat="42.1638917" lon="14.6405867"><ele>20.0</ele><time>2026-04-26T10:22:56.886Z</time></trkpt><trkpt lat="42.16378" lon="14.6405667"><ele>20.0</ele><time>2026-04-26T10:22:58.887Z</time></trkpt><trkpt lat="42.1636867" lon="14.640465"><ele>20.0</ele><time>2026-04-26T10:23:00.886Z</time></trkpt><trkpt lat="42.1636533" lon="14.640385"><ele>20.0</ele><time>2026-04-26T10:23:01.887Z</time></trkpt><trkpt lat="42.163625" lon="14.6402983"><ele>20.0</ele><time>2026-04-26T10:23:02.887Z</time></trkpt><trkpt lat="42.1635933" lon="14.6402133"><ele>20.0</ele><time>2026-04-26T10:23:03.887Z</time></trkpt><trkpt lat="42.163545" lon="14.6401467"><ele>20.0</ele><time>2026-04-26T10:23:04.887Z</time></trkpt><trkpt lat="42.1634917" lon="14.6400933"><ele>20.0</ele><time>2026-04-26T10:23:05.887Z</time></trkpt><trkpt lat="42.1634367" lon="14.6400467"><ele>20.0</ele><time>2026-04-26T10:23:06.887Z</time></trkpt><trkpt lat="42.1633533" lon="14.6399367"><ele>20.0</ele><time>2026-04-26T10:23:08.887Z</time></trkpt><trkpt lat="42.1633117" lon="14.6398617"><ele>20.0</ele><time>2026-04-26T10:23:09.886Z</time></trkpt><trkpt lat="42.1632633" lon="14.6397883"><ele>20.0</ele><time>2026-04-26T10:23:10.887Z</time></trkpt><trkpt lat="42.1632167" lon="14.6397183"><ele>20.142857142857142</ele><time>2026-04-26T10:23:11.886Z</time></trkpt><trkpt lat="42.1631683" lon="14.6396517"><ele>20.285714285714285</ele><time>2026-04-26T10:23:12.887Z</time></trkpt><trkpt lat="42.1631117" lon="14.6396033"><ele>20.42857142857143</ele><time>2026-04-26T10:23:13.886Z</time></trkpt><trkpt lat="42.1630483" lon="14.6395633"><ele>20.57142857142857</ele><time>2026-04-26T10:23:14.886Z</time></trkpt><trkpt lat="42.1629817" lon="14.639535"><ele>20.714285714285715</ele><time>2026-04-26T10:23:15.886Z</time></trkpt><trkpt lat="42.1629133" lon="14.6395117"><ele>20.857142857142858</ele><time>2026-04-26T10:23:16.887Z</time></trkpt><trkpt lat="42.1628433" lon="14.6394833"><ele>21.0</ele><time>2026-04-26T10:23:17.887Z</time></trkpt><trkpt lat="42.162775" lon="14.6394567"><ele>21.166666666666668</ele><time>2026-04-26T10:23:18.887Z</time></trkpt><trkpt lat="42.1627117" lon="14.6394233"><ele>21.333333333333332</ele><time>2026-04-26T10:23:19.887Z</time></trkpt><trkpt lat="42.1626583" lon="14.6393717"><ele>21.5</ele><time>2026-04-26T10:23:20.887Z</time></trkpt><trkpt lat="42.162615" lon="14.63931"><ele>21.666666666666664</ele><time>2026-04-26T10:23:21.887Z</time></trkpt><trkpt lat="42.1625267" lon="14.6391767"><ele>21.833333333333332</ele><time>2026-04-26T10:23:23.886Z</time></trkpt><trkpt lat="42.1624867" lon="14.639105"><ele>22.0</ele><time>2026-04-26T10:23:24.886Z</time></trkpt><trkpt lat="42.1624533" lon="14.6390283"><ele>22.0</ele><time>2026-04-26T10:23:25.887Z</time></trkpt><trkpt lat="42.162425" lon="14.6389483"><ele>22.0</ele><time>2026-04-26T10:23:26.886Z</time></trkpt><trkpt lat="42.1624167" lon="14.6388617"><ele>22.0</ele><time>2026-04-26T10:23:27.886Z</time></trkpt><trkpt lat="42.1624183" lon="14.638775"><ele>22.0</ele><time>2026-04-26T10:23:28.887Z</time></trkpt><trkpt lat="42.162425" lon="14.6386833"><ele>22.0</ele><time>2026-04-26T10:23:29.887Z</time></trkpt><trkpt lat="42.1624483" lon="14.6386017"><ele>22.0</ele><time>2026-04-26T10:23:30.886Z</time></trkpt><trkpt lat="42.1625283" lon="14.63847"><ele>22.666666666666664</ele><time>2026-04-26T10:23:32.886Z</time></trkpt><trkpt lat="42.1625733" lon="14.6384083"><ele>23.333333333333332</ele><time>2026-04-26T10:23:33.887Z</time></trkpt><trkpt lat="42.1626217" lon="14.6383533"><ele>24.0</ele><time>2026-04-26T10:23:34.886Z</time></trkpt><trkpt lat="42.162675" lon="14.638305"><ele>24.666666666666664</ele><time>2026-04-26T10:23:35.886Z</time></trkpt><trkpt lat="42.1627783" lon="14.6382167"><ele>25.333333333333332</ele><time>2026-04-26T10:23:37.887Z</time></trkpt><trkpt lat="42.1628817" lon="14.63814"><ele>26.0</ele><time>2026-04-26T10:23:39.887Z</time></trkpt><trkpt lat="42.162985" lon="14.63808"><ele>26.0</ele><time>2026-04-26T10:23:41.886Z</time></trkpt><trkpt lat="42.163095" lon="14.63802"><ele>26.0</ele><time>2026-04-26T10:23:43.887Z</time></trkpt><trkpt lat="42.1631883" lon="14.6379633"><ele>26.0</ele><time>2026-04-26T10:23:45.887Z</time></trkpt><trkpt lat="42.1632817" lon="14.6378833"><ele>26.0</ele><time>2026-04-26T10:23:47.887Z</time></trkpt><trkpt lat="42.163365" lon="14.6377833"><ele>26.0</ele><time>2026-04-26T10:23:49.887Z</time></trkpt><trkpt lat="42.1634367" lon="14.637665"><ele>26.499999999999996</ele><time>2026-04-26T10:23:51.886Z</time></trkpt><trkpt lat="42.1634917" lon="14.6375683"><ele>27.0</ele><time>2026-04-26T10:23:53.886Z</time></trkpt><trkpt lat="42.1635533" lon="14.6374567"><ele>27.5</ele><time>2026-04-26T10:23:55.887Z</time></trkpt><trkpt lat="42.1636167" lon="14.63735"><ele>28.0</ele><time>2026-04-26T10:23:57.887Z</time></trkpt><trkpt lat="42.1636467" lon="14.6372733"><ele>28.499999999999996</ele><time>2026-04-26T10:23:58.887Z</time></trkpt><trkpt lat="42.1636717" lon="14.6371883"><ele>29.0</ele><time>2026-04-26T10:23:59.887Z</time></trkpt><trkpt lat="42.1636833" lon="14.6370333"><ele>29.833333333333332</ele><time>2026-04-26T10:24:01.887Z</time></trkpt><trkpt lat="42.16367" lon="14.636945"><ele>30.666666666666664</ele><time>2026-04-26T10:24:02.887Z</time></trkpt><trkpt lat="42.1636483" lon="14.636865"><ele>31.5</ele><time>2026-04-26T10:24:03.887Z</time></trkpt><trkpt lat="42.1635917" lon="14.6367217"><ele>32.333333333333336</ele><time>2026-04-26T10:24:05.886Z</time></trkpt><trkpt lat="42.163555" lon="14.63665"><ele>33.16666666666667</ele><time>2026-04-26T10:24:06.887Z</time></trkpt><trkpt lat="42.1634883" lon="14.636525"><ele>34.0</ele><time>2026-04-26T10:24:08.887Z</time></trkpt><trkpt lat="42.1634283" lon="14.6363983"><ele>34.0</ele><time>2026-04-26T10:24:10.886Z</time></trkpt><trkpt lat="42.163355" lon="14.636275"><ele>34.0</ele><time>2026-04-26T10:24:12.887Z</time></trkpt><trkpt lat="42.16329" lon="14.636155"><ele>34.0</ele><time>2026-04-26T10:24:14.886Z</time></trkpt><trkpt lat="42.1632217" lon="14.6360283"><ele>34.0</ele><time>2026-04-26T10:24:16.887Z</time></trkpt><trkpt lat="42.16315" lon="14.6358967"><ele>34.75</ele><time>2026-04-26T10:24:18.886Z</time></trkpt><trkpt lat="42.1630883" lon="14.6357717"><ele>35.5</ele><time>2026-04-26T10:24:20.886Z</time></trkpt><trkpt lat="42.1630167" lon="14.635655"><ele>36.25</ele><time>2026-04-26T10:24:22.887Z</time></trkpt><trkpt lat="42.1629333" lon="14.6355483"><ele>37.0</ele><time>2026-04-26T10:24:24.887Z</time></trkpt><trkpt lat="42.1628367" lon="14.6354583"><ele>37.0</ele><time>2026-04-26T10:24:26.886Z</time></trkpt><trkpt lat="42.1627283" lon="14.6353883"><ele>37.0</ele><time>2026-04-26T10:24:28.887Z</time></trkpt><trkpt lat="42.1626217" lon="14.635335"><ele>37.0</ele><time>2026-04-26T10:24:30.887Z</time></trkpt><trkpt lat="42.162515" lon="14.6352883"><ele>37.0</ele><time>2026-04-26T10:24:32.887Z</time></trkpt><trkpt lat="42.162405" lon="14.6352433"><ele>39.5</ele><time>2026-04-26T10:24:34.887Z</time></trkpt><trkpt lat="42.1622933" lon="14.6351867"><ele>42.0</ele><time>2026-04-26T10:24:36.886Z</time></trkpt><trkpt lat="42.16219" lon="14.6351183"><ele>44.5</ele><time>2026-04-26T10:24:38.887Z</time></trkpt><trkpt lat="42.1620933" lon="14.6350317"><ele>47.0</ele><time>2026-04-26T10:24:40.886Z</time></trkpt><trkpt lat="42.16201" lon="14.6349383"><ele>47.0</ele><time>2026-04-26T10:24:42.887Z</time></trkpt><trkpt lat="42.16192" lon="14.63486"><ele>47.0</ele><time>2026-04-26T10:24:44.887Z</time></trkpt><trkpt lat="42.1618417" lon="14.634795"><ele>47.0</ele><time>2026-04-26T10:24:46.887Z</time></trkpt><trkpt lat="42.1617617" lon="14.634675"><ele>47.0</ele><time>2026-04-26T10:24:48.886Z</time></trkpt><trkpt lat="42.1617133" lon="14.6346167"><ele>47.0</ele><time>2026-04-26T10:24:49.886Z</time></trkpt><trkpt lat="42.1616667" lon="14.63455"><ele>47.6</ele><time>2026-04-26T10:24:50.887Z</time></trkpt><trkpt lat="42.1616117" lon="14.6344067"><ele>48.2</ele><time>2026-04-26T10:24:52.887Z</time></trkpt><trkpt lat="42.1615817" lon="14.6342583"><ele>48.8</ele><time>2026-04-26T10:24:54.886Z</time></trkpt><trkpt lat="42.1615867" lon="14.6341333"><ele>49.4</ele><time>2026-04-26T10:24:56.887Z</time></trkpt><trkpt lat="42.16163" lon="14.6340133"><ele>50.0</ele><time>2026-04-26T10:24:58.887Z</time></trkpt><trkpt lat="42.1617" lon="14.6338983"><ele>50.0</ele><time>2026-04-26T10:25:00.886Z</time></trkpt><trkpt lat="42.1617717" lon="14.6337717"><ele>50.0</ele><time>2026-04-26T10:25:02.886Z</time></trkpt><trkpt lat="42.161845" lon="14.6336467"><ele>50.0</ele><time>2026-04-26T10:25:04.887Z</time></trkpt><trkpt lat="42.1619233" lon="14.63352"><ele>50.0</ele><time>2026-04-26T10:25:06.887Z</time></trkpt><trkpt lat="42.1619667" lon="14.6334583"><ele>50.0</ele><time>2026-04-26T10:25:07.887Z</time></trkpt><trkpt lat="42.1620083" lon="14.6333933"><ele>51.75</ele><time>2026-04-26T10:25:08.887Z</time></trkpt><trkpt lat="42.16209" lon="14.6332733"><ele>53.5</ele><time>2026-04-26T10:25:10.887Z</time></trkpt><trkpt lat="42.1621733" lon="14.633155"><ele>55.25</ele><time>2026-04-26T10:25:12.887Z</time></trkpt><trkpt lat="42.162245" lon="14.6330217"><ele>57.0</ele><time>2026-04-26T10:25:14.886Z</time></trkpt><trkpt lat="42.1623167" lon="14.632905"><ele>56.75</ele><time>2026-04-26T10:25:16.887Z</time></trkpt><trkpt lat="42.16239" lon="14.63278"><ele>56.5</ele><time>2026-04-26T10:25:18.887Z</time></trkpt><trkpt lat="42.1624667" lon="14.6326583"><ele>56.25</ele><time>2026-04-26T10:25:20.887Z</time></trkpt><trkpt lat="42.162555" lon="14.6325633"><ele>56.0</ele><time>2026-04-26T10:25:22.887Z</time></trkpt><trkpt lat="42.162645" lon="14.6324583"><ele>56.0</ele><time>2026-04-26T10:25:24.887Z</time></trkpt><trkpt lat="42.162735" lon="14.632365"><ele>55.99999999999999</ele><time>2026-04-26T10:25:26.887Z</time></trkpt><trkpt lat="42.1628217" lon="14.6322733"><ele>55.99999999999999</ele><time>2026-04-26T10:25:28.887Z</time></trkpt><trkpt lat="42.1628883" lon="14.6321517"><ele>56.0</ele><time>2026-04-26T10:25:30.887Z</time></trkpt><trkpt lat="42.1629167" lon="14.632015"><ele>56.0</ele><time>2026-04-26T10:25:32.886Z</time></trkpt><trkpt lat="42.1629017" lon="14.6318583"><ele>58.0</ele><time>2026-04-26T10:25:34.887Z</time></trkpt><trkpt lat="42.16283" lon="14.6317467"><ele>60.0</ele><time>2026-04-26T10:25:36.887Z</time></trkpt><trkpt lat="42.1627333" lon="14.6316983"><ele>62.0</ele><time>2026-04-26T10:25:38.887Z</time></trkpt><trkpt lat="42.1626167" lon="14.6317117"><ele>64.0</ele><time>2026-04-26T10:25:40.887Z</time></trkpt><trkpt lat="42.162505" lon="14.6317717"><ele>64.0</ele><time>2026-04-26T10:25:42.887Z</time></trkpt><trkpt lat="42.1623983" lon="14.6318433"><ele>64.0</ele><time>2026-04-26T10:25:44.886Z</time></trkpt><trkpt lat="42.16229" lon="14.6319283"><ele>64.0</ele><time>2026-04-26T10:25:46.887Z</time></trkpt><trkpt lat="42.1621867" lon="14.6320133"><ele>64.0</ele><time>2026-04-26T10:25:48.887Z</time></trkpt><trkpt lat="42.1620817" lon="14.6320917"><ele>64.5</ele><time>2026-04-26T10:25:50.887Z</time></trkpt><trkpt lat="42.1619783" lon="14.632175"><ele>65.0</ele><time>2026-04-26T10:25:52.886Z</time></trkpt><trkpt lat="42.1618733" lon="14.6322517"><ele>65.5</ele><time>2026-04-26T10:25:54.887Z</time></trkpt><trkpt lat="42.1617717" lon="14.6323333"><ele>66.0</ele><time>2026-04-26T10:25:56.886Z</time></trkpt><trkpt lat="42.1616717" lon="14.63241"><ele>66.0</ele><time>2026-04-26T10:25:58.887Z</time></trkpt><trkpt lat="42.161575" lon="14.6324867"><ele>66.0</ele><time>2026-04-26T10:26:00.887Z</time></trkpt><trkpt lat="42.16148" lon="14.6325567"><ele>66.0</ele><time>2026-04-26T10:26:02.887Z</time></trkpt><trkpt lat="42.1613817" lon="14.6326267"><ele>66.0</ele><time>2026-04-26T10:26:04.887Z</time></trkpt><trkpt lat="42.161285" lon="14.63269"><ele>66.0</ele><time>2026-04-26T10:26:06.887Z</time></trkpt><trkpt lat="42.161175" lon="14.63276"><ele>65.2</ele><time>2026-04-26T10:26:08.887Z</time></trkpt><trkpt lat="42.1610667" lon="14.6328317"><ele>64.39999999999999</ele><time>2026-04-26T10:26:10.886Z</time></trkpt><trkpt lat="42.1609533" lon="14.6328983"><ele>63.6</ele><time>2026-04-26T10:26:12.887Z</time></trkpt><trkpt lat="42.1608933" lon="14.632925"><ele>62.8</ele><time>2026-04-26T10:26:13.887Z</time></trkpt><trkpt lat="42.1608317" lon="14.6329483"><ele>62.0</ele><time>2026-04-26T10:26:14.887Z</time></trkpt><trkpt lat="42.1607117" lon="14.63295"><ele>62.0</ele><time>2026-04-26T10:26:16.886Z</time></trkpt><trkpt lat="42.160605" lon="14.6328833"><ele>62.0</ele><time>2026-04-26T10:26:18.886Z</time></trkpt><trkpt lat="42.16054" lon="14.6327517"><ele>62.0</ele><time>2026-04-26T10:26:20.886Z</time></trkpt><trkpt lat="42.1604933" lon="14.6326033"><ele>62.0</ele><time>2026-04-26T10:26:22.886Z</time></trkpt><trkpt lat="42.16046" lon="14.63245"><ele>62.0</ele><time>2026-04-26T10:26:24.887Z</time></trkpt><trkpt lat="42.1604333" lon="14.6322917"><ele>62.0</ele><time>2026-04-26T10:26:26.887Z</time></trkpt><trkpt lat="42.1604167" lon="14.63214"><ele>62.0</ele><time>2026-04-26T10:26:28.887Z</time></trkpt><trkpt lat="42.1604" lon="14.6319917"><ele>62.0</ele><time>2026-04-26T10:26:30.886Z</time></trkpt><trkpt lat="42.1603783" lon="14.6318467"><ele>63.6</ele><time>2026-04-26T10:26:32.887Z</time></trkpt><trkpt lat="42.1603483" lon="14.6317017"><ele>65.2</ele><time>2026-04-26T10:26:34.886Z</time></trkpt><trkpt lat="42.1603083" lon="14.6315533"><ele>66.8</ele><time>2026-04-26T10:26:36.887Z</time></trkpt><trkpt lat="42.1602617" lon="14.6313967"><ele>68.4</ele><time>2026-04-26T10:26:38.887Z</time></trkpt><trkpt lat="42.1602367" lon="14.631305"><ele>70.0</ele><time>2026-04-26T10:26:39.887Z</time></trkpt><trkpt lat="42.160215" lon="14.6312217"><ele>71.2</ele><time>2026-04-26T10:26:40.886Z</time></trkpt><trkpt lat="42.1601983" lon="14.6311383"><ele>72.4</ele><time>2026-04-26T10:26:41.887Z</time></trkpt><trkpt lat="42.1601833" lon="14.630965"><ele>73.6</ele><time>2026-04-26T10:26:43.887Z</time></trkpt><trkpt lat="42.1601833" lon="14.630875"><ele>74.8</ele><time>2026-04-26T10:26:44.887Z</time></trkpt><trkpt lat="42.1601833" lon="14.6307017"><ele>76.0</ele><time>2026-04-26T10:26:46.887Z</time></trkpt><trkpt lat="42.1601817" lon="14.63053"><ele>76.0</ele><time>2026-04-26T10:26:48.886Z</time></trkpt><trkpt lat="42.160185" lon="14.6304433"><ele>76.0</ele><time>2026-04-26T10:26:49.887Z</time></trkpt><trkpt lat="42.16019" lon="14.6303583"><ele>76.0</ele><time>2026-04-26T10:26:50.887Z</time></trkpt><trkpt lat="42.160195" lon="14.6302717"><ele>76.0</ele><time>2026-04-26T10:26:51.886Z</time></trkpt><trkpt lat="42.1602" lon="14.6301833"><ele>76.0</ele><time>2026-04-26T10:26:52.886Z</time></trkpt><trkpt lat="42.1602067" lon="14.6300967"><ele>76.0</ele><time>2026-04-26T10:26:53.886Z</time></trkpt><trkpt lat="42.1602117" lon="14.6300083"><ele>76.0</ele><time>2026-04-26T10:26:54.886Z</time></trkpt><trkpt lat="42.1602183" lon="14.62992"><ele>77.0</ele><time>2026-04-26T10:26:55.887Z</time></trkpt><trkpt lat="42.1602267" lon="14.62983"><ele>78.0</ele><time>2026-04-26T10:26:56.886Z</time></trkpt><trkpt lat="42.16025" lon="14.62967"><ele>79.0</ele><time>2026-04-26T10:26:58.886Z</time></trkpt><trkpt lat="42.1602683" lon="14.629515"><ele>80.0</ele><time>2026-04-26T10:27:00.887Z</time></trkpt><trkpt lat="42.1602817" lon="14.629425"><ele>81.0</ele><time>2026-04-26T10:27:01.887Z</time></trkpt><trkpt lat="42.16031" lon="14.6292533"><ele>81.28571428571429</ele><time>2026-04-26T10:27:03.887Z</time></trkpt><trkpt lat="42.160325" lon="14.629165"><ele>81.57142857142857</ele><time>2026-04-26T10:27:04.886Z</time></trkpt><trkpt lat="42.1603367" lon="14.629075"><ele>81.85714285714286</ele><time>2026-04-26T10:27:05.887Z</time></trkpt><trkpt lat="42.1603467" lon="14.6289833"><ele>82.14285714285714</ele><time>2026-04-26T10:27:06.887Z</time></trkpt><trkpt lat="42.1603567" lon="14.6288917"><ele>82.42857142857143</ele><time>2026-04-26T10:27:07.887Z</time></trkpt><trkpt lat="42.1603667" lon="14.6287967"><ele>82.71428571428571</ele><time>2026-04-26T10:27:08.887Z</time></trkpt><trkpt lat="42.1603767" lon="14.6287067"><ele>83.0</ele><time>2026-04-26T10:27:09.887Z</time></trkpt><trkpt lat="42.1603883" lon="14.6286183"><ele>83.16666666666667</ele><time>2026-04-26T10:27:10.886Z</time></trkpt><trkpt lat="42.1604" lon="14.6285283"><ele>83.33333333333334</ele><time>2026-04-26T10:27:11.886Z</time></trkpt><trkpt lat="42.1604133" lon="14.628435"><ele>83.5</ele><time>2026-04-26T10:27:12.887Z</time></trkpt><trkpt lat="42.1604267" lon="14.628345"><ele>83.66666666666667</ele><time>2026-04-26T10:27:13.887Z</time></trkpt><trkpt lat="42.16045" lon="14.62818"><ele>83.83333333333333</ele><time>2026-04-26T10:27:15.887Z</time></trkpt><trkpt lat="42.16046" lon="14.62809"><ele>84.0</ele><time>2026-04-26T10:27:16.887Z</time></trkpt><trkpt lat="42.1604733" lon="14.628005"><ele>84.0</ele><time>2026-04-26T10:27:17.886Z</time></trkpt><trkpt lat="42.1604867" lon="14.6279217"><ele>84.0</ele><time>2026-04-26T10:27:18.886Z</time></trkpt><trkpt lat="42.1605" lon="14.6278333"><ele>84.0</ele><time>2026-04-26T10:27:19.886Z</time></trkpt><trkpt lat="42.16051" lon="14.6277433"><ele>84.0</ele><time>2026-04-26T10:27:20.887Z</time></trkpt><trkpt lat="42.1605217" lon="14.627655"><ele>84.0</ele><time>2026-04-26T10:27:21.887Z</time></trkpt><trkpt lat="42.160535" lon="14.6275683"><ele>84.0</ele><time>2026-04-26T10:27:22.887Z</time></trkpt><trkpt lat="42.16055" lon="14.6274833"><ele>84.0</ele><time>2026-04-26T10:27:23.887Z</time></trkpt><trkpt lat="42.1605633" lon="14.627395"><ele>84.42857142857143</ele><time>2026-04-26T10:27:24.886Z</time></trkpt><trkpt lat="42.1605767" lon="14.6273067"><ele>84.85714285714286</ele><time>2026-04-26T10:27:25.887Z</time></trkpt><trkpt lat="42.1605883" lon="14.62722"><ele>85.28571428571428</ele><time>2026-04-26T10:27:26.887Z</time></trkpt><trkpt lat="42.1606" lon="14.6271333"><ele>85.71428571428572</ele><time>2026-04-26T10:27:27.887Z</time></trkpt><trkpt lat="42.1606133" lon="14.6270467"><ele>86.14285714285714</ele><time>2026-04-26T10:27:28.887Z</time></trkpt><trkpt lat="42.1606267" lon="14.62696"><ele>86.57142857142857</ele><time>2026-04-26T10:27:29.887Z</time></trkpt><trkpt lat="42.16064" lon="14.62687"><ele>87.0</ele><time>2026-04-26T10:27:30.887Z</time></trkpt><trkpt lat="42.1606517" lon="14.6267817"><ele>87.16666666666667</ele><time>2026-04-26T10:27:31.887Z</time></trkpt><trkpt lat="42.1606683" lon="14.6266967"><ele>87.33333333333333</ele><time>2026-04-26T10:27:32.886Z</time></trkpt><trkpt lat="42.1607017" lon="14.6265283"><ele>87.5</ele><time>2026-04-26T10:27:34.887Z</time></trkpt><trkpt lat="42.1607183" lon="14.626445"><ele>87.66666666666666</ele><time>2026-04-26T10:27:35.887Z</time></trkpt><trkpt lat="42.1607667" lon="14.6263033"><ele>87.83333333333333</ele><time>2026-04-26T10:27:37.886Z</time></trkpt><trkpt lat="42.1608" lon="14.6262283"><ele>88.0</ele><time>2026-04-26T10:27:38.887Z</time></trkpt><trkpt lat="42.16088" lon="14.626095"><ele>89.75</ele><time>2026-04-26T10:27:40.887Z</time></trkpt><trkpt lat="42.1609733" lon="14.6259883"><ele>91.5</ele><time>2026-04-26T10:27:42.887Z</time></trkpt><trkpt lat="42.1610717" lon="14.6258883"><ele>93.25</ele><time>2026-04-26T10:27:44.886Z</time></trkpt><trkpt lat="42.1611667" lon="14.6257967"><ele>95.0</ele><time>2026-04-26T10:27:46.887Z</time></trkpt><trkpt lat="42.1612633" lon="14.625705"><ele>95.0</ele><time>2026-04-26T10:27:48.887Z</time></trkpt><trkpt lat="42.1613583" lon="14.6256167"><ele>95.0</ele><time>2026-04-26T10:27:50.886Z</time></trkpt><trkpt lat="42.1614533" lon="14.6255183"><ele>95.0</ele><time>2026-04-26T10:27:52.887Z</time></trkpt><trkpt lat="42.16155" lon="14.6254183"><ele>95.0</ele><time>2026-04-26T10:27:54.886Z</time></trkpt><trkpt lat="42.16164" lon="14.6253183"><ele>96.2</ele><time>2026-04-26T10:27:56.887Z</time></trkpt><trkpt lat="42.1616867" lon="14.6252567"><ele>97.4</ele><time>2026-04-26T10:27:57.887Z</time></trkpt><trkpt lat="42.161765" lon="14.6251317"><ele>98.6</ele><time>2026-04-26T10:27:59.887Z</time></trkpt><trkpt lat="42.1618317" lon="14.6250033"><ele>99.8</ele><time>2026-04-26T10:28:01.887Z</time></trkpt><trkpt lat="42.161885" lon="14.6248633"><ele>101.0</ele><time>2026-04-26T10:28:03.886Z</time></trkpt><trkpt lat="42.16193" lon="14.6247117"><ele>101.0</ele><time>2026-04-26T10:28:05.887Z</time></trkpt><trkpt lat="42.161965" lon="14.6245567"><ele>101.0</ele><time>2026-04-26T10:28:07.886Z</time></trkpt><trkpt lat="42.162005" lon="14.624405"><ele>101.0</ele><time>2026-04-26T10:28:09.887Z</time></trkpt><trkpt lat="42.1620417" lon="14.6242483"><ele>101.0</ele><time>2026-04-26T10:28:11.887Z</time></trkpt><trkpt lat="42.1620767" lon="14.62409"><ele>102.0</ele><time>2026-04-26T10:28:13.887Z</time></trkpt><trkpt lat="42.1621167" lon="14.6239333"><ele>103.0</ele><time>2026-04-26T10:28:15.886Z</time></trkpt><trkpt lat="42.162135" lon="14.6238517"><ele>104.0</ele><time>2026-04-26T10:28:16.887Z</time></trkpt><trkpt lat="42.1621533" lon="14.6236933"><ele>105.0</ele><time>2026-04-26T10:28:18.887Z</time></trkpt><trkpt lat="42.1621517" lon="14.6236083"><ele>106.0</ele><time>2026-04-26T10:28:19.887Z</time></trkpt><trkpt lat="42.1621233" lon="14.6234483"><ele>106.8</ele><time>2026-04-26T10:28:21.886Z</time></trkpt><trkpt lat="42.1620717" lon="14.6232917"><ele>107.6</ele><time>2026-04-26T10:28:23.886Z</time></trkpt><trkpt lat="42.162005" lon="14.6231567"><ele>108.4</ele><time>2026-04-26T10:28:25.886Z</time></trkpt><trkpt lat="42.1619733" lon="14.6230833"><ele>109.2</ele><time>2026-04-26T10:28:26.887Z</time></trkpt><trkpt lat="42.1619117" lon="14.6229317"><ele>110.0</ele><time>2026-04-26T10:28:28.887Z</time></trkpt><trkpt lat="42.161845" lon="14.6227967"><ele>110.33333333333333</ele><time>2026-04-26T10:28:30.887Z</time></trkpt><trkpt lat="42.161775" lon="14.62266"><ele>110.66666666666666</ele><time>2026-04-26T10:28:32.887Z</time></trkpt><trkpt lat="42.1617367" lon="14.62259"><ele>111.0</ele><time>2026-04-26T10:28:33.887Z</time></trkpt><trkpt lat="42.1617033" lon="14.6225167"><ele>111.33333333333334</ele><time>2026-04-26T10:28:34.886Z</time></trkpt><trkpt lat="42.1616333" lon="14.6223733"><ele>111.66666666666667</ele><time>2026-04-26T10:28:36.886Z</time></trkpt><trkpt lat="42.1615983" lon="14.6222933"><ele>112.0</ele><time>2026-04-26T10:28:37.887Z</time></trkpt><trkpt lat="42.1615267" lon="14.6221533"><ele>112.0</ele><time>2026-04-26T10:28:39.887Z</time></trkpt><trkpt lat="42.1614867" lon="14.62208"><ele>112.0</ele><time>2026-04-26T10:28:40.886Z</time></trkpt><trkpt lat="42.161445" lon="14.6220033"><ele>112.0</ele><time>2026-04-26T10:28:41.886Z</time></trkpt><trkpt lat="42.1614083" lon="14.6219267"><ele>112.0</ele><time>2026-04-26T10:28:42.886Z</time></trkpt><trkpt lat="42.1613767" lon="14.621845"><ele>112.0</ele><time>2026-04-26T10:28:43.887Z</time></trkpt><trkpt lat="42.1613383" lon="14.6217667"><ele>112.0</ele><time>2026-04-26T10:28:44.887Z</time></trkpt><trkpt lat="42.1612983" lon="14.6216867"><ele>112.0</ele><time>2026-04-26T10:28:45.886Z</time></trkpt><trkpt lat="42.1612583" lon="14.6216167"><ele>112.33333333333334</ele><time>2026-04-26T10:28:46.886Z</time></trkpt><trkpt lat="42.1612217" lon="14.6215383"><ele>112.66666666666667</ele><time>2026-04-26T10:28:47.887Z</time></trkpt><trkpt lat="42.16118" lon="14.621465"><ele>113.0</ele><time>2026-04-26T10:28:48.886Z</time></trkpt><trkpt lat="42.161105" lon="14.6213183"><ele>113.33333333333334</ele><time>2026-04-26T10:28:50.887Z</time></trkpt><trkpt lat="42.16107" lon="14.621245"><ele>113.66666666666667</ele><time>2026-04-26T10:28:51.887Z</time></trkpt><trkpt lat="42.16103" lon="14.6211667"><ele>114.0</ele><time>2026-04-26T10:28:52.887Z</time></trkpt><trkpt lat="42.1609867" lon="14.6210883"><ele>114.57142857142857</ele><time>2026-04-26T10:28:53.886Z</time></trkpt><trkpt lat="42.16095" lon="14.6210033"><ele>115.14285714285714</ele><time>2026-04-26T10:28:54.886Z</time></trkpt><trkpt lat="42.1609083" lon="14.6209233"><ele>115.71428571428571</ele><time>2026-04-26T10:28:55.887Z</time></trkpt><trkpt lat="42.1608683" lon="14.6208433"><ele>116.28571428571428</ele><time>2026-04-26T10:28:56.886Z</time></trkpt><trkpt lat="42.1608317" lon="14.6207583"><ele>116.85714285714286</ele><time>2026-04-26T10:28:57.886Z</time></trkpt><trkpt lat="42.1607933" lon="14.6206817"><ele>117.42857142857142</ele><time>2026-04-26T10:28:58.886Z</time></trkpt><trkpt lat="42.16075" lon="14.620605"><ele>118.0</ele><time>2026-04-26T10:28:59.887Z</time></trkpt><trkpt lat="42.1607117" lon="14.620525"><ele>117.85714285714286</ele><time>2026-04-26T10:29:00.886Z</time></trkpt><trkpt lat="42.160675" lon="14.6204383"><ele>117.71428571428572</ele><time>2026-04-26T10:29:01.887Z</time></trkpt><trkpt lat="42.1606317" lon="14.6203667"><ele>117.57142857142858</ele><time>2026-04-26T10:29:02.886Z</time></trkpt><trkpt lat="42.1605917" lon="14.620285"><ele>117.42857142857143</ele><time>2026-04-26T10:29:03.886Z</time></trkpt><trkpt lat="42.1605533" lon="14.6201983"><ele>117.2857142857143</ele><time>2026-04-26T10:29:04.886Z</time></trkpt><trkpt lat="42.16052" lon="14.6201133"><ele>117.14285714285715</ele><time>2026-04-26T10:29:05.887Z</time></trkpt><trkpt lat="42.1604783" lon="14.6200433"><ele>117.0</ele><time>2026-04-26T10:29:06.887Z</time></trkpt><trkpt lat="42.1604383" lon="14.6199667"><ele>117.42857142857143</ele><time>2026-04-26T10:29:07.886Z</time></trkpt><trkpt lat="42.1603967" lon="14.6198833"><ele>117.85714285714286</ele><time>2026-04-26T10:29:08.886Z</time></trkpt><trkpt lat="42.1603583" lon="14.6198033"><ele>118.28571428571429</ele><time>2026-04-26T10:29:09.887Z</time></trkpt><trkpt lat="42.160315" lon="14.6197333"><ele>118.71428571428572</ele><time>2026-04-26T10:29:10.887Z</time></trkpt><trkpt lat="42.1602733" lon="14.6196567"><ele>119.14285714285714</ele><time>2026-04-26T10:29:11.887Z</time></trkpt><trkpt lat="42.160235" lon="14.6195767"><ele>119.57142857142858</ele><time>2026-04-26T10:29:12.887Z</time></trkpt><trkpt lat="42.1601867" lon="14.6194917"><ele>120.0</ele><time>2026-04-26T10:29:13.887Z</time></trkpt><trkpt lat="42.1601433" lon="14.6194117"><ele>120.28571428571429</ele><time>2026-04-26T10:29:14.887Z</time></trkpt><trkpt lat="42.16011" lon="14.6193283"><ele>120.57142857142856</ele><time>2026-04-26T10:29:15.886Z</time></trkpt><trkpt lat="42.16007" lon="14.6192483"><ele>120.85714285714285</ele><time>2026-04-26T10:29:16.887Z</time></trkpt><trkpt lat="42.1600283" lon="14.619165"><ele>121.14285714285714</ele><time>2026-04-26T10:29:17.887Z</time></trkpt><trkpt lat="42.1599917" lon="14.6190867"><ele>121.42857142857142</ele><time>2026-04-26T10:29:18.887Z</time></trkpt><trkpt lat="42.1599533" lon="14.6190067"><ele>121.7142857142857</ele><time>2026-04-26T10:29:19.887Z</time></trkpt><trkpt lat="42.15992" lon="14.618925"><ele>121.99999999999999</ele><time>2026-04-26T10:29:20.886Z</time></trkpt><trkpt lat="42.1598817" lon="14.61885"><ele>121.99999999999999</ele><time>2026-04-26T10:29:21.886Z</time></trkpt><trkpt lat="42.159845" lon="14.6187667"><ele>122.0</ele><time>2026-04-26T10:29:22.887Z</time></trkpt><trkpt lat="42.15981" lon="14.6186833"><ele>121.99999999999999</ele><time>2026-04-26T10:29:23.887Z</time></trkpt><trkpt lat="42.159775" lon="14.6186067"><ele>121.99999999999999</ele><time>2026-04-26T10:29:24.887Z</time></trkpt><trkpt lat="42.1597333" lon="14.6185283"><ele>122.0</ele><time>2026-04-26T10:29:25.886Z</time></trkpt><trkpt lat="42.15969" lon="14.61845"><ele>121.99999999999999</ele><time>2026-04-26T10:29:26.887Z</time></trkpt><trkpt lat="42.1596567" lon="14.6183633"><ele>121.99999999999999</ele><time>2026-04-26T10:29:27.887Z</time></trkpt><trkpt lat="42.1596083" lon="14.6182883"><ele>122.42857142857142</ele><time>2026-04-26T10:29:28.887Z</time></trkpt><trkpt lat="42.1595633" lon="14.6182117"><ele>122.85714285714286</ele><time>2026-04-26T10:29:29.887Z</time></trkpt><trkpt lat="42.1595217" lon="14.6181283"><ele>123.28571428571428</ele><time>2026-04-26T10:29:30.887Z</time></trkpt><trkpt lat="42.15948" lon="14.6180483"><ele>123.71428571428571</ele><time>2026-04-26T10:29:31.886Z</time></trkpt><trkpt lat="42.159435" lon="14.61797"><ele>124.14285714285714</ele><time>2026-04-26T10:29:32.887Z</time></trkpt><trkpt lat="42.1593967" lon="14.61789"><ele>124.57142857142857</ele><time>2026-04-26T10:29:33.887Z</time></trkpt><trkpt lat="42.159355" lon="14.6178117"><ele>125.0</ele><time>2026-04-26T10:29:34.887Z</time></trkpt><trkpt lat="42.1593183" lon="14.6177317"><ele>125.28571428571428</ele><time>2026-04-26T10:29:35.887Z</time></trkpt><trkpt lat="42.1592783" lon="14.6176533"><ele>125.57142857142858</ele><time>2026-04-26T10:29:36.886Z</time></trkpt><trkpt lat="42.15924" lon="14.6175733"><ele>125.85714285714286</ele><time>2026-04-26T10:29:37.887Z</time></trkpt><trkpt lat="42.1592067" lon="14.617495"><ele>126.14285714285714</ele><time>2026-04-26T10:29:38.887Z</time></trkpt><trkpt lat="42.15917" lon="14.6174117"><ele>126.42857142857142</ele><time>2026-04-26T10:29:39.886Z</time></trkpt><trkpt lat="42.15913" lon="14.6173367"><ele>126.71428571428572</ele><time>2026-04-26T10:29:40.886Z</time></trkpt><trkpt lat="42.1590867" lon="14.6172617"><ele>127.0</ele><time>2026-04-26T10:29:41.886Z</time></trkpt><trkpt lat="42.1590533" lon="14.6171833"><ele>127.28571428571429</ele><time>2026-04-26T10:29:42.887Z</time></trkpt><trkpt lat="42.1590183" lon="14.6171033"><ele>127.57142857142856</ele><time>2026-04-26T10:29:43.886Z</time></trkpt><trkpt lat="42.1589833" lon="14.6170233"><ele>127.85714285714285</ele><time>2026-04-26T10:29:44.887Z</time></trkpt><trkpt lat="42.1589433" lon="14.616945"><ele>128.14285714285714</ele><time>2026-04-26T10:29:45.887Z</time></trkpt><trkpt lat="42.1588983" lon="14.6168633"><ele>128.42857142857142</ele><time>2026-04-26T10:29:46.887Z</time></trkpt><trkpt lat="42.1588567" lon="14.6167833"><ele>128.7142857142857</ele><time>2026-04-26T10:29:47.887Z</time></trkpt><trkpt lat="42.1588183" lon="14.6167033"><ele>129.0</ele><time>2026-04-26T10:29:48.887Z</time></trkpt><trkpt lat="42.1587783" lon="14.6166283"><ele>129.28571428571428</ele><time>2026-04-26T10:29:49.886Z</time></trkpt><trkpt lat="42.15874" lon="14.6165533"><ele>129.57142857142856</ele><time>2026-04-26T10:29:50.887Z</time></trkpt><trkpt lat="42.1586983" lon="14.6164833"><ele>129.85714285714286</ele><time>2026-04-26T10:29:51.886Z</time></trkpt><trkpt lat="42.1586567" lon="14.6164117"><ele>130.14285714285714</ele><time>2026-04-26T10:29:52.887Z</time></trkpt><trkpt lat="42.1586167" lon="14.616335"><ele>130.42857142857144</ele><time>2026-04-26T10:29:53.886Z</time></trkpt><trkpt lat="42.1585833" lon="14.616255"><ele>130.71428571428572</ele><time>2026-04-26T10:29:54.887Z</time></trkpt><trkpt lat="42.1585433" lon="14.6161717"><ele>131.0</ele><time>2026-04-26T10:29:55.886Z</time></trkpt><trkpt lat="42.1585083" lon="14.6160883"><ele>131.14285714285714</ele><time>2026-04-26T10:29:56.886Z</time></trkpt><trkpt lat="42.15847" lon="14.6160117"><ele>131.2857142857143</ele><time>2026-04-26T10:29:57.887Z</time></trkpt><trkpt lat="42.1584333" lon="14.6159333"><ele>131.42857142857144</ele><time>2026-04-26T10:29:58.887Z</time></trkpt><trkpt lat="42.1583933" lon="14.6158617"><ele>131.57142857142858</ele><time>2026-04-26T10:29:59.886Z</time></trkpt><trkpt lat="42.1583517" lon="14.615785"><ele>131.71428571428572</ele><time>2026-04-26T10:30:00.886Z</time></trkpt><trkpt lat="42.1583183" lon="14.6157067"><ele>131.85714285714286</ele><time>2026-04-26T10:30:01.887Z</time></trkpt><trkpt lat="42.1582817" lon="14.6156333"><ele>132.0</ele><time>2026-04-26T10:30:02.887Z</time></trkpt><trkpt lat="42.1582167" lon="14.61551"><ele>132.0</ele><time>2026-04-26T10:30:04.887Z</time></trkpt><trkpt lat="42.1581833" lon="14.61536"><ele>132.0</ele><time>2026-04-26T10:30:06.887Z</time></trkpt><trkpt lat="42.1581817" lon="14.615245"><ele>132.0</ele><time>2026-04-26T10:30:08.887Z</time></trkpt><trkpt lat="42.158195" lon="14.6151267"><ele>132.0</ele><time>2026-04-26T10:30:10.887Z</time></trkpt><trkpt lat="42.1581867" lon="14.61501"><ele>132.0</ele><time>2026-04-26T10:30:12.886Z</time></trkpt><trkpt lat="42.1581033" lon="14.6149183"><ele>132.33333333333334</ele><time>2026-04-26T10:30:14.887Z</time></trkpt><trkpt lat="42.1580417" lon="14.614895"><ele>132.66666666666666</ele><time>2026-04-26T10:30:15.887Z</time></trkpt><trkpt lat="42.15798" lon="14.6148767"><ele>133.0</ele><time>2026-04-26T10:30:16.886Z</time></trkpt><trkpt lat="42.1578783" lon="14.6147783"><ele>133.33333333333331</ele><time>2026-04-26T10:30:18.887Z</time></trkpt><trkpt lat="42.1578317" lon="14.6147083"><ele>133.66666666666666</ele><time>2026-04-26T10:30:19.887Z</time></trkpt><trkpt lat="42.1577883" lon="14.6146367"><ele>134.0</ele><time>2026-04-26T10:30:20.887Z</time></trkpt><trkpt lat="42.1577467" lon="14.6145567"><ele>134.0</ele><time>2026-04-26T10:30:21.887Z</time></trkpt><trkpt lat="42.157705" lon="14.614475"><ele>134.0</ele><time>2026-04-26T10:30:22.887Z</time></trkpt><trkpt lat="42.157665" lon="14.6143933"><ele>134.0</ele><time>2026-04-26T10:30:23.887Z</time></trkpt><trkpt lat="42.1576283" lon="14.6143083"><ele>134.0</ele><time>2026-04-26T10:30:24.887Z</time></trkpt><trkpt lat="42.1575817" lon="14.61423"><ele>134.0</ele><time>2026-04-26T10:30:25.886Z</time></trkpt><trkpt lat="42.1575417" lon="14.6141533"><ele>134.0</ele><time>2026-04-26T10:30:26.887Z</time></trkpt><trkpt lat="42.1575017" lon="14.6140633"><ele>134.0</ele><time>2026-04-26T10:30:27.887Z</time></trkpt><trkpt lat="42.1574583" lon="14.613975"><ele>134.0</ele><time>2026-04-26T10:30:28.887Z</time></trkpt><trkpt lat="42.1574183" lon="14.61389"><ele>134.0</ele><time>2026-04-26T10:30:29.887Z</time></trkpt><trkpt lat="42.15738" lon="14.6138083"><ele>134.0</ele><time>2026-04-26T10:30:30.886Z</time></trkpt><trkpt lat="42.1573433" lon="14.613725"><ele>134.0</ele><time>2026-04-26T10:30:31.886Z</time></trkpt><trkpt lat="42.1573033" lon="14.6136433"><ele>134.0</ele><time>2026-04-26T10:30:32.887Z</time></trkpt><trkpt lat="42.1572583" lon="14.6135633"><ele>134.0</ele><time>2026-04-26T10:30:33.887Z</time></trkpt><trkpt lat="42.1572217" lon="14.6134867"><ele>134.0</ele><time>2026-04-26T10:30:34.886Z</time></trkpt><trkpt lat="42.157185" lon="14.613405"><ele>134.0</ele><time>2026-04-26T10:30:35.887Z</time></trkpt><trkpt lat="42.1571517" lon="14.6133217"><ele>134.0</ele><time>2026-04-26T10:30:36.886Z</time></trkpt><trkpt lat="42.1571133" lon="14.6132367"><ele>134.0</ele><time>2026-04-26T10:30:37.887Z</time></trkpt><trkpt lat="42.1570733" lon="14.613155"><ele>134.0</ele><time>2026-04-26T10:30:38.887Z</time></trkpt><trkpt lat="42.1570367" lon="14.6130767"><ele>134.0</ele><time>2026-04-26T10:30:39.887Z</time></trkpt><trkpt lat="42.157005" lon="14.612995"><ele>134.0</ele><time>2026-04-26T10:30:40.886Z</time></trkpt><trkpt lat="42.156975" lon="14.6128967"><ele>134.0</ele><time>2026-04-26T10:30:41.886Z</time></trkpt><trkpt lat="42.156945" lon="14.6127983"><ele>134.5</ele><time>2026-04-26T10:30:42.887Z</time></trkpt><trkpt lat="42.1569133" lon="14.6126933"><ele>135.0</ele><time>2026-04-26T10:30:43.886Z</time></trkpt><trkpt lat="42.1568917" lon="14.6125883"><ele>135.5</ele><time>2026-04-26T10:30:44.887Z</time></trkpt><trkpt lat="42.156865" lon="14.612485"><ele>136.0</ele><time>2026-04-26T10:30:45.886Z</time></trkpt><trkpt lat="42.1568417" lon="14.6123783"><ele>136.5</ele><time>2026-04-26T10:30:46.886Z</time></trkpt><trkpt lat="42.15682" lon="14.61227"><ele>137.0</ele><time>2026-04-26T10:30:47.887Z</time></trkpt><trkpt lat="42.1568" lon="14.61216"><ele>137.0</ele><time>2026-04-26T10:30:48.887Z</time></trkpt><trkpt lat="42.1567817" lon="14.61205"><ele>137.0</ele><time>2026-04-26T10:30:49.886Z</time></trkpt><trkpt lat="42.1567517" lon="14.61194"><ele>137.0</ele><time>2026-04-26T10:30:50.887Z</time></trkpt><trkpt lat="42.1567267" lon="14.6118367"><ele>137.0</ele><time>2026-04-26T10:30:51.887Z</time></trkpt><trkpt lat="42.1567033" lon="14.611725"><ele>137.0</ele><time>2026-04-26T10:30:52.887Z</time></trkpt><trkpt lat="42.156675" lon="14.6116183"><ele>137.0</ele><time>2026-04-26T10:30:53.886Z</time></trkpt><trkpt lat="42.1566533" lon="14.611505"><ele>136.66666666666666</ele><time>2026-04-26T10:30:54.886Z</time></trkpt><trkpt lat="42.15663" lon="14.6114017"><ele>136.33333333333331</ele><time>2026-04-26T10:30:55.887Z</time></trkpt><trkpt lat="42.1566033" lon="14.6112883"><ele>136.0</ele><time>2026-04-26T10:30:56.886Z</time></trkpt><trkpt lat="42.15658" lon="14.61117"><ele>135.66666666666666</ele><time>2026-04-26T10:30:57.887Z</time></trkpt><trkpt lat="42.1565583" lon="14.6110533"><ele>135.33333333333334</ele><time>2026-04-26T10:30:58.887Z</time></trkpt><trkpt lat="42.1565283" lon="14.610945"><ele>135.0</ele><time>2026-04-26T10:30:59.887Z</time></trkpt><trkpt lat="42.1564967" lon="14.6108383"><ele>135.0</ele><time>2026-04-26T10:31:00.886Z</time></trkpt><trkpt lat="42.1564717" lon="14.6107233"><ele>135.0</ele><time>2026-04-26T10:31:01.886Z</time></trkpt><trkpt lat="42.1564483" lon="14.61061"><ele>135.0</ele><time>2026-04-26T10:31:02.886Z</time></trkpt><trkpt lat="42.1564233" lon="14.6105"><ele>135.0</ele><time>2026-04-26T10:31:03.887Z</time></trkpt><trkpt lat="42.1564" lon="14.6103867"><ele>135.0</ele><time>2026-04-26T10:31:04.887Z</time></trkpt><trkpt lat="42.156375" lon="14.610285"><ele>135.0</ele><time>2026-04-26T10:31:05.887Z</time></trkpt><trkpt lat="42.1563533" lon="14.61018"><ele>135.0</ele><time>2026-04-26T10:31:06.887Z</time></trkpt><trkpt lat="42.156335" lon="14.6100683"><ele>135.0</ele><time>2026-04-26T10:31:07.887Z</time></trkpt><trkpt lat="42.156315" lon="14.6099617"><ele>135.0</ele><time>2026-04-26T10:31:08.886Z</time></trkpt><trkpt lat="42.1562883" lon="14.6098567"><ele>135.0</ele><time>2026-04-26T10:31:09.887Z</time></trkpt><trkpt lat="42.1562617" lon="14.60975"><ele>135.0</ele><time>2026-04-26T10:31:10.887Z</time></trkpt><trkpt lat="42.1562333" lon="14.6096417"><ele>135.0</ele><time>2026-04-26T10:31:11.887Z</time></trkpt><trkpt lat="42.15621" lon="14.6095267"><ele>135.33333333333334</ele><time>2026-04-26T10:31:12.887Z</time></trkpt><trkpt lat="42.15619" lon="14.609405"><ele>135.66666666666666</ele><time>2026-04-26T10:31:13.887Z</time></trkpt><trkpt lat="42.1561617" lon="14.6092933"><ele>136.0</ele><time>2026-04-26T10:31:14.887Z</time></trkpt><trkpt lat="42.1561383" lon="14.6091783"><ele>136.33333333333331</ele><time>2026-04-26T10:31:15.886Z</time></trkpt><trkpt lat="42.156115" lon="14.609065"><ele>136.66666666666666</ele><time>2026-04-26T10:31:16.887Z</time></trkpt><trkpt lat="42.1560883" lon="14.608955"><ele>137.0</ele><time>2026-04-26T10:31:17.886Z</time></trkpt><trkpt lat="42.156065" lon="14.608845"><ele>137.0</ele><time>2026-04-26T10:31:18.887Z</time></trkpt><trkpt lat="42.1560383" lon="14.6087383"><ele>137.0</ele><time>2026-04-26T10:31:19.886Z</time></trkpt><trkpt lat="42.1560083" lon="14.608625"><ele>137.0</ele><time>2026-04-26T10:31:20.887Z</time></trkpt><trkpt lat="42.1559783" lon="14.60851"><ele>137.0</ele><time>2026-04-26T10:31:21.887Z</time></trkpt><trkpt lat="42.1559533" lon="14.6083967"><ele>137.0</ele><time>2026-04-26T10:31:22.887Z</time></trkpt><trkpt lat="42.1559317" lon="14.6082917"><ele>137.0</ele><time>2026-04-26T10:31:23.887Z</time></trkpt><trkpt lat="42.1559117" lon="14.6081833"><ele>137.0</ele><time>2026-04-26T10:31:24.887Z</time></trkpt><trkpt lat="42.1558883" lon="14.60807"><ele>137.0</ele><time>2026-04-26T10:31:25.886Z</time></trkpt><trkpt lat="42.155865" lon="14.607955"><ele>137.0</ele><time>2026-04-26T10:31:26.887Z</time></trkpt><trkpt lat="42.1558417" lon="14.607845"><ele>137.0</ele><time>2026-04-26T10:31:27.887Z</time></trkpt><trkpt lat="42.15581" lon="14.6077417"><ele>137.0</ele><time>2026-04-26T10:31:28.887Z</time></trkpt><trkpt lat="42.1557817" lon="14.6076283"><ele>137.0</ele><time>2026-04-26T10:31:29.887Z</time></trkpt><trkpt lat="42.1557567" lon="14.6075133"><ele>136.83333333333331</ele><time>2026-04-26T10:31:30.887Z</time></trkpt><trkpt lat="42.1557383" lon="14.6074033"><ele>136.66666666666666</ele><time>2026-04-26T10:31:31.887Z</time></trkpt><trkpt lat="42.155715" lon="14.60729"><ele>136.5</ele><time>2026-04-26T10:31:32.887Z</time></trkpt><trkpt lat="42.15569" lon="14.6071767"><ele>136.33333333333334</ele><time>2026-04-26T10:31:33.887Z</time></trkpt><trkpt lat="42.1556683" lon="14.6070667"><ele>136.16666666666669</ele><time>2026-04-26T10:31:34.887Z</time></trkpt><trkpt lat="42.1556433" lon="14.6069583"><ele>136.0</ele><time>2026-04-26T10:31:35.886Z</time></trkpt><trkpt lat="42.1556167" lon="14.60685"><ele>136.5</ele><time>2026-04-26T10:31:36.886Z</time></trkpt><trkpt lat="42.1555933" lon="14.6067333"><ele>137.0</ele><time>2026-04-26T10:31:37.887Z</time></trkpt><trkpt lat="42.1555717" lon="14.60662"><ele>137.5</ele><time>2026-04-26T10:31:38.886Z</time></trkpt><trkpt lat="42.1555483" lon="14.6065067"><ele>138.0</ele><time>2026-04-26T10:31:39.886Z</time></trkpt><trkpt lat="42.15552" lon="14.606395"><ele>138.5</ele><time>2026-04-26T10:31:40.886Z</time></trkpt><trkpt lat="42.155495" lon="14.60628"><ele>139.0</ele><time>2026-04-26T10:31:41.886Z</time></trkpt><trkpt lat="42.155465" lon="14.606175"><ele>139.16666666666669</ele><time>2026-04-26T10:31:42.886Z</time></trkpt><trkpt lat="42.1554433" lon="14.60606"><ele>139.33333333333334</ele><time>2026-04-26T10:31:43.887Z</time></trkpt><trkpt lat="42.1554183" lon="14.6059417"><ele>139.5</ele><time>2026-04-26T10:31:44.887Z</time></trkpt><trkpt lat="42.1553933" lon="14.6058333"><ele>139.66666666666666</ele><time>2026-04-26T10:31:45.887Z</time></trkpt><trkpt lat="42.15537" lon="14.6057183"><ele>139.83333333333331</ele><time>2026-04-26T10:31:46.887Z</time></trkpt><trkpt lat="42.155345" lon="14.6056067"><ele>140.0</ele><time>2026-04-26T10:31:47.887Z</time></trkpt><trkpt lat="42.15532" lon="14.60549"><ele>140.0</ele><time>2026-04-26T10:31:48.887Z</time></trkpt><trkpt lat="42.1552967" lon="14.6053767"><ele>140.0</ele><time>2026-04-26T10:31:49.887Z</time></trkpt><trkpt lat="42.155275" lon="14.6052633"><ele>140.0</ele><time>2026-04-26T10:31:50.887Z</time></trkpt><trkpt lat="42.15524" lon="14.605155"><ele>140.0</ele><time>2026-04-26T10:31:51.887Z</time></trkpt><trkpt lat="42.1552117" lon="14.6050467"><ele>140.0</ele><time>2026-04-26T10:31:52.886Z</time></trkpt><trkpt lat="42.1551883" lon="14.6049367"><ele>140.0</ele><time>2026-04-26T10:31:53.886Z</time></trkpt><trkpt lat="42.1551667" lon="14.6048233"><ele>140.16666666666666</ele><time>2026-04-26T10:31:54.886Z</time></trkpt><trkpt lat="42.155145" lon="14.60471"><ele>140.33333333333331</ele><time>2026-04-26T10:31:55.886Z</time></trkpt><trkpt lat="42.1551217" lon="14.6045983"><ele>140.5</ele><time>2026-04-26T10:31:56.887Z</time></trkpt><trkpt lat="42.1551017" lon="14.6044867"><ele>140.66666666666666</ele><time>2026-04-26T10:31:57.886Z</time></trkpt><trkpt lat="42.155075" lon="14.604375"><ele>140.83333333333334</ele><time>2026-04-26T10:31:58.887Z</time></trkpt><trkpt lat="42.1550517" lon="14.604255"><ele>141.0</ele><time>2026-04-26T10:31:59.887Z</time></trkpt><trkpt lat="42.15503" lon="14.6041467"><ele>141.16666666666666</ele><time>2026-04-26T10:32:00.887Z</time></trkpt><trkpt lat="42.1550033" lon="14.6040367"><ele>141.33333333333334</ele><time>2026-04-26T10:32:01.887Z</time></trkpt><trkpt lat="42.1549717" lon="14.6039317"><ele>141.5</ele><time>2026-04-26T10:32:02.887Z</time></trkpt><trkpt lat="42.15495" lon="14.6038183"><ele>141.66666666666669</ele><time>2026-04-26T10:32:03.887Z</time></trkpt><trkpt lat="42.154925" lon="14.6037033"><ele>141.83333333333334</ele><time>2026-04-26T10:32:04.887Z</time></trkpt><trkpt lat="42.1549" lon="14.60359"><ele>142.0</ele><time>2026-04-26T10:32:05.886Z</time></trkpt><trkpt lat="42.154875" lon="14.6034767"><ele>142.66666666666669</ele><time>2026-04-26T10:32:06.887Z</time></trkpt><trkpt lat="42.154855" lon="14.603365"><ele>143.33333333333334</ele><time>2026-04-26T10:32:07.886Z</time></trkpt><trkpt lat="42.1548317" lon="14.60325"><ele>144.0</ele><time>2026-04-26T10:32:08.887Z</time></trkpt><trkpt lat="42.1548067" lon="14.60314"><ele>144.66666666666666</ele><time>2026-04-26T10:32:09.887Z</time></trkpt><trkpt lat="42.1547817" lon="14.60303"><ele>145.33333333333331</ele><time>2026-04-26T10:32:10.887Z</time></trkpt><trkpt lat="42.1547533" lon="14.60293"><ele>146.0</ele><time>2026-04-26T10:32:11.887Z</time></trkpt><trkpt lat="42.1547317" lon="14.602825"><ele>146.0</ele><time>2026-04-26T10:32:12.887Z</time></trkpt><trkpt lat="42.154705" lon="14.602715"><ele>146.0</ele><time>2026-04-26T10:32:13.887Z</time></trkpt><trkpt lat="42.154675" lon="14.6026033"><ele>146.0</ele><time>2026-04-26T10:32:14.887Z</time></trkpt><trkpt lat="42.15465" lon="14.60249"><ele>146.0</ele><time>2026-04-26T10:32:15.887Z</time></trkpt><trkpt lat="42.154625" lon="14.60238"><ele>146.0</ele><time>2026-04-26T10:32:16.887Z</time></trkpt><trkpt lat="42.1546" lon="14.6022733"><ele>146.0</ele><time>2026-04-26T10:32:17.886Z</time></trkpt><trkpt lat="42.1545767" lon="14.6021583"><ele>146.0</ele><time>2026-04-26T10:32:18.887Z</time></trkpt><trkpt lat="42.154555" lon="14.6020483"><ele>146.0</ele><time>2026-04-26T10:32:19.887Z</time></trkpt><trkpt lat="42.15453" lon="14.6019383"><ele>146.0</ele><time>2026-04-26T10:32:20.887Z</time></trkpt><trkpt lat="42.1545033" lon="14.60183"><ele>146.0</ele><time>2026-04-26T10:32:21.887Z</time></trkpt><trkpt lat="42.1544717" lon="14.6017233"><ele>146.0</ele><time>2026-04-26T10:32:22.887Z</time></trkpt><trkpt lat="42.154445" lon="14.601615"><ele>146.0</ele><time>2026-04-26T10:32:23.887Z</time></trkpt><trkpt lat="42.15442" lon="14.6015017"><ele>146.16666666666666</ele><time>2026-04-26T10:32:24.887Z</time></trkpt><trkpt lat="42.1543967" lon="14.6013883"><ele>146.33333333333331</ele><time>2026-04-26T10:32:25.887Z</time></trkpt><trkpt lat="42.1543767" lon="14.6012867"><ele>146.5</ele><time>2026-04-26T10:32:26.886Z</time></trkpt><trkpt lat="42.1543567" lon="14.6011817"><ele>146.66666666666666</ele><time>2026-04-26T10:32:27.887Z</time></trkpt><trkpt lat="42.15433" lon="14.60107"><ele>146.83333333333334</ele><time>2026-04-26T10:32:28.886Z</time></trkpt><trkpt lat="42.154305" lon="14.6009617"><ele>147.0</ele><time>2026-04-26T10:32:29.886Z</time></trkpt><trkpt lat="42.1542833" lon="14.6008533"><ele>147.16666666666666</ele><time>2026-04-26T10:32:30.887Z</time></trkpt><trkpt lat="42.15426" lon="14.6007433"><ele>147.33333333333334</ele><time>2026-04-26T10:32:31.886Z</time></trkpt><trkpt lat="42.154235" lon="14.6006283"><ele>147.5</ele><time>2026-04-26T10:32:32.887Z</time></trkpt><trkpt lat="42.1542117" lon="14.6005183"><ele>147.66666666666669</ele><time>2026-04-26T10:32:33.887Z</time></trkpt><trkpt lat="42.1541917" lon="14.6004117"><ele>147.83333333333334</ele><time>2026-04-26T10:32:34.886Z</time></trkpt><trkpt lat="42.154165" lon="14.6003033"><ele>148.0</ele><time>2026-04-26T10:32:35.887Z</time></trkpt><trkpt lat="42.15413" lon="14.60019"><ele>148.0</ele><time>2026-04-26T10:32:36.887Z</time></trkpt><trkpt lat="42.1541083" lon="14.60008"><ele>148.0</ele><time>2026-04-26T10:32:37.887Z</time></trkpt><trkpt lat="42.1540817" lon="14.5999733"><ele>148.0</ele><time>2026-04-26T10:32:38.887Z</time></trkpt><trkpt lat="42.1540633" lon="14.5998717"><ele>148.0</ele><time>2026-04-26T10:32:39.887Z</time></trkpt><trkpt lat="42.15404" lon="14.5997617"><ele>148.0</ele><time>2026-04-26T10:32:40.887Z</time></trkpt><trkpt lat="42.1540183" lon="14.599655"><ele>148.0</ele><time>2026-04-26T10:32:41.887Z</time></trkpt><trkpt lat="42.15399" lon="14.5995417"><ele>148.66666666666669</ele><time>2026-04-26T10:32:42.886Z</time></trkpt><trkpt lat="42.1539667" lon="14.5994333"><ele>149.33333333333334</ele><time>2026-04-26T10:32:43.887Z</time></trkpt><trkpt lat="42.1539383" lon="14.5993233"><ele>150.0</ele><time>2026-04-26T10:32:44.887Z</time></trkpt><trkpt lat="42.153915" lon="14.5992133"><ele>150.66666666666666</ele><time>2026-04-26T10:32:45.886Z</time></trkpt><trkpt lat="42.153895" lon="14.5991083"><ele>151.33333333333331</ele><time>2026-04-26T10:32:46.887Z</time></trkpt><trkpt lat="42.1538717" lon="14.5989967"><ele>152.0</ele><time>2026-04-26T10:32:47.887Z</time></trkpt><trkpt lat="42.1538417" lon="14.5988933"><ele>152.0</ele><time>2026-04-26T10:32:48.887Z</time></trkpt><trkpt lat="42.153815" lon="14.5987833"><ele>152.0</ele><time>2026-04-26T10:32:49.887Z</time></trkpt><trkpt lat="42.1537933" lon="14.5986767"><ele>152.0</ele><time>2026-04-26T10:32:50.887Z</time></trkpt><trkpt lat="42.153775" lon="14.5985683"><ele>152.0</ele><time>2026-04-26T10:32:51.886Z</time></trkpt><trkpt lat="42.1537533" lon="14.5984567"><ele>152.0</ele><time>2026-04-26T10:32:52.887Z</time></trkpt><trkpt lat="42.1537317" lon="14.5983467"><ele>152.0</ele><time>2026-04-26T10:32:53.887Z</time></trkpt><trkpt lat="42.1537083" lon="14.59824"><ele>152.33333333333331</ele><time>2026-04-26T10:32:54.886Z</time></trkpt><trkpt lat="42.1536867" lon="14.59813"><ele>152.66666666666666</ele><time>2026-04-26T10:32:55.887Z</time></trkpt><trkpt lat="42.1536567" lon="14.5980217"><ele>153.0</ele><time>2026-04-26T10:32:56.886Z</time></trkpt><trkpt lat="42.1536333" lon="14.5979183"><ele>153.33333333333334</ele><time>2026-04-26T10:32:57.887Z</time></trkpt><trkpt lat="42.153605" lon="14.597805"><ele>153.66666666666669</ele><time>2026-04-26T10:32:58.887Z</time></trkpt><trkpt lat="42.1535867" lon="14.597695"><ele>154.0</ele><time>2026-04-26T10:32:59.887Z</time></trkpt><trkpt lat="42.1535633" lon="14.59759"><ele>154.0</ele><time>2026-04-26T10:33:00.886Z</time></trkpt><trkpt lat="42.1535417" lon="14.5974917"><ele>154.0</ele><time>2026-04-26T10:33:01.886Z</time></trkpt><trkpt lat="42.15352" lon="14.5973883"><ele>154.0</ele><time>2026-04-26T10:33:02.886Z</time></trkpt><trkpt lat="42.1534983" lon="14.5972783"><ele>154.0</ele><time>2026-04-26T10:33:03.886Z</time></trkpt><trkpt lat="42.1534783" lon="14.5971667"><ele>154.0</ele><time>2026-04-26T10:33:04.887Z</time></trkpt><trkpt lat="42.1534517" lon="14.5970583"><ele>154.0</ele><time>2026-04-26T10:33:05.887Z</time></trkpt><trkpt lat="42.15343" lon="14.5969567"><ele>154.0</ele><time>2026-04-26T10:33:06.886Z</time></trkpt><trkpt lat="42.1534" lon="14.596845"><ele>154.0</ele><time>2026-04-26T10:33:07.887Z</time></trkpt><trkpt lat="42.1533783" lon="14.5967367"><ele>154.0</ele><time>2026-04-26T10:33:08.887Z</time></trkpt><trkpt lat="42.1533583" lon="14.596625"><ele>154.0</ele><time>2026-04-26T10:33:09.886Z</time></trkpt><trkpt lat="42.1533333" lon="14.5965133"><ele>154.0</ele><time>2026-04-26T10:33:10.887Z</time></trkpt><trkpt lat="42.1533017" lon="14.596405"><ele>154.0</ele><time>2026-04-26T10:33:11.887Z</time></trkpt><trkpt lat="42.1532767" lon="14.5962933"><ele>154.0</ele><time>2026-04-26T10:33:12.886Z</time></trkpt><trkpt lat="42.1532483" lon="14.5961767"><ele>154.0</ele><time>2026-04-26T10:33:13.886Z</time></trkpt><trkpt lat="42.1532217" lon="14.5960617"><ele>154.0</ele><time>2026-04-26T10:33:14.887Z</time></trkpt><trkpt lat="42.1532" lon="14.5959517"><ele>154.0</ele><time>2026-04-26T10:33:15.887Z</time></trkpt><trkpt lat="42.153175" lon="14.595845"><ele>154.0</ele><time>2026-04-26T10:33:16.887Z</time></trkpt><trkpt lat="42.15315" lon="14.5957417"><ele>154.0</ele><time>2026-04-26T10:33:17.887Z</time></trkpt><trkpt lat="42.1531267" lon="14.5956417"><ele>154.14285714285714</ele><time>2026-04-26T10:33:18.887Z</time></trkpt><trkpt lat="42.1531" lon="14.5955483"><ele>154.28571428571428</ele><time>2026-04-26T10:33:19.887Z</time></trkpt><trkpt lat="42.153075" lon="14.5954517"><ele>154.42857142857144</ele><time>2026-04-26T10:33:20.886Z</time></trkpt><trkpt lat="42.1530533" lon="14.5953467"><ele>154.57142857142856</ele><time>2026-04-26T10:33:21.887Z</time></trkpt><trkpt lat="42.15304" lon="14.595255"><ele>154.71428571428572</ele><time>2026-04-26T10:33:22.887Z</time></trkpt><trkpt lat="42.1530267" lon="14.5951617"><ele>154.85714285714286</ele><time>2026-04-26T10:33:23.886Z</time></trkpt><trkpt lat="42.153005" lon="14.5950617"><ele>155.0</ele><time>2026-04-26T10:33:24.886Z</time></trkpt><trkpt lat="42.1529833" lon="14.5949683"><ele>155.33333333333331</ele><time>2026-04-26T10:33:25.887Z</time></trkpt><trkpt lat="42.1529633" lon="14.5948633"><ele>155.66666666666666</ele><time>2026-04-26T10:33:26.887Z</time></trkpt><trkpt lat="42.15294" lon="14.59477"><ele>156.0</ele><time>2026-04-26T10:33:27.886Z</time></trkpt><trkpt lat="42.15292" lon="14.5946767"><ele>156.33333333333334</ele><time>2026-04-26T10:33:28.887Z</time></trkpt><trkpt lat="42.1528933" lon="14.5945817"><ele>156.66666666666669</ele><time>2026-04-26T10:33:29.887Z</time></trkpt><trkpt lat="42.1528717" lon="14.5944783"><ele>157.0</ele><time>2026-04-26T10:33:30.886Z</time></trkpt><trkpt lat="42.152855" lon="14.5943817"><ele>157.14285714285714</ele><time>2026-04-26T10:33:31.887Z</time></trkpt><trkpt lat="42.1528317" lon="14.5942883"><ele>157.28571428571428</ele><time>2026-04-26T10:33:32.886Z</time></trkpt><trkpt lat="42.15281" lon="14.594195"><ele>157.42857142857144</ele><time>2026-04-26T10:33:33.887Z</time></trkpt><trkpt lat="42.1527933" lon="14.5940983"><ele>157.57142857142856</ele><time>2026-04-26T10:33:34.887Z</time></trkpt><trkpt lat="42.152775" lon="14.594"><ele>157.71428571428572</ele><time>2026-04-26T10:33:35.886Z</time></trkpt><trkpt lat="42.1527583" lon="14.59391"><ele>157.85714285714286</ele><time>2026-04-26T10:33:36.886Z</time></trkpt><trkpt lat="42.15274" lon="14.5938117"><ele>158.0</ele><time>2026-04-26T10:33:37.886Z</time></trkpt><trkpt lat="42.1527183" lon="14.59372"><ele>158.66666666666666</ele><time>2026-04-26T10:33:38.887Z</time></trkpt><trkpt lat="42.1526983" lon="14.5936317"><ele>159.33333333333331</ele><time>2026-04-26T10:33:39.887Z</time></trkpt><trkpt lat="42.152665" lon="14.5934617"><ele>160.0</ele><time>2026-04-26T10:33:41.887Z</time></trkpt><trkpt lat="42.1526467" lon="14.5933733"><ele>160.66666666666666</ele><time>2026-04-26T10:33:42.886Z</time></trkpt><trkpt lat="42.1526217" lon="14.5932817"><ele>161.33333333333334</ele><time>2026-04-26T10:33:43.887Z</time></trkpt><trkpt lat="42.152605" lon="14.593195"><ele>162.0</ele><time>2026-04-26T10:33:44.887Z</time></trkpt><trkpt lat="42.152585" lon="14.5931083"><ele>162.0</ele><time>2026-04-26T10:33:45.887Z</time></trkpt><trkpt lat="42.1525567" lon="14.5930217"><ele>162.0</ele><time>2026-04-26T10:33:46.887Z</time></trkpt><trkpt lat="42.1525367" lon="14.592935"><ele>162.0</ele><time>2026-04-26T10:33:47.887Z</time></trkpt><trkpt lat="42.152515" lon="14.5928517"><ele>162.0</ele><time>2026-04-26T10:33:48.887Z</time></trkpt><trkpt lat="42.1524967" lon="14.5927683"><ele>162.0</ele><time>2026-04-26T10:33:49.887Z</time></trkpt><trkpt lat="42.1524767" lon="14.5926783"><ele>162.0</ele><time>2026-04-26T10:33:50.886Z</time></trkpt><trkpt lat="42.1524567" lon="14.592595"><ele>162.0</ele><time>2026-04-26T10:33:51.887Z</time></trkpt><trkpt lat="42.1524417" lon="14.59251"><ele>162.0</ele><time>2026-04-26T10:33:52.887Z</time></trkpt><trkpt lat="42.1524283" lon="14.5924267"><ele>162.0</ele><time>2026-04-26T10:33:53.886Z</time></trkpt><trkpt lat="42.15239" lon="14.592255"><ele>162.0</ele><time>2026-04-26T10:33:55.887Z</time></trkpt><trkpt lat="42.15237" lon="14.5921733"><ele>162.0</ele><time>2026-04-26T10:33:56.887Z</time></trkpt><trkpt lat="42.152345" lon="14.5920917"><ele>162.0</ele><time>2026-04-26T10:33:57.886Z</time></trkpt><trkpt lat="42.15231" lon="14.5919483"><ele>162.0</ele><time>2026-04-26T10:33:59.887Z</time></trkpt><trkpt lat="42.1522833" lon="14.59182"><ele>162.33333333333334</ele><time>2026-04-26T10:34:01.886Z</time></trkpt><trkpt lat="42.1522567" lon="14.59167"><ele>162.66666666666666</ele><time>2026-04-26T10:34:03.887Z</time></trkpt><trkpt lat="42.15225" lon="14.5915017"><ele>163.0</ele><time>2026-04-26T10:34:05.886Z</time></trkpt><trkpt lat="42.1522467" lon="14.5914133"><ele>163.33333333333331</ele><time>2026-04-26T10:34:06.886Z</time></trkpt><trkpt lat="42.1522367" lon="14.5913267"><ele>163.66666666666666</ele><time>2026-04-26T10:34:07.887Z</time></trkpt><trkpt lat="42.1522117" lon="14.5912367"><ele>164.0</ele><time>2026-04-26T10:34:08.887Z</time></trkpt><trkpt lat="42.1521783" lon="14.5911567"><ele>164.42857142857142</ele><time>2026-04-26T10:34:09.887Z</time></trkpt><trkpt lat="42.1521433" lon="14.591085"><ele>164.85714285714286</ele><time>2026-04-26T10:34:10.887Z</time></trkpt><trkpt lat="42.1521083" lon="14.5910117"><ele>165.28571428571428</ele><time>2026-04-26T10:34:11.886Z</time></trkpt><trkpt lat="42.1520733" lon="14.5909333"><ele>165.71428571428572</ele><time>2026-04-26T10:34:12.887Z</time></trkpt><trkpt lat="42.1520383" lon="14.5908517"><ele>166.14285714285714</ele><time>2026-04-26T10:34:13.887Z</time></trkpt><trkpt lat="42.15201" lon="14.5907683"><ele>166.57142857142856</ele><time>2026-04-26T10:34:14.887Z</time></trkpt><trkpt lat="42.151985" lon="14.5906867"><ele>167.0</ele><time>2026-04-26T10:34:15.887Z</time></trkpt><trkpt lat="42.1519567" lon="14.5906083"><ele>167.0</ele><time>2026-04-26T10:34:16.887Z</time></trkpt><trkpt lat="42.151905" lon="14.59045"><ele>167.0</ele><time>2026-04-26T10:34:18.887Z</time></trkpt><trkpt lat="42.1518817" lon="14.5903667"><ele>167.0</ele><time>2026-04-26T10:34:19.887Z</time></trkpt><trkpt lat="42.15186" lon="14.5902867"><ele>167.0</ele><time>2026-04-26T10:34:20.887Z</time></trkpt><trkpt lat="42.1518383" lon="14.5902"><ele>167.0</ele><time>2026-04-26T10:34:21.886Z</time></trkpt><trkpt lat="42.1517883" lon="14.59005"><ele>167.0</ele><time>2026-04-26T10:34:23.886Z</time></trkpt><trkpt lat="42.1517717" lon="14.5899633"><ele>167.42857142857142</ele><time>2026-04-26T10:34:24.886Z</time></trkpt><trkpt lat="42.1517533" lon="14.58988"><ele>167.85714285714286</ele><time>2026-04-26T10:34:25.886Z</time></trkpt><trkpt lat="42.1517283" lon="14.5897967"><ele>168.28571428571428</ele><time>2026-04-26T10:34:26.887Z</time></trkpt><trkpt lat="42.1516933" lon="14.58972"><ele>168.71428571428572</ele><time>2026-04-26T10:34:27.887Z</time></trkpt><trkpt lat="42.151665" lon="14.58964"><ele>169.14285714285714</ele><time>2026-04-26T10:34:28.887Z</time></trkpt><trkpt lat="42.1516367" lon="14.5895533"><ele>169.57142857142858</ele><time>2026-04-26T10:34:29.887Z</time></trkpt><trkpt lat="42.1516067" lon="14.5894617"><ele>170.0</ele><time>2026-04-26T10:34:30.887Z</time></trkpt><trkpt lat="42.15158" lon="14.5893717"><ele>170.2857142857143</ele><time>2026-04-26T10:34:31.887Z</time></trkpt><trkpt lat="42.1515583" lon="14.5892833"><ele>170.57142857142856</ele><time>2026-04-26T10:34:32.887Z</time></trkpt><trkpt lat="42.1515433" lon="14.5891933"><ele>170.85714285714286</ele><time>2026-04-26T10:34:33.886Z</time></trkpt><trkpt lat="42.1515167" lon="14.5891117"><ele>171.14285714285717</ele><time>2026-04-26T10:34:34.887Z</time></trkpt><trkpt lat="42.1514933" lon="14.589025"><ele>171.42857142857144</ele><time>2026-04-26T10:34:35.887Z</time></trkpt><trkpt lat="42.15147" lon="14.58894"><ele>171.71428571428572</ele><time>2026-04-26T10:34:36.887Z</time></trkpt><trkpt lat="42.1514433" lon="14.5888617"><ele>172.0</ele><time>2026-04-26T10:34:37.887Z</time></trkpt><trkpt lat="42.1514267" lon="14.58877"><ele>172.14285714285717</ele><time>2026-04-26T10:34:38.887Z</time></trkpt><trkpt lat="42.1514033" lon="14.58868"><ele>172.28571428571428</ele><time>2026-04-26T10:34:39.887Z</time></trkpt><trkpt lat="42.1513817" lon="14.5885933"><ele>172.42857142857144</ele><time>2026-04-26T10:34:40.886Z</time></trkpt><trkpt lat="42.1513567" lon="14.5885017"><ele>172.57142857142858</ele><time>2026-04-26T10:34:41.886Z</time></trkpt><trkpt lat="42.1513333" lon="14.5884133"><ele>172.71428571428572</ele><time>2026-04-26T10:34:42.887Z</time></trkpt><trkpt lat="42.15131" lon="14.58833"><ele>172.85714285714286</ele><time>2026-04-26T10:34:43.887Z</time></trkpt><trkpt lat="42.1512867" lon="14.5882433"><ele>173.0</ele><time>2026-04-26T10:34:44.887Z</time></trkpt><trkpt lat="42.1512633" lon="14.5881617"><ele>173.57142857142856</ele><time>2026-04-26T10:34:45.887Z</time></trkpt><trkpt lat="42.1512433" lon="14.58808"><ele>174.14285714285717</ele><time>2026-04-26T10:34:46.886Z</time></trkpt><trkpt lat="42.1512217" lon="14.5879933"><ele>174.71428571428572</ele><time>2026-04-26T10:34:47.886Z</time></trkpt><trkpt lat="42.1511967" lon="14.5879083"><ele>175.28571428571428</ele><time>2026-04-26T10:34:48.886Z</time></trkpt><trkpt lat="42.1511717" lon="14.5878233"><ele>175.85714285714283</ele><time>2026-04-26T10:34:49.886Z</time></trkpt><trkpt lat="42.151145" lon="14.5877383"><ele>176.42857142857144</ele><time>2026-04-26T10:34:50.887Z</time></trkpt><trkpt lat="42.15112" lon="14.5876533"><ele>177.0</ele><time>2026-04-26T10:34:51.887Z</time></trkpt><trkpt lat="42.1510933" lon="14.5875683"><ele>177.57142857142858</ele><time>2026-04-26T10:34:52.886Z</time></trkpt><trkpt lat="42.15107" lon="14.5874867"><ele>178.14285714285714</ele><time>2026-04-26T10:34:53.887Z</time></trkpt><trkpt lat="42.1510433" lon="14.5874083"><ele>178.71428571428572</ele><time>2026-04-26T10:34:54.887Z</time></trkpt><trkpt lat="42.151015" lon="14.5873217"><ele>179.28571428571428</ele><time>2026-04-26T10:34:55.887Z</time></trkpt><trkpt lat="42.150995" lon="14.58723"><ele>179.85714285714283</ele><time>2026-04-26T10:34:56.886Z</time></trkpt><trkpt lat="42.1509717" lon="14.587145"><ele>180.42857142857142</ele><time>2026-04-26T10:34:57.887Z</time></trkpt><trkpt lat="42.1509417" lon="14.587065"><ele>181.0</ele><time>2026-04-26T10:34:58.887Z</time></trkpt><trkpt lat="42.1508917" lon="14.5869067"><ele>181.42857142857142</ele><time>2026-04-26T10:35:00.886Z</time></trkpt><trkpt lat="42.1508667" lon="14.5868233"><ele>181.85714285714283</ele><time>2026-04-26T10:35:01.887Z</time></trkpt><trkpt lat="42.1508417" lon="14.5867383"><ele>182.28571428571428</ele><time>2026-04-26T10:35:02.887Z</time></trkpt><trkpt lat="42.150815" lon="14.5866517"><ele>182.71428571428572</ele><time>2026-04-26T10:35:03.887Z</time></trkpt><trkpt lat="42.1507783" lon="14.586575"><ele>183.14285714285714</ele><time>2026-04-26T10:35:04.887Z</time></trkpt><trkpt lat="42.150735" lon="14.5865017"><ele>183.57142857142858</ele><time>2026-04-26T10:35:05.887Z</time></trkpt><trkpt lat="42.150685" lon="14.5864383"><ele>184.0</ele><time>2026-04-26T10:35:06.887Z</time></trkpt><trkpt lat="42.1506333" lon="14.586385"><ele>184.5</ele><time>2026-04-26T10:35:07.887Z</time></trkpt><trkpt lat="42.15052" lon="14.58631"><ele>185.0</ele><time>2026-04-26T10:35:09.886Z</time></trkpt><trkpt lat="42.1504567" lon="14.586285"><ele>185.5</ele><time>2026-04-26T10:35:10.887Z</time></trkpt><trkpt lat="42.15039" lon="14.5862633"><ele>186.0</ele><time>2026-04-26T10:35:11.886Z</time></trkpt><trkpt lat="42.1503217" lon="14.5862417"><ele>186.5</ele><time>2026-04-26T10:35:12.887Z</time></trkpt><trkpt lat="42.1502517" lon="14.58622"><ele>187.0</ele><time>2026-04-26T10:35:13.887Z</time></trkpt><trkpt lat="42.1501783" lon="14.5862"><ele>187.0</ele><time>2026-04-26T10:35:14.887Z</time></trkpt><trkpt lat="42.1501117" lon="14.5861817"><ele>187.0</ele><time>2026-04-26T10:35:15.887Z</time></trkpt><trkpt lat="42.1500483" lon="14.5861733"><ele>187.0</ele><time>2026-04-26T10:35:16.886Z</time></trkpt><trkpt lat="42.1499367" lon="14.5861517"><ele>187.0</ele><time>2026-04-26T10:35:18.887Z</time></trkpt><trkpt lat="42.149815" lon="14.5861233"><ele>187.0</ele><time>2026-04-26T10:35:20.887Z</time></trkpt><trkpt lat="42.1497483" lon="14.5860867"><ele>187.0</ele><time>2026-04-26T10:35:21.887Z</time></trkpt><trkpt lat="42.149695" lon="14.58604"><ele>187.85714285714286</ele><time>2026-04-26T10:35:22.887Z</time></trkpt><trkpt lat="42.1496417" lon="14.58599"><ele>188.71428571428572</ele><time>2026-04-26T10:35:23.887Z</time></trkpt><trkpt lat="42.1495883" lon="14.5859383"><ele>189.57142857142858</ele><time>2026-04-26T10:35:24.887Z</time></trkpt><trkpt lat="42.1495383" lon="14.585885"><ele>190.42857142857144</ele><time>2026-04-26T10:35:25.886Z</time></trkpt><trkpt lat="42.1495" lon="14.5858167"><ele>191.28571428571428</ele><time>2026-04-26T10:35:26.887Z</time></trkpt><trkpt lat="42.1494533" lon="14.5857517"><ele>192.14285714285717</ele><time>2026-04-26T10:35:27.887Z</time></trkpt><trkpt lat="42.1493667" lon="14.5856317"><ele>193.0</ele><time>2026-04-26T10:35:29.887Z</time></trkpt><trkpt lat="42.1493217" lon="14.5855617"><ele>193.00000000000003</ele><time>2026-04-26T10:35:30.887Z</time></trkpt><trkpt lat="42.14926" lon="14.585505"><ele>193.0</ele><time>2026-04-26T10:35:31.886Z</time></trkpt><trkpt lat="42.149205" lon="14.5854367"><ele>193.0</ele><time>2026-04-26T10:35:32.887Z</time></trkpt><trkpt lat="42.149155" lon="14.5853733"><ele>193.0</ele><time>2026-04-26T10:35:33.887Z</time></trkpt><trkpt lat="42.149115" lon="14.5852933"><ele>193.0</ele><time>2026-04-26T10:35:34.887Z</time></trkpt><trkpt lat="42.14908" lon="14.5852133"><ele>193.00000000000003</ele><time>2026-04-26T10:35:35.887Z</time></trkpt><trkpt lat="42.149055" lon="14.5851283"><ele>193.0</ele><time>2026-04-26T10:35:36.886Z</time></trkpt><trkpt lat="42.14905" lon="14.58504"><ele>193.16666666666666</ele><time>2026-04-26T10:35:37.887Z</time></trkpt><trkpt lat="42.1491033" lon="14.58489"><ele>193.33333333333331</ele><time>2026-04-26T10:35:39.887Z</time></trkpt><trkpt lat="42.1491367" lon="14.5847967"><ele>193.5</ele><time>2026-04-26T10:35:40.887Z</time></trkpt><trkpt lat="42.1491617" lon="14.5847"><ele>193.66666666666669</ele><time>2026-04-26T10:35:41.887Z</time></trkpt><trkpt lat="42.14919" lon="14.5846083"><ele>193.83333333333334</ele><time>2026-04-26T10:35:42.886Z</time></trkpt><trkpt lat="42.1492117" lon="14.5845167"><ele>194.0</ele><time>2026-04-26T10:35:43.887Z</time></trkpt><trkpt lat="42.1492367" lon="14.5844333"><ele>194.0</ele><time>2026-04-26T10:35:44.886Z</time></trkpt><trkpt lat="42.1492533" lon="14.58434"><ele>194.0</ele><time>2026-04-26T10:35:45.887Z</time></trkpt><trkpt lat="42.1492667" lon="14.58424"><ele>194.0</ele><time>2026-04-26T10:35:46.887Z</time></trkpt><trkpt lat="42.1492717" lon="14.58414"><ele>194.0</ele><time>2026-04-26T10:35:47.887Z</time></trkpt><trkpt lat="42.14928" lon="14.5840367"><ele>194.0</ele><time>2026-04-26T10:35:48.887Z</time></trkpt><trkpt lat="42.1492933" lon="14.5839417"><ele>194.0</ele><time>2026-04-26T10:35:49.887Z</time></trkpt><trkpt lat="42.1492967" lon="14.5838483"><ele>194.0</ele><time>2026-04-26T10:35:50.886Z</time></trkpt><trkpt lat="42.149305" lon="14.5837517"><ele>194.00000000000003</ele><time>2026-04-26T10:35:51.887Z</time></trkpt><trkpt lat="42.14931" lon="14.5836617"><ele>194.0</ele><time>2026-04-26T10:35:52.887Z</time></trkpt><trkpt lat="42.1493117" lon="14.583565"><ele>194.0</ele><time>2026-04-26T10:35:53.887Z</time></trkpt><trkpt lat="42.1493283" lon="14.5834733"><ele>194.0</ele><time>2026-04-26T10:35:54.886Z</time></trkpt><trkpt lat="42.1493433" lon="14.58338"><ele>194.00000000000003</ele><time>2026-04-26T10:35:55.886Z</time></trkpt><trkpt lat="42.149355" lon="14.5832883"><ele>194.0</ele><time>2026-04-26T10:35:56.887Z</time></trkpt><trkpt lat="42.1493983" lon="14.583125"><ele>194.0</ele><time>2026-04-26T10:35:58.886Z</time></trkpt><trkpt lat="42.1494167" lon="14.583025"><ele>194.0</ele><time>2026-04-26T10:35:59.886Z</time></trkpt><trkpt lat="42.149435" lon="14.5829283"><ele>194.0</ele><time>2026-04-26T10:36:00.886Z</time></trkpt><trkpt lat="42.1494483" lon="14.5828317"><ele>194.0</ele><time>2026-04-26T10:36:01.887Z</time></trkpt><trkpt lat="42.1494483" lon="14.5827367"><ele>194.0</ele><time>2026-04-26T10:36:02.886Z</time></trkpt><trkpt lat="42.14945" lon="14.5826483"><ele>194.0</ele><time>2026-04-26T10:36:03.887Z</time></trkpt><trkpt lat="42.1494617" lon="14.58256"><ele>194.0</ele><time>2026-04-26T10:36:04.887Z</time></trkpt><trkpt lat="42.1494233" lon="14.5824"><ele>195.0</ele><time>2026-04-26T10:36:06.886Z</time></trkpt><trkpt lat="42.1493833" lon="14.5823233"><ele>196.0</ele><time>2026-04-26T10:36:07.886Z</time></trkpt><trkpt lat="42.1493417" lon="14.58225"><ele>197.0</ele><time>2026-04-26T10:36:08.887Z</time></trkpt><trkpt lat="42.1492917" lon="14.5821767"><ele>198.0</ele><time>2026-04-26T10:36:09.886Z</time></trkpt><trkpt lat="42.14925" lon="14.582105"><ele>199.0</ele><time>2026-04-26T10:36:10.887Z</time></trkpt><trkpt lat="42.1492" lon="14.5820317"><ele>200.0</ele><time>2026-04-26T10:36:11.887Z</time></trkpt><trkpt lat="42.1491567" lon="14.5819567"><ele>201.0</ele><time>2026-04-26T10:36:12.887Z</time></trkpt><trkpt lat="42.1491117" lon="14.5818783"><ele>202.28571428571428</ele><time>2026-04-26T10:36:13.887Z</time></trkpt><trkpt lat="42.149065" lon="14.58181"><ele>203.57142857142858</ele><time>2026-04-26T10:36:14.887Z</time></trkpt><trkpt lat="42.1490217" lon="14.58174"><ele>204.85714285714286</ele><time>2026-04-26T10:36:15.887Z</time></trkpt><trkpt lat="42.1489767" lon="14.5816683"><ele>206.14285714285714</ele><time>2026-04-26T10:36:16.886Z</time></trkpt><trkpt lat="42.1489367" lon="14.58159"><ele>207.42857142857144</ele><time>2026-04-26T10:36:17.887Z</time></trkpt><trkpt lat="42.1489017" lon="14.5815133"><ele>208.71428571428572</ele><time>2026-04-26T10:36:18.887Z</time></trkpt><trkpt lat="42.1488733" lon="14.5814333"><ele>210.0</ele><time>2026-04-26T10:36:19.886Z</time></trkpt><trkpt lat="42.1488467" lon="14.5813467"><ele>209.28571428571428</ele><time>2026-04-26T10:36:20.887Z</time></trkpt><trkpt lat="42.1488283" lon="14.5812567"><ele>208.57142857142856</ele><time>2026-04-26T10:36:21.887Z</time></trkpt><trkpt lat="42.1488167" lon="14.5811683"><ele>207.85714285714286</ele><time>2026-04-26T10:36:22.887Z</time></trkpt><trkpt lat="42.1488117" lon="14.581075"><ele>207.14285714285714</ele><time>2026-04-26T10:36:23.887Z</time></trkpt><trkpt lat="42.1488117" lon="14.580985"><ele>206.42857142857142</ele><time>2026-04-26T10:36:24.887Z</time></trkpt><trkpt lat="42.14881" lon="14.580895"><ele>205.71428571428572</ele><time>2026-04-26T10:36:25.887Z</time></trkpt><trkpt lat="42.1488117" lon="14.580805"><ele>205.0</ele><time>2026-04-26T10:36:26.887Z</time></trkpt><trkpt lat="42.1488117" lon="14.580715"><ele>205.0</ele><time>2026-04-26T10:36:27.887Z</time></trkpt><trkpt lat="42.1488067" lon="14.580625"><ele>205.0</ele><time>2026-04-26T10:36:28.887Z</time></trkpt><trkpt lat="42.1488033" lon="14.58053"><ele>205.0</ele><time>2026-04-26T10:36:29.887Z</time></trkpt><trkpt lat="42.1488" lon="14.5804367"><ele>205.0</ele><time>2026-04-26T10:36:30.886Z</time></trkpt><trkpt lat="42.1488" lon="14.580335"><ele>205.0</ele><time>2026-04-26T10:36:31.887Z</time></trkpt><trkpt lat="42.148795" lon="14.5802317"><ele>205.0</ele><time>2026-04-26T10:36:32.887Z</time></trkpt><trkpt lat="42.14879" lon="14.5801383"><ele>205.0</ele><time>2026-04-26T10:36:33.887Z</time></trkpt><trkpt lat="42.1487883" lon="14.5800433"><ele>206.0</ele><time>2026-04-26T10:36:34.887Z</time></trkpt><trkpt lat="42.148785" lon="14.5799517"><ele>207.0</ele><time>2026-04-26T10:36:35.887Z</time></trkpt><trkpt lat="42.148785" lon="14.579865"><ele>208.0</ele><time>2026-04-26T10:36:36.887Z</time></trkpt><trkpt lat="42.1487817" lon="14.57977"><ele>209.0</ele><time>2026-04-26T10:36:37.887Z</time></trkpt><trkpt lat="42.1487767" lon="14.5796817"><ele>210.0</ele><time>2026-04-26T10:36:38.887Z</time></trkpt><trkpt lat="42.1487783" lon="14.5795933"><ele>211.0</ele><time>2026-04-26T10:36:39.887Z</time></trkpt><trkpt lat="42.1487733" lon="14.5795067"><ele>212.0</ele><time>2026-04-26T10:36:40.887Z</time></trkpt><trkpt lat="42.1487717" lon="14.57942"><ele>212.16666666666669</ele><time>2026-04-26T10:36:41.887Z</time></trkpt><trkpt lat="42.1487683" lon="14.5793317"><ele>212.33333333333334</ele><time>2026-04-26T10:36:42.887Z</time></trkpt><trkpt lat="42.1487617" lon="14.5792467"><ele>212.5</ele><time>2026-04-26T10:36:43.886Z</time></trkpt><trkpt lat="42.1487467" lon="14.57909"><ele>212.66666666666669</ele><time>2026-04-26T10:36:45.887Z</time></trkpt><trkpt lat="42.1487383" lon="14.578945"><ele>212.83333333333334</ele><time>2026-04-26T10:36:47.887Z</time></trkpt><trkpt lat="42.14874" lon="14.5788233"><ele>213.0</ele><time>2026-04-26T10:36:49.887Z</time></trkpt><trkpt lat="42.1487567" lon="14.578725"><ele>212.0</ele><time>2026-04-26T10:36:51.886Z</time></trkpt><trkpt lat="42.148845" lon="14.578675"><ele>211.0</ele><time>2026-04-26T10:36:54.887Z</time></trkpt><trkpt lat="42.1489417" lon="14.578675"><ele>210.0</ele><time>2026-04-26T10:36:56.887Z</time></trkpt><trkpt lat="42.1490283" lon="14.5786667"><ele>209.0</ele><time>2026-04-26T10:36:58.886Z</time></trkpt><trkpt lat="42.14911" lon="14.5786517"><ele>208.0</ele><time>2026-04-26T10:37:00.887Z</time></trkpt><trkpt lat="42.1491967" lon="14.5786417"><ele>207.0</ele><time>2026-04-26T10:37:02.887Z</time></trkpt><trkpt lat="42.149285" lon="14.5786283"><ele>209.5</ele><time>2026-04-26T10:37:04.887Z</time></trkpt><trkpt lat="42.1493667" lon="14.57861"><ele>212.0</ele><time>2026-04-26T10:37:06.886Z</time></trkpt><trkpt lat="42.1494483" lon="14.578585"><ele>214.5</ele><time>2026-04-26T10:37:08.886Z</time></trkpt><trkpt lat="42.14953" lon="14.5785567"><ele>217.0</ele><time>2026-04-26T10:37:10.887Z</time></trkpt><trkpt lat="42.1496083" lon="14.5785183"><ele>219.5</ele><time>2026-04-26T10:37:12.887Z</time></trkpt><trkpt lat="42.1496883" lon="14.578465"><ele>222.0</ele><time>2026-04-26T10:37:14.887Z</time></trkpt><trkpt lat="42.1497783" lon="14.5783667"><ele>221.39999999999998</ele><time>2026-04-26T10:37:16.886Z</time></trkpt><trkpt lat="42.1498817" lon="14.5782933"><ele>220.79999999999998</ele><time>2026-04-26T10:37:18.887Z</time></trkpt><trkpt lat="42.1500067" lon="14.5782617"><ele>220.2</ele><time>2026-04-26T10:37:20.887Z</time></trkpt><trkpt lat="42.1500683" lon="14.5782967"><ele>219.6</ele><time>2026-04-26T10:37:21.887Z</time></trkpt><trkpt lat="42.150135" lon="14.5784067"><ele>219.0</ele><time>2026-04-26T10:37:23.886Z</time></trkpt><trkpt lat="42.150155" lon="14.5785283"><ele>219.0</ele><time>2026-04-26T10:37:25.886Z</time></trkpt><trkpt lat="42.1501583" lon="14.5786433"><ele>219.0</ele><time>2026-04-26T10:37:27.886Z</time></trkpt><trkpt lat="42.1501517" lon="14.5787317"><ele>219.0</ele><time>2026-04-26T10:37:29.887Z</time></trkpt><trkpt lat="42.1501417" lon="14.57882"><ele>219.0</ele><time>2026-04-26T10:37:31.886Z</time></trkpt><trkpt lat="42.150135" lon="14.5789183"><ele>219.0</ele><time>2026-04-26T10:37:33.886Z</time></trkpt><trkpt lat="42.150125" lon="14.57905"><ele>219.0</ele><time>2026-04-26T10:37:35.887Z</time></trkpt><trkpt lat="42.1501217" lon="14.5791867"><ele>218.39999999999998</ele><time>2026-04-26T10:37:37.886Z</time></trkpt><trkpt lat="42.1501317" lon="14.5793217"><ele>217.79999999999998</ele><time>2026-04-26T10:37:39.887Z</time></trkpt><trkpt lat="42.15015" lon="14.5794633"><ele>217.20000000000002</ele><time>2026-04-26T10:37:41.887Z</time></trkpt><trkpt lat="42.1501533" lon="14.579605"><ele>216.60000000000002</ele><time>2026-04-26T10:37:43.887Z</time></trkpt><trkpt lat="42.15014" lon="14.57975"><ele>216.0</ele><time>2026-04-26T10:37:45.887Z</time></trkpt><trkpt lat="42.150125" lon="14.5799017"><ele>215.60000000000002</ele><time>2026-04-26T10:37:47.887Z</time></trkpt><trkpt lat="42.1501083" lon="14.5800517"><ele>215.20000000000002</ele><time>2026-04-26T10:37:49.887Z</time></trkpt><trkpt lat="42.1500933" lon="14.5801883"><ele>214.79999999999998</ele><time>2026-04-26T10:37:51.886Z</time></trkpt><trkpt lat="42.15009" lon="14.5803183"><ele>214.39999999999998</ele><time>2026-04-26T10:37:53.886Z</time></trkpt><trkpt lat="42.1500683" lon="14.5804467"><ele>214.0</ele><time>2026-04-26T10:37:55.887Z</time></trkpt><trkpt lat="42.1500583" lon="14.5805967"><ele>213.83333333333331</ele><time>2026-04-26T10:37:57.887Z</time></trkpt><trkpt lat="42.1500583" lon="14.5807317"><ele>213.66666666666666</ele><time>2026-04-26T10:37:59.887Z</time></trkpt><trkpt lat="42.1500583" lon="14.58083"><ele>213.5</ele><time>2026-04-26T10:38:01.886Z</time></trkpt><trkpt lat="42.1500617" lon="14.580925"><ele>213.33333333333331</ele><time>2026-04-26T10:38:03.887Z</time></trkpt><trkpt lat="42.1500583" lon="14.581015"><ele>213.16666666666666</ele><time>2026-04-26T10:38:05.887Z</time></trkpt><trkpt lat="42.1500383" lon="14.5810967"><ele>213.0</ele><time>2026-04-26T10:38:07.887Z</time></trkpt><trkpt lat="42.1500333" lon="14.5812017"><ele>212.5</ele><time>2026-04-26T10:38:09.887Z</time></trkpt><trkpt lat="42.1500267" lon="14.5813067"><ele>212.0</ele><time>2026-04-26T10:38:11.886Z</time></trkpt><trkpt lat="42.15003" lon="14.5814183"><ele>211.5</ele><time>2026-04-26T10:38:13.886Z</time></trkpt><trkpt lat="42.150035" lon="14.58152"><ele>211.0</ele><time>2026-04-26T10:38:15.887Z</time></trkpt><trkpt lat="42.1500233" lon="14.5816283"><ele>210.5</ele><time>2026-04-26T10:38:17.886Z</time></trkpt><trkpt lat="42.1500033" lon="14.5817267"><ele>210.0</ele><time>2026-04-26T10:38:19.887Z</time></trkpt><trkpt lat="42.1499783" lon="14.5818117"><ele>210.0</ele><time>2026-04-26T10:38:21.886Z</time></trkpt><trkpt lat="42.1499467" lon="14.5818967"><ele>210.0</ele><time>2026-04-26T10:38:23.887Z</time></trkpt><trkpt lat="42.1499367" lon="14.581995"><ele>210.0</ele><time>2026-04-26T10:38:26.887Z</time></trkpt><trkpt lat="42.149965" lon="14.582115"><ele>210.0</ele><time>2026-04-26T10:38:29.887Z</time></trkpt><trkpt lat="42.14998" lon="14.5822383"><ele>210.0</ele><time>2026-04-26T10:38:31.886Z</time></trkpt><trkpt lat="42.1499783" lon="14.5823883"><ele>210.0</ele><time>2026-04-26T10:38:33.887Z</time></trkpt><trkpt lat="42.1499733" lon="14.5825283"><ele>210.0</ele><time>2026-04-26T10:38:35.887Z</time></trkpt><trkpt lat="42.14997" lon="14.5826433"><ele>210.0</ele><time>2026-04-26T10:38:37.887Z</time></trkpt><trkpt lat="42.1499683" lon="14.5827333"><ele>210.0</ele><time>2026-04-26T10:38:39.887Z</time></trkpt><trkpt lat="42.149965" lon="14.5828267"><ele>210.0</ele><time>2026-04-26T10:38:41.886Z</time></trkpt><trkpt lat="42.149975" lon="14.582955"><ele>210.0</ele><time>2026-04-26T10:38:48.886Z</time></trkpt><trkpt lat="42.1499733" lon="14.58307"><ele>210.0</ele><time>2026-04-26T10:38:51.886Z</time></trkpt><trkpt lat="42.1499933" lon="14.58319"><ele>210.0</ele><time>2026-04-26T10:38:53.886Z</time></trkpt><trkpt lat="42.15003" lon="14.58329"><ele>210.0</ele><time>2026-04-26T10:38:55.886Z</time></trkpt><trkpt lat="42.1500333" lon="14.583385"><ele>210.0</ele><time>2026-04-26T10:38:58.887Z</time></trkpt><trkpt lat="42.14998" lon="14.58348"><ele>210.0</ele><time>2026-04-26T10:39:01.886Z</time></trkpt><trkpt lat="42.15002" lon="14.5836317"><ele>210.0</ele><time>2026-04-26T10:39:03.887Z</time></trkpt><trkpt lat="42.1500983" lon="14.5837167"><ele>210.0</ele><time>2026-04-26T10:39:04.887Z</time></trkpt><trkpt lat="42.1501717" lon="14.5837833"><ele>210.0</ele><time>2026-04-26T10:39:06.887Z</time></trkpt><trkpt lat="42.150245" lon="14.58383"><ele>210.0</ele><time>2026-04-26T10:39:08.887Z</time></trkpt><trkpt lat="42.15031" lon="14.5838683"><ele>210.0</ele><time>2026-04-26T10:39:10.886Z</time></trkpt><trkpt lat="42.150385" lon="14.5839367"><ele>210.0</ele><time>2026-04-26T10:39:12.887Z</time></trkpt><trkpt lat="42.150455" lon="14.584015"><ele>210.0</ele><time>2026-04-26T10:39:14.887Z</time></trkpt><trkpt lat="42.15047" lon="14.5841"><ele>210.0</ele><time>2026-04-26T10:39:16.886Z</time></trkpt><trkpt lat="42.1504317" lon="14.5842033"><ele>210.0</ele><time>2026-04-26T10:39:18.887Z</time></trkpt><trkpt lat="42.1504217" lon="14.5843217"><ele>210.0</ele><time>2026-04-26T10:39:20.887Z</time></trkpt><trkpt lat="42.1504117" lon="14.58443"><ele>210.0</ele><time>2026-04-26T10:39:23.887Z</time></trkpt><trkpt lat="42.1504633" lon="14.584495"><ele>210.0</ele><time>2026-04-26T10:39:24.886Z</time></trkpt><trkpt lat="42.1505367" lon="14.5846117"><ele>210.0</ele><time>2026-04-26T10:39:26.886Z</time></trkpt><trkpt lat="42.150525" lon="14.584725"><ele>209.16666666666666</ele><time>2026-04-26T10:39:28.887Z</time></trkpt><trkpt lat="42.1505017" lon="14.5848683"><ele>208.33333333333331</ele><time>2026-04-26T10:39:30.887Z</time></trkpt><trkpt lat="42.1504967" lon="14.584965"><ele>207.5</ele><time>2026-04-26T10:39:33.887Z</time></trkpt><trkpt lat="42.150425" lon="14.5850517"><ele>206.66666666666666</ele><time>2026-04-26T10:39:36.887Z</time></trkpt><trkpt lat="42.150365" lon="14.585095"><ele>205.83333333333331</ele><time>2026-04-26T10:39:38.887Z</time></trkpt><trkpt lat="42.150295" lon="14.5851267"><ele>205.0</ele><time>2026-04-26T10:39:40.887Z</time></trkpt><trkpt lat="42.1502267" lon="14.5851733"><ele>205.0</ele><time>2026-04-26T10:39:42.887Z</time></trkpt><trkpt lat="42.15014" lon="14.585215"><ele>205.0</ele><time>2026-04-26T10:39:44.887Z</time></trkpt><trkpt lat="42.1500733" lon="14.58523"><ele>205.0</ele><time>2026-04-26T10:39:46.887Z</time></trkpt><trkpt lat="42.14996" lon="14.5852283"><ele>205.0</ele><time>2026-04-26T10:39:49.887Z</time></trkpt></trkseg></trk></gpx>